<?xml version='1.0' encoding='UTF-8'?><gpx version="1.1" creator="JPX - https://github.com/jenetics/jpx" xmlns="http://www.topografix.com/GPX/1/1"><trk><trkseg><trkpt lat="45.57665931371564" lon="10.754141605912238"><ele>210.0</ele><time>2026-03-28T11:01:07.001Z</time></trkpt><trkpt lat="45.576742112867464" lon="10.754118436632487"><ele>210.0</ele><time>2026-03-28T11:01:10.001Z</time></trkpt><trkpt lat="45.5768351750961" lon="10.75414662682402"><ele>210.0</ele><time>2026-03-28T11:01:12.001Z</time></trkpt><trkpt lat="45.57690623037331" lon="10.754152184948921"><ele>210.0</ele><time>2026-03-28T11:01:14.001Z</time></trkpt><trkpt lat="45.5769728606707" lon="10.754210416791752"><ele>210.0</ele><time>2026-03-28T11:01:17.001Z</time></trkpt><trkpt lat="45.57700635959902" lon="10.75429669823799"><ele>210.0</ele><time>2026-03-28T11:01:19Z</time></trkpt><trkpt lat="45.57704184651735" lon="10.75441528628166"><ele>209.4</ele><time>2026-03-28T11:01:21Z</time></trkpt><trkpt lat="45.57707518707646" lon="10.75454887976751"><ele>208.8</ele><time>2026-03-28T11:01:23Z</time></trkpt><trkpt lat="45.577097284075634" lon="10.754685065045948"><ele>208.2</ele><time>2026-03-28T11:01:24.999Z</time></trkpt><trkpt lat="45.577111171079956" lon="10.754814642455607"><ele>207.6</ele><time>2026-03-28T11:01:26.999Z</time></trkpt><trkpt lat="45.57712861201412" lon="10.754944255415213"><ele>207.0</ele><time>2026-03-28T11:01:28.999Z</time></trkpt><trkpt lat="45.577151165884914" lon="10.755092779707466"><ele>206.83333333333334</ele><time>2026-03-28T11:01:30.999Z</time></trkpt><trkpt lat="45.57717265571996" lon="10.755264431078038"><ele>206.66666666666669</ele><time>2026-03-28T11:01:33Z</time></trkpt><trkpt lat="45.577187386714705" lon="10.755367310198077"><ele>206.5</ele><time>2026-03-28T11:01:34Z</time></trkpt><trkpt lat="45.57719910051442" lon="10.75545813678902"><ele>206.33333333333334</ele><time>2026-03-28T11:01:35Z</time></trkpt><trkpt lat="45.57720719720137" lon="10.755550541095497"><ele>206.16666666666669</ele><time>2026-03-28T11:01:36Z</time></trkpt><trkpt lat="45.57721440680529" lon="10.755657587889374"><ele>206.0</ele><time>2026-03-28T11:01:37Z</time></trkpt><trkpt lat="45.57721382029382" lon="10.755763605336933"><ele>206.00000000000003</ele><time>2026-03-28T11:01:38Z</time></trkpt><trkpt lat="45.577207420706785" lon="10.7558741946879"><ele>206.0</ele><time>2026-03-28T11:01:39Z</time></trkpt><trkpt lat="45.577198015927856" lon="10.755972367095302"><ele>206.0</ele><time>2026-03-28T11:01:40Z</time></trkpt><trkpt lat="45.57717553421347" lon="10.756079970709065"><ele>206.0</ele><time>2026-03-28T11:01:41Z</time></trkpt><trkpt lat="45.577141125349954" lon="10.756196601147499"><ele>206.00000000000003</ele><time>2026-03-28T11:01:42Z</time></trkpt><trkpt lat="45.577105356181626" lon="10.756311136795448"><ele>206.0</ele><time>2026-03-28T11:01:43Z</time></trkpt><trkpt lat="45.57706084580072" lon="10.756408829421925"><ele>206.0</ele><time>2026-03-28T11:01:44Z</time></trkpt><trkpt lat="45.57702466162944" lon="10.756486968952144"><ele>206.0</ele><time>2026-03-28T11:01:45Z</time></trkpt><trkpt lat="45.57696627285749" lon="10.756609944393194"><ele>206.0</ele><time>2026-03-28T11:01:47Z</time></trkpt><trkpt lat="45.57692515532933" lon="10.756682606312486"><ele>206.0</ele><time>2026-03-28T11:01:49Z</time></trkpt><trkpt lat="45.577092754009904" lon="10.756750940557719"><ele>206.0</ele><time>2026-03-28T11:02:10Z</time></trkpt><trkpt lat="45.577186326162874" lon="10.756720422668007"><ele>206.0</ele><time>2026-03-28T11:02:11Z</time></trkpt><trkpt lat="45.577289142748135" lon="10.75667674418762"><ele>206.0</ele><time>2026-03-28T11:02:12Z</time></trkpt><trkpt lat="45.5774111842116" lon="10.756633494421834"><ele>206.0</ele><time>2026-03-28T11:02:13Z</time></trkpt><trkpt lat="45.57754586394043" lon="10.756583359392572"><ele>206.0</ele><time>2026-03-28T11:02:14Z</time></trkpt><trkpt lat="45.57769002037868" lon="10.756534036133814"><ele>206.0</ele><time>2026-03-28T11:02:15Z</time></trkpt><trkpt lat="45.577841436423824" lon="10.756481884039026"><ele>206.0</ele><time>2026-03-28T11:02:16Z</time></trkpt><trkpt lat="45.577997327220515" lon="10.756425936969405"><ele>206.0</ele><time>2026-03-28T11:02:17Z</time></trkpt><trkpt lat="45.578157487296636" lon="10.756369138528518"><ele>205.66666666666669</ele><time>2026-03-28T11:02:18Z</time></trkpt><trkpt lat="45.578317673706756" lon="10.756312585462876"><ele>205.33333333333331</ele><time>2026-03-28T11:02:19Z</time></trkpt><trkpt lat="45.578468746008284" lon="10.75625446318353"><ele>205.0</ele><time>2026-03-28T11:02:20Z</time></trkpt><trkpt lat="45.57861282981687" lon="10.756192882327191"><ele>205.33333333333331</ele><time>2026-03-28T11:02:21Z</time></trkpt><trkpt lat="45.578751075528984" lon="10.75612361640196"><ele>205.66666666666669</ele><time>2026-03-28T11:02:22Z</time></trkpt><trkpt lat="45.57889197322062" lon="10.756040865443298"><ele>206.0</ele><time>2026-03-28T11:02:23Z</time></trkpt><trkpt lat="45.57903160603124" lon="10.755946671273975"><ele>206.66666666666669</ele><time>2026-03-28T11:02:24Z</time></trkpt><trkpt lat="45.57916928772278" lon="10.755845849901906"><ele>207.33333333333331</ele><time>2026-03-28T11:02:25Z</time></trkpt><trkpt lat="45.57930696700953" lon="10.755747777732111"><ele>208.0</ele><time>2026-03-28T11:02:26Z</time></trkpt><trkpt lat="45.57944017825551" lon="10.75563219908612"><ele>207.66666666666666</ele><time>2026-03-28T11:02:27Z</time></trkpt><trkpt lat="45.579570223979935" lon="10.755518199802403"><ele>207.33333333333331</ele><time>2026-03-28T11:02:28Z</time></trkpt><trkpt lat="45.57970713582165" lon="10.75539953397913"><ele>207.0</ele><time>2026-03-28T11:02:29Z</time></trkpt><trkpt lat="45.57983424108812" lon="10.7552824555623"><ele>207.25</ele><time>2026-03-28T11:02:30Z</time></trkpt><trkpt lat="45.57996060198078" lon="10.755159519051498"><ele>207.5</ele><time>2026-03-28T11:02:31Z</time></trkpt><trkpt lat="45.58008280274028" lon="10.755044379750714"><ele>207.75</ele><time>2026-03-28T11:02:32Z</time></trkpt><trkpt lat="45.58019104353074" lon="10.754942868118446"><ele>208.0</ele><time>2026-03-28T11:02:33Z</time></trkpt><trkpt lat="45.58029265148033" lon="10.754844326093547"><ele>208.25</ele><time>2026-03-28T11:02:34Z</time></trkpt><trkpt lat="45.580401429481455" lon="10.754741366059733"><ele>208.5</ele><time>2026-03-28T11:02:35Z</time></trkpt><trkpt lat="45.58051593748945" lon="10.754634729256432"><ele>208.75</ele><time>2026-03-28T11:02:36Z</time></trkpt><trkpt lat="45.58063164823249" lon="10.754523868056772"><ele>209.0</ele><time>2026-03-28T11:02:37Z</time></trkpt><trkpt lat="45.58074460840214" lon="10.754415392407854"><ele>208.75</ele><time>2026-03-28T11:02:38Z</time></trkpt><trkpt lat="45.580857455195236" lon="10.75430810482123"><ele>208.5</ele><time>2026-03-28T11:02:39Z</time></trkpt><trkpt lat="45.58096359997263" lon="10.754210048228947"><ele>208.25</ele><time>2026-03-28T11:02:40Z</time></trkpt><trkpt lat="45.581066894533684" lon="10.75411527983663"><ele>208.0</ele><time>2026-03-28T11:02:41Z</time></trkpt><trkpt lat="45.5811685016109" lon="10.754021265957162"><ele>208.25</ele><time>2026-03-28T11:02:42Z</time></trkpt><trkpt lat="45.58127403344995" lon="10.753925107319997"><ele>208.5</ele><time>2026-03-28T11:02:43Z</time></trkpt><trkpt lat="45.58137560726599" lon="10.753835371329975"><ele>208.75</ele><time>2026-03-28T11:02:44Z</time></trkpt><trkpt lat="45.58148018250529" lon="10.753744137483187"><ele>209.0</ele><time>2026-03-28T11:02:45Z</time></trkpt><trkpt lat="45.58158708659659" lon="10.75365600507593"><ele>209.0</ele><time>2026-03-28T11:02:46Z</time></trkpt><trkpt lat="45.58169271619418" lon="10.753571147165747"><ele>209.0</ele><time>2026-03-28T11:02:47Z</time></trkpt><trkpt lat="45.58180825974568" lon="10.753473416671468"><ele>209.0</ele><time>2026-03-28T11:02:48Z</time></trkpt><trkpt lat="45.58190665271604" lon="10.753391263914716"><ele>209.0</ele><time>2026-03-28T11:02:49Z</time></trkpt><trkpt lat="45.58201541270372" lon="10.753289602591957"><ele>209.39999999999998</ele><time>2026-03-28T11:02:50Z</time></trkpt><trkpt lat="45.582120071041594" lon="10.753192868396143"><ele>209.8</ele><time>2026-03-28T11:02:51Z</time></trkpt><trkpt lat="45.58221915206058" lon="10.753105689918058"><ele>210.2</ele><time>2026-03-28T11:02:52Z</time></trkpt><trkpt lat="45.58230670010197" lon="10.753025959125791"><ele>210.60000000000002</ele><time>2026-03-28T11:02:53Z</time></trkpt><trkpt lat="45.582390378719985" lon="10.752966197103529"><ele>211.0</ele><time>2026-03-28T11:02:54Z</time></trkpt><trkpt lat="45.58246319213137" lon="10.752930608258772"><ele>211.0</ele><time>2026-03-28T11:02:55Z</time></trkpt><trkpt lat="45.58255265180946" lon="10.753066202062831"><ele>211.0</ele><time>2026-03-28T11:02:57Z</time></trkpt><trkpt lat="45.582610119776696" lon="10.753169553992633"><ele>211.0</ele><time>2026-03-28T11:02:58Z</time></trkpt><trkpt lat="45.58268344858157" lon="10.753285342827384"><ele>211.0</ele><time>2026-03-28T11:02:59Z</time></trkpt><trkpt lat="45.582755305131975" lon="10.753429918731046"><ele>210.5</ele><time>2026-03-28T11:03:00Z</time></trkpt><trkpt lat="45.58283644640324" lon="10.753581104124205"><ele>210.0</ele><time>2026-03-28T11:03:01Z</time></trkpt><trkpt lat="45.58292487968432" lon="10.753742150044827"><ele>209.5</ele><time>2026-03-28T11:03:02Z</time></trkpt><trkpt lat="45.583015484287316" lon="10.753914465938118"><ele>209.0</ele><time>2026-03-28T11:03:03Z</time></trkpt><trkpt lat="45.58311354766881" lon="10.75409669064144"><ele>208.66666666666669</ele><time>2026-03-28T11:03:04Z</time></trkpt><trkpt lat="45.58321558433111" lon="10.754286409734382"><ele>208.33333333333331</ele><time>2026-03-28T11:03:05Z</time></trkpt><trkpt lat="45.58331546159802" lon="10.754472410577831"><ele>208.0</ele><time>2026-03-28T11:03:06Z</time></trkpt><trkpt lat="45.58341714265929" lon="10.754654827696017"><ele>208.5</ele><time>2026-03-28T11:03:07Z</time></trkpt><trkpt lat="45.58350386967796" lon="10.754806026075132"><ele>209.0</ele><time>2026-03-28T11:03:08Z</time></trkpt><trkpt lat="45.58358467479885" lon="10.75495332940466"><ele>209.5</ele><time>2026-03-28T11:03:09Z</time></trkpt><trkpt lat="45.583651720405605" lon="10.75508856043477"><ele>210.0</ele><time>2026-03-28T11:03:10Z</time></trkpt><trkpt lat="45.58371334298759" lon="10.755227187873908"><ele>210.33333333333331</ele><time>2026-03-28T11:03:11Z</time></trkpt><trkpt lat="45.58377445008195" lon="10.755391725451016"><ele>210.66666666666666</ele><time>2026-03-28T11:03:12Z</time></trkpt><trkpt lat="45.58383870846063" lon="10.755563227247844"><ele>211.0</ele><time>2026-03-28T11:03:13Z</time></trkpt><trkpt lat="45.58405066375033" lon="10.755264402182386"><ele>211.0</ele><time>2026-03-28T11:03:14Z</time></trkpt><trkpt lat="45.584001549286235" lon="10.755881260235812"><ele>211.0</ele><time>2026-03-28T11:03:15Z</time></trkpt><trkpt lat="45.58409927947987" lon="10.75604657295651"><ele>210.66666666666666</ele><time>2026-03-28T11:03:16Z</time></trkpt><trkpt lat="45.58419858440045" lon="10.756217581091917"><ele>210.33333333333331</ele><time>2026-03-28T11:03:17Z</time></trkpt><trkpt lat="45.58429573500094" lon="10.756378231402767"><ele>210.0</ele><time>2026-03-28T11:03:18.001Z</time></trkpt><trkpt lat="45.584396842082185" lon="10.756530643369892"><ele>210.0</ele><time>2026-03-28T11:03:19.001Z</time></trkpt><trkpt lat="45.58449853015" lon="10.756685771153075"><ele>210.0</ele><time>2026-03-28T11:03:20.001Z</time></trkpt><trkpt lat="45.58459025410375" lon="10.756834477733948"><ele>210.0</ele><time>2026-03-28T11:03:21.001Z</time></trkpt><trkpt lat="45.58467313610534" lon="10.756980047047948"><ele>210.0</ele><time>2026-03-28T11:03:22.001Z</time></trkpt><trkpt lat="45.58474849881748" lon="10.757087207430777"><ele>209.75</ele><time>2026-03-28T11:03:23.001Z</time></trkpt><trkpt lat="45.58482937389235" lon="10.757181004171091"><ele>209.5</ele><time>2026-03-28T11:03:23.997Z</time></trkpt><trkpt lat="45.584925457686424" lon="10.757270246441058"><ele>209.25</ele><time>2026-03-28T11:03:24.997Z</time></trkpt><trkpt lat="45.58502809835815" lon="10.757356360959797"><ele>209.0</ele><time>2026-03-28T11:03:25.997Z</time></trkpt><trkpt lat="45.58512719707512" lon="10.757434174741064"><ele>209.0</ele><time>2026-03-28T11:03:26.997Z</time></trkpt><trkpt lat="45.58523157365227" lon="10.757482093043235"><ele>209.0</ele><time>2026-03-28T11:03:27.997Z</time></trkpt><trkpt lat="45.58533215977002" lon="10.757510589584115"><ele>209.0</ele><time>2026-03-28T11:03:28.997Z</time></trkpt><trkpt lat="45.58542093836116" lon="10.757550136811853"><ele>209.0</ele><time>2026-03-28T11:03:29.997Z</time></trkpt><trkpt lat="45.58552317132205" lon="10.757626430230017"><ele>209.0</ele><time>2026-03-28T11:03:30.997Z</time></trkpt><trkpt lat="45.585625263643735" lon="10.757715896925015"><ele>209.2</ele><time>2026-03-28T11:03:31.997Z</time></trkpt><trkpt lat="45.58573267538831" lon="10.757814483929526"><ele>209.39999999999998</ele><time>2026-03-28T11:03:32.997Z</time></trkpt><trkpt lat="45.58583364377113" lon="10.757909659370823"><ele>209.6</ele><time>2026-03-28T11:03:33.997Z</time></trkpt><trkpt lat="45.58592196548314" lon="10.757974016208205"><ele>209.8</ele><time>2026-03-28T11:03:34.997Z</time></trkpt><trkpt lat="45.586014701914756" lon="10.757986181848816"><ele>210.0</ele><time>2026-03-28T11:03:35.997Z</time></trkpt><trkpt lat="45.58613840565117" lon="10.757999340740652"><ele>210.0</ele><time>2026-03-28T11:03:36.998Z</time></trkpt><trkpt lat="45.586268404732195" lon="10.758028638240134"><ele>210.0</ele><time>2026-03-28T11:03:37.998Z</time></trkpt><trkpt lat="45.586411347646404" lon="10.758064815171807"><ele>210.0</ele><time>2026-03-28T11:03:38.998Z</time></trkpt><trkpt lat="45.58653835180721" lon="10.75809290875342"><ele>210.0</ele><time>2026-03-28T11:03:39.998Z</time></trkpt><trkpt lat="45.58667408851471" lon="10.758129837255096"><ele>210.0</ele><time>2026-03-28T11:03:40.998Z</time></trkpt><trkpt lat="45.58681811236696" lon="10.758163765423026"><ele>210.0</ele><time>2026-03-28T11:03:41.998Z</time></trkpt><trkpt lat="45.58696010733758" lon="10.758200752025113"><ele>210.0</ele><time>2026-03-28T11:03:42.998Z</time></trkpt><trkpt lat="45.58709524816858" lon="10.758235911255118"><ele>210.0</ele><time>2026-03-28T11:03:43.998Z</time></trkpt><trkpt lat="45.58723203647476" lon="10.758278494503312"><ele>210.0</ele><time>2026-03-28T11:03:44.998Z</time></trkpt><trkpt lat="45.587339949197954" lon="10.75831418289127"><ele>210.0</ele><time>2026-03-28T11:03:45.998Z</time></trkpt><trkpt lat="45.58744241244842" lon="10.758370254447922"><ele>210.0</ele><time>2026-03-28T11:03:46.998Z</time></trkpt><trkpt lat="45.587518948467505" lon="10.758451466201283"><ele>210.0</ele><time>2026-03-28T11:03:47.998Z</time></trkpt><trkpt lat="45.58757752682244" lon="10.758553492017581"><ele>210.0</ele><time>2026-03-28T11:03:48.998Z</time></trkpt><trkpt lat="45.5876001513452" lon="10.758645908543215"><ele>210.0</ele><time>2026-03-28T11:03:49.998Z</time></trkpt><trkpt lat="45.587598751383155" lon="10.758747728530707"><ele>210.0</ele><time>2026-03-28T11:03:50.999Z</time></trkpt><trkpt lat="45.58757927675759" lon="10.758869441450807"><ele>210.0</ele><time>2026-03-28T11:03:51.999Z</time></trkpt><trkpt lat="45.58755436943122" lon="10.759020803167045"><ele>210.0</ele><time>2026-03-28T11:03:52.999Z</time></trkpt><trkpt lat="45.58753981309698" lon="10.759195477984287"><ele>210.0</ele><time>2026-03-28T11:03:53.999Z</time></trkpt><trkpt lat="45.587530136473724" lon="10.759382191637858"><ele>210.0</ele><time>2026-03-28T11:03:54.999Z</time></trkpt><trkpt lat="45.58752961848608" lon="10.759587316021065"><ele>210.0</ele><time>2026-03-28T11:03:55.999Z</time></trkpt><trkpt lat="45.58752940746071" lon="10.759794410711542"><ele>210.0</ele><time>2026-03-28T11:03:56.999Z</time></trkpt><trkpt lat="45.58752982306878" lon="10.760002618025048"><ele>210.0</ele><time>2026-03-28T11:03:57.999Z</time></trkpt><trkpt lat="45.58752749470435" lon="10.760211132065985"><ele>210.0</ele><time>2026-03-28T11:03:58.999Z</time></trkpt><trkpt lat="45.5875214435487" lon="10.760426714080944"><ele>210.0</ele><time>2026-03-28T11:03:59.999Z</time></trkpt><trkpt lat="45.587514758405284" lon="10.760648519751717"><ele>210.0</ele><time>2026-03-28T11:04:00.999Z</time></trkpt><trkpt lat="45.58751261020416" lon="10.760876649676922"><ele>210.33333333333331</ele><time>2026-03-28T11:04:01.999Z</time></trkpt><trkpt lat="45.587511982635505" lon="10.761103670442033"><ele>210.66666666666666</ele><time>2026-03-28T11:04:02.999Z</time></trkpt><trkpt lat="45.58750565387815" lon="10.761333622265298"><ele>211.0</ele><time>2026-03-28T11:04:03.999Z</time></trkpt><trkpt lat="45.58748742535525" lon="10.761563656972525"><ele>211.0</ele><time>2026-03-28T11:04:04.999Z</time></trkpt><trkpt lat="45.58745784190255" lon="10.761785352304301"><ele>211.0</ele><time>2026-03-28T11:04:05.999Z</time></trkpt><trkpt lat="45.58741237206047" lon="10.762001725251187"><ele>211.0</ele><time>2026-03-28T11:04:06.999Z</time></trkpt><trkpt lat="45.58735196080912" lon="10.762207139571341"><ele>211.25</ele><time>2026-03-28T11:04:07.999Z</time></trkpt><trkpt lat="45.58728678877956" lon="10.762353138833637"><ele>211.5</ele><time>2026-03-28T11:04:08.999Z</time></trkpt><trkpt lat="45.58719477489956" lon="10.762563482719644"><ele>211.75</ele><time>2026-03-28T11:04:09.999Z</time></trkpt><trkpt lat="45.5871071491442" lon="10.762711634506132"><ele>212.0</ele><time>2026-03-28T11:04:10.999Z</time></trkpt><trkpt lat="45.58703995629133" lon="10.762824082241215"><ele>211.8</ele><time>2026-03-28T11:04:11.999Z</time></trkpt><trkpt lat="45.58699156188292" lon="10.762909620592676"><ele>211.6</ele><time>2026-03-28T11:04:12.999Z</time></trkpt><trkpt lat="45.58692910344156" lon="10.763001279923646"><ele>211.4</ele><time>2026-03-28T11:04:13.999Z</time></trkpt><trkpt lat="45.58684019641086" lon="10.763109619366974"><ele>211.20000000000002</ele><time>2026-03-28T11:04:14.999Z</time></trkpt><trkpt lat="45.58674332634702" lon="10.763210254950728"><ele>211.0</ele><time>2026-03-28T11:04:15.999Z</time></trkpt><trkpt lat="45.586629629705754" lon="10.763311767231448"><ele>211.0</ele><time>2026-03-28T11:04:16.999Z</time></trkpt><trkpt lat="45.58651838007138" lon="10.76341297954716"><ele>211.0</ele><time>2026-03-28T11:04:17.999Z</time></trkpt><trkpt lat="45.586409776566626" lon="10.763523524164015"><ele>211.0</ele><time>2026-03-28T11:04:18.999Z</time></trkpt><trkpt lat="45.586298601692874" lon="10.763645251173374"><ele>211.0</ele><time>2026-03-28T11:04:19.999Z</time></trkpt><trkpt lat="45.58619720572136" lon="10.763783845918596"><ele>211.25</ele><time>2026-03-28T11:04:20.999Z</time></trkpt><trkpt lat="45.58609632967774" lon="10.763931969258445"><ele>211.5</ele><time>2026-03-28T11:04:21.999Z</time></trkpt><trkpt lat="45.585997418276484" lon="10.76408330199445"><ele>211.75</ele><time>2026-03-28T11:04:23Z</time></trkpt><trkpt lat="45.58589994423157" lon="10.764242725244479"><ele>212.0</ele><time>2026-03-28T11:04:24Z</time></trkpt><trkpt lat="45.58580159097257" lon="10.764405891429366"><ele>212.33333333333334</ele><time>2026-03-28T11:04:25Z</time></trkpt><trkpt lat="45.5857091511408" lon="10.76458068764726"><ele>212.66666666666669</ele><time>2026-03-28T11:04:26Z</time></trkpt><trkpt lat="45.58562137571661" lon="10.764759999569176"><ele>213.0</ele><time>2026-03-28T11:04:27Z</time></trkpt><trkpt lat="45.58553813197346" lon="10.764947126921381"><ele>213.0</ele><time>2026-03-28T11:04:28Z</time></trkpt><trkpt lat="45.58545525999915" lon="10.765130182016643"><ele>213.0</ele><time>2026-03-28T11:04:29Z</time></trkpt><trkpt lat="45.58536312259127" lon="10.76531492974436"><ele>213.0</ele><time>2026-03-28T11:04:30Z</time></trkpt><trkpt lat="45.58526361059799" lon="10.765492250485817"><ele>213.0</ele><time>2026-03-28T11:04:31Z</time></trkpt><trkpt lat="45.58516316440755" lon="10.765672986379172"><ele>213.0</ele><time>2026-03-28T11:04:32Z</time></trkpt><trkpt lat="45.58505998191711" lon="10.765860469397948"><ele>213.0</ele><time>2026-03-28T11:04:33Z</time></trkpt><trkpt lat="45.584963306540864" lon="10.766037591897579"><ele>213.25</ele><time>2026-03-28T11:04:34Z</time></trkpt><trkpt lat="45.58486955847813" lon="10.766206375829494"><ele>213.5</ele><time>2026-03-28T11:04:35Z</time></trkpt><trkpt lat="45.584782570711496" lon="10.766360759057585"><ele>213.75</ele><time>2026-03-28T11:04:36Z</time></trkpt><trkpt lat="45.58469870154025" lon="10.76650476448773"><ele>214.0</ele><time>2026-03-28T11:04:37Z</time></trkpt><trkpt lat="45.58461059420254" lon="10.766651234428755"><ele>214.0</ele><time>2026-03-28T11:04:38Z</time></trkpt><trkpt lat="45.58452143845429" lon="10.766790314665457"><ele>214.0</ele><time>2026-03-28T11:04:39Z</time></trkpt><trkpt lat="45.58443907116251" lon="10.766907869812886"><ele>214.0</ele><time>2026-03-28T11:04:40Z</time></trkpt><trkpt lat="45.58436042422228" lon="10.766996727291144"><ele>214.0</ele><time>2026-03-28T11:04:41Z</time></trkpt><trkpt lat="45.584276551646965" lon="10.767079112745682"><ele>214.0</ele><time>2026-03-28T11:04:42Z</time></trkpt><trkpt lat="45.58418468003479" lon="10.767181028766371"><ele>214.0</ele><time>2026-03-28T11:04:43Z</time></trkpt><trkpt lat="45.58409890381822" lon="10.767307207790466"><ele>214.0</ele><time>2026-03-28T11:04:44Z</time></trkpt><trkpt lat="45.584032777713034" lon="10.767470031777783"><ele>214.0</ele><time>2026-03-28T11:04:45Z</time></trkpt><trkpt lat="45.58398690411026" lon="10.767651465000704"><ele>213.75</ele><time>2026-03-28T11:04:46Z</time></trkpt><trkpt lat="45.58394428758509" lon="10.76784901458175"><ele>213.5</ele><time>2026-03-28T11:04:47Z</time></trkpt><trkpt lat="45.58391314918536" lon="10.768042793720463"><ele>213.25</ele><time>2026-03-28T11:04:48Z</time></trkpt><trkpt lat="45.58387873800965" lon="10.768237968913335"><ele>213.0</ele><time>2026-03-28T11:04:49Z</time></trkpt><trkpt lat="45.58385595307352" lon="10.768444787295069"><ele>214.0</ele><time>2026-03-28T11:04:50Z</time></trkpt><trkpt lat="45.58384135605987" lon="10.76866841785806"><ele>215.0</ele><time>2026-03-28T11:04:51Z</time></trkpt><trkpt lat="45.58382821858025" lon="10.768890430437043"><ele>216.0</ele><time>2026-03-28T11:04:52Z</time></trkpt><trkpt lat="45.58381271896515" lon="10.7691243660124"><ele>217.0</ele><time>2026-03-28T11:04:53Z</time></trkpt><trkpt lat="45.58379130235881" lon="10.769362673024618"><ele>218.0</ele><time>2026-03-28T11:04:54Z</time></trkpt><trkpt lat="45.583766386415654" lon="10.769604433542302"><ele>219.0</ele><time>2026-03-28T11:04:55Z</time></trkpt><trkpt lat="45.58373400708052" lon="10.769847324329225"><ele>219.0</ele><time>2026-03-28T11:04:56Z</time></trkpt><trkpt lat="45.58369922168819" lon="10.77009946681668"><ele>219.0</ele><time>2026-03-28T11:04:57Z</time></trkpt><trkpt lat="45.58366791082905" lon="10.770342411441797"><ele>219.0</ele><time>2026-03-28T11:04:58Z</time></trkpt><trkpt lat="45.58364122369853" lon="10.770601414634532"><ele>218.66666666666669</ele><time>2026-03-28T11:04:59Z</time></trkpt><trkpt lat="45.583623759051" lon="10.770854835889642"><ele>218.33333333333334</ele><time>2026-03-28T11:05:00Z</time></trkpt><trkpt lat="45.583608357467114" lon="10.771116821801192"><ele>218.0</ele><time>2026-03-28T11:05:01Z</time></trkpt><trkpt lat="45.583593814972026" lon="10.771368410847648"><ele>218.66666666666669</ele><time>2026-03-28T11:05:02Z</time></trkpt><trkpt lat="45.58357845090221" lon="10.771627404520547"><ele>219.33333333333331</ele><time>2026-03-28T11:05:03Z</time></trkpt><trkpt lat="45.58356113681111" lon="10.771868578135985"><ele>220.0</ele><time>2026-03-28T11:05:04Z</time></trkpt><trkpt lat="45.58353311265002" lon="10.77209536261966"><ele>221.0</ele><time>2026-03-28T11:05:05Z</time></trkpt><trkpt lat="45.58349297245303" lon="10.772310765356195"><ele>222.0</ele><time>2026-03-28T11:05:06Z</time></trkpt><trkpt lat="45.58343725840947" lon="10.772514538485506"><ele>223.0</ele><time>2026-03-28T11:05:07Z</time></trkpt><trkpt lat="45.583356495385566" lon="10.7727015616568"><ele>223.66666666666666</ele><time>2026-03-28T11:05:08Z</time></trkpt><trkpt lat="45.583260547914215" lon="10.772890117440639"><ele>224.33333333333331</ele><time>2026-03-28T11:05:09Z</time></trkpt><trkpt lat="45.5831503871776" lon="10.77306382382469"><ele>225.0</ele><time>2026-03-28T11:05:10Z</time></trkpt><trkpt lat="45.58302696979937" lon="10.773229929800264"><ele>225.0</ele><time>2026-03-28T11:05:11Z</time></trkpt><trkpt lat="45.58289925061503" lon="10.773388833760542"><ele>225.0</ele><time>2026-03-28T11:05:12Z</time></trkpt><trkpt lat="45.58277770706636" lon="10.773553992692648"><ele>225.0</ele><time>2026-03-28T11:05:13Z</time></trkpt><trkpt lat="45.58266628105957" lon="10.773729770860692"><ele>225.66666666666669</ele><time>2026-03-28T11:05:14Z</time></trkpt><trkpt lat="45.58258271281052" lon="10.773915591337351"><ele>226.33333333333334</ele><time>2026-03-28T11:05:15Z</time></trkpt><trkpt lat="45.58251700159508" lon="10.774121325156944"><ele>227.0</ele><time>2026-03-28T11:05:16Z</time></trkpt><trkpt lat="45.58247242013794" lon="10.774328225285071"><ele>227.33333333333334</ele><time>2026-03-28T11:05:17Z</time></trkpt><trkpt lat="45.58244700836239" lon="10.77455385839699"><ele>227.66666666666669</ele><time>2026-03-28T11:05:18Z</time></trkpt><trkpt lat="45.58243024733792" lon="10.774774019113739"><ele>228.0</ele><time>2026-03-28T11:05:19Z</time></trkpt><trkpt lat="45.58240725484481" lon="10.774997000302255"><ele>228.5</ele><time>2026-03-28T11:05:20Z</time></trkpt><trkpt lat="45.582385095527485" lon="10.775189230064262"><ele>229.0</ele><time>2026-03-28T11:05:21Z</time></trkpt><trkpt lat="45.58236962948812" lon="10.775354408324693"><ele>229.5</ele><time>2026-03-28T11:05:22.001Z</time></trkpt><trkpt lat="45.58235357420339" lon="10.775504734057417"><ele>230.0</ele><time>2026-03-28T11:05:23.001Z</time></trkpt><trkpt lat="45.582336508011245" lon="10.775631780510373"><ele>230.0</ele><time>2026-03-28T11:05:24.001Z</time></trkpt><trkpt lat="45.582323125023485" lon="10.77572004881889"><ele>230.0</ele><time>2026-03-28T11:05:25.001Z</time></trkpt><trkpt lat="45.582308606567324" lon="10.775831292047483"><ele>230.0</ele><time>2026-03-28T11:05:27.001Z</time></trkpt><trkpt lat="45.582348548859464" lon="10.776005660421703"><ele>230.0</ele><time>2026-03-28T11:05:31.996Z</time></trkpt><trkpt lat="45.582423758642854" lon="10.776070105277805"><ele>230.0</ele><time>2026-03-28T11:05:32.997Z</time></trkpt><trkpt lat="45.5824917059369" lon="10.77618934921264"><ele>230.0</ele><time>2026-03-28T11:05:33.997Z</time></trkpt><trkpt lat="45.58257037272001" lon="10.776328880295017"><ele>230.0</ele><time>2026-03-28T11:05:34.997Z</time></trkpt><trkpt lat="45.58265638272686" lon="10.776489631630039"><ele>230.0</ele><time>2026-03-28T11:05:35.997Z</time></trkpt><trkpt lat="45.582747403251666" lon="10.776673339921793"><ele>230.0</ele><time>2026-03-28T11:05:36.997Z</time></trkpt><trkpt lat="45.582839788444595" lon="10.776868254897181"><ele>231.66666666666669</ele><time>2026-03-28T11:05:37.997Z</time></trkpt><trkpt lat="45.58293604681703" lon="10.777076253112217"><ele>233.33333333333331</ele><time>2026-03-28T11:05:38.997Z</time></trkpt><trkpt lat="45.58303868092741" lon="10.777292426179311"><ele>235.0</ele><time>2026-03-28T11:05:39.997Z</time></trkpt><trkpt lat="45.5831418903094" lon="10.777495011204454"><ele>234.66666666666666</ele><time>2026-03-28T11:05:40.997Z</time></trkpt><trkpt lat="45.5832358075862" lon="10.777693606883389"><ele>234.33333333333331</ele><time>2026-03-28T11:05:41.997Z</time></trkpt><trkpt lat="45.583334788046" lon="10.777895385855157"><ele>234.0</ele><time>2026-03-28T11:05:42.997Z</time></trkpt><trkpt lat="45.583436739939785" lon="10.778086604466868"><ele>234.0</ele><time>2026-03-28T11:05:43.997Z</time></trkpt><trkpt lat="45.58354182170128" lon="10.778256677499176"><ele>234.0</ele><time>2026-03-28T11:05:44.997Z</time></trkpt><trkpt lat="45.5836504388256" lon="10.778421114760336"><ele>234.0</ele><time>2026-03-28T11:05:45.998Z</time></trkpt><trkpt lat="45.583766632653486" lon="10.778564905323043"><ele>237.0</ele><time>2026-03-28T11:05:46.998Z</time></trkpt><trkpt lat="45.583893723292874" lon="10.778699847669516"><ele>240.0</ele><time>2026-03-28T11:05:47.998Z</time></trkpt><trkpt lat="45.584029735402275" lon="10.778825876725405"><ele>243.0</ele><time>2026-03-28T11:05:48.998Z</time></trkpt><trkpt lat="45.58416925082766" lon="10.778945513705937"><ele>243.0</ele><time>2026-03-28T11:05:49.998Z</time></trkpt><trkpt lat="45.584323318224314" lon="10.779068280247737"><ele>243.0</ele><time>2026-03-28T11:05:50.998Z</time></trkpt><trkpt lat="45.584485314838226" lon="10.779181937472256"><ele>243.0</ele><time>2026-03-28T11:05:51.998Z</time></trkpt><trkpt lat="45.584649569205936" lon="10.779291655605828"><ele>244.0</ele><time>2026-03-28T11:05:52.998Z</time></trkpt><trkpt lat="45.58481799092925" lon="10.779400136434278"><ele>245.0</ele><time>2026-03-28T11:05:53.998Z</time></trkpt><trkpt lat="45.58499017440826" lon="10.779514005353182"><ele>246.0</ele><time>2026-03-28T11:05:54.998Z</time></trkpt><trkpt lat="45.585160485004984" lon="10.779637914558526"><ele>246.0</ele><time>2026-03-28T11:05:55.998Z</time></trkpt><trkpt lat="45.58532733020177" lon="10.779755963565993"><ele>246.0</ele><time>2026-03-28T11:05:56.998Z</time></trkpt><trkpt lat="45.585498465468476" lon="10.779864292511151"><ele>246.0</ele><time>2026-03-28T11:05:57.999Z</time></trkpt><trkpt lat="45.58567673869351" lon="10.779979581513656"><ele>245.66666666666669</ele><time>2026-03-28T11:05:58.999Z</time></trkpt><trkpt lat="45.58584662337561" lon="10.7800974139848"><ele>245.33333333333334</ele><time>2026-03-28T11:05:59.999Z</time></trkpt><trkpt lat="45.58602189856457" lon="10.780219020089069"><ele>245.0</ele><time>2026-03-28T11:06:00.999Z</time></trkpt><trkpt lat="45.58619391796956" lon="10.7803432551662"><ele>246.0</ele><time>2026-03-28T11:06:01.999Z</time></trkpt><trkpt lat="45.58636753018325" lon="10.780466639018929"><ele>247.0</ele><time>2026-03-28T11:06:02.999Z</time></trkpt><trkpt lat="45.586542485077025" lon="10.780589259857177"><ele>248.0</ele><time>2026-03-28T11:06:03.999Z</time></trkpt><trkpt lat="45.58670854802321" lon="10.780709118301552"><ele>248.0</ele><time>2026-03-28T11:06:04.999Z</time></trkpt><trkpt lat="45.586878154666046" lon="10.780829156121293"><ele>248.0</ele><time>2026-03-28T11:06:05.999Z</time></trkpt><trkpt lat="45.58703713977529" lon="10.78094485684965"><ele>248.0</ele><time>2026-03-28T11:06:06.999Z</time></trkpt><trkpt lat="45.58719643985558" lon="10.781064068917086"><ele>249.33333333333334</ele><time>2026-03-28T11:06:07.999Z</time></trkpt><trkpt lat="45.587348725888525" lon="10.781179825393696"><ele>250.66666666666669</ele><time>2026-03-28T11:06:08.999Z</time></trkpt><trkpt lat="45.587490904467806" lon="10.781285777790355"><ele>252.0</ele><time>2026-03-28T11:06:09.999Z</time></trkpt><trkpt lat="45.587628848892116" lon="10.781390931924319"><ele>252.0</ele><time>2026-03-28T11:06:10.999Z</time></trkpt><trkpt lat="45.587773696752855" lon="10.781501162562975"><ele>252.0</ele><time>2026-03-28T11:06:11.999Z</time></trkpt><trkpt lat="45.58791447903257" lon="10.781610462542531"><ele>252.0</ele><time>2026-03-28T11:06:12.999Z</time></trkpt><trkpt lat="45.58804517951834" lon="10.781710760017889"><ele>252.8</ele><time>2026-03-28T11:06:13.999Z</time></trkpt><trkpt lat="45.58815712290247" lon="10.781797991028448"><ele>253.6</ele><time>2026-03-28T11:06:14.999Z</time></trkpt><trkpt lat="45.58824645027046" lon="10.781872045934916"><ele>254.40000000000003</ele><time>2026-03-28T11:06:15.999Z</time></trkpt><trkpt lat="45.588305163504124" lon="10.781933811014403"><ele>255.20000000000002</ele><time>2026-03-28T11:06:16.999Z</time></trkpt><trkpt lat="45.5883626640477" lon="10.781981446289649"><ele>256.0</ele><time>2026-03-28T11:06:17.999Z</time></trkpt><trkpt lat="45.588449256995744" lon="10.782037416777255"><ele>256.0</ele><time>2026-03-28T11:06:18.999Z</time></trkpt><trkpt lat="45.58858059215904" lon="10.78212383994094"><ele>256.0</ele><time>2026-03-28T11:06:20Z</time></trkpt><trkpt lat="45.5887060925941" lon="10.782219311379365"><ele>256.0</ele><time>2026-03-28T11:06:21Z</time></trkpt><trkpt lat="45.5888433603618" lon="10.782325785598385"><ele>256.0</ele><time>2026-03-28T11:06:22Z</time></trkpt><trkpt lat="45.5889837381489" lon="10.78243117720379"><ele>256.0</ele><time>2026-03-28T11:06:23Z</time></trkpt><trkpt lat="45.58910465626631" lon="10.782521197737701"><ele>256.0</ele><time>2026-03-28T11:06:24Z</time></trkpt><trkpt lat="45.58920665561644" lon="10.782590978962306"><ele>256.0</ele><time>2026-03-28T11:06:25Z</time></trkpt><trkpt lat="45.58928795267569" lon="10.782664109535096"><ele>256.0</ele><time>2026-03-28T11:06:26Z</time></trkpt><trkpt lat="45.58933759899178" lon="10.782750145846588"><ele>256.0</ele><time>2026-03-28T11:06:27Z</time></trkpt><trkpt lat="45.58924016980189" lon="10.783003648823115"><ele>256.0</ele><time>2026-03-28T11:06:30Z</time></trkpt><trkpt lat="45.58917745067702" lon="10.783112671405691"><ele>256.0</ele><time>2026-03-28T11:06:31Z</time></trkpt><trkpt lat="45.58915243400856" lon="10.783204334779231"><ele>256.0</ele><time>2026-03-28T11:06:32Z</time></trkpt><trkpt lat="45.58908456219972" lon="10.783299945606641"><ele>256.0</ele><time>2026-03-28T11:06:33Z</time></trkpt><trkpt lat="45.589018072051815" lon="10.783454851011891"><ele>256.0</ele><time>2026-03-28T11:06:34Z</time></trkpt><trkpt lat="45.58892868305651" lon="10.783619624148349"><ele>256.5</ele><time>2026-03-28T11:06:35Z</time></trkpt><trkpt lat="45.588833492726685" lon="10.783790474927308"><ele>257.0</ele><time>2026-03-28T11:06:36Z</time></trkpt><trkpt lat="45.58874165864335" lon="10.783953194267141"><ele>257.5</ele><time>2026-03-28T11:06:37Z</time></trkpt><trkpt lat="45.588659616626025" lon="10.78410160997333"><ele>258.0</ele><time>2026-03-28T11:06:38Z</time></trkpt><trkpt lat="45.5885922520765" lon="10.7842180681807"><ele>258.0</ele><time>2026-03-28T11:06:39Z</time></trkpt><trkpt lat="45.58853415049169" lon="10.784307433256949"><ele>258.0</ele><time>2026-03-28T11:06:40Z</time></trkpt><trkpt lat="45.58846470201478" lon="10.784417974825981"><ele>258.0</ele><time>2026-03-28T11:06:42Z</time></trkpt><trkpt lat="45.58858498122764" lon="10.78453694224998"><ele>258.0</ele><time>2026-03-28T11:06:44Z</time></trkpt><trkpt lat="45.58865760704476" lon="10.784618236215513"><ele>258.0</ele><time>2026-03-28T11:06:45Z</time></trkpt><trkpt lat="45.588748834795716" lon="10.784684177027474"><ele>258.5</ele><time>2026-03-28T11:06:46Z</time></trkpt><trkpt lat="45.58883096990775" lon="10.784720817519716"><ele>259.0</ele><time>2026-03-28T11:06:47Z</time></trkpt><trkpt lat="45.58889346927357" lon="10.784756470039271"><ele>259.5</ele><time>2026-03-28T11:06:48Z</time></trkpt><trkpt lat="45.5889734699982" lon="10.784846941142021"><ele>260.0</ele><time>2026-03-28T11:06:50Z</time></trkpt><trkpt lat="45.58904231977342" lon="10.78490972846029"><ele>260.5</ele><time>2026-03-28T11:06:52Z</time></trkpt><trkpt lat="45.58908563092435" lon="10.784981228906362"><ele>261.0</ele><time>2026-03-28T11:06:54.001Z</time></trkpt><trkpt lat="45.589154047654176" lon="10.785054648746383"><ele>261.8</ele><time>2026-03-28T11:07:02.001Z</time></trkpt><trkpt lat="45.58925657828989" lon="10.785187238221614"><ele>262.6</ele><time>2026-03-28T11:07:04.001Z</time></trkpt><trkpt lat="45.589329217159964" lon="10.78527983805415"><ele>263.4</ele><time>2026-03-28T11:07:05.001Z</time></trkpt><trkpt lat="45.58940602473083" lon="10.785370219622791"><ele>264.2</ele><time>2026-03-28T11:07:06.001Z</time></trkpt><trkpt lat="45.58949048648087" lon="10.785471105465863"><ele>265.0</ele><time>2026-03-28T11:07:07.001Z</time></trkpt><trkpt lat="45.589578442227" lon="10.785586188453065"><ele>265.0</ele><time>2026-03-28T11:07:08.001Z</time></trkpt><trkpt lat="45.58967222021578" lon="10.785715003494952"><ele>265.0</ele><time>2026-03-28T11:07:09.001Z</time></trkpt><trkpt lat="45.58977674191836" lon="10.785841499165553"><ele>265.0</ele><time>2026-03-28T11:07:10.001Z</time></trkpt><trkpt lat="45.58990208253545" lon="10.785954518549932"><ele>265.0</ele><time>2026-03-28T11:07:11.001Z</time></trkpt><trkpt lat="45.59003731398337" lon="10.786062504227157"><ele>265.66666666666663</ele><time>2026-03-28T11:07:12.001Z</time></trkpt><trkpt lat="45.590166579376934" lon="10.786188411843838"><ele>266.3333333333333</ele><time>2026-03-28T11:07:13.001Z</time></trkpt><trkpt lat="45.59029276383376" lon="10.786325404225392"><ele>267.0</ele><time>2026-03-28T11:07:14.001Z</time></trkpt><trkpt lat="45.59041012216096" lon="10.78646478140063"><ele>267.0</ele><time>2026-03-28T11:07:15.001Z</time></trkpt><trkpt lat="45.59053589759695" lon="10.786615875260454"><ele>267.0</ele><time>2026-03-28T11:07:16.001Z</time></trkpt><trkpt lat="45.59065526600285" lon="10.786773555956803"><ele>267.0</ele><time>2026-03-28T11:07:17.001Z</time></trkpt><trkpt lat="45.59076897551175" lon="10.786917630846277"><ele>269.0</ele><time>2026-03-28T11:07:18.001Z</time></trkpt><trkpt lat="45.59087907283787" lon="10.78705791318738"><ele>271.0</ele><time>2026-03-28T11:07:19.001Z</time></trkpt><trkpt lat="45.59099358727274" lon="10.787208184573073"><ele>273.0</ele><time>2026-03-28T11:07:20.001Z</time></trkpt><trkpt lat="45.591119221521396" lon="10.787359477755565"><ele>272.6666666666667</ele><time>2026-03-28T11:07:21.001Z</time></trkpt><trkpt lat="45.59124485890488" lon="10.787513764088885"><ele>272.33333333333337</ele><time>2026-03-28T11:07:22.001Z</time></trkpt><trkpt lat="45.59138205128569" lon="10.787679696638433"><ele>272.0</ele><time>2026-03-28T11:07:23.001Z</time></trkpt><trkpt lat="45.59151614427949" lon="10.787841067327491"><ele>272.0</ele><time>2026-03-28T11:07:24.001Z</time></trkpt><trkpt lat="45.59165237621489" lon="10.787997211894467"><ele>272.0</ele><time>2026-03-28T11:07:25.001Z</time></trkpt><trkpt lat="45.591789172162585" lon="10.788143173477527"><ele>272.0</ele><time>2026-03-28T11:07:26.001Z</time></trkpt><trkpt lat="45.59191245071396" lon="10.788299543865316"><ele>272.25</ele><time>2026-03-28T11:07:27.001Z</time></trkpt><trkpt lat="45.59202397949547" lon="10.78841385886332"><ele>272.5</ele><time>2026-03-28T11:07:28.001Z</time></trkpt><trkpt lat="45.59212617506465" lon="10.788493324290776"><ele>272.75</ele><time>2026-03-28T11:07:29.001Z</time></trkpt><trkpt lat="45.59219979007167" lon="10.788618520282752"><ele>273.0</ele><time>2026-03-28T11:07:30.001Z</time></trkpt><trkpt lat="45.59226223610786" lon="10.788737697397139"><ele>273.0</ele><time>2026-03-28T11:07:31.001Z</time></trkpt><trkpt lat="45.592321432770305" lon="10.788819246070254"><ele>273.0</ele><time>2026-03-28T11:07:32.002Z</time></trkpt><trkpt lat="45.59239109501084" lon="10.7888727672262"><ele>273.0</ele><time>2026-03-28T11:07:33.002Z</time></trkpt><trkpt lat="45.59247459974403" lon="10.788903665687979"><ele>273.0</ele><time>2026-03-28T11:07:34.002Z</time></trkpt><trkpt lat="45.59256691083577" lon="10.788993810232766"><ele>273.0</ele><time>2026-03-28T11:07:35.998Z</time></trkpt><trkpt lat="45.59262331452065" lon="10.789071055969426"><ele>273.0</ele><time>2026-03-28T11:07:36.998Z</time></trkpt><trkpt lat="45.59272377113319" lon="10.789171785747884"><ele>273.0</ele><time>2026-03-28T11:07:37.998Z</time></trkpt><trkpt lat="45.592827544567065" lon="10.78930344573532"><ele>273.0</ele><time>2026-03-28T11:07:38.998Z</time></trkpt><trkpt lat="45.59291668631068" lon="10.78944336336251"><ele>273.0</ele><time>2026-03-28T11:07:39.998Z</time></trkpt><trkpt lat="45.59300857848846" lon="10.789530825728539"><ele>273.0</ele><time>2026-03-28T11:07:40.998Z</time></trkpt><trkpt lat="45.593064389604955" lon="10.789614650759011"><ele>273.8</ele><time>2026-03-28T11:07:41.998Z</time></trkpt><trkpt lat="45.593067686301865" lon="10.789754587402985"><ele>274.6</ele><time>2026-03-28T11:07:43.998Z</time></trkpt><trkpt lat="45.59298047105877" lon="10.78980503080038"><ele>275.4</ele><time>2026-03-28T11:07:45.998Z</time></trkpt><trkpt lat="45.59308162627098" lon="10.789944257073445"><ele>276.2</ele><time>2026-03-28T11:07:47.998Z</time></trkpt><trkpt lat="45.59311308302558" lon="10.790065754136926"><ele>277.0</ele><time>2026-03-28T11:07:49.998Z</time></trkpt><trkpt lat="45.5931733141173" lon="10.790145266010837"><ele>277.66666666666663</ele><time>2026-03-28T11:07:50.998Z</time></trkpt><trkpt lat="45.59324723311498" lon="10.790246651922018"><ele>278.3333333333333</ele><time>2026-03-28T11:07:51.998Z</time></trkpt><trkpt lat="45.59317154519905" lon="10.790569446074086"><ele>279.0</ele><time>2026-03-28T11:07:52.999Z</time></trkpt><trkpt lat="45.59335778478031" lon="10.790746678165435"><ele>279.0</ele><time>2026-03-28T11:07:54.999Z</time></trkpt><trkpt lat="45.59350852855664" lon="10.790439442653781"><ele>279.0</ele><time>2026-03-28T11:07:56.999Z</time></trkpt><trkpt lat="45.59344305773527" lon="10.790568773347927"><ele>279.0</ele><time>2026-03-28T11:08:05.999Z</time></trkpt><trkpt lat="45.59338062422094" lon="10.790613990727064"><ele>279.0</ele><time>2026-03-28T11:08:07.999Z</time></trkpt><trkpt lat="45.59333605746925" lon="10.790691618235686"><ele>279.0</ele><time>2026-03-28T11:08:10Z</time></trkpt><trkpt lat="45.59332930240097" lon="10.790799798946447"><ele>279.0</ele><time>2026-03-28T11:08:18Z</time></trkpt><trkpt lat="45.59340410593718" lon="10.79091741819894"><ele>279.0</ele><time>2026-03-28T11:08:20Z</time></trkpt><trkpt lat="45.593447213363426" lon="10.790989916426554"><ele>279.0</ele><time>2026-03-28T11:08:21Z</time></trkpt><trkpt lat="45.5934885956751" lon="10.791079602868816"><ele>279.0</ele><time>2026-03-28T11:08:22Z</time></trkpt><trkpt lat="45.59353748436788" lon="10.7911578360016"><ele>279.0</ele><time>2026-03-28T11:08:23Z</time></trkpt><trkpt lat="45.593598918715614" lon="10.791232547320954"><ele>279.59999999999997</ele><time>2026-03-28T11:08:24Z</time></trkpt><trkpt lat="45.59367244849168" lon="10.791307186336889"><ele>280.2</ele><time>2026-03-28T11:08:25Z</time></trkpt><trkpt lat="45.59373780018341" lon="10.7913934776919"><ele>280.79999999999995</ele><time>2026-03-28T11:08:26Z</time></trkpt><trkpt lat="45.59381486565798" lon="10.791500265806418"><ele>281.4</ele><time>2026-03-28T11:08:27Z</time></trkpt><trkpt lat="45.5938815346472" lon="10.791614550358625"><ele>282.0</ele><time>2026-03-28T11:08:28Z</time></trkpt><trkpt lat="45.593940203942076" lon="10.791733724130788"><ele>283.0</ele><time>2026-03-28T11:08:29Z</time></trkpt><trkpt lat="45.59399149422675" lon="10.791883762989032"><ele>284.0</ele><time>2026-03-28T11:08:30Z</time></trkpt><trkpt lat="45.594032527191494" lon="10.792054809747047"><ele>285.0</ele><time>2026-03-28T11:08:31Z</time></trkpt><trkpt lat="45.5940856327952" lon="10.792184223839229"><ele>286.0</ele><time>2026-03-28T11:08:32Z</time></trkpt><trkpt lat="45.59416526963796" lon="10.792287970270698"><ele>286.0</ele><time>2026-03-28T11:08:33Z</time></trkpt><trkpt lat="45.59426181797388" lon="10.792344763782772"><ele>286.0</ele><time>2026-03-28T11:08:34Z</time></trkpt><trkpt lat="45.59433940291533" lon="10.792423861211246"><ele>286.0</ele><time>2026-03-28T11:08:35Z</time></trkpt><trkpt lat="45.594413997734584" lon="10.792547869257"><ele>286.0</ele><time>2026-03-28T11:08:36Z</time></trkpt><trkpt lat="45.594520080418185" lon="10.792677936668424"><ele>285.75</ele><time>2026-03-28T11:08:37.001Z</time></trkpt><trkpt lat="45.59461609948184" lon="10.792843831691558"><ele>285.5</ele><time>2026-03-28T11:08:38.001Z</time></trkpt><trkpt lat="45.594683978311785" lon="10.792994238243176"><ele>285.25</ele><time>2026-03-28T11:08:39.001Z</time></trkpt><trkpt lat="45.59476769490907" lon="10.793158295166737"><ele>285.0</ele><time>2026-03-28T11:08:40.001Z</time></trkpt><trkpt lat="45.59483789052211" lon="10.793303557039257"><ele>285.0</ele><time>2026-03-28T11:08:41.001Z</time></trkpt><trkpt lat="45.59490458987196" lon="10.793437163908099"><ele>285.0</ele><time>2026-03-28T11:08:42.001Z</time></trkpt><trkpt lat="45.594989249496436" lon="10.793560401573155"><ele>285.0</ele><time>2026-03-28T11:08:43.001Z</time></trkpt><trkpt lat="45.59508044469291" lon="10.793668128646916"><ele>285.0</ele><time>2026-03-28T11:08:44.001Z</time></trkpt><trkpt lat="45.59517287915292" lon="10.793779481579753"><ele>284.25</ele><time>2026-03-28T11:08:45.001Z</time></trkpt><trkpt lat="45.595253005780684" lon="10.793897344909052"><ele>283.5</ele><time>2026-03-28T11:08:46.001Z</time></trkpt><trkpt lat="45.595336786918324" lon="10.79400769715614"><ele>282.75</ele><time>2026-03-28T11:08:47.001Z</time></trkpt><trkpt lat="45.59543024174224" lon="10.794142974265887"><ele>282.0</ele><time>2026-03-28T11:08:48.001Z</time></trkpt><trkpt lat="45.59550389263152" lon="10.794251504361643"><ele>282.4</ele><time>2026-03-28T11:08:49.001Z</time></trkpt><trkpt lat="45.595554103471336" lon="10.794363428310136"><ele>282.79999999999995</ele><time>2026-03-28T11:08:50.001Z</time></trkpt><trkpt lat="45.595596331577084" lon="10.794436928203508"><ele>283.2</ele><time>2026-03-28T11:08:51.001Z</time></trkpt><trkpt lat="45.5956622186068" lon="10.7945208264872"><ele>283.59999999999997</ele><time>2026-03-28T11:08:54.001Z</time></trkpt><trkpt lat="45.59579997579087" lon="10.794511013519566"><ele>284.0</ele><time>2026-03-28T11:08:56.001Z</time></trkpt><trkpt lat="45.595912410768996" lon="10.794482938769221"><ele>284.0</ele><time>2026-03-28T11:08:57.001Z</time></trkpt><trkpt lat="45.596025537999964" lon="10.79445369637049"><ele>284.0</ele><time>2026-03-28T11:08:58.001Z</time></trkpt><trkpt lat="45.59614772758236" lon="10.794441225692367"><ele>284.0</ele><time>2026-03-28T11:08:59.001Z</time></trkpt><trkpt lat="45.59626912582365" lon="10.794414818855053"><ele>284.0</ele><time>2026-03-28T11:09:00.001Z</time></trkpt><trkpt lat="45.59636586714362" lon="10.794373527929555"><ele>282.25</ele><time>2026-03-28T11:09:01.001Z</time></trkpt><trkpt lat="45.59648079247227" lon="10.794343962092325"><ele>280.5</ele><time>2026-03-28T11:09:02.001Z</time></trkpt><trkpt lat="45.596590279035695" lon="10.79431389933041"><ele>278.75</ele><time>2026-03-28T11:09:03.001Z</time></trkpt><trkpt lat="45.596702753594656" lon="10.794291159401013"><ele>277.0</ele><time>2026-03-28T11:09:04.001Z</time></trkpt><trkpt lat="45.59682791265129" lon="10.794278872108107"><ele>276.4</ele><time>2026-03-28T11:09:05.001Z</time></trkpt><trkpt lat="45.596950055777725" lon="10.794280242018377"><ele>275.79999999999995</ele><time>2026-03-28T11:09:06.001Z</time></trkpt><trkpt lat="45.59705611735884" lon="10.794279342849961"><ele>275.2</ele><time>2026-03-28T11:09:07.001Z</time></trkpt><trkpt lat="45.5971560319366" lon="10.794286022662517"><ele>274.59999999999997</ele><time>2026-03-28T11:09:08.001Z</time></trkpt><trkpt lat="45.597242492338246" lon="10.794316982150754"><ele>274.0</ele><time>2026-03-28T11:09:09.002Z</time></trkpt><trkpt lat="45.59732177075023" lon="10.794393202071298"><ele>272.0</ele><time>2026-03-28T11:09:10.002Z</time></trkpt><trkpt lat="45.59742576864861" lon="10.794472637831133"><ele>270.0</ele><time>2026-03-28T11:09:11.002Z</time></trkpt><trkpt lat="45.59754020125116" lon="10.794551547142524"><ele>268.0</ele><time>2026-03-28T11:09:12.002Z</time></trkpt><trkpt lat="45.59765326064926" lon="10.794641643436023"><ele>266.0</ele><time>2026-03-28T11:09:13.002Z</time></trkpt><trkpt lat="45.597779367687494" lon="10.794715006854178"><ele>263.8</ele><time>2026-03-28T11:09:14.002Z</time></trkpt><trkpt lat="45.59788939020162" lon="10.794779011239356"><ele>261.6</ele><time>2026-03-28T11:09:15.002Z</time></trkpt><trkpt lat="45.59798786785312" lon="10.794832477588107"><ele>259.4</ele><time>2026-03-28T11:09:16.002Z</time></trkpt><trkpt lat="45.59806785559644" lon="10.794889315183363"><ele>257.2</ele><time>2026-03-28T11:09:17.002Z</time></trkpt><trkpt lat="45.59813166140385" lon="10.794951676693007"><ele>255.0</ele><time>2026-03-28T11:09:18.002Z</time></trkpt><trkpt lat="45.598170547362066" lon="10.795030163347553"><ele>255.0</ele><time>2026-03-28T11:09:19.002Z</time></trkpt><trkpt lat="45.59820614368413" lon="10.795106550975913"><ele>255.0</ele><time>2026-03-28T11:09:20.002Z</time></trkpt><trkpt lat="45.59819247680684" lon="10.79520708101156"><ele>255.0</ele><time>2026-03-28T11:09:23.002Z</time></trkpt><trkpt lat="45.59807335386478" lon="10.795351194354962"><ele>255.0</ele><time>2026-03-28T11:09:25.002Z</time></trkpt><trkpt lat="45.5979704556299" lon="10.795350496798338"><ele>255.0</ele><time>2026-03-28T11:09:26.002Z</time></trkpt><trkpt lat="45.59786956772141" lon="10.79533893270052"><ele>259.75</ele><time>2026-03-28T11:09:27.002Z</time></trkpt><trkpt lat="45.59777038446288" lon="10.795345888391521"><ele>264.5</ele><time>2026-03-28T11:09:28.002Z</time></trkpt><trkpt lat="45.597655165402806" lon="10.795378955835139"><ele>269.25</ele><time>2026-03-28T11:09:29.002Z</time></trkpt><trkpt lat="45.597537703443095" lon="10.795418483855482"><ele>274.0</ele><time>2026-03-28T11:09:30.002Z</time></trkpt><trkpt lat="45.59743137565152" lon="10.795483600124191"><ele>274.0</ele><time>2026-03-28T11:09:31.002Z</time></trkpt><trkpt lat="45.59734819813796" lon="10.795585668275368"><ele>274.0</ele><time>2026-03-28T11:09:32.002Z</time></trkpt><trkpt lat="45.59729471665378" lon="10.795658947572129"><ele>274.0</ele><time>2026-03-28T11:09:33.002Z</time></trkpt><trkpt lat="45.5972219397679" lon="10.795733445561847"><ele>274.0</ele><time>2026-03-28T11:09:34.002Z</time></trkpt><trkpt lat="45.59716702961365" lon="10.795863507293829"><ele>274.0</ele><time>2026-03-28T11:09:35.002Z</time></trkpt><trkpt lat="45.597117742315206" lon="10.796004885558334"><ele>275.0</ele><time>2026-03-28T11:09:36.002Z</time></trkpt><trkpt lat="45.597055630588876" lon="10.796125858484478"><ele>276.0</ele><time>2026-03-28T11:09:37.002Z</time></trkpt><trkpt lat="45.597006568526496" lon="10.7962441240974"><ele>277.0</ele><time>2026-03-28T11:09:38.002Z</time></trkpt><trkpt lat="45.59696086053805" lon="10.796349683262921"><ele>278.0</ele><time>2026-03-28T11:09:39.002Z</time></trkpt><trkpt lat="45.59690594346787" lon="10.796476787014802"><ele>279.0</ele><time>2026-03-28T11:09:40.002Z</time></trkpt><trkpt lat="45.59685552197046" lon="10.796613723845784"><ele>279.0</ele><time>2026-03-28T11:09:41.002Z</time></trkpt><trkpt lat="45.59680052902883" lon="10.796722344971851"><ele>279.0</ele><time>2026-03-28T11:09:41.998Z</time></trkpt><trkpt lat="45.596762830109306" lon="10.796819232717851"><ele>279.0</ele><time>2026-03-28T11:09:42.998Z</time></trkpt><trkpt lat="45.596728185119915" lon="10.796908271735932"><ele>279.0</ele><time>2026-03-28T11:09:43.998Z</time></trkpt><trkpt lat="45.59678172751988" lon="10.797128496061518"><ele>279.0</ele><time>2026-03-28T11:09:45.999Z</time></trkpt><trkpt lat="45.596795408086756" lon="10.797218567024798"><ele>280.59999999999997</ele><time>2026-03-28T11:09:46.999Z</time></trkpt><trkpt lat="45.59680828541698" lon="10.797323257520295"><ele>282.2</ele><time>2026-03-28T11:09:47.999Z</time></trkpt><trkpt lat="45.596829754951074" lon="10.79746410156608"><ele>283.79999999999995</ele><time>2026-03-28T11:09:48.999Z</time></trkpt><trkpt lat="45.59685785868061" lon="10.797604299896369"><ele>285.4</ele><time>2026-03-28T11:09:49.999Z</time></trkpt><trkpt lat="45.59687030970264" lon="10.797722408213735"><ele>287.0</ele><time>2026-03-28T11:09:50.999Z</time></trkpt><trkpt lat="45.59686209570006" lon="10.797859065210012"><ele>287.4</ele><time>2026-03-28T11:09:51.999Z</time></trkpt><trkpt lat="45.596847842109945" lon="10.798018605389727"><ele>287.79999999999995</ele><time>2026-03-28T11:09:52.999Z</time></trkpt><trkpt lat="45.596825439652186" lon="10.798167549379027"><ele>288.2</ele><time>2026-03-28T11:09:53.999Z</time></trkpt><trkpt lat="45.59678342480792" lon="10.798311854636129"><ele>288.59999999999997</ele><time>2026-03-28T11:09:54.999Z</time></trkpt><trkpt lat="45.596725413130976" lon="10.79845208512171"><ele>289.0</ele><time>2026-03-28T11:09:55.999Z</time></trkpt><trkpt lat="45.5966658836137" lon="10.798622379246224"><ele>289.59999999999997</ele><time>2026-03-28T11:09:56.999Z</time></trkpt><trkpt lat="45.5966243642481" lon="10.798787548101137"><ele>290.2</ele><time>2026-03-28T11:09:57.999Z</time></trkpt><trkpt lat="45.5965852427013" lon="10.79893116961935"><ele>290.79999999999995</ele><time>2026-03-28T11:09:59Z</time></trkpt><trkpt lat="45.596547315703745" lon="10.799024294774904"><ele>291.4</ele><time>2026-03-28T11:10:00Z</time></trkpt><trkpt lat="45.59653226350614" lon="10.799112761392239"><ele>292.0</ele><time>2026-03-28T11:10:01Z</time></trkpt><trkpt lat="45.59646975186264" lon="10.7992380027891"><ele>292.0</ele><time>2026-03-28T11:10:03Z</time></trkpt><trkpt lat="45.5964102485643" lon="10.799292412268255"><ele>292.0</ele><time>2026-03-28T11:10:04Z</time></trkpt><trkpt lat="45.59635049864489" lon="10.799377254295088"><ele>292.0</ele><time>2026-03-28T11:10:05Z</time></trkpt><trkpt lat="45.59629749437486" lon="10.799484609824647"><ele>292.0</ele><time>2026-03-28T11:10:06Z</time></trkpt><trkpt lat="45.59624780949954" lon="10.799597778175354"><ele>292.0</ele><time>2026-03-28T11:10:07Z</time></trkpt><trkpt lat="45.5961978917353" lon="10.799692337949624"><ele>292.0</ele><time>2026-03-28T11:10:08Z</time></trkpt><trkpt lat="45.59614229621603" lon="10.799776256324568"><ele>294.8</ele><time>2026-03-28T11:10:09Z</time></trkpt><trkpt lat="45.59606420430647" lon="10.799827398337802"><ele>297.6</ele><time>2026-03-28T11:10:10Z</time></trkpt><trkpt lat="45.59598184012237" lon="10.799886697352427"><ele>300.40000000000003</ele><time>2026-03-28T11:10:11Z</time></trkpt><trkpt lat="45.59588380594319" lon="10.799951701371281"><ele>303.2</ele><time>2026-03-28T11:10:12Z</time></trkpt><trkpt lat="45.59578584015892" lon="10.800027077621042"><ele>306.0</ele><time>2026-03-28T11:10:13Z</time></trkpt><trkpt lat="45.595688488598554" lon="10.800088685013208"><ele>306.0</ele><time>2026-03-28T11:10:14Z</time></trkpt><trkpt lat="45.59558633833695" lon="10.8001510341306"><ele>306.0</ele><time>2026-03-28T11:10:15Z</time></trkpt><trkpt lat="45.595496681804214" lon="10.800205931382328"><ele>306.0</ele><time>2026-03-28T11:10:16Z</time></trkpt><trkpt lat="45.59543042831487" lon="10.800250966870234"><ele>306.0</ele><time>2026-03-28T11:10:17Z</time></trkpt><trkpt lat="45.59536584598176" lon="10.800270864695273"><ele>306.0</ele><time>2026-03-28T11:10:18.001Z</time></trkpt><trkpt lat="45.59529644622422" lon="10.800298602714378"><ele>306.0</ele><time>2026-03-28T11:10:19.001Z</time></trkpt><trkpt lat="45.59526133617096" lon="10.800462895687753"><ele>304.0</ele><time>2026-03-28T11:10:20.001Z</time></trkpt><trkpt lat="45.595231465864885" lon="10.800564398549689"><ele>302.0</ele><time>2026-03-28T11:10:21.001Z</time></trkpt><trkpt lat="45.59521934734258" lon="10.800674999890846"><ele>300.0</ele><time>2026-03-28T11:10:22.001Z</time></trkpt><trkpt lat="45.59521672945553" lon="10.80079865664094"><ele>298.0</ele><time>2026-03-28T11:10:23.001Z</time></trkpt><trkpt lat="45.59523143556105" lon="10.8009299608429"><ele>296.0</ele><time>2026-03-28T11:10:24.001Z</time></trkpt><trkpt lat="45.595270392891855" lon="10.801075311074918"><ele>294.0</ele><time>2026-03-28T11:10:25.001Z</time></trkpt><trkpt lat="45.595310921440706" lon="10.801240307232446"><ele>293.6666666666667</ele><time>2026-03-28T11:10:26.001Z</time></trkpt><trkpt lat="45.59533975037471" lon="10.801387088271223"><ele>293.3333333333333</ele><time>2026-03-28T11:10:27.001Z</time></trkpt><trkpt lat="45.59534697218449" lon="10.801490199433145"><ele>293.0</ele><time>2026-03-28T11:10:28.001Z</time></trkpt><trkpt lat="45.595340191355675" lon="10.801600866122065"><ele>292.66666666666663</ele><time>2026-03-28T11:10:29.001Z</time></trkpt><trkpt lat="45.59528141731289" lon="10.801720789014595"><ele>292.3333333333333</ele><time>2026-03-28T11:10:30.001Z</time></trkpt><trkpt lat="45.59525811812449" lon="10.801841176137293"><ele>292.0</ele><time>2026-03-28T11:10:31.001Z</time></trkpt><trkpt lat="45.59525644886154" lon="10.801972807513144"><ele>291.2</ele><time>2026-03-28T11:10:32.001Z</time></trkpt><trkpt lat="45.5952836843946" lon="10.802127964662677"><ele>290.4</ele><time>2026-03-28T11:10:34.001Z</time></trkpt><trkpt lat="45.59534070657294" lon="10.802194286547717"><ele>289.6</ele><time>2026-03-28T11:10:35.001Z</time></trkpt><trkpt lat="45.595434918176586" lon="10.802237249537388"><ele>288.8</ele><time>2026-03-28T11:10:37.001Z</time></trkpt><trkpt lat="45.59553529224871" lon="10.802166256880453"><ele>288.0</ele><time>2026-03-28T11:10:38.001Z</time></trkpt><trkpt lat="45.595644034559676" lon="10.802102190008862"><ele>291.1666666666667</ele><time>2026-03-28T11:10:39.001Z</time></trkpt><trkpt lat="45.59575468285179" lon="10.802087386698947"><ele>294.3333333333333</ele><time>2026-03-28T11:10:40.001Z</time></trkpt><trkpt lat="45.59584878998722" lon="10.802080421374324"><ele>297.5</ele><time>2026-03-28T11:10:41.001Z</time></trkpt><trkpt lat="45.59592629661096" lon="10.802112176479984"><ele>300.66666666666663</ele><time>2026-03-28T11:10:42.001Z</time></trkpt><trkpt lat="45.59599676208856" lon="10.802127257701752"><ele>303.8333333333333</ele><time>2026-03-28T11:10:43.001Z</time></trkpt><trkpt lat="45.59606734231018" lon="10.802211477466503"><ele>307.0</ele><time>2026-03-28T11:10:44.001Z</time></trkpt><trkpt lat="45.59611637453113" lon="10.80230074494572"><ele>306.25</ele><time>2026-03-28T11:10:45.001Z</time></trkpt><trkpt lat="45.59619096901815" lon="10.802463520154642"><ele>305.5</ele><time>2026-03-28T11:10:46.002Z</time></trkpt><trkpt lat="45.5962544447627" lon="10.802609439478218"><ele>304.75</ele><time>2026-03-28T11:10:47.002Z</time></trkpt><trkpt lat="45.596299779543905" lon="10.80278231007258"><ele>304.0</ele><time>2026-03-28T11:10:48.002Z</time></trkpt><trkpt lat="45.59635029368457" lon="10.802983696032424"><ele>303.5</ele><time>2026-03-28T11:10:49.002Z</time></trkpt><trkpt lat="45.59639861721816" lon="10.803214705885125"><ele>303.0</ele><time>2026-03-28T11:10:50.002Z</time></trkpt><trkpt lat="45.59643452909936" lon="10.803398515766201"><ele>302.5</ele><time>2026-03-28T11:10:51.002Z</time></trkpt><trkpt lat="45.59646616893017" lon="10.803565422731834"><ele>302.0</ele><time>2026-03-28T11:10:52.002Z</time></trkpt><trkpt lat="45.59649789102949" lon="10.803734953617838"><ele>301.75</ele><time>2026-03-28T11:10:53.002Z</time></trkpt><trkpt lat="45.59654352064829" lon="10.80389439333969"><ele>301.5</ele><time>2026-03-28T11:10:54.002Z</time></trkpt><trkpt lat="45.59657102105621" lon="10.804090607292101"><ele>301.25</ele><time>2026-03-28T11:10:55.002Z</time></trkpt><trkpt lat="45.59659138857889" lon="10.8042661322123"><ele>301.0</ele><time>2026-03-28T11:10:56.002Z</time></trkpt><trkpt lat="45.596615706739165" lon="10.804427095296429"><ele>300.0</ele><time>2026-03-28T11:10:57.002Z</time></trkpt><trkpt lat="45.59663538125265" lon="10.804558668626312"><ele>299.0</ele><time>2026-03-28T11:10:58.002Z</time></trkpt><trkpt lat="45.596670777561386" lon="10.804687666993024"><ele>298.0</ele><time>2026-03-28T11:10:59.002Z</time></trkpt><trkpt lat="45.59668030106957" lon="10.804806300520442"><ele>297.0</ele><time>2026-03-28T11:11:00.002Z</time></trkpt><trkpt lat="45.59670472994665" lon="10.804909490468372"><ele>296.0</ele><time>2026-03-28T11:11:01.002Z</time></trkpt><trkpt lat="45.59672345071251" lon="10.80500194415734"><ele>295.0</ele><time>2026-03-28T11:11:03.002Z</time></trkpt><trkpt lat="45.59683682705692" lon="10.804932469521466"><ele>295.0</ele><time>2026-03-28T11:11:04.002Z</time></trkpt><trkpt lat="45.59691834394277" lon="10.804907262855716"><ele>295.0</ele><time>2026-03-28T11:11:05.002Z</time></trkpt><trkpt lat="45.597002892060544" lon="10.80488024299592"><ele>295.0</ele><time>2026-03-28T11:11:06.002Z</time></trkpt><trkpt lat="45.59708407882972" lon="10.804844711125902"><ele>295.0</ele><time>2026-03-28T11:11:07.002Z</time></trkpt><trkpt lat="45.5971661802399" lon="10.8047831986805"><ele>295.0</ele><time>2026-03-28T11:11:08.002Z</time></trkpt><trkpt lat="45.59723737643046" lon="10.804698989439501"><ele>295.0</ele><time>2026-03-28T11:11:09.002Z</time></trkpt><trkpt lat="45.59729995014532" lon="10.804585807352291"><ele>293.4</ele><time>2026-03-28T11:11:10.002Z</time></trkpt><trkpt lat="45.59734411945976" lon="10.804460953045165"><ele>291.8</ele><time>2026-03-28T11:11:11.002Z</time></trkpt><trkpt lat="45.59740388978168" lon="10.804331817269915"><ele>290.2</ele><time>2026-03-28T11:11:12.002Z</time></trkpt><trkpt lat="45.59745819512574" lon="10.804189968785792"><ele>288.6</ele><time>2026-03-28T11:11:13.002Z</time></trkpt><trkpt lat="45.597523581394874" lon="10.804032140298558"><ele>287.0</ele><time>2026-03-28T11:11:14.002Z</time></trkpt><trkpt lat="45.59759857368393" lon="10.80388483054907"><ele>287.0</ele><time>2026-03-28T11:11:15.002Z</time></trkpt><trkpt lat="45.59765404042627" lon="10.803751298431841"><ele>287.0</ele><time>2026-03-28T11:11:16.002Z</time></trkpt><trkpt lat="45.59773211824316" lon="10.80364432704516"><ele>287.0</ele><time>2026-03-28T11:11:17.002Z</time></trkpt><trkpt lat="45.597806066058425" lon="10.80355987964874"><ele>287.0</ele><time>2026-03-28T11:11:18.003Z</time></trkpt><trkpt lat="45.597903060148155" lon="10.803524943659173"><ele>287.0</ele><time>2026-03-28T11:11:19.003Z</time></trkpt><trkpt lat="45.59799928887326" lon="10.803481692768875"><ele>285.25</ele><time>2026-03-28T11:11:20.003Z</time></trkpt><trkpt lat="45.59812552196117" lon="10.803492261133234"><ele>283.5</ele><time>2026-03-28T11:11:21.003Z</time></trkpt><trkpt lat="45.598246731211525" lon="10.80350412391508"><ele>281.75</ele><time>2026-03-28T11:11:22.003Z</time></trkpt><trkpt lat="45.59835660832188" lon="10.803509130957293"><ele>280.0</ele><time>2026-03-28T11:11:23.003Z</time></trkpt><trkpt lat="45.59845588743197" lon="10.803560222724286"><ele>280.0</ele><time>2026-03-28T11:11:24.003Z</time></trkpt><trkpt lat="45.59856333411497" lon="10.803553612136353"><ele>280.0</ele><time>2026-03-28T11:11:25.003Z</time></trkpt><trkpt lat="45.598690724480306" lon="10.803567914372861"><ele>280.0</ele><time>2026-03-28T11:11:26.003Z</time></trkpt><trkpt lat="45.59882142875987" lon="10.803540266478205"><ele>280.0</ele><time>2026-03-28T11:11:27.003Z</time></trkpt><trkpt lat="45.598940136541536" lon="10.80352682746382"><ele>278.66666666666663</ele><time>2026-03-28T11:11:28.003Z</time></trkpt><trkpt lat="45.59903964025625" lon="10.803525288597404"><ele>277.3333333333333</ele><time>2026-03-28T11:11:29.003Z</time></trkpt><trkpt lat="45.59911505517054" lon="10.80350813809458"><ele>276.0</ele><time>2026-03-28T11:11:30.003Z</time></trkpt><trkpt lat="45.59917200650573" lon="10.803453583569944"><ele>274.6666666666667</ele><time>2026-03-28T11:11:31.003Z</time></trkpt><trkpt lat="45.599216011799726" lon="10.803345162184446"><ele>273.33333333333337</ele><time>2026-03-28T11:11:32.003Z</time></trkpt><trkpt lat="45.59929352695833" lon="10.80325186762152"><ele>272.0</ele><time>2026-03-28T11:11:33.003Z</time></trkpt><trkpt lat="45.599378607751234" lon="10.803216150915617"><ele>271.5</ele><time>2026-03-28T11:11:34.003Z</time></trkpt><trkpt lat="45.59947630284415" lon="10.803176465317252"><ele>271.0</ele><time>2026-03-28T11:11:35.003Z</time></trkpt><trkpt lat="45.59956362458327" lon="10.803149112619685"><ele>270.5</ele><time>2026-03-28T11:11:36.003Z</time></trkpt><trkpt lat="45.599633750621614" lon="10.803118800639552"><ele>270.0</ele><time>2026-03-28T11:11:37.003Z</time></trkpt><trkpt lat="45.59970424215754" lon="10.8030944313834"><ele>269.5</ele><time>2026-03-28T11:11:38.003Z</time></trkpt><trkpt lat="45.59978795119933" lon="10.803078342038118"><ele>269.0</ele><time>2026-03-28T11:11:39.003Z</time></trkpt><trkpt lat="45.599877779885425" lon="10.80304346092451"><ele>268.0</ele><time>2026-03-28T11:11:40.003Z</time></trkpt><trkpt lat="45.59997832930423" lon="10.803032449715934"><ele>267.0</ele><time>2026-03-28T11:11:42.003Z</time></trkpt><trkpt lat="45.60009735777028" lon="10.803069166375444"><ele>266.0</ele><time>2026-03-28T11:11:44.003Z</time></trkpt><trkpt lat="45.6001969048114" lon="10.803120785400607"><ele>265.0</ele><time>2026-03-28T11:11:45.003Z</time></trkpt><trkpt lat="45.600303134328605" lon="10.803156047800528"><ele>264.0</ele><time>2026-03-28T11:11:46.003Z</time></trkpt><trkpt lat="45.60039321399007" lon="10.803168512333622"><ele>263.0</ele><time>2026-03-28T11:11:47.003Z</time></trkpt><trkpt lat="45.60047459219256" lon="10.803172626279848"><ele>262.0</ele><time>2026-03-28T11:11:48Z</time></trkpt><trkpt lat="45.60057687623695" lon="10.803171558524836"><ele>261.0</ele><time>2026-03-28T11:11:49Z</time></trkpt><trkpt lat="45.60067303566049" lon="10.803169075958062"><ele>260.0</ele><time>2026-03-28T11:11:50Z</time></trkpt><trkpt lat="45.600743438478375" lon="10.803165972932675"><ele>259.0</ele><time>2026-03-28T11:11:51Z</time></trkpt><trkpt lat="45.600807788219065" lon="10.803176513936538"><ele>258.0</ele><time>2026-03-28T11:11:53Z</time></trkpt><trkpt lat="45.60082308335413" lon="10.802982247820664"><ele>258.0</ele><time>2026-03-28T11:11:54Z</time></trkpt><trkpt lat="45.600785142171766" lon="10.802843294021294"><ele>258.0</ele><time>2026-03-28T11:11:55Z</time></trkpt><trkpt lat="45.60074940877454" lon="10.802669785817276"><ele>258.0</ele><time>2026-03-28T11:11:56Z</time></trkpt><trkpt lat="45.60070131442681" lon="10.802474340735074"><ele>258.0</ele><time>2026-03-28T11:11:57Z</time></trkpt><trkpt lat="45.6006473078735" lon="10.802260031642287"><ele>257.0</ele><time>2026-03-28T11:11:58Z</time></trkpt><trkpt lat="45.60058765148475" lon="10.802027423483864"><ele>256.0</ele><time>2026-03-28T11:11:59Z</time></trkpt><trkpt lat="45.600524379585586" lon="10.801781958850283"><ele>255.0</ele><time>2026-03-28T11:12:00Z</time></trkpt><trkpt lat="45.60046018329447" lon="10.801534924367662"><ele>254.66666666666669</ele><time>2026-03-28T11:12:01Z</time></trkpt><trkpt lat="45.60039975713862" lon="10.801295038593555"><ele>254.33333333333334</ele><time>2026-03-28T11:12:02Z</time></trkpt><trkpt lat="45.600338980485596" lon="10.801045859784717"><ele>254.0</ele><time>2026-03-28T11:12:03Z</time></trkpt><trkpt lat="45.600276740212365" lon="10.800796718512956"><ele>255.33333333333334</ele><time>2026-03-28T11:12:04Z</time></trkpt><trkpt lat="45.60021401138346" lon="10.800554392008753"><ele>256.6666666666667</ele><time>2026-03-28T11:12:05Z</time></trkpt><trkpt lat="45.60015184736462" lon="10.80030076914798"><ele>258.0</ele><time>2026-03-28T11:12:06Z</time></trkpt><trkpt lat="45.60009600885129" lon="10.800061346438003"><ele>258.0</ele><time>2026-03-28T11:12:07Z</time></trkpt><trkpt lat="45.600060791520725" lon="10.799817892632808"><ele>258.0</ele><time>2026-03-28T11:12:08Z</time></trkpt><trkpt lat="45.60002131339498" lon="10.799574269083873"><ele>258.0</ele><time>2026-03-28T11:12:09Z</time></trkpt><trkpt lat="45.599984644388364" lon="10.799322383388153"><ele>257.0</ele><time>2026-03-28T11:12:10Z</time></trkpt><trkpt lat="45.5999493996747" lon="10.799070882241894"><ele>256.0</ele><time>2026-03-28T11:12:11Z</time></trkpt><trkpt lat="45.599915889826576" lon="10.798819558315678"><ele>255.0</ele><time>2026-03-28T11:12:12Z</time></trkpt><trkpt lat="45.599884704901946" lon="10.79856733225929"><ele>254.0</ele><time>2026-03-28T11:12:13Z</time></trkpt><trkpt lat="45.59985922126255" lon="10.798318186616143"><ele>253.0</ele><time>2026-03-28T11:12:14Z</time></trkpt><trkpt lat="45.59983159739712" lon="10.798066076792537"><ele>252.0</ele><time>2026-03-28T11:12:15Z</time></trkpt><trkpt lat="45.59980422890491" lon="10.797820472600865"><ele>252.0</ele><time>2026-03-28T11:12:16Z</time></trkpt><trkpt lat="45.59976357911474" lon="10.79760135455005"><ele>252.0</ele><time>2026-03-28T11:12:17Z</time></trkpt><trkpt lat="45.59976028678162" lon="10.797397002854899"><ele>252.0</ele><time>2026-03-28T11:12:18Z</time></trkpt><trkpt lat="45.59975172056837" lon="10.79718407643519"><ele>252.0</ele><time>2026-03-28T11:12:19Z</time></trkpt><trkpt lat="45.59975781110489" lon="10.796961002492129"><ele>252.0</ele><time>2026-03-28T11:12:20.001Z</time></trkpt><trkpt lat="45.59975003558191" lon="10.796748508469419"><ele>252.0</ele><time>2026-03-28T11:12:21.001Z</time></trkpt><trkpt lat="45.59976190374691" lon="10.796561740477461"><ele>252.0</ele><time>2026-03-28T11:12:22.001Z</time></trkpt><trkpt lat="45.599772199135806" lon="10.796377390190795"><ele>251.66666666666669</ele><time>2026-03-28T11:12:23.001Z</time></trkpt><trkpt lat="45.59978040482513" lon="10.796170833261593"><ele>251.33333333333334</ele><time>2026-03-28T11:12:24.001Z</time></trkpt><trkpt lat="45.5997892179383" lon="10.795952079603376"><ele>251.0</ele><time>2026-03-28T11:12:25.001Z</time></trkpt><trkpt lat="45.5997988459384" lon="10.795727929993893"><ele>250.75</ele><time>2026-03-28T11:12:26.001Z</time></trkpt><trkpt lat="45.59980839824106" lon="10.795519548482906"><ele>250.5</ele><time>2026-03-28T11:12:27.001Z</time></trkpt><trkpt lat="45.599815733123236" lon="10.79532954358767"><ele>250.25</ele><time>2026-03-28T11:12:28.001Z</time></trkpt><trkpt lat="45.599821628324236" lon="10.795156056558762"><ele>250.0</ele><time>2026-03-28T11:12:29.001Z</time></trkpt><trkpt lat="45.59983150883719" lon="10.795002490716437"><ele>249.8</ele><time>2026-03-28T11:12:30.001Z</time></trkpt><trkpt lat="45.599834608607786" lon="10.794867098621287"><ele>249.6</ele><time>2026-03-28T11:12:31.001Z</time></trkpt><trkpt lat="45.59984874204853" lon="10.794752279186135"><ele>249.39999999999998</ele><time>2026-03-28T11:12:32.001Z</time></trkpt><trkpt lat="45.59988668445929" lon="10.794652236246888"><ele>249.2</ele><time>2026-03-28T11:12:34.001Z</time></trkpt><trkpt lat="45.60001815203855" lon="10.794647481668378"><ele>249.0</ele><time>2026-03-28T11:12:35.001Z</time></trkpt><trkpt lat="45.600107278440035" lon="10.794628165013723"><ele>249.0</ele><time>2026-03-28T11:12:36.001Z</time></trkpt><trkpt lat="45.600211550531995" lon="10.794607166867104"><ele>248.99999999999997</ele><time>2026-03-28T11:12:37.001Z</time></trkpt><trkpt lat="45.600332599004474" lon="10.794588388012167"><ele>248.99999999999997</ele><time>2026-03-28T11:12:38.001Z</time></trkpt><trkpt lat="45.60044631105263" lon="10.79457013984335"><ele>249.0</ele><time>2026-03-28T11:12:39.001Z</time></trkpt><trkpt lat="45.60054860645615" lon="10.794546993641744"><ele>249.0</ele><time>2026-03-28T11:12:40.001Z</time></trkpt><trkpt lat="45.60062905443357" lon="10.794523929738242"><ele>249.0</ele><time>2026-03-28T11:12:41.001Z</time></trkpt><trkpt lat="45.600689083011986" lon="10.794495112705528"><ele>249.0</ele><time>2026-03-28T11:12:42.001Z</time></trkpt><trkpt lat="45.60075587933638" lon="10.794435888226461"><ele>249.0</ele><time>2026-03-28T11:12:49.001Z</time></trkpt><trkpt lat="45.600823419784106" lon="10.794518938337024"><ele>249.0</ele><time>2026-03-28T11:12:50.001Z</time></trkpt><trkpt lat="45.60088180572214" lon="10.794613347217695"><ele>249.0</ele><time>2026-03-28T11:12:51.002Z</time></trkpt><trkpt lat="45.60096441766005" lon="10.794711285071148"><ele>249.0</ele><time>2026-03-28T11:12:52.002Z</time></trkpt><trkpt lat="45.601059564343025" lon="10.794818309654058"><ele>249.0</ele><time>2026-03-28T11:12:53.002Z</time></trkpt><trkpt lat="45.60116448418847" lon="10.794933088375737"><ele>249.0</ele><time>2026-03-28T11:12:54.002Z</time></trkpt><trkpt lat="45.60125908792746" lon="10.795026528189405"><ele>249.0</ele><time>2026-03-28T11:12:55.002Z</time></trkpt><trkpt lat="45.60134974383071" lon="10.79509831564179"><ele>249.0</ele><time>2026-03-28T11:12:56.002Z</time></trkpt><trkpt lat="45.6014442686988" lon="10.795140643714321"><ele>248.75</ele><time>2026-03-28T11:12:57.002Z</time></trkpt><trkpt lat="45.60156387376159" lon="10.795157167676665"><ele>248.5</ele><time>2026-03-28T11:12:58.002Z</time></trkpt><trkpt lat="45.60169456240154" lon="10.795158596473646"><ele>248.25</ele><time>2026-03-28T11:12:59.002Z</time></trkpt><trkpt lat="45.601846934662824" lon="10.795155119414904"><ele>248.0</ele><time>2026-03-28T11:13:00.002Z</time></trkpt><trkpt lat="45.602002235192664" lon="10.795173489194678"><ele>248.4</ele><time>2026-03-28T11:13:01.002Z</time></trkpt><trkpt lat="45.60212322914579" lon="10.795171030175487"><ele>248.8</ele><time>2026-03-28T11:13:02.002Z</time></trkpt><trkpt lat="45.60223164250315" lon="10.795155219513815"><ele>249.2</ele><time>2026-03-28T11:13:03.002Z</time></trkpt><trkpt lat="45.60233039670222" lon="10.795170996055631"><ele>249.6</ele><time>2026-03-28T11:13:04.002Z</time></trkpt><trkpt lat="45.60240784885298" lon="10.795188103467757"><ele>250.0</ele><time>2026-03-28T11:13:05.002Z</time></trkpt><trkpt lat="45.6024719547144" lon="10.795218257807868"><ele>250.16666666666666</ele><time>2026-03-28T11:13:06.002Z</time></trkpt><trkpt lat="45.602538983056796" lon="10.795277710543314"><ele>250.33333333333331</ele><time>2026-03-28T11:13:07.002Z</time></trkpt><trkpt lat="45.60260239488873" lon="10.795360915665125"><ele>250.5</ele><time>2026-03-28T11:13:08.002Z</time></trkpt><trkpt lat="45.602652524179106" lon="10.795444068944116"><ele>250.66666666666669</ele><time>2026-03-28T11:13:09.002Z</time></trkpt><trkpt lat="45.60269115535066" lon="10.795554021027534"><ele>250.83333333333334</ele><time>2026-03-28T11:13:10.002Z</time></trkpt><trkpt lat="45.602710175456934" lon="10.795695312317283"><ele>251.0</ele><time>2026-03-28T11:13:11.002Z</time></trkpt><trkpt lat="45.60272175406271" lon="10.795862581819879"><ele>251.0</ele><time>2026-03-28T11:13:12.002Z</time></trkpt><trkpt lat="45.60272909971009" lon="10.796057582477765"><ele>251.0</ele><time>2026-03-28T11:13:13.002Z</time></trkpt><trkpt lat="45.60272921407708" lon="10.796258695941912"><ele>251.0</ele><time>2026-03-28T11:13:14.002Z</time></trkpt><trkpt lat="45.602728810441384" lon="10.796463903734509"><ele>251.0</ele><time>2026-03-28T11:13:15.002Z</time></trkpt><trkpt lat="45.602739421294835" lon="10.79667024139708"><ele>251.0</ele><time>2026-03-28T11:13:16.002Z</time></trkpt><trkpt lat="45.602760584188175" lon="10.796845139450035"><ele>251.00000000000003</ele><time>2026-03-28T11:13:17.002Z</time></trkpt><trkpt lat="45.602772067350344" lon="10.796994687702417"><ele>251.00000000000003</ele><time>2026-03-28T11:13:18.002Z</time></trkpt><trkpt lat="45.6027890723809" lon="10.79711610113495"><ele>251.0</ele><time>2026-03-28T11:13:19.002Z</time></trkpt><trkpt lat="45.60284325480808" lon="10.797202299549195"><ele>251.0</ele><time>2026-03-28T11:13:20.002Z</time></trkpt><trkpt lat="45.60291607028006" lon="10.797270822407341"><ele>251.0</ele><time>2026-03-28T11:13:21.002Z</time></trkpt><trkpt lat="45.603015966050435" lon="10.797321376188176"><ele>251.00000000000003</ele><time>2026-03-28T11:13:22.002Z</time></trkpt><trkpt lat="45.603113832000446" lon="10.79738732826128"><ele>251.00000000000003</ele><time>2026-03-28T11:13:23.002Z</time></trkpt><trkpt lat="45.60317645775704" lon="10.79746846909052"><ele>251.0</ele><time>2026-03-28T11:13:24.003Z</time></trkpt><trkpt lat="45.60319963691164" lon="10.7975625941406"><ele>251.0</ele><time>2026-03-28T11:13:25.003Z</time></trkpt><trkpt lat="45.60319405702961" lon="10.797680177771804"><ele>251.0</ele><time>2026-03-28T11:13:26.003Z</time></trkpt><trkpt lat="45.60317778522952" lon="10.797831368109444"><ele>251.00000000000003</ele><time>2026-03-28T11:13:27.003Z</time></trkpt><trkpt lat="45.603182697386714" lon="10.797963329491715"><ele>251.00000000000003</ele><time>2026-03-28T11:13:28.003Z</time></trkpt><trkpt lat="45.60321548922512" lon="10.79806886284186"><ele>251.0</ele><time>2026-03-28T11:13:29.003Z</time></trkpt><trkpt lat="45.603272127264994" lon="10.798153435791836"><ele>251.0</ele><time>2026-03-28T11:13:30.003Z</time></trkpt><trkpt lat="45.603355696779865" lon="10.798216852047378"><ele>251.0</ele><time>2026-03-28T11:13:31.003Z</time></trkpt><trkpt lat="45.60346498842822" lon="10.798267799925203"><ele>251.0</ele><time>2026-03-28T11:13:32.003Z</time></trkpt><trkpt lat="45.60358651932694" lon="10.79832424756333"><ele>251.0</ele><time>2026-03-28T11:13:33.003Z</time></trkpt><trkpt lat="45.60371880051078" lon="10.798383845327795"><ele>251.0</ele><time>2026-03-28T11:13:34.003Z</time></trkpt><trkpt lat="45.60385997898795" lon="10.798452454704863"><ele>251.33333333333334</ele><time>2026-03-28T11:13:35.003Z</time></trkpt><trkpt lat="45.60400350767141" lon="10.798531933230546"><ele>251.66666666666669</ele><time>2026-03-28T11:13:36.003Z</time></trkpt><trkpt lat="45.6041459259224" lon="10.798613370943633"><ele>252.0</ele><time>2026-03-28T11:13:37.003Z</time></trkpt><trkpt lat="45.60428834867053" lon="10.798688804993741"><ele>252.0</ele><time>2026-03-28T11:13:38.003Z</time></trkpt><trkpt lat="45.6044260309546" lon="10.798766409701855"><ele>252.0</ele><time>2026-03-28T11:13:39.003Z</time></trkpt><trkpt lat="45.60456619016434" lon="10.79885034252345"><ele>252.0</ele><time>2026-03-28T11:13:40.003Z</time></trkpt><trkpt lat="45.60470241276742" lon="10.798931785524516"><ele>252.0</ele><time>2026-03-28T11:13:41.003Z</time></trkpt><trkpt lat="45.60483711823989" lon="10.799011024445914"><ele>252.0</ele><time>2026-03-28T11:13:42.003Z</time></trkpt><trkpt lat="45.60496155980406" lon="10.799081787068452"><ele>252.0</ele><time>2026-03-28T11:13:43.003Z</time></trkpt><trkpt lat="45.60507359494773" lon="10.799152633710678"><ele>252.0</ele><time>2026-03-28T11:13:44.003Z</time></trkpt><trkpt lat="45.605186446741115" lon="10.79922490005943"><ele>252.0</ele><time>2026-03-28T11:13:45.003Z</time></trkpt><trkpt lat="45.60530348831793" lon="10.799296556290656"><ele>254.25</ele><time>2026-03-28T11:13:46.003Z</time></trkpt><trkpt lat="45.60538942467589" lon="10.799353665486121"><ele>256.5</ele><time>2026-03-28T11:13:47.003Z</time></trkpt><trkpt lat="45.60546263385823" lon="10.799365209686687"><ele>258.75</ele><time>2026-03-28T11:13:48.003Z</time></trkpt><trkpt lat="45.60553403656407" lon="10.799400998371915"><ele>261.0</ele><time>2026-03-28T11:13:50.003Z</time></trkpt><trkpt lat="45.60552249721548" lon="10.799800286482936"><ele>261.0</ele><time>2026-03-28T11:13:51.003Z</time></trkpt><trkpt lat="45.605521990930576" lon="10.799978982476844"><ele>261.0</ele><time>2026-03-28T11:13:52.003Z</time></trkpt><trkpt lat="45.605495944050645" lon="10.800175330155103"><ele>261.0</ele><time>2026-03-28T11:13:53.003Z</time></trkpt><trkpt lat="45.605462186308166" lon="10.800395817822482"><ele>261.0</ele><time>2026-03-28T11:13:54Z</time></trkpt><trkpt lat="45.605428594610935" lon="10.800639314256998"><ele>261.6666666666667</ele><time>2026-03-28T11:13:55Z</time></trkpt><trkpt lat="45.60539629067645" lon="10.800902380258545"><ele>262.33333333333337</ele><time>2026-03-28T11:13:56Z</time></trkpt><trkpt lat="45.60536984743041" lon="10.801175794043933"><ele>263.0</ele><time>2026-03-28T11:13:57Z</time></trkpt><trkpt lat="45.60534498851757" lon="10.801434685050973"><ele>261.0</ele><time>2026-03-28T11:13:58Z</time></trkpt><trkpt lat="45.605326945890376" lon="10.801670775010834"><ele>259.0</ele><time>2026-03-28T11:13:59Z</time></trkpt><trkpt lat="45.60530708683882" lon="10.80188308720768"><ele>257.0</ele><time>2026-03-28T11:14:00Z</time></trkpt><trkpt lat="45.60528186093904" lon="10.80207881056909"><ele>257.0</ele><time>2026-03-28T11:14:01Z</time></trkpt><trkpt lat="45.605247622131266" lon="10.802258010995706"><ele>257.0</ele><time>2026-03-28T11:14:02Z</time></trkpt><trkpt lat="45.60524299993857" lon="10.802428851478025"><ele>257.0</ele><time>2026-03-28T11:14:03Z</time></trkpt><trkpt lat="45.60523047273374" lon="10.802578927340928"><ele>257.0</ele><time>2026-03-28T11:14:04Z</time></trkpt><trkpt lat="45.605219902931495" lon="10.80271608730781"><ele>257.0</ele><time>2026-03-28T11:14:05Z</time></trkpt><trkpt lat="45.60521097376921" lon="10.802836660412387"><ele>257.0</ele><time>2026-03-28T11:14:06Z</time></trkpt><trkpt lat="45.60520670405117" lon="10.802942962479598"><ele>257.0</ele><time>2026-03-28T11:14:07Z</time></trkpt><trkpt lat="45.60520920221959" lon="10.803060756410124"><ele>257.0</ele><time>2026-03-28T11:14:08Z</time></trkpt><trkpt lat="45.60520199418029" lon="10.803193132557018"><ele>257.0</ele><time>2026-03-28T11:14:09Z</time></trkpt><trkpt lat="45.605221691548685" lon="10.803323271421753"><ele>257.0</ele><time>2026-03-28T11:14:10Z</time></trkpt><trkpt lat="45.60519850690355" lon="10.803484567284041"><ele>257.75</ele><time>2026-03-28T11:14:11Z</time></trkpt><trkpt lat="45.60519723024158" lon="10.803669724855439"><ele>258.5</ele><time>2026-03-28T11:14:12Z</time></trkpt><trkpt lat="45.605176326008554" lon="10.803868604655188"><ele>259.25</ele><time>2026-03-28T11:14:13Z</time></trkpt><trkpt lat="45.60515951616008" lon="10.804072649373763"><ele>260.0</ele><time>2026-03-28T11:14:14Z</time></trkpt><trkpt lat="45.60513651397203" lon="10.804274652635563"><ele>260.5</ele><time>2026-03-28T11:14:15Z</time></trkpt><trkpt lat="45.60511445711657" lon="10.804476775720513"><ele>261.0</ele><time>2026-03-28T11:14:16Z</time></trkpt><trkpt lat="45.60510665959885" lon="10.80468222467758"><ele>261.5</ele><time>2026-03-28T11:14:17Z</time></trkpt><trkpt lat="45.60510818472663" lon="10.80486072742278"><ele>262.0</ele><time>2026-03-28T11:14:18Z</time></trkpt><trkpt lat="45.60511146972109" lon="10.80498726269435"><ele>262.0</ele><time>2026-03-28T11:14:19Z</time></trkpt><trkpt lat="45.60512267426717" lon="10.80512667083625"><ele>262.0</ele><time>2026-03-28T11:14:21Z</time></trkpt><trkpt lat="45.6051578228171" lon="10.805285792718474"><ele>262.0</ele><time>2026-03-28T11:14:23Z</time></trkpt><trkpt lat="45.60520861236627" lon="10.80535412972983"><ele>262.0</ele><time>2026-03-28T11:14:24Z</time></trkpt><trkpt lat="45.60528828301365" lon="10.805431924546413"><ele>262.0</ele><time>2026-03-28T11:14:25Z</time></trkpt><trkpt lat="45.60538699470202" lon="10.805544076313979"><ele>262.75</ele><time>2026-03-28T11:14:26.001Z</time></trkpt><trkpt lat="45.60548789047244" lon="10.805669153512339"><ele>263.5</ele><time>2026-03-28T11:14:27.001Z</time></trkpt><trkpt lat="45.60554127886384" lon="10.805855843880245"><ele>264.25</ele><time>2026-03-28T11:14:28.001Z</time></trkpt><trkpt lat="45.605599500437535" lon="10.806062136729883"><ele>265.0</ele><time>2026-03-28T11:14:29.001Z</time></trkpt><trkpt lat="45.60566810248761" lon="10.806290395990766"><ele>265.0</ele><time>2026-03-28T11:14:30.001Z</time></trkpt><trkpt lat="45.60572832174965" lon="10.806538681499477"><ele>265.0</ele><time>2026-03-28T11:14:31.001Z</time></trkpt><trkpt lat="45.605793922753406" lon="10.806791222544032"><ele>265.0</ele><time>2026-03-28T11:14:32.001Z</time></trkpt><trkpt lat="45.60585844600922" lon="10.807050867757864"><ele>264.66666666666663</ele><time>2026-03-28T11:14:33.001Z</time></trkpt><trkpt lat="45.60592962032979" lon="10.807308434847991"><ele>264.3333333333333</ele><time>2026-03-28T11:14:34.001Z</time></trkpt><trkpt lat="45.605989186344345" lon="10.807526813651533"><ele>264.0</ele><time>2026-03-28T11:14:35.001Z</time></trkpt><trkpt lat="45.60604722139179" lon="10.807738092306817"><ele>264.0</ele><time>2026-03-28T11:14:36.001Z</time></trkpt><trkpt lat="45.60610751775719" lon="10.80794954420479"><ele>264.0</ele><time>2026-03-28T11:14:37.001Z</time></trkpt><trkpt lat="45.60615095952783" lon="10.808155999774382"><ele>264.0</ele><time>2026-03-28T11:14:38.001Z</time></trkpt><trkpt lat="45.606184368843124" lon="10.808341251439717"><ele>264.0</ele><time>2026-03-28T11:14:39.001Z</time></trkpt><trkpt lat="45.60621601333443" lon="10.808509082572842"><ele>264.75</ele><time>2026-03-28T11:14:40.001Z</time></trkpt><trkpt lat="45.60626691502337" lon="10.808650297124025"><ele>265.5</ele><time>2026-03-28T11:14:41.001Z</time></trkpt><trkpt lat="45.60634770315525" lon="10.808775174132629"><ele>266.25</ele><time>2026-03-28T11:14:42.001Z</time></trkpt><trkpt lat="45.60644795657212" lon="10.808898359742685"><ele>267.0</ele><time>2026-03-28T11:14:43.001Z</time></trkpt><trkpt lat="45.60654079287185" lon="10.809015898424242"><ele>267.0</ele><time>2026-03-28T11:14:44.001Z</time></trkpt><trkpt lat="45.60662889843751" lon="10.809131074914303"><ele>267.0</ele><time>2026-03-28T11:14:45.001Z</time></trkpt><trkpt lat="45.60672562612676" lon="10.809239462287032"><ele>267.0</ele><time>2026-03-28T11:14:46.001Z</time></trkpt><trkpt lat="45.60681593024983" lon="10.809343334956257"><ele>267.0</ele><time>2026-03-28T11:14:47.001Z</time></trkpt><trkpt lat="45.606893447005824" lon="10.809446392703686"><ele>267.0</ele><time>2026-03-28T11:14:48.001Z</time></trkpt><trkpt lat="45.60694543752913" lon="10.809547651003871"><ele>267.0</ele><time>2026-03-28T11:14:49.001Z</time></trkpt><trkpt lat="45.6069837553619" lon="10.809626380250693"><ele>267.0</ele><time>2026-03-28T11:14:50.001Z</time></trkpt><trkpt lat="45.6070328099782" lon="10.809735607801649"><ele>267.0</ele><time>2026-03-28T11:14:52.001Z</time></trkpt><trkpt lat="45.60700204510251" lon="10.809816013168163"><ele>267.0</ele><time>2026-03-28T11:14:54.001Z</time></trkpt><trkpt lat="45.60687352181977" lon="10.809913604361329"><ele>267.0</ele><time>2026-03-28T11:14:56.001Z</time></trkpt><trkpt lat="45.60678799891645" lon="10.809962683083832"><ele>267.0</ele><time>2026-03-28T11:14:57.001Z</time></trkpt><trkpt lat="45.60668679375172" lon="10.810005710711936"><ele>267.0</ele><time>2026-03-28T11:14:58.002Z</time></trkpt><trkpt lat="45.60659505555084" lon="10.810068868147262"><ele>267.0</ele><time>2026-03-28T11:14:59.002Z</time></trkpt><trkpt lat="45.60650104225279" lon="10.81014983041447"><ele>267.0</ele><time>2026-03-28T11:15:00.002Z</time></trkpt><trkpt lat="45.60645389830563" lon="10.810216961445354"><ele>267.2</ele><time>2026-03-28T11:15:01.002Z</time></trkpt><trkpt lat="45.606433240374535" lon="10.810338801523015"><ele>267.4</ele><time>2026-03-28T11:15:04.002Z</time></trkpt><trkpt lat="45.606389487108736" lon="10.8104362238225"><ele>267.6</ele><time>2026-03-28T11:15:06.002Z</time></trkpt><trkpt lat="45.60631740894385" lon="10.81057735514195"><ele>267.8</ele><time>2026-03-28T11:15:08.002Z</time></trkpt><trkpt lat="45.60627122032401" lon="10.810674622788353"><ele>268.0</ele><time>2026-03-28T11:15:09.002Z</time></trkpt><trkpt lat="45.60621379180555" lon="10.81078434607273"><ele>267.75</ele><time>2026-03-28T11:15:10.002Z</time></trkpt><trkpt lat="45.60614850840697" lon="10.810911138381691"><ele>267.5</ele><time>2026-03-28T11:15:11.002Z</time></trkpt><trkpt lat="45.606076967752415" lon="10.811037200729425"><ele>267.25</ele><time>2026-03-28T11:15:12.002Z</time></trkpt><trkpt lat="45.605988068611566" lon="10.811191827002213"><ele>267.0</ele><time>2026-03-28T11:15:13.002Z</time></trkpt><trkpt lat="45.60589285580652" lon="10.811339415071311"><ele>267.4</ele><time>2026-03-28T11:15:14.002Z</time></trkpt><trkpt lat="45.605786747813646" lon="10.811488468638988"><ele>267.79999999999995</ele><time>2026-03-28T11:15:15.002Z</time></trkpt><trkpt lat="45.60570790879931" lon="10.811614753251098"><ele>268.2</ele><time>2026-03-28T11:15:16.002Z</time></trkpt><trkpt lat="45.60565989042345" lon="10.811711802646945"><ele>268.59999999999997</ele><time>2026-03-28T11:15:17.002Z</time></trkpt><trkpt lat="45.60562398905311" lon="10.81182032700586"><ele>269.0</ele><time>2026-03-28T11:15:18.002Z</time></trkpt><trkpt lat="45.60559961624474" lon="10.811950058956457"><ele>269.1666666666667</ele><time>2026-03-28T11:15:19.002Z</time></trkpt><trkpt lat="45.60558533367377" lon="10.812069280020255"><ele>269.33333333333337</ele><time>2026-03-28T11:15:20.002Z</time></trkpt><trkpt lat="45.60556813631406" lon="10.812164122108088"><ele>269.5</ele><time>2026-03-28T11:15:21.002Z</time></trkpt><trkpt lat="45.60554857518742" lon="10.812252963815626"><ele>269.6666666666667</ele><time>2026-03-28T11:15:22.002Z</time></trkpt><trkpt lat="45.60552301957151" lon="10.812387697818485"><ele>269.8333333333333</ele><time>2026-03-28T11:15:25.002Z</time></trkpt><trkpt lat="45.605491413772" lon="10.812491468856422"><ele>270.0</ele><time>2026-03-28T11:15:28.002Z</time></trkpt><trkpt lat="45.605423656121864" lon="10.812586368666969"><ele>270.4</ele><time>2026-03-28T11:15:30.002Z</time></trkpt><trkpt lat="45.6053306298843" lon="10.812679194076061"><ele>270.8</ele><time>2026-03-28T11:15:32.003Z</time></trkpt><trkpt lat="45.605297610398985" lon="10.812756284954487"><ele>271.2</ele><time>2026-03-28T11:15:33.003Z</time></trkpt><trkpt lat="45.60526186514214" lon="10.812877901940615"><ele>271.6</ele><time>2026-03-28T11:15:34.003Z</time></trkpt><trkpt lat="45.605210245712684" lon="10.813016683099086"><ele>272.0</ele><time>2026-03-28T11:15:35.003Z</time></trkpt><trkpt lat="45.605158694959954" lon="10.813166658523786"><ele>271.0</ele><time>2026-03-28T11:15:36.003Z</time></trkpt><trkpt lat="45.60510894732969" lon="10.81332341440904"><ele>270.0</ele><time>2026-03-28T11:15:37.003Z</time></trkpt><trkpt lat="45.60505919792653" lon="10.813487598126503"><ele>269.0</ele><time>2026-03-28T11:15:38.003Z</time></trkpt><trkpt lat="45.60500826893599" lon="10.813660143818506"><ele>268.0</ele><time>2026-03-28T11:15:39.003Z</time></trkpt><trkpt lat="45.60496664275288" lon="10.813819089321779"><ele>268.0</ele><time>2026-03-28T11:15:40.003Z</time></trkpt><trkpt lat="45.604933133269526" lon="10.81396677037706"><ele>268.0</ele><time>2026-03-28T11:15:41.003Z</time></trkpt><trkpt lat="45.604878035694576" lon="10.814133335808055"><ele>268.0</ele><time>2026-03-28T11:15:42.003Z</time></trkpt><trkpt lat="45.60484099098649" lon="10.81431617322009"><ele>268.0</ele><time>2026-03-28T11:15:43.003Z</time></trkpt><trkpt lat="45.604797614606326" lon="10.814495061943962"><ele>268.25</ele><time>2026-03-28T11:15:44.003Z</time></trkpt><trkpt lat="45.60475714454341" lon="10.814685807459336"><ele>268.5</ele><time>2026-03-28T11:15:45.003Z</time></trkpt><trkpt lat="45.60471757345402" lon="10.814880980841789"><ele>268.75</ele><time>2026-03-28T11:15:46.003Z</time></trkpt><trkpt lat="45.60467700514444" lon="10.81505787091644"><ele>269.0</ele><time>2026-03-28T11:15:47.003Z</time></trkpt><trkpt lat="45.60464548194776" lon="10.815216145319996"><ele>269.2</ele><time>2026-03-28T11:15:48.003Z</time></trkpt><trkpt lat="45.60462382465109" lon="10.815363504234847"><ele>269.4</ele><time>2026-03-28T11:15:49.003Z</time></trkpt><trkpt lat="45.60460890423833" lon="10.81551894935354"><ele>269.6</ele><time>2026-03-28T11:15:50.003Z</time></trkpt><trkpt lat="45.60459873836353" lon="10.815645151431283"><ele>269.8</ele><time>2026-03-28T11:15:51.003Z</time></trkpt><trkpt lat="45.60458683933466" lon="10.815775766122911"><ele>270.0</ele><time>2026-03-28T11:15:52.003Z</time></trkpt><trkpt lat="45.60460566032526" lon="10.815905383804402"><ele>269.8</ele><time>2026-03-28T11:15:54.003Z</time></trkpt><trkpt lat="45.60466288789572" lon="10.816026526598309"><ele>269.6</ele><time>2026-03-28T11:15:57.003Z</time></trkpt><trkpt lat="45.6046594482315" lon="10.816158570473876"><ele>269.4</ele><time>2026-03-28T11:16:03.999Z</time></trkpt><trkpt lat="45.60463986206444" lon="10.81626432250164"><ele>269.2</ele><time>2026-03-28T11:16:05Z</time></trkpt><trkpt lat="45.60462791110242" lon="10.816388672643411"><ele>269.0</ele><time>2026-03-28T11:16:06Z</time></trkpt><trkpt lat="45.60462967084356" lon="10.816524843057207"><ele>269.0</ele><time>2026-03-28T11:16:07Z</time></trkpt><trkpt lat="45.60463566695255" lon="10.816661000025636"><ele>269.0</ele><time>2026-03-28T11:16:08Z</time></trkpt><trkpt lat="45.60464708464191" lon="10.816831366894986"><ele>269.0</ele><time>2026-03-28T11:16:09Z</time></trkpt><trkpt lat="45.60466592264411" lon="10.816990535667411"><ele>269.0</ele><time>2026-03-28T11:16:10Z</time></trkpt><trkpt lat="45.60469789376568" lon="10.817139641392387"><ele>269.0</ele><time>2026-03-28T11:16:11Z</time></trkpt><trkpt lat="45.60473615840488" lon="10.817287755351508"><ele>270.0</ele><time>2026-03-28T11:16:12Z</time></trkpt><trkpt lat="45.60477174801813" lon="10.817444521065747"><ele>271.0</ele><time>2026-03-28T11:16:13Z</time></trkpt><trkpt lat="45.604790737138934" lon="10.817607187858906"><ele>272.0</ele><time>2026-03-28T11:16:14Z</time></trkpt><trkpt lat="45.60477644236198" lon="10.817758374805683"><ele>273.0</ele><time>2026-03-28T11:16:15Z</time></trkpt><trkpt lat="45.60473425771137" lon="10.81791205913229"><ele>273.25</ele><time>2026-03-28T11:16:16Z</time></trkpt><trkpt lat="45.60464899665023" lon="10.818062790254855"><ele>273.5</ele><time>2026-03-28T11:16:17Z</time></trkpt><trkpt lat="45.60459104393992" lon="10.818238236950888"><ele>273.75</ele><time>2026-03-28T11:16:18Z</time></trkpt><trkpt lat="45.604520684631005" lon="10.818399055965186"><ele>274.0</ele><time>2026-03-28T11:16:19Z</time></trkpt><trkpt lat="45.604460710322364" lon="10.818568919032046"><ele>273.4</ele><time>2026-03-28T11:16:20Z</time></trkpt><trkpt lat="45.60441324368791" lon="10.818740580846868"><ele>272.79999999999995</ele><time>2026-03-28T11:16:21Z</time></trkpt><trkpt lat="45.60439757443099" lon="10.818897839188065"><ele>272.20000000000005</ele><time>2026-03-28T11:16:22Z</time></trkpt><trkpt lat="45.60439051488199" lon="10.819049134708132"><ele>271.6</ele><time>2026-03-28T11:16:23Z</time></trkpt><trkpt lat="45.6043871812736" lon="10.819164416619424"><ele>271.0</ele><time>2026-03-28T11:16:24Z</time></trkpt><trkpt lat="45.60436966749773" lon="10.819276543321108"><ele>271.0</ele><time>2026-03-28T11:16:26Z</time></trkpt><trkpt lat="45.60404630942874" lon="10.819231598142245"><ele>271.0</ele><time>2026-03-28T11:16:27Z</time></trkpt><trkpt lat="45.60396633379084" lon="10.81915526326167"><ele>271.0</ele><time>2026-03-28T11:16:28Z</time></trkpt><trkpt lat="45.60388435219917" lon="10.819090000492086"><ele>271.0</ele><time>2026-03-28T11:16:29Z</time></trkpt><trkpt lat="45.60378023302114" lon="10.81912852131386"><ele>271.0</ele><time>2026-03-28T11:16:31Z</time></trkpt><trkpt lat="45.603722177722915" lon="10.819213189468364"><ele>271.0</ele><time>2026-03-28T11:16:32Z</time></trkpt><trkpt lat="45.60364127889443" lon="10.819342991556233"><ele>271.0</ele><time>2026-03-28T11:16:33Z</time></trkpt><trkpt lat="45.603536524546705" lon="10.819483312072663"><ele>270.66666666666663</ele><time>2026-03-28T11:16:34.001Z</time></trkpt><trkpt lat="45.603419746449084" lon="10.819624161902176"><ele>270.3333333333333</ele><time>2026-03-28T11:16:35.001Z</time></trkpt><trkpt lat="45.603288232064564" lon="10.819775325284676"><ele>270.0</ele><time>2026-03-28T11:16:36.001Z</time></trkpt><trkpt lat="45.60314765060946" lon="10.81993946249695"><ele>270.0</ele><time>2026-03-28T11:16:37.001Z</time></trkpt><trkpt lat="45.603004628894354" lon="10.820110995973073"><ele>270.0</ele><time>2026-03-28T11:16:38.001Z</time></trkpt><trkpt lat="45.6028682250431" lon="10.820269992710934"><ele>270.0</ele><time>2026-03-28T11:16:39.001Z</time></trkpt><trkpt lat="45.60274804279059" lon="10.820405261877447"><ele>270.0</ele><time>2026-03-28T11:16:40.001Z</time></trkpt><trkpt lat="45.60263910214054" lon="10.820537261255325"><ele>270.0</ele><time>2026-03-28T11:16:41.001Z</time></trkpt><trkpt lat="45.60254242048956" lon="10.82066643752597"><ele>270.0</ele><time>2026-03-28T11:16:42.001Z</time></trkpt><trkpt lat="45.60241219567527" lon="10.820816313342613"><ele>270.0</ele><time>2026-03-28T11:16:43.001Z</time></trkpt><trkpt lat="45.602281322820566" lon="10.82096903233697"><ele>269.75</ele><time>2026-03-28T11:16:44.001Z</time></trkpt><trkpt lat="45.60215188490396" lon="10.821122165618172"><ele>269.5</ele><time>2026-03-28T11:16:45.001Z</time></trkpt><trkpt lat="45.60203861571503" lon="10.82125221885525"><ele>269.25</ele><time>2026-03-28T11:16:46.001Z</time></trkpt><trkpt lat="45.60194119640146" lon="10.821369770396833"><ele>269.0</ele><time>2026-03-28T11:16:47.001Z</time></trkpt><trkpt lat="45.60185072293788" lon="10.821481457487284"><ele>269.0</ele><time>2026-03-28T11:16:48.001Z</time></trkpt><trkpt lat="45.601759389298394" lon="10.821592404456252"><ele>269.0</ele><time>2026-03-28T11:16:49.001Z</time></trkpt><trkpt lat="45.601665784135164" lon="10.8217006462628"><ele>269.0</ele><time>2026-03-28T11:16:50.001Z</time></trkpt><trkpt lat="45.6015944098351" lon="10.821792948591868"><ele>269.0</ele><time>2026-03-28T11:16:51.001Z</time></trkpt><trkpt lat="45.601549683768326" lon="10.821858215900889"><ele>269.0</ele><time>2026-03-28T11:16:52.001Z</time></trkpt><trkpt lat="45.60145847599328" lon="10.82196234036263"><ele>270.0</ele><time>2026-03-28T11:16:54.001Z</time></trkpt><trkpt lat="45.60144481751149" lon="10.822075664586198"><ele>271.0</ele><time>2026-03-28T11:16:56.001Z</time></trkpt><trkpt lat="45.60153994471454" lon="10.822219925837162"><ele>272.0</ele><time>2026-03-28T11:16:58.001Z</time></trkpt><trkpt lat="45.601606788638875" lon="10.822328417365686"><ele>273.0</ele><time>2026-03-28T11:16:59.001Z</time></trkpt><trkpt lat="45.60167153161867" lon="10.82244445032641"><ele>274.0</ele><time>2026-03-28T11:17:00.001Z</time></trkpt><trkpt lat="45.60172536980055" lon="10.822557146339543"><ele>275.2</ele><time>2026-03-28T11:17:01.001Z</time></trkpt><trkpt lat="45.60178107134965" lon="10.822675360770523"><ele>276.4</ele><time>2026-03-28T11:17:02.001Z</time></trkpt><trkpt lat="45.60184041530631" lon="10.822799299999597"><ele>277.6</ele><time>2026-03-28T11:17:03.001Z</time></trkpt><trkpt lat="45.6019027739674" lon="10.822918175823387"><ele>278.8</ele><time>2026-03-28T11:17:04.001Z</time></trkpt><trkpt lat="45.601952847065505" lon="10.822975982482063"><ele>280.0</ele><time>2026-03-28T11:17:05.002Z</time></trkpt><trkpt lat="45.60206151201456" lon="10.82295837010245"><ele>280.25</ele><time>2026-03-28T11:17:07.002Z</time></trkpt><trkpt lat="45.602176585112396" lon="10.822892622258212"><ele>280.5</ele><time>2026-03-28T11:17:09.002Z</time></trkpt><trkpt lat="45.6022945240834" lon="10.822797813515072"><ele>280.75</ele><time>2026-03-28T11:17:10.002Z</time></trkpt><trkpt lat="45.60240376350066" lon="10.822691710822964"><ele>281.0</ele><time>2026-03-28T11:17:11.002Z</time></trkpt><trkpt lat="45.60250267497743" lon="10.822619610659398"><ele>280.25</ele><time>2026-03-28T11:17:12.002Z</time></trkpt><trkpt lat="45.60260408148127" lon="10.822566859540133"><ele>279.5</ele><time>2026-03-28T11:17:13.002Z</time></trkpt><trkpt lat="45.60271548135922" lon="10.82251405274502"><ele>278.75</ele><time>2026-03-28T11:17:14.002Z</time></trkpt><trkpt lat="45.60283173814951" lon="10.822460301759467"><ele>278.0</ele><time>2026-03-28T11:17:15.002Z</time></trkpt><trkpt lat="45.602934469122516" lon="10.822405614315107"><ele>278.0</ele><time>2026-03-28T11:17:16.002Z</time></trkpt><trkpt lat="45.60303524151702" lon="10.82235101166955"><ele>278.0</ele><time>2026-03-28T11:17:17.002Z</time></trkpt><trkpt lat="45.60311069647929" lon="10.822308737208788"><ele>278.0</ele><time>2026-03-28T11:17:18.002Z</time></trkpt><trkpt lat="45.60317715011886" lon="10.822270556923433"><ele>278.0</ele><time>2026-03-28T11:17:19.002Z</time></trkpt><trkpt lat="45.60325380779925" lon="10.82224440347687"><ele>278.0</ele><time>2026-03-28T11:17:20.002Z</time></trkpt><trkpt lat="45.60333795155679" lon="10.822216836716322"><ele>278.0</ele><time>2026-03-28T11:17:21.002Z</time></trkpt><trkpt lat="45.603421691472136" lon="10.822187551576794"><ele>278.0</ele><time>2026-03-28T11:17:22.002Z</time></trkpt><trkpt lat="45.603542305616294" lon="10.822152161081446"><ele>278.0</ele><time>2026-03-28T11:17:23.002Z</time></trkpt><trkpt lat="45.60365276461094" lon="10.822123223625786"><ele>278.0</ele><time>2026-03-28T11:17:24.002Z</time></trkpt><trkpt lat="45.60374149552329" lon="10.82210078649111"><ele>278.0</ele><time>2026-03-28T11:17:25.002Z</time></trkpt><trkpt lat="45.603842543513785" lon="10.82207310982645"><ele>278.0</ele><time>2026-03-28T11:17:26.002Z</time></trkpt><trkpt lat="45.60393968227672" lon="10.82205622433963"><ele>279.2</ele><time>2026-03-28T11:17:27.002Z</time></trkpt><trkpt lat="45.604026200161805" lon="10.822051831025284"><ele>280.4</ele><time>2026-03-28T11:17:28.002Z</time></trkpt><trkpt lat="45.60409254784321" lon="10.822043168405948"><ele>281.59999999999997</ele><time>2026-03-28T11:17:29.002Z</time></trkpt><trkpt lat="45.60418807364634" lon="10.822047580586435"><ele>282.8</ele><time>2026-03-28T11:17:30.002Z</time></trkpt><trkpt lat="45.604269368044946" lon="10.822013302601142"><ele>284.0</ele><time>2026-03-28T11:17:31.002Z</time></trkpt><trkpt lat="45.604298092046896" lon="10.821825647608291"><ele>283.4</ele><time>2026-03-28T11:17:32.002Z</time></trkpt><trkpt lat="45.60438163966878" lon="10.821728020168514"><ele>282.79999999999995</ele><time>2026-03-28T11:17:34.002Z</time></trkpt><trkpt lat="45.604444588863224" lon="10.821670942396995"><ele>282.20000000000005</ele><time>2026-03-28T11:17:35.002Z</time></trkpt><trkpt lat="45.60460523172793" lon="10.821760682369414"><ele>281.6</ele><time>2026-03-28T11:17:36.002Z</time></trkpt><trkpt lat="45.60469436713173" lon="10.821735239370177"><ele>281.0</ele><time>2026-03-28T11:17:37.002Z</time></trkpt><trkpt lat="45.60477691282628" lon="10.821725907886725"><ele>284.0</ele><time>2026-03-28T11:17:38.003Z</time></trkpt><trkpt lat="45.604865716498146" lon="10.821730175432366"><ele>287.0</ele><time>2026-03-28T11:17:39.003Z</time></trkpt><trkpt lat="45.60494319519578" lon="10.821748431336749"><ele>290.0</ele><time>2026-03-28T11:17:40.003Z</time></trkpt><trkpt lat="45.6050364351208" lon="10.821757716770028"><ele>293.0</ele><time>2026-03-28T11:17:41.003Z</time></trkpt><trkpt lat="45.60513054870822" lon="10.821776169447837"><ele>296.0</ele><time>2026-03-28T11:17:42.003Z</time></trkpt><trkpt lat="45.60521611650849" lon="10.821696762323215"><ele>296.0</ele><time>2026-03-28T11:17:43.003Z</time></trkpt><trkpt lat="45.60525845867391" lon="10.821584876823048"><ele>296.0</ele><time>2026-03-28T11:17:44.003Z</time></trkpt><trkpt lat="45.605274699881626" lon="10.82149401223089"><ele>296.0</ele><time>2026-03-28T11:17:45.003Z</time></trkpt><trkpt lat="45.60531717947718" lon="10.82164376584067"><ele>296.0</ele><time>2026-03-28T11:17:50.003Z</time></trkpt><trkpt lat="45.60530758229808" lon="10.821818839291572"><ele>296.0</ele><time>2026-03-28T11:17:51.003Z</time></trkpt><trkpt lat="45.60530065800482" lon="10.822004151282426"><ele>296.0</ele><time>2026-03-28T11:17:52.003Z</time></trkpt><trkpt lat="45.60530679282708" lon="10.8222160818797"><ele>296.0</ele><time>2026-03-28T11:17:53.003Z</time></trkpt><trkpt lat="45.605323150016346" lon="10.822448785833679"><ele>296.0</ele><time>2026-03-28T11:17:54.003Z</time></trkpt><trkpt lat="45.60533595665246" lon="10.822681525580055"><ele>300.6666666666667</ele><time>2026-03-28T11:17:55.003Z</time></trkpt><trkpt lat="45.605353273665365" lon="10.822926554053828"><ele>305.3333333333333</ele><time>2026-03-28T11:17:56.003Z</time></trkpt><trkpt lat="45.60537549528904" lon="10.823164962039987"><ele>310.0</ele><time>2026-03-28T11:17:57.003Z</time></trkpt><trkpt lat="45.605375980976255" lon="10.823394751486687"><ele>309.3333333333333</ele><time>2026-03-28T11:17:58.003Z</time></trkpt><trkpt lat="45.605380314434036" lon="10.823623264393646"><ele>308.6666666666667</ele><time>2026-03-28T11:17:59.003Z</time></trkpt><trkpt lat="45.60539036693185" lon="10.823851629998467"><ele>308.0</ele><time>2026-03-28T11:18:00.003Z</time></trkpt><trkpt lat="45.605397699063666" lon="10.824056222514091"><ele>308.0</ele><time>2026-03-28T11:18:01.003Z</time></trkpt><trkpt lat="45.60539683720212" lon="10.824236783166896"><ele>308.0</ele><time>2026-03-28T11:18:02.003Z</time></trkpt><trkpt lat="45.60537499844179" lon="10.824403994639429"><ele>308.0</ele><time>2026-03-28T11:18:03.003Z</time></trkpt><trkpt lat="45.605326089627304" lon="10.824548682952289"><ele>308.0</ele><time>2026-03-28T11:18:04.003Z</time></trkpt><trkpt lat="45.60522276329746" lon="10.824639333857935"><ele>306.0</ele><time>2026-03-28T11:18:05.003Z</time></trkpt><trkpt lat="45.605108159197684" lon="10.824743531031555"><ele>304.0</ele><time>2026-03-28T11:18:05.999Z</time></trkpt><trkpt lat="45.604988533325944" lon="10.824846152019148"><ele>302.0</ele><time>2026-03-28T11:18:06.999Z</time></trkpt><trkpt lat="45.60486901174693" lon="10.824892200608204"><ele>300.0</ele><time>2026-03-28T11:18:07.999Z</time></trkpt><trkpt lat="45.60475567875063" lon="10.824890014263012"><ele>300.0</ele><time>2026-03-28T11:18:08.999Z</time></trkpt><trkpt lat="45.604662860619655" lon="10.824957618309652"><ele>300.0</ele><time>2026-03-28T11:18:09.999Z</time></trkpt><trkpt lat="45.60457258848661" lon="10.825062646425307"><ele>300.0</ele><time>2026-03-28T11:18:11Z</time></trkpt><trkpt lat="45.60450599484902" lon="10.82522237201679"><ele>300.0</ele><time>2026-03-28T11:18:12Z</time></trkpt><trkpt lat="45.60446326895087" lon="10.825433121094346"><ele>300.0</ele><time>2026-03-28T11:18:13Z</time></trkpt><trkpt lat="45.60440731677457" lon="10.825631105394804"><ele>300.0</ele><time>2026-03-28T11:18:14Z</time></trkpt><trkpt lat="45.604328865745" lon="10.825802004891779"><ele>300.0</ele><time>2026-03-28T11:18:15Z</time></trkpt><trkpt lat="45.604220559023894" lon="10.825951133176272"><ele>300.0</ele><time>2026-03-28T11:18:16Z</time></trkpt><trkpt lat="45.60408716335083" lon="10.826068296244605"><ele>301.0</ele><time>2026-03-28T11:18:17Z</time></trkpt><trkpt lat="45.60394160125819" lon="10.826178087969652"><ele>302.0</ele><time>2026-03-28T11:18:18Z</time></trkpt><trkpt lat="45.60380751757968" lon="10.826283530501758"><ele>303.0</ele><time>2026-03-28T11:18:19Z</time></trkpt><trkpt lat="45.603654671993795" lon="10.82634687562017"><ele>303.0</ele><time>2026-03-28T11:18:20Z</time></trkpt><trkpt lat="45.60350159502047" lon="10.82643672836634"><ele>303.0</ele><time>2026-03-28T11:18:21Z</time></trkpt><trkpt lat="45.60335262782917" lon="10.82651244383596"><ele>303.0</ele><time>2026-03-28T11:18:22Z</time></trkpt><trkpt lat="45.60321087481493" lon="10.82657726853117"><ele>303.0</ele><time>2026-03-28T11:18:23Z</time></trkpt><trkpt lat="45.603093866019414" lon="10.826606476737227"><ele>303.0</ele><time>2026-03-28T11:18:24Z</time></trkpt><trkpt lat="45.603026338078465" lon="10.826614902868021"><ele>303.0</ele><time>2026-03-28T11:18:25Z</time></trkpt><trkpt lat="45.6029591757195" lon="10.826617076400446"><ele>303.0</ele><time>2026-03-28T11:18:28Z</time></trkpt><trkpt lat="45.60297928244696" lon="10.826745210941596"><ele>303.0</ele><time>2026-03-28T11:18:30Z</time></trkpt><trkpt lat="45.60302335827064" lon="10.826828194726504"><ele>303.0</ele><time>2026-03-28T11:18:31Z</time></trkpt><trkpt lat="45.603113384786276" lon="10.826924655488728"><ele>305.6</ele><time>2026-03-28T11:18:32Z</time></trkpt><trkpt lat="45.60320690942261" lon="10.82700314382661"><ele>308.20000000000005</ele><time>2026-03-28T11:18:33Z</time></trkpt><trkpt lat="45.60330363097067" lon="10.827063500362394"><ele>310.8</ele><time>2026-03-28T11:18:34Z</time></trkpt><trkpt lat="45.60339730098469" lon="10.827088310706184"><ele>313.40000000000003</ele><time>2026-03-28T11:18:35Z</time></trkpt><trkpt lat="45.60348328262699" lon="10.827121601728996"><ele>316.0</ele><time>2026-03-28T11:18:36Z</time></trkpt><trkpt lat="45.60353855394962" lon="10.827178108400192"><ele>316.0</ele><time>2026-03-28T11:18:37Z</time></trkpt><trkpt lat="45.60360712225387" lon="10.827215138258081"><ele>316.0</ele><time>2026-03-28T11:18:38Z</time></trkpt><trkpt lat="45.6036875729723" lon="10.827228776613266"><ele>316.0</ele><time>2026-03-28T11:18:39Z</time></trkpt><trkpt lat="45.60376048098556" lon="10.827272727789149"><ele>316.0</ele><time>2026-03-28T11:18:40.001Z</time></trkpt><trkpt lat="45.60383963826936" lon="10.827285464960992"><ele>316.0</ele><time>2026-03-28T11:18:41.001Z</time></trkpt><trkpt lat="45.60392198094585" lon="10.827276363541081"><ele>316.0</ele><time>2026-03-28T11:18:42.001Z</time></trkpt><trkpt lat="45.603992877066524" lon="10.827244287037338"><ele>315.8333333333333</ele><time>2026-03-28T11:18:43.001Z</time></trkpt><trkpt lat="45.60406686156661" lon="10.82721938978259"><ele>315.66666666666663</ele><time>2026-03-28T11:18:45.001Z</time></trkpt><trkpt lat="45.60412850197394" lon="10.827200215693825"><ele>315.5</ele><time>2026-03-28T11:18:47.001Z</time></trkpt><trkpt lat="45.60423528946893" lon="10.827190534148922"><ele>315.3333333333333</ele><time>2026-03-28T11:18:49.001Z</time></trkpt><trkpt lat="45.60429233513925" lon="10.827129482645343"><ele>315.1666666666667</ele><time>2026-03-28T11:18:50.001Z</time></trkpt><trkpt lat="45.604334094236805" lon="10.8270476872494"><ele>315.0</ele><time>2026-03-28T11:18:52.001Z</time></trkpt><trkpt lat="45.604399876418796" lon="10.826964025647058"><ele>315.0</ele><time>2026-03-28T11:18:55.001Z</time></trkpt><trkpt lat="45.60447485378351" lon="10.82691695980483"><ele>315.0</ele><time>2026-03-28T11:18:57.001Z</time></trkpt><trkpt lat="45.60453866181525" lon="10.826829349611627"><ele>315.0</ele><time>2026-03-28T11:18:59.001Z</time></trkpt><trkpt lat="45.60458999119284" lon="10.826754503552001"><ele>315.0</ele><time>2026-03-28T11:19:01.001Z</time></trkpt><trkpt lat="45.60463428603386" lon="10.82667613498471"><ele>315.0</ele><time>2026-03-28T11:19:03.001Z</time></trkpt><trkpt lat="45.60467938468991" lon="10.826605059963233"><ele>315.0</ele><time>2026-03-28T11:19:05.001Z</time></trkpt><trkpt lat="45.60473545227971" lon="10.826549397971643"><ele>314.5</ele><time>2026-03-28T11:19:07.001Z</time></trkpt><trkpt lat="45.604803361135886" lon="10.826509425467442"><ele>314.0</ele><time>2026-03-28T11:19:09.001Z</time></trkpt><trkpt lat="45.60487696980747" lon="10.826483700137333"><ele>313.5</ele><time>2026-03-28T11:19:11.002Z</time></trkpt><trkpt lat="45.604954969195376" lon="10.826478783019292"><ele>313.0</ele><time>2026-03-28T11:19:13.002Z</time></trkpt><trkpt lat="45.60504933205787" lon="10.826475536156533"><ele>312.5</ele><time>2026-03-28T11:19:15.002Z</time></trkpt><trkpt lat="45.605146827228545" lon="10.826396837911327"><ele>312.0</ele><time>2026-03-28T11:19:17.002Z</time></trkpt><trkpt lat="45.60519310480967" lon="10.826298456212553"><ele>312.0</ele><time>2026-03-28T11:19:18.002Z</time></trkpt><trkpt lat="45.60524974766787" lon="10.826201576480399"><ele>312.0</ele><time>2026-03-28T11:19:19.002Z</time></trkpt><trkpt lat="45.605309030130904" lon="10.826092359572181"><ele>312.0</ele><time>2026-03-28T11:19:20.002Z</time></trkpt><trkpt lat="45.6053880822883" lon="10.826038048841541"><ele>312.0</ele><time>2026-03-28T11:19:21.002Z</time></trkpt><trkpt lat="45.605478553308735" lon="10.82601703671928"><ele>312.0</ele><time>2026-03-28T11:19:22.002Z</time></trkpt><trkpt lat="45.60555820320552" lon="10.826015960920634"><ele>312.0</ele><time>2026-03-28T11:19:23.002Z</time></trkpt><trkpt lat="45.60563505097081" lon="10.82601759011785"><ele>314.25</ele><time>2026-03-28T11:19:24.002Z</time></trkpt><trkpt lat="45.60575815481345" lon="10.82607637412104"><ele>316.5</ele><time>2026-03-28T11:19:26.002Z</time></trkpt><trkpt lat="45.60585691690957" lon="10.826162633161676"><ele>318.75</ele><time>2026-03-28T11:19:27.002Z</time></trkpt><trkpt lat="45.60597477232276" lon="10.826251203770383"><ele>321.0</ele><time>2026-03-28T11:19:28.002Z</time></trkpt><trkpt lat="45.60612578322409" lon="10.826326147740609"><ele>322.3333333333333</ele><time>2026-03-28T11:19:29.002Z</time></trkpt><trkpt lat="45.606287625517396" lon="10.826406460104293"><ele>323.66666666666663</ele><time>2026-03-28T11:19:30.002Z</time></trkpt><trkpt lat="45.60646214924701" lon="10.826487409937187"><ele>325.0</ele><time>2026-03-28T11:19:31.002Z</time></trkpt><trkpt lat="45.6066438938514" lon="10.826585434484329"><ele>325.0</ele><time>2026-03-28T11:19:32.002Z</time></trkpt><trkpt lat="45.60681686455189" lon="10.826689764202754"><ele>325.0</ele><time>2026-03-28T11:19:33.002Z</time></trkpt><trkpt lat="45.60696658809425" lon="10.82677213171886"><ele>325.0</ele><time>2026-03-28T11:19:34.002Z</time></trkpt><trkpt lat="45.60709485068842" lon="10.826855209492294"><ele>328.0</ele><time>2026-03-28T11:19:35.002Z</time></trkpt><trkpt lat="45.60720377967088" lon="10.826929610949902"><ele>331.0</ele><time>2026-03-28T11:19:36.002Z</time></trkpt><trkpt lat="45.60731820779612" lon="10.826963812830206"><ele>334.0</ele><time>2026-03-28T11:19:37.002Z</time></trkpt><trkpt lat="45.607433215628845" lon="10.827005151711953"><ele>337.0</ele><time>2026-03-28T11:19:38.002Z</time></trkpt><trkpt lat="45.607564985312735" lon="10.827030643115476"><ele>337.0</ele><time>2026-03-28T11:19:39.002Z</time></trkpt><trkpt lat="45.6077025682421" lon="10.82705096305716"><ele>337.0</ele><time>2026-03-28T11:19:40.002Z</time></trkpt><trkpt lat="45.60781263605778" lon="10.827068466216168"><ele>337.0</ele><time>2026-03-28T11:19:41.002Z</time></trkpt><trkpt lat="45.60789369748552" lon="10.827100385151406"><ele>337.0</ele><time>2026-03-28T11:19:42.002Z</time></trkpt><trkpt lat="45.607983524011104" lon="10.827128381534504"><ele>337.0</ele><time>2026-03-28T11:19:43.002Z</time></trkpt><trkpt lat="45.60807295493295" lon="10.827161049089808"><ele>336.66666666666663</ele><time>2026-03-28T11:19:44.003Z</time></trkpt><trkpt lat="45.60813894587936" lon="10.827184169265875"><ele>336.3333333333333</ele><time>2026-03-28T11:19:45.003Z</time></trkpt><trkpt lat="45.60820835589118" lon="10.827198258923298"><ele>336.0</ele><time>2026-03-28T11:19:47.003Z</time></trkpt><trkpt lat="45.60830522968976" lon="10.827187833516103"><ele>335.6666666666667</ele><time>2026-03-28T11:19:49.003Z</time></trkpt><trkpt lat="45.60836672845753" lon="10.827110086246474"><ele>335.33333333333337</ele><time>2026-03-28T11:19:50.003Z</time></trkpt><trkpt lat="45.60842063566913" lon="10.826992269971395"><ele>335.0</ele><time>2026-03-28T11:19:51.003Z</time></trkpt><trkpt lat="45.608489549677834" lon="10.826853573028533"><ele>333.5</ele><time>2026-03-28T11:19:52.003Z</time></trkpt><trkpt lat="45.60853345818886" lon="10.82670272227612"><ele>332.0</ele><time>2026-03-28T11:19:53.003Z</time></trkpt><trkpt lat="45.608545809267945" lon="10.826517890873955"><ele>330.5</ele><time>2026-03-28T11:19:54.003Z</time></trkpt><trkpt lat="45.6085244821699" lon="10.826332508713529"><ele>329.0</ele><time>2026-03-28T11:19:55.003Z</time></trkpt><trkpt lat="45.60853214693501" lon="10.8261431318971"><ele>329.0</ele><time>2026-03-28T11:19:56.003Z</time></trkpt><trkpt lat="45.608526913570095" lon="10.82594904707224"><ele>329.0</ele><time>2026-03-28T11:19:57.003Z</time></trkpt><trkpt lat="45.60852706712699" lon="10.82576128480423"><ele>329.0</ele><time>2026-03-28T11:19:58.003Z</time></trkpt><trkpt lat="45.60854382609813" lon="10.825568766281298"><ele>329.0</ele><time>2026-03-28T11:19:59.003Z</time></trkpt><trkpt lat="45.608566075180406" lon="10.825365871473375"><ele>329.0</ele><time>2026-03-28T11:20:00.003Z</time></trkpt><trkpt lat="45.60857008102123" lon="10.82518138838431"><ele>329.0</ele><time>2026-03-28T11:20:01.003Z</time></trkpt><trkpt lat="45.60859062175494" lon="10.825017184850559"><ele>329.0</ele><time>2026-03-28T11:20:02.003Z</time></trkpt><trkpt lat="45.60860568338111" lon="10.824862269721729"><ele>329.0</ele><time>2026-03-28T11:20:03.003Z</time></trkpt><trkpt lat="45.60861008699505" lon="10.824714441975548"><ele>328.5</ele><time>2026-03-28T11:20:04.003Z</time></trkpt><trkpt lat="45.60859669187985" lon="10.824558817722451"><ele>328.0</ele><time>2026-03-28T11:20:05.003Z</time></trkpt><trkpt lat="45.60855970775795" lon="10.824400390452878"><ele>327.5</ele><time>2026-03-28T11:20:06.003Z</time></trkpt><trkpt lat="45.608490022047725" lon="10.82424944388245"><ele>327.0</ele><time>2026-03-28T11:20:07.003Z</time></trkpt><trkpt lat="45.6083999307601" lon="10.824097661919945"><ele>326.5</ele><time>2026-03-28T11:20:08.003Z</time></trkpt><trkpt lat="45.60832125987301" lon="10.823941625531425"><ele>326.0</ele><time>2026-03-28T11:20:09.003Z</time></trkpt><trkpt lat="45.60823938678374" lon="10.823785441140313"><ele>325.5</ele><time>2026-03-28T11:20:10.003Z</time></trkpt><trkpt lat="45.608171635348654" lon="10.8236082434278"><ele>325.0</ele><time>2026-03-28T11:20:11.003Z</time></trkpt><trkpt lat="45.60808543499909" lon="10.823439157234537"><ele>324.66666666666663</ele><time>2026-03-28T11:20:12Z</time></trkpt><trkpt lat="45.607983478303076" lon="10.823279392274271"><ele>324.3333333333333</ele><time>2026-03-28T11:20:13Z</time></trkpt><trkpt lat="45.60789826882063" lon="10.823087170227419"><ele>324.0</ele><time>2026-03-28T11:20:14Z</time></trkpt><trkpt lat="45.60779959521776" lon="10.822878413117158"><ele>324.0</ele><time>2026-03-28T11:20:15Z</time></trkpt><trkpt lat="45.607707256734024" lon="10.822654384861746"><ele>324.0</ele><time>2026-03-28T11:20:16Z</time></trkpt><trkpt lat="45.60761605604541" lon="10.822417832964112"><ele>324.0</ele><time>2026-03-28T11:20:17Z</time></trkpt><trkpt lat="45.60752971302392" lon="10.822193540774927"><ele>322.0</ele><time>2026-03-28T11:20:18Z</time></trkpt><trkpt lat="45.60747440272115" lon="10.821964682302331"><ele>320.0</ele><time>2026-03-28T11:20:19Z</time></trkpt><trkpt lat="45.60742064810028" lon="10.821762979751686"><ele>318.0</ele><time>2026-03-28T11:20:20Z</time></trkpt><trkpt lat="45.60737365267038" lon="10.82156260800662"><ele>315.0</ele><time>2026-03-28T11:20:21Z</time></trkpt><trkpt lat="45.60730927109955" lon="10.821348082603691"><ele>312.0</ele><time>2026-03-28T11:20:22Z</time></trkpt><trkpt lat="45.60726605041282" lon="10.821121486817672"><ele>309.0</ele><time>2026-03-28T11:20:23Z</time></trkpt><trkpt lat="45.60720527917456" lon="10.820921212746352"><ele>307.75</ele><time>2026-03-28T11:20:24Z</time></trkpt><trkpt lat="45.607151619746894" lon="10.820738528666492"><ele>306.5</ele><time>2026-03-28T11:20:25Z</time></trkpt><trkpt lat="45.60709364538322" lon="10.820551246750691"><ele>305.25</ele><time>2026-03-28T11:20:26Z</time></trkpt><trkpt lat="45.60706390430763" lon="10.820344168043977"><ele>304.0</ele><time>2026-03-28T11:20:27Z</time></trkpt><trkpt lat="45.60708765387845" lon="10.820137785400775"><ele>302.75</ele><time>2026-03-28T11:20:28Z</time></trkpt><trkpt lat="45.607148239961944" lon="10.819962370750602"><ele>301.5</ele><time>2026-03-28T11:20:29Z</time></trkpt><trkpt lat="45.60720741790564" lon="10.81978149959022"><ele>300.25</ele><time>2026-03-28T11:20:30Z</time></trkpt><trkpt lat="45.607265621830656" lon="10.819581474145403"><ele>299.0</ele><time>2026-03-28T11:20:31Z</time></trkpt><trkpt lat="45.60734980223497" lon="10.81940825652279"><ele>298.2</ele><time>2026-03-28T11:20:32Z</time></trkpt><trkpt lat="45.607378659233675" lon="10.819252822643692"><ele>297.4</ele><time>2026-03-28T11:20:33Z</time></trkpt><trkpt lat="45.60741022988232" lon="10.81915002968958"><ele>296.6</ele><time>2026-03-28T11:20:34Z</time></trkpt><trkpt lat="45.607456796312306" lon="10.819049454993275"><ele>295.8</ele><time>2026-03-28T11:20:35Z</time></trkpt><trkpt lat="45.607501914230006" lon="10.818902332242105"><ele>295.0</ele><time>2026-03-28T11:20:36Z</time></trkpt><trkpt lat="45.60754824608667" lon="10.818718716472114"><ele>295.0</ele><time>2026-03-28T11:20:37Z</time></trkpt><trkpt lat="45.60759689502853" lon="10.818521044298828"><ele>295.0</ele><time>2026-03-28T11:20:38Z</time></trkpt><trkpt lat="45.60764072941429" lon="10.818303860094884"><ele>295.0</ele><time>2026-03-28T11:20:39Z</time></trkpt><trkpt lat="45.60768381797449" lon="10.818081560334498"><ele>294.0</ele><time>2026-03-28T11:20:40Z</time></trkpt><trkpt lat="45.60772944455579" lon="10.817851637646097"><ele>293.0</ele><time>2026-03-28T11:20:41Z</time></trkpt><trkpt lat="45.60776727409769" lon="10.817631643649849"><ele>292.0</ele><time>2026-03-28T11:20:42Z</time></trkpt><trkpt lat="45.607807070127585" lon="10.81742689936407"><ele>290.25</ele><time>2026-03-28T11:20:43Z</time></trkpt><trkpt lat="45.60784888718269" lon="10.817243389595868"><ele>288.5</ele><time>2026-03-28T11:20:44Z</time></trkpt><trkpt lat="45.607894319076" lon="10.81707504503452"><ele>286.75</ele><time>2026-03-28T11:20:45.001Z</time></trkpt><trkpt lat="45.607948758134214" lon="10.81692653555191"><ele>285.0</ele><time>2026-03-28T11:20:46.001Z</time></trkpt><trkpt lat="45.60799590062341" lon="10.816808337274857"><ele>284.5</ele><time>2026-03-28T11:20:47.001Z</time></trkpt><trkpt lat="45.608030275953425" lon="10.816730860250857"><ele>284.0</ele><time>2026-03-28T11:20:48.001Z</time></trkpt><trkpt lat="45.60808013761371" lon="10.81664850380431"><ele>283.5</ele><time>2026-03-28T11:21:07.001Z</time></trkpt><trkpt lat="45.60814180017032" lon="10.81656968963464"><ele>283.0</ele><time>2026-03-28T11:21:09.001Z</time></trkpt><trkpt lat="45.6081811299276" lon="10.816485986146322"><ele>282.5</ele><time>2026-03-28T11:21:10.001Z</time></trkpt><trkpt lat="45.60823709995068" lon="10.816346151964064"><ele>282.0</ele><time>2026-03-28T11:21:12.001Z</time></trkpt><trkpt lat="45.60826892462217" lon="10.816261181763412"><ele>282.0</ele><time>2026-03-28T11:21:13.001Z</time></trkpt><trkpt lat="45.60830742444603" lon="10.816160558429084"><ele>282.0</ele><time>2026-03-28T11:21:14.001Z</time></trkpt><trkpt lat="45.608353688204446" lon="10.81603702991048"><ele>282.0</ele><time>2026-03-28T11:21:15.001Z</time></trkpt><trkpt lat="45.60840149298081" lon="10.815908861547204"><ele>282.0</ele><time>2026-03-28T11:21:16.002Z</time></trkpt><trkpt lat="45.60845497531748" lon="10.815779397224087"><ele>282.0</ele><time>2026-03-28T11:21:17.002Z</time></trkpt><trkpt lat="45.608518537233046" lon="10.815645881394984"><ele>282.0</ele><time>2026-03-28T11:21:18.002Z</time></trkpt><trkpt lat="45.60861553180327" lon="10.815545978482653"><ele>282.0</ele><time>2026-03-28T11:21:19.002Z</time></trkpt><trkpt lat="45.60870813692869" lon="10.815428102064756"><ele>282.0</ele><time>2026-03-28T11:21:20.002Z</time></trkpt><trkpt lat="45.60877098020206" lon="10.815278734629446"><ele>282.0</ele><time>2026-03-28T11:21:21.002Z</time></trkpt><trkpt lat="45.60881571493985" lon="10.81511173521465"><ele>282.0</ele><time>2026-03-28T11:21:22.002Z</time></trkpt><trkpt lat="45.60883368111314" lon="10.814918904530078"><ele>282.0</ele><time>2026-03-28T11:21:23.002Z</time></trkpt><trkpt lat="45.60886039842322" lon="10.81471604459283"><ele>282.0</ele><time>2026-03-28T11:21:24.002Z</time></trkpt><trkpt lat="45.60888208157077" lon="10.81450193369684"><ele>282.0</ele><time>2026-03-28T11:21:25.002Z</time></trkpt><trkpt lat="45.60890748000493" lon="10.814271181664935"><ele>281.6666666666667</ele><time>2026-03-28T11:21:26.002Z</time></trkpt><trkpt lat="45.60893035642442" lon="10.814032331615614"><ele>281.33333333333337</ele><time>2026-03-28T11:21:27.002Z</time></trkpt><trkpt lat="45.60897480421963" lon="10.813789654294327"><ele>281.0</ele><time>2026-03-28T11:21:28.002Z</time></trkpt><trkpt lat="45.609020120960345" lon="10.813542782399239"><ele>280.6666666666667</ele><time>2026-03-28T11:21:29.002Z</time></trkpt><trkpt lat="45.609066043963736" lon="10.813295106189969"><ele>280.3333333333333</ele><time>2026-03-28T11:21:30.002Z</time></trkpt><trkpt lat="45.609110501294246" lon="10.813057420221522"><ele>280.0</ele><time>2026-03-28T11:21:31.002Z</time></trkpt><trkpt lat="45.609164259290594" lon="10.812839409587513"><ele>281.25</ele><time>2026-03-28T11:21:32.002Z</time></trkpt><trkpt lat="45.6091881416905" lon="10.812620058054318"><ele>282.5</ele><time>2026-03-28T11:21:33.002Z</time></trkpt><trkpt lat="45.609194757710306" lon="10.812410095044003"><ele>283.75</ele><time>2026-03-28T11:21:34.002Z</time></trkpt><trkpt lat="45.60920196015201" lon="10.812227919568825"><ele>285.0</ele><time>2026-03-28T11:21:35.002Z</time></trkpt><trkpt lat="45.60921846509721" lon="10.812065301039407"><ele>285.0</ele><time>2026-03-28T11:21:36.002Z</time></trkpt><trkpt lat="45.60926380210318" lon="10.811921935547966"><ele>285.0</ele><time>2026-03-28T11:21:37.002Z</time></trkpt><trkpt lat="45.60932743770095" lon="10.811800461343797"><ele>285.0</ele><time>2026-03-28T11:21:38.002Z</time></trkpt><trkpt lat="45.60941278226227" lon="10.811720774710528"><ele>285.0</ele><time>2026-03-28T11:21:39.002Z</time></trkpt><trkpt lat="45.60951918941538" lon="10.811646684987453"><ele>285.0</ele><time>2026-03-28T11:21:40.002Z</time></trkpt><trkpt lat="45.60962168203615" lon="10.811542909253639"><ele>285.6</ele><time>2026-03-28T11:21:41.002Z</time></trkpt><trkpt lat="45.609727871920676" lon="10.81145183583777"><ele>286.2</ele><time>2026-03-28T11:21:42.002Z</time></trkpt><trkpt lat="45.60979780594524" lon="10.8113656598164"><ele>286.8</ele><time>2026-03-28T11:21:43.002Z</time></trkpt><trkpt lat="45.60985867517858" lon="10.811274117221753"><ele>287.4</ele><time>2026-03-28T11:21:44.002Z</time></trkpt><trkpt lat="45.609897285886596" lon="10.81119009007327"><ele>288.0</ele><time>2026-03-28T11:21:45.002Z</time></trkpt><trkpt lat="45.60996955190508" lon="10.811068928200672"><ele>288.0</ele><time>2026-03-28T11:21:47.002Z</time></trkpt><trkpt lat="45.61011424910149" lon="10.811221178354662"><ele>288.0</ele><time>2026-03-28T11:21:48.002Z</time></trkpt><trkpt lat="45.610240527425994" lon="10.811243016666333"><ele>288.0</ele><time>2026-03-28T11:21:49.002Z</time></trkpt><trkpt lat="45.61036467725344" lon="10.811304228856006"><ele>288.0</ele><time>2026-03-28T11:21:50.003Z</time></trkpt><trkpt lat="45.61050197216518" lon="10.81134977630549"><ele>289.0</ele><time>2026-03-28T11:21:51.003Z</time></trkpt><trkpt lat="45.61064729814841" lon="10.81137549338531"><ele>290.0</ele><time>2026-03-28T11:21:52.003Z</time></trkpt><trkpt lat="45.610795940078745" lon="10.81140029459762"><ele>291.0</ele><time>2026-03-28T11:21:53.003Z</time></trkpt><trkpt lat="45.61094201197936" lon="10.811427528825165"><ele>292.0</ele><time>2026-03-28T11:21:54.003Z</time></trkpt><trkpt lat="45.61107123530992" lon="10.81145589753352"><ele>294.6</ele><time>2026-03-28T11:21:55.003Z</time></trkpt><trkpt lat="45.611185922745584" lon="10.811487145261252"><ele>297.2</ele><time>2026-03-28T11:21:56.003Z</time></trkpt><trkpt lat="45.61127340559949" lon="10.811510899237035"><ele>299.8</ele><time>2026-03-28T11:21:57.003Z</time></trkpt><trkpt lat="45.611340926640324" lon="10.811518011036819"><ele>302.4</ele><time>2026-03-28T11:21:58.003Z</time></trkpt><trkpt lat="45.611433852044705" lon="10.811345713535822"><ele>305.0</ele><time>2026-03-28T11:22:01.003Z</time></trkpt><trkpt lat="45.611359329704975" lon="10.811174271813304"><ele>305.0</ele><time>2026-03-28T11:22:02.003Z</time></trkpt><trkpt lat="45.61131289465765" lon="10.811035057315074"><ele>305.0</ele><time>2026-03-28T11:22:03.003Z</time></trkpt><trkpt lat="45.61128656972032" lon="10.810883188209756"><ele>305.0</ele><time>2026-03-28T11:22:04.003Z</time></trkpt><trkpt lat="45.61126166039284" lon="10.810712821454606"><ele>305.0</ele><time>2026-03-28T11:22:05.003Z</time></trkpt><trkpt lat="45.61123916278919" lon="10.810550387413887"><ele>307.4</ele><time>2026-03-28T11:22:06.003Z</time></trkpt><trkpt lat="45.6112266749864" lon="10.810398284291514"><ele>309.8</ele><time>2026-03-28T11:22:07.003Z</time></trkpt><trkpt lat="45.611234221811635" lon="10.81025481037662"><ele>312.2</ele><time>2026-03-28T11:22:08.003Z</time></trkpt><trkpt lat="45.611250171064476" lon="10.810118145790856"><ele>314.6</ele><time>2026-03-28T11:22:09.003Z</time></trkpt><trkpt lat="45.61126531971319" lon="10.809956440711604"><ele>317.0</ele><time>2026-03-28T11:22:10.003Z</time></trkpt><trkpt lat="45.61128305325388" lon="10.809791034555325"><ele>319.0</ele><time>2026-03-28T11:22:11.003Z</time></trkpt><trkpt lat="45.61130568291151" lon="10.809624738540617"><ele>321.0</ele><time>2026-03-28T11:22:12.003Z</time></trkpt><trkpt lat="45.611318933403695" lon="10.809456745534435"><ele>323.0</ele><time>2026-03-28T11:22:13.003Z</time></trkpt><trkpt lat="45.61137926205965" lon="10.809303278323908"><ele>325.0</ele><time>2026-03-28T11:22:14.003Z</time></trkpt><trkpt lat="45.611425497480084" lon="10.809139882783565"><ele>325.0</ele><time>2026-03-28T11:22:15.003Z</time></trkpt><trkpt lat="45.61147222050694" lon="10.808983194789647"><ele>325.0</ele><time>2026-03-28T11:22:16.003Z</time></trkpt><trkpt lat="45.611494730774716" lon="10.808836915986435"><ele>325.0</ele><time>2026-03-28T11:22:17.003Z</time></trkpt><trkpt lat="45.61152424214246" lon="10.808723397519705"><ele>325.0</ele><time>2026-03-28T11:22:17.999Z</time></trkpt><trkpt lat="45.61154440380409" lon="10.808616224173067"><ele>325.0</ele><time>2026-03-28T11:22:18.999Z</time></trkpt><trkpt lat="45.61157511070186" lon="10.808499285804212"><ele>323.8333333333333</ele><time>2026-03-28T11:22:19.999Z</time></trkpt><trkpt lat="45.61159318761879" lon="10.808354631020972"><ele>322.66666666666663</ele><time>2026-03-28T11:22:20.999Z</time></trkpt><trkpt lat="45.611606815998215" lon="10.808208499524346"><ele>321.5</ele><time>2026-03-28T11:22:21.999Z</time></trkpt><trkpt lat="45.61162750103941" lon="10.808088394154863"><ele>320.3333333333333</ele><time>2026-03-28T11:22:22.999Z</time></trkpt><trkpt lat="45.61166455296191" lon="10.807996825989365"><ele>319.1666666666667</ele><time>2026-03-28T11:22:23.999Z</time></trkpt><trkpt lat="45.611731239522776" lon="10.807964380067858"><ele>318.0</ele><time>2026-03-28T11:22:24.999Z</time></trkpt><trkpt lat="45.61179805147614" lon="10.807905006019164"><ele>318.0</ele><time>2026-03-28T11:22:27Z</time></trkpt><trkpt lat="45.61186630408959" lon="10.807896629430847"><ele>318.0</ele><time>2026-03-28T11:22:29Z</time></trkpt><trkpt lat="45.6118808353061" lon="10.807729318786254"><ele>318.0</ele><time>2026-03-28T11:22:32Z</time></trkpt><trkpt lat="45.611931250173484" lon="10.807619571719794"><ele>318.0</ele><time>2026-03-28T11:22:34Z</time></trkpt><trkpt lat="45.61209794998675" lon="10.807613557734163"><ele>318.0</ele><time>2026-03-28T11:22:36Z</time></trkpt><trkpt lat="45.61219880344845" lon="10.807590807151419"><ele>318.25</ele><time>2026-03-28T11:22:37Z</time></trkpt><trkpt lat="45.61231555295127" lon="10.807566065324153"><ele>318.5</ele><time>2026-03-28T11:22:38Z</time></trkpt><trkpt lat="45.61244378036839" lon="10.807537341926142"><ele>318.75</ele><time>2026-03-28T11:22:39Z</time></trkpt><trkpt lat="45.612569301324996" lon="10.807527417614363"><ele>319.0</ele><time>2026-03-28T11:22:40Z</time></trkpt><trkpt lat="45.61270051123395" lon="10.807518073708069"><ele>321.0</ele><time>2026-03-28T11:22:41Z</time></trkpt><trkpt lat="45.612828033274525" lon="10.807509774089272"><ele>323.0</ele><time>2026-03-28T11:22:42Z</time></trkpt><trkpt lat="45.61295678988051" lon="10.807486088439937"><ele>325.0</ele><time>2026-03-28T11:22:43Z</time></trkpt><trkpt lat="45.61308467739153" lon="10.80745880877657"><ele>327.0</ele><time>2026-03-28T11:22:44Z</time></trkpt><trkpt lat="45.61321672380031" lon="10.807432135186282"><ele>327.0</ele><time>2026-03-28T11:22:45Z</time></trkpt><trkpt lat="45.6133489693151" lon="10.80741955207495"><ele>327.0</ele><time>2026-03-28T11:22:46Z</time></trkpt><trkpt lat="45.61348592522143" lon="10.807441361787921"><ele>327.0</ele><time>2026-03-28T11:22:47Z</time></trkpt><trkpt lat="45.61360821387616" lon="10.807476038581099"><ele>327.0</ele><time>2026-03-28T11:22:48Z</time></trkpt><trkpt lat="45.61371162507165" lon="10.807531333510381"><ele>327.5</ele><time>2026-03-28T11:22:49Z</time></trkpt><trkpt lat="45.61380966677647" lon="10.807608798484257"><ele>328.0</ele><time>2026-03-28T11:22:50Z</time></trkpt><trkpt lat="45.61389048999156" lon="10.807677180275835"><ele>328.5</ele><time>2026-03-28T11:22:51Z</time></trkpt><trkpt lat="45.61396784461745" lon="10.807707977023433"><ele>329.0</ele><time>2026-03-28T11:22:52.001Z</time></trkpt><trkpt lat="45.614036245707815" lon="10.807698906301672"><ele>329.5</ele><time>2026-03-28T11:22:53.001Z</time></trkpt><trkpt lat="45.614097044320964" lon="10.807628231757443"><ele>330.0</ele><time>2026-03-28T11:22:54.001Z</time></trkpt><trkpt lat="45.61417761604264" lon="10.807536254552305"><ele>330.0</ele><time>2026-03-28T11:22:55.001Z</time></trkpt><trkpt lat="45.61426997995798" lon="10.807410713995104"><ele>330.0</ele><time>2026-03-28T11:22:56.001Z</time></trkpt><trkpt lat="45.614360206485166" lon="10.807323230509299"><ele>330.0</ele><time>2026-03-28T11:22:57.001Z</time></trkpt><trkpt lat="45.61444610286841" lon="10.80727775482445"><ele>330.0</ele><time>2026-03-28T11:22:58.001Z</time></trkpt><trkpt lat="45.61454860437591" lon="10.807325050287165"><ele>330.0</ele><time>2026-03-28T11:22:59.001Z</time></trkpt><trkpt lat="45.61466002291375" lon="10.807382698279993"><ele>333.0</ele><time>2026-03-28T11:23:00.001Z</time></trkpt><trkpt lat="45.614786886946966" lon="10.807447048347473"><ele>336.0</ele><time>2026-03-28T11:23:01.001Z</time></trkpt><trkpt lat="45.614917417878736" lon="10.8075006911515"><ele>339.0</ele><time>2026-03-28T11:23:02.001Z</time></trkpt><trkpt lat="45.61505163163375" lon="10.807564878675564"><ele>342.0</ele><time>2026-03-28T11:23:03.001Z</time></trkpt><trkpt lat="45.61517187175138" lon="10.807654074087967"><ele>343.0</ele><time>2026-03-28T11:23:04.001Z</time></trkpt><trkpt lat="45.615290135598556" lon="10.807763243960613"><ele>344.0</ele><time>2026-03-28T11:23:05.001Z</time></trkpt><trkpt lat="45.61540984426006" lon="10.807865786319976"><ele>345.0</ele><time>2026-03-28T11:23:06.001Z</time></trkpt><trkpt lat="45.61553286020077" lon="10.807949715884103"><ele>346.0</ele><time>2026-03-28T11:23:07.001Z</time></trkpt><trkpt lat="45.61566639295091" lon="10.80800045561833"><ele>347.5</ele><time>2026-03-28T11:23:08.001Z</time></trkpt><trkpt lat="45.61580250601007" lon="10.808025295197396"><ele>349.0</ele><time>2026-03-28T11:23:09.001Z</time></trkpt><trkpt lat="45.61594315260573" lon="10.808041891350681"><ele>350.5</ele><time>2026-03-28T11:23:10.001Z</time></trkpt><trkpt lat="45.616089173493435" lon="10.808068465016628"><ele>352.0</ele><time>2026-03-28T11:23:11.001Z</time></trkpt><trkpt lat="45.61622016978816" lon="10.808140476668958"><ele>355.66666666666663</ele><time>2026-03-28T11:23:12.001Z</time></trkpt><trkpt lat="45.61635611269299" lon="10.808244786422183"><ele>359.3333333333333</ele><time>2026-03-28T11:23:13.001Z</time></trkpt><trkpt lat="45.616501596078685" lon="10.808381484796273"><ele>363.0</ele><time>2026-03-28T11:23:14.001Z</time></trkpt><trkpt lat="45.61664823307519" lon="10.808528718068718"><ele>365.3333333333333</ele><time>2026-03-28T11:23:15.001Z</time></trkpt><trkpt lat="45.61678802707891" lon="10.808690764671535"><ele>367.66666666666663</ele><time>2026-03-28T11:23:16.001Z</time></trkpt><trkpt lat="45.61689559253965" lon="10.808838722160415"><ele>370.0</ele><time>2026-03-28T11:23:17.001Z</time></trkpt><trkpt lat="45.616993776315944" lon="10.80896083924414"><ele>370.75</ele><time>2026-03-28T11:23:18.001Z</time></trkpt><trkpt lat="45.61709410617144" lon="10.809053993497779"><ele>371.5</ele><time>2026-03-28T11:23:19.001Z</time></trkpt><trkpt lat="45.61719919732519" lon="10.809111215944862"><ele>372.25</ele><time>2026-03-28T11:23:20.001Z</time></trkpt><trkpt lat="45.61733034250261" lon="10.80915695275134"><ele>373.0</ele><time>2026-03-28T11:23:21.002Z</time></trkpt><trkpt lat="45.617459678495486" lon="10.809224431588179"><ele>373.0</ele><time>2026-03-28T11:23:22.002Z</time></trkpt><trkpt lat="45.61757286116479" lon="10.809325547184718"><ele>373.0</ele><time>2026-03-28T11:23:23.002Z</time></trkpt><trkpt lat="45.61767129210643" lon="10.809431272136825"><ele>373.0</ele><time>2026-03-28T11:23:24.002Z</time></trkpt><trkpt lat="45.61778355055471" lon="10.80954132261094"><ele>373.0</ele><time>2026-03-28T11:23:25.002Z</time></trkpt><trkpt lat="45.61790678981959" lon="10.809645778560514"><ele>375.25</ele><time>2026-03-28T11:23:26.002Z</time></trkpt><trkpt lat="45.61802850372861" lon="10.809753279946262"><ele>377.5</ele><time>2026-03-28T11:23:27.002Z</time></trkpt><trkpt lat="45.61812967969466" lon="10.809865000578954"><ele>379.75</ele><time>2026-03-28T11:23:28.002Z</time></trkpt><trkpt lat="45.61819408747196" lon="10.810030282437646"><ele>382.0</ele><time>2026-03-28T11:23:29.002Z</time></trkpt><trkpt lat="45.61828241294286" lon="10.810233826688043"><ele>382.0</ele><time>2026-03-28T11:23:30.002Z</time></trkpt><trkpt lat="45.61835051257839" lon="10.810359567990027"><ele>382.0</ele><time>2026-03-28T11:23:31.002Z</time></trkpt><trkpt lat="45.61842645690173" lon="10.810474489032972"><ele>382.0</ele><time>2026-03-28T11:23:32.002Z</time></trkpt><trkpt lat="45.618539801094364" lon="10.810567578682122"><ele>382.0</ele><time>2026-03-28T11:23:33.002Z</time></trkpt><trkpt lat="45.61867122690716" lon="10.810656122139552"><ele>386.3333333333333</ele><time>2026-03-28T11:23:34.002Z</time></trkpt><trkpt lat="45.61879944205342" lon="10.810758407270685"><ele>390.66666666666663</ele><time>2026-03-28T11:23:35.002Z</time></trkpt><trkpt lat="45.618928290037566" lon="10.81087416658547"><ele>395.0</ele><time>2026-03-28T11:23:36.002Z</time></trkpt><trkpt lat="45.61905633399145" lon="10.811006855862615"><ele>395.0</ele><time>2026-03-28T11:23:37.002Z</time></trkpt><trkpt lat="45.6191737812281" lon="10.811150617020163"><ele>395.0</ele><time>2026-03-28T11:23:38.002Z</time></trkpt><trkpt lat="45.61928640762877" lon="10.811289708417634"><ele>395.0</ele><time>2026-03-28T11:23:39.002Z</time></trkpt><trkpt lat="45.61937896404783" lon="10.81140913367254"><ele>395.0</ele><time>2026-03-28T11:23:40.002Z</time></trkpt><trkpt lat="45.619451224748865" lon="10.811549946173043"><ele>398.75</ele><time>2026-03-28T11:23:41.002Z</time></trkpt><trkpt lat="45.61951336288604" lon="10.811719370791868"><ele>402.5</ele><time>2026-03-28T11:23:42.002Z</time></trkpt><trkpt lat="45.619580370517795" lon="10.811897162045588"><ele>406.25</ele><time>2026-03-28T11:23:43.002Z</time></trkpt><trkpt lat="45.61966487684844" lon="10.812055196827297"><ele>410.0</ele><time>2026-03-28T11:23:44.002Z</time></trkpt><trkpt lat="45.61976510531138" lon="10.812212892138703"><ele>410.66666666666663</ele><time>2026-03-28T11:23:45.002Z</time></trkpt><trkpt lat="45.61986919562769" lon="10.812371355118724"><ele>411.33333333333337</ele><time>2026-03-28T11:23:46.002Z</time></trkpt><trkpt lat="45.61997750683343" lon="10.812520679682319"><ele>412.0</ele><time>2026-03-28T11:23:47.002Z</time></trkpt><trkpt lat="45.62008584960569" lon="10.812686991107691"><ele>415.33333333333337</ele><time>2026-03-28T11:23:48.002Z</time></trkpt><trkpt lat="45.62017896423211" lon="10.812863579643848"><ele>418.66666666666663</ele><time>2026-03-28T11:23:49.002Z</time></trkpt><trkpt lat="45.62026653315756" lon="10.813058730884554"><ele>422.0</ele><time>2026-03-28T11:23:50.002Z</time></trkpt><trkpt lat="45.620347986087786" lon="10.81324536853536"><ele>422.75</ele><time>2026-03-28T11:23:51.002Z</time></trkpt><trkpt lat="45.62042964213165" lon="10.813422345961174"><ele>423.5</ele><time>2026-03-28T11:23:52.002Z</time></trkpt><trkpt lat="45.620517180105914" lon="10.813559140130556"><ele>424.25</ele><time>2026-03-28T11:23:53.002Z</time></trkpt><trkpt lat="45.62061836689505" lon="10.813658411290191"><ele>425.0</ele><time>2026-03-28T11:23:54.003Z</time></trkpt><trkpt lat="45.62073924267063" lon="10.813729060471479"><ele>425.75</ele><time>2026-03-28T11:23:55.003Z</time></trkpt><trkpt lat="45.620873483559265" lon="10.813783113136692"><ele>426.5</ele><time>2026-03-28T11:23:56.003Z</time></trkpt><trkpt lat="45.62101999290652" lon="10.813811591859375"><ele>427.25</ele><time>2026-03-28T11:23:57.003Z</time></trkpt><trkpt lat="45.621157634974445" lon="10.813855888107689"><ele>428.0</ele><time>2026-03-28T11:23:58.003Z</time></trkpt><trkpt lat="45.6212844916274" lon="10.813928236029986"><ele>429.59999999999997</ele><time>2026-03-28T11:23:59.003Z</time></trkpt><trkpt lat="45.62138696605818" lon="10.814008151983261"><ele>431.19999999999993</ele><time>2026-03-28T11:24:00.003Z</time></trkpt><trkpt lat="45.621435732899435" lon="10.814096419723295"><ele>432.8</ele><time>2026-03-28T11:24:01.003Z</time></trkpt><trkpt lat="45.621444385558604" lon="10.814186608626807"><ele>434.4</ele><time>2026-03-28T11:24:02.003Z</time></trkpt><trkpt lat="45.621421125631265" lon="10.814314935322626"><ele>436.0</ele><time>2026-03-28T11:24:03.003Z</time></trkpt><trkpt lat="45.62139726523133" lon="10.81447639703585"><ele>436.0</ele><time>2026-03-28T11:24:04.003Z</time></trkpt><trkpt lat="45.62139075674725" lon="10.814652029325497"><ele>436.0</ele><time>2026-03-28T11:24:05.003Z</time></trkpt><trkpt lat="45.6214016564905" lon="10.814839748404653"><ele>436.0</ele><time>2026-03-28T11:24:06.003Z</time></trkpt><trkpt lat="45.62142975391026" lon="10.815033361573708"><ele>436.0</ele><time>2026-03-28T11:24:07.003Z</time></trkpt><trkpt lat="45.62147585871709" lon="10.815217666205454"><ele>437.25</ele><time>2026-03-28T11:24:08.003Z</time></trkpt><trkpt lat="45.621514304374664" lon="10.815399473211864"><ele>438.5</ele><time>2026-03-28T11:24:09.003Z</time></trkpt><trkpt lat="45.62154937840257" lon="10.815582088311539"><ele>439.75</ele><time>2026-03-28T11:24:10.003Z</time></trkpt><trkpt lat="45.621597971465945" lon="10.815756826530357"><ele>441.0</ele><time>2026-03-28T11:24:11.003Z</time></trkpt><trkpt lat="45.62164824938504" lon="10.815918010050087"><ele>442.4</ele><time>2026-03-28T11:24:12.003Z</time></trkpt><trkpt lat="45.621698286020255" lon="10.81605720868033"><ele>443.8</ele><time>2026-03-28T11:24:13.003Z</time></trkpt><trkpt lat="45.62174601493838" lon="10.816201586862768"><ele>445.19999999999993</ele><time>2026-03-28T11:24:14.003Z</time></trkpt><trkpt lat="45.621807629745156" lon="10.816332632182691"><ele>446.59999999999997</ele><time>2026-03-28T11:24:15.003Z</time></trkpt><trkpt lat="45.62186280402424" lon="10.8164631049253"><ele>448.0</ele><time>2026-03-28T11:24:16.003Z</time></trkpt><trkpt lat="45.62193854559015" lon="10.816574976236275"><ele>447.79999999999995</ele><time>2026-03-28T11:24:17.003Z</time></trkpt><trkpt lat="45.62201147637898" lon="10.816682080781755"><ele>447.59999999999997</ele><time>2026-03-28T11:24:18.003Z</time></trkpt><trkpt lat="45.62210367277422" lon="10.816770861266118"><ele>447.40000000000003</ele><time>2026-03-28T11:24:19.003Z</time></trkpt><trkpt lat="45.62218495126045" lon="10.816830314755572"><ele>447.20000000000005</ele><time>2026-03-28T11:24:20.003Z</time></trkpt><trkpt lat="45.622263137917805" lon="10.816883472487463"><ele>447.0</ele><time>2026-03-28T11:24:21.003Z</time></trkpt><trkpt lat="45.622320559615765" lon="10.816928747349024"><ele>447.0</ele><time>2026-03-28T11:24:22.003Z</time></trkpt><trkpt lat="45.62238208343644" lon="10.81702022876047"><ele>447.0</ele><time>2026-03-28T11:24:23.999Z</time></trkpt><trkpt lat="45.62247774035563" lon="10.816825000736381"><ele>447.0</ele><time>2026-03-28T11:24:26.999Z</time></trkpt><trkpt lat="45.62250318438521" lon="10.816674251703422"><ele>447.0</ele><time>2026-03-28T11:24:27.999Z</time></trkpt><trkpt lat="45.62250728462536" lon="10.816517137174579"><ele>448.0</ele><time>2026-03-28T11:24:28.999Z</time></trkpt><trkpt lat="45.62252739972185" lon="10.816356175870022"><ele>449.0</ele><time>2026-03-28T11:24:29.999Z</time></trkpt><trkpt lat="45.62253123836619" lon="10.816197638531689"><ele>450.0</ele><time>2026-03-28T11:24:30.999Z</time></trkpt><trkpt lat="45.62251675354928" lon="10.816029902465926"><ele>451.0</ele><time>2026-03-28T11:24:31.999Z</time></trkpt><trkpt lat="45.62249738861328" lon="10.815853541073297"><ele>451.00000000000006</ele><time>2026-03-28T11:24:32.999Z</time></trkpt><trkpt lat="45.62247190565189" lon="10.815711870068078"><ele>451.0</ele><time>2026-03-28T11:24:33.999Z</time></trkpt><trkpt lat="45.622432529009416" lon="10.81558790398471"><ele>451.0</ele><time>2026-03-28T11:24:34.999Z</time></trkpt><trkpt lat="45.62240220213793" lon="10.815487617339162"><ele>451.0</ele><time>2026-03-28T11:24:35.999Z</time></trkpt><trkpt lat="45.622376530700066" lon="10.815378652725983"><ele>451.00000000000006</ele><time>2026-03-28T11:24:36.999Z</time></trkpt><trkpt lat="45.622365941505066" lon="10.815274313044194"><ele>451.0</ele><time>2026-03-28T11:24:37.999Z</time></trkpt><trkpt lat="45.62236138115066" lon="10.815175526341303"><ele>451.50000000000006</ele><time>2026-03-28T11:24:38.999Z</time></trkpt><trkpt lat="45.622380300337966" lon="10.815072678930852"><ele>452.0</ele><time>2026-03-28T11:24:40Z</time></trkpt><trkpt lat="45.62238308681966" lon="10.8149567604176"><ele>452.5</ele><time>2026-03-28T11:24:41Z</time></trkpt><trkpt lat="45.622353888062925" lon="10.814850644326576"><ele>453.0</ele><time>2026-03-28T11:24:42Z</time></trkpt><trkpt lat="45.622360727407596" lon="10.814700422295214"><ele>453.50000000000006</ele><time>2026-03-28T11:24:43Z</time></trkpt><trkpt lat="45.62237019828493" lon="10.814557007296173"><ele>454.0</ele><time>2026-03-28T11:24:44Z</time></trkpt><trkpt lat="45.622373554559275" lon="10.814434199557061"><ele>454.2</ele><time>2026-03-28T11:24:45Z</time></trkpt><trkpt lat="45.62236296173147" lon="10.814275499844108"><ele>454.4</ele><time>2026-03-28T11:24:47Z</time></trkpt><trkpt lat="45.62237864824792" lon="10.814186269582033"><ele>454.6</ele><time>2026-03-28T11:24:48Z</time></trkpt><trkpt lat="45.62240311729979" lon="10.81408658221472"><ele>454.8</ele><time>2026-03-28T11:24:49Z</time></trkpt><trkpt lat="45.62254673412299" lon="10.814001027645157"><ele>455.0</ele><time>2026-03-28T11:24:50Z</time></trkpt><trkpt lat="45.62255155801132" lon="10.813911255804506"><ele>455.0</ele><time>2026-03-28T11:24:51Z</time></trkpt><trkpt lat="45.6225572126578" lon="10.813806023338028"><ele>455.0</ele><time>2026-03-28T11:24:53Z</time></trkpt><trkpt lat="45.622523668102964" lon="10.813702871048074"><ele>455.0</ele><time>2026-03-28T11:24:54Z</time></trkpt><trkpt lat="45.62237008197128" lon="10.813587520935984"><ele>455.0</ele><time>2026-03-28T11:24:56Z</time></trkpt><trkpt lat="45.62227770937586" lon="10.81355893129177"><ele>455.0</ele><time>2026-03-28T11:24:57Z</time></trkpt><trkpt lat="45.622251029018656" lon="10.813475153471126"><ele>455.99999999999994</ele><time>2026-03-28T11:24:58Z</time></trkpt><trkpt lat="45.622253667651535" lon="10.813363445129362"><ele>457.0</ele><time>2026-03-28T11:24:59Z</time></trkpt><trkpt lat="45.62226668817395" lon="10.81326494724063"><ele>458.0</ele><time>2026-03-28T11:25:00Z</time></trkpt><trkpt lat="45.622236273316155" lon="10.813135584183426"><ele>459.0</ele><time>2026-03-28T11:25:14.001Z</time></trkpt><trkpt lat="45.62219033599845" lon="10.813037772167725"><ele>459.99999999999994</ele><time>2026-03-28T11:25:16.001Z</time></trkpt><trkpt lat="45.62215615146681" lon="10.812960846149977"><ele>461.0</ele><time>2026-03-28T11:25:17.001Z</time></trkpt><trkpt lat="45.622108806654644" lon="10.812794200736331"><ele>461.0</ele><time>2026-03-28T11:25:19.001Z</time></trkpt><trkpt lat="45.62206957653331" lon="10.81270848505447"><ele>461.0</ele><time>2026-03-28T11:25:20.001Z</time></trkpt><trkpt lat="45.62198871960755" lon="10.812522219593298"><ele>461.0</ele><time>2026-03-28T11:25:22.001Z</time></trkpt><trkpt lat="45.62193930016092" lon="10.812392209659949"><ele>461.0</ele><time>2026-03-28T11:25:23.001Z</time></trkpt><trkpt lat="45.62190915443955" lon="10.812261473331983"><ele>461.0</ele><time>2026-03-28T11:25:24.001Z</time></trkpt><trkpt lat="45.62187204913236" lon="10.81214375152146"><ele>459.8333333333333</ele><time>2026-03-28T11:25:25.001Z</time></trkpt><trkpt lat="45.62183335880186" lon="10.812017132487531"><ele>458.66666666666663</ele><time>2026-03-28T11:25:26.001Z</time></trkpt><trkpt lat="45.62179610767705" lon="10.811902974909898"><ele>457.5</ele><time>2026-03-28T11:25:27.001Z</time></trkpt><trkpt lat="45.62176474862056" lon="10.811806873175973"><ele>456.33333333333337</ele><time>2026-03-28T11:25:28.001Z</time></trkpt><trkpt lat="45.62173001870937" lon="10.811701533318956"><ele>455.1666666666667</ele><time>2026-03-28T11:25:29.001Z</time></trkpt><trkpt lat="45.62168622124784" lon="10.811574448702576"><ele>454.0</ele><time>2026-03-28T11:25:30.001Z</time></trkpt><trkpt lat="45.62163571366514" lon="10.811438633077998"><ele>454.00000000000006</ele><time>2026-03-28T11:25:31.001Z</time></trkpt><trkpt lat="45.62159911986292" lon="10.81134021403996"><ele>454.0</ele><time>2026-03-28T11:25:32.002Z</time></trkpt><trkpt lat="45.621565205411876" lon="10.811239198469243"><ele>454.0</ele><time>2026-03-28T11:25:33.002Z</time></trkpt><trkpt lat="45.62152418573009" lon="10.81110077630129"><ele>454.0</ele><time>2026-03-28T11:25:34.002Z</time></trkpt><trkpt lat="45.6214716320096" lon="10.810980723920634"><ele>454.00000000000006</ele><time>2026-03-28T11:25:35.002Z</time></trkpt><trkpt lat="45.62144939341108" lon="10.81087387167471"><ele>454.0</ele><time>2026-03-28T11:25:36.002Z</time></trkpt><trkpt lat="45.62143222201317" lon="10.810775863151996"><ele>455.83333333333337</ele><time>2026-03-28T11:25:37.002Z</time></trkpt><trkpt lat="45.62141327433639" lon="10.810679400906203"><ele>457.6666666666667</ele><time>2026-03-28T11:25:38.002Z</time></trkpt><trkpt lat="45.62138194852652" lon="10.810576337256048"><ele>459.5</ele><time>2026-03-28T11:25:39.002Z</time></trkpt><trkpt lat="45.62136891129854" lon="10.810457447896953"><ele>461.33333333333337</ele><time>2026-03-28T11:25:40.002Z</time></trkpt><trkpt lat="45.621378590372444" lon="10.810330472495771"><ele>463.1666666666667</ele><time>2026-03-28T11:25:41.002Z</time></trkpt><trkpt lat="45.62136849864507" lon="10.810223721048029"><ele>465.0</ele><time>2026-03-28T11:25:42.002Z</time></trkpt><trkpt lat="45.62118937240068" lon="10.810187274519707"><ele>462.2</ele><time>2026-03-28T11:25:43.002Z</time></trkpt><trkpt lat="45.62109097474669" lon="10.810100820497695"><ele>459.4</ele><time>2026-03-28T11:25:45.002Z</time></trkpt><trkpt lat="45.62101675830642" lon="10.810028123173844"><ele>456.6</ele><time>2026-03-28T11:25:46.002Z</time></trkpt><trkpt lat="45.62094271801896" lon="10.809941925343361"><ele>453.8</ele><time>2026-03-28T11:25:47.002Z</time></trkpt><trkpt lat="45.620849435070284" lon="10.809865088605115"><ele>451.0</ele><time>2026-03-28T11:25:48.002Z</time></trkpt><trkpt lat="45.620782927880825" lon="10.809817319157599"><ele>451.00000000000006</ele><time>2026-03-28T11:25:49.002Z</time></trkpt><trkpt lat="45.620714557762554" lon="10.80975945149719"><ele>451.0</ele><time>2026-03-28T11:25:50.002Z</time></trkpt><trkpt lat="45.620650646400584" lon="10.809683735468429"><ele>451.0</ele><time>2026-03-28T11:25:51.002Z</time></trkpt><trkpt lat="45.620585981307414" lon="10.809592885046992"><ele>451.0</ele><time>2026-03-28T11:25:52.002Z</time></trkpt><trkpt lat="45.62051364809701" lon="10.809510775686702"><ele>451.00000000000006</ele><time>2026-03-28T11:25:53.002Z</time></trkpt><trkpt lat="45.6204210196107" lon="10.809444358688426"><ele>451.0</ele><time>2026-03-28T11:25:54.002Z</time></trkpt><trkpt lat="45.62031328757882" lon="10.809377944727133"><ele>450.8</ele><time>2026-03-28T11:25:55.002Z</time></trkpt><trkpt lat="45.62020657404284" lon="10.809314247192034"><ele>450.6</ele><time>2026-03-28T11:25:56.002Z</time></trkpt><trkpt lat="45.62009669141056" lon="10.809262441160229"><ele>450.4</ele><time>2026-03-28T11:25:57.002Z</time></trkpt><trkpt lat="45.62000589902595" lon="10.809207696491569"><ele>450.2</ele><time>2026-03-28T11:25:58.002Z</time></trkpt><trkpt lat="45.61993334162306" lon="10.809141851237333"><ele>450.0</ele><time>2026-03-28T11:25:59.002Z</time></trkpt><trkpt lat="45.619862858854574" lon="10.809069820123998"><ele>450.0</ele><time>2026-03-28T11:26:00.002Z</time></trkpt><trkpt lat="45.619771492521394" lon="10.809007919053371"><ele>450.0</ele><time>2026-03-28T11:26:01.002Z</time></trkpt><trkpt lat="45.619693466057555" lon="10.80891808613974"><ele>450.0</ele><time>2026-03-28T11:26:02.002Z</time></trkpt><trkpt lat="45.61962854145424" lon="10.808827148671677"><ele>450.0</ele><time>2026-03-28T11:26:03.002Z</time></trkpt><trkpt lat="45.61954719638982" lon="10.808718809804951"><ele>450.0</ele><time>2026-03-28T11:26:04.002Z</time></trkpt><trkpt lat="45.61948916577264" lon="10.808604588716358"><ele>449.6</ele><time>2026-03-28T11:26:05.003Z</time></trkpt><trkpt lat="45.619429116535336" lon="10.80849616313139"><ele>449.2</ele><time>2026-03-28T11:26:06.003Z</time></trkpt><trkpt lat="45.6193687781967" lon="10.808362111965181"><ele>448.79999999999995</ele><time>2026-03-28T11:26:07.003Z</time></trkpt><trkpt lat="45.61932923447126" lon="10.808250874615606"><ele>448.4</ele><time>2026-03-28T11:26:08.003Z</time></trkpt><trkpt lat="45.61925701586636" lon="10.808150687190562"><ele>448.0</ele><time>2026-03-28T11:26:09.003Z</time></trkpt><trkpt lat="45.61918137557719" lon="10.808022519419684"><ele>448.0</ele><time>2026-03-28T11:26:10.003Z</time></trkpt><trkpt lat="45.61911917689079" lon="10.807907210454912"><ele>447.99999999999994</ele><time>2026-03-28T11:26:11.003Z</time></trkpt><trkpt lat="45.61907115969608" lon="10.807816168833396"><ele>447.99999999999994</ele><time>2026-03-28T11:26:12.003Z</time></trkpt><trkpt lat="45.619005822178984" lon="10.807737200174769"><ele>448.0</ele><time>2026-03-28T11:26:13.003Z</time></trkpt><trkpt lat="45.618908175711454" lon="10.807659352159561"><ele>448.0</ele><time>2026-03-28T11:26:14.003Z</time></trkpt><trkpt lat="45.618812760178045" lon="10.807575536651704"><ele>450.59999999999997</ele><time>2026-03-28T11:26:15.003Z</time></trkpt><trkpt lat="45.61875656541957" lon="10.807507918740724"><ele>453.19999999999993</ele><time>2026-03-28T11:26:16.003Z</time></trkpt><trkpt lat="45.61871299282375" lon="10.807418974164651"><ele>455.8</ele><time>2026-03-28T11:26:17.003Z</time></trkpt><trkpt lat="45.61864614384683" lon="10.80724231489436"><ele>458.4</ele><time>2026-03-28T11:26:19.003Z</time></trkpt><trkpt lat="45.61863295214513" lon="10.80713492267448"><ele>461.0</ele><time>2026-03-28T11:26:20.003Z</time></trkpt><trkpt lat="45.618544305756295" lon="10.806999678087642"><ele>457.0</ele><time>2026-03-28T11:26:21.003Z</time></trkpt><trkpt lat="45.618487353365566" lon="10.806851152166535"><ele>453.0</ele><time>2026-03-28T11:26:22.003Z</time></trkpt><trkpt lat="45.61843675411079" lon="10.806699967079215"><ele>449.0</ele><time>2026-03-28T11:26:23.003Z</time></trkpt><trkpt lat="45.61838658367885" lon="10.806571682830224"><ele>445.0</ele><time>2026-03-28T11:26:24.003Z</time></trkpt><trkpt lat="45.61833476045271" lon="10.806431559447352"><ele>441.0</ele><time>2026-03-28T11:26:25.003Z</time></trkpt><trkpt lat="45.61828980829658" lon="10.806286014244991"><ele>441.0</ele><time>2026-03-28T11:26:26.003Z</time></trkpt><trkpt lat="45.61824997398815" lon="10.806179674628583"><ele>441.0</ele><time>2026-03-28T11:26:27.003Z</time></trkpt><trkpt lat="45.61817095041996" lon="10.806029061895604"><ele>441.0</ele><time>2026-03-28T11:26:28.003Z</time></trkpt><trkpt lat="45.61811513886045" lon="10.805866438056187"><ele>441.0</ele><time>2026-03-28T11:26:29.003Z</time></trkpt><trkpt lat="45.61806104114705" lon="10.805750386184057"><ele>441.0</ele><time>2026-03-28T11:26:29.999Z</time></trkpt><trkpt lat="45.618039746957656" lon="10.805638573572287"><ele>442.42857142857144</ele><time>2026-03-28T11:26:30.999Z</time></trkpt><trkpt lat="45.61801456556483" lon="10.80550173625214"><ele>443.8571428571429</ele><time>2026-03-28T11:26:32.999Z</time></trkpt><trkpt lat="45.618030957687644" lon="10.805414677395554"><ele>445.2857142857143</ele><time>2026-03-28T11:26:33.999Z</time></trkpt><trkpt lat="45.61800135430776" lon="10.805324284694764"><ele>446.7142857142857</ele><time>2026-03-28T11:26:52Z</time></trkpt><trkpt lat="45.617976032858145" lon="10.805233502107319"><ele>448.14285714285717</ele><time>2026-03-28T11:26:55Z</time></trkpt><trkpt lat="45.6179294641132" lon="10.80514607914769"><ele>449.57142857142856</ele><time>2026-03-28T11:27:28.001Z</time></trkpt><trkpt lat="45.61794333742375" lon="10.805054771956335"><ele>451.0</ele><time>2026-03-28T11:27:49.002Z</time></trkpt><trkpt lat="45.61796398338697" lon="10.804964067793671"><ele>453.8</ele><time>2026-03-28T11:27:51.002Z</time></trkpt><trkpt lat="45.617889290215686" lon="10.804985098755106"><ele>456.6</ele><time>2026-03-28T11:28:01.002Z</time></trkpt><trkpt lat="45.61781301184626" lon="10.804888182805492"><ele>459.4</ele><time>2026-03-28T11:28:20.003Z</time></trkpt><trkpt lat="45.617744257955884" lon="10.80480289547701"><ele>462.2</ele><time>2026-03-28T11:28:21.003Z</time></trkpt><trkpt lat="45.617658614328505" lon="10.804679733155673"><ele>465.0</ele><time>2026-03-28T11:28:22.003Z</time></trkpt><trkpt lat="45.61756079850762" lon="10.804587260068503"><ele>462.0</ele><time>2026-03-28T11:28:23.003Z</time></trkpt><trkpt lat="45.617450362416406" lon="10.804494066364176"><ele>459.0</ele><time>2026-03-28T11:28:24.003Z</time></trkpt><trkpt lat="45.617321855301086" lon="10.804364348154252"><ele>456.0</ele><time>2026-03-28T11:28:25.003Z</time></trkpt><trkpt lat="45.61724266829689" lon="10.804265156474804"><ele>453.0</ele><time>2026-03-28T11:28:26.003Z</time></trkpt><trkpt lat="45.6171406038837" lon="10.804184415354033"><ele>453.0</ele><time>2026-03-28T11:28:27.003Z</time></trkpt><trkpt lat="45.617055888117875" lon="10.804137796752888"><ele>452.99999999999994</ele><time>2026-03-28T11:28:28.003Z</time></trkpt><trkpt lat="45.616973084733544" lon="10.804092749188397"><ele>452.99999999999994</ele><time>2026-03-28T11:28:29.003Z</time></trkpt><trkpt lat="45.61690274214514" lon="10.804039150204947"><ele>453.0</ele><time>2026-03-28T11:28:30.003Z</time></trkpt><trkpt lat="45.61680411712359" lon="10.803916590777886"><ele>453.0</ele><time>2026-03-28T11:28:31.003Z</time></trkpt><trkpt lat="45.61670280831932" lon="10.803805461256111"><ele>453.1666666666667</ele><time>2026-03-28T11:28:32.003Z</time></trkpt><trkpt lat="45.61661435050743" lon="10.803730165888066"><ele>453.33333333333337</ele><time>2026-03-28T11:28:33.003Z</time></trkpt><trkpt lat="45.61656217792677" lon="10.803677540700914"><ele>453.5</ele><time>2026-03-28T11:28:34.003Z</time></trkpt><trkpt lat="45.61647711956018" lon="10.803619020747611"><ele>453.6666666666667</ele><time>2026-03-28T11:28:35.003Z</time></trkpt><trkpt lat="45.6163834077473" lon="10.80355008530286"><ele>453.83333333333337</ele><time>2026-03-28T11:28:36.001Z</time></trkpt><trkpt lat="45.61632822781371" lon="10.803476996787284"><ele>454.0</ele><time>2026-03-28T11:28:37.001Z</time></trkpt><trkpt lat="45.61626660597748" lon="10.803362515562467"><ele>454.0</ele><time>2026-03-28T11:28:39.001Z</time></trkpt><trkpt lat="45.616243814266035" lon="10.803248490241721"><ele>454.0</ele><time>2026-03-28T11:28:40.001Z</time></trkpt><trkpt lat="45.61616519148619" lon="10.803163223871255"><ele>454.0</ele><time>2026-03-28T11:28:41.001Z</time></trkpt><trkpt lat="45.61608521858768" lon="10.803076494703683"><ele>454.0</ele><time>2026-03-28T11:28:42.001Z</time></trkpt><trkpt lat="45.61596535342777" lon="10.80300730516456"><ele>454.0</ele><time>2026-03-28T11:28:43Z</time></trkpt><trkpt lat="45.61589274351063" lon="10.802922552395216"><ele>452.6</ele><time>2026-03-28T11:28:44Z</time></trkpt><trkpt lat="45.615814059690855" lon="10.802837599710962"><ele>451.2</ele><time>2026-03-28T11:28:45Z</time></trkpt><trkpt lat="45.61574045380455" lon="10.80275394643378"><ele>449.80000000000007</ele><time>2026-03-28T11:28:46Z</time></trkpt><trkpt lat="45.61567111066057" lon="10.802652203728286"><ele>448.40000000000003</ele><time>2026-03-28T11:28:47Z</time></trkpt><trkpt lat="45.61564752536235" lon="10.802551558128368"><ele>447.0</ele><time>2026-03-28T11:28:48Z</time></trkpt><trkpt lat="45.615614105866754" lon="10.802413597817543"><ele>445.25</ele><time>2026-03-28T11:28:49Z</time></trkpt><trkpt lat="45.61556209643289" lon="10.80224599774562"><ele>443.5</ele><time>2026-03-28T11:28:50Z</time></trkpt><trkpt lat="45.61553153260586" lon="10.802076704958806"><ele>441.75</ele><time>2026-03-28T11:28:51Z</time></trkpt><trkpt lat="45.615489051107716" lon="10.801911178291524"><ele>440.0</ele><time>2026-03-28T11:28:52Z</time></trkpt><trkpt lat="45.61544609221135" lon="10.801790343996513"><ele>440.0</ele><time>2026-03-28T11:28:53Z</time></trkpt><trkpt lat="45.61539417686459" lon="10.80166749360119"><ele>440.0</ele><time>2026-03-28T11:28:54Z</time></trkpt><trkpt lat="45.61532675425792" lon="10.801564421639613"><ele>440.0</ele><time>2026-03-28T11:28:55Z</time></trkpt><trkpt lat="45.615256472008895" lon="10.801470417687913"><ele>440.0</ele><time>2026-03-28T11:28:56Z</time></trkpt><trkpt lat="45.61519622864153" lon="10.801383159179231"><ele>440.0</ele><time>2026-03-28T11:28:57Z</time></trkpt><trkpt lat="45.61520178950388" lon="10.801182284328027"><ele>438.0</ele><time>2026-03-28T11:28:59Z</time></trkpt><trkpt lat="45.61520794467934" lon="10.801016616235415"><ele>436.0</ele><time>2026-03-28T11:29:00Z</time></trkpt><trkpt lat="45.61518928123404" lon="10.80084365771249"><ele>434.0</ele><time>2026-03-28T11:29:01Z</time></trkpt><trkpt lat="45.615180400626436" lon="10.80071593065138"><ele>432.0</ele><time>2026-03-28T11:29:02Z</time></trkpt><trkpt lat="45.615160499734074" lon="10.800605172441959"><ele>430.0</ele><time>2026-03-28T11:29:03Z</time></trkpt><trkpt lat="45.615126954168716" lon="10.800492524225136"><ele>428.4</ele><time>2026-03-28T11:29:04Z</time></trkpt><trkpt lat="45.61513292748607" lon="10.800373244828654"><ele>426.8</ele><time>2026-03-28T11:29:05Z</time></trkpt><trkpt lat="45.615148465292464" lon="10.800253294319225"><ele>425.20000000000005</ele><time>2026-03-28T11:29:06.001Z</time></trkpt><trkpt lat="45.615167628713124" lon="10.80014051966828"><ele>423.6</ele><time>2026-03-28T11:29:07.001Z</time></trkpt><trkpt lat="45.615201912804864" lon="10.800013794654506"><ele>422.0</ele><time>2026-03-28T11:29:08.001Z</time></trkpt><trkpt lat="45.615262325747885" lon="10.799879303226573"><ele>418.8</ele><time>2026-03-28T11:29:09.001Z</time></trkpt><trkpt lat="45.61532525202806" lon="10.799736851756974"><ele>415.6</ele><time>2026-03-28T11:29:10.001Z</time></trkpt><trkpt lat="45.61534727958198" lon="10.799634088968709"><ele>412.40000000000003</ele><time>2026-03-28T11:29:11.001Z</time></trkpt><trkpt lat="45.615355769558825" lon="10.799516123748418"><ele>409.20000000000005</ele><time>2026-03-28T11:29:12.001Z</time></trkpt><trkpt lat="45.615336405757155" lon="10.799404994108329"><ele>406.0</ele><time>2026-03-28T11:29:13.001Z</time></trkpt><trkpt lat="45.615319673980395" lon="10.799259713339534"><ele>406.0</ele><time>2026-03-28T11:29:14.001Z</time></trkpt><trkpt lat="45.615264941742076" lon="10.799087271103808"><ele>406.0</ele><time>2026-03-28T11:29:15.001Z</time></trkpt><trkpt lat="45.615222141947" lon="10.79890772607056"><ele>406.0</ele><time>2026-03-28T11:29:16.001Z</time></trkpt><trkpt lat="45.6151933167003" lon="10.798740204330661"><ele>406.0</ele><time>2026-03-28T11:29:17.001Z</time></trkpt><trkpt lat="45.61515392304918" lon="10.798580255972766"><ele>406.75</ele><time>2026-03-28T11:29:18.001Z</time></trkpt><trkpt lat="45.615105408580355" lon="10.798435209105525"><ele>407.5</ele><time>2026-03-28T11:29:19.001Z</time></trkpt><trkpt lat="45.615058936116654" lon="10.798287083085231"><ele>408.25</ele><time>2026-03-28T11:29:20.001Z</time></trkpt><trkpt lat="45.61501352740806" lon="10.798132087206662"><ele>409.0</ele><time>2026-03-28T11:29:21.001Z</time></trkpt><trkpt lat="45.61496005257381" lon="10.79799008234204"><ele>409.0</ele><time>2026-03-28T11:29:22.001Z</time></trkpt><trkpt lat="45.61493347777144" lon="10.797860392765198"><ele>409.0</ele><time>2026-03-28T11:29:23.001Z</time></trkpt><trkpt lat="45.61491772957585" lon="10.797723182241747"><ele>409.0</ele><time>2026-03-28T11:29:24.001Z</time></trkpt><trkpt lat="45.614893490874024" lon="10.797583914960368"><ele>409.0</ele><time>2026-03-28T11:29:25.001Z</time></trkpt><trkpt lat="45.614858684450915" lon="10.797442521392039"><ele>409.0</ele><time>2026-03-28T11:29:26.001Z</time></trkpt><trkpt lat="45.614831046337976" lon="10.797311543162316"><ele>408.85714285714283</ele><time>2026-03-28T11:29:27.001Z</time></trkpt><trkpt lat="45.61481117950861" lon="10.797200513382103"><ele>408.7142857142857</ele><time>2026-03-28T11:29:28.001Z</time></trkpt><trkpt lat="45.61481115336313" lon="10.797103265192908"><ele>408.57142857142856</ele><time>2026-03-28T11:29:29.001Z</time></trkpt><trkpt lat="45.614812688694165" lon="10.796989931587307"><ele>408.42857142857144</ele><time>2026-03-28T11:29:30.001Z</time></trkpt><trkpt lat="45.61481632656618" lon="10.796890177427988"><ele>408.28571428571433</ele><time>2026-03-28T11:29:31.001Z</time></trkpt><trkpt lat="45.61482427819919" lon="10.796788691561861"><ele>408.14285714285717</ele><time>2026-03-28T11:29:32.001Z</time></trkpt><trkpt lat="45.614816907954435" lon="10.796680376241023"><ele>408.0</ele><time>2026-03-28T11:29:33.001Z</time></trkpt><trkpt lat="45.61479804067426" lon="10.79658246037952"><ele>407.59999999999997</ele><time>2026-03-28T11:29:34.001Z</time></trkpt><trkpt lat="45.614756433553914" lon="10.796424196880105"><ele>407.2</ele><time>2026-03-28T11:29:36.001Z</time></trkpt><trkpt lat="45.61470788632137" lon="10.796282836641904"><ele>406.8</ele><time>2026-03-28T11:29:38.001Z</time></trkpt><trkpt lat="45.61462509839681" lon="10.796158852926817"><ele>406.4</ele><time>2026-03-28T11:29:40.001Z</time></trkpt><trkpt lat="45.6145364865979" lon="10.796141134155105"><ele>406.0</ele><time>2026-03-28T11:29:41.001Z</time></trkpt><trkpt lat="45.61442435715357" lon="10.796119140361814"><ele>402.33333333333337</ele><time>2026-03-28T11:29:42.001Z</time></trkpt><trkpt lat="45.61431957017677" lon="10.796101336449606"><ele>398.6666666666667</ele><time>2026-03-28T11:29:43.001Z</time></trkpt><trkpt lat="45.614228224424345" lon="10.79609381786957"><ele>395.0</ele><time>2026-03-28T11:29:44.001Z</time></trkpt><trkpt lat="45.61415731376652" lon="10.796083962653492"><ele>391.33333333333337</ele><time>2026-03-28T11:29:45.001Z</time></trkpt><trkpt lat="45.61408262487342" lon="10.796038981557787"><ele>387.6666666666667</ele><time>2026-03-28T11:29:46.001Z</time></trkpt><trkpt lat="45.614019620709634" lon="10.795972838546602"><ele>384.0</ele><time>2026-03-28T11:29:47.001Z</time></trkpt><trkpt lat="45.61395622718746" lon="10.795923279007495"><ele>384.0</ele><time>2026-03-28T11:29:48.001Z</time></trkpt><trkpt lat="45.61386349132217" lon="10.795882476622138"><ele>384.0</ele><time>2026-03-28T11:29:50.001Z</time></trkpt><trkpt lat="45.61383278602588" lon="10.795803504399508"><ele>384.0</ele><time>2026-03-28T11:29:52.002Z</time></trkpt><trkpt lat="45.613819431273484" lon="10.795707311168139"><ele>384.0</ele><time>2026-03-28T11:29:53.002Z</time></trkpt><trkpt lat="45.61380260518946" lon="10.795574192449003"><ele>384.0</ele><time>2026-03-28T11:29:54.002Z</time></trkpt><trkpt lat="45.613771004914916" lon="10.795423318888457"><ele>384.0</ele><time>2026-03-28T11:29:55.002Z</time></trkpt><trkpt lat="45.613729037936544" lon="10.795276051081782"><ele>385.4</ele><time>2026-03-28T11:29:56.002Z</time></trkpt><trkpt lat="45.61370023150907" lon="10.79514775175628"><ele>386.79999999999995</ele><time>2026-03-28T11:29:57.002Z</time></trkpt><trkpt lat="45.61365962318472" lon="10.795017523575428"><ele>388.20000000000005</ele><time>2026-03-28T11:29:58.002Z</time></trkpt><trkpt lat="45.61360038156875" lon="10.79487834917812"><ele>389.6</ele><time>2026-03-28T11:29:59.002Z</time></trkpt><trkpt lat="45.613557325503" lon="10.79474178688631"><ele>391.0</ele><time>2026-03-28T11:30:00.002Z</time></trkpt><trkpt lat="45.613532624899534" lon="10.794610362497288"><ele>388.5</ele><time>2026-03-28T11:30:01.002Z</time></trkpt><trkpt lat="45.61350841463675" lon="10.794479955741254"><ele>386.0</ele><time>2026-03-28T11:30:02.002Z</time></trkpt><trkpt lat="45.613474750538565" lon="10.794320740690026"><ele>383.5</ele><time>2026-03-28T11:30:03.002Z</time></trkpt><trkpt lat="45.61343876535014" lon="10.794131761425616"><ele>381.0</ele><time>2026-03-28T11:30:04.002Z</time></trkpt><trkpt lat="45.61339432687161" lon="10.793951381180907"><ele>381.0</ele><time>2026-03-28T11:30:05.002Z</time></trkpt><trkpt lat="45.61333789096133" lon="10.793807771159086"><ele>381.0</ele><time>2026-03-28T11:30:06.002Z</time></trkpt><trkpt lat="45.613276528923876" lon="10.793646355507258"><ele>381.0</ele><time>2026-03-28T11:30:07.002Z</time></trkpt><trkpt lat="45.613206465965895" lon="10.793525191252046"><ele>381.0</ele><time>2026-03-28T11:30:08.002Z</time></trkpt><trkpt lat="45.613137369942265" lon="10.79342724742317"><ele>384.0</ele><time>2026-03-28T11:30:09.002Z</time></trkpt><trkpt lat="45.613042829334056" lon="10.793371704762121"><ele>387.0</ele><time>2026-03-28T11:30:10.002Z</time></trkpt><trkpt lat="45.61292833080264" lon="10.793256347587146"><ele>390.0</ele><time>2026-03-28T11:30:11.002Z</time></trkpt><trkpt lat="45.61283202146551" lon="10.793150077174255"><ele>393.0</ele><time>2026-03-28T11:30:12.002Z</time></trkpt><trkpt lat="45.612764347862125" lon="10.793034325878201"><ele>389.59999999999997</ele><time>2026-03-28T11:30:13.002Z</time></trkpt><trkpt lat="45.61268139485822" lon="10.792887381532598"><ele>386.2</ele><time>2026-03-28T11:30:14.002Z</time></trkpt><trkpt lat="45.61261979916033" lon="10.792751271064235"><ele>382.8</ele><time>2026-03-28T11:30:15.002Z</time></trkpt><trkpt lat="45.6125855437017" lon="10.792626495542969"><ele>379.4</ele><time>2026-03-28T11:30:16.002Z</time></trkpt><trkpt lat="45.612563420522314" lon="10.792493845050169"><ele>376.0</ele><time>2026-03-28T11:30:17.002Z</time></trkpt><trkpt lat="45.61255249126874" lon="10.792365299259279"><ele>376.0</ele><time>2026-03-28T11:30:18.002Z</time></trkpt><trkpt lat="45.61255503102732" lon="10.792229658474223"><ele>376.0</ele><time>2026-03-28T11:30:19.002Z</time></trkpt><trkpt lat="45.61257590445012" lon="10.792087223739083"><ele>376.0</ele><time>2026-03-28T11:30:20.002Z</time></trkpt><trkpt lat="45.61265924792434" lon="10.791989753045655"><ele>376.0</ele><time>2026-03-28T11:30:21.002Z</time></trkpt><trkpt lat="45.61270345776729" lon="10.791808961290466"><ele>376.0</ele><time>2026-03-28T11:30:23.002Z</time></trkpt><trkpt lat="45.61268759116769" lon="10.791660936711757"><ele>375.25</ele><time>2026-03-28T11:30:24.002Z</time></trkpt><trkpt lat="45.61267309269945" lon="10.791474109254493"><ele>374.5</ele><time>2026-03-28T11:30:25.002Z</time></trkpt><trkpt lat="45.612658043887016" lon="10.791254507385679"><ele>373.75</ele><time>2026-03-28T11:30:26.002Z</time></trkpt><trkpt lat="45.612641578691374" lon="10.791060103763034"><ele>373.0</ele><time>2026-03-28T11:30:27.002Z</time></trkpt><trkpt lat="45.612626995627295" lon="10.790870409097135"><ele>372.5</ele><time>2026-03-28T11:30:28.002Z</time></trkpt><trkpt lat="45.612617058492695" lon="10.790678913244626"><ele>372.0</ele><time>2026-03-28T11:30:29.002Z</time></trkpt><trkpt lat="45.612599793979044" lon="10.790493262594588"><ele>371.5</ele><time>2026-03-28T11:30:30.002Z</time></trkpt><trkpt lat="45.612554656287145" lon="10.790319810605551"><ele>371.0</ele><time>2026-03-28T11:30:31.002Z</time></trkpt><trkpt lat="45.61248750084652" lon="10.79013541402152"><ele>371.0</ele><time>2026-03-28T11:30:32.002Z</time></trkpt><trkpt lat="45.612405774332416" lon="10.789930029757985"><ele>371.0</ele><time>2026-03-28T11:30:33.003Z</time></trkpt><trkpt lat="45.61231455286196" lon="10.78976009229049"><ele>371.0</ele><time>2026-03-28T11:30:34.003Z</time></trkpt><trkpt lat="45.61220709655807" lon="10.789618072884492"><ele>371.0</ele><time>2026-03-28T11:30:35.003Z</time></trkpt><trkpt lat="45.61206864813056" lon="10.789471187398545"><ele>371.0</ele><time>2026-03-28T11:30:36.003Z</time></trkpt><trkpt lat="45.61195531551569" lon="10.78928011463081"><ele>371.0</ele><time>2026-03-28T11:30:37.003Z</time></trkpt><trkpt lat="45.61184454528825" lon="10.78913010098471"><ele>368.20000000000005</ele><time>2026-03-28T11:30:38.003Z</time></trkpt><trkpt lat="45.61175243621012" lon="10.789001492333677"><ele>365.40000000000003</ele><time>2026-03-28T11:30:39.003Z</time></trkpt><trkpt lat="45.61170525656874" lon="10.788888767107805"><ele>362.6</ele><time>2026-03-28T11:30:40.003Z</time></trkpt><trkpt lat="45.611680362652464" lon="10.788756312315213"><ele>359.8</ele><time>2026-03-28T11:30:41.003Z</time></trkpt><trkpt lat="45.61167107606004" lon="10.788617864569721"><ele>357.0</ele><time>2026-03-28T11:30:41.999Z</time></trkpt><trkpt lat="45.611679845657456" lon="10.788484101572337"><ele>357.0</ele><time>2026-03-28T11:30:42.999Z</time></trkpt><trkpt lat="45.61169935941479" lon="10.788315458034948"><ele>357.0</ele><time>2026-03-28T11:30:43.999Z</time></trkpt><trkpt lat="45.6117167897059" lon="10.788130288624988"><ele>357.0</ele><time>2026-03-28T11:30:44.999Z</time></trkpt><trkpt lat="45.611751906961544" lon="10.787973277682573"><ele>357.0</ele><time>2026-03-28T11:30:45.999Z</time></trkpt><trkpt lat="45.611834342256834" lon="10.787862272282142"><ele>357.0</ele><time>2026-03-28T11:30:46.999Z</time></trkpt><trkpt lat="45.61192311196337" lon="10.787706453148493"><ele>357.0</ele><time>2026-03-28T11:30:47.999Z</time></trkpt><trkpt lat="45.61198381110417" lon="10.78754601046711"><ele>357.0</ele><time>2026-03-28T11:30:48.999Z</time></trkpt><trkpt lat="45.61200478427589" lon="10.787367927402446"><ele>357.0</ele><time>2026-03-28T11:30:49.999Z</time></trkpt><trkpt lat="45.61196106959231" lon="10.787182205430147"><ele>355.75</ele><time>2026-03-28T11:30:50.999Z</time></trkpt><trkpt lat="45.611956167040454" lon="10.787007269853937"><ele>354.5</ele><time>2026-03-28T11:30:51.999Z</time></trkpt><trkpt lat="45.61190640061388" lon="10.786854916508116"><ele>353.25</ele><time>2026-03-28T11:30:52.999Z</time></trkpt><trkpt lat="45.61179962707082" lon="10.78675904390625"><ele>352.0</ele><time>2026-03-28T11:30:53.999Z</time></trkpt><trkpt lat="45.61166997197168" lon="10.786684824698552"><ele>352.0</ele><time>2026-03-28T11:30:54.999Z</time></trkpt><trkpt lat="45.61154181306472" lon="10.78656612868878"><ele>352.0</ele><time>2026-03-28T11:30:55.999Z</time></trkpt><trkpt lat="45.61143528717495" lon="10.786431001949953"><ele>352.0</ele><time>2026-03-28T11:30:56.999Z</time></trkpt><trkpt lat="45.61133215840248" lon="10.786285910465645"><ele>352.0</ele><time>2026-03-28T11:30:57.999Z</time></trkpt><trkpt lat="45.61122978221501" lon="10.786134424388639"><ele>349.25</ele><time>2026-03-28T11:30:59Z</time></trkpt><trkpt lat="45.61115060014115" lon="10.786002249026218"><ele>346.5</ele><time>2026-03-28T11:31:00Z</time></trkpt><trkpt lat="45.61112317159142" lon="10.785860481883237"><ele>343.75</ele><time>2026-03-28T11:31:01Z</time></trkpt><trkpt lat="45.61108059080754" lon="10.785688903530188"><ele>341.0</ele><time>2026-03-28T11:31:02Z</time></trkpt><trkpt lat="45.61103305065848" lon="10.785542358719875"><ele>341.0</ele><time>2026-03-28T11:31:03Z</time></trkpt><trkpt lat="45.61099825628432" lon="10.785451969190484"><ele>341.0</ele><time>2026-03-28T11:31:04Z</time></trkpt><trkpt lat="45.61117068963335" lon="10.785437695250293"><ele>341.0</ele><time>2026-03-28T11:31:15Z</time></trkpt><trkpt lat="45.61132155362724" lon="10.785478117194392"><ele>341.0</ele><time>2026-03-28T11:31:16Z</time></trkpt><trkpt lat="45.611459898158" lon="10.785443482871123"><ele>345.25</ele><time>2026-03-28T11:31:17Z</time></trkpt><trkpt lat="45.611573909345566" lon="10.785349520556487"><ele>349.5</ele><time>2026-03-28T11:31:18Z</time></trkpt><trkpt lat="45.61166972935181" lon="10.785205350365777"><ele>353.75</ele><time>2026-03-28T11:31:19Z</time></trkpt><trkpt lat="45.61173426453443" lon="10.785033958016417"><ele>358.0</ele><time>2026-03-28T11:31:20Z</time></trkpt><trkpt lat="45.61175500679864" lon="10.784845577912751"><ele>358.3333333333333</ele><time>2026-03-28T11:31:21Z</time></trkpt><trkpt lat="45.61174798780925" lon="10.784635510490114"><ele>358.6666666666667</ele><time>2026-03-28T11:31:22Z</time></trkpt><trkpt lat="45.61173653246509" lon="10.784372661711583"><ele>359.0</ele><time>2026-03-28T11:31:23.001Z</time></trkpt><trkpt lat="45.611710948401544" lon="10.784068775750509"><ele>360.0</ele><time>2026-03-28T11:31:24.001Z</time></trkpt><trkpt lat="45.61168357044789" lon="10.783734463126994"><ele>361.0</ele><time>2026-03-28T11:31:25.001Z</time></trkpt><trkpt lat="45.61165755323824" lon="10.783387102651004"><ele>362.0</ele><time>2026-03-28T11:31:26.001Z</time></trkpt><trkpt lat="45.611635004790315" lon="10.783073363913442"><ele>363.0</ele><time>2026-03-28T11:31:27.001Z</time></trkpt><trkpt lat="45.6116118934033" lon="10.782772236816378"><ele>364.0</ele><time>2026-03-28T11:31:28.001Z</time></trkpt><trkpt lat="45.61159634420133" lon="10.782472539243338"><ele>366.0</ele><time>2026-03-28T11:31:29.001Z</time></trkpt><trkpt lat="45.611586619621846" lon="10.782167812496187"><ele>368.0</ele><time>2026-03-28T11:31:30.001Z</time></trkpt><trkpt lat="45.61158116886709" lon="10.781871020557345"><ele>370.0</ele><time>2026-03-28T11:31:31.001Z</time></trkpt><trkpt lat="45.611579219543955" lon="10.781570752240823"><ele>370.66666666666663</ele><time>2026-03-28T11:31:32.001Z</time></trkpt><trkpt lat="45.61157990266499" lon="10.781280652559607"><ele>371.3333333333333</ele><time>2026-03-28T11:31:33.001Z</time></trkpt><trkpt lat="45.61157593074795" lon="10.781023288981446"><ele>372.0</ele><time>2026-03-28T11:31:34.001Z</time></trkpt><trkpt lat="45.611545048009226" lon="10.780776278039536"><ele>373.3333333333333</ele><time>2026-03-28T11:31:35.001Z</time></trkpt><trkpt lat="45.61148160287904" lon="10.780535114135384"><ele>374.66666666666663</ele><time>2026-03-28T11:31:36.001Z</time></trkpt><trkpt lat="45.61137881551004" lon="10.780331192417767"><ele>376.0</ele><time>2026-03-28T11:31:37.001Z</time></trkpt><trkpt lat="45.61129732495015" lon="10.780152013916819"><ele>374.8</ele><time>2026-03-28T11:31:38.001Z</time></trkpt><trkpt lat="45.61127404137162" lon="10.780037408693401"><ele>373.6</ele><time>2026-03-28T11:31:39.001Z</time></trkpt><trkpt lat="45.611199486416965" lon="10.780128049187091"><ele>372.4</ele><time>2026-03-28T11:31:43.001Z</time></trkpt><trkpt lat="45.611088856359096" lon="10.780157000998933"><ele>371.2</ele><time>2026-03-28T11:31:46.001Z</time></trkpt><trkpt lat="45.61098715393957" lon="10.780170179780411"><ele>370.0</ele><time>2026-03-28T11:31:48.001Z</time></trkpt><trkpt lat="45.610876443952726" lon="10.780168907015769"><ele>370.0</ele><time>2026-03-28T11:31:50.001Z</time></trkpt><trkpt lat="45.61079154858991" lon="10.78010684514621"><ele>370.0</ele><time>2026-03-28T11:31:52.001Z</time></trkpt><trkpt lat="45.61072314039428" lon="10.780072150484676"><ele>370.0</ele><time>2026-03-28T11:31:53.001Z</time></trkpt><trkpt lat="45.61065387533859" lon="10.780019879677434"><ele>370.0</ele><time>2026-03-28T11:31:54.001Z</time></trkpt><trkpt lat="45.61058960251925" lon="10.77999210151995"><ele>370.0</ele><time>2026-03-28T11:31:55.001Z</time></trkpt><trkpt lat="45.61052614913485" lon="10.779941373442409"><ele>370.0</ele><time>2026-03-28T11:31:56.002Z</time></trkpt><trkpt lat="45.61045759819132" lon="10.779917254623216"><ele>370.0</ele><time>2026-03-28T11:31:57.002Z</time></trkpt><trkpt lat="45.61039058006112" lon="10.779894322462399"><ele>370.0</ele><time>2026-03-28T11:31:58.002Z</time></trkpt><trkpt lat="45.61032781315131" lon="10.779875140409658"><ele>370.0</ele><time>2026-03-28T11:31:59.002Z</time></trkpt><trkpt lat="45.61026431656571" lon="10.779855735449344"><ele>370.0</ele><time>2026-03-28T11:32:00.002Z</time></trkpt><trkpt lat="45.61013608956569" lon="10.779843158543626"><ele>370.0</ele><time>2026-03-28T11:32:02.002Z</time></trkpt><trkpt lat="45.61007012043485" lon="10.779814561386328"><ele>370.0</ele><time>2026-03-28T11:32:03.002Z</time></trkpt><trkpt lat="45.610007697952476" lon="10.779794930182748"><ele>367.66666666666663</ele><time>2026-03-28T11:32:04.002Z</time></trkpt><trkpt lat="45.60994616252762" lon="10.779745398088055"><ele>365.3333333333333</ele><time>2026-03-28T11:32:05.002Z</time></trkpt><trkpt lat="45.60987175620187" lon="10.779716563346451"><ele>363.0</ele><time>2026-03-28T11:32:06.002Z</time></trkpt><trkpt lat="45.609793877903044" lon="10.779699710806009"><ele>360.6666666666667</ele><time>2026-03-28T11:32:07.002Z</time></trkpt><trkpt lat="45.60970588466736" lon="10.779700785060903"><ele>358.33333333333337</ele><time>2026-03-28T11:32:08.002Z</time></trkpt><trkpt lat="45.60960415695879" lon="10.779756912572065"><ele>356.0</ele><time>2026-03-28T11:32:09.002Z</time></trkpt><trkpt lat="45.609479341899814" lon="10.779806584770157"><ele>351.5</ele><time>2026-03-28T11:32:10.002Z</time></trkpt><trkpt lat="45.60936087639835" lon="10.779810059858296"><ele>347.0</ele><time>2026-03-28T11:32:11.002Z</time></trkpt><trkpt lat="45.60925867587279" lon="10.779780529874788"><ele>342.5</ele><time>2026-03-28T11:32:12.002Z</time></trkpt><trkpt lat="45.60913104404623" lon="10.779750606526873"><ele>338.0</ele><time>2026-03-28T11:32:13.002Z</time></trkpt><trkpt lat="45.608992441951514" lon="10.779750448443815"><ele>338.0</ele><time>2026-03-28T11:32:14.002Z</time></trkpt><trkpt lat="45.608872071978524" lon="10.779711406994517"><ele>338.0</ele><time>2026-03-28T11:32:15.002Z</time></trkpt><trkpt lat="45.60876675440804" lon="10.77963129379251"><ele>338.0</ele><time>2026-03-28T11:32:16.002Z</time></trkpt><trkpt lat="45.608653485324204" lon="10.779553943115197"><ele>338.0</ele><time>2026-03-28T11:32:17.002Z</time></trkpt><trkpt lat="45.60851922009174" lon="10.77946592035636"><ele>335.33333333333337</ele><time>2026-03-28T11:32:18.002Z</time></trkpt><trkpt lat="45.60835616018716" lon="10.779392874186296"><ele>332.6666666666667</ele><time>2026-03-28T11:32:19.002Z</time></trkpt><trkpt lat="45.6081893209477" lon="10.779315541722443"><ele>330.0</ele><time>2026-03-28T11:32:20.002Z</time></trkpt><trkpt lat="45.60802569583883" lon="10.779220500326144"><ele>330.0</ele><time>2026-03-28T11:32:21.002Z</time></trkpt><trkpt lat="45.60788070973535" lon="10.779141633263293"><ele>330.0</ele><time>2026-03-28T11:32:22.002Z</time></trkpt><trkpt lat="45.60775664323611" lon="10.77907045767728"><ele>330.0</ele><time>2026-03-28T11:32:23.002Z</time></trkpt><trkpt lat="45.60763700154067" lon="10.77900098972544"><ele>330.0</ele><time>2026-03-28T11:32:24.002Z</time></trkpt><trkpt lat="45.60748960026155" lon="10.778918838260928"><ele>328.0</ele><time>2026-03-28T11:32:25.002Z</time></trkpt><trkpt lat="45.6073221841207" lon="10.778844171948027"><ele>326.0</ele><time>2026-03-28T11:32:26.002Z</time></trkpt><trkpt lat="45.60716310816158" lon="10.778793459069435"><ele>324.0</ele><time>2026-03-28T11:32:27.002Z</time></trkpt><trkpt lat="45.606995623307874" lon="10.778806971224617"><ele>320.0</ele><time>2026-03-28T11:32:28.002Z</time></trkpt><trkpt lat="45.60682143042025" lon="10.778808276806691"><ele>316.0</ele><time>2026-03-28T11:32:29.002Z</time></trkpt><trkpt lat="45.60666887810702" lon="10.77874874327555"><ele>312.0</ele><time>2026-03-28T11:32:30.003Z</time></trkpt><trkpt lat="45.60654303092763" lon="10.778696934286755"><ele>312.0</ele><time>2026-03-28T11:32:31.003Z</time></trkpt><trkpt lat="45.60645343886189" lon="10.778596866013066"><ele>312.0</ele><time>2026-03-28T11:32:32.003Z</time></trkpt><trkpt lat="45.6063707468208" lon="10.778592909588113"><ele>312.0</ele><time>2026-03-28T11:32:33.003Z</time></trkpt><trkpt lat="45.60627485405992" lon="10.778556685740504"><ele>312.0</ele><time>2026-03-28T11:32:34.003Z</time></trkpt><trkpt lat="45.60618176643709" lon="10.778525995587573"><ele>312.0</ele><time>2026-03-28T11:32:35.003Z</time></trkpt><trkpt lat="45.6060938211291" lon="10.77849848050027"><ele>307.6</ele><time>2026-03-28T11:32:36.003Z</time></trkpt><trkpt lat="45.60599083695777" lon="10.77846498464237"><ele>303.2</ele><time>2026-03-28T11:32:38.003Z</time></trkpt><trkpt lat="45.60589429917544" lon="10.778435154788907"><ele>298.8</ele><time>2026-03-28T11:32:40.003Z</time></trkpt><trkpt lat="45.60581751661054" lon="10.778414742144047"><ele>294.4</ele><time>2026-03-28T11:32:42.003Z</time></trkpt><trkpt lat="45.605751327334765" lon="10.778401195865229"><ele>290.0</ele><time>2026-03-28T11:32:44.003Z</time></trkpt><trkpt lat="45.605634127121284" lon="10.7783872794927"><ele>290.0</ele><time>2026-03-28T11:32:46.003Z</time></trkpt><trkpt lat="45.60550905008827" lon="10.778373749263089"><ele>290.0</ele><time>2026-03-28T11:32:47.999Z</time></trkpt><trkpt lat="45.605426134788765" lon="10.778367575927597"><ele>290.0</ele><time>2026-03-28T11:32:48.999Z</time></trkpt><trkpt lat="45.60533846551482" lon="10.778364023989631"><ele>290.0</ele><time>2026-03-28T11:32:49.999Z</time></trkpt><trkpt lat="45.60527419787993" lon="10.778390669044068"><ele>290.0</ele><time>2026-03-28T11:32:50.999Z</time></trkpt><trkpt lat="45.6052089850249" lon="10.778385496992785"><ele>290.0</ele><time>2026-03-28T11:32:51.999Z</time></trkpt><trkpt lat="45.6051336750824" lon="10.778403636564333"><ele>287.7142857142857</ele><time>2026-03-28T11:32:53.999Z</time></trkpt><trkpt lat="45.60507068119444" lon="10.778388912571476"><ele>285.42857142857144</ele><time>2026-03-28T11:32:54.999Z</time></trkpt><trkpt lat="45.60500664119626" lon="10.778367087092878"><ele>283.14285714285717</ele><time>2026-03-28T11:32:55.999Z</time></trkpt><trkpt lat="45.60493010207523" lon="10.778339554949506"><ele>280.8571428571429</ele><time>2026-03-28T11:32:56.999Z</time></trkpt><trkpt lat="45.60486147070483" lon="10.778313601863982"><ele>278.57142857142856</ele><time>2026-03-28T11:32:57.999Z</time></trkpt><trkpt lat="45.60479740062076" lon="10.778282675396033"><ele>276.28571428571433</ele><time>2026-03-28T11:32:58.999Z</time></trkpt><trkpt lat="45.60473219919208" lon="10.778251500599985"><ele>274.0</ele><time>2026-03-28T11:32:59.999Z</time></trkpt><trkpt lat="45.60465764539683" lon="10.778229461781464"><ele>274.0</ele><time>2026-03-28T11:33:00.999Z</time></trkpt><trkpt lat="45.60459246621763" lon="10.778227818922385"><ele>274.0</ele><time>2026-03-28T11:33:01.999Z</time></trkpt><trkpt lat="45.60452915309733" lon="10.778228092839628"><ele>274.0</ele><time>2026-03-28T11:33:03.999Z</time></trkpt><trkpt lat="45.604459472488486" lon="10.778119661621382"><ele>274.0</ele><time>2026-03-28T11:33:09Z</time></trkpt><trkpt lat="45.60438557169525" lon="10.778050276794136"><ele>274.0</ele><time>2026-03-28T11:33:11Z</time></trkpt><trkpt lat="45.60427617506969" lon="10.77817093224449"><ele>272.0</ele><time>2026-03-28T11:33:13Z</time></trkpt><trkpt lat="45.60420506841773" lon="10.778190951096379"><ele>270.0</ele><time>2026-03-28T11:33:14Z</time></trkpt><trkpt lat="45.60413777889517" lon="10.778155521959823"><ele>268.0</ele><time>2026-03-28T11:33:15Z</time></trkpt><trkpt lat="45.604057853770044" lon="10.778127412325222"><ele>266.0</ele><time>2026-03-28T11:33:16Z</time></trkpt><trkpt lat="45.603955685917974" lon="10.778136748198223"><ele>264.0</ele><time>2026-03-28T11:33:17Z</time></trkpt><trkpt lat="45.603837454514206" lon="10.778133665777709"><ele>262.0</ele><time>2026-03-28T11:33:18Z</time></trkpt><trkpt lat="45.60371917335159" lon="10.778090918720453"><ele>259.25</ele><time>2026-03-28T11:33:19Z</time></trkpt><trkpt lat="45.60359097109388" lon="10.778056723828291"><ele>256.5</ele><time>2026-03-28T11:33:20Z</time></trkpt><trkpt lat="45.603445961926376" lon="10.778035049456793"><ele>253.75</ele><time>2026-03-28T11:33:21Z</time></trkpt><trkpt lat="45.60331787188248" lon="10.778054085126445"><ele>251.0</ele><time>2026-03-28T11:33:22Z</time></trkpt><trkpt lat="45.60322399260576" lon="10.778061145082729"><ele>251.0</ele><time>2026-03-28T11:33:23Z</time></trkpt><trkpt lat="45.603127660094216" lon="10.778067727368366"><ele>251.00000000000003</ele><time>2026-03-28T11:33:25Z</time></trkpt><trkpt lat="45.60311081602771" lon="10.778227136082378"><ele>251.00000000000003</ele><time>2026-03-28T11:33:29.001Z</time></trkpt><trkpt lat="45.603154349894695" lon="10.778339458277532"><ele>251.0</ele><time>2026-03-28T11:33:30.001Z</time></trkpt><trkpt lat="45.603209673303944" lon="10.778481620269472"><ele>251.0</ele><time>2026-03-28T11:33:31.001Z</time></trkpt><trkpt lat="45.60324735937563" lon="10.778625446267437"><ele>250.25</ele><time>2026-03-28T11:33:32.001Z</time></trkpt><trkpt lat="45.60328539561676" lon="10.778779135500423"><ele>249.5</ele><time>2026-03-28T11:33:33.001Z</time></trkpt><trkpt lat="45.603332428643" lon="10.778953002707592"><ele>248.75</ele><time>2026-03-28T11:33:34.001Z</time></trkpt><trkpt lat="45.60338766980887" lon="10.77915261192685"><ele>248.0</ele><time>2026-03-28T11:33:35.001Z</time></trkpt><trkpt lat="45.60343687650885" lon="10.779358223660362"><ele>247.0</ele><time>2026-03-28T11:33:36.001Z</time></trkpt><trkpt lat="45.60347760429864" lon="10.779574593123039"><ele>246.0</ele><time>2026-03-28T11:33:37.001Z</time></trkpt><trkpt lat="45.60351067087658" lon="10.779814509157587"><ele>245.0</ele><time>2026-03-28T11:33:38.001Z</time></trkpt><trkpt lat="45.60354621464374" lon="10.780037633942902"><ele>245.0</ele><time>2026-03-28T11:33:39.001Z</time></trkpt><trkpt lat="45.60358798275361" lon="10.780273061715311"><ele>245.0</ele><time>2026-03-28T11:33:40.001Z</time></trkpt><trkpt lat="45.60362075445924" lon="10.780480103487502"><ele>245.0</ele><time>2026-03-28T11:33:41.001Z</time></trkpt><trkpt lat="45.60365019200139" lon="10.78066843563201"><ele>245.4</ele><time>2026-03-28T11:33:42.001Z</time></trkpt><trkpt lat="45.60367413618447" lon="10.780832894532045"><ele>245.8</ele><time>2026-03-28T11:33:43.001Z</time></trkpt><trkpt lat="45.60369070828489" lon="10.780965102056948"><ele>246.2</ele><time>2026-03-28T11:33:44.001Z</time></trkpt><trkpt lat="45.603697101435415" lon="10.781064112455361"><ele>246.6</ele><time>2026-03-28T11:33:45.001Z</time></trkpt><trkpt lat="45.603640605386964" lon="10.781218674054996"><ele>247.0</ele><time>2026-03-28T11:33:47.001Z</time></trkpt><trkpt lat="45.60359764192849" lon="10.781286453311193"><ele>247.0</ele><time>2026-03-28T11:33:48.001Z</time></trkpt><trkpt lat="45.60351123414215" lon="10.781360021873475"><ele>247.0</ele><time>2026-03-28T11:33:50.001Z</time></trkpt><trkpt lat="45.60342819644864" lon="10.78133182117903"><ele>247.0</ele><time>2026-03-28T11:33:51.001Z</time></trkpt><trkpt lat="45.603324181103346" lon="10.781353082626088"><ele>247.0</ele><time>2026-03-28T11:33:52.001Z</time></trkpt><trkpt lat="45.60320461417501" lon="10.781377159134232"><ele>247.0</ele><time>2026-03-28T11:33:53.001Z</time></trkpt><trkpt lat="45.60308440737811" lon="10.781412326640263"><ele>247.0</ele><time>2026-03-28T11:33:54.001Z</time></trkpt><trkpt lat="45.60295173442026" lon="10.781446578232297"><ele>247.0</ele><time>2026-03-28T11:33:55.001Z</time></trkpt><trkpt lat="45.60283108516475" lon="10.78147265400852"><ele>247.0</ele><time>2026-03-28T11:33:56.001Z</time></trkpt><trkpt lat="45.60273227719443" lon="10.781489176414706"><ele>247.0</ele><time>2026-03-28T11:33:57.001Z</time></trkpt><trkpt lat="45.60266446737244" lon="10.781496513573"><ele>247.0</ele><time>2026-03-28T11:33:58.001Z</time></trkpt><trkpt lat="45.60282686425737" lon="10.781608723210102"><ele>247.0</ele><time>2026-03-28T11:34:01.002Z</time></trkpt><trkpt lat="45.602843946028216" lon="10.781744588189513"><ele>247.0</ele><time>2026-03-28T11:34:02.002Z</time></trkpt><trkpt lat="45.602865062105884" lon="10.781897449088785"><ele>247.0</ele><time>2026-03-28T11:34:03.002Z</time></trkpt><trkpt lat="45.602880360954224" lon="10.782013085519557"><ele>247.0</ele><time>2026-03-28T11:34:04.002Z</time></trkpt><trkpt lat="45.602900781301365" lon="10.782167437346052"><ele>247.0</ele><time>2026-03-28T11:34:07.002Z</time></trkpt><trkpt lat="45.60290530223489" lon="10.782272876702425"><ele>241.0</ele><time>2026-03-28T11:34:09.002Z</time></trkpt><trkpt lat="45.602356797633504" lon="10.781643741157458"><ele>243.0</ele><time>2026-03-28T11:34:10.002Z</time></trkpt><trkpt lat="45.60238863565342" lon="10.78251065494896"><ele>243.0</ele><time>2026-03-28T11:34:11.002Z</time></trkpt><trkpt lat="45.60230071903005" lon="10.782583930082911"><ele>243.0</ele><time>2026-03-28T11:34:12.002Z</time></trkpt><trkpt lat="45.60221308404076" lon="10.782648211539456"><ele>243.0</ele><time>2026-03-28T11:34:13.002Z</time></trkpt><trkpt lat="45.6021054225189" lon="10.782701262541329"><ele>243.0</ele><time>2026-03-28T11:34:14.002Z</time></trkpt><trkpt lat="45.60196257123401" lon="10.782768332632982"><ele>241.33333333333331</ele><time>2026-03-28T11:34:15.002Z</time></trkpt><trkpt lat="45.60179409793344" lon="10.782839337020137"><ele>239.66666666666666</ele><time>2026-03-28T11:34:16.002Z</time></trkpt><trkpt lat="45.601628140825184" lon="10.78292244424839"><ele>238.0</ele><time>2026-03-28T11:34:17.002Z</time></trkpt><trkpt lat="45.60146058791762" lon="10.78300863066691"><ele>238.0</ele><time>2026-03-28T11:34:18.002Z</time></trkpt><trkpt lat="45.60130098631167" lon="10.78309696386341"><ele>238.0</ele><time>2026-03-28T11:34:19.002Z</time></trkpt><trkpt lat="45.601143784278726" lon="10.78318249495258"><ele>238.0</ele><time>2026-03-28T11:34:20.002Z</time></trkpt><trkpt lat="45.60100597205325" lon="10.783255500466092"><ele>237.49999999999997</ele><time>2026-03-28T11:34:21.002Z</time></trkpt><trkpt lat="45.600902986904835" lon="10.78329825745509"><ele>237.0</ele><time>2026-03-28T11:34:22.002Z</time></trkpt><trkpt lat="45.60082146879065" lon="10.78333437887439"><ele>236.5</ele><time>2026-03-28T11:34:23.002Z</time></trkpt><trkpt lat="45.60075388062462" lon="10.783376356405062"><ele>236.0</ele><time>2026-03-28T11:34:24.002Z</time></trkpt><trkpt lat="45.60066199565188" lon="10.783326489932128"><ele>235.49999999999997</ele><time>2026-03-28T11:34:26.002Z</time></trkpt><trkpt lat="45.600628763364256" lon="10.783220281422203"><ele>235.0</ele><time>2026-03-28T11:34:27.002Z</time></trkpt><trkpt lat="45.600581638005266" lon="10.783042117750608"><ele>235.0</ele><time>2026-03-28T11:34:28.002Z</time></trkpt><trkpt lat="45.600524153908076" lon="10.782837541719056"><ele>235.0</ele><time>2026-03-28T11:34:29.002Z</time></trkpt><trkpt lat="45.6004468765169" lon="10.78259055831843"><ele>235.0</ele><time>2026-03-28T11:34:30.002Z</time></trkpt><trkpt lat="45.60035802058841" lon="10.782386164172761"><ele>234.0</ele><time>2026-03-28T11:34:31.002Z</time></trkpt><trkpt lat="45.60028928418972" lon="10.782172840775083"><ele>233.0</ele><time>2026-03-28T11:34:32.002Z</time></trkpt><trkpt lat="45.60014689735355" lon="10.781972532150126"><ele>232.0</ele><time>2026-03-28T11:34:33.003Z</time></trkpt><trkpt lat="45.6000472292594" lon="10.78170918302709"><ele>231.66666666666666</ele><time>2026-03-28T11:34:34.003Z</time></trkpt><trkpt lat="45.59995906563658" lon="10.781477791971025"><ele>231.33333333333331</ele><time>2026-03-28T11:34:35.003Z</time></trkpt><trkpt lat="45.5998898355192" lon="10.781272324349693"><ele>231.0</ele><time>2026-03-28T11:34:36.003Z</time></trkpt><trkpt lat="45.59981903376827" lon="10.781069230659082"><ele>231.0</ele><time>2026-03-28T11:34:37.003Z</time></trkpt><trkpt lat="45.59972748694597" lon="10.780876067924863"><ele>231.0</ele><time>2026-03-28T11:34:38.003Z</time></trkpt><trkpt lat="45.5996562443174" lon="10.78066593597003"><ele>231.0</ele><time>2026-03-28T11:34:39.003Z</time></trkpt><trkpt lat="45.59958354178334" lon="10.78048607399224"><ele>231.0</ele><time>2026-03-28T11:34:40.003Z</time></trkpt><trkpt lat="45.599526974027754" lon="10.78031776353337"><ele>231.00000000000003</ele><time>2026-03-28T11:34:41.003Z</time></trkpt><trkpt lat="45.59947920108444" lon="10.780181055026047"><ele>231.00000000000003</ele><time>2026-03-28T11:34:42.003Z</time></trkpt><trkpt lat="45.599438754889285" lon="10.780081883893022"><ele>231.0</ele><time>2026-03-28T11:34:43.003Z</time></trkpt><trkpt lat="45.599376175121094" lon="10.779974636434769"><ele>231.0</ele><time>2026-03-28T11:34:45.003Z</time></trkpt><trkpt lat="45.59933093284923" lon="10.779902005497952"><ele>231.0</ele><time>2026-03-28T11:34:47.003Z</time></trkpt><trkpt lat="45.599281556225606" lon="10.77983988706294"><ele>231.0</ele><time>2026-03-28T11:34:48.003Z</time></trkpt><trkpt lat="45.59923805454733" lon="10.779750411398224"><ele>231.0</ele><time>2026-03-28T11:34:49.003Z</time></trkpt><trkpt lat="45.59920091309873" lon="10.779654434103973"><ele>231.0</ele><time>2026-03-28T11:34:50.003Z</time></trkpt><trkpt lat="45.59916476607765" lon="10.779560230101074"><ele>231.0</ele><time>2026-03-28T11:34:51.003Z</time></trkpt><trkpt lat="45.5991193131431" lon="10.779464391905115"><ele>231.0</ele><time>2026-03-28T11:34:52.003Z</time></trkpt><trkpt lat="45.59907097868806" lon="10.779357139911635"><ele>231.25</ele><time>2026-03-28T11:34:52.999Z</time></trkpt><trkpt lat="45.59902024805584" lon="10.779240367921242"><ele>231.5</ele><time>2026-03-28T11:34:53.999Z</time></trkpt><trkpt lat="45.59895916738548" lon="10.779109044903112"><ele>231.75</ele><time>2026-03-28T11:34:54.999Z</time></trkpt><trkpt lat="45.59888909509385" lon="10.778963885739495"><ele>232.0</ele><time>2026-03-28T11:34:55.999Z</time></trkpt><trkpt lat="45.59880981119639" lon="10.778804848746427"><ele>232.0</ele><time>2026-03-28T11:34:56.999Z</time></trkpt><trkpt lat="45.598725974384536" lon="10.77863779975328"><ele>232.0</ele><time>2026-03-28T11:34:58Z</time></trkpt><trkpt lat="45.598632500523514" lon="10.778460110697075"><ele>232.0</ele><time>2026-03-28T11:34:59Z</time></trkpt><trkpt lat="45.59853377587135" lon="10.778265656435998"><ele>232.0</ele><time>2026-03-28T11:35:00Z</time></trkpt><trkpt lat="45.598435502338724" lon="10.778065425264456"><ele>232.0</ele><time>2026-03-28T11:35:01Z</time></trkpt><trkpt lat="45.59833153290076" lon="10.777850316936503"><ele>232.0</ele><time>2026-03-28T11:35:02Z</time></trkpt><trkpt lat="45.59823050226781" lon="10.777615211022455"><ele>232.0</ele><time>2026-03-28T11:35:03Z</time></trkpt><trkpt lat="45.5981331526428" lon="10.777372587224551"><ele>232.0</ele><time>2026-03-28T11:35:04Z</time></trkpt><trkpt lat="45.598043885328195" lon="10.777119772488517"><ele>232.0</ele><time>2026-03-28T11:35:05Z</time></trkpt><trkpt lat="45.59794916461557" lon="10.776855299675532"><ele>232.33333333333331</ele><time>2026-03-28T11:35:06Z</time></trkpt><trkpt lat="45.59786117009173" lon="10.776592092321525"><ele>232.66666666666669</ele><time>2026-03-28T11:35:07Z</time></trkpt><trkpt lat="45.59777661839076" lon="10.776323144118024"><ele>233.0</ele><time>2026-03-28T11:35:08Z</time></trkpt><trkpt lat="45.597689249436414" lon="10.776052721904017"><ele>231.33333333333334</ele><time>2026-03-28T11:35:09Z</time></trkpt><trkpt lat="45.59760885249073" lon="10.775768964658234"><ele>229.66666666666669</ele><time>2026-03-28T11:35:10Z</time></trkpt><trkpt lat="45.59753793367307" lon="10.775461786415379"><ele>228.0</ele><time>2026-03-28T11:35:11Z</time></trkpt><trkpt lat="45.59743855507269" lon="10.775222064563454"><ele>227.66666666666669</ele><time>2026-03-28T11:35:12Z</time></trkpt><trkpt lat="45.597360812841984" lon="10.774991721276722"><ele>227.33333333333334</ele><time>2026-03-28T11:35:13Z</time></trkpt><trkpt lat="45.59729650255714" lon="10.77476807242016"><ele>227.0</ele><time>2026-03-28T11:35:14Z</time></trkpt><trkpt lat="45.597236769466264" lon="10.774569084226089"><ele>227.0</ele><time>2026-03-28T11:35:15Z</time></trkpt><trkpt lat="45.59719229061751" lon="10.774358241605183"><ele>227.0</ele><time>2026-03-28T11:35:16Z</time></trkpt><trkpt lat="45.59716843427566" lon="10.774182947850472"><ele>227.0</ele><time>2026-03-28T11:35:17Z</time></trkpt><trkpt lat="45.59711565577067" lon="10.77404081519005"><ele>227.0</ele><time>2026-03-28T11:35:18Z</time></trkpt><trkpt lat="45.59707638885372" lon="10.773927447938425"><ele>227.25</ele><time>2026-03-28T11:35:19Z</time></trkpt><trkpt lat="45.59702058562234" lon="10.773793504721763"><ele>227.5</ele><time>2026-03-28T11:35:21Z</time></trkpt><trkpt lat="45.59687723888246" lon="10.773919374087523"><ele>227.75</ele><time>2026-03-28T11:35:23Z</time></trkpt><trkpt lat="45.59675927132114" lon="10.773934434313135"><ele>228.0</ele><time>2026-03-28T11:35:24Z</time></trkpt><trkpt lat="45.59662743042661" lon="10.774015959975365"><ele>226.66666666666669</ele><time>2026-03-28T11:35:25.001Z</time></trkpt><trkpt lat="45.596500399248285" lon="10.774142769927849"><ele>225.33333333333334</ele><time>2026-03-28T11:35:26.001Z</time></trkpt><trkpt lat="45.596377491449076" lon="10.774298127505643"><ele>224.0</ele><time>2026-03-28T11:35:27.001Z</time></trkpt><trkpt lat="45.59625228259018" lon="10.774484966754526"><ele>223.66666666666669</ele><time>2026-03-28T11:35:28.001Z</time></trkpt><trkpt lat="45.59614328893694" lon="10.774695698004024"><ele>223.33333333333331</ele><time>2026-03-28T11:35:29.001Z</time></trkpt><trkpt lat="45.59601383176665" lon="10.774907910615996"><ele>223.0</ele><time>2026-03-28T11:35:30.001Z</time></trkpt><trkpt lat="45.59586511585989" lon="10.775080697271063"><ele>224.0</ele><time>2026-03-28T11:35:31.001Z</time></trkpt><trkpt lat="45.59571820194751" lon="10.775202720239323"><ele>225.0</ele><time>2026-03-28T11:35:32.001Z</time></trkpt><trkpt lat="45.5955768190688" lon="10.775309285657922"><ele>226.0</ele><time>2026-03-28T11:35:33.001Z</time></trkpt><trkpt lat="45.59542726414302" lon="10.77542288934722"><ele>226.0</ele><time>2026-03-28T11:35:34.001Z</time></trkpt><trkpt lat="45.595286320064055" lon="10.775562530984628"><ele>226.0</ele><time>2026-03-28T11:35:35.001Z</time></trkpt><trkpt lat="45.59514803005965" lon="10.775688220684518"><ele>226.0</ele><time>2026-03-28T11:35:36.001Z</time></trkpt><trkpt lat="45.5950215261737" lon="10.77581459583611"><ele>226.0</ele><time>2026-03-28T11:35:37.001Z</time></trkpt><trkpt lat="45.594911063891786" lon="10.775926567914413"><ele>226.00000000000003</ele><time>2026-03-28T11:35:38.001Z</time></trkpt><trkpt lat="45.5948091921048" lon="10.77601107008194"><ele>226.00000000000003</ele><time>2026-03-28T11:35:39.001Z</time></trkpt><trkpt lat="45.59472509430741" lon="10.776077288472292"><ele>226.0</ele><time>2026-03-28T11:35:40.001Z</time></trkpt><trkpt lat="45.594664157914835" lon="10.776148383172977"><ele>226.0</ele><time>2026-03-28T11:35:41.001Z</time></trkpt><trkpt lat="45.59461365428821" lon="10.776207973627267"><ele>225.66666666666666</ele><time>2026-03-28T11:35:42.001Z</time></trkpt><trkpt lat="45.59440801382512" lon="10.775945078094455"><ele>225.33333333333331</ele><time>2026-03-28T11:35:44.001Z</time></trkpt><trkpt lat="45.59430268454645" lon="10.775787429651189"><ele>225.0</ele><time>2026-03-28T11:35:45.001Z</time></trkpt><trkpt lat="45.59418586989134" lon="10.775619998716373"><ele>225.0</ele><time>2026-03-28T11:35:46.001Z</time></trkpt><trkpt lat="45.59404878580316" lon="10.775436217930036"><ele>225.0</ele><time>2026-03-28T11:35:47.001Z</time></trkpt><trkpt lat="45.59390903564718" lon="10.77524081337037"><ele>225.0</ele><time>2026-03-28T11:35:48.001Z</time></trkpt><trkpt lat="45.59376964477012" lon="10.775037532084283"><ele>224.66666666666669</ele><time>2026-03-28T11:35:49.001Z</time></trkpt><trkpt lat="45.59364069213676" lon="10.77487005286333"><ele>224.33333333333334</ele><time>2026-03-28T11:35:50.001Z</time></trkpt><trkpt lat="45.59351771085023" lon="10.774730958479156"><ele>224.0</ele><time>2026-03-28T11:35:51.001Z</time></trkpt><trkpt lat="45.593369016082285" lon="10.774616949789243"><ele>224.0</ele><time>2026-03-28T11:35:52.001Z</time></trkpt><trkpt lat="45.593183609230515" lon="10.774527314199787"><ele>224.0</ele><time>2026-03-28T11:35:53.001Z</time></trkpt><trkpt lat="45.592959239002475" lon="10.774442973860307"><ele>224.0</ele><time>2026-03-28T11:35:54.001Z</time></trkpt><trkpt lat="45.5927671115894" lon="10.7743485207027"><ele>224.33333333333334</ele><time>2026-03-28T11:35:55.001Z</time></trkpt><trkpt lat="45.592582968720535" lon="10.774246371771223"><ele>224.66666666666669</ele><time>2026-03-28T11:35:56.002Z</time></trkpt><trkpt lat="45.59240925553656" lon="10.774148256341597"><ele>225.0</ele><time>2026-03-28T11:35:57.002Z</time></trkpt><trkpt lat="45.59225110808522" lon="10.774052831158388"><ele>225.0</ele><time>2026-03-28T11:35:58.002Z</time></trkpt><trkpt lat="45.592098365445935" lon="10.773957904461046"><ele>225.0</ele><time>2026-03-28T11:35:59.002Z</time></trkpt><trkpt lat="45.59194696111912" lon="10.773871400099559"><ele>225.0</ele><time>2026-03-28T11:36:00.002Z</time></trkpt><trkpt lat="45.59178599152953" lon="10.773804821924102"><ele>224.33333333333331</ele><time>2026-03-28T11:36:01.002Z</time></trkpt><trkpt lat="45.59163551906883" lon="10.773721349217299"><ele>223.66666666666666</ele><time>2026-03-28T11:36:02.002Z</time></trkpt><trkpt lat="45.59149339370745" lon="10.773637022849252"><ele>223.0</ele><time>2026-03-28T11:36:03.002Z</time></trkpt><trkpt lat="45.591339969534005" lon="10.773559138360378"><ele>222.33333333333331</ele><time>2026-03-28T11:36:04.002Z</time></trkpt><trkpt lat="45.59116758213064" lon="10.773482572793586"><ele>221.66666666666669</ele><time>2026-03-28T11:36:05.002Z</time></trkpt><trkpt lat="45.591024005967206" lon="10.77339920705769"><ele>221.0</ele><time>2026-03-28T11:36:06.002Z</time></trkpt><trkpt lat="45.59089300695403" lon="10.773312686098658"><ele>221.0</ele><time>2026-03-28T11:36:07.002Z</time></trkpt><trkpt lat="45.59077273188535" lon="10.773220541491792"><ele>221.0</ele><time>2026-03-28T11:36:08.002Z</time></trkpt><trkpt lat="45.59066351549809" lon="10.773097570294025"><ele>221.0</ele><time>2026-03-28T11:36:09.002Z</time></trkpt><trkpt lat="45.59056777229109" lon="10.77297036998373"><ele>221.0</ele><time>2026-03-28T11:36:10.002Z</time></trkpt><trkpt lat="45.590490534853764" lon="10.772865809096858"><ele>221.00000000000003</ele><time>2026-03-28T11:36:11.002Z</time></trkpt><trkpt lat="45.5904295644924" lon="10.772779861746407"><ele>221.0</ele><time>2026-03-28T11:36:12.002Z</time></trkpt><trkpt lat="45.590417105799226" lon="10.772638607816809"><ele>221.0</ele><time>2026-03-28T11:36:14.002Z</time></trkpt><trkpt lat="45.59043957236646" lon="10.7725357576213"><ele>221.0</ele><time>2026-03-28T11:36:15.002Z</time></trkpt><trkpt lat="45.590479395798006" lon="10.772428914822866"><ele>221.00000000000003</ele><time>2026-03-28T11:36:16.002Z</time></trkpt><trkpt lat="45.59053217455651" lon="10.772358284102186"><ele>221.0</ele><time>2026-03-28T11:36:17.002Z</time></trkpt><trkpt lat="45.590591211949416" lon="10.772248363832459"><ele>221.0</ele><time>2026-03-28T11:36:18.002Z</time></trkpt><trkpt lat="45.590669507015754" lon="10.772145733674915"><ele>221.00000000000003</ele><time>2026-03-28T11:36:19.002Z</time></trkpt><trkpt lat="45.590717886766896" lon="10.772068088567984"><ele>221.00000000000003</ele><time>2026-03-28T11:36:20.002Z</time></trkpt><trkpt lat="45.590774667394676" lon="10.771954999520135"><ele>221.0</ele><time>2026-03-28T11:36:21.002Z</time></trkpt><trkpt lat="45.59080826197818" lon="10.771861378476363"><ele>221.0</ele><time>2026-03-28T11:36:22.002Z</time></trkpt><trkpt lat="45.59085571256622" lon="10.771714432508055"><ele>220.5</ele><time>2026-03-28T11:36:23.002Z</time></trkpt><trkpt lat="45.59091734327507" lon="10.771554992031087"><ele>220.0</ele><time>2026-03-28T11:36:24.002Z</time></trkpt><trkpt lat="45.59097901213305" lon="10.771375783840194"><ele>219.5</ele><time>2026-03-28T11:36:25.002Z</time></trkpt><trkpt lat="45.59104680670331" lon="10.771242737168027"><ele>219.0</ele><time>2026-03-28T11:36:26.002Z</time></trkpt><trkpt lat="45.591078515890054" lon="10.771131744451539"><ele>219.0</ele><time>2026-03-28T11:36:27.002Z</time></trkpt><trkpt lat="45.591067852179314" lon="10.771006060091963"><ele>219.0</ele><time>2026-03-28T11:36:28.002Z</time></trkpt><trkpt lat="45.59105002751874" lon="10.770820057480565"><ele>219.0</ele><time>2026-03-28T11:36:29.003Z</time></trkpt><trkpt lat="45.59102957836071" lon="10.77065529572533"><ele>219.0</ele><time>2026-03-28T11:36:30.003Z</time></trkpt><trkpt lat="45.5910254789772" lon="10.770490427399581"><ele>219.0</ele><time>2026-03-28T11:36:31.003Z</time></trkpt><trkpt lat="45.591030454779975" lon="10.770296437948556"><ele>219.0</ele><time>2026-03-28T11:36:32.003Z</time></trkpt><trkpt lat="45.59104629985855" lon="10.770140314385984"><ele>219.0</ele><time>2026-03-28T11:36:33.003Z</time></trkpt><trkpt lat="45.59107805458923" lon="10.769972361113963"><ele>219.0</ele><time>2026-03-28T11:36:34.003Z</time></trkpt><trkpt lat="45.591126457395966" lon="10.769795899618217"><ele>219.0</ele><time>2026-03-28T11:36:35.003Z</time></trkpt><trkpt lat="45.59118018419867" lon="10.769616841682975"><ele>219.0</ele><time>2026-03-28T11:36:36.003Z</time></trkpt><trkpt lat="45.59124368159754" lon="10.769441833948983"><ele>219.0</ele><time>2026-03-28T11:36:37.003Z</time></trkpt><trkpt lat="45.591304707883424" lon="10.769266596525537"><ele>219.0</ele><time>2026-03-28T11:36:38.003Z</time></trkpt><trkpt lat="45.59134654555262" lon="10.769097853101236"><ele>218.5</ele><time>2026-03-28T11:36:39.003Z</time></trkpt><trkpt lat="45.59140859253134" lon="10.768912269199673"><ele>218.0</ele><time>2026-03-28T11:36:40.003Z</time></trkpt><trkpt lat="45.59144848368325" lon="10.768742448065023"><ele>217.5</ele><time>2026-03-28T11:36:41.003Z</time></trkpt><trkpt lat="45.591480484261545" lon="10.768571568002224"><ele>217.0</ele><time>2026-03-28T11:36:42.003Z</time></trkpt><trkpt lat="45.59150520437866" lon="10.768419633734268"><ele>217.0</ele><time>2026-03-28T11:36:43.003Z</time></trkpt><trkpt lat="45.59152114962945" lon="10.768291130463057"><ele>217.0</ele><time>2026-03-28T11:36:44.003Z</time></trkpt><trkpt lat="45.59153158763203" lon="10.768167358060314"><ele>217.0</ele><time>2026-03-28T11:36:45.003Z</time></trkpt><trkpt lat="45.591523450373195" lon="10.768018387280195"><ele>217.0</ele><time>2026-03-28T11:36:46.003Z</time></trkpt><trkpt lat="45.591503137934765" lon="10.76783425251742"><ele>217.0</ele><time>2026-03-28T11:36:47.003Z</time></trkpt><trkpt lat="45.591484516530265" lon="10.767637619569372"><ele>217.25</ele><time>2026-03-28T11:36:48.003Z</time></trkpt><trkpt lat="45.591488417273524" lon="10.767453734893985"><ele>217.5</ele><time>2026-03-28T11:36:49.003Z</time></trkpt><trkpt lat="45.59150929526911" lon="10.767269318902496"><ele>217.75</ele><time>2026-03-28T11:36:50.003Z</time></trkpt><trkpt lat="45.59153832004819" lon="10.767089060594948"><ele>218.0</ele><time>2026-03-28T11:36:51.003Z</time></trkpt><trkpt lat="45.5915847719002" lon="10.766917797552665"><ele>217.33333333333334</ele><time>2026-03-28T11:36:52.003Z</time></trkpt><trkpt lat="45.5916518113029" lon="10.766722929867575"><ele>216.66666666666669</ele><time>2026-03-28T11:36:53.003Z</time></trkpt><trkpt lat="45.59173684365984" lon="10.766525922450988"><ele>216.0</ele><time>2026-03-28T11:36:54.003Z</time></trkpt><trkpt lat="45.591818758901226" lon="10.766336044486614"><ele>216.0</ele><time>2026-03-28T11:36:55.003Z</time></trkpt><trkpt lat="45.59189670914482" lon="10.766119138244768"><ele>216.0</ele><time>2026-03-28T11:36:56.003Z</time></trkpt><trkpt lat="45.59198851508286" lon="10.765902258161166"><ele>216.0</ele><time>2026-03-28T11:36:57.003Z</time></trkpt><trkpt lat="45.59211376974725" lon="10.76566553625254"><ele>216.0</ele><time>2026-03-28T11:36:58.003Z</time></trkpt><trkpt lat="45.59224084610416" lon="10.765461061291793"><ele>216.0</ele><time>2026-03-28T11:36:59Z</time></trkpt><trkpt lat="45.592368352344" lon="10.765270289344986"><ele>216.0</ele><time>2026-03-28T11:37:00Z</time></trkpt><trkpt lat="45.59248491728207" lon="10.765092408039914"><ele>216.25</ele><time>2026-03-28T11:37:01Z</time></trkpt><trkpt lat="45.592563163528794" lon="10.764939804785199"><ele>216.5</ele><time>2026-03-28T11:37:02Z</time></trkpt><trkpt lat="45.592608529640074" lon="10.764823161091448"><ele>216.75</ele><time>2026-03-28T11:37:03Z</time></trkpt><trkpt lat="45.5926082663314" lon="10.764689738736173"><ele>217.0</ele><time>2026-03-28T11:37:05Z</time></trkpt><trkpt lat="45.592527673841104" lon="10.764524260113067"><ele>217.0</ele><time>2026-03-28T11:37:07Z</time></trkpt><trkpt lat="45.59247425287205" lon="10.764466378229464"><ele>217.0</ele><time>2026-03-28T11:37:08Z</time></trkpt><trkpt lat="45.59241251721402" lon="10.76438541131603"><ele>217.0</ele><time>2026-03-28T11:37:09Z</time></trkpt><trkpt lat="45.59233644887522" lon="10.764274939958066"><ele>217.0</ele><time>2026-03-28T11:37:10Z</time></trkpt><trkpt lat="45.59223919585298" lon="10.764175144841918"><ele>217.0</ele><time>2026-03-28T11:37:11Z</time></trkpt><trkpt lat="45.592138119664334" lon="10.76411463271468"><ele>216.8</ele><time>2026-03-28T11:37:12Z</time></trkpt><trkpt lat="45.59204697863002" lon="10.764074391828425"><ele>216.6</ele><time>2026-03-28T11:37:13Z</time></trkpt><trkpt lat="45.59196098805723" lon="10.764021520922288"><ele>216.40000000000003</ele><time>2026-03-28T11:37:15Z</time></trkpt><trkpt lat="45.5920046950703" lon="10.763936688277504"><ele>216.20000000000002</ele><time>2026-03-28T11:37:17Z</time></trkpt><trkpt lat="45.59209601376314" lon="10.763855702620951"><ele>216.0</ele><time>2026-03-28T11:37:19Z</time></trkpt><trkpt lat="45.59219385364152" lon="10.763823021162851"><ele>216.0</ele><time>2026-03-28T11:37:20Z</time></trkpt><trkpt lat="45.59232433565129" lon="10.763809555449983"><ele>216.0</ele><time>2026-03-28T11:37:21Z</time></trkpt><trkpt lat="45.592472581515445" lon="10.763819750182824"><ele>216.0</ele><time>2026-03-28T11:37:22Z</time></trkpt><trkpt lat="45.59262359099274" lon="10.763841874585122"><ele>216.0</ele><time>2026-03-28T11:37:23Z</time></trkpt><trkpt lat="45.5927543755953" lon="10.76387454648348"><ele>216.0</ele><time>2026-03-28T11:37:24Z</time></trkpt><trkpt lat="45.592877894850815" lon="10.763893010396139"><ele>216.00000000000003</ele><time>2026-03-28T11:37:25Z</time></trkpt><trkpt lat="45.59297365078875" lon="10.763902608038363"><ele>216.00000000000003</ele><time>2026-03-28T11:37:26Z</time></trkpt><trkpt lat="45.593033647928884" lon="10.763965528943833"><ele>216.0</ele><time>2026-03-28T11:37:29.001Z</time></trkpt><trkpt lat="45.59309959161434" lon="10.763855689814472"><ele>216.0</ele><time>2026-03-28T11:37:31.001Z</time></trkpt><trkpt lat="45.593161861449175" lon="10.763747640825839"><ele>216.0</ele><time>2026-03-28T11:37:33.001Z</time></trkpt><trkpt lat="45.59321462664445" lon="10.763641043347736"><ele>216.0</ele><time>2026-03-28T11:37:34.001Z</time></trkpt><trkpt lat="45.59327850974594" lon="10.763456698477997"><ele>216.0</ele><time>2026-03-28T11:37:35.001Z</time></trkpt><trkpt lat="45.59335647950856" lon="10.763256834516719"><ele>216.0</ele><time>2026-03-28T11:37:36.001Z</time></trkpt><trkpt lat="45.59343122725988" lon="10.763062260641144"><ele>216.0</ele><time>2026-03-28T11:37:37.001Z</time></trkpt><trkpt lat="45.59349445171169" lon="10.762869383770166"><ele>216.0</ele><time>2026-03-28T11:37:38.001Z</time></trkpt><trkpt lat="45.59354959961314" lon="10.762682272624811"><ele>216.0</ele><time>2026-03-28T11:37:39.001Z</time></trkpt><trkpt lat="45.59358722275257" lon="10.762469914167493"><ele>216.0</ele><time>2026-03-28T11:37:40.001Z</time></trkpt><trkpt lat="45.5936249659224" lon="10.76220554412036"><ele>216.0</ele><time>2026-03-28T11:37:41.001Z</time></trkpt><trkpt lat="45.59366302152659" lon="10.761908349930266"><ele>216.0</ele><time>2026-03-28T11:37:42.001Z</time></trkpt><trkpt lat="45.59368696196814" lon="10.761638896640326"><ele>216.0</ele><time>2026-03-28T11:37:43.001Z</time></trkpt><trkpt lat="45.59370301756163" lon="10.761371788921517"><ele>216.0</ele><time>2026-03-28T11:37:44.001Z</time></trkpt><trkpt lat="45.59369946544174" lon="10.761075785925668"><ele>216.0</ele><time>2026-03-28T11:37:45.001Z</time></trkpt><trkpt lat="45.59369780413485" lon="10.7607502944005"><ele>216.0</ele><time>2026-03-28T11:37:46.001Z</time></trkpt><trkpt lat="45.59370722311707" lon="10.76041202003299"><ele>216.66666666666669</ele><time>2026-03-28T11:37:47.001Z</time></trkpt><trkpt lat="45.59371217528938" lon="10.76009721966078"><ele>217.33333333333334</ele><time>2026-03-28T11:37:48.001Z</time></trkpt><trkpt lat="45.593719909923976" lon="10.75980321756504"><ele>218.0</ele><time>2026-03-28T11:37:49.001Z</time></trkpt><trkpt lat="45.593731424620934" lon="10.7595412928508"><ele>219.33333333333334</ele><time>2026-03-28T11:37:50.001Z</time></trkpt><trkpt lat="45.5937452053438" lon="10.759315321536656"><ele>220.66666666666669</ele><time>2026-03-28T11:37:51.001Z</time></trkpt><trkpt lat="45.59376262521031" lon="10.759111733081927"><ele>222.0</ele><time>2026-03-28T11:37:52.001Z</time></trkpt><trkpt lat="45.59379427817852" lon="10.758867075599152"><ele>222.0</ele><time>2026-03-28T11:37:53.001Z</time></trkpt><trkpt lat="45.59381779998874" lon="10.758650420525761"><ele>222.0</ele><time>2026-03-28T11:37:54.001Z</time></trkpt><trkpt lat="45.59382926868234" lon="10.758539975280746"><ele>222.0</ele><time>2026-03-28T11:37:55.001Z</time></trkpt><trkpt lat="45.59384778116897" lon="10.758403454309816"><ele>222.0</ele><time>2026-03-28T11:37:56.001Z</time></trkpt><trkpt lat="45.593892927684635" lon="10.758314220322292"><ele>222.0</ele><time>2026-03-28T11:37:57.001Z</time></trkpt><trkpt lat="45.59395772153313" lon="10.758189114108628"><ele>221.33333333333331</ele><time>2026-03-28T11:37:58.001Z</time></trkpt><trkpt lat="45.59399531895184" lon="10.758027331247877"><ele>220.66666666666666</ele><time>2026-03-28T11:37:59.001Z</time></trkpt><trkpt lat="45.59407061230041" lon="10.75782646838911"><ele>220.0</ele><time>2026-03-28T11:38:00.001Z</time></trkpt><trkpt lat="45.5941462909447" lon="10.757561581344916"><ele>220.0</ele><time>2026-03-28T11:38:01.001Z</time></trkpt><trkpt lat="45.59421812308643" lon="10.757294938154217"><ele>220.0</ele><time>2026-03-28T11:38:02.001Z</time></trkpt><trkpt lat="45.594289356780536" lon="10.757024311647651"><ele>220.0</ele><time>2026-03-28T11:38:03.001Z</time></trkpt><trkpt lat="45.59435899218395" lon="10.756779913004374"><ele>220.0</ele><time>2026-03-28T11:38:04.001Z</time></trkpt><trkpt lat="45.59441060760024" lon="10.756560653543103"><ele>220.0</ele><time>2026-03-28T11:38:05.002Z</time></trkpt><trkpt lat="45.59446002746558" lon="10.756345291606555"><ele>220.0</ele><time>2026-03-28T11:38:06.002Z</time></trkpt><trkpt lat="45.59452994565447" lon="10.756112795449127"><ele>221.66666666666666</ele><time>2026-03-28T11:38:07.002Z</time></trkpt><trkpt lat="45.59460022233289" lon="10.755897275657574"><ele>223.33333333333331</ele><time>2026-03-28T11:38:08.002Z</time></trkpt><trkpt lat="45.594672790592846" lon="10.755717379957684"><ele>225.0</ele><time>2026-03-28T11:38:09.002Z</time></trkpt><trkpt lat="45.59474471547162" lon="10.755546543067448"><ele>225.0</ele><time>2026-03-28T11:38:10.002Z</time></trkpt><trkpt lat="45.59481697577229" lon="10.75537210429043"><ele>225.0</ele><time>2026-03-28T11:38:11.002Z</time></trkpt><trkpt lat="45.5948914972813" lon="10.755192182844784"><ele>225.0</ele><time>2026-03-28T11:38:12.002Z</time></trkpt><trkpt lat="45.594964810600906" lon="10.755009997234525"><ele>225.0</ele><time>2026-03-28T11:38:13.002Z</time></trkpt><trkpt lat="45.59503608522056" lon="10.754823019826055"><ele>225.25</ele><time>2026-03-28T11:38:14.002Z</time></trkpt><trkpt lat="45.595095037841986" lon="10.754626273393006"><ele>225.5</ele><time>2026-03-28T11:38:15.002Z</time></trkpt><trkpt lat="45.595145711765596" lon="10.754439850463218"><ele>225.75</ele><time>2026-03-28T11:38:16.002Z</time></trkpt><trkpt lat="45.595195320273966" lon="10.754255489823134"><ele>226.0</ele><time>2026-03-28T11:38:17.002Z</time></trkpt><trkpt lat="45.595237148225394" lon="10.75406926862126"><ele>226.20000000000002</ele><time>2026-03-28T11:38:18.002Z</time></trkpt><trkpt lat="45.59527026707771" lon="10.753899752730621"><ele>226.40000000000003</ele><time>2026-03-28T11:38:19.002Z</time></trkpt><trkpt lat="45.59530111054107" lon="10.753749125219063"><ele>226.6</ele><time>2026-03-28T11:38:20.002Z</time></trkpt><trkpt lat="45.59533084531055" lon="10.753597920514336"><ele>226.8</ele><time>2026-03-28T11:38:21.002Z</time></trkpt><trkpt lat="45.59535268824384" lon="10.753477481342424"><ele>227.0</ele><time>2026-03-28T11:38:22.002Z</time></trkpt><trkpt lat="45.59536717607576" lon="10.753333115481233"><ele>228.75</ele><time>2026-03-28T11:38:24.002Z</time></trkpt><trkpt lat="45.59539400708158" lon="10.753202622053337"><ele>230.5</ele><time>2026-03-28T11:38:27.002Z</time></trkpt><trkpt lat="45.59552401673588" lon="10.75321471904443"><ele>232.25</ele><time>2026-03-28T11:38:28.002Z</time></trkpt><trkpt lat="45.59563669160873" lon="10.75315733362387"><ele>234.0</ele><time>2026-03-28T11:38:29.002Z</time></trkpt><trkpt lat="45.595740690198205" lon="10.753137109127096"><ele>234.0</ele><time>2026-03-28T11:38:30.002Z</time></trkpt><trkpt lat="45.59580790198402" lon="10.753110838190207"><ele>233.99999999999997</ele><time>2026-03-28T11:38:31.002Z</time></trkpt><trkpt lat="45.5958807968183" lon="10.753082345952894"><ele>233.99999999999997</ele><time>2026-03-28T11:38:33.002Z</time></trkpt><trkpt lat="45.59580473923175" lon="10.752842841210207"><ele>234.0</ele><time>2026-03-28T11:38:35.002Z</time></trkpt><trkpt lat="45.59570516228794" lon="10.752776476345085"><ele>234.0</ele><time>2026-03-28T11:38:36.002Z</time></trkpt><trkpt lat="45.59560306357542" lon="10.75270858451227"><ele>233.33333333333331</ele><time>2026-03-28T11:38:37.002Z</time></trkpt><trkpt lat="45.59547926564991" lon="10.752589180007888"><ele>232.66666666666666</ele><time>2026-03-28T11:38:38.002Z</time></trkpt><trkpt lat="45.5953276218211" lon="10.752459320808901"><ele>232.0</ele><time>2026-03-28T11:38:39.002Z</time></trkpt><trkpt lat="45.595157445893314" lon="10.752302999196447"><ele>231.0</ele><time>2026-03-28T11:38:40.002Z</time></trkpt><trkpt lat="45.594976969384724" lon="10.752124859363626"><ele>230.0</ele><time>2026-03-28T11:38:41.003Z</time></trkpt><trkpt lat="45.59478910170216" lon="10.751936278220352"><ele>229.0</ele><time>2026-03-28T11:38:42.003Z</time></trkpt><trkpt lat="45.594593290582914" lon="10.751739723516845"><ele>226.5</ele><time>2026-03-28T11:38:43.003Z</time></trkpt><trkpt lat="45.594400356163234" lon="10.751544041151472"><ele>224.0</ele><time>2026-03-28T11:38:44.003Z</time></trkpt><trkpt lat="45.594209034068484" lon="10.75134967360935"><ele>224.0</ele><time>2026-03-28T11:38:45.003Z</time></trkpt><trkpt lat="45.59401115045732" lon="10.751148640033751"><ele>224.0</ele><time>2026-03-28T11:38:46.003Z</time></trkpt><trkpt lat="45.59380739222468" lon="10.75094163850099"><ele>224.0</ele><time>2026-03-28T11:38:47.003Z</time></trkpt><trkpt lat="45.59361052498774" lon="10.750737831187836"><ele>224.0</ele><time>2026-03-28T11:38:48.003Z</time></trkpt><trkpt lat="45.593409730561554" lon="10.750551441340722"><ele>224.0</ele><time>2026-03-28T11:38:49.003Z</time></trkpt><trkpt lat="45.59320424958667" lon="10.750389592229405"><ele>224.0</ele><time>2026-03-28T11:38:50.003Z</time></trkpt><trkpt lat="45.592987537880404" lon="10.750255242782002"><ele>223.0</ele><time>2026-03-28T11:38:51.003Z</time></trkpt><trkpt lat="45.59277845466713" lon="10.750106713541372"><ele>222.0</ele><time>2026-03-28T11:38:52.003Z</time></trkpt><trkpt lat="45.592567824419504" lon="10.749964691517315"><ele>222.0</ele><time>2026-03-28T11:38:53.003Z</time></trkpt><trkpt lat="45.59235776909459" lon="10.749818569886864"><ele>222.0</ele><time>2026-03-28T11:38:54.003Z</time></trkpt><trkpt lat="45.59216544355606" lon="10.749650937862475"><ele>222.0</ele><time>2026-03-28T11:38:55.003Z</time></trkpt><trkpt lat="45.59197075030815" lon="10.749500527327625"><ele>222.0</ele><time>2026-03-28T11:38:56.003Z</time></trkpt><trkpt lat="45.59177555516158" lon="10.74934165285393"><ele>222.0</ele><time>2026-03-28T11:38:57.003Z</time></trkpt><trkpt lat="45.59158049752165" lon="10.749175741162373"><ele>222.0</ele><time>2026-03-28T11:38:58.003Z</time></trkpt><trkpt lat="45.59139778025066" lon="10.749020624491898"><ele>222.0</ele><time>2026-03-28T11:38:59.003Z</time></trkpt><trkpt lat="45.59121785408547" lon="10.748870055339342"><ele>222.0</ele><time>2026-03-28T11:39:00.003Z</time></trkpt><trkpt lat="45.5910341348099" lon="10.74871631200917"><ele>222.0</ele><time>2026-03-28T11:39:01.003Z</time></trkpt><trkpt lat="45.590852701077345" lon="10.748564434139452"><ele>222.0</ele><time>2026-03-28T11:39:02.003Z</time></trkpt><trkpt lat="45.590674302796415" lon="10.748415081055194"><ele>222.0</ele><time>2026-03-28T11:39:03.003Z</time></trkpt><trkpt lat="45.59049920136969" lon="10.748268954507694"><ele>222.0</ele><time>2026-03-28T11:39:04.003Z</time></trkpt><trkpt lat="45.5903244513495" lon="10.748129698841126"><ele>222.0</ele><time>2026-03-28T11:39:05Z</time></trkpt><trkpt lat="45.59013824997068" lon="10.748020289093745"><ele>222.0</ele><time>2026-03-28T11:39:06Z</time></trkpt><trkpt lat="45.58995554918588" lon="10.747895532768716"><ele>222.0</ele><time>2026-03-28T11:39:07Z</time></trkpt><trkpt lat="45.58976681957729" lon="10.747787954784025"><ele>222.0</ele><time>2026-03-28T11:39:08Z</time></trkpt><trkpt lat="45.589584452340645" lon="10.747655985320383"><ele>222.0</ele><time>2026-03-28T11:39:09Z</time></trkpt><trkpt lat="45.589396700412344" lon="10.74754288538083"><ele>221.66666666666669</ele><time>2026-03-28T11:39:10Z</time></trkpt><trkpt lat="45.58921231370268" lon="10.747431812174765"><ele>221.33333333333334</ele><time>2026-03-28T11:39:11Z</time></trkpt><trkpt lat="45.589040433992686" lon="10.74732841516938"><ele>221.0</ele><time>2026-03-28T11:39:12Z</time></trkpt><trkpt lat="45.58888419657487" lon="10.747234818780127"><ele>221.0</ele><time>2026-03-28T11:39:13Z</time></trkpt><trkpt lat="45.58873263167671" lon="10.747144021525864"><ele>221.0</ele><time>2026-03-28T11:39:14Z</time></trkpt><trkpt lat="45.588578210806595" lon="10.747051513204955"><ele>221.0</ele><time>2026-03-28T11:39:15Z</time></trkpt><trkpt lat="45.588442685918885" lon="10.74697443609311"><ele>221.00000000000003</ele><time>2026-03-28T11:39:16Z</time></trkpt><trkpt lat="45.58832585634146" lon="10.746925529511213"><ele>221.0</ele><time>2026-03-28T11:39:17Z</time></trkpt><trkpt lat="45.58824404470309" lon="10.7468666982027"><ele>221.0</ele><time>2026-03-28T11:39:18Z</time></trkpt><trkpt lat="45.58819034957436" lon="10.746817879673442"><ele>221.0</ele><time>2026-03-28T11:39:19Z</time></trkpt><trkpt lat="45.5881500803605" lon="10.746742923273382"><ele>221.00000000000003</ele><time>2026-03-28T11:39:22Z</time></trkpt><trkpt lat="45.58809572398313" lon="10.746627737404513"><ele>221.0</ele><time>2026-03-28T11:39:24Z</time></trkpt><trkpt lat="45.58803969005125" lon="10.746564811323118"><ele>221.50000000000003</ele><time>2026-03-28T11:39:25Z</time></trkpt><trkpt lat="45.587999610103594" lon="10.746489055096122"><ele>222.0</ele><time>2026-03-28T11:39:26Z</time></trkpt><trkpt lat="45.58791267985663" lon="10.746538751884952"><ele>222.5</ele><time>2026-03-28T11:39:27Z</time></trkpt><trkpt lat="45.58784403332392" lon="10.746609726208938"><ele>223.0</ele><time>2026-03-28T11:39:28Z</time></trkpt><trkpt lat="45.58779153023314" lon="10.746722719774903"><ele>223.50000000000003</ele><time>2026-03-28T11:39:29Z</time></trkpt><trkpt lat="45.58774204559146" lon="10.746862711496798"><ele>224.0</ele><time>2026-03-28T11:39:30Z</time></trkpt><trkpt lat="45.587681026436854" lon="10.747002431695025"><ele>224.0</ele><time>2026-03-28T11:39:31Z</time></trkpt><trkpt lat="45.58761001401362" lon="10.74713758600432"><ele>224.0</ele><time>2026-03-28T11:39:32Z</time></trkpt><trkpt lat="45.58752555635517" lon="10.747278098162527"><ele>224.0</ele><time>2026-03-28T11:39:33Z</time></trkpt><trkpt lat="45.58742657855129" lon="10.747405447224567"><ele>224.0</ele><time>2026-03-28T11:39:34Z</time></trkpt><trkpt lat="45.587320627682985" lon="10.747538331599928"><ele>224.0</ele><time>2026-03-28T11:39:35Z</time></trkpt><trkpt lat="45.587214994849006" lon="10.747665696635071"><ele>224.0</ele><time>2026-03-28T11:39:36Z</time></trkpt><trkpt lat="45.5871170341474" lon="10.74776733484273"><ele>224.0</ele><time>2026-03-28T11:39:37.001Z</time></trkpt><trkpt lat="45.587028132537505" lon="10.747852226747211"><ele>224.0</ele><time>2026-03-28T11:39:38.001Z</time></trkpt><trkpt lat="45.58691963234746" lon="10.747932642806267"><ele>223.66666666666669</ele><time>2026-03-28T11:39:39.001Z</time></trkpt><trkpt lat="45.58680026252294" lon="10.748026541199847"><ele>223.33333333333331</ele><time>2026-03-28T11:39:40.001Z</time></trkpt><trkpt lat="45.58667439539138" lon="10.748145098351088"><ele>223.0</ele><time>2026-03-28T11:39:41.001Z</time></trkpt><trkpt lat="45.586542989945976" lon="10.748283455669682"><ele>223.0</ele><time>2026-03-28T11:39:42.001Z</time></trkpt><trkpt lat="45.586407380825484" lon="10.748419406591088"><ele>223.0</ele><time>2026-03-28T11:39:43.001Z</time></trkpt><trkpt lat="45.58626929660345" lon="10.748555047829546"><ele>223.0</ele><time>2026-03-28T11:39:44.001Z</time></trkpt><trkpt lat="45.586125916532815" lon="10.748685937914948"><ele>222.5</ele><time>2026-03-28T11:39:45.001Z</time></trkpt><trkpt lat="45.58600408847441" lon="10.748793633441808"><ele>222.0</ele><time>2026-03-28T11:39:46.001Z</time></trkpt><trkpt lat="45.585908742223914" lon="10.748879519531451"><ele>221.5</ele><time>2026-03-28T11:39:47.001Z</time></trkpt><trkpt lat="45.58581479138723" lon="10.74896080100488"><ele>221.0</ele><time>2026-03-28T11:39:48.001Z</time></trkpt><trkpt lat="45.58572444916374" lon="10.749038350045147"><ele>221.0</ele><time>2026-03-28T11:39:49.001Z</time></trkpt><trkpt lat="45.585656652522694" lon="10.749106370371923"><ele>221.00000000000003</ele><time>2026-03-28T11:39:50.001Z</time></trkpt><trkpt lat="45.585587719503216" lon="10.749136432362892"><ele>221.00000000000003</ele><time>2026-03-28T11:39:53.001Z</time></trkpt><trkpt lat="45.58555495492107" lon="10.748880932426896"><ele>221.0</ele><time>2026-03-28T11:39:54.001Z</time></trkpt><trkpt lat="45.58552260908858" lon="10.74879303669402"><ele>221.0</ele><time>2026-03-28T11:39:55.001Z</time></trkpt><trkpt lat="45.585486949768196" lon="10.748715722463368"><ele>222.0</ele><time>2026-03-28T11:39:56.001Z</time></trkpt><trkpt lat="45.58514742319977" lon="10.748900816924412"><ele>223.0</ele><time>2026-03-28T11:39:57.001Z</time></trkpt><trkpt lat="45.58500955482311" lon="10.748995256297357"><ele>223.0</ele><time>2026-03-28T11:39:58.001Z</time></trkpt><trkpt lat="45.584871843730824" lon="10.749145620119274"><ele>223.0</ele><time>2026-03-28T11:39:59.001Z</time></trkpt><trkpt lat="45.58473879228407" lon="10.749332246168311"><ele>223.0</ele><time>2026-03-28T11:40:00.001Z</time></trkpt><trkpt lat="45.584638993510616" lon="10.749483851017239"><ele>223.2</ele><time>2026-03-28T11:40:01.001Z</time></trkpt><trkpt lat="45.584545525364085" lon="10.749574381754883"><ele>223.4</ele><time>2026-03-28T11:40:02.001Z</time></trkpt><trkpt lat="45.584456529836515" lon="10.74960555398004"><ele>223.59999999999997</ele><time>2026-03-28T11:40:03.001Z</time></trkpt><trkpt lat="45.58435299463095" lon="10.749613191278094"><ele>223.79999999999998</ele><time>2026-03-28T11:40:04.001Z</time></trkpt><trkpt lat="45.584249719751874" lon="10.749611312811851"><ele>224.0</ele><time>2026-03-28T11:40:05.001Z</time></trkpt><trkpt lat="45.58416595073188" lon="10.74960847986622"><ele>224.00000000000003</ele><time>2026-03-28T11:40:06.001Z</time></trkpt><trkpt lat="45.58407604778224" lon="10.74960420901609"><ele>224.0</ele><time>2026-03-28T11:40:07.001Z</time></trkpt><trkpt lat="45.583969990304254" lon="10.749602946783646"><ele>224.0</ele><time>2026-03-28T11:40:08.001Z</time></trkpt><trkpt lat="45.58387900043327" lon="10.749603642041045"><ele>224.0</ele><time>2026-03-28T11:40:09.001Z</time></trkpt><trkpt lat="45.5838073750199" lon="10.749605654072548"><ele>224.00000000000003</ele><time>2026-03-28T11:40:10.001Z</time></trkpt><trkpt lat="45.583724974880646" lon="10.749617411691673"><ele>224.0</ele><time>2026-03-28T11:40:11.001Z</time></trkpt><trkpt lat="45.58359642359427" lon="10.74963583656847"><ele>225.0</ele><time>2026-03-28T11:40:12.002Z</time></trkpt><trkpt lat="45.58344016186648" lon="10.749666889512136"><ele>226.0</ele><time>2026-03-28T11:40:13.002Z</time></trkpt><trkpt lat="45.5832816570705" lon="10.749714300618555"><ele>227.0</ele><time>2026-03-28T11:40:14.002Z</time></trkpt><trkpt lat="45.58310519886021" lon="10.74975319438086"><ele>227.0</ele><time>2026-03-28T11:40:15.002Z</time></trkpt><trkpt lat="45.58294406943597" lon="10.749753343866312"><ele>227.0</ele><time>2026-03-28T11:40:16.002Z</time></trkpt><trkpt lat="45.58277345012836" lon="10.749724678065103"><ele>227.0</ele><time>2026-03-28T11:40:17.002Z</time></trkpt><trkpt lat="45.58260949261088" lon="10.749682149287377"><ele>226.33333333333334</ele><time>2026-03-28T11:40:18.002Z</time></trkpt><trkpt lat="45.58244458283138" lon="10.74963383529457"><ele>225.66666666666669</ele><time>2026-03-28T11:40:19.002Z</time></trkpt><trkpt lat="45.58228999198897" lon="10.749587903037877"><ele>225.0</ele><time>2026-03-28T11:40:20.002Z</time></trkpt><trkpt lat="45.58212584230756" lon="10.749543166100509"><ele>224.0</ele><time>2026-03-28T11:40:21.002Z</time></trkpt><trkpt lat="45.581961617192455" lon="10.749481335927815"><ele>223.0</ele><time>2026-03-28T11:40:22.002Z</time></trkpt><trkpt lat="45.58178459271571" lon="10.749435026559375"><ele>222.0</ele><time>2026-03-28T11:40:23.002Z</time></trkpt><trkpt lat="45.58157831485093" lon="10.749418919308512"><ele>222.0</ele><time>2026-03-28T11:40:24.002Z</time></trkpt><trkpt lat="45.581369457518" lon="10.74939403809506"><ele>222.0</ele><time>2026-03-28T11:40:25.002Z</time></trkpt><trkpt lat="45.58116230181101" lon="10.74936286776455"><ele>222.0</ele><time>2026-03-28T11:40:26.002Z</time></trkpt><trkpt lat="45.58097415943452" lon="10.749348113254914"><ele>222.33333333333331</ele><time>2026-03-28T11:40:27.002Z</time></trkpt><trkpt lat="45.58079243307217" lon="10.74939002422016"><ele>222.66666666666666</ele><time>2026-03-28T11:40:28.002Z</time></trkpt><trkpt lat="45.580600479290716" lon="10.749487478170648"><ele>223.0</ele><time>2026-03-28T11:40:29.002Z</time></trkpt><trkpt lat="45.58043085884789" lon="10.749611063204386"><ele>224.16666666666666</ele><time>2026-03-28T11:40:30.002Z</time></trkpt><trkpt lat="45.58031124000092" lon="10.749689130147475"><ele>225.33333333333331</ele><time>2026-03-28T11:40:31.002Z</time></trkpt><trkpt lat="45.58022787812746" lon="10.749742440370625"><ele>226.5</ele><time>2026-03-28T11:40:32.002Z</time></trkpt><trkpt lat="45.58018016543402" lon="10.749809683151279"><ele>227.66666666666669</ele><time>2026-03-28T11:40:33.002Z</time></trkpt><trkpt lat="45.58018189966206" lon="10.749905752611532"><ele>228.83333333333334</ele><time>2026-03-28T11:40:35.002Z</time></trkpt><trkpt lat="45.58011187713446" lon="10.749935865739296"><ele>230.0</ele><time>2026-03-28T11:40:37.002Z</time></trkpt><trkpt lat="45.57997803166366" lon="10.749753899588514"><ele>230.0</ele><time>2026-03-28T11:40:38.002Z</time></trkpt><trkpt lat="45.57987818294667" lon="10.749826840102493"><ele>230.0</ele><time>2026-03-28T11:40:39.002Z</time></trkpt><trkpt lat="45.57975687923008" lon="10.749911752408"><ele>230.0</ele><time>2026-03-28T11:40:40.002Z</time></trkpt><trkpt lat="45.5796275221726" lon="10.749999920597508"><ele>230.0</ele><time>2026-03-28T11:40:41.002Z</time></trkpt><trkpt lat="45.579502084513166" lon="10.750076906913394"><ele>229.75</ele><time>2026-03-28T11:40:42.002Z</time></trkpt><trkpt lat="45.57937375347116" lon="10.750152460392668"><ele>229.5</ele><time>2026-03-28T11:40:43.002Z</time></trkpt><trkpt lat="45.5792505840381" lon="10.750231895639304"><ele>229.25</ele><time>2026-03-28T11:40:44.002Z</time></trkpt><trkpt lat="45.57911300923416" lon="10.750325056350954"><ele>229.0</ele><time>2026-03-28T11:40:45.002Z</time></trkpt><trkpt lat="45.578948174672476" lon="10.750447665138028"><ele>229.0</ele><time>2026-03-28T11:40:46.002Z</time></trkpt><trkpt lat="45.57881163828912" lon="10.750540780324842"><ele>229.0</ele><time>2026-03-28T11:40:47.003Z</time></trkpt><trkpt lat="45.578675495202766" lon="10.750618502640982"><ele>229.0</ele><time>2026-03-28T11:40:48.003Z</time></trkpt><trkpt lat="45.57858049529388" lon="10.750770152806131"><ele>229.0</ele><time>2026-03-28T11:40:49.003Z</time></trkpt><trkpt lat="45.578552388518645" lon="10.750966921981563"><ele>229.49999999999997</ele><time>2026-03-28T11:40:50.003Z</time></trkpt><trkpt lat="45.578505280217094" lon="10.751032103333307"><ele>230.0</ele><time>2026-03-28T11:40:51.003Z</time></trkpt><trkpt lat="45.57848226868607" lon="10.751116259931406"><ele>230.5</ele><time>2026-03-28T11:40:53.003Z</time></trkpt><trkpt lat="45.578549203472384" lon="10.751139941380707"><ele>231.0</ele><time>2026-03-28T11:40:57.003Z</time></trkpt><trkpt lat="45.57861179096613" lon="10.751166005240316"><ele>231.49999999999997</ele><time>2026-03-28T11:40:59.003Z</time></trkpt><trkpt lat="45.5786467504212" lon="10.751287701877805"><ele>232.0</ele><time>2026-03-28T11:41:00.003Z</time></trkpt><trkpt lat="45.57869868345772" lon="10.751485648853217"><ele>230.2</ele><time>2026-03-28T11:41:01.003Z</time></trkpt><trkpt lat="45.57872883590914" lon="10.751664155875018"><ele>228.39999999999998</ele><time>2026-03-28T11:41:02.003Z</time></trkpt><trkpt lat="45.57873817260729" lon="10.751795520244448"><ele>226.60000000000002</ele><time>2026-03-28T11:41:03.003Z</time></trkpt><trkpt lat="45.57871838906682" lon="10.7519190357682"><ele>224.8</ele><time>2026-03-28T11:41:04.003Z</time></trkpt><trkpt lat="45.57868209506764" lon="10.752084938288576"><ele>223.0</ele><time>2026-03-28T11:41:05.003Z</time></trkpt><trkpt lat="45.578652267498605" lon="10.752227130419788"><ele>222.16666666666666</ele><time>2026-03-28T11:41:06.003Z</time></trkpt><trkpt lat="45.57863844867842" lon="10.752359129095591"><ele>221.33333333333331</ele><time>2026-03-28T11:41:07.003Z</time></trkpt><trkpt lat="45.57862734796758" lon="10.752480797529467"><ele>220.5</ele><time>2026-03-28T11:41:08.003Z</time></trkpt><trkpt lat="45.57859749022234" lon="10.75257388609117"><ele>219.66666666666669</ele><time>2026-03-28T11:41:09.003Z</time></trkpt><trkpt lat="45.57855423153531" lon="10.752653412796828"><ele>218.83333333333334</ele><time>2026-03-28T11:41:10.003Z</time></trkpt><trkpt lat="45.578483881734286" lon="10.75270694165498"><ele>218.0</ele><time>2026-03-28T11:41:12Z</time></trkpt><trkpt lat="45.5784461520825" lon="10.752790649210795"><ele>216.75</ele><time>2026-03-28T11:41:13Z</time></trkpt><trkpt lat="45.578420910579695" lon="10.752955690491671"><ele>215.5</ele><time>2026-03-28T11:41:14Z</time></trkpt><trkpt lat="45.57841942409666" lon="10.753164217227395"><ele>214.25</ele><time>2026-03-28T11:41:15Z</time></trkpt><trkpt lat="45.578422597744456" lon="10.753377898905523"><ele>213.0</ele><time>2026-03-28T11:41:16Z</time></trkpt><trkpt lat="45.57843331828882" lon="10.753555689000882"><ele>212.2</ele><time>2026-03-28T11:41:17Z</time></trkpt><trkpt lat="45.578472262493904" lon="10.753702213565454"><ele>211.4</ele><time>2026-03-28T11:41:18Z</time></trkpt><trkpt lat="45.578528974232846" lon="10.75384808960372"><ele>210.6</ele><time>2026-03-28T11:41:19Z</time></trkpt><trkpt lat="45.57857612996936" lon="10.75397491225167"><ele>209.79999999999998</ele><time>2026-03-28T11:41:20Z</time></trkpt><trkpt lat="45.5785987493178" lon="10.754071685618372"><ele>209.0</ele><time>2026-03-28T11:41:21Z</time></trkpt><trkpt lat="45.57857267028488" lon="10.75416303045963"><ele>209.0</ele><time>2026-03-28T11:41:23Z</time></trkpt><trkpt lat="45.578506893188425" lon="10.754144258568367"><ele>209.0</ele><time>2026-03-28T11:41:25Z</time></trkpt><trkpt lat="45.57842915621523" lon="10.754089812390848"><ele>209.0</ele><time>2026-03-28T11:41:26Z</time></trkpt><trkpt lat="45.57833692610239" lon="10.754011173958784"><ele>209.0</ele><time>2026-03-28T11:41:27Z</time></trkpt><trkpt lat="45.57822067189627" lon="10.753897261280171"><ele>209.0</ele><time>2026-03-28T11:41:28Z</time></trkpt><trkpt lat="45.57806821449513" lon="10.753815885819654"><ele>209.0</ele><time>2026-03-28T11:41:29Z</time></trkpt><trkpt lat="45.57792278109986" lon="10.753677093177144"><ele>209.0</ele><time>2026-03-28T11:41:30Z</time></trkpt><trkpt lat="45.57778636596532" lon="10.753536508227265"><ele>209.0</ele><time>2026-03-28T11:41:31Z</time></trkpt><trkpt lat="45.57762713429335" lon="10.753362788445836"><ele>209.33333333333334</ele><time>2026-03-28T11:41:32Z</time></trkpt><trkpt lat="45.57749365664867" lon="10.753202460013979"><ele>209.66666666666669</ele><time>2026-03-28T11:41:33Z</time></trkpt><trkpt lat="45.57739153000765" lon="10.75305119059723"><ele>210.0</ele><time>2026-03-28T11:41:34Z</time></trkpt><trkpt lat="45.5772981607493" lon="10.752877711127677"><ele>210.0</ele><time>2026-03-28T11:41:35Z</time></trkpt><trkpt lat="45.57719048320674" lon="10.75265144231114"><ele>210.0</ele><time>2026-03-28T11:41:36Z</time></trkpt><trkpt lat="45.577079964497614" lon="10.752411556000313"><ele>210.0</ele><time>2026-03-28T11:41:37Z</time></trkpt><trkpt lat="45.57698387146921" lon="10.75219623251249"><ele>210.0</ele><time>2026-03-28T11:41:38Z</time></trkpt><trkpt lat="45.57689035202248" lon="10.751986676763778"><ele>210.0</ele><time>2026-03-28T11:41:39Z</time></trkpt><trkpt lat="45.57678563829018" lon="10.751775077178957"><ele>210.0</ele><time>2026-03-28T11:41:40Z</time></trkpt><trkpt lat="45.576674272427276" lon="10.75160921639392"><ele>210.0</ele><time>2026-03-28T11:41:41Z</time></trkpt><trkpt lat="45.57659355467741" lon="10.751463400486145"><ele>210.0</ele><time>2026-03-28T11:41:42Z</time></trkpt><trkpt lat="45.576497039492324" lon="10.751293694178546"><ele>210.0</ele><time>2026-03-28T11:41:43Z</time></trkpt><trkpt lat="45.57639756063213" lon="10.751127802241477"><ele>210.0</ele><time>2026-03-28T11:41:44Z</time></trkpt><trkpt lat="45.576289613224404" lon="10.750932346799752"><ele>210.0</ele><time>2026-03-28T11:41:45.001Z</time></trkpt><trkpt lat="45.576198443002006" lon="10.750770872922342"><ele>210.0</ele><time>2026-03-28T11:41:46.001Z</time></trkpt><trkpt lat="45.57612723892357" lon="10.750647276147353"><ele>210.0</ele><time>2026-03-28T11:41:47.001Z</time></trkpt><trkpt lat="45.57606054794459" lon="10.750567105932955"><ele>210.0</ele><time>2026-03-28T11:41:48.001Z</time></trkpt><trkpt lat="45.57602394948851" lon="10.750468995153856"><ele>210.0</ele><time>2026-03-28T11:41:49.001Z</time></trkpt><trkpt lat="45.57597485948996" lon="10.750384264324952"><ele>210.0</ele><time>2026-03-28T11:41:50.001Z</time></trkpt><trkpt lat="45.57591646503604" lon="10.750286083867158"><ele>210.0</ele><time>2026-03-28T11:41:51.001Z</time></trkpt><trkpt lat="45.575835761205695" lon="10.750161547652166"><ele>210.0</ele><time>2026-03-28T11:41:52.001Z</time></trkpt><trkpt lat="45.57572181856915" lon="10.750026512471791"><ele>210.0</ele><time>2026-03-28T11:41:53.001Z</time></trkpt><trkpt lat="45.57557534335247" lon="10.749897815752028"><ele>210.0</ele><time>2026-03-28T11:41:54.001Z</time></trkpt><trkpt lat="45.5754104421387" lon="10.749777761361347"><ele>210.0</ele><time>2026-03-28T11:41:55.001Z</time></trkpt><trkpt lat="45.5752494952274" lon="10.749655085903905"><ele>210.0</ele><time>2026-03-28T11:41:56.001Z</time></trkpt><trkpt lat="45.57508372176496" lon="10.74952397009776"><ele>210.33333333333331</ele><time>2026-03-28T11:41:57.001Z</time></trkpt><trkpt lat="45.57490806731396" lon="10.749380186725958"><ele>210.66666666666666</ele><time>2026-03-28T11:41:58.001Z</time></trkpt><trkpt lat="45.574729578359076" lon="10.749233560845258"><ele>211.0</ele><time>2026-03-28T11:41:59.001Z</time></trkpt><trkpt lat="45.57454355975535" lon="10.74909000529709"><ele>209.33333333333331</ele><time>2026-03-28T11:42:00.001Z</time></trkpt><trkpt lat="45.57437100413479" lon="10.748973073538261"><ele>207.66666666666669</ele><time>2026-03-28T11:42:01.001Z</time></trkpt><trkpt lat="45.57420801478789" lon="10.748890893781512"><ele>206.0</ele><time>2026-03-28T11:42:02.001Z</time></trkpt><trkpt lat="45.57404379610403" lon="10.748784955365654"><ele>206.0</ele><time>2026-03-28T11:42:03.001Z</time></trkpt><trkpt lat="45.57388151320641" lon="10.748640362246373"><ele>206.0</ele><time>2026-03-28T11:42:04.001Z</time></trkpt><trkpt lat="45.57373790188794" lon="10.748483946985864"><ele>206.0</ele><time>2026-03-28T11:42:05.001Z</time></trkpt><trkpt lat="45.57360048736992" lon="10.748324282439222"><ele>206.20000000000002</ele><time>2026-03-28T11:42:06.001Z</time></trkpt><trkpt lat="45.57347644106906" lon="10.748172538903512"><ele>206.4</ele><time>2026-03-28T11:42:07.001Z</time></trkpt><trkpt lat="45.573388817744146" lon="10.748062450576764"><ele>206.6</ele><time>2026-03-28T11:42:08.001Z</time></trkpt><trkpt lat="45.57333681544737" lon="10.747994690023942"><ele>206.8</ele><time>2026-03-28T11:42:09.001Z</time></trkpt><trkpt lat="45.5732747527667" lon="10.74791381844694"><ele>207.0</ele><time>2026-03-28T11:42:11.001Z</time></trkpt><trkpt lat="45.5731806539288" lon="10.74803993875137"><ele>207.0</ele><time>2026-03-28T11:42:12.001Z</time></trkpt><trkpt lat="45.57306960286799" lon="10.748123180405798"><ele>207.0</ele><time>2026-03-28T11:42:13.001Z</time></trkpt><trkpt lat="45.57292049539741" lon="10.748252073621426"><ele>207.0</ele><time>2026-03-28T11:42:14.001Z</time></trkpt><trkpt lat="45.57274427595428" lon="10.748406326718776"><ele>207.33333333333331</ele><time>2026-03-28T11:42:15.001Z</time></trkpt><trkpt lat="45.572565520177335" lon="10.748572658796792"><ele>207.66666666666666</ele><time>2026-03-28T11:42:16.001Z</time></trkpt><trkpt lat="45.572438153597524" lon="10.748713940124752"><ele>208.0</ele><time>2026-03-28T11:42:17.001Z</time></trkpt><trkpt lat="45.57233479179085" lon="10.748802935630192"><ele>208.0</ele><time>2026-03-28T11:42:18.001Z</time></trkpt><trkpt lat="45.57223578703918" lon="10.7488677930146"><ele>208.0</ele><time>2026-03-28T11:42:19.001Z</time></trkpt><trkpt lat="45.57214103936891" lon="10.74889280606839"><ele>208.0</ele><time>2026-03-28T11:42:20.002Z</time></trkpt><trkpt lat="45.57204998824464" lon="10.74882800260831"><ele>208.0</ele><time>2026-03-28T11:42:21.002Z</time></trkpt><trkpt lat="45.57193585750485" lon="10.748782392721207"><ele>208.0</ele><time>2026-03-28T11:42:22.002Z</time></trkpt><trkpt lat="45.571805427705776" lon="10.748712812771338"><ele>208.25</ele><time>2026-03-28T11:42:23.002Z</time></trkpt><trkpt lat="45.57167664736268" lon="10.748647824631762"><ele>208.5</ele><time>2026-03-28T11:42:24.002Z</time></trkpt><trkpt lat="45.57154508237325" lon="10.748552120403334"><ele>208.75</ele><time>2026-03-28T11:42:25.002Z</time></trkpt><trkpt lat="45.57140446638671" lon="10.748437896135549"><ele>209.0</ele><time>2026-03-28T11:42:26.002Z</time></trkpt><trkpt lat="45.57124513709707" lon="10.748311855507612"><ele>208.5</ele><time>2026-03-28T11:42:27.002Z</time></trkpt><trkpt lat="45.57109925205943" lon="10.74819183670607"><ele>208.0</ele><time>2026-03-28T11:42:28.002Z</time></trkpt><trkpt lat="45.57099442036124" lon="10.74809492489217"><ele>207.5</ele><time>2026-03-28T11:42:29.002Z</time></trkpt><trkpt lat="45.57091643476882" lon="10.748031526031694"><ele>207.0</ele><time>2026-03-28T11:42:30.002Z</time></trkpt><trkpt lat="45.57084633527618" lon="10.747979425490872"><ele>207.0</ele><time>2026-03-28T11:42:31.002Z</time></trkpt><trkpt lat="45.570778515007525" lon="10.747943499911775"><ele>207.0</ele><time>2026-03-28T11:42:32.002Z</time></trkpt><trkpt lat="45.57069635761867" lon="10.74797887864341"><ele>207.0</ele><time>2026-03-28T11:42:33.002Z</time></trkpt><trkpt lat="45.57061593157433" lon="10.748031277272261"><ele>207.0</ele><time>2026-03-28T11:42:34.002Z</time></trkpt><trkpt lat="45.57052487180934" lon="10.748124357994302"><ele>207.0</ele><time>2026-03-28T11:42:35.002Z</time></trkpt><trkpt lat="45.570434531197954" lon="10.74827011517073"><ele>212.66666666666669</ele><time>2026-03-28T11:42:36.002Z</time></trkpt><trkpt lat="45.57033351882607" lon="10.74843852084208"><ele>218.33333333333334</ele><time>2026-03-28T11:42:37.002Z</time></trkpt><trkpt lat="45.57023527245596" lon="10.74862433718877"><ele>224.0</ele><time>2026-03-28T11:42:38.002Z</time></trkpt><trkpt lat="45.570156621453094" lon="10.748821712622993"><ele>224.0</ele><time>2026-03-28T11:42:39.002Z</time></trkpt><trkpt lat="45.570107676567766" lon="10.74903536362025"><ele>224.0</ele><time>2026-03-28T11:42:40.002Z</time></trkpt><trkpt lat="45.57009436607545" lon="10.749258886787606"><ele>224.0</ele><time>2026-03-28T11:42:41.002Z</time></trkpt><trkpt lat="45.570088174761835" lon="10.749481201941528"><ele>224.6</ele><time>2026-03-28T11:42:42.002Z</time></trkpt><trkpt lat="45.57004553666017" lon="10.749659069712719"><ele>225.2</ele><time>2026-03-28T11:42:43.002Z</time></trkpt><trkpt lat="45.57000854487766" lon="10.749801835525187"><ele>225.79999999999998</ele><time>2026-03-28T11:42:44.002Z</time></trkpt><trkpt lat="45.569969324661166" lon="10.749906308359613"><ele>226.39999999999998</ele><time>2026-03-28T11:42:45.002Z</time></trkpt><trkpt lat="45.56991111239386" lon="10.750048388945952"><ele>227.0</ele><time>2026-03-28T11:42:47.002Z</time></trkpt><trkpt lat="45.56986542031535" lon="10.75014071983573"><ele>227.0</ele><time>2026-03-28T11:42:48.002Z</time></trkpt><trkpt lat="45.56979221750651" lon="10.750236524404064"><ele>227.0</ele><time>2026-03-28T11:42:49.002Z</time></trkpt><trkpt lat="45.56975292062333" lon="10.750316037577662"><ele>227.0</ele><time>2026-03-28T11:42:50.002Z</time></trkpt><trkpt lat="45.5696707838476" lon="10.750149575768303"><ele>227.0</ele><time>2026-03-28T11:42:55.003Z</time></trkpt><trkpt lat="45.56960033472353" lon="10.749950636693331"><ele>227.0</ele><time>2026-03-28T11:42:56.003Z</time></trkpt><trkpt lat="45.569546890749514" lon="10.749723126217425"><ele>227.0</ele><time>2026-03-28T11:42:57.003Z</time></trkpt><trkpt lat="45.5695028847257" lon="10.749491397802396"><ele>227.0</ele><time>2026-03-28T11:42:58.003Z</time></trkpt><trkpt lat="45.569446197057445" lon="10.749254279737874"><ele>226.66666666666669</ele><time>2026-03-28T11:42:59.003Z</time></trkpt><trkpt lat="45.56941760188027" lon="10.749005540651364"><ele>226.33333333333331</ele><time>2026-03-28T11:43:00.003Z</time></trkpt><trkpt lat="45.56939821311747" lon="10.74879214808599"><ele>226.0</ele><time>2026-03-28T11:43:01.003Z</time></trkpt><trkpt lat="45.56938249012187" lon="10.74859755889516"><ele>225.75</ele><time>2026-03-28T11:43:02.003Z</time></trkpt><trkpt lat="45.569373064345356" lon="10.748420545432886"><ele>225.5</ele><time>2026-03-28T11:43:03.003Z</time></trkpt><trkpt lat="45.569390024333096" lon="10.748294772598653"><ele>225.25</ele><time>2026-03-28T11:43:04.003Z</time></trkpt><trkpt lat="45.56939810971653" lon="10.748204825579439"><ele>225.0</ele><time>2026-03-28T11:43:05.003Z</time></trkpt><trkpt lat="45.5692343494742" lon="10.748103300548694"><ele>225.0</ele><time>2026-03-28T11:43:06.003Z</time></trkpt><trkpt lat="45.569116204281855" lon="10.747993370765508"><ele>225.0</ele><time>2026-03-28T11:43:07.003Z</time></trkpt><trkpt lat="45.56900453202754" lon="10.747836748941902"><ele>225.0</ele><time>2026-03-28T11:43:08.003Z</time></trkpt><trkpt lat="45.568885002197646" lon="10.747688489213537"><ele>225.25</ele><time>2026-03-28T11:43:09.003Z</time></trkpt><trkpt lat="45.5687832254201" lon="10.747562351601953"><ele>225.5</ele><time>2026-03-28T11:43:10.003Z</time></trkpt><trkpt lat="45.56869691094279" lon="10.747452317831165"><ele>225.75</ele><time>2026-03-28T11:43:11.003Z</time></trkpt><trkpt lat="45.568560555271475" lon="10.747444515812326"><ele>226.0</ele><time>2026-03-28T11:43:12.003Z</time></trkpt><trkpt lat="45.56843334193285" lon="10.747360774975757"><ele>227.25</ele><time>2026-03-28T11:43:13.003Z</time></trkpt><trkpt lat="45.56829291501212" lon="10.747295280878678"><ele>228.5</ele><time>2026-03-28T11:43:14.003Z</time></trkpt><trkpt lat="45.56816312770484" lon="10.747260760338579"><ele>229.75</ele><time>2026-03-28T11:43:15.003Z</time></trkpt><trkpt lat="45.56802380280006" lon="10.74728959483269"><ele>231.0</ele><time>2026-03-28T11:43:16Z</time></trkpt><trkpt lat="45.56786613869709" lon="10.74731058737582"><ele>232.66666666666669</ele><time>2026-03-28T11:43:17Z</time></trkpt><trkpt lat="45.56769993877392" lon="10.747303886512434"><ele>234.33333333333334</ele><time>2026-03-28T11:43:18Z</time></trkpt><trkpt lat="45.56755180447553" lon="10.747310539519832"><ele>236.0</ele><time>2026-03-28T11:43:19Z</time></trkpt><trkpt lat="45.56739436228426" lon="10.747336462072402"><ele>236.0</ele><time>2026-03-28T11:43:20Z</time></trkpt><trkpt lat="45.567249476303964" lon="10.747382926054923"><ele>236.0</ele><time>2026-03-28T11:43:21Z</time></trkpt><trkpt lat="45.56710620623282" lon="10.747370673418795"><ele>236.0</ele><time>2026-03-28T11:43:22Z</time></trkpt><trkpt lat="45.56697181551672" lon="10.747350793844369"><ele>236.0</ele><time>2026-03-28T11:43:23Z</time></trkpt><trkpt lat="45.566821308076214" lon="10.747327450637657"><ele>238.4</ele><time>2026-03-28T11:43:24Z</time></trkpt><trkpt lat="45.56673407167021" lon="10.747383536347089"><ele>240.8</ele><time>2026-03-28T11:43:25Z</time></trkpt><trkpt lat="45.56666367660274" lon="10.747419889484846"><ele>243.20000000000002</ele><time>2026-03-28T11:43:26Z</time></trkpt><trkpt lat="45.56655218263558" lon="10.747526101538087"><ele>245.60000000000002</ele><time>2026-03-28T11:43:28Z</time></trkpt><trkpt lat="45.56646797561569" lon="10.747604396270328"><ele>248.0</ele><time>2026-03-28T11:43:29Z</time></trkpt><trkpt lat="45.56639954851321" lon="10.747686929815282"><ele>249.2</ele><time>2026-03-28T11:43:30Z</time></trkpt><trkpt lat="45.566337867423535" lon="10.74778702898409"><ele>250.4</ele><time>2026-03-28T11:43:31Z</time></trkpt><trkpt lat="45.56631763956373" lon="10.747884788561047"><ele>251.59999999999997</ele><time>2026-03-28T11:43:32Z</time></trkpt><trkpt lat="45.56632629067357" lon="10.748014619933102"><ele>252.79999999999998</ele><time>2026-03-28T11:43:33Z</time></trkpt><trkpt lat="45.56636710397568" lon="10.748177776066608"><ele>254.0</ele><time>2026-03-28T11:43:34Z</time></trkpt><trkpt lat="45.56641851367147" lon="10.74836532795562"><ele>254.0</ele><time>2026-03-28T11:43:35Z</time></trkpt><trkpt lat="45.56647675948776" lon="10.748531453701126"><ele>254.0</ele><time>2026-03-28T11:43:36Z</time></trkpt><trkpt lat="45.56653229741098" lon="10.74868286472569"><ele>254.0</ele><time>2026-03-28T11:43:37Z</time></trkpt><trkpt lat="45.56659926175561" lon="10.748836673445322"><ele>254.0</ele><time>2026-03-28T11:43:38Z</time></trkpt><trkpt lat="45.56666955494476" lon="10.748984220104054"><ele>256.1666666666667</ele><time>2026-03-28T11:43:39Z</time></trkpt><trkpt lat="45.566713171764725" lon="10.749104749838102"><ele>258.33333333333337</ele><time>2026-03-28T11:43:40Z</time></trkpt><trkpt lat="45.56672858882966" lon="10.749197386515304"><ele>260.5</ele><time>2026-03-28T11:43:41Z</time></trkpt><trkpt lat="45.56672648652212" lon="10.749288014413924"><ele>262.6666666666667</ele><time>2026-03-28T11:43:42Z</time></trkpt><trkpt lat="45.56669093872154" lon="10.749369655101928"><ele>264.8333333333333</ele><time>2026-03-28T11:43:43Z</time></trkpt><trkpt lat="45.56663372592074" lon="10.749442788341074"><ele>267.0</ele><time>2026-03-28T11:43:44Z</time></trkpt><trkpt lat="45.56653721280759" lon="10.74955957871991"><ele>268.6666666666667</ele><time>2026-03-28T11:43:45Z</time></trkpt><trkpt lat="45.56641479093508" lon="10.749685363689592"><ele>270.33333333333337</ele><time>2026-03-28T11:43:46Z</time></trkpt><trkpt lat="45.56628043480661" lon="10.749822389121196"><ele>272.0</ele><time>2026-03-28T11:43:47.001Z</time></trkpt><trkpt lat="45.566122295004554" lon="10.749980762894083"><ele>272.33333333333337</ele><time>2026-03-28T11:43:48.001Z</time></trkpt><trkpt lat="45.56596138696095" lon="10.75015005914312"><ele>272.6666666666667</ele><time>2026-03-28T11:43:49.001Z</time></trkpt><trkpt lat="45.56582559658315" lon="10.750287339088635"><ele>273.0</ele><time>2026-03-28T11:43:50.001Z</time></trkpt><trkpt lat="45.5657148123177" lon="10.750396123340597"><ele>273.0</ele><time>2026-03-28T11:43:51.001Z</time></trkpt><trkpt lat="45.56562547878754" lon="10.750493421847056"><ele>273.0</ele><time>2026-03-28T11:43:52.001Z</time></trkpt><trkpt lat="45.565530868664645" lon="10.750599482272586"><ele>273.0</ele><time>2026-03-28T11:43:53.001Z</time></trkpt><trkpt lat="45.56543734541794" lon="10.750684349141569"><ele>273.0</ele><time>2026-03-28T11:43:54.001Z</time></trkpt><trkpt lat="45.565344638106815" lon="10.750740438279955"><ele>273.0</ele><time>2026-03-28T11:43:55.001Z</time></trkpt><trkpt lat="45.56524288335078" lon="10.750800448351555"><ele>273.5</ele><time>2026-03-28T11:43:56.001Z</time></trkpt><trkpt lat="45.56512833464913" lon="10.750850941072294"><ele>274.0</ele><time>2026-03-28T11:43:57.001Z</time></trkpt><trkpt lat="45.56501691931326" lon="10.750898173832764"><ele>274.5</ele><time>2026-03-28T11:43:58.001Z</time></trkpt><trkpt lat="45.56491436117473" lon="10.75097457247528"><ele>275.0</ele><time>2026-03-28T11:43:59.001Z</time></trkpt><trkpt lat="45.5648298211115" lon="10.751083929220837"><ele>275.25</ele><time>2026-03-28T11:44:00.001Z</time></trkpt><trkpt lat="45.564775121834536" lon="10.75122071496501"><ele>275.5</ele><time>2026-03-28T11:44:01.001Z</time></trkpt><trkpt lat="45.56472004902164" lon="10.751367172247065"><ele>275.75</ele><time>2026-03-28T11:44:02.001Z</time></trkpt><trkpt lat="45.56461246664184" lon="10.75147018775824"><ele>276.0</ele><time>2026-03-28T11:44:03.001Z</time></trkpt><trkpt lat="45.56449525921883" lon="10.751584632700231"><ele>274.6</ele><time>2026-03-28T11:44:04.001Z</time></trkpt><trkpt lat="45.56439004719491" lon="10.751663055822979"><ele>273.20000000000005</ele><time>2026-03-28T11:44:05.001Z</time></trkpt><trkpt lat="45.56430977967173" lon="10.751711965111271"><ele>271.79999999999995</ele><time>2026-03-28T11:44:06.001Z</time></trkpt><trkpt lat="45.56417972490984" lon="10.751799172487816"><ele>270.4</ele><time>2026-03-28T11:44:08.001Z</time></trkpt><trkpt lat="45.56411215339561" lon="10.751838911675389"><ele>269.0</ele><time>2026-03-28T11:44:09.001Z</time></trkpt><trkpt lat="45.56400066448476" lon="10.751904227069394"><ele>267.4</ele><time>2026-03-28T11:44:11.001Z</time></trkpt><trkpt lat="45.563939500733504" lon="10.751970396394816"><ele>265.79999999999995</ele><time>2026-03-28T11:44:12.001Z</time></trkpt><trkpt lat="45.56387896868619" lon="10.752099550954197"><ele>264.20000000000005</ele><time>2026-03-28T11:44:13.001Z</time></trkpt><trkpt lat="45.5638424056468" lon="10.752239326951399"><ele>262.6</ele><time>2026-03-28T11:44:14.001Z</time></trkpt><trkpt lat="45.56383020377681" lon="10.752390262787632"><ele>261.0</ele><time>2026-03-28T11:44:15.001Z</time></trkpt><trkpt lat="45.56385349460993" lon="10.752602041232148"><ele>259.75</ele><time>2026-03-28T11:44:16.001Z</time></trkpt><trkpt lat="45.563911515738106" lon="10.752829010369922"><ele>258.5</ele><time>2026-03-28T11:44:17.001Z</time></trkpt><trkpt lat="45.563947970635226" lon="10.753028018865502"><ele>257.25</ele><time>2026-03-28T11:44:18.001Z</time></trkpt><trkpt lat="45.563949390370084" lon="10.753156393763643"><ele>256.0</ele><time>2026-03-28T11:44:19.001Z</time></trkpt><trkpt lat="45.56379527713517" lon="10.753122084994004"><ele>256.0</ele><time>2026-03-28T11:44:23.002Z</time></trkpt><trkpt lat="45.563829806341516" lon="10.752955620883242"><ele>256.0</ele><time>2026-03-28T11:44:24.002Z</time></trkpt><trkpt lat="45.56381459443316" lon="10.752803458554691"><ele>256.0</ele><time>2026-03-28T11:44:25.002Z</time></trkpt><trkpt lat="45.56378713877708" lon="10.752657546596494"><ele>256.0</ele><time>2026-03-28T11:44:26.002Z</time></trkpt><trkpt lat="45.56374898314321" lon="10.752565351547362"><ele>256.0</ele><time>2026-03-28T11:44:27.002Z</time></trkpt><trkpt lat="45.56366394132069" lon="10.752528767536413"><ele>256.5</ele><time>2026-03-28T11:44:29.002Z</time></trkpt><trkpt lat="45.56360278635661" lon="10.752650528811584"><ele>257.0</ele><time>2026-03-28T11:44:30.002Z</time></trkpt><trkpt lat="45.56362513872297" lon="10.752885598803182"><ele>257.5</ele><time>2026-03-28T11:44:31.002Z</time></trkpt><trkpt lat="45.563627055396964" lon="10.753040005997908"><ele>258.0</ele><time>2026-03-28T11:44:32.002Z</time></trkpt><trkpt lat="45.56360140115368" lon="10.753162692147807"><ele>256.4</ele><time>2026-03-28T11:44:33.002Z</time></trkpt><trkpt lat="45.56353038404132" lon="10.753182843679312"><ele>254.8</ele><time>2026-03-28T11:44:34.002Z</time></trkpt><trkpt lat="45.56346788257867" lon="10.753258807545306"><ele>253.2</ele><time>2026-03-28T11:44:36.002Z</time></trkpt><trkpt lat="45.56340120243874" lon="10.753325401712692"><ele>251.6</ele><time>2026-03-28T11:44:37.002Z</time></trkpt><trkpt lat="45.56334138476595" lon="10.753454086596292"><ele>250.0</ele><time>2026-03-28T11:44:38.002Z</time></trkpt><trkpt lat="45.563243465571574" lon="10.753563593842818"><ele>246.75</ele><time>2026-03-28T11:44:39.002Z</time></trkpt><trkpt lat="45.56314222847404" lon="10.753663334731844"><ele>243.5</ele><time>2026-03-28T11:44:40.002Z</time></trkpt><trkpt lat="45.562989961818914" lon="10.753711867854397"><ele>240.25</ele><time>2026-03-28T11:44:41.002Z</time></trkpt><trkpt lat="45.56286779778906" lon="10.753734333177748"><ele>237.0</ele><time>2026-03-28T11:44:42.002Z</time></trkpt><trkpt lat="45.562765376439444" lon="10.753722711544473"><ele>235.66666666666669</ele><time>2026-03-28T11:44:43.002Z</time></trkpt><trkpt lat="45.56265002923029" lon="10.75367306782958"><ele>234.33333333333334</ele><time>2026-03-28T11:44:44.002Z</time></trkpt><trkpt lat="45.56248795412507" lon="10.753642886386206"><ele>233.0</ele><time>2026-03-28T11:44:45.002Z</time></trkpt><trkpt lat="45.562319701245954" lon="10.75359504202984"><ele>233.0</ele><time>2026-03-28T11:44:46.002Z</time></trkpt><trkpt lat="45.56218437527987" lon="10.753583648829304"><ele>233.0</ele><time>2026-03-28T11:44:47.002Z</time></trkpt><trkpt lat="45.56205718860849" lon="10.7536026835041"><ele>233.0</ele><time>2026-03-28T11:44:48.002Z</time></trkpt><trkpt lat="45.56191025126842" lon="10.753628661589149"><ele>233.0</ele><time>2026-03-28T11:44:49.002Z</time></trkpt><trkpt lat="45.56177261438849" lon="10.753636381126515"><ele>232.0</ele><time>2026-03-28T11:44:50.002Z</time></trkpt><trkpt lat="45.561647531212664" lon="10.75361754338389"><ele>231.0</ele><time>2026-03-28T11:44:51.002Z</time></trkpt><trkpt lat="45.56152286291689" lon="10.753521413940653"><ele>230.0</ele><time>2026-03-28T11:44:52.002Z</time></trkpt><trkpt lat="45.5614175549583" lon="10.753414288375545"><ele>229.0</ele><time>2026-03-28T11:44:53.002Z</time></trkpt><trkpt lat="45.56131045662389" lon="10.7533184717681"><ele>230.75</ele><time>2026-03-28T11:44:54.002Z</time></trkpt><trkpt lat="45.56120165273416" lon="10.753257431273958"><ele>232.5</ele><time>2026-03-28T11:44:55.002Z</time></trkpt><trkpt lat="45.561083976536914" lon="10.753183326929102"><ele>234.25</ele><time>2026-03-28T11:44:56.003Z</time></trkpt><trkpt lat="45.56093626270182" lon="10.75314777489799"><ele>236.0</ele><time>2026-03-28T11:44:57.003Z</time></trkpt><trkpt lat="45.56080624725277" lon="10.753089805206795"><ele>236.0</ele><time>2026-03-28T11:44:58.003Z</time></trkpt><trkpt lat="45.56068066613891" lon="10.7530692171801"><ele>236.0</ele><time>2026-03-28T11:44:59.003Z</time></trkpt><trkpt lat="45.5605196924024" lon="10.753071204106536"><ele>236.0</ele><time>2026-03-28T11:45:00.003Z</time></trkpt><trkpt lat="45.56033801058899" lon="10.753064573286863"><ele>234.33333333333334</ele><time>2026-03-28T11:45:01.003Z</time></trkpt><trkpt lat="45.56017375898308" lon="10.753034984505996"><ele>232.66666666666669</ele><time>2026-03-28T11:45:02.003Z</time></trkpt><trkpt lat="45.56003019612798" lon="10.752977513057393"><ele>231.0</ele><time>2026-03-28T11:45:03.003Z</time></trkpt><trkpt lat="45.5598822018329" lon="10.752899198837154"><ele>231.0</ele><time>2026-03-28T11:45:04.003Z</time></trkpt><trkpt lat="45.559723700517104" lon="10.75279179514665"><ele>231.0</ele><time>2026-03-28T11:45:05.003Z</time></trkpt><trkpt lat="45.55956670938889" lon="10.752661081336205"><ele>231.0</ele><time>2026-03-28T11:45:06.003Z</time></trkpt><trkpt lat="45.55941248137858" lon="10.752530439438221"><ele>232.33333333333331</ele><time>2026-03-28T11:45:07.003Z</time></trkpt><trkpt lat="45.55926838938332" lon="10.752349872733706"><ele>233.66666666666666</ele><time>2026-03-28T11:45:08.003Z</time></trkpt><trkpt lat="45.55909040307111" lon="10.752209664243644"><ele>235.0</ele><time>2026-03-28T11:45:09.003Z</time></trkpt><trkpt lat="45.558919537906235" lon="10.752046428300819"><ele>235.0</ele><time>2026-03-28T11:45:10.003Z</time></trkpt><trkpt lat="45.55877375728813" lon="10.751909197714763"><ele>235.0</ele><time>2026-03-28T11:45:11.003Z</time></trkpt><trkpt lat="45.55864972612295" lon="10.751813658064972"><ele>235.0</ele><time>2026-03-28T11:45:12.003Z</time></trkpt><trkpt lat="45.5585338260809" lon="10.751694861036192"><ele>236.0</ele><time>2026-03-28T11:45:13.003Z</time></trkpt><trkpt lat="45.55839141967986" lon="10.751560554598434"><ele>237.0</ele><time>2026-03-28T11:45:14.003Z</time></trkpt><trkpt lat="45.5582510538577" lon="10.751453511486176"><ele>238.0</ele><time>2026-03-28T11:45:15.003Z</time></trkpt><trkpt lat="45.558085039058085" lon="10.75137011923912"><ele>238.0</ele><time>2026-03-28T11:45:16.003Z</time></trkpt><trkpt lat="45.557903250592915" lon="10.751293028553171"><ele>238.0</ele><time>2026-03-28T11:45:17.003Z</time></trkpt><trkpt lat="45.55771381297984" lon="10.751245116706125"><ele>238.0</ele><time>2026-03-28T11:45:18.003Z</time></trkpt><trkpt lat="45.55753247263686" lon="10.751229461713287"><ele>237.0</ele><time>2026-03-28T11:45:19.003Z</time></trkpt><trkpt lat="45.55736124915165" lon="10.751231745401343"><ele>236.0</ele><time>2026-03-28T11:45:20.003Z</time></trkpt><trkpt lat="45.557163029004776" lon="10.751267256212957"><ele>235.0</ele><time>2026-03-28T11:45:21.003Z</time></trkpt><trkpt lat="45.55694682596717" lon="10.751326174303369"><ele>235.0</ele><time>2026-03-28T11:45:22Z</time></trkpt><trkpt lat="45.556715901383974" lon="10.751378435896664"><ele>235.0</ele><time>2026-03-28T11:45:23Z</time></trkpt><trkpt lat="45.5565153886899" lon="10.751404634593214"><ele>235.0</ele><time>2026-03-28T11:45:24Z</time></trkpt><trkpt lat="45.556385012809784" lon="10.751436677959488"><ele>234.99999999999997</ele><time>2026-03-28T11:45:25Z</time></trkpt><trkpt lat="45.55630363673325" lon="10.75146094268144"><ele>235.0</ele><time>2026-03-28T11:45:26Z</time></trkpt><trkpt lat="45.55623905730656" lon="10.751492470320759"><ele>235.0</ele><time>2026-03-28T11:45:27Z</time></trkpt><trkpt lat="45.55620486733397" lon="10.75140388538468"><ele>235.0</ele><time>2026-03-28T11:45:32Z</time></trkpt><trkpt lat="45.55630375084011" lon="10.751391326541802"><ele>234.99999999999997</ele><time>2026-03-28T11:45:35Z</time></trkpt><trkpt lat="45.55635788700684" lon="10.75147382846541"><ele>235.0</ele><time>2026-03-28T11:45:36Z</time></trkpt><trkpt lat="45.55624860771761" lon="10.75134067892622"><ele>235.0</ele><time>2026-03-28T11:45:40Z</time></trkpt><trkpt lat="45.55621035623127" lon="10.751432459804496"><ele>235.0</ele><time>2026-03-28T11:45:41Z</time></trkpt><trkpt lat="45.55616537407021" lon="10.751515139464376"><ele>235.0</ele><time>2026-03-28T11:45:43.001Z</time></trkpt><trkpt lat="45.55611274233375" lon="10.751599734656564"><ele>235.0</ele><time>2026-03-28T11:45:45.001Z</time></trkpt><trkpt lat="45.55596364815216" lon="10.75165611185579"><ele>235.0</ele><time>2026-03-28T11:45:47.001Z</time></trkpt><trkpt lat="45.55585450999024" lon="10.751675650230096"><ele>235.33333333333331</ele><time>2026-03-28T11:45:48.001Z</time></trkpt><trkpt lat="45.555759250484726" lon="10.751677965803943"><ele>235.66666666666666</ele><time>2026-03-28T11:45:49.001Z</time></trkpt><trkpt lat="45.55569188817484" lon="10.751621700432906"><ele>236.0</ele><time>2026-03-28T11:45:50.001Z</time></trkpt><trkpt lat="45.555628811176334" lon="10.751587154156768"><ele>236.33333333333331</ele><time>2026-03-28T11:45:51.001Z</time></trkpt><trkpt lat="45.55553889020208" lon="10.751559010202579"><ele>236.66666666666666</ele><time>2026-03-28T11:45:53.001Z</time></trkpt><trkpt lat="45.55544240283847" lon="10.751467012462491"><ele>237.0</ele><time>2026-03-28T11:45:55.001Z</time></trkpt><trkpt lat="45.55543714799652" lon="10.751205320253263"><ele>236.66666666666669</ele><time>2026-03-28T11:45:56.001Z</time></trkpt><trkpt lat="45.55538619758954" lon="10.751002638281607"><ele>236.33333333333334</ele><time>2026-03-28T11:45:57.001Z</time></trkpt><trkpt lat="45.55533296198252" lon="10.75078742826533"><ele>236.0</ele><time>2026-03-28T11:45:58.001Z</time></trkpt><trkpt lat="45.55528220252292" lon="10.750582225710374"><ele>236.0</ele><time>2026-03-28T11:45:59.001Z</time></trkpt><trkpt lat="45.55524853848983" lon="10.750434213761446"><ele>236.00000000000003</ele><time>2026-03-28T11:46:00.001Z</time></trkpt><trkpt lat="45.55522603863451" lon="10.750338175283497"><ele>236.00000000000003</ele><time>2026-03-28T11:46:01.001Z</time></trkpt><trkpt lat="45.555195260660724" lon="10.750249889683696"><ele>236.0</ele><time>2026-03-28T11:46:03.001Z</time></trkpt><trkpt lat="45.55520818552113" lon="10.750123774559318"><ele>236.0</ele><time>2026-03-28T11:46:07.001Z</time></trkpt><trkpt lat="45.555213836765375" lon="10.750285937102596"><ele>236.0</ele><time>2026-03-28T11:46:11.001Z</time></trkpt><trkpt lat="45.55525114631166" lon="10.750445348087633"><ele>236.0</ele><time>2026-03-28T11:46:12.001Z</time></trkpt><trkpt lat="45.555297005559154" lon="10.75064109789898"><ele>236.0</ele><time>2026-03-28T11:46:13.001Z</time></trkpt><trkpt lat="45.55534478965184" lon="10.750879484178418"><ele>236.0</ele><time>2026-03-28T11:46:14.001Z</time></trkpt><trkpt lat="45.555395542672976" lon="10.75108849093339"><ele>236.25</ele><time>2026-03-28T11:46:15.001Z</time></trkpt><trkpt lat="45.55542128016779" lon="10.751209425388666"><ele>236.5</ele><time>2026-03-28T11:46:16.001Z</time></trkpt><trkpt lat="45.55547787146957" lon="10.751259990158246"><ele>236.75</ele><time>2026-03-28T11:46:18.001Z</time></trkpt><trkpt lat="45.555673674908086" lon="10.751054327190099"><ele>237.0</ele><time>2026-03-28T11:46:21.001Z</time></trkpt><trkpt lat="45.55571619058272" lon="10.750911928703509"><ele>239.0</ele><time>2026-03-28T11:46:22.001Z</time></trkpt><trkpt lat="45.55573952169322" lon="10.750731206200511"><ele>241.0</ele><time>2026-03-28T11:46:23.002Z</time></trkpt><trkpt lat="45.555756217012195" lon="10.750495239795363"><ele>243.0</ele><time>2026-03-28T11:46:24.002Z</time></trkpt><trkpt lat="45.55577922660082" lon="10.750218697248858"><ele>242.33333333333331</ele><time>2026-03-28T11:46:25.002Z</time></trkpt><trkpt lat="45.55582678335373" lon="10.749949246221458"><ele>241.66666666666666</ele><time>2026-03-28T11:46:26.002Z</time></trkpt><trkpt lat="45.55588995847443" lon="10.749715688994423"><ele>241.0</ele><time>2026-03-28T11:46:27.002Z</time></trkpt><trkpt lat="45.555987029344465" lon="10.749449113650172"><ele>239.5</ele><time>2026-03-28T11:46:28.002Z</time></trkpt><trkpt lat="45.55610708727347" lon="10.749163074234351"><ele>238.0</ele><time>2026-03-28T11:46:29.002Z</time></trkpt><trkpt lat="45.55622396920174" lon="10.748855335598689"><ele>244.0</ele><time>2026-03-28T11:46:30.002Z</time></trkpt><trkpt lat="45.55632872122426" lon="10.74852559106478"><ele>250.0</ele><time>2026-03-28T11:46:31.002Z</time></trkpt><trkpt lat="45.556403306188095" lon="10.748244980979367"><ele>250.0</ele><time>2026-03-28T11:46:32.002Z</time></trkpt><trkpt lat="45.556471061413575" lon="10.747990724194292"><ele>250.0</ele><time>2026-03-28T11:46:33.002Z</time></trkpt><trkpt lat="45.5565383472133" lon="10.747756730455478"><ele>250.0</ele><time>2026-03-28T11:46:34.002Z</time></trkpt><trkpt lat="45.55661462153018" lon="10.747568569437384"><ele>248.6</ele><time>2026-03-28T11:46:35.002Z</time></trkpt><trkpt lat="45.55670767110263" lon="10.74741711552074"><ele>247.2</ele><time>2026-03-28T11:46:36.002Z</time></trkpt><trkpt lat="45.556793537858006" lon="10.747294998185064"><ele>245.8</ele><time>2026-03-28T11:46:37.002Z</time></trkpt><trkpt lat="45.556853801374764" lon="10.747181992997197"><ele>244.4</ele><time>2026-03-28T11:46:38.002Z</time></trkpt><trkpt lat="45.55690030984562" lon="10.747084860760527"><ele>243.0</ele><time>2026-03-28T11:46:39.002Z</time></trkpt><trkpt lat="45.55695841985029" lon="10.747027015056759"><ele>244.60000000000002</ele><time>2026-03-28T11:46:40.002Z</time></trkpt><trkpt lat="45.55704031883615" lon="10.7470205826993"><ele>246.20000000000002</ele><time>2026-03-28T11:46:41.002Z</time></trkpt><trkpt lat="45.55713562176352" lon="10.746976000139373"><ele>247.8</ele><time>2026-03-28T11:46:42.002Z</time></trkpt><trkpt lat="45.557227844798476" lon="10.746874792642956"><ele>249.4</ele><time>2026-03-28T11:46:43.002Z</time></trkpt><trkpt lat="45.55731745869083" lon="10.746724492982858"><ele>251.0</ele><time>2026-03-28T11:46:44.002Z</time></trkpt><trkpt lat="45.557411522776356" lon="10.746555160662403"><ele>251.0</ele><time>2026-03-28T11:46:45.002Z</time></trkpt><trkpt lat="45.55750137198893" lon="10.746397125567325"><ele>251.00000000000003</ele><time>2026-03-28T11:46:46.002Z</time></trkpt><trkpt lat="45.55755547565593" lon="10.746258653796257"><ele>251.00000000000003</ele><time>2026-03-28T11:46:47.002Z</time></trkpt><trkpt lat="45.557596582636556" lon="10.746137328646064"><ele>251.0</ele><time>2026-03-28T11:46:48.002Z</time></trkpt><trkpt lat="45.55762733076416" lon="10.746055171163555"><ele>251.0</ele><time>2026-03-28T11:46:49.002Z</time></trkpt><trkpt lat="45.55767393605856" lon="10.745987651699034"><ele>250.66666666666669</ele><time>2026-03-28T11:46:50.002Z</time></trkpt><trkpt lat="45.55773797645275" lon="10.74591015692938"><ele>250.33333333333334</ele><time>2026-03-28T11:46:51.002Z</time></trkpt><trkpt lat="45.55780869515021" lon="10.745845605491926"><ele>250.0</ele><time>2026-03-28T11:46:52.002Z</time></trkpt><trkpt lat="45.557876507017" lon="10.745798850080291"><ele>249.66666666666669</ele><time>2026-03-28T11:46:53.002Z</time></trkpt><trkpt lat="45.5579407151835" lon="10.745758627999571"><ele>249.33333333333334</ele><time>2026-03-28T11:46:54.002Z</time></trkpt><trkpt lat="45.5580111792001" lon="10.745690216562684"><ele>249.0</ele><time>2026-03-28T11:46:55.002Z</time></trkpt><trkpt lat="45.55809142362896" lon="10.745605251980958"><ele>250.39999999999998</ele><time>2026-03-28T11:46:56.002Z</time></trkpt><trkpt lat="45.55817396183519" lon="10.745543979514142"><ele>251.79999999999998</ele><time>2026-03-28T11:46:57.002Z</time></trkpt><trkpt lat="45.558280911003244" lon="10.745500754395659"><ele>253.20000000000002</ele><time>2026-03-28T11:46:58.002Z</time></trkpt><trkpt lat="45.55836672936346" lon="10.745485661385567"><ele>254.60000000000002</ele><time>2026-03-28T11:46:59.003Z</time></trkpt><trkpt lat="45.558445066684605" lon="10.745464332556123"><ele>256.0</ele><time>2026-03-28T11:47:00.003Z</time></trkpt><trkpt lat="45.55856942727997" lon="10.745415159372259"><ele>257.3333333333333</ele><time>2026-03-28T11:47:01.003Z</time></trkpt><trkpt lat="45.558718039530596" lon="10.745367231187023"><ele>258.6666666666667</ele><time>2026-03-28T11:47:02.003Z</time></trkpt><trkpt lat="45.5588781365091" lon="10.745324834704634"><ele>260.0</ele><time>2026-03-28T11:47:03.003Z</time></trkpt><trkpt lat="45.559039579915336" lon="10.745255930468831"><ele>258.0</ele><time>2026-03-28T11:47:04.003Z</time></trkpt><trkpt lat="45.559204851445244" lon="10.745182531331878"><ele>256.0</ele><time>2026-03-28T11:47:05.003Z</time></trkpt><trkpt lat="45.559376362631575" lon="10.745080850620905"><ele>254.0</ele><time>2026-03-28T11:47:06.003Z</time></trkpt><trkpt lat="45.559569803824914" lon="10.744960029794381"><ele>254.0</ele><time>2026-03-28T11:47:07.003Z</time></trkpt><trkpt lat="45.559745151249764" lon="10.74483225665636"><ele>254.0</ele><time>2026-03-28T11:47:08.003Z</time></trkpt><trkpt lat="45.55989880425774" lon="10.744677352782881"><ele>254.0</ele><time>2026-03-28T11:47:09.003Z</time></trkpt><trkpt lat="45.56003603102105" lon="10.74450656606451"><ele>253.0</ele><time>2026-03-28T11:47:10.003Z</time></trkpt><trkpt lat="45.560179905174365" lon="10.74431705811721"><ele>252.0</ele><time>2026-03-28T11:47:11.003Z</time></trkpt><trkpt lat="45.5603276631223" lon="10.744119566085761"><ele>251.0</ele><time>2026-03-28T11:47:12.003Z</time></trkpt><trkpt lat="45.560485909472675" lon="10.743890575794397"><ele>250.33333333333334</ele><time>2026-03-28T11:47:13.003Z</time></trkpt><trkpt lat="45.560626062970144" lon="10.74373886937944"><ele>249.66666666666669</ele><time>2026-03-28T11:47:14.003Z</time></trkpt><trkpt lat="45.56076554894687" lon="10.743609598644975"><ele>249.0</ele><time>2026-03-28T11:47:15.003Z</time></trkpt><trkpt lat="45.560907419712464" lon="10.743504467912334"><ele>249.0</ele><time>2026-03-28T11:47:16.003Z</time></trkpt><trkpt lat="45.5610641449525" lon="10.743430679882277"><ele>249.0</ele><time>2026-03-28T11:47:17.003Z</time></trkpt><trkpt lat="45.56125146646231" lon="10.743376094314213"><ele>249.0</ele><time>2026-03-28T11:47:18.003Z</time></trkpt><trkpt lat="45.56146168174236" lon="10.74332962224251"><ele>247.66666666666669</ele><time>2026-03-28T11:47:19.003Z</time></trkpt><trkpt lat="45.56167793776777" lon="10.743286066916262"><ele>246.33333333333334</ele><time>2026-03-28T11:47:20.003Z</time></trkpt><trkpt lat="45.56187462412257" lon="10.74322131895082"><ele>245.0</ele><time>2026-03-28T11:47:21.003Z</time></trkpt><trkpt lat="45.562068212214726" lon="10.743204155017212"><ele>244.0</ele><time>2026-03-28T11:47:22.003Z</time></trkpt><trkpt lat="45.56226028791972" lon="10.743160167025135"><ele>243.0</ele><time>2026-03-28T11:47:23.003Z</time></trkpt><trkpt lat="45.56244933419591" lon="10.743111139849669"><ele>242.0</ele><time>2026-03-28T11:47:24.003Z</time></trkpt><trkpt lat="45.56259568577079" lon="10.743027571278338"><ele>242.0</ele><time>2026-03-28T11:47:25.003Z</time></trkpt><trkpt lat="45.562731304775824" lon="10.742949662816967"><ele>242.0</ele><time>2026-03-28T11:47:26.003Z</time></trkpt><trkpt lat="45.56286662639999" lon="10.742839894161088"><ele>242.0</ele><time>2026-03-28T11:47:27.003Z</time></trkpt><trkpt lat="45.56302101035877" lon="10.742767257094075"><ele>241.2</ele><time>2026-03-28T11:47:28Z</time></trkpt><trkpt lat="45.56312591716534" lon="10.74270201922561"><ele>240.39999999999998</ele><time>2026-03-28T11:47:29Z</time></trkpt><trkpt lat="45.56321330859181" lon="10.742651687865285"><ele>239.60000000000002</ele><time>2026-03-28T11:47:30Z</time></trkpt><trkpt lat="45.56328726175014" lon="10.742611403237161"><ele>238.8</ele><time>2026-03-28T11:47:31Z</time></trkpt><trkpt lat="45.563380387038414" lon="10.742574654144113"><ele>238.0</ele><time>2026-03-28T11:47:33Z</time></trkpt><trkpt lat="45.563407269214075" lon="10.742765822955036"><ele>237.4</ele><time>2026-03-28T11:47:36Z</time></trkpt><trkpt lat="45.5633831596883" lon="10.742889800277501"><ele>236.8</ele><time>2026-03-28T11:47:37Z</time></trkpt><trkpt lat="45.56335604093104" lon="10.743060017687966"><ele>236.2</ele><time>2026-03-28T11:47:38Z</time></trkpt><trkpt lat="45.56330972921279" lon="10.743205196780595"><ele>235.6</ele><time>2026-03-28T11:47:39Z</time></trkpt><trkpt lat="45.56328492452686" lon="10.74335689701067"><ele>235.0</ele><time>2026-03-28T11:47:40Z</time></trkpt><trkpt lat="45.56328842721592" lon="10.743512512746612"><ele>235.8</ele><time>2026-03-28T11:47:41Z</time></trkpt><trkpt lat="45.56330917973416" lon="10.743671560553096"><ele>236.6</ele><time>2026-03-28T11:47:42Z</time></trkpt><trkpt lat="45.56332668631217" lon="10.743821946549698"><ele>237.39999999999998</ele><time>2026-03-28T11:47:43Z</time></trkpt><trkpt lat="45.56333764160203" lon="10.743953410510981"><ele>238.2</ele><time>2026-03-28T11:47:44Z</time></trkpt><trkpt lat="45.56335870165698" lon="10.744058188333133"><ele>239.0</ele><time>2026-03-28T11:47:45Z</time></trkpt><trkpt lat="45.563406427059675" lon="10.744126604515671"><ele>239.0</ele><time>2026-03-28T11:47:46Z</time></trkpt><trkpt lat="45.56344661252214" lon="10.744234356319248"><ele>239.0</ele><time>2026-03-28T11:47:47Z</time></trkpt><trkpt lat="45.563605000448916" lon="10.744244228602156"><ele>239.0</ele><time>2026-03-28T11:47:48Z</time></trkpt><trkpt lat="45.56374848373376" lon="10.74427295085184"><ele>239.0</ele><time>2026-03-28T11:47:49.001Z</time></trkpt><trkpt lat="45.563916388343884" lon="10.744319134425316"><ele>239.0</ele><time>2026-03-28T11:47:50.001Z</time></trkpt><trkpt lat="45.564108496394105" lon="10.744322066594318"><ele>239.0</ele><time>2026-03-28T11:47:51.001Z</time></trkpt><trkpt lat="45.56430153492424" lon="10.744329756380763"><ele>239.0</ele><time>2026-03-28T11:47:52.001Z</time></trkpt><trkpt lat="45.56448994489184" lon="10.744339401235399"><ele>240.0</ele><time>2026-03-28T11:47:53.001Z</time></trkpt><trkpt lat="45.56469281703033" lon="10.744346685800469"><ele>241.0</ele><time>2026-03-28T11:47:54.001Z</time></trkpt><trkpt lat="45.56486251771472" lon="10.744350818431199"><ele>242.0</ele><time>2026-03-28T11:47:55.001Z</time></trkpt><trkpt lat="45.56504138915879" lon="10.744343831748289"><ele>242.0</ele><time>2026-03-28T11:47:56.001Z</time></trkpt><trkpt lat="45.565227638080316" lon="10.744354222413676"><ele>242.0</ele><time>2026-03-28T11:47:57.001Z</time></trkpt><trkpt lat="45.56540787910807" lon="10.744338899269525"><ele>242.0</ele><time>2026-03-28T11:47:58.001Z</time></trkpt><trkpt lat="45.56557234133153" lon="10.744332425065616"><ele>242.33333333333334</ele><time>2026-03-28T11:47:59.001Z</time></trkpt><trkpt lat="45.56570557611572" lon="10.744301802802399"><ele>242.66666666666669</ele><time>2026-03-28T11:48:00.001Z</time></trkpt><trkpt lat="45.56584325578305" lon="10.744230608521445"><ele>243.0</ele><time>2026-03-28T11:48:01.001Z</time></trkpt><trkpt lat="45.566010464044176" lon="10.744175312421671"><ele>243.0</ele><time>2026-03-28T11:48:02.001Z</time></trkpt><trkpt lat="45.56617314871312" lon="10.744132146299153"><ele>243.0</ele><time>2026-03-28T11:48:03.001Z</time></trkpt><trkpt lat="45.56633521714156" lon="10.744082162827736"><ele>243.0</ele><time>2026-03-28T11:48:04.001Z</time></trkpt><trkpt lat="45.566509728368054" lon="10.744037784856465"><ele>244.33333333333331</ele><time>2026-03-28T11:48:05.001Z</time></trkpt><trkpt lat="45.566677792719396" lon="10.744011387737137"><ele>245.66666666666666</ele><time>2026-03-28T11:48:06.001Z</time></trkpt><trkpt lat="45.566853611902026" lon="10.744004367700102"><ele>247.0</ele><time>2026-03-28T11:48:07.001Z</time></trkpt><trkpt lat="45.56701975370359" lon="10.744008242016173"><ele>247.5</ele><time>2026-03-28T11:48:08.001Z</time></trkpt><trkpt lat="45.56715835358454" lon="10.7440251417659"><ele>248.0</ele><time>2026-03-28T11:48:09.001Z</time></trkpt><trkpt lat="45.56728732863103" lon="10.744051176519799"><ele>248.5</ele><time>2026-03-28T11:48:10.001Z</time></trkpt><trkpt lat="45.56741298913143" lon="10.744098831320295"><ele>249.0</ele><time>2026-03-28T11:48:11.001Z</time></trkpt><trkpt lat="45.56753174663363" lon="10.74416009794863"><ele>249.0</ele><time>2026-03-28T11:48:12.001Z</time></trkpt><trkpt lat="45.567620061550684" lon="10.744204079129965"><ele>249.0</ele><time>2026-03-28T11:48:13.001Z</time></trkpt><trkpt lat="45.56772291002739" lon="10.744247639386497"><ele>249.0</ele><time>2026-03-28T11:48:15.001Z</time></trkpt><trkpt lat="45.56778365389228" lon="10.74427186022035"><ele>249.0</ele><time>2026-03-28T11:48:18.001Z</time></trkpt><trkpt lat="45.56780182815936" lon="10.74414445232456"><ele>249.0</ele><time>2026-03-28T11:48:19.001Z</time></trkpt><trkpt lat="45.56778980355293" lon="10.744029061059376"><ele>249.0</ele><time>2026-03-28T11:48:20.001Z</time></trkpt><trkpt lat="45.567758639797695" lon="10.743883117172418"><ele>249.0</ele><time>2026-03-28T11:48:21.001Z</time></trkpt><trkpt lat="45.567732470304996" lon="10.743740960286333"><ele>248.99999999999997</ele><time>2026-03-28T11:48:22.001Z</time></trkpt><trkpt lat="45.567710427630004" lon="10.74358702327121"><ele>248.99999999999997</ele><time>2026-03-28T11:48:23.001Z</time></trkpt><trkpt lat="45.56768984565736" lon="10.74343535810031"><ele>249.0</ele><time>2026-03-28T11:48:24.001Z</time></trkpt><trkpt lat="45.56767218058089" lon="10.743315098109163"><ele>249.0</ele><time>2026-03-28T11:48:25.001Z</time></trkpt><trkpt lat="45.56764774664798" lon="10.743167106253887"><ele>248.83333333333334</ele><time>2026-03-28T11:48:26.001Z</time></trkpt><trkpt lat="45.56762036105785" lon="10.743038023158222"><ele>248.66666666666669</ele><time>2026-03-28T11:48:27.001Z</time></trkpt><trkpt lat="45.56759707304146" lon="10.742926638428976"><ele>248.5</ele><time>2026-03-28T11:48:28.001Z</time></trkpt><trkpt lat="45.56758716783388" lon="10.74282469739288"><ele>248.33333333333334</ele><time>2026-03-28T11:48:29.001Z</time></trkpt><trkpt lat="45.56759755326889" lon="10.742705002755635"><ele>248.16666666666669</ele><time>2026-03-28T11:48:30.002Z</time></trkpt><trkpt lat="45.567626925166316" lon="10.742602791019285"><ele>248.0</ele><time>2026-03-28T11:48:31.002Z</time></trkpt><trkpt lat="45.56764334238361" lon="10.742507561109218"><ele>247.2</ele><time>2026-03-28T11:48:32.002Z</time></trkpt><trkpt lat="45.56766608840835" lon="10.742327134545697"><ele>246.4</ele><time>2026-03-28T11:48:34.002Z</time></trkpt><trkpt lat="45.56772280596948" lon="10.742174353558001"><ele>245.59999999999997</ele><time>2026-03-28T11:48:36.002Z</time></trkpt><trkpt lat="45.56776385357922" lon="10.742094422352341"><ele>244.79999999999998</ele><time>2026-03-28T11:48:37.002Z</time></trkpt><trkpt lat="45.56781895628135" lon="10.741989233315628"><ele>244.0</ele><time>2026-03-28T11:48:38.002Z</time></trkpt><trkpt lat="45.56787951039042" lon="10.741882238304841"><ele>243.49999999999997</ele><time>2026-03-28T11:48:39.002Z</time></trkpt><trkpt lat="45.567938063727105" lon="10.741776331905228"><ele>243.0</ele><time>2026-03-28T11:48:40.002Z</time></trkpt><trkpt lat="45.567988032882404" lon="10.74170074968843"><ele>242.5</ele><time>2026-03-28T11:48:41.002Z</time></trkpt><trkpt lat="45.56804737315526" lon="10.741527458770788"><ele>242.0</ele><time>2026-03-28T11:48:43.002Z</time></trkpt><trkpt lat="45.56805381100713" lon="10.741431038465498"><ele>241.49999999999997</ele><time>2026-03-28T11:48:44.002Z</time></trkpt><trkpt lat="45.568045941513326" lon="10.741329193256503"><ele>241.0</ele><time>2026-03-28T11:48:45.002Z</time></trkpt><trkpt lat="45.5680264186159" lon="10.74121879858448"><ele>240.99999999999997</ele><time>2026-03-28T11:48:46.002Z</time></trkpt><trkpt lat="45.56800816649933" lon="10.74111947438404"><ele>241.0</ele><time>2026-03-28T11:48:47.002Z</time></trkpt><trkpt lat="45.567978747191496" lon="10.74103478483645"><ele>241.0</ele><time>2026-03-28T11:48:48.002Z</time></trkpt><trkpt lat="45.567920435147855" lon="10.740940305587658"><ele>241.0</ele><time>2026-03-28T11:48:49.002Z</time></trkpt><trkpt lat="45.567847933809595" lon="10.74084681691673"><ele>240.99999999999997</ele><time>2026-03-28T11:48:50.002Z</time></trkpt><trkpt lat="45.56777759751458" lon="10.74079508832259"><ele>241.0</ele><time>2026-03-28T11:48:51.002Z</time></trkpt><trkpt lat="45.567696575825366" lon="10.740757081112292"><ele>237.5</ele><time>2026-03-28T11:48:52.002Z</time></trkpt><trkpt lat="45.56758715941761" lon="10.740710374919868"><ele>234.0</ele><time>2026-03-28T11:48:53.002Z</time></trkpt><trkpt lat="45.5674515606002" lon="10.740649704016942"><ele>230.5</ele><time>2026-03-28T11:48:54.002Z</time></trkpt><trkpt lat="45.56730450732135" lon="10.740588208150102"><ele>227.0</ele><time>2026-03-28T11:48:55.002Z</time></trkpt><trkpt lat="45.56714763131101" lon="10.740554243256257"><ele>227.25</ele><time>2026-03-28T11:48:56.002Z</time></trkpt><trkpt lat="45.56698859389944" lon="10.740520634908044"><ele>227.5</ele><time>2026-03-28T11:48:57.002Z</time></trkpt><trkpt lat="45.56686795022792" lon="10.740479116964844"><ele>227.75</ele><time>2026-03-28T11:48:58.002Z</time></trkpt><trkpt lat="45.56678287125973" lon="10.740413632524499"><ele>228.0</ele><time>2026-03-28T11:48:59.002Z</time></trkpt><trkpt lat="45.5666988965912" lon="10.740304925988331"><ele>229.25</ele><time>2026-03-28T11:49:00.002Z</time></trkpt><trkpt lat="45.56660875174654" lon="10.7401608118198"><ele>230.5</ele><time>2026-03-28T11:49:01.002Z</time></trkpt><trkpt lat="45.56653400809028" lon="10.73999802606569"><ele>231.75</ele><time>2026-03-28T11:49:02.002Z</time></trkpt><trkpt lat="45.56646770590589" lon="10.7398326861544"><ele>233.0</ele><time>2026-03-28T11:49:03.002Z</time></trkpt><trkpt lat="45.56641031298726" lon="10.739683344424337"><ele>233.0</ele><time>2026-03-28T11:49:04.002Z</time></trkpt><trkpt lat="45.56636717253072" lon="10.739532578235528"><ele>233.0</ele><time>2026-03-28T11:49:05.002Z</time></trkpt><trkpt lat="45.56635061528746" lon="10.73937387974501"><ele>233.0</ele><time>2026-03-28T11:49:06.002Z</time></trkpt><trkpt lat="45.56633982924276" lon="10.73921036997302"><ele>233.0</ele><time>2026-03-28T11:49:07.002Z</time></trkpt><trkpt lat="45.5663264092562" lon="10.739075229153954"><ele>233.0</ele><time>2026-03-28T11:49:08.003Z</time></trkpt><trkpt lat="45.566320041144046" lon="10.738973015710233"><ele>234.0</ele><time>2026-03-28T11:49:09.003Z</time></trkpt><trkpt lat="45.56636153977543" lon="10.738826050682253"><ele>235.0</ele><time>2026-03-28T11:49:11.003Z</time></trkpt><trkpt lat="45.56645588894742" lon="10.738797130726272"><ele>236.0</ele><time>2026-03-28T11:49:12.003Z</time></trkpt><trkpt lat="45.5665682022918" lon="10.738656073480051"><ele>237.0</ele><time>2026-03-28T11:49:13.003Z</time></trkpt><trkpt lat="45.56669997902222" lon="10.738464306325174"><ele>237.0</ele><time>2026-03-28T11:49:14.003Z</time></trkpt><trkpt lat="45.566853513974046" lon="10.73825496588211"><ele>237.0</ele><time>2026-03-28T11:49:15.003Z</time></trkpt><trkpt lat="45.567010839976355" lon="10.738019807861551"><ele>237.0</ele><time>2026-03-28T11:49:16.003Z</time></trkpt><trkpt lat="45.56714917559549" lon="10.737755211315301"><ele>234.66666666666669</ele><time>2026-03-28T11:49:17.003Z</time></trkpt><trkpt lat="45.56727790960927" lon="10.737526385969579"><ele>232.33333333333334</ele><time>2026-03-28T11:49:18.003Z</time></trkpt><trkpt lat="45.56739416709896" lon="10.737348749749621"><ele>230.0</ele><time>2026-03-28T11:49:19.003Z</time></trkpt><trkpt lat="45.56747217854728" lon="10.737189603695313"><ele>230.0</ele><time>2026-03-28T11:49:20.003Z</time></trkpt><trkpt lat="45.567521620192174" lon="10.737026690012623"><ele>230.0</ele><time>2026-03-28T11:49:21.003Z</time></trkpt><trkpt lat="45.567568012495165" lon="10.73685480078452"><ele>230.0</ele><time>2026-03-28T11:49:22.003Z</time></trkpt><trkpt lat="45.567588268078" lon="10.73664187439285"><ele>230.0</ele><time>2026-03-28T11:49:23.003Z</time></trkpt><trkpt lat="45.567617325876775" lon="10.73645698381182"><ele>229.8</ele><time>2026-03-28T11:49:24.003Z</time></trkpt><trkpt lat="45.56762965842704" lon="10.736325549226253"><ele>229.6</ele><time>2026-03-28T11:49:25.003Z</time></trkpt><trkpt lat="45.567657794287825" lon="10.736216698702156"><ele>229.39999999999998</ele><time>2026-03-28T11:49:27.003Z</time></trkpt><trkpt lat="45.56774190790774" lon="10.736321308435842"><ele>229.2</ele><time>2026-03-28T11:49:29.003Z</time></trkpt><trkpt lat="45.56778445278797" lon="10.736433527987579"><ele>229.0</ele><time>2026-03-28T11:49:30.003Z</time></trkpt><trkpt lat="45.56784791064211" lon="10.7365005487841"><ele>227.0</ele><time>2026-03-28T11:49:31.003Z</time></trkpt><trkpt lat="45.56793513014413" lon="10.736460327540446"><ele>225.0</ele><time>2026-03-28T11:49:33.003Z</time></trkpt><trkpt lat="45.56800349919326" lon="10.736461073962262"><ele>223.0</ele><time>2026-03-28T11:49:35Z</time></trkpt><trkpt lat="45.568086112265085" lon="10.736727997216427"><ele>221.0</ele><time>2026-03-28T11:49:36Z</time></trkpt><trkpt lat="45.56817381768707" lon="10.736924945446543"><ele>220.60000000000002</ele><time>2026-03-28T11:49:37Z</time></trkpt><trkpt lat="45.568265735026884" lon="10.737107876569162"><ele>220.20000000000002</ele><time>2026-03-28T11:49:38Z</time></trkpt><trkpt lat="45.56833990566516" lon="10.737250174679561"><ele>219.79999999999998</ele><time>2026-03-28T11:49:39Z</time></trkpt><trkpt lat="45.56838956382508" lon="10.73735911893953"><ele>219.39999999999998</ele><time>2026-03-28T11:49:40Z</time></trkpt><trkpt lat="45.568425557473255" lon="10.737439628991398"><ele>219.0</ele><time>2026-03-28T11:49:41Z</time></trkpt><trkpt lat="45.568475307948134" lon="10.737517650931663"><ele>219.0</ele><time>2026-03-28T11:49:43Z</time></trkpt><trkpt lat="45.56859059956558" lon="10.73741252611165"><ele>218.99999999999997</ele><time>2026-03-28T11:49:46Z</time></trkpt><trkpt lat="45.568662095244" lon="10.737428830495164"><ele>218.99999999999997</ele><time>2026-03-28T11:49:47Z</time></trkpt><trkpt lat="45.56875302211108" lon="10.737471993074175"><ele>219.0</ele><time>2026-03-28T11:49:48Z</time></trkpt><trkpt lat="45.56886497862987" lon="10.737517135051878"><ele>219.0</ele><time>2026-03-28T11:49:49Z</time></trkpt><trkpt lat="45.56895961042894" lon="10.737537791858658"><ele>218.5</ele><time>2026-03-28T11:49:50Z</time></trkpt><trkpt lat="45.56902950109722" lon="10.737437063526167"><ele>218.0</ele><time>2026-03-28T11:49:52Z</time></trkpt><trkpt lat="45.5690342263642" lon="10.737297945535165"><ele>217.5</ele><time>2026-03-28T11:49:53Z</time></trkpt><trkpt lat="45.56903767973379" lon="10.737081892962276"><ele>217.0</ele><time>2026-03-28T11:49:54Z</time></trkpt><trkpt lat="45.56904353017406" lon="10.736905231012013"><ele>217.25</ele><time>2026-03-28T11:49:55Z</time></trkpt><trkpt lat="45.56904451543977" lon="10.736813224755762"><ele>217.5</ele><time>2026-03-28T11:49:58Z</time></trkpt><trkpt lat="45.56893843330527" lon="10.736749238674989"><ele>217.75</ele><time>2026-03-28T11:50:00Z</time></trkpt><trkpt lat="45.56880475631643" lon="10.736716824941391"><ele>218.0</ele><time>2026-03-28T11:50:01Z</time></trkpt><trkpt lat="45.56865660249663" lon="10.736672810762133"><ele>218.75</ele><time>2026-03-28T11:50:02Z</time></trkpt><trkpt lat="45.56849713880171" lon="10.736617079054334"><ele>219.5</ele><time>2026-03-28T11:50:03Z</time></trkpt><trkpt lat="45.56835686285855" lon="10.736558195743882"><ele>220.25</ele><time>2026-03-28T11:50:04Z</time></trkpt><trkpt lat="45.568223736989786" lon="10.736518996471695"><ele>221.0</ele><time>2026-03-28T11:50:05Z</time></trkpt><trkpt lat="45.56811048368345" lon="10.736494163939824"><ele>221.0</ele><time>2026-03-28T11:50:06.001Z</time></trkpt><trkpt lat="45.56802186094576" lon="10.736471056922221"><ele>221.00000000000003</ele><time>2026-03-28T11:50:07.001Z</time></trkpt><trkpt lat="45.567959999472464" lon="10.736441768399272"><ele>221.00000000000003</ele><time>2026-03-28T11:50:08.001Z</time></trkpt><trkpt lat="45.567879890307154" lon="10.73641556421935"><ele>221.0</ele><time>2026-03-28T11:50:09.001Z</time></trkpt><trkpt lat="45.567838120238264" lon="10.736237357195959"><ele>221.0</ele><time>2026-03-28T11:50:10.001Z</time></trkpt><trkpt lat="45.56778154086346" lon="10.736085341910284"><ele>220.8</ele><time>2026-03-28T11:50:11.001Z</time></trkpt><trkpt lat="45.56774139888643" lon="10.735956933681006"><ele>220.60000000000002</ele><time>2026-03-28T11:50:12.001Z</time></trkpt><trkpt lat="45.567738512124166" lon="10.735855397276547"><ele>220.4</ele><time>2026-03-28T11:50:13.001Z</time></trkpt><trkpt lat="45.567874416215645" lon="10.735804221355718"><ele>220.2</ele><time>2026-03-28T11:50:16.001Z</time></trkpt><trkpt lat="45.567971248689496" lon="10.735849212919934"><ele>220.0</ele><time>2026-03-28T11:50:17.001Z</time></trkpt><trkpt lat="45.56808922825403" lon="10.73589536843699"><ele>220.0</ele><time>2026-03-28T11:50:18.001Z</time></trkpt><trkpt lat="45.56823596258131" lon="10.735933995974715"><ele>220.0</ele><time>2026-03-28T11:50:19.001Z</time></trkpt><trkpt lat="45.56840368580607" lon="10.736006027690852"><ele>220.0</ele><time>2026-03-28T11:50:20.001Z</time></trkpt><trkpt lat="45.56858582717655" lon="10.736042908297964"><ele>219.66666666666666</ele><time>2026-03-28T11:50:21.001Z</time></trkpt><trkpt lat="45.568744048322785" lon="10.736038480302883"><ele>219.33333333333331</ele><time>2026-03-28T11:50:22.001Z</time></trkpt><trkpt lat="45.56891218095262" lon="10.73601070452745"><ele>219.0</ele><time>2026-03-28T11:50:23.001Z</time></trkpt><trkpt lat="45.56908324357204" lon="10.736027417406055"><ele>219.0</ele><time>2026-03-28T11:50:24.001Z</time></trkpt><trkpt lat="45.56924711745427" lon="10.736111412785714"><ele>219.0</ele><time>2026-03-28T11:50:25.001Z</time></trkpt><trkpt lat="45.56940999344195" lon="10.736165492007693"><ele>219.0</ele><time>2026-03-28T11:50:26.001Z</time></trkpt><trkpt lat="45.569556155764744" lon="10.736235796561969"><ele>219.0</ele><time>2026-03-28T11:50:27.001Z</time></trkpt><trkpt lat="45.569722605477175" lon="10.736271049759848"><ele>219.0</ele><time>2026-03-28T11:50:28.001Z</time></trkpt><trkpt lat="45.569893408043555" lon="10.736294209722955"><ele>219.0</ele><time>2026-03-28T11:50:29.001Z</time></trkpt><trkpt lat="45.570068560558305" lon="10.736311105083209"><ele>219.0</ele><time>2026-03-28T11:50:30.001Z</time></trkpt><trkpt lat="45.57024378557281" lon="10.736320402911726"><ele>219.0</ele><time>2026-03-28T11:50:31.001Z</time></trkpt><trkpt lat="45.570399047695105" lon="10.736328554307262"><ele>219.0</ele><time>2026-03-28T11:50:32.001Z</time></trkpt><trkpt lat="45.570512366797864" lon="10.736327655409728"><ele>219.0</ele><time>2026-03-28T11:50:33.001Z</time></trkpt><trkpt lat="45.57058520898065" lon="10.736322355876913"><ele>219.75</ele><time>2026-03-28T11:50:34.001Z</time></trkpt><trkpt lat="45.570667947415785" lon="10.736325202723432"><ele>220.5</ele><time>2026-03-28T11:50:36.001Z</time></trkpt><trkpt lat="45.570675584995975" lon="10.736520915823373"><ele>221.25</ele><time>2026-03-28T11:50:37.001Z</time></trkpt><trkpt lat="45.57072318081825" lon="10.736716616448671"><ele>222.0</ele><time>2026-03-28T11:50:38.001Z</time></trkpt><trkpt lat="45.57078071035706" lon="10.73692488625195"><ele>222.0</ele><time>2026-03-28T11:50:39.001Z</time></trkpt><trkpt lat="45.57080572612303" lon="10.737143563979739"><ele>222.0</ele><time>2026-03-28T11:50:40.001Z</time></trkpt><trkpt lat="45.570814964552746" lon="10.737353410030897"><ele>222.0</ele><time>2026-03-28T11:50:41.001Z</time></trkpt><trkpt lat="45.57081765852293" lon="10.737535908629797"><ele>222.0</ele><time>2026-03-28T11:50:42.001Z</time></trkpt><trkpt lat="45.5708273697323" lon="10.737689516167656"><ele>222.39999999999998</ele><time>2026-03-28T11:50:43.001Z</time></trkpt><trkpt lat="45.57085144444398" lon="10.737826928107703"><ele>222.79999999999998</ele><time>2026-03-28T11:50:44.002Z</time></trkpt><trkpt lat="45.570857176509314" lon="10.737975989799056"><ele>223.2</ele><time>2026-03-28T11:50:45.002Z</time></trkpt><trkpt lat="45.570855736882656" lon="10.738158930933682"><ele>223.6</ele><time>2026-03-28T11:50:46.002Z</time></trkpt><trkpt lat="45.57087903745445" lon="10.738315692120011"><ele>224.0</ele><time>2026-03-28T11:50:47.002Z</time></trkpt><trkpt lat="45.570885933214534" lon="10.738445871673559"><ele>223.50000000000003</ele><time>2026-03-28T11:50:48.002Z</time></trkpt><trkpt lat="45.570892882386644" lon="10.73856437408833"><ele>223.0</ele><time>2026-03-28T11:50:49.002Z</time></trkpt><trkpt lat="45.57090919947728" lon="10.738684075520439"><ele>222.5</ele><time>2026-03-28T11:50:50.002Z</time></trkpt><trkpt lat="45.57090264947068" lon="10.738786416997671"><ele>222.0</ele><time>2026-03-28T11:50:51.002Z</time></trkpt><trkpt lat="45.57090088958961" lon="10.738903835787653"><ele>221.50000000000003</ele><time>2026-03-28T11:50:52.002Z</time></trkpt><trkpt lat="45.57090780300867" lon="10.73905123642356"><ele>221.0</ele><time>2026-03-28T11:50:53.002Z</time></trkpt><trkpt lat="45.57089776590617" lon="10.73920525028744"><ele>221.00000000000003</ele><time>2026-03-28T11:50:54.002Z</time></trkpt><trkpt lat="45.570893819300856" lon="10.739327261895825"><ele>221.0</ele><time>2026-03-28T11:50:55.002Z</time></trkpt><trkpt lat="45.570897830227906" lon="10.739430710542525"><ele>221.0</ele><time>2026-03-28T11:50:56.002Z</time></trkpt><trkpt lat="45.57086845533898" lon="10.739527997705899"><ele>221.0</ele><time>2026-03-28T11:50:57.002Z</time></trkpt><trkpt lat="45.570879061626265" lon="10.739674520364588"><ele>221.00000000000003</ele><time>2026-03-28T11:50:59.002Z</time></trkpt><trkpt lat="45.570923330801435" lon="10.73974115274286"><ele>221.0</ele><time>2026-03-28T11:51:01.002Z</time></trkpt><trkpt lat="45.57107946110381" lon="10.739691374858335"><ele>221.0</ele><time>2026-03-28T11:51:03.002Z</time></trkpt><trkpt lat="45.57116889172292" lon="10.739667690508478"><ele>221.00000000000003</ele><time>2026-03-28T11:51:05.002Z</time></trkpt><trkpt lat="45.57124291781826" lon="10.739792245511726"><ele>221.00000000000003</ele><time>2026-03-28T11:51:08.002Z</time></trkpt><trkpt lat="45.571223419016995" lon="10.739902262372622"><ele>221.0</ele><time>2026-03-28T11:51:09.002Z</time></trkpt><trkpt lat="45.571221632540954" lon="10.74001900625042"><ele>221.0</ele><time>2026-03-28T11:51:10.002Z</time></trkpt><trkpt lat="45.57121420205221" lon="10.740168108194222"><ele>218.00000000000003</ele><time>2026-03-28T11:51:12.002Z</time></trkpt><trkpt lat="45.57121774436679" lon="10.740272212935729"><ele>215.0</ele><time>2026-03-28T11:51:14.002Z</time></trkpt><trkpt lat="45.57119796223452" lon="10.740404300355813"><ele>212.0</ele><time>2026-03-28T11:51:16.002Z</time></trkpt><trkpt lat="45.57119425533472" lon="10.740516842452505"><ele>209.0</ele><time>2026-03-28T11:51:17.002Z</time></trkpt><trkpt lat="45.57119638822566" lon="10.740650007802719"><ele>206.00000000000003</ele><time>2026-03-28T11:51:18.002Z</time></trkpt><trkpt lat="45.57122612489141" lon="10.740780455221598"><ele>203.0</ele><time>2026-03-28T11:51:19.002Z</time></trkpt><trkpt lat="45.57122877877239" lon="10.740899715676667"><ele>207.33333333333334</ele><time>2026-03-28T11:51:20.002Z</time></trkpt><trkpt lat="45.57117561843123" lon="10.741054842405727"><ele>211.66666666666669</ele><time>2026-03-28T11:51:22.003Z</time></trkpt><trkpt lat="45.57110062872458" lon="10.74107133367806"><ele>216.0</ele><time>2026-03-28T11:51:23.003Z</time></trkpt><trkpt lat="45.5710371792263" lon="10.741155974841417"><ele>220.33333333333331</ele><time>2026-03-28T11:51:24.003Z</time></trkpt><trkpt lat="45.57099417415231" lon="10.741247043396438"><ele>224.66666666666666</ele><time>2026-03-28T11:51:25.003Z</time></trkpt><trkpt lat="45.57100452187788" lon="10.74134289929795"><ele>229.0</ele><time>2026-03-28T11:51:26.003Z</time></trkpt><trkpt lat="45.57101231082665" lon="10.741507960862803"><ele>229.0</ele><time>2026-03-28T11:51:27.003Z</time></trkpt><trkpt lat="45.571074711507755" lon="10.741690938184293"><ele>229.0</ele><time>2026-03-28T11:51:28.003Z</time></trkpt><trkpt lat="45.57113079792023" lon="10.741907884482629"><ele>229.0</ele><time>2026-03-28T11:51:29.003Z</time></trkpt><trkpt lat="45.57119942807457" lon="10.742082373665673"><ele>229.0</ele><time>2026-03-28T11:51:30.003Z</time></trkpt><trkpt lat="45.571243407122424" lon="10.742250629437626"><ele>224.75</ele><time>2026-03-28T11:51:31.003Z</time></trkpt><trkpt lat="45.57127462998105" lon="10.742447018924763"><ele>220.5</ele><time>2026-03-28T11:51:32.003Z</time></trkpt><trkpt lat="45.5713057224899" lon="10.742628448750073"><ele>216.25</ele><time>2026-03-28T11:51:33.003Z</time></trkpt><trkpt lat="45.57133128637344" lon="10.742774431833707"><ele>212.0</ele><time>2026-03-28T11:51:34.003Z</time></trkpt><trkpt lat="45.57136007168799" lon="10.74290953727307"><ele>212.00000000000003</ele><time>2026-03-28T11:51:35.003Z</time></trkpt><trkpt lat="45.57138431677115" lon="10.743005479763944"><ele>212.0</ele><time>2026-03-28T11:51:36.003Z</time></trkpt><trkpt lat="45.57140914834896" lon="10.743110414429694"><ele>212.0</ele><time>2026-03-28T11:51:38.003Z</time></trkpt><trkpt lat="45.57146640717691" lon="10.743235858177858"><ele>212.0</ele><time>2026-03-28T11:51:42Z</time></trkpt><trkpt lat="45.57143540864396" lon="10.743147193520432"><ele>212.00000000000003</ele><time>2026-03-28T11:51:47Z</time></trkpt><trkpt lat="45.57142194219667" lon="10.743041622638296"><ele>212.0</ele><time>2026-03-28T11:51:48Z</time></trkpt><trkpt lat="45.57138664321204" lon="10.742941898726363"><ele>212.00000000000003</ele><time>2026-03-28T11:51:49Z</time></trkpt><trkpt lat="45.5713549610655" lon="10.742834651005486"><ele>212.0</ele><time>2026-03-28T11:51:50Z</time></trkpt><trkpt lat="45.57135870132299" lon="10.742733468232235"><ele>212.0</ele><time>2026-03-28T11:51:51Z</time></trkpt><trkpt lat="45.57132405139044" lon="10.7426336199159"><ele>212.0</ele><time>2026-03-28T11:51:52Z</time></trkpt><trkpt lat="45.57132048584779" lon="10.742518190292472"><ele>212.00000000000003</ele><time>2026-03-28T11:51:53Z</time></trkpt><trkpt lat="45.57130420763381" lon="10.742418782566098"><ele>212.0</ele><time>2026-03-28T11:51:54Z</time></trkpt><trkpt lat="45.57128407477983" lon="10.742307671382829"><ele>211.66666666666669</ele><time>2026-03-28T11:51:55Z</time></trkpt><trkpt lat="45.57126161368792" lon="10.742203715611632"><ele>211.33333333333334</ele><time>2026-03-28T11:51:56Z</time></trkpt><trkpt lat="45.571230775666464" lon="10.742107297834057"><ele>211.0</ele><time>2026-03-28T11:51:57Z</time></trkpt><trkpt lat="45.57119100138345" lon="10.741982936324575"><ele>210.66666666666669</ele><time>2026-03-28T11:51:58Z</time></trkpt><trkpt lat="45.571157158783976" lon="10.741898968786842"><ele>210.33333333333334</ele><time>2026-03-28T11:52:00Z</time></trkpt><trkpt lat="45.57121464731391" lon="10.741999684921518"><ele>210.0</ele><time>2026-03-28T11:52:04Z</time></trkpt><trkpt lat="45.571247137148056" lon="10.742101270585234"><ele>210.0</ele><time>2026-03-28T11:52:06Z</time></trkpt><trkpt lat="45.57128368729538" lon="10.742216835906387"><ele>210.0</ele><time>2026-03-28T11:52:08Z</time></trkpt><trkpt lat="45.57146521794061" lon="10.742282038238967"><ele>210.0</ele><time>2026-03-28T11:52:09Z</time></trkpt><trkpt lat="45.57152049336364" lon="10.742360834346618"><ele>210.0</ele><time>2026-03-28T11:52:10Z</time></trkpt><trkpt lat="45.57158903108116" lon="10.7424296107108"><ele>210.0</ele><time>2026-03-28T11:52:11Z</time></trkpt><trkpt lat="45.57165478542068" lon="10.742541860362358"><ele>210.0</ele><time>2026-03-28T11:52:13Z</time></trkpt><trkpt lat="45.57169325650249" lon="10.742632449698082"><ele>210.0</ele><time>2026-03-28T11:52:14.001Z</time></trkpt><trkpt lat="45.5717706108" lon="10.742627210753886"><ele>210.0</ele><time>2026-03-28T11:52:15.001Z</time></trkpt><trkpt lat="45.571861717511105" lon="10.742586123959684"><ele>210.0</ele><time>2026-03-28T11:52:16.001Z</time></trkpt><trkpt lat="45.57196086796581" lon="10.742562870791136"><ele>210.0</ele><time>2026-03-28T11:52:17.001Z</time></trkpt><trkpt lat="45.572060939952415" lon="10.742510101118434"><ele>209.2</ele><time>2026-03-28T11:52:18.001Z</time></trkpt><trkpt lat="45.57216128916692" lon="10.742457664957751"><ele>208.4</ele><time>2026-03-28T11:52:19.001Z</time></trkpt><trkpt lat="45.57225136569091" lon="10.74248739842544"><ele>207.60000000000002</ele><time>2026-03-28T11:52:21.001Z</time></trkpt><trkpt lat="45.572338621878494" lon="10.742515247925672"><ele>206.8</ele><time>2026-03-28T11:52:22.001Z</time></trkpt><trkpt lat="45.57242589462106" lon="10.742643486371179"><ele>206.0</ele><time>2026-03-28T11:52:23.001Z</time></trkpt><trkpt lat="45.57253447476731" lon="10.742780653131074"><ele>205.66666666666669</ele><time>2026-03-28T11:52:24.001Z</time></trkpt><trkpt lat="45.57265828058046" lon="10.742935608518557"><ele>205.33333333333331</ele><time>2026-03-28T11:52:25.001Z</time></trkpt><trkpt lat="45.572800180273596" lon="10.743061301351212"><ele>205.0</ele><time>2026-03-28T11:52:26.001Z</time></trkpt><trkpt lat="45.5729452921391" lon="10.743178717845637"><ele>205.0</ele><time>2026-03-28T11:52:27.001Z</time></trkpt><trkpt lat="45.57308385816912" lon="10.743311469548836"><ele>205.0</ele><time>2026-03-28T11:52:28.001Z</time></trkpt><trkpt lat="45.573231176347974" lon="10.743458301952474"><ele>205.0</ele><time>2026-03-28T11:52:29.001Z</time></trkpt><trkpt lat="45.573356127590955" lon="10.743584935903504"><ele>204.5</ele><time>2026-03-28T11:52:30.001Z</time></trkpt><trkpt lat="45.57345111991935" lon="10.743705085533783"><ele>204.0</ele><time>2026-03-28T11:52:31.001Z</time></trkpt><trkpt lat="45.5735577135261" lon="10.743854040405704"><ele>203.5</ele><time>2026-03-28T11:52:32.001Z</time></trkpt><trkpt lat="45.57367206602548" lon="10.744013151441413"><ele>203.0</ele><time>2026-03-28T11:52:33.001Z</time></trkpt><trkpt lat="45.57377880665835" lon="10.744141383310051"><ele>203.00000000000003</ele><time>2026-03-28T11:52:34.001Z</time></trkpt><trkpt lat="45.57385426247072" lon="10.744201224249345"><ele>203.0</ele><time>2026-03-28T11:52:35.001Z</time></trkpt><trkpt lat="45.57392534891155" lon="10.744264131425929"><ele>203.0</ele><time>2026-03-28T11:52:37.001Z</time></trkpt><trkpt lat="45.573953816025316" lon="10.744362505080254"><ele>203.0</ele><time>2026-03-28T11:52:38.001Z</time></trkpt><trkpt lat="45.57402185655295" lon="10.744427829210936"><ele>203.00000000000003</ele><time>2026-03-28T11:52:39.001Z</time></trkpt><trkpt lat="45.574121272273494" lon="10.74452915252865"><ele>203.0</ele><time>2026-03-28T11:52:40.001Z</time></trkpt><trkpt lat="45.574232130294995" lon="10.744653579130004"><ele>203.5</ele><time>2026-03-28T11:52:41.001Z</time></trkpt><trkpt lat="45.574342717915776" lon="10.744786600381966"><ele>204.0</ele><time>2026-03-28T11:52:42.001Z</time></trkpt><trkpt lat="45.57445099859988" lon="10.744926811173892"><ele>204.5</ele><time>2026-03-28T11:52:43.001Z</time></trkpt><trkpt lat="45.57455991309307" lon="10.745061745126304"><ele>205.0</ele><time>2026-03-28T11:52:44.001Z</time></trkpt><trkpt lat="45.57466676409697" lon="10.74518933902496"><ele>209.75</ele><time>2026-03-28T11:52:45.001Z</time></trkpt><trkpt lat="45.574768585098035" lon="10.745316330731294"><ele>214.5</ele><time>2026-03-28T11:52:46.001Z</time></trkpt><trkpt lat="45.57484638967725" lon="10.745428221704648"><ele>219.25</ele><time>2026-03-28T11:52:47.001Z</time></trkpt><trkpt lat="45.57490497769531" lon="10.745550922300366"><ele>224.0</ele><time>2026-03-28T11:52:48.001Z</time></trkpt><trkpt lat="45.57495729556924" lon="10.745706023602683"><ele>224.0</ele><time>2026-03-28T11:52:49.001Z</time></trkpt><trkpt lat="45.5750451709117" lon="10.745849078212945"><ele>224.0</ele><time>2026-03-28T11:52:50.001Z</time></trkpt><trkpt lat="45.57516004155137" lon="10.745952944274125"><ele>224.0</ele><time>2026-03-28T11:52:51.002Z</time></trkpt><trkpt lat="45.57529223710375" lon="10.746033754289398"><ele>224.0</ele><time>2026-03-28T11:52:52.002Z</time></trkpt><trkpt lat="45.5754357021025" lon="10.746117351335174"><ele>227.0</ele><time>2026-03-28T11:52:53.002Z</time></trkpt><trkpt lat="45.575583882070404" lon="10.746195206609448"><ele>230.0</ele><time>2026-03-28T11:52:54.002Z</time></trkpt><trkpt lat="45.57572983352875" lon="10.74626416953909"><ele>233.0</ele><time>2026-03-28T11:52:55.002Z</time></trkpt><trkpt lat="45.575884140552716" lon="10.746300293225802"><ele>233.0</ele><time>2026-03-28T11:52:56.002Z</time></trkpt><trkpt lat="45.57603547440368" lon="10.74630817748169"><ele>233.0</ele><time>2026-03-28T11:52:57.002Z</time></trkpt><trkpt lat="45.576192369831446" lon="10.746287651235834"><ele>233.0</ele><time>2026-03-28T11:52:58.002Z</time></trkpt><trkpt lat="45.57633086686859" lon="10.746269817946574"><ele>233.0</ele><time>2026-03-28T11:52:59.002Z</time></trkpt><trkpt lat="45.57644022902878" lon="10.746268674105416"><ele>233.4</ele><time>2026-03-28T11:53:00.002Z</time></trkpt><trkpt lat="45.57652668891797" lon="10.746273851020879"><ele>233.8</ele><time>2026-03-28T11:53:01.002Z</time></trkpt><trkpt lat="45.5766011210713" lon="10.746300813835305"><ele>234.2</ele><time>2026-03-28T11:53:02.002Z</time></trkpt><trkpt lat="45.57665537677419" lon="10.746375493748461"><ele>234.6</ele><time>2026-03-28T11:53:03.002Z</time></trkpt><trkpt lat="45.576665103366174" lon="10.746549949530126"><ele>235.0</ele><time>2026-03-28T11:53:04.002Z</time></trkpt><trkpt lat="45.57669781003648" lon="10.746670773190852"><ele>235.0</ele><time>2026-03-28T11:53:05.002Z</time></trkpt><trkpt lat="45.57672712146123" lon="10.746792539440191"><ele>235.0</ele><time>2026-03-28T11:53:06.002Z</time></trkpt><trkpt lat="45.57678741544145" lon="10.746851356478844"><ele>235.0</ele><time>2026-03-28T11:53:07.002Z</time></trkpt><trkpt lat="45.57687748349236" lon="10.746878513421944"><ele>235.0</ele><time>2026-03-28T11:53:08.002Z</time></trkpt><trkpt lat="45.576993722950085" lon="10.746872691323102"><ele>235.0</ele><time>2026-03-28T11:53:09.002Z</time></trkpt><trkpt lat="45.57711070894812" lon="10.746846075469406"><ele>234.75</ele><time>2026-03-28T11:53:10.002Z</time></trkpt><trkpt lat="45.577241942785356" lon="10.74680115973139"><ele>234.5</ele><time>2026-03-28T11:53:11.002Z</time></trkpt><trkpt lat="45.5773810967998" lon="10.74672008796948"><ele>234.25</ele><time>2026-03-28T11:53:12.002Z</time></trkpt><trkpt lat="45.57750297159733" lon="10.74658773752204"><ele>234.0</ele><time>2026-03-28T11:53:13.002Z</time></trkpt><trkpt lat="45.57764043933023" lon="10.746476952443464"><ele>234.0</ele><time>2026-03-28T11:53:14.002Z</time></trkpt><trkpt lat="45.57778153541437" lon="10.746328853130287"><ele>234.0</ele><time>2026-03-28T11:53:15.002Z</time></trkpt><trkpt lat="45.57792624140685" lon="10.74617934316868"><ele>234.0</ele><time>2026-03-28T11:53:16.002Z</time></trkpt><trkpt lat="45.57807130018819" lon="10.746048887205035"><ele>232.25</ele><time>2026-03-28T11:53:17.002Z</time></trkpt><trkpt lat="45.57821048168588" lon="10.745932574052212"><ele>230.5</ele><time>2026-03-28T11:53:18.002Z</time></trkpt><trkpt lat="45.57833194241772" lon="10.745829685386095"><ele>228.75</ele><time>2026-03-28T11:53:19.002Z</time></trkpt><trkpt lat="45.57843011674709" lon="10.745746203935646"><ele>227.0</ele><time>2026-03-28T11:53:20.002Z</time></trkpt><trkpt lat="45.578529970928436" lon="10.745660350600456"><ele>227.0</ele><time>2026-03-28T11:53:21.002Z</time></trkpt><trkpt lat="45.578628121160456" lon="10.745573300769095"><ele>227.0</ele><time>2026-03-28T11:53:22.002Z</time></trkpt><trkpt lat="45.57872840223347" lon="10.745478181985435"><ele>227.0</ele><time>2026-03-28T11:53:23.002Z</time></trkpt><trkpt lat="45.578805262080856" lon="10.745356402156144"><ele>227.0</ele><time>2026-03-28T11:53:24.002Z</time></trkpt><trkpt lat="45.578891727731154" lon="10.745266062079976"><ele>225.25</ele><time>2026-03-28T11:53:25.002Z</time></trkpt><trkpt lat="45.57898013143405" lon="10.745132720101974"><ele>223.5</ele><time>2026-03-28T11:53:26.002Z</time></trkpt><trkpt lat="45.57907559111493" lon="10.744982663983924"><ele>221.75</ele><time>2026-03-28T11:53:27.002Z</time></trkpt><trkpt lat="45.57917459543144" lon="10.744827442462691"><ele>220.0</ele><time>2026-03-28T11:53:28.002Z</time></trkpt><trkpt lat="45.57925382610425" lon="10.744693598766489"><ele>220.0</ele><time>2026-03-28T11:53:29.003Z</time></trkpt><trkpt lat="45.57934027295527" lon="10.74462983015356"><ele>220.0</ele><time>2026-03-28T11:53:30.003Z</time></trkpt><trkpt lat="45.57941730949223" lon="10.74461266378001"><ele>220.0</ele><time>2026-03-28T11:53:31.003Z</time></trkpt><trkpt lat="45.579492457626394" lon="10.744691596679214"><ele>220.0</ele><time>2026-03-28T11:53:32.003Z</time></trkpt><trkpt lat="45.57958823429269" lon="10.744747737291037"><ele>220.0</ele><time>2026-03-28T11:53:33.003Z</time></trkpt><trkpt lat="45.57969166453707" lon="10.74483811317894"><ele>219.25</ele><time>2026-03-28T11:53:34.003Z</time></trkpt><trkpt lat="45.57980688479493" lon="10.744920677229437"><ele>218.5</ele><time>2026-03-28T11:53:35.003Z</time></trkpt><trkpt lat="45.57992223339623" lon="10.745012542994806"><ele>217.75</ele><time>2026-03-28T11:53:36.003Z</time></trkpt><trkpt lat="45.58003787856448" lon="10.745132074410304"><ele>217.0</ele><time>2026-03-28T11:53:37.003Z</time></trkpt><trkpt lat="45.580155660929734" lon="10.745260869166644"><ele>218.75</ele><time>2026-03-28T11:53:38.003Z</time></trkpt><trkpt lat="45.580288084792585" lon="10.7453643372341"><ele>220.5</ele><time>2026-03-28T11:53:39.003Z</time></trkpt><trkpt lat="45.58041304028596" lon="10.745426151018581"><ele>222.25</ele><time>2026-03-28T11:53:40.003Z</time></trkpt><trkpt lat="45.58055554977465" lon="10.745453114926907"><ele>224.0</ele><time>2026-03-28T11:53:41.003Z</time></trkpt><trkpt lat="45.58070929560844" lon="10.745476247855418"><ele>227.0</ele><time>2026-03-28T11:53:42.003Z</time></trkpt><trkpt lat="45.58087246770025" lon="10.745520608442586"><ele>230.0</ele><time>2026-03-28T11:53:43.003Z</time></trkpt><trkpt lat="45.5810348966062" lon="10.74557884294657"><ele>233.0</ele><time>2026-03-28T11:53:44.003Z</time></trkpt><trkpt lat="45.58117517718413" lon="10.745626092297517"><ele>230.0</ele><time>2026-03-28T11:53:45.003Z</time></trkpt><trkpt lat="45.58131559390231" lon="10.745646003676853"><ele>227.0</ele><time>2026-03-28T11:53:45.999Z</time></trkpt><trkpt lat="45.581470160196055" lon="10.745749544854327"><ele>224.0</ele><time>2026-03-28T11:53:46.999Z</time></trkpt><trkpt lat="45.58163798132576" lon="10.745811641734575"><ele>224.0</ele><time>2026-03-28T11:53:47.999Z</time></trkpt><trkpt lat="45.58182034930515" lon="10.745845829867505"><ele>224.0</ele><time>2026-03-28T11:53:48.999Z</time></trkpt><trkpt lat="45.582008554733875" lon="10.74586348541708"><ele>224.0</ele><time>2026-03-28T11:53:49.999Z</time></trkpt><trkpt lat="45.58219885571106" lon="10.745871991879094"><ele>223.66666666666669</ele><time>2026-03-28T11:53:50.999Z</time></trkpt><trkpt lat="45.58239137057018" lon="10.745882174186402"><ele>223.33333333333331</ele><time>2026-03-28T11:53:51.999Z</time></trkpt><trkpt lat="45.58258547716305" lon="10.745902770291853"><ele>223.0</ele><time>2026-03-28T11:53:52.999Z</time></trkpt><trkpt lat="45.582777215989694" lon="10.745920037578248"><ele>224.66666666666666</ele><time>2026-03-28T11:53:53.999Z</time></trkpt><trkpt lat="45.58296496615423" lon="10.745918333562267"><ele>226.33333333333331</ele><time>2026-03-28T11:53:54.999Z</time></trkpt><trkpt lat="45.58314581098905" lon="10.745904704588048"><ele>228.0</ele><time>2026-03-28T11:53:55.999Z</time></trkpt><trkpt lat="45.583305096437684" lon="10.745891737745316"><ele>228.0</ele><time>2026-03-28T11:53:56.999Z</time></trkpt><trkpt lat="45.58344146813726" lon="10.74588520134583"><ele>228.0</ele><time>2026-03-28T11:53:57.999Z</time></trkpt><trkpt lat="45.58356268313838" lon="10.745879412839574"><ele>228.0</ele><time>2026-03-28T11:53:58.999Z</time></trkpt><trkpt lat="45.58369285446982" lon="10.745876127790227"><ele>228.0</ele><time>2026-03-28T11:53:59.999Z</time></trkpt><trkpt lat="45.58384617463211" lon="10.745867734669813"><ele>229.25</ele><time>2026-03-28T11:54:00.999Z</time></trkpt><trkpt lat="45.58400113613957" lon="10.74588379233904"><ele>230.5</ele><time>2026-03-28T11:54:01.999Z</time></trkpt><trkpt lat="45.58414213967698" lon="10.745884894851228"><ele>231.75</ele><time>2026-03-28T11:54:02.999Z</time></trkpt><trkpt lat="45.584268979550544" lon="10.74585716197315"><ele>233.0</ele><time>2026-03-28T11:54:03.999Z</time></trkpt><trkpt lat="45.58439443931073" lon="10.745795711512564"><ele>233.75</ele><time>2026-03-28T11:54:05Z</time></trkpt><trkpt lat="45.58453080662963" lon="10.74573066613627"><ele>234.5</ele><time>2026-03-28T11:54:06Z</time></trkpt><trkpt lat="45.584653511457965" lon="10.745661268214437"><ele>235.25</ele><time>2026-03-28T11:54:07Z</time></trkpt><trkpt lat="45.58475198434186" lon="10.745587838850492"><ele>236.0</ele><time>2026-03-28T11:54:08Z</time></trkpt><trkpt lat="45.584860807629696" lon="10.745479867572985"><ele>236.0</ele><time>2026-03-28T11:54:09Z</time></trkpt><trkpt lat="45.584933421714716" lon="10.745359262454476"><ele>236.00000000000003</ele><time>2026-03-28T11:54:10Z</time></trkpt><trkpt lat="45.585030653519176" lon="10.74529237552793"><ele>236.00000000000003</ele><time>2026-03-28T11:54:11Z</time></trkpt><trkpt lat="45.58513249629961" lon="10.745263755227933"><ele>236.0</ele><time>2026-03-28T11:54:12Z</time></trkpt><trkpt lat="45.58525161574667" lon="10.745249273876931"><ele>236.0</ele><time>2026-03-28T11:54:13Z</time></trkpt><trkpt lat="45.585382995380755" lon="10.745267686724715"><ele>236.20000000000002</ele><time>2026-03-28T11:54:14Z</time></trkpt><trkpt lat="45.58551309385045" lon="10.74529879202426"><ele>236.40000000000003</ele><time>2026-03-28T11:54:15Z</time></trkpt><trkpt lat="45.585643332206665" lon="10.745337059035297"><ele>236.6</ele><time>2026-03-28T11:54:16Z</time></trkpt><trkpt lat="45.585742601889514" lon="10.745374598733175"><ele>236.8</ele><time>2026-03-28T11:54:17Z</time></trkpt><trkpt lat="45.5858073540525" lon="10.745393106704265"><ele>237.0</ele><time>2026-03-28T11:54:18Z</time></trkpt><trkpt lat="45.58591429527215" lon="10.745385489159936"><ele>237.0</ele><time>2026-03-28T11:54:20Z</time></trkpt><trkpt lat="45.585989692320894" lon="10.745369345030674"><ele>237.0</ele><time>2026-03-28T11:54:24Z</time></trkpt><trkpt lat="45.58600739640899" lon="10.74524086059966"><ele>237.0</ele><time>2026-03-28T11:54:25Z</time></trkpt><trkpt lat="45.58599367402021" lon="10.74512559011694"><ele>237.0</ele><time>2026-03-28T11:54:26Z</time></trkpt><trkpt lat="45.586006688329945" lon="10.745028934592865"><ele>237.0</ele><time>2026-03-28T11:54:27Z</time></trkpt><trkpt lat="45.58600386169149" lon="10.74493408718292"><ele>237.0</ele><time>2026-03-28T11:54:28Z</time></trkpt><trkpt lat="45.585984415193955" lon="10.74483705919037"><ele>238.0</ele><time>2026-03-28T11:54:29Z</time></trkpt><trkpt lat="45.58598179928873" lon="10.744742447488532"><ele>239.0</ele><time>2026-03-28T11:54:30Z</time></trkpt><trkpt lat="45.58599172409119" lon="10.744641673121116"><ele>240.0</ele><time>2026-03-28T11:54:31.001Z</time></trkpt><trkpt lat="45.58598549032609" lon="10.74453649041503"><ele>241.0</ele><time>2026-03-28T11:54:32.001Z</time></trkpt><trkpt lat="45.58597846844237" lon="10.74442095513476"><ele>242.0</ele><time>2026-03-28T11:54:33.001Z</time></trkpt><trkpt lat="45.585964096420724" lon="10.744296644503734"><ele>243.0</ele><time>2026-03-28T11:54:34.001Z</time></trkpt><trkpt lat="45.58593650020388" lon="10.744177196505083"><ele>243.2</ele><time>2026-03-28T11:54:35.001Z</time></trkpt><trkpt lat="45.58592419022141" lon="10.74402926899228"><ele>243.4</ele><time>2026-03-28T11:54:36.001Z</time></trkpt><trkpt lat="45.58590434186359" lon="10.743870324577133"><ele>243.59999999999997</ele><time>2026-03-28T11:54:37.001Z</time></trkpt><trkpt lat="45.585887944216964" lon="10.743732204907062"><ele>243.79999999999998</ele><time>2026-03-28T11:54:38.001Z</time></trkpt><trkpt lat="45.58587491826526" lon="10.74360552892897"><ele>244.0</ele><time>2026-03-28T11:54:39.001Z</time></trkpt><trkpt lat="45.58586690727324" lon="10.743486780803186"><ele>243.0</ele><time>2026-03-28T11:54:40.001Z</time></trkpt><trkpt lat="45.58585305179662" lon="10.743366221631183"><ele>241.99999999999997</ele><time>2026-03-28T11:54:41.001Z</time></trkpt><trkpt lat="45.585832433559226" lon="10.743220687863353"><ele>240.99999999999997</ele><time>2026-03-28T11:54:42.001Z</time></trkpt><trkpt lat="45.585823388529576" lon="10.743084910543113"><ele>240.0</ele><time>2026-03-28T11:54:43.001Z</time></trkpt><trkpt lat="45.58582689869358" lon="10.74294028043035"><ele>239.0</ele><time>2026-03-28T11:54:44.001Z</time></trkpt><trkpt lat="45.585836667578185" lon="10.742800451029874"><ele>238.0</ele><time>2026-03-28T11:54:45.001Z</time></trkpt><trkpt lat="45.58584937408256" lon="10.742667917866495"><ele>236.99999999999997</ele><time>2026-03-28T11:54:46.001Z</time></trkpt><trkpt lat="45.585856689876785" lon="10.742540062500385"><ele>235.99999999999997</ele><time>2026-03-28T11:54:47.001Z</time></trkpt><trkpt lat="45.585863595677125" lon="10.742432177822373"><ele>235.0</ele><time>2026-03-28T11:54:48.001Z</time></trkpt><trkpt lat="45.58587645580487" lon="10.74229028561461"><ele>234.0</ele><time>2026-03-28T11:54:50.001Z</time></trkpt><trkpt lat="45.585871756955164" lon="10.742140088090114"><ele>234.0</ele><time>2026-03-28T11:54:52.001Z</time></trkpt><trkpt lat="45.585847296122395" lon="10.742037725287302"><ele>234.0</ele><time>2026-03-28T11:54:54.001Z</time></trkpt><trkpt lat="45.58584025700282" lon="10.741943555429723"><ele>234.0</ele><time>2026-03-28T11:54:55.001Z</time></trkpt><trkpt lat="45.585855332760424" lon="10.741815384427426"><ele>234.0</ele><time>2026-03-28T11:54:56.001Z</time></trkpt><trkpt lat="45.58583027824042" lon="10.74168069127436"><ele>234.0</ele><time>2026-03-28T11:54:57.001Z</time></trkpt><trkpt lat="45.58582979260875" lon="10.741564161154239"><ele>234.0</ele><time>2026-03-28T11:54:58.001Z</time></trkpt><trkpt lat="45.58583398033223" lon="10.741448009725008"><ele>232.79999999999998</ele><time>2026-03-28T11:54:59.001Z</time></trkpt><trkpt lat="45.58583572944191" lon="10.741311877956981"><ele>231.59999999999997</ele><time>2026-03-28T11:55:00.001Z</time></trkpt><trkpt lat="45.58582387959819" lon="10.741157300788936"><ele>230.4</ele><time>2026-03-28T11:55:01.001Z</time></trkpt><trkpt lat="45.58580571050638" lon="10.740995837700575"><ele>229.2</ele><time>2026-03-28T11:55:02.001Z</time></trkpt><trkpt lat="45.585805294646605" lon="10.740825027017918"><ele>228.0</ele><time>2026-03-28T11:55:03.002Z</time></trkpt><trkpt lat="45.585774263716125" lon="10.740679922438172"><ele>227.8</ele><time>2026-03-28T11:55:04.002Z</time></trkpt><trkpt lat="45.58576696307284" lon="10.740546995155253"><ele>227.60000000000002</ele><time>2026-03-28T11:55:05.002Z</time></trkpt><trkpt lat="45.585749384457536" lon="10.740441948940298"><ele>227.39999999999998</ele><time>2026-03-28T11:55:06.002Z</time></trkpt><trkpt lat="45.58576104225856" lon="10.740276043342654"><ele>227.2</ele><time>2026-03-28T11:55:08.002Z</time></trkpt><trkpt lat="45.585766934500825" lon="10.740081491504542"><ele>227.0</ele><time>2026-03-28T11:55:10.002Z</time></trkpt><trkpt lat="45.585812739371114" lon="10.739994511174917"><ele>227.0</ele><time>2026-03-28T11:55:11.002Z</time></trkpt><trkpt lat="45.5857677186136" lon="10.739817195699164"><ele>227.0</ele><time>2026-03-28T11:55:13.002Z</time></trkpt><trkpt lat="45.58573337284258" lon="10.739719668598593"><ele>227.0</ele><time>2026-03-28T11:55:14.002Z</time></trkpt><trkpt lat="45.58570475382311" lon="10.73960428805825"><ele>227.0</ele><time>2026-03-28T11:55:15.002Z</time></trkpt><trkpt lat="45.5856863837135" lon="10.739470163856085"><ele>227.0</ele><time>2026-03-28T11:55:16.002Z</time></trkpt><trkpt lat="45.58567032096178" lon="10.739329850170316"><ele>227.0</ele><time>2026-03-28T11:55:17.002Z</time></trkpt><trkpt lat="45.5856496495182" lon="10.739195701337325"><ele>227.0</ele><time>2026-03-28T11:55:18.002Z</time></trkpt><trkpt lat="45.58562105899894" lon="10.739046541468088"><ele>227.0</ele><time>2026-03-28T11:55:19.002Z</time></trkpt><trkpt lat="45.58556496776144" lon="10.738865918280368"><ele>227.0</ele><time>2026-03-28T11:55:20.002Z</time></trkpt><trkpt lat="45.58548947611917" lon="10.738631256720721"><ele>226.33333333333334</ele><time>2026-03-28T11:55:21.002Z</time></trkpt><trkpt lat="45.585421420496566" lon="10.738365168778053"><ele>225.66666666666669</ele><time>2026-03-28T11:55:22.002Z</time></trkpt><trkpt lat="45.58535374723255" lon="10.738083254664941"><ele>225.0</ele><time>2026-03-28T11:55:23.002Z</time></trkpt><trkpt lat="45.58529466852343" lon="10.737802745959478"><ele>220.0</ele><time>2026-03-28T11:55:24.002Z</time></trkpt><trkpt lat="45.585248722796024" lon="10.737536632174821"><ele>215.0</ele><time>2026-03-28T11:55:25.002Z</time></trkpt><trkpt lat="45.5852199500406" lon="10.737289766010333"><ele>210.0</ele><time>2026-03-28T11:55:26.002Z</time></trkpt><trkpt lat="45.58521769587798" lon="10.737047708980668"><ele>208.33333333333331</ele><time>2026-03-28T11:55:27.002Z</time></trkpt><trkpt lat="45.585245742583965" lon="10.736809608061634"><ele>206.66666666666666</ele><time>2026-03-28T11:55:28.002Z</time></trkpt><trkpt lat="45.585290457539486" lon="10.736553329848377"><ele>205.0</ele><time>2026-03-28T11:55:29.002Z</time></trkpt><trkpt lat="45.5853581980683" lon="10.736291975529909"><ele>207.66666666666666</ele><time>2026-03-28T11:55:30.002Z</time></trkpt><trkpt lat="45.5854395201692" lon="10.7360316868916"><ele>210.33333333333331</ele><time>2026-03-28T11:55:31.002Z</time></trkpt><trkpt lat="45.5855244888239" lon="10.735771436104296"><ele>213.0</ele><time>2026-03-28T11:55:32.002Z</time></trkpt><trkpt lat="45.585597167413724" lon="10.735512392829103"><ele>213.0</ele><time>2026-03-28T11:55:33.002Z</time></trkpt><trkpt lat="45.58565361871444" lon="10.735259321351025"><ele>213.0</ele><time>2026-03-28T11:55:34.002Z</time></trkpt><trkpt lat="45.5856920438026" lon="10.735005604536159"><ele>213.0</ele><time>2026-03-28T11:55:35.002Z</time></trkpt><trkpt lat="45.58571443663443" lon="10.734761571291433"><ele>211.0</ele><time>2026-03-28T11:55:36.002Z</time></trkpt><trkpt lat="45.58572236558171" lon="10.734527658965286"><ele>209.0</ele><time>2026-03-28T11:55:37.003Z</time></trkpt><trkpt lat="45.58572304481811" lon="10.734304138975693"><ele>207.0</ele><time>2026-03-28T11:55:38.003Z</time></trkpt><trkpt lat="45.58573034698214" lon="10.734101700018842"><ele>205.25</ele><time>2026-03-28T11:55:39.003Z</time></trkpt><trkpt lat="45.585746650690126" lon="10.733924516058448"><ele>203.5</ele><time>2026-03-28T11:55:40.003Z</time></trkpt><trkpt lat="45.5857549507161" lon="10.733765277135005"><ele>201.75</ele><time>2026-03-28T11:55:41.003Z</time></trkpt><trkpt lat="45.58575701802004" lon="10.733609687549924"><ele>200.0</ele><time>2026-03-28T11:55:42.003Z</time></trkpt><trkpt lat="45.5857424128573" lon="10.733457031154378"><ele>199.75</ele><time>2026-03-28T11:55:43.003Z</time></trkpt><trkpt lat="45.585715821825964" lon="10.733319649360125"><ele>199.5</ele><time>2026-03-28T11:55:44.003Z</time></trkpt><trkpt lat="45.585609271237885" lon="10.733230931248544"><ele>199.25</ele><time>2026-03-28T11:55:45.003Z</time></trkpt><trkpt lat="45.58547294603891" lon="10.733134790143598"><ele>199.0</ele><time>2026-03-28T11:55:46.003Z</time></trkpt><trkpt lat="45.5853049880235" lon="10.733021812092698"><ele>194.33333333333331</ele><time>2026-03-28T11:55:47.003Z</time></trkpt><trkpt lat="45.585164546279664" lon="10.732889872433978"><ele>189.66666666666666</ele><time>2026-03-28T11:55:48.003Z</time></trkpt><trkpt lat="45.585082838418884" lon="10.732704088322196"><ele>185.0</ele><time>2026-03-28T11:55:49.003Z</time></trkpt><trkpt lat="45.585010720268336" lon="10.732527718594161"><ele>185.0</ele><time>2026-03-28T11:55:50.003Z</time></trkpt><trkpt lat="45.58493631625061" lon="10.732343636985625"><ele>185.0</ele><time>2026-03-28T11:55:51.003Z</time></trkpt><trkpt lat="45.5849044028678" lon="10.732155121116513"><ele>185.0</ele><time>2026-03-28T11:55:51.999Z</time></trkpt><trkpt lat="45.58489200546518" lon="10.732002404955379"><ele>185.0</ele><time>2026-03-28T11:55:52.999Z</time></trkpt><trkpt lat="45.584874545074676" lon="10.73188896073521"><ele>185.0</ele><time>2026-03-28T11:55:53.999Z</time></trkpt><trkpt lat="45.58483635403538" lon="10.731779480729587"><ele>185.0</ele><time>2026-03-28T11:55:55.999Z</time></trkpt><trkpt lat="45.58470202828949" lon="10.73186501944127"><ele>185.0</ele><time>2026-03-28T11:55:56.999Z</time></trkpt><trkpt lat="45.58465794398268" lon="10.732010616580661"><ele>185.0</ele><time>2026-03-28T11:55:57.999Z</time></trkpt><trkpt lat="45.584641581264" lon="10.732213957198262"><ele>185.0</ele><time>2026-03-28T11:55:58.999Z</time></trkpt><trkpt lat="45.58463216577878" lon="10.732442152099596"><ele>185.0</ele><time>2026-03-28T11:55:59.999Z</time></trkpt><trkpt lat="45.58462067414731" lon="10.732628957133434"><ele>185.0</ele><time>2026-03-28T11:56:00.999Z</time></trkpt><trkpt lat="45.58459947910439" lon="10.732746859354485"><ele>185.0</ele><time>2026-03-28T11:56:01.999Z</time></trkpt><trkpt lat="45.584501688386204" lon="10.732763133406419"><ele>178.0</ele><time>2026-03-28T11:56:03.999Z</time></trkpt><trkpt lat="45.5844556060581" lon="10.732663621187449"><ele>171.0</ele><time>2026-03-28T11:56:04.999Z</time></trkpt><trkpt lat="45.584465640993116" lon="10.7325207800744"><ele>164.0</ele><time>2026-03-28T11:56:05.999Z</time></trkpt><trkpt lat="45.584469169981794" lon="10.732340051182515"><ele>157.0</ele><time>2026-03-28T11:56:06.999Z</time></trkpt><trkpt lat="45.58449983531406" lon="10.73211067966868"><ele>156.66666666666669</ele><time>2026-03-28T11:56:07.999Z</time></trkpt><trkpt lat="45.5845106737696" lon="10.73184071987717"><ele>156.33333333333334</ele><time>2026-03-28T11:56:08.999Z</time></trkpt><trkpt lat="45.584498271326645" lon="10.731541488157772"><ele>156.0</ele><time>2026-03-28T11:56:09.999Z</time></trkpt><trkpt lat="45.584466883974905" lon="10.731228212596372"><ele>156.5</ele><time>2026-03-28T11:56:10.999Z</time></trkpt><trkpt lat="45.584425677866335" lon="10.730903875575677"><ele>157.0</ele><time>2026-03-28T11:56:11.999Z</time></trkpt><trkpt lat="45.584383236545605" lon="10.730568127495186"><ele>157.0</ele><time>2026-03-28T11:56:12.999Z</time></trkpt><trkpt lat="45.58434508795451" lon="10.73023445471294"><ele>157.0</ele><time>2026-03-28T11:56:13.999Z</time></trkpt><trkpt lat="45.58430587730109" lon="10.729916395251246"><ele>156.33333333333334</ele><time>2026-03-28T11:56:15Z</time></trkpt><trkpt lat="45.58426827757108" lon="10.729622254019873"><ele>155.66666666666666</ele><time>2026-03-28T11:56:16Z</time></trkpt><trkpt lat="45.58423874861672" lon="10.729345861709659"><ele>155.0</ele><time>2026-03-28T11:56:17Z</time></trkpt><trkpt lat="45.584205563151585" lon="10.72912091705833"><ele>154.0</ele><time>2026-03-28T11:56:18Z</time></trkpt><trkpt lat="45.584160597063935" lon="10.728909665654522"><ele>153.0</ele><time>2026-03-28T11:56:19Z</time></trkpt><trkpt lat="45.584071163829584" lon="10.72870857121773"><ele>152.0</ele><time>2026-03-28T11:56:20Z</time></trkpt><trkpt lat="45.583939663309565" lon="10.728543788953544"><ele>151.0</ele><time>2026-03-28T11:56:21Z</time></trkpt><trkpt lat="45.58380086412567" lon="10.728387169726394"><ele>150.0</ele><time>2026-03-28T11:56:22Z</time></trkpt><trkpt lat="45.58369130173673" lon="10.728242333862106"><ele>149.0</ele><time>2026-03-28T11:56:23Z</time></trkpt><trkpt lat="45.583639252244716" lon="10.728066831246661"><ele>144.0</ele><time>2026-03-28T11:56:24Z</time></trkpt><trkpt lat="45.583602846862746" lon="10.727861004226229"><ele>139.0</ele><time>2026-03-28T11:56:25Z</time></trkpt><trkpt lat="45.58356722821424" lon="10.727608137682077"><ele>134.0</ele><time>2026-03-28T11:56:26Z</time></trkpt><trkpt lat="45.58352382184666" lon="10.727333704766362"><ele>133.0</ele><time>2026-03-28T11:56:27Z</time></trkpt><trkpt lat="45.58348697713467" lon="10.727043408116112"><ele>132.0</ele><time>2026-03-28T11:56:28Z</time></trkpt><trkpt lat="45.58345008020775" lon="10.726778499397007"><ele>131.0</ele><time>2026-03-28T11:56:29Z</time></trkpt><trkpt lat="45.58341798948061" lon="10.726542793890099"><ele>130.5</ele><time>2026-03-28T11:56:30Z</time></trkpt><trkpt lat="45.58338473103715" lon="10.726339569232069"><ele>130.0</ele><time>2026-03-28T11:56:31Z</time></trkpt><trkpt lat="45.583363282413615" lon="10.726153969424784"><ele>129.5</ele><time>2026-03-28T11:56:32Z</time></trkpt><trkpt lat="45.583309858957854" lon="10.726020535616316"><ele>129.0</ele><time>2026-03-28T11:56:33Z</time></trkpt><trkpt lat="45.583288547354414" lon="10.725906056758147"><ele>128.8</ele><time>2026-03-28T11:56:34Z</time></trkpt><trkpt lat="45.583249551296994" lon="10.725790048897979"><ele>128.60000000000002</ele><time>2026-03-28T11:56:35Z</time></trkpt><trkpt lat="45.5831894491952" lon="10.72568258779581"><ele>128.4</ele><time>2026-03-28T11:56:36Z</time></trkpt><trkpt lat="45.58313925864672" lon="10.725597516086065"><ele>128.20000000000002</ele><time>2026-03-28T11:56:37Z</time></trkpt><trkpt lat="45.58313774680388" lon="10.725482349377089"><ele>128.0</ele><time>2026-03-28T11:56:39.001Z</time></trkpt><trkpt lat="45.58328506310408" lon="10.725447491067069"><ele>128.0</ele><time>2026-03-28T11:56:41.001Z</time></trkpt><trkpt lat="45.58339661422902" lon="10.725433915446168"><ele>128.0</ele><time>2026-03-28T11:56:42.001Z</time></trkpt><trkpt lat="45.583493301330904" lon="10.725421470809033"><ele>128.0</ele><time>2026-03-28T11:56:43.001Z</time></trkpt><trkpt lat="45.583556899672864" lon="10.725406262670203"><ele>128.0</ele><time>2026-03-28T11:56:44.001Z</time></trkpt><trkpt lat="45.58358699536996" lon="10.725197898192759"><ele>128.0</ele><time>2026-03-28T11:56:45.001Z</time></trkpt><trkpt lat="45.58363011971116" lon="10.725020938287809"><ele>127.33333333333333</ele><time>2026-03-28T11:56:46.001Z</time></trkpt><trkpt lat="45.58367650003815" lon="10.724794768481077"><ele>126.66666666666666</ele><time>2026-03-28T11:56:47.001Z</time></trkpt><trkpt lat="45.5837422908239" lon="10.72455295533242"><ele>126.0</ele><time>2026-03-28T11:56:48.001Z</time></trkpt><trkpt lat="45.583868952820154" lon="10.724344543734816"><ele>127.66666666666666</ele><time>2026-03-28T11:56:49.001Z</time></trkpt><trkpt lat="45.58400924166191" lon="10.724129660698935"><ele>129.33333333333331</ele><time>2026-03-28T11:56:50.001Z</time></trkpt><trkpt lat="45.584136008077316" lon="10.723929901824931"><ele>131.0</ele><time>2026-03-28T11:56:51.001Z</time></trkpt><trkpt lat="45.58425961505479" lon="10.723753313683451"><ele>131.0</ele><time>2026-03-28T11:56:52.001Z</time></trkpt><trkpt lat="45.58435952557986" lon="10.723616081612997"><ele>131.0</ele><time>2026-03-28T11:56:53.001Z</time></trkpt><trkpt lat="45.5844545017673" lon="10.723535514240895"><ele>131.0</ele><time>2026-03-28T11:56:54.001Z</time></trkpt><trkpt lat="45.5845459384055" lon="10.72354234512586"><ele>131.0</ele><time>2026-03-28T11:56:55.001Z</time></trkpt><trkpt lat="45.58461696484139" lon="10.723511015144718"><ele>131.0</ele><time>2026-03-28T11:56:56.001Z</time></trkpt><trkpt lat="45.58469344456062" lon="10.72357421923096"><ele>134.6</ele><time>2026-03-28T11:56:57.001Z</time></trkpt><trkpt lat="45.58475038512621" lon="10.723680759884969"><ele>138.2</ele><time>2026-03-28T11:56:58.001Z</time></trkpt><trkpt lat="45.58480353459624" lon="10.723820159684829"><ele>141.8</ele><time>2026-03-28T11:56:59.001Z</time></trkpt><trkpt lat="45.58487716869923" lon="10.723956114414154"><ele>145.4</ele><time>2026-03-28T11:57:00.001Z</time></trkpt><trkpt lat="45.584971712269365" lon="10.724049564668196"><ele>149.0</ele><time>2026-03-28T11:57:01.001Z</time></trkpt><trkpt lat="45.58507346229312" lon="10.724101230382965"><ele>149.0</ele><time>2026-03-28T11:57:02.001Z</time></trkpt><trkpt lat="45.58518091135049" lon="10.72409112811803"><ele>149.0</ele><time>2026-03-28T11:57:03.001Z</time></trkpt><trkpt lat="45.58528170083967" lon="10.7240635099179"><ele>149.0</ele><time>2026-03-28T11:57:04.001Z</time></trkpt><trkpt lat="45.58539018351547" lon="10.724065251418379"><ele>149.0</ele><time>2026-03-28T11:57:05.001Z</time></trkpt><trkpt lat="45.58547803257302" lon="10.724178498529158"><ele>149.0</ele><time>2026-03-28T11:57:06.001Z</time></trkpt><trkpt lat="45.585584210468376" lon="10.724259030534164"><ele>150.2</ele><time>2026-03-28T11:57:07.001Z</time></trkpt><trkpt lat="45.585685603431145" lon="10.724335971809575"><ele>151.4</ele><time>2026-03-28T11:57:08.001Z</time></trkpt><trkpt lat="45.58577499601557" lon="10.724385383430915"><ele>152.6</ele><time>2026-03-28T11:57:09.001Z</time></trkpt><trkpt lat="45.585865403660385" lon="10.724422845931127"><ele>153.8</ele><time>2026-03-28T11:57:10.002Z</time></trkpt><trkpt lat="45.5859608791789" lon="10.724464199054609"><ele>155.0</ele><time>2026-03-28T11:57:11.002Z</time></trkpt><trkpt lat="45.586031744443034" lon="10.724583314706074"><ele>155.0</ele><time>2026-03-28T11:57:12.002Z</time></trkpt><trkpt lat="45.586125180989015" lon="10.724672205123717"><ele>155.0</ele><time>2026-03-28T11:57:13.002Z</time></trkpt><trkpt lat="45.58624066409426" lon="10.72474123083698"><ele>155.0</ele><time>2026-03-28T11:57:14.002Z</time></trkpt><trkpt lat="45.586355609790424" lon="10.72482626046091"><ele>155.0</ele><time>2026-03-28T11:57:15.002Z</time></trkpt><trkpt lat="45.586502750323284" lon="10.724882131134192"><ele>161.25</ele><time>2026-03-28T11:57:16.002Z</time></trkpt><trkpt lat="45.58665539523239" lon="10.724939108541761"><ele>167.5</ele><time>2026-03-28T11:57:17.002Z</time></trkpt><trkpt lat="45.586806087117196" lon="10.725014163244516"><ele>173.75</ele><time>2026-03-28T11:57:18.002Z</time></trkpt><trkpt lat="45.58692174789553" lon="10.725062380635624"><ele>180.0</ele><time>2026-03-28T11:57:19.002Z</time></trkpt><trkpt lat="45.587012404061554" lon="10.725114707007618"><ele>185.25</ele><time>2026-03-28T11:57:20.002Z</time></trkpt><trkpt lat="45.587096572871566" lon="10.724922730904494"><ele>190.5</ele><time>2026-03-28T11:57:24.002Z</time></trkpt><trkpt lat="45.58712193705975" lon="10.724755518048706"><ele>195.75</ele><time>2026-03-28T11:57:25.002Z</time></trkpt><trkpt lat="45.58713294654611" lon="10.724562438156665"><ele>201.0</ele><time>2026-03-28T11:57:26.002Z</time></trkpt><trkpt lat="45.58716280142757" lon="10.72435582779237"><ele>201.0</ele><time>2026-03-28T11:57:27.002Z</time></trkpt><trkpt lat="45.58718766813216" lon="10.72414630323212"><ele>201.0</ele><time>2026-03-28T11:57:28.002Z</time></trkpt><trkpt lat="45.58720527723683" lon="10.723957786214463"><ele>201.0</ele><time>2026-03-28T11:57:29.002Z</time></trkpt><trkpt lat="45.58722187371505" lon="10.723738738015253"><ele>201.0</ele><time>2026-03-28T11:57:30.002Z</time></trkpt><trkpt lat="45.587231096020346" lon="10.723501896198213"><ele>200.66666666666669</ele><time>2026-03-28T11:57:31.002Z</time></trkpt><trkpt lat="45.58722895119554" lon="10.723278633569663"><ele>200.33333333333334</ele><time>2026-03-28T11:57:32.002Z</time></trkpt><trkpt lat="45.587215219286094" lon="10.723054036296752"><ele>200.0</ele><time>2026-03-28T11:57:33.002Z</time></trkpt><trkpt lat="45.587207747351464" lon="10.72283306469854"><ele>200.0</ele><time>2026-03-28T11:57:34.002Z</time></trkpt><trkpt lat="45.58720869181568" lon="10.72264807663052"><ele>200.0</ele><time>2026-03-28T11:57:35.002Z</time></trkpt><trkpt lat="45.58716266176241" lon="10.72248590977052"><ele>200.0</ele><time>2026-03-28T11:57:36.002Z</time></trkpt><trkpt lat="45.587143815586565" lon="10.722348515174595"><ele>200.0</ele><time>2026-03-28T11:57:37.002Z</time></trkpt><trkpt lat="45.587109871289755" lon="10.722252962334425"><ele>200.0</ele><time>2026-03-28T11:57:38.002Z</time></trkpt><trkpt lat="45.58699116445934" lon="10.722219599505351"><ele>195.4</ele><time>2026-03-28T11:57:40.002Z</time></trkpt><trkpt lat="45.586902224744264" lon="10.722246939790894"><ele>190.8</ele><time>2026-03-28T11:57:41.002Z</time></trkpt><trkpt lat="45.586781976275034" lon="10.722246118147421"><ele>186.2</ele><time>2026-03-28T11:57:42.002Z</time></trkpt><trkpt lat="45.58668311502774" lon="10.722252048440067"><ele>181.6</ele><time>2026-03-28T11:57:43.003Z</time></trkpt><trkpt lat="45.58661234646378" lon="10.722253418761973"><ele>177.0</ele><time>2026-03-28T11:57:44.003Z</time></trkpt><trkpt lat="45.58654829860271" lon="10.722101465906563"><ele>177.0</ele><time>2026-03-28T11:57:47.003Z</time></trkpt><trkpt lat="45.58649730810036" lon="10.72196523816117"><ele>177.0</ele><time>2026-03-28T11:57:48.003Z</time></trkpt><trkpt lat="45.586457199563384" lon="10.7217661552515"><ele>177.0</ele><time>2026-03-28T11:57:49.003Z</time></trkpt><trkpt lat="45.58645379231366" lon="10.72152736063918"><ele>177.0</ele><time>2026-03-28T11:57:50.003Z</time></trkpt><trkpt lat="45.58642315269973" lon="10.721296377783515"><ele>177.66666666666666</ele><time>2026-03-28T11:57:51.003Z</time></trkpt><trkpt lat="45.586426238056774" lon="10.721071039217572"><ele>178.33333333333331</ele><time>2026-03-28T11:57:52.003Z</time></trkpt><trkpt lat="45.58641625204647" lon="10.720845073529754"><ele>179.0</ele><time>2026-03-28T11:57:53.003Z</time></trkpt><trkpt lat="45.58640891751361" lon="10.720623435033383"><ele>180.0</ele><time>2026-03-28T11:57:54.003Z</time></trkpt><trkpt lat="45.58640192287624" lon="10.720397177179121"><ele>181.0</ele><time>2026-03-28T11:57:55.003Z</time></trkpt><trkpt lat="45.5863952060684" lon="10.72017990692166"><ele>182.0</ele><time>2026-03-28T11:57:56.003Z</time></trkpt><trkpt lat="45.586387643034364" lon="10.719935262927427"><ele>182.39999999999998</ele><time>2026-03-28T11:57:57.003Z</time></trkpt><trkpt lat="45.58638077172121" lon="10.719712994221526"><ele>182.79999999999998</ele><time>2026-03-28T11:57:57.999Z</time></trkpt><trkpt lat="45.586373515709184" lon="10.719537538987007"><ele>183.2</ele><time>2026-03-28T11:57:58.999Z</time></trkpt><trkpt lat="45.586364391461736" lon="10.719404067299392"><ele>183.6</ele><time>2026-03-28T11:57:59.999Z</time></trkpt><trkpt lat="45.58635682234379" lon="10.719309162233207"><ele>184.0</ele><time>2026-03-28T11:58:01.999Z</time></trkpt><trkpt lat="45.58609272599908" lon="10.719262062852295"><ele>181.25</ele><time>2026-03-28T11:58:03.999Z</time></trkpt><trkpt lat="45.58594350032024" lon="10.719257906570974"><ele>178.5</ele><time>2026-03-28T11:58:04.999Z</time></trkpt><trkpt lat="45.58578795964891" lon="10.71924144991697"><ele>175.75</ele><time>2026-03-28T11:58:05.999Z</time></trkpt><trkpt lat="45.585679722174284" lon="10.719206969713001"><ele>173.0</ele><time>2026-03-28T11:58:06.999Z</time></trkpt><trkpt lat="45.58558203781767" lon="10.719115470428417"><ele>173.0</ele><time>2026-03-28T11:58:08.999Z</time></trkpt><trkpt lat="45.58551570806876" lon="10.719032494217958"><ele>173.0</ele><time>2026-03-28T11:58:09.999Z</time></trkpt><trkpt lat="45.58551173513815" lon="10.718900244651357"><ele>173.0</ele><time>2026-03-28T11:58:11Z</time></trkpt><trkpt lat="45.58547768595107" lon="10.71880215019757"><ele>173.0</ele><time>2026-03-28T11:58:12Z</time></trkpt><trkpt lat="45.585414702840055" lon="10.718739711462499"><ele>173.0</ele><time>2026-03-28T11:58:13Z</time></trkpt><trkpt lat="45.58533391176501" lon="10.718698695664393"><ele>173.0</ele><time>2026-03-28T11:58:14Z</time></trkpt><trkpt lat="45.58526119964437" lon="10.718705087432202"><ele>169.6</ele><time>2026-03-28T11:58:15Z</time></trkpt><trkpt lat="45.58516208317497" lon="10.718731288298743"><ele>166.20000000000002</ele><time>2026-03-28T11:58:16Z</time></trkpt><trkpt lat="45.585041888918454" lon="10.71876941536948"><ele>162.8</ele><time>2026-03-28T11:58:17Z</time></trkpt><trkpt lat="45.584938763561524" lon="10.718772763153568"><ele>159.4</ele><time>2026-03-28T11:58:18Z</time></trkpt><trkpt lat="45.584857902751196" lon="10.718733371216034"><ele>156.0</ele><time>2026-03-28T11:58:19Z</time></trkpt><trkpt lat="45.584769231791" lon="10.718653285405248"><ele>157.5</ele><time>2026-03-28T11:58:20Z</time></trkpt><trkpt lat="45.58467390126424" lon="10.718527020360238"><ele>159.0</ele><time>2026-03-28T11:58:21Z</time></trkpt><trkpt lat="45.584606350427556" lon="10.718384897806228"><ele>160.5</ele><time>2026-03-28T11:58:22Z</time></trkpt><trkpt lat="45.584527563386125" lon="10.718199200594535"><ele>162.0</ele><time>2026-03-28T11:58:23Z</time></trkpt><trkpt lat="45.58443588096762" lon="10.717998241112305"><ele>154.0</ele><time>2026-03-28T11:58:24Z</time></trkpt><trkpt lat="45.58433398706946" lon="10.717794014139423"><ele>146.0</ele><time>2026-03-28T11:58:25Z</time></trkpt><trkpt lat="45.584236369527346" lon="10.717601226529068"><ele>138.0</ele><time>2026-03-28T11:58:26Z</time></trkpt><trkpt lat="45.58415729929362" lon="10.717423245715077"><ele>138.0</ele><time>2026-03-28T11:58:27Z</time></trkpt><trkpt lat="45.584081818448524" lon="10.7172533864923"><ele>138.0</ele><time>2026-03-28T11:58:28Z</time></trkpt><trkpt lat="45.58401352281514" lon="10.717069687871525"><ele>138.0</ele><time>2026-03-28T11:58:29Z</time></trkpt><trkpt lat="45.58395762330164" lon="10.716882670042136"><ele>138.0</ele><time>2026-03-28T11:58:30Z</time></trkpt><trkpt lat="45.58390867049716" lon="10.71673245491091"><ele>137.6</ele><time>2026-03-28T11:58:31Z</time></trkpt><trkpt lat="45.58386240810323" lon="10.716626869624521"><ele>137.20000000000002</ele><time>2026-03-28T11:58:32.001Z</time></trkpt><trkpt lat="45.583812687486784" lon="10.716563407647959"><ele>136.8</ele><time>2026-03-28T11:58:33.001Z</time></trkpt><trkpt lat="45.58373818657998" lon="10.716534497661828"><ele>136.4</ele><time>2026-03-28T11:58:34.001Z</time></trkpt><trkpt lat="45.58362052908153" lon="10.716542829041716"><ele>136.0</ele><time>2026-03-28T11:58:35.001Z</time></trkpt><trkpt lat="45.583470081468526" lon="10.71657799633123"><ele>129.0</ele><time>2026-03-28T11:58:36.001Z</time></trkpt><trkpt lat="45.58331091584142" lon="10.716623300711172"><ele>122.0</ele><time>2026-03-28T11:58:37.001Z</time></trkpt><trkpt lat="45.583140504615805" lon="10.716614837171543"><ele>115.0</ele><time>2026-03-28T11:58:38.001Z</time></trkpt><trkpt lat="45.582966395089954" lon="10.71661506098639"><ele>112.0</ele><time>2026-03-28T11:58:39.001Z</time></trkpt><trkpt lat="45.5827789785249" lon="10.716609993992115"><ele>109.0</ele><time>2026-03-28T11:58:40.001Z</time></trkpt><trkpt lat="45.58260068021815" lon="10.716600639583765"><ele>106.0</ele><time>2026-03-28T11:58:41.001Z</time></trkpt><trkpt lat="45.58243745172579" lon="10.716573567759575"><ele>106.0</ele><time>2026-03-28T11:58:42.001Z</time></trkpt><trkpt lat="45.58228915073577" lon="10.716536110851933"><ele>106.0</ele><time>2026-03-28T11:58:43.001Z</time></trkpt><trkpt lat="45.58213883033069" lon="10.716502172300755"><ele>106.0</ele><time>2026-03-28T11:58:44.001Z</time></trkpt><trkpt lat="45.58197511728283" lon="10.716506623683193"><ele>104.66666666666667</ele><time>2026-03-28T11:58:45.001Z</time></trkpt><trkpt lat="45.581800270314034" lon="10.716561267464815"><ele>103.33333333333334</ele><time>2026-03-28T11:58:46.001Z</time></trkpt><trkpt lat="45.581641592202686" lon="10.716635451461526"><ele>102.0</ele><time>2026-03-28T11:58:47.001Z</time></trkpt><trkpt lat="45.58149165031157" lon="10.716678684589109"><ele>102.0</ele><time>2026-03-28T11:58:48.001Z</time></trkpt><trkpt lat="45.58135445781611" lon="10.716662790744653"><ele>102.0</ele><time>2026-03-28T11:58:49.001Z</time></trkpt><trkpt lat="45.58122495594" lon="10.716639397618765"><ele>102.0</ele><time>2026-03-28T11:58:50.001Z</time></trkpt><trkpt lat="45.581105220690986" lon="10.716588401531496"><ele>102.0</ele><time>2026-03-28T11:58:51.001Z</time></trkpt><trkpt lat="45.58099650567134" lon="10.716575905376324"><ele>100.25</ele><time>2026-03-28T11:58:52.001Z</time></trkpt><trkpt lat="45.580904598199986" lon="10.716559068357284"><ele>98.5</ele><time>2026-03-28T11:58:53.001Z</time></trkpt><trkpt lat="45.58079583897658" lon="10.71658203615997"><ele>96.75</ele><time>2026-03-28T11:58:54.001Z</time></trkpt><trkpt lat="45.58065507445262" lon="10.716641877180319"><ele>95.0</ele><time>2026-03-28T11:58:55.001Z</time></trkpt><trkpt lat="45.580521247762455" lon="10.716687809675092"><ele>95.0</ele><time>2026-03-28T11:58:56.001Z</time></trkpt><trkpt lat="45.58042651082273" lon="10.7166870566006"><ele>95.0</ele><time>2026-03-28T11:58:57.001Z</time></trkpt><trkpt lat="45.580356477679366" lon="10.71665097129643"><ele>95.0</ele><time>2026-03-28T11:58:58.001Z</time></trkpt><trkpt lat="45.580273673409835" lon="10.716623930147714"><ele>95.0</ele><time>2026-03-28T11:59:00.001Z</time></trkpt><trkpt lat="45.580300398286205" lon="10.716390903091037"><ele>95.0</ele><time>2026-03-28T11:59:01.002Z</time></trkpt><trkpt lat="45.58030756518805" lon="10.716215289090497"><ele>93.66666666666667</ele><time>2026-03-28T11:59:02.002Z</time></trkpt><trkpt lat="45.580309165355686" lon="10.715981221732138"><ele>92.33333333333333</ele><time>2026-03-28T11:59:03.002Z</time></trkpt><trkpt lat="45.580297865757444" lon="10.715711688322743"><ele>91.0</ele><time>2026-03-28T11:59:04.002Z</time></trkpt><trkpt lat="45.580274378859905" lon="10.715439663318985"><ele>90.66666666666666</ele><time>2026-03-28T11:59:05.002Z</time></trkpt><trkpt lat="45.58024608865979" lon="10.71517714960976"><ele>90.33333333333333</ele><time>2026-03-28T11:59:06.002Z</time></trkpt><trkpt lat="45.58020710752441" lon="10.714905722675155"><ele>90.0</ele><time>2026-03-28T11:59:07.002Z</time></trkpt><trkpt lat="45.58016209758527" lon="10.714630912295897"><ele>90.66666666666667</ele><time>2026-03-28T11:59:08.002Z</time></trkpt><trkpt lat="45.58011231603315" lon="10.714356640895566"><ele>91.33333333333334</ele><time>2026-03-28T11:59:09.002Z</time></trkpt><trkpt lat="45.58005811540997" lon="10.714073791612085"><ele>92.0</ele><time>2026-03-28T11:59:10.002Z</time></trkpt><trkpt lat="45.580000074055" lon="10.713791163018366"><ele>92.33333333333334</ele><time>2026-03-28T11:59:11.002Z</time></trkpt><trkpt lat="45.579947647669435" lon="10.713512422472585"><ele>92.66666666666667</ele><time>2026-03-28T11:59:12.002Z</time></trkpt><trkpt lat="45.57989946979119" lon="10.713231631407162"><ele>93.0</ele><time>2026-03-28T11:59:13.002Z</time></trkpt><trkpt lat="45.579846173755506" lon="10.712973275623193"><ele>94.0</ele><time>2026-03-28T11:59:14.002Z</time></trkpt><trkpt lat="45.579794864140275" lon="10.712698688228464"><ele>95.0</ele><time>2026-03-28T11:59:15.002Z</time></trkpt><trkpt lat="45.579741722618145" lon="10.712395528668145"><ele>96.0</ele><time>2026-03-28T11:59:16.002Z</time></trkpt><trkpt lat="45.579687439097846" lon="10.7120902927212"><ele>97.0</ele><time>2026-03-28T11:59:17.002Z</time></trkpt><trkpt lat="45.57965577527104" lon="10.711802236863257"><ele>98.0</ele><time>2026-03-28T11:59:18.002Z</time></trkpt><trkpt lat="45.57961943577869" lon="10.711547063750642"><ele>99.0</ele><time>2026-03-28T11:59:19.002Z</time></trkpt><trkpt lat="45.579581538828755" lon="10.711313219181745"><ele>99.0</ele><time>2026-03-28T11:59:20.002Z</time></trkpt><trkpt lat="45.5795575650878" lon="10.71107776600698"><ele>99.0</ele><time>2026-03-28T11:59:21.002Z</time></trkpt><trkpt lat="45.57953059096848" lon="10.710855579209733"><ele>99.0</ele><time>2026-03-28T11:59:22.002Z</time></trkpt><trkpt lat="45.57950652267856" lon="10.710667356032477"><ele>97.75</ele><time>2026-03-28T11:59:23.002Z</time></trkpt><trkpt lat="45.579462135373234" lon="10.710482598538235"><ele>96.5</ele><time>2026-03-28T11:59:24.002Z</time></trkpt><trkpt lat="45.5794094075275" lon="10.710293597744224"><ele>95.25</ele><time>2026-03-28T11:59:25.002Z</time></trkpt><trkpt lat="45.57934740435106" lon="10.710092115819842"><ele>94.0</ele><time>2026-03-28T11:59:26.002Z</time></trkpt><trkpt lat="45.57927565121" lon="10.709924931373573"><ele>94.0</ele><time>2026-03-28T11:59:27.002Z</time></trkpt><trkpt lat="45.57919655608288" lon="10.709783692802231"><ele>94.0</ele><time>2026-03-28T11:59:28.002Z</time></trkpt><trkpt lat="45.579132802211184" lon="10.70968427173731"><ele>94.0</ele><time>2026-03-28T11:59:29.002Z</time></trkpt><trkpt lat="45.579240286671066" lon="10.709631859073792"><ele>94.0</ele><time>2026-03-28T11:59:33.002Z</time></trkpt><trkpt lat="45.57935462831438" lon="10.709650078487764"><ele>94.0</ele><time>2026-03-28T11:59:34.003Z</time></trkpt><trkpt lat="45.579496636834115" lon="10.709714029822575"><ele>94.0</ele><time>2026-03-28T11:59:35.003Z</time></trkpt><trkpt lat="45.57966835249003" lon="10.709754239461576"><ele>94.0</ele><time>2026-03-28T11:59:36.003Z</time></trkpt><trkpt lat="45.579857201332985" lon="10.709763113122905"><ele>96.66666666666666</ele><time>2026-03-28T11:59:37.003Z</time></trkpt><trkpt lat="45.58004652387949" lon="10.709784147671185"><ele>99.33333333333333</ele><time>2026-03-28T11:59:38.003Z</time></trkpt><trkpt lat="45.58023514449855" lon="10.7097915694414"><ele>102.0</ele><time>2026-03-28T11:59:39.003Z</time></trkpt><trkpt lat="45.580396025267845" lon="10.709819344265439"><ele>103.75</ele><time>2026-03-28T11:59:40.003Z</time></trkpt><trkpt lat="45.58053182480662" lon="10.709868874901673"><ele>105.5</ele><time>2026-03-28T11:59:41.003Z</time></trkpt><trkpt lat="45.5806464192162" lon="10.70997935326809"><ele>107.25</ele><time>2026-03-28T11:59:42.003Z</time></trkpt><trkpt lat="45.580783078071214" lon="10.710055515240715"><ele>109.0</ele><time>2026-03-28T11:59:43.003Z</time></trkpt><trkpt lat="45.58091779292728" lon="10.710144100571874"><ele>109.0</ele><time>2026-03-28T11:59:44.003Z</time></trkpt><trkpt lat="45.58106138226145" lon="10.710202947041996"><ele>109.0</ele><time>2026-03-28T11:59:45.003Z</time></trkpt><trkpt lat="45.58121421096535" lon="10.710231221224019"><ele>109.0</ele><time>2026-03-28T11:59:46.003Z</time></trkpt><trkpt lat="45.58137629147818" lon="10.710245854938325"><ele>112.33333333333334</ele><time>2026-03-28T11:59:47.003Z</time></trkpt><trkpt lat="45.5815444400652" lon="10.710275344923652"><ele>115.66666666666666</ele><time>2026-03-28T11:59:48.003Z</time></trkpt><trkpt lat="45.581717824577204" lon="10.710303736145097"><ele>119.0</ele><time>2026-03-28T11:59:49.003Z</time></trkpt><trkpt lat="45.58188838637455" lon="10.710371061806896"><ele>122.33333333333333</ele><time>2026-03-28T11:59:50.003Z</time></trkpt><trkpt lat="45.5820760762852" lon="10.710423388010335"><ele>125.66666666666666</ele><time>2026-03-28T11:59:51.003Z</time></trkpt><trkpt lat="45.582274783575684" lon="10.710424058133356"><ele>129.0</ele><time>2026-03-28T11:59:52.003Z</time></trkpt><trkpt lat="45.58247089977401" lon="10.710444051304709"><ele>129.0</ele><time>2026-03-28T11:59:53.003Z</time></trkpt><trkpt lat="45.58266800772201" lon="10.710443212357951"><ele>129.0</ele><time>2026-03-28T11:59:54.003Z</time></trkpt><trkpt lat="45.582880312265054" lon="10.710452160671604"><ele>129.0</ele><time>2026-03-28T11:59:55.003Z</time></trkpt><trkpt lat="45.58309744579082" lon="10.710405264836048"><ele>132.66666666666666</ele><time>2026-03-28T11:59:56.003Z</time></trkpt><trkpt lat="45.583313862255125" lon="10.710341233235775"><ele>136.33333333333331</ele><time>2026-03-28T11:59:57.003Z</time></trkpt><trkpt lat="45.58350566915011" lon="10.710295022701489"><ele>140.0</ele><time>2026-03-28T11:59:58.003Z</time></trkpt><trkpt lat="45.58370259566573" lon="10.710284982838207"><ele>143.33333333333331</ele><time>2026-03-28T11:59:59.003Z</time></trkpt><trkpt lat="45.58390261984964" lon="10.710303932539782"><ele>146.66666666666666</ele><time>2026-03-28T12:00:00.003Z</time></trkpt><trkpt lat="45.584102037366556" lon="10.710347872604114"><ele>150.0</ele><time>2026-03-28T12:00:01.003Z</time></trkpt><trkpt lat="45.58430087995471" lon="10.710417557670064"><ele>150.0</ele><time>2026-03-28T12:00:02.003Z</time></trkpt><trkpt lat="45.58449761046904" lon="10.710497827014835"><ele>150.0</ele><time>2026-03-28T12:00:03.003Z</time></trkpt><trkpt lat="45.584696825705436" lon="10.710562450533608"><ele>150.0</ele><time>2026-03-28T12:00:04Z</time></trkpt><trkpt lat="45.5848922711651" lon="10.710606708988662"><ele>154.66666666666666</ele><time>2026-03-28T12:00:05Z</time></trkpt><trkpt lat="45.58508452072363" lon="10.710629221259888"><ele>159.33333333333331</ele><time>2026-03-28T12:00:06Z</time></trkpt><trkpt lat="45.585267571112794" lon="10.71062309283364"><ele>164.0</ele><time>2026-03-28T12:00:07Z</time></trkpt><trkpt lat="45.58543172527734" lon="10.710589588388835"><ele>170.0</ele><time>2026-03-28T12:00:08Z</time></trkpt><trkpt lat="45.58558512443393" lon="10.71052453510578"><ele>176.0</ele><time>2026-03-28T12:00:09Z</time></trkpt><trkpt lat="45.585740535067096" lon="10.71044363193363"><ele>182.0</ele><time>2026-03-28T12:00:10Z</time></trkpt><trkpt lat="45.58589391911959" lon="10.710377309156968"><ele>182.0</ele><time>2026-03-28T12:00:11Z</time></trkpt><trkpt lat="45.58605773088656" lon="10.71037374977276"><ele>182.0</ele><time>2026-03-28T12:00:12Z</time></trkpt><trkpt lat="45.58622496704972" lon="10.710384757868898"><ele>182.0</ele><time>2026-03-28T12:00:13Z</time></trkpt><trkpt lat="45.58638986756086" lon="10.710420221955127"><ele>189.0</ele><time>2026-03-28T12:00:14Z</time></trkpt><trkpt lat="45.58654220566857" lon="10.710420140795554"><ele>196.0</ele><time>2026-03-28T12:00:15Z</time></trkpt><trkpt lat="45.58668801607534" lon="10.710408481372095"><ele>203.0</ele><time>2026-03-28T12:00:16Z</time></trkpt><trkpt lat="45.586846583580346" lon="10.71034018933931"><ele>203.0</ele><time>2026-03-28T12:00:17Z</time></trkpt><trkpt lat="45.58700036865217" lon="10.710241904861151"><ele>203.0</ele><time>2026-03-28T12:00:18Z</time></trkpt><trkpt lat="45.58711773009812" lon="10.710170470120751"><ele>203.0</ele><time>2026-03-28T12:00:19Z</time></trkpt><trkpt lat="45.587217173901244" lon="10.710160379595168"><ele>203.0</ele><time>2026-03-28T12:00:20Z</time></trkpt><trkpt lat="45.587264258773665" lon="10.710228260071366"><ele>206.4</ele><time>2026-03-28T12:00:22Z</time></trkpt><trkpt lat="45.58724358129832" lon="10.710324963644302"><ele>209.8</ele><time>2026-03-28T12:00:23Z</time></trkpt><trkpt lat="45.58719785107757" lon="10.710425274531218"><ele>213.2</ele><time>2026-03-28T12:00:24Z</time></trkpt><trkpt lat="45.58710777751036" lon="10.710493103132421"><ele>216.6</ele><time>2026-03-28T12:00:25Z</time></trkpt><trkpt lat="45.58703866130644" lon="10.710606505211587"><ele>220.0</ele><time>2026-03-28T12:00:26Z</time></trkpt><trkpt lat="45.58703472190212" lon="10.7107557084491"><ele>220.0</ele><time>2026-03-28T12:00:28Z</time></trkpt><trkpt lat="45.587225109547695" lon="10.710793229134008"><ele>220.0</ele><time>2026-03-28T12:00:30Z</time></trkpt><trkpt lat="45.58734624251222" lon="10.71066115094503"><ele>220.0</ele><time>2026-03-28T12:00:31Z</time></trkpt><trkpt lat="45.587460660576454" lon="10.710528201477208"><ele>220.0</ele><time>2026-03-28T12:00:32Z</time></trkpt><trkpt lat="45.587590166201366" lon="10.710418095662027"><ele>220.0</ele><time>2026-03-28T12:00:33Z</time></trkpt><trkpt lat="45.58769101603156" lon="10.710343074987646"><ele>220.0</ele><time>2026-03-28T12:00:34Z</time></trkpt><trkpt lat="45.58776233576044" lon="10.710304140942187"><ele>220.0</ele><time>2026-03-28T12:00:35Z</time></trkpt><trkpt lat="45.58783080395469" lon="10.71028003299414"><ele>220.0</ele><time>2026-03-28T12:00:36.001Z</time></trkpt><trkpt lat="45.58774930673937" lon="10.710300549112617"><ele>220.0</ele><time>2026-03-28T12:00:42.001Z</time></trkpt><trkpt lat="45.58761828570824" lon="10.710336831001015"><ele>220.0</ele><time>2026-03-28T12:00:43.001Z</time></trkpt><trkpt lat="45.587473951367" lon="10.710474153750525"><ele>220.0</ele><time>2026-03-28T12:00:44.001Z</time></trkpt><trkpt lat="45.5873300753668" lon="10.7106226631527"><ele>220.0</ele><time>2026-03-28T12:00:45.001Z</time></trkpt><trkpt lat="45.587211222822766" lon="10.710728322317232"><ele>220.0</ele><time>2026-03-28T12:00:46.001Z</time></trkpt><trkpt lat="45.587119031676956" lon="10.710780229985117"><ele>220.0</ele><time>2026-03-28T12:00:47.001Z</time></trkpt><trkpt lat="45.587028845704246" lon="10.71079227270521"><ele>220.0</ele><time>2026-03-28T12:00:49.001Z</time></trkpt><trkpt lat="45.58695025365544" lon="10.710863842593517"><ele>220.0</ele><time>2026-03-28T12:00:59.001Z</time></trkpt><trkpt lat="45.58688387299716" lon="10.710913575246312"><ele>217.8</ele><time>2026-03-28T12:01:00.001Z</time></trkpt><trkpt lat="45.58680051120812" lon="10.71098333215927"><ele>215.6</ele><time>2026-03-28T12:01:01.001Z</time></trkpt><trkpt lat="45.58672113418336" lon="10.711057615697984"><ele>213.39999999999998</ele><time>2026-03-28T12:01:02.001Z</time></trkpt><trkpt lat="45.58667156803331" lon="10.711121353426556"><ele>211.2</ele><time>2026-03-28T12:01:03.001Z</time></trkpt><trkpt lat="45.586607444429035" lon="10.71129048954824"><ele>209.0</ele><time>2026-03-28T12:01:05.001Z</time></trkpt><trkpt lat="45.58661979976141" lon="10.711409216971594"><ele>209.0</ele><time>2026-03-28T12:01:06.001Z</time></trkpt><trkpt lat="45.58669261738821" lon="10.711528621927732"><ele>209.0</ele><time>2026-03-28T12:01:07.002Z</time></trkpt><trkpt lat="45.5867785901558" lon="10.711675293756862"><ele>209.0</ele><time>2026-03-28T12:01:08.002Z</time></trkpt><trkpt lat="45.58686764573335" lon="10.711858174603524"><ele>209.0</ele><time>2026-03-28T12:01:09.002Z</time></trkpt><trkpt lat="45.58697572867702" lon="10.712046974119747"><ele>215.0</ele><time>2026-03-28T12:01:10.002Z</time></trkpt><trkpt lat="45.58707445263872" lon="10.712227964427074"><ele>221.0</ele><time>2026-03-28T12:01:11.002Z</time></trkpt><trkpt lat="45.58716039616395" lon="10.712402019259088"><ele>227.0</ele><time>2026-03-28T12:01:12.002Z</time></trkpt><trkpt lat="45.58722417834766" lon="10.712558542560942"><ele>233.0</ele><time>2026-03-28T12:01:13.002Z</time></trkpt><trkpt lat="45.58727507378092" lon="10.71273475624246"><ele>231.66666666666669</ele><time>2026-03-28T12:01:14.002Z</time></trkpt><trkpt lat="45.58733608119949" lon="10.712930653236207"><ele>230.33333333333331</ele><time>2026-03-28T12:01:15.002Z</time></trkpt><trkpt lat="45.587397792486904" lon="10.713139994247866"><ele>229.0</ele><time>2026-03-28T12:01:16.002Z</time></trkpt><trkpt lat="45.587456321453566" lon="10.713372278015113"><ele>229.33333333333331</ele><time>2026-03-28T12:01:17.002Z</time></trkpt><trkpt lat="45.58751438554863" lon="10.713625824896813"><ele>229.66666666666669</ele><time>2026-03-28T12:01:18.002Z</time></trkpt><trkpt lat="45.587577991648736" lon="10.713845195340085"><ele>230.0</ele><time>2026-03-28T12:01:19.002Z</time></trkpt><trkpt lat="45.58762095154687" lon="10.714019178894866"><ele>230.0</ele><time>2026-03-28T12:01:20.002Z</time></trkpt><trkpt lat="45.587674550504076" lon="10.71415667308372"><ele>230.0</ele><time>2026-03-28T12:01:21.002Z</time></trkpt><trkpt lat="45.587741127919756" lon="10.714263086799075"><ele>230.0</ele><time>2026-03-28T12:01:22.002Z</time></trkpt><trkpt lat="45.58778305853625" lon="10.714369509270245"><ele>230.0</ele><time>2026-03-28T12:01:23.002Z</time></trkpt><trkpt lat="45.587819415340846" lon="10.7144813472793"><ele>230.0</ele><time>2026-03-28T12:01:24.002Z</time></trkpt><trkpt lat="45.58785726531031" lon="10.714616632593714"><ele>234.5</ele><time>2026-03-28T12:01:25.002Z</time></trkpt><trkpt lat="45.58790802960492" lon="10.714764995953534"><ele>239.0</ele><time>2026-03-28T12:01:26.002Z</time></trkpt><trkpt lat="45.58797491509273" lon="10.71489221136758"><ele>243.5</ele><time>2026-03-28T12:01:27.002Z</time></trkpt><trkpt lat="45.58808497953211" lon="10.714988859026368"><ele>248.0</ele><time>2026-03-28T12:01:28.002Z</time></trkpt><trkpt lat="45.58819170586437" lon="10.715121642675722"><ele>247.25</ele><time>2026-03-28T12:01:29.002Z</time></trkpt><trkpt lat="45.58827332448444" lon="10.715262516502168"><ele>246.5</ele><time>2026-03-28T12:01:30.002Z</time></trkpt><trkpt lat="45.58830974917024" lon="10.715419637325953"><ele>245.75</ele><time>2026-03-28T12:01:31.002Z</time></trkpt><trkpt lat="45.58835558666436" lon="10.715599800305107"><ele>245.0</ele><time>2026-03-28T12:01:32.002Z</time></trkpt><trkpt lat="45.588423381463066" lon="10.71576035474098"><ele>245.0</ele><time>2026-03-28T12:01:33.002Z</time></trkpt><trkpt lat="45.58846433185431" lon="10.715931918540663"><ele>245.0</ele><time>2026-03-28T12:01:34.002Z</time></trkpt><trkpt lat="45.58849701736899" lon="10.716078330926837"><ele>245.0</ele><time>2026-03-28T12:01:35.002Z</time></trkpt><trkpt lat="45.588545518104986" lon="10.716204951630285"><ele>245.0</ele><time>2026-03-28T12:01:36.002Z</time></trkpt><trkpt lat="45.58859023833092" lon="10.71634638506148"><ele>245.0</ele><time>2026-03-28T12:01:37.002Z</time></trkpt><trkpt lat="45.58865384903026" lon="10.716476482550268"><ele>246.0</ele><time>2026-03-28T12:01:38.002Z</time></trkpt><trkpt lat="45.588734735113384" lon="10.716575832847795"><ele>247.0</ele><time>2026-03-28T12:01:39.002Z</time></trkpt><trkpt lat="45.58880274595309" lon="10.71664186711579"><ele>248.0</ele><time>2026-03-28T12:01:40.003Z</time></trkpt><trkpt lat="45.58884375493488" lon="10.7168032792228"><ele>249.0</ele><time>2026-03-28T12:01:42.003Z</time></trkpt><trkpt lat="45.5888855848793" lon="10.716933628957342"><ele>250.0</ele><time>2026-03-28T12:01:43.003Z</time></trkpt><trkpt lat="45.58893647777214" lon="10.717092221032189"><ele>250.0</ele><time>2026-03-28T12:01:44.003Z</time></trkpt><trkpt lat="45.58897514460091" lon="10.717258054624613"><ele>250.0</ele><time>2026-03-28T12:01:45.003Z</time></trkpt><trkpt lat="45.5890220483965" lon="10.717424841394296"><ele>250.0</ele><time>2026-03-28T12:01:46.003Z</time></trkpt><trkpt lat="45.589100148947466" lon="10.71756321213425"><ele>250.0</ele><time>2026-03-28T12:01:47.003Z</time></trkpt><trkpt lat="45.58915816216594" lon="10.717657294877583"><ele>250.0</ele><time>2026-03-28T12:01:48.003Z</time></trkpt><trkpt lat="45.58922334182187" lon="10.717690892140315"><ele>250.0</ele><time>2026-03-28T12:01:49.003Z</time></trkpt><trkpt lat="45.589316448768024" lon="10.71770062615732"><ele>250.0</ele><time>2026-03-28T12:01:50.003Z</time></trkpt><trkpt lat="45.58944432613828" lon="10.71774711142267"><ele>250.0</ele><time>2026-03-28T12:01:51.003Z</time></trkpt><trkpt lat="45.589596466546645" lon="10.717717399974273"><ele>250.0</ele><time>2026-03-28T12:01:52.003Z</time></trkpt><trkpt lat="45.589749389214234" lon="10.717674622225207"><ele>250.6</ele><time>2026-03-28T12:01:53.003Z</time></trkpt><trkpt lat="45.589900275443945" lon="10.717624127776796"><ele>251.2</ele><time>2026-03-28T12:01:54.003Z</time></trkpt><trkpt lat="45.59002554757891" lon="10.717610005703177"><ele>251.8</ele><time>2026-03-28T12:01:55.003Z</time></trkpt><trkpt lat="45.59011794081226" lon="10.717640412046078"><ele>252.4</ele><time>2026-03-28T12:01:56.003Z</time></trkpt><trkpt lat="45.59016096462626" lon="10.717720909564832"><ele>253.0</ele><time>2026-03-28T12:01:57.003Z</time></trkpt><trkpt lat="45.590211907529195" lon="10.717817648478524"><ele>253.0</ele><time>2026-03-28T12:01:58.003Z</time></trkpt><trkpt lat="45.59028585493065" lon="10.717951965305225"><ele>253.0</ele><time>2026-03-28T12:01:59.003Z</time></trkpt><trkpt lat="45.59036746974638" lon="10.718110022169485"><ele>253.0</ele><time>2026-03-28T12:02:00.003Z</time></trkpt><trkpt lat="45.59044527401693" lon="10.718275223855294"><ele>253.0</ele><time>2026-03-28T12:02:01.003Z</time></trkpt><trkpt lat="45.590512366819276" lon="10.718447407788183"><ele>254.33333333333331</ele><time>2026-03-28T12:02:02.003Z</time></trkpt><trkpt lat="45.59057637788836" lon="10.718584866266415"><ele>255.66666666666666</ele><time>2026-03-28T12:02:03.003Z</time></trkpt><trkpt lat="45.59061060782869" lon="10.718688759808265"><ele>257.0</ele><time>2026-03-28T12:02:04.003Z</time></trkpt><trkpt lat="45.59066009610968" lon="10.71877875181914"><ele>258.3333333333333</ele><time>2026-03-28T12:02:05.003Z</time></trkpt><trkpt lat="45.59071501636715" lon="10.718869265169777"><ele>259.6666666666667</ele><time>2026-03-28T12:02:06.003Z</time></trkpt><trkpt lat="45.59077791405721" lon="10.71895625365953"><ele>261.0</ele><time>2026-03-28T12:02:07.003Z</time></trkpt><trkpt lat="45.590863053033516" lon="10.719028692867406"><ele>261.0</ele><time>2026-03-28T12:02:08.003Z</time></trkpt><trkpt lat="45.59096478589782" lon="10.719074079171724"><ele>261.0</ele><time>2026-03-28T12:02:09.003Z</time></trkpt><trkpt lat="45.591054711133346" lon="10.719161224190142"><ele>261.0</ele><time>2026-03-28T12:02:10Z</time></trkpt><trkpt lat="45.59114069264882" lon="10.719259076986805"><ele>261.0</ele><time>2026-03-28T12:02:11Z</time></trkpt><trkpt lat="45.5912312805142" lon="10.7193847075054"><ele>261.0</ele><time>2026-03-28T12:02:12Z</time></trkpt><trkpt lat="45.59134682850494" lon="10.719528818905037"><ele>261.0</ele><time>2026-03-28T12:02:13Z</time></trkpt><trkpt lat="45.59149322678338" lon="10.719663113830062"><ele>261.0</ele><time>2026-03-28T12:02:14Z</time></trkpt><trkpt lat="45.591629379068756" lon="10.719833003681616"><ele>261.0</ele><time>2026-03-28T12:02:15Z</time></trkpt><trkpt lat="45.591760983177366" lon="10.72003955060396"><ele>261.0</ele><time>2026-03-28T12:02:16Z</time></trkpt><trkpt lat="45.59190536059077" lon="10.72022043486189"><ele>261.0</ele><time>2026-03-28T12:02:17Z</time></trkpt><trkpt lat="45.59205824801617" lon="10.72038323247747"><ele>261.6666666666667</ele><time>2026-03-28T12:02:18Z</time></trkpt><trkpt lat="45.59220701109108" lon="10.720559827593549"><ele>262.33333333333337</ele><time>2026-03-28T12:02:19Z</time></trkpt><trkpt lat="45.592338732369434" lon="10.720700477420516"><ele>263.0</ele><time>2026-03-28T12:02:20Z</time></trkpt><trkpt lat="45.59245279505748" lon="10.720815575487833"><ele>263.0</ele><time>2026-03-28T12:02:21Z</time></trkpt><trkpt lat="45.59260204732971" lon="10.720864522230324"><ele>263.0</ele><time>2026-03-28T12:02:22Z</time></trkpt><trkpt lat="45.59271606744998" lon="10.720981168122355"><ele>263.0</ele><time>2026-03-28T12:02:23Z</time></trkpt><trkpt lat="45.592809602806504" lon="10.72108278028992"><ele>263.0</ele><time>2026-03-28T12:02:24Z</time></trkpt><trkpt lat="45.59288217848001" lon="10.721196159567219"><ele>264.5</ele><time>2026-03-28T12:02:25Z</time></trkpt><trkpt lat="45.592949218979264" lon="10.72132831660883"><ele>266.0</ele><time>2026-03-28T12:02:26Z</time></trkpt><trkpt lat="45.59303366907281" lon="10.721460543799116"><ele>267.5</ele><time>2026-03-28T12:02:27Z</time></trkpt><trkpt lat="45.59311954446337" lon="10.721636789940307"><ele>269.0</ele><time>2026-03-28T12:02:28Z</time></trkpt><trkpt lat="45.5932116766054" lon="10.721820513784527"><ele>266.6666666666667</ele><time>2026-03-28T12:02:29Z</time></trkpt><trkpt lat="45.593299717923415" lon="10.722022368492464"><ele>264.3333333333333</ele><time>2026-03-28T12:02:30Z</time></trkpt><trkpt lat="45.59339337300759" lon="10.722221693348196"><ele>262.0</ele><time>2026-03-28T12:02:31Z</time></trkpt><trkpt lat="45.593491390183814" lon="10.72242765950551"><ele>262.0</ele><time>2026-03-28T12:02:32Z</time></trkpt><trkpt lat="45.5936172504559" lon="10.722616050843493"><ele>262.0</ele><time>2026-03-28T12:02:33Z</time></trkpt><trkpt lat="45.59372358104161" lon="10.72281764949106"><ele>262.0</ele><time>2026-03-28T12:02:34Z</time></trkpt><trkpt lat="45.59382539814056" lon="10.723018904923459"><ele>261.0</ele><time>2026-03-28T12:02:35Z</time></trkpt><trkpt lat="45.593909251684764" lon="10.723204356742867"><ele>260.0</ele><time>2026-03-28T12:02:36Z</time></trkpt><trkpt lat="45.593985324917114" lon="10.723348179290216"><ele>259.0</ele><time>2026-03-28T12:02:37Z</time></trkpt><trkpt lat="45.594052352377176" lon="10.723464583917915"><ele>258.0</ele><time>2026-03-28T12:02:38Z</time></trkpt><trkpt lat="45.59411685365799" lon="10.723553098109685"><ele>258.0</ele><time>2026-03-28T12:02:39Z</time></trkpt><trkpt lat="45.594202151755454" lon="10.723639430729026"><ele>258.0</ele><time>2026-03-28T12:02:40Z</time></trkpt><trkpt lat="45.59430228319431" lon="10.723724729492742"><ele>258.0</ele><time>2026-03-28T12:02:41Z</time></trkpt><trkpt lat="45.59440361442813" lon="10.723774889956928"><ele>258.0</ele><time>2026-03-28T12:02:42Z</time></trkpt><trkpt lat="45.59450204497526" lon="10.723800532747294"><ele>258.0</ele><time>2026-03-28T12:02:43.001Z</time></trkpt><trkpt lat="45.594563916610106" lon="10.723853826232567"><ele>258.2</ele><time>2026-03-28T12:02:44.001Z</time></trkpt><trkpt lat="45.59462221896405" lon="10.723933575571465"><ele>258.4</ele><time>2026-03-28T12:02:46.001Z</time></trkpt><trkpt lat="45.59459136908405" lon="10.724047398225727"><ele>258.59999999999997</ele><time>2026-03-28T12:02:47.001Z</time></trkpt><trkpt lat="45.59460905954183" lon="10.724197691684838"><ele>258.8</ele><time>2026-03-28T12:02:48.001Z</time></trkpt><trkpt lat="45.594637522077704" lon="10.72438344843012"><ele>259.0</ele><time>2026-03-28T12:02:49.001Z</time></trkpt><trkpt lat="45.594660417550884" lon="10.7245906281005"><ele>257.66666666666663</ele><time>2026-03-28T12:02:50.001Z</time></trkpt><trkpt lat="45.59468210590596" lon="10.724810188009553"><ele>256.3333333333333</ele><time>2026-03-28T12:02:51.001Z</time></trkpt><trkpt lat="45.59472762714275" lon="10.725045911062592"><ele>255.0</ele><time>2026-03-28T12:02:52.001Z</time></trkpt><trkpt lat="45.59477524766808" lon="10.725299738718117"><ele>254.0</ele><time>2026-03-28T12:02:53.001Z</time></trkpt><trkpt lat="45.594829231087445" lon="10.725547101644986"><ele>253.0</ele><time>2026-03-28T12:02:54.001Z</time></trkpt><trkpt lat="45.59484675027315" lon="10.725769722266454"><ele>252.0</ele><time>2026-03-28T12:02:55.001Z</time></trkpt><trkpt lat="45.59487034260818" lon="10.725939596377371"><ele>251.8</ele><time>2026-03-28T12:02:56.001Z</time></trkpt><trkpt lat="45.59490669931535" lon="10.726079228847668"><ele>251.6</ele><time>2026-03-28T12:02:57.001Z</time></trkpt><trkpt lat="45.59493412215685" lon="10.726238664514833"><ele>251.40000000000003</ele><time>2026-03-28T12:02:58.001Z</time></trkpt><trkpt lat="45.59497446983185" lon="10.726387021509895"><ele>251.20000000000002</ele><time>2026-03-28T12:02:59.001Z</time></trkpt><trkpt lat="45.59500778252252" lon="10.72653142843144"><ele>251.0</ele><time>2026-03-28T12:03:00.001Z</time></trkpt><trkpt lat="45.59503867979132" lon="10.72665525025532"><ele>251.00000000000003</ele><time>2026-03-28T12:03:01.001Z</time></trkpt><trkpt lat="45.595080491686495" lon="10.726763664966732"><ele>251.0</ele><time>2026-03-28T12:03:02.001Z</time></trkpt><trkpt lat="45.595100337943656" lon="10.726858798846955"><ele>251.0</ele><time>2026-03-28T12:03:03.001Z</time></trkpt><trkpt lat="45.595109571621215" lon="10.726955958115408"><ele>251.0</ele><time>2026-03-28T12:03:04.001Z</time></trkpt><trkpt lat="45.59512403117932" lon="10.727076618028844"><ele>251.00000000000003</ele><time>2026-03-28T12:03:05.001Z</time></trkpt><trkpt lat="45.59514551721304" lon="10.727184441731389"><ele>251.0</ele><time>2026-03-28T12:03:06.001Z</time></trkpt><trkpt lat="45.59518198179758" lon="10.727290089502715"><ele>251.0</ele><time>2026-03-28T12:03:07.001Z</time></trkpt><trkpt lat="45.5952305268418" lon="10.727399137260933"><ele>251.00000000000003</ele><time>2026-03-28T12:03:08.001Z</time></trkpt><trkpt lat="45.595279416417846" lon="10.727495293434298"><ele>251.00000000000003</ele><time>2026-03-28T12:03:09.001Z</time></trkpt><trkpt lat="45.595328637673674" lon="10.727577260617347"><ele>251.0</ele><time>2026-03-28T12:03:10.001Z</time></trkpt><trkpt lat="45.59538783794702" lon="10.727679825962289"><ele>251.0</ele><time>2026-03-28T12:03:11.001Z</time></trkpt><trkpt lat="45.59545052646231" lon="10.727806724780782"><ele>251.4</ele><time>2026-03-28T12:03:12.001Z</time></trkpt><trkpt lat="45.5955014027107" lon="10.72794550543334"><ele>251.8</ele><time>2026-03-28T12:03:13.001Z</time></trkpt><trkpt lat="45.59553062202781" lon="10.728076965424007"><ele>252.20000000000002</ele><time>2026-03-28T12:03:14.001Z</time></trkpt><trkpt lat="45.59550415548002" lon="10.728199745825348"><ele>252.60000000000002</ele><time>2026-03-28T12:03:15.002Z</time></trkpt><trkpt lat="45.595464838721774" lon="10.728315482184387"><ele>253.0</ele><time>2026-03-28T12:03:16.002Z</time></trkpt><trkpt lat="45.595440419212466" lon="10.728450929699168"><ele>253.5</ele><time>2026-03-28T12:03:17.002Z</time></trkpt><trkpt lat="45.59541610495941" lon="10.728585793400379"><ele>254.0</ele><time>2026-03-28T12:03:18.002Z</time></trkpt><trkpt lat="45.59550737622507" lon="10.728769087739908"><ele>254.5</ele><time>2026-03-28T12:03:19.002Z</time></trkpt><trkpt lat="45.59551630257655" lon="10.72891441155732"><ele>255.0</ele><time>2026-03-28T12:03:20.002Z</time></trkpt><trkpt lat="45.595522285675635" lon="10.72905962162009"><ele>255.0</ele><time>2026-03-28T12:03:21.002Z</time></trkpt><trkpt lat="45.59551569944535" lon="10.729214799230274"><ele>255.0</ele><time>2026-03-28T12:03:22.002Z</time></trkpt><trkpt lat="45.595498856878265" lon="10.729350256823684"><ele>255.0</ele><time>2026-03-28T12:03:23.002Z</time></trkpt><trkpt lat="45.59547783035578" lon="10.729492388077057"><ele>255.0</ele><time>2026-03-28T12:03:24.002Z</time></trkpt><trkpt lat="45.59545838709606" lon="10.729653177687391"><ele>255.0</ele><time>2026-03-28T12:03:25.002Z</time></trkpt><trkpt lat="45.595452984228416" lon="10.729813576656676"><ele>254.85714285714286</ele><time>2026-03-28T12:03:26.002Z</time></trkpt><trkpt lat="45.595457461459176" lon="10.729954568096082"><ele>254.71428571428572</ele><time>2026-03-28T12:03:27.002Z</time></trkpt><trkpt lat="45.59547111170671" lon="10.73006760986922"><ele>254.57142857142858</ele><time>2026-03-28T12:03:28.002Z</time></trkpt><trkpt lat="45.59546806116847" lon="10.730163929872568"><ele>254.42857142857144</ele><time>2026-03-28T12:03:29.002Z</time></trkpt><trkpt lat="45.59547958202816" lon="10.73025638019861"><ele>254.28571428571428</ele><time>2026-03-28T12:03:30.002Z</time></trkpt><trkpt lat="45.595499608184475" lon="10.730344195114498"><ele>254.14285714285717</ele><time>2026-03-28T12:03:31.002Z</time></trkpt><trkpt lat="45.595507845319226" lon="10.730447246892156"><ele>254.0</ele><time>2026-03-28T12:03:32.002Z</time></trkpt><trkpt lat="45.595556685070974" lon="10.730551705326329"><ele>254.0</ele><time>2026-03-28T12:03:34.002Z</time></trkpt><trkpt lat="45.59570099811979" lon="10.73047443619888"><ele>253.99999999999997</ele><time>2026-03-28T12:03:38.002Z</time></trkpt><trkpt lat="45.59578368995573" lon="10.730428912056553"><ele>253.99999999999997</ele><time>2026-03-28T12:03:39.002Z</time></trkpt><trkpt lat="45.59586538193527" lon="10.730375986552625"><ele>254.0</ele><time>2026-03-28T12:03:40.002Z</time></trkpt><trkpt lat="45.595952204457326" lon="10.730340327003908"><ele>254.0</ele><time>2026-03-28T12:03:41.002Z</time></trkpt><trkpt lat="45.59602783770186" lon="10.730342902345516"><ele>254.0</ele><time>2026-03-28T12:03:42.002Z</time></trkpt><trkpt lat="45.596097121475616" lon="10.730335973967996"><ele>253.99999999999997</ele><time>2026-03-28T12:03:43.002Z</time></trkpt><trkpt lat="45.59619970005351" lon="10.730310957088527"><ele>253.99999999999997</ele><time>2026-03-28T12:03:44.002Z</time></trkpt><trkpt lat="45.596297205832336" lon="10.73026892685884"><ele>254.0</ele><time>2026-03-28T12:03:45.002Z</time></trkpt><trkpt lat="45.59642853140752" lon="10.73020555945302"><ele>254.0</ele><time>2026-03-28T12:03:46.002Z</time></trkpt><trkpt lat="45.596561244280075" lon="10.730154050482163"><ele>255.6</ele><time>2026-03-28T12:03:47.002Z</time></trkpt><trkpt lat="45.59669391349183" lon="10.730086489611747"><ele>257.2</ele><time>2026-03-28T12:03:48.003Z</time></trkpt><trkpt lat="45.59680868529147" lon="10.730045470160015"><ele>258.79999999999995</ele><time>2026-03-28T12:03:49.003Z</time></trkpt><trkpt lat="45.59689424930653" lon="10.730007286270444"><ele>260.4</ele><time>2026-03-28T12:03:50.003Z</time></trkpt><trkpt lat="45.59697763281577" lon="10.730056109620625"><ele>262.0</ele><time>2026-03-28T12:03:51.003Z</time></trkpt><trkpt lat="45.59707419408985" lon="10.730066309703632"><ele>263.6</ele><time>2026-03-28T12:03:52.003Z</time></trkpt><trkpt lat="45.59715288236582" lon="10.730038401615456"><ele>265.2</ele><time>2026-03-28T12:03:53.003Z</time></trkpt><trkpt lat="45.59723783553486" lon="10.729987202545207"><ele>266.8</ele><time>2026-03-28T12:03:54.003Z</time></trkpt><trkpt lat="45.5973515545639" lon="10.72995017121646"><ele>268.4</ele><time>2026-03-28T12:03:55.003Z</time></trkpt><trkpt lat="45.59744541741998" lon="10.729880145647504"><ele>270.0</ele><time>2026-03-28T12:03:56.003Z</time></trkpt><trkpt lat="45.59751851596948" lon="10.729835646138534"><ele>270.0</ele><time>2026-03-28T12:03:57.003Z</time></trkpt><trkpt lat="45.5975621159348" lon="10.729757609187262"><ele>270.0</ele><time>2026-03-28T12:03:58.003Z</time></trkpt><trkpt lat="45.59761895615763" lon="10.729716700059408"><ele>270.0</ele><time>2026-03-28T12:03:59.003Z</time></trkpt><trkpt lat="45.59767215014405" lon="10.72964551717574"><ele>270.0</ele><time>2026-03-28T12:04:00.003Z</time></trkpt><trkpt lat="45.59778878370666" lon="10.729636563400513"><ele>270.0</ele><time>2026-03-28T12:04:01.003Z</time></trkpt><trkpt lat="45.5979287433548" lon="10.729654454505285"><ele>270.75</ele><time>2026-03-28T12:04:02.003Z</time></trkpt><trkpt lat="45.59804911286641" lon="10.729639811375478"><ele>271.5</ele><time>2026-03-28T12:04:03.003Z</time></trkpt><trkpt lat="45.59813062249214" lon="10.729578935024277"><ele>272.25</ele><time>2026-03-28T12:04:04.003Z</time></trkpt><trkpt lat="45.59822838239437" lon="10.729464973060505"><ele>273.0</ele><time>2026-03-28T12:04:05.003Z</time></trkpt><trkpt lat="45.598338339666284" lon="10.72935427434686"><ele>273.5</ele><time>2026-03-28T12:04:06.003Z</time></trkpt><trkpt lat="45.59845692375937" lon="10.729252741620382"><ele>274.0</ele><time>2026-03-28T12:04:07.003Z</time></trkpt><trkpt lat="45.598552688896504" lon="10.729174710714679"><ele>274.5</ele><time>2026-03-28T12:04:08.003Z</time></trkpt><trkpt lat="45.59860822189343" lon="10.729016442077727"><ele>275.0</ele><time>2026-03-28T12:04:10.003Z</time></trkpt><trkpt lat="45.59861550991656" lon="10.72887383086539"><ele>275.0</ele><time>2026-03-28T12:04:11.003Z</time></trkpt><trkpt lat="45.59862051148852" lon="10.728667244849522"><ele>275.0</ele><time>2026-03-28T12:04:12.003Z</time></trkpt><trkpt lat="45.59863222379518" lon="10.728460631292455"><ele>275.0</ele><time>2026-03-28T12:04:13.003Z</time></trkpt><trkpt lat="45.598645590824056" lon="10.728325167321891"><ele>275.0</ele><time>2026-03-28T12:04:14.003Z</time></trkpt><trkpt lat="45.59870986673653" lon="10.728187079879728"><ele>277.25</ele><time>2026-03-28T12:04:15.999Z</time></trkpt><trkpt lat="45.5987839410857" lon="10.728131094681382"><ele>279.5</ele><time>2026-03-28T12:04:16.999Z</time></trkpt><trkpt lat="45.59889332695618" lon="10.728068783362737"><ele>281.75</ele><time>2026-03-28T12:04:17.999Z</time></trkpt><trkpt lat="45.59901893277698" lon="10.727985816217434"><ele>284.0</ele><time>2026-03-28T12:04:18.999Z</time></trkpt><trkpt lat="45.599126679978546" lon="10.727891609327509"><ele>284.0</ele><time>2026-03-28T12:04:19.999Z</time></trkpt><trkpt lat="45.59919676321725" lon="10.727866485270313"><ele>284.0</ele><time>2026-03-28T12:04:21Z</time></trkpt><trkpt lat="45.59912695541177" lon="10.727884691534506"><ele>284.0</ele><time>2026-03-28T12:04:47Z</time></trkpt><trkpt lat="45.59903529936203" lon="10.7280241702435"><ele>284.0</ele><time>2026-03-28T12:04:49Z</time></trkpt><trkpt lat="45.59903112083635" lon="10.728148276852693"><ele>284.0</ele><time>2026-03-28T12:04:51.001Z</time></trkpt><trkpt lat="45.59905735825914" lon="10.728242682685915"><ele>284.0</ele><time>2026-03-28T12:04:52.001Z</time></trkpt><trkpt lat="45.59909249447219" lon="10.728346086199322"><ele>284.0</ele><time>2026-03-28T12:04:53.001Z</time></trkpt><trkpt lat="45.5991130166539" lon="10.728462553063604"><ele>284.0</ele><time>2026-03-28T12:04:54.001Z</time></trkpt><trkpt lat="45.599150598396164" lon="10.728572245625557"><ele>284.0</ele><time>2026-03-28T12:04:55.001Z</time></trkpt><trkpt lat="45.5991805274996" lon="10.728658887028399"><ele>284.0</ele><time>2026-03-28T12:04:56.001Z</time></trkpt><trkpt lat="45.59924416498993" lon="10.728786844756486"><ele>284.0</ele><time>2026-03-28T12:04:58.001Z</time></trkpt><trkpt lat="45.59929848459927" lon="10.728945487714835"><ele>284.1666666666667</ele><time>2026-03-28T12:05:00.001Z</time></trkpt><trkpt lat="45.599339505884515" lon="10.729067710531442"><ele>284.33333333333337</ele><time>2026-03-28T12:05:02.001Z</time></trkpt><trkpt lat="45.599363175787616" lon="10.729157735134113"><ele>284.5</ele><time>2026-03-28T12:05:07.001Z</time></trkpt><trkpt lat="45.59938681976887" lon="10.72926290813123"><ele>284.6666666666667</ele><time>2026-03-28T12:05:10.001Z</time></trkpt><trkpt lat="45.599413042973175" lon="10.729353003590296"><ele>284.8333333333333</ele><time>2026-03-28T12:05:11.001Z</time></trkpt><trkpt lat="45.59944727848021" lon="10.729476832370725"><ele>285.0</ele><time>2026-03-28T12:05:12.001Z</time></trkpt><trkpt lat="45.59947329231555" lon="10.72960665994226"><ele>285.1666666666667</ele><time>2026-03-28T12:05:13.001Z</time></trkpt><trkpt lat="45.5995001921981" lon="10.729699725770987"><ele>285.3333333333333</ele><time>2026-03-28T12:05:14.001Z</time></trkpt><trkpt lat="45.59956534743384" lon="10.729798008065217"><ele>285.5</ele><time>2026-03-28T12:05:16.001Z</time></trkpt><trkpt lat="45.599669399058655" lon="10.729741399367182"><ele>285.66666666666663</ele><time>2026-03-28T12:05:17.001Z</time></trkpt><trkpt lat="45.59976818558797" lon="10.729757952291958"><ele>285.8333333333333</ele><time>2026-03-28T12:05:18.001Z</time></trkpt><trkpt lat="45.599838524137176" lon="10.72976274149525"><ele>286.0</ele><time>2026-03-28T12:05:19.001Z</time></trkpt><trkpt lat="45.59995152316331" lon="10.729791160344286"><ele>287.5</ele><time>2026-03-28T12:05:22.002Z</time></trkpt><trkpt lat="45.60004708598326" lon="10.729651663521766"><ele>289.0</ele><time>2026-03-28T12:05:23.002Z</time></trkpt><trkpt lat="45.60016854092527" lon="10.729574579845035"><ele>290.5</ele><time>2026-03-28T12:05:24.002Z</time></trkpt><trkpt lat="45.60030480191387" lon="10.729494393206737"><ele>292.0</ele><time>2026-03-28T12:05:25.002Z</time></trkpt><trkpt lat="45.60046551817491" lon="10.729405207419578"><ele>293.66666666666663</ele><time>2026-03-28T12:05:26.002Z</time></trkpt><trkpt lat="45.60064885398951" lon="10.729302837309875"><ele>295.3333333333333</ele><time>2026-03-28T12:05:27.002Z</time></trkpt><trkpt lat="45.60084239774339" lon="10.729192337662509"><ele>297.0</ele><time>2026-03-28T12:05:28.002Z</time></trkpt><trkpt lat="45.601031788053454" lon="10.729042483838027"><ele>300.3333333333333</ele><time>2026-03-28T12:05:29.002Z</time></trkpt><trkpt lat="45.601200341379126" lon="10.728894791500785"><ele>303.66666666666663</ele><time>2026-03-28T12:05:30.002Z</time></trkpt><trkpt lat="45.60132825838274" lon="10.728735620443063"><ele>307.0</ele><time>2026-03-28T12:05:31.002Z</time></trkpt><trkpt lat="45.601433592555836" lon="10.72859163343435"><ele>306.25</ele><time>2026-03-28T12:05:32.002Z</time></trkpt><trkpt lat="45.60152499104412" lon="10.728480340456766"><ele>305.5</ele><time>2026-03-28T12:05:33.002Z</time></trkpt><trkpt lat="45.60163523591443" lon="10.728422861202004"><ele>304.75</ele><time>2026-03-28T12:05:34.002Z</time></trkpt><trkpt lat="45.601781595916215" lon="10.728425011919677"><ele>304.0</ele><time>2026-03-28T12:05:35.002Z</time></trkpt><trkpt lat="45.601944707007824" lon="10.728353729088724"><ele>306.0</ele><time>2026-03-28T12:05:36.002Z</time></trkpt><trkpt lat="45.60211408585353" lon="10.728302928876403"><ele>308.0</ele><time>2026-03-28T12:05:37.002Z</time></trkpt><trkpt lat="45.60225691783777" lon="10.728230682596465"><ele>310.0</ele><time>2026-03-28T12:05:38.002Z</time></trkpt><trkpt lat="45.6023850566657" lon="10.728165523057777"><ele>310.0</ele><time>2026-03-28T12:05:39.002Z</time></trkpt><trkpt lat="45.60252278379559" lon="10.728092693706571"><ele>310.0</ele><time>2026-03-28T12:05:40.002Z</time></trkpt><trkpt lat="45.602683114152775" lon="10.728012354446227"><ele>310.0</ele><time>2026-03-28T12:05:41.002Z</time></trkpt><trkpt lat="45.60284782713191" lon="10.727918808052626"><ele>309.66666666666663</ele><time>2026-03-28T12:05:42.002Z</time></trkpt><trkpt lat="45.603015752042324" lon="10.727822533619658"><ele>309.3333333333333</ele><time>2026-03-28T12:05:43.002Z</time></trkpt><trkpt lat="45.60318034422915" lon="10.727728914754316"><ele>309.0</ele><time>2026-03-28T12:05:44.002Z</time></trkpt><trkpt lat="45.60333939979539" lon="10.727640257251045"><ele>309.0</ele><time>2026-03-28T12:05:45.002Z</time></trkpt><trkpt lat="45.60349311285114" lon="10.72757367055106"><ele>309.0</ele><time>2026-03-28T12:05:46.002Z</time></trkpt><trkpt lat="45.603650139984204" lon="10.727521207326408"><ele>309.0</ele><time>2026-03-28T12:05:47.002Z</time></trkpt><trkpt lat="45.60381475394074" lon="10.727468987578153"><ele>310.6666666666667</ele><time>2026-03-28T12:05:48.002Z</time></trkpt><trkpt lat="45.6039916002507" lon="10.727442339819579"><ele>312.33333333333337</ele><time>2026-03-28T12:05:49.002Z</time></trkpt><trkpt lat="45.60415510050545" lon="10.727365491938173"><ele>314.0</ele><time>2026-03-28T12:05:50.002Z</time></trkpt><trkpt lat="45.60431070799472" lon="10.727314495027345"><ele>314.0</ele><time>2026-03-28T12:05:51.002Z</time></trkpt><trkpt lat="45.604447869181286" lon="10.727266917324078"><ele>314.0</ele><time>2026-03-28T12:05:52.002Z</time></trkpt><trkpt lat="45.60457295511987" lon="10.727232235547667"><ele>314.0</ele><time>2026-03-28T12:05:53.002Z</time></trkpt><trkpt lat="45.60471107432406" lon="10.727245260887798"><ele>314.0</ele><time>2026-03-28T12:05:54.003Z</time></trkpt><trkpt lat="45.60485825619974" lon="10.727233729320734"><ele>314.0</ele><time>2026-03-28T12:05:55.003Z</time></trkpt><trkpt lat="45.60499091805633" lon="10.727255400619246"><ele>314.0</ele><time>2026-03-28T12:05:56.003Z</time></trkpt><trkpt lat="45.605128658145006" lon="10.727276217095062"><ele>314.0</ele><time>2026-03-28T12:05:57.003Z</time></trkpt><trkpt lat="45.60526606656171" lon="10.727290965768182"><ele>314.0</ele><time>2026-03-28T12:05:58.003Z</time></trkpt><trkpt lat="45.60541690792189" lon="10.727303538449357"><ele>313.75</ele><time>2026-03-28T12:05:59.003Z</time></trkpt><trkpt lat="45.6055744317052" lon="10.727320775139072"><ele>313.5</ele><time>2026-03-28T12:06:00.003Z</time></trkpt><trkpt lat="45.60572076532699" lon="10.727329854679647"><ele>313.25</ele><time>2026-03-28T12:06:01.003Z</time></trkpt><trkpt lat="45.60585669699205" lon="10.727306751921267"><ele>313.0</ele><time>2026-03-28T12:06:02.003Z</time></trkpt><trkpt lat="45.605981382493624" lon="10.727257549660687"><ele>313.0</ele><time>2026-03-28T12:06:03.003Z</time></trkpt><trkpt lat="45.60609681539855" lon="10.72722013937748"><ele>313.0</ele><time>2026-03-28T12:06:04.003Z</time></trkpt><trkpt lat="45.60620080209932" lon="10.727112063271019"><ele>313.0</ele><time>2026-03-28T12:06:05.003Z</time></trkpt><trkpt lat="45.60631808362393" lon="10.727038594052884"><ele>313.0</ele><time>2026-03-28T12:06:06.003Z</time></trkpt><trkpt lat="45.606413174450445" lon="10.72696218905606"><ele>313.6</ele><time>2026-03-28T12:06:07.003Z</time></trkpt><trkpt lat="45.60649210557236" lon="10.726904315643425"><ele>314.20000000000005</ele><time>2026-03-28T12:06:08.003Z</time></trkpt><trkpt lat="45.606582826079936" lon="10.726875754396508"><ele>314.8</ele><time>2026-03-28T12:06:10.003Z</time></trkpt><trkpt lat="45.60664284746281" lon="10.726904633798858"><ele>315.40000000000003</ele><time>2026-03-28T12:06:12.003Z</time></trkpt><trkpt lat="45.6066203411309" lon="10.72711957217938"><ele>316.0</ele><time>2026-03-28T12:06:14.003Z</time></trkpt><trkpt lat="45.60660073803486" lon="10.727245299178126"><ele>316.0</ele><time>2026-03-28T12:06:15.003Z</time></trkpt><trkpt lat="45.60657313394866" lon="10.72737788462921"><ele>316.0</ele><time>2026-03-28T12:06:16.003Z</time></trkpt><trkpt lat="45.60654070152821" lon="10.727504398269465"><ele>316.0</ele><time>2026-03-28T12:06:17.003Z</time></trkpt><trkpt lat="45.60649688123319" lon="10.727652137369128"><ele>316.0</ele><time>2026-03-28T12:06:18.003Z</time></trkpt><trkpt lat="45.60645948747163" lon="10.727778072602185"><ele>316.0</ele><time>2026-03-28T12:06:19.003Z</time></trkpt><trkpt lat="45.606422184026194" lon="10.72790120104256"><ele>314.8</ele><time>2026-03-28T12:06:20.003Z</time></trkpt><trkpt lat="45.60638495584639" lon="10.728019505742488"><ele>313.6</ele><time>2026-03-28T12:06:21.003Z</time></trkpt><trkpt lat="45.606356541108156" lon="10.728135188284675"><ele>312.4</ele><time>2026-03-28T12:06:21.999Z</time></trkpt><trkpt lat="45.6063482724296" lon="10.72824464796359"><ele>311.2</ele><time>2026-03-28T12:06:22.999Z</time></trkpt><trkpt lat="45.60635282748024" lon="10.728379713838262"><ele>310.0</ele><time>2026-03-28T12:06:23.999Z</time></trkpt><trkpt lat="45.60641753575167" lon="10.728556979672188"><ele>309.3333333333333</ele><time>2026-03-28T12:06:24.999Z</time></trkpt><trkpt lat="45.6064934082217" lon="10.728749257616961"><ele>308.6666666666667</ele><time>2026-03-28T12:06:25.999Z</time></trkpt><trkpt lat="45.60657215031356" lon="10.728952863445537"><ele>308.0</ele><time>2026-03-28T12:06:26.999Z</time></trkpt><trkpt lat="45.606649067674724" lon="10.729151611870583"><ele>308.0</ele><time>2026-03-28T12:06:27.999Z</time></trkpt><trkpt lat="45.606709452819594" lon="10.729336141249744"><ele>308.0</ele><time>2026-03-28T12:06:28.999Z</time></trkpt><trkpt lat="45.60674425514607" lon="10.729511802107357"><ele>308.0</ele><time>2026-03-28T12:06:30Z</time></trkpt><trkpt lat="45.60676698857076" lon="10.729675120004948"><ele>308.0</ele><time>2026-03-28T12:06:31Z</time></trkpt><trkpt lat="45.60674079622566" lon="10.729842500570204"><ele>307.0</ele><time>2026-03-28T12:06:32Z</time></trkpt><trkpt lat="45.606752708631205" lon="10.730002081151587"><ele>306.0</ele><time>2026-03-28T12:06:33Z</time></trkpt><trkpt lat="45.60675239829074" lon="10.730143024368623"><ele>305.0</ele><time>2026-03-28T12:06:34Z</time></trkpt><trkpt lat="45.60675033764856" lon="10.730267364071326"><ele>304.0</ele><time>2026-03-28T12:06:35Z</time></trkpt><trkpt lat="45.60675749137154" lon="10.730372868961675"><ele>303.0</ele><time>2026-03-28T12:06:36Z</time></trkpt><trkpt lat="45.606756602164445" lon="10.7305145232778"><ele>302.0</ele><time>2026-03-28T12:06:38Z</time></trkpt><trkpt lat="45.606761286701186" lon="10.730705006554494"><ele>301.0</ele><time>2026-03-28T12:06:40Z</time></trkpt><trkpt lat="45.60676621604921" lon="10.730836422322502"><ele>300.0</ele><time>2026-03-28T12:06:41Z</time></trkpt><trkpt lat="45.60676284283486" lon="10.730980559773698"><ele>299.0</ele><time>2026-03-28T12:06:42Z</time></trkpt><trkpt lat="45.60676613186323" lon="10.731151656247118"><ele>298.0</ele><time>2026-03-28T12:06:43Z</time></trkpt><trkpt lat="45.606768002276695" lon="10.731338016964143"><ele>297.25</ele><time>2026-03-28T12:06:44Z</time></trkpt><trkpt lat="45.60677242396876" lon="10.731534336672814"><ele>296.5</ele><time>2026-03-28T12:06:45Z</time></trkpt><trkpt lat="45.60677608309393" lon="10.73174389171499"><ele>295.75</ele><time>2026-03-28T12:06:46Z</time></trkpt><trkpt lat="45.606768617377895" lon="10.731961439402465"><ele>295.0</ele><time>2026-03-28T12:06:47Z</time></trkpt><trkpt lat="45.60675120024527" lon="10.732164146568794"><ele>295.0</ele><time>2026-03-28T12:06:48Z</time></trkpt><trkpt lat="45.60672066544512" lon="10.732344828615998"><ele>295.0</ele><time>2026-03-28T12:06:49Z</time></trkpt><trkpt lat="45.606675951376566" lon="10.732514611635601"><ele>295.0</ele><time>2026-03-28T12:06:50Z</time></trkpt><trkpt lat="45.60661073415946" lon="10.73267822261431"><ele>295.0</ele><time>2026-03-28T12:06:51Z</time></trkpt><trkpt lat="45.6065105453078" lon="10.732818555789866"><ele>296.5</ele><time>2026-03-28T12:06:52Z</time></trkpt><trkpt lat="45.60642185959548" lon="10.73299585801348"><ele>298.0</ele><time>2026-03-28T12:06:53Z</time></trkpt><trkpt lat="45.60631439236539" lon="10.733143683379685"><ele>299.5</ele><time>2026-03-28T12:06:54Z</time></trkpt><trkpt lat="45.606183101898104" lon="10.733198507590341"><ele>301.0</ele><time>2026-03-28T12:06:55Z</time></trkpt><trkpt lat="45.60610120627192" lon="10.733282932879668"><ele>300.2</ele><time>2026-03-28T12:06:56Z</time></trkpt><trkpt lat="45.60602071821871" lon="10.733374304683748"><ele>299.40000000000003</ele><time>2026-03-28T12:06:57.001Z</time></trkpt><trkpt lat="45.60594618827712" lon="10.733461355513203"><ele>298.6</ele><time>2026-03-28T12:06:58.001Z</time></trkpt><trkpt lat="45.605881946023906" lon="10.733527464258906"><ele>297.8</ele><time>2026-03-28T12:06:59.001Z</time></trkpt><trkpt lat="45.60583035068628" lon="10.733586131278932"><ele>297.0</ele><time>2026-03-28T12:07:03.001Z</time></trkpt><trkpt lat="45.60591388113951" lon="10.733728608711308"><ele>297.0</ele><time>2026-03-28T12:07:04.001Z</time></trkpt><trkpt lat="45.6059709299863" lon="10.733795560265465"><ele>297.0</ele><time>2026-03-28T12:07:05.001Z</time></trkpt><trkpt lat="45.60589009444405" lon="10.733968936639767"><ele>297.0</ele><time>2026-03-28T12:07:08.001Z</time></trkpt><trkpt lat="45.60581525659297" lon="10.734074191990581"><ele>297.0</ele><time>2026-03-28T12:07:09.001Z</time></trkpt><trkpt lat="45.6057561971065" lon="10.73416704569439"><ele>297.0</ele><time>2026-03-28T12:07:10.001Z</time></trkpt><trkpt lat="45.6057104811865" lon="10.7342434713636"><ele>297.0</ele><time>2026-03-28T12:07:11.001Z</time></trkpt><trkpt lat="45.605675666016765" lon="10.734340052474101"><ele>297.0</ele><time>2026-03-28T12:07:13.001Z</time></trkpt><trkpt lat="45.60575983263581" lon="10.734400783229143"><ele>297.0</ele><time>2026-03-28T12:07:18.001Z</time></trkpt><trkpt lat="45.60582268049292" lon="10.734416053369591"><ele>297.0</ele><time>2026-03-28T12:07:19.001Z</time></trkpt><trkpt lat="45.60590848407532" lon="10.734436900902995"><ele>297.0</ele><time>2026-03-28T12:07:20.001Z</time></trkpt><trkpt lat="45.60597024151695" lon="10.734488480183165"><ele>297.0</ele><time>2026-03-28T12:07:21.001Z</time></trkpt><trkpt lat="45.60604113746878" lon="10.734546773874111"><ele>297.0</ele><time>2026-03-28T12:07:22.001Z</time></trkpt><trkpt lat="45.60599545887968" lon="10.73402932697677"><ele>297.0</ele><time>2026-03-28T12:07:25.001Z</time></trkpt><trkpt lat="45.60605978223045" lon="10.73390731914291"><ele>297.0</ele><time>2026-03-28T12:07:26.001Z</time></trkpt><trkpt lat="45.60612009134608" lon="10.733790069416298"><ele>297.0</ele><time>2026-03-28T12:07:27.002Z</time></trkpt><trkpt lat="45.60616319802609" lon="10.733704381092968"><ele>297.0</ele><time>2026-03-28T12:07:28.002Z</time></trkpt><trkpt lat="45.606225818349145" lon="10.733598837936077"><ele>297.0</ele><time>2026-03-28T12:07:29.002Z</time></trkpt><trkpt lat="45.606301690185816" lon="10.73348696048682"><ele>297.0</ele><time>2026-03-28T12:07:30.002Z</time></trkpt><trkpt lat="45.60639441705747" lon="10.733253047577644"><ele>298.0</ele><time>2026-03-28T12:07:31.002Z</time></trkpt><trkpt lat="45.606473108875406" lon="10.733214030862895"><ele>299.0</ele><time>2026-03-28T12:07:32.002Z</time></trkpt><trkpt lat="45.60656476663105" lon="10.733155286883086"><ele>300.0</ele><time>2026-03-28T12:07:33.002Z</time></trkpt><trkpt lat="45.606588395768064" lon="10.73306842844337"><ele>301.0</ele><time>2026-03-28T12:07:34.002Z</time></trkpt><trkpt lat="45.607067935644764" lon="10.733269625457076"><ele>304.0</ele><time>2026-03-28T12:07:36.002Z</time></trkpt><trkpt lat="45.607112765677655" lon="10.733170912681468"><ele>307.0</ele><time>2026-03-28T12:07:37.002Z</time></trkpt><trkpt lat="45.60718922085088" lon="10.733076706078878"><ele>310.0</ele><time>2026-03-28T12:07:38.002Z</time></trkpt><trkpt lat="45.60726031094293" lon="10.733044639661038"><ele>313.0</ele><time>2026-03-28T12:07:39.002Z</time></trkpt><trkpt lat="45.6073306819382" lon="10.733089928586828"><ele>316.0</ele><time>2026-03-28T12:07:53.002Z</time></trkpt><trkpt lat="45.6073976098463" lon="10.73316072850682"><ele>319.0</ele><time>2026-03-28T12:07:54.002Z</time></trkpt><trkpt lat="45.60748045530463" lon="10.733216030695152"><ele>319.0</ele><time>2026-03-28T12:07:55.002Z</time></trkpt><trkpt lat="45.607563372811676" lon="10.733233537208438"><ele>319.0</ele><time>2026-03-28T12:07:56.002Z</time></trkpt><trkpt lat="45.60765712556263" lon="10.733216030116417"><ele>319.0</ele><time>2026-03-28T12:07:57.002Z</time></trkpt><trkpt lat="45.60775130167063" lon="10.733190717601362"><ele>319.0</ele><time>2026-03-28T12:07:58.002Z</time></trkpt><trkpt lat="45.607841329503906" lon="10.733309280101162"><ele>319.0</ele><time>2026-03-28T12:08:00.003Z</time></trkpt><trkpt lat="45.607880842441645" lon="10.733419822933305"><ele>323.2</ele><time>2026-03-28T12:08:01.003Z</time></trkpt><trkpt lat="45.60793502729217" lon="10.733557887217518"><ele>327.4</ele><time>2026-03-28T12:08:02.003Z</time></trkpt><trkpt lat="45.60796324540852" lon="10.733661160757679"><ele>331.6</ele><time>2026-03-28T12:08:03.003Z</time></trkpt><trkpt lat="45.60789942590808" lon="10.733787374841155"><ele>335.8</ele><time>2026-03-28T12:08:05.003Z</time></trkpt><trkpt lat="45.60780560187141" lon="10.733837960634816"><ele>340.0</ele><time>2026-03-28T12:08:06.003Z</time></trkpt><trkpt lat="45.60767138942488" lon="10.73388579281695"><ele>340.0</ele><time>2026-03-28T12:08:07.003Z</time></trkpt><trkpt lat="45.60751323126102" lon="10.733916697494532"><ele>340.0</ele><time>2026-03-28T12:08:08.003Z</time></trkpt><trkpt lat="45.60735824618229" lon="10.73394587408445"><ele>340.0</ele><time>2026-03-28T12:08:09.003Z</time></trkpt><trkpt lat="45.60725010061141" lon="10.73396980286315"><ele>340.0</ele><time>2026-03-28T12:08:10.003Z</time></trkpt><trkpt lat="45.60718159852494" lon="10.734028887274363"><ele>340.0</ele><time>2026-03-28T12:08:11.003Z</time></trkpt><trkpt lat="45.60714374390379" lon="10.734112520261995"><ele>340.0</ele><time>2026-03-28T12:08:12.003Z</time></trkpt><trkpt lat="45.607102180757046" lon="10.734193357968062"><ele>340.0</ele><time>2026-03-28T12:08:13.003Z</time></trkpt><trkpt lat="45.607131219519495" lon="10.73428109830137"><ele>340.0</ele><time>2026-03-28T12:08:15.003Z</time></trkpt><trkpt lat="45.60724302479119" lon="10.7342591683882"><ele>340.0</ele><time>2026-03-28T12:08:17.003Z</time></trkpt><trkpt lat="45.607330551135995" lon="10.734224157616314"><ele>340.0</ele><time>2026-03-28T12:08:18.003Z</time></trkpt><trkpt lat="45.60742245992781" lon="10.734200530938482"><ele>340.0</ele><time>2026-03-28T12:08:19.003Z</time></trkpt><trkpt lat="45.607535462962446" lon="10.7341776623105"><ele>340.0</ele><time>2026-03-28T12:08:20.003Z</time></trkpt><trkpt lat="45.60764263810749" lon="10.73414426859178"><ele>340.0</ele><time>2026-03-28T12:08:21.003Z</time></trkpt><trkpt lat="45.60775197192571" lon="10.734108737896724"><ele>340.0</ele><time>2026-03-28T12:08:22.003Z</time></trkpt><trkpt lat="45.60787992206151" lon="10.734063074939453"><ele>341.4</ele><time>2026-03-28T12:08:23.003Z</time></trkpt><trkpt lat="45.607995029884094" lon="10.734012809559326"><ele>342.8</ele><time>2026-03-28T12:08:24.003Z</time></trkpt><trkpt lat="45.608106723380324" lon="10.733980774243067"><ele>344.20000000000005</ele><time>2026-03-28T12:08:25.003Z</time></trkpt><trkpt lat="45.60821734054648" lon="10.733950778196911"><ele>345.6</ele><time>2026-03-28T12:08:26.003Z</time></trkpt><trkpt lat="45.60831800527084" lon="10.733958856163474"><ele>347.0</ele><time>2026-03-28T12:08:27.003Z</time></trkpt><trkpt lat="45.608397339744194" lon="10.734005397333672"><ele>347.0</ele><time>2026-03-28T12:08:27.999Z</time></trkpt><trkpt lat="45.608476174797" lon="10.734033811754356"><ele>347.0</ele><time>2026-03-28T12:08:28.999Z</time></trkpt><trkpt lat="45.608554059646394" lon="10.734037935811525"><ele>347.0</ele><time>2026-03-28T12:08:29.999Z</time></trkpt><trkpt lat="45.60863130785592" lon="10.73396840581347"><ele>347.0</ele><time>2026-03-28T12:08:30.999Z</time></trkpt><trkpt lat="45.60869414159458" lon="10.733846050467672"><ele>347.0</ele><time>2026-03-28T12:08:31.999Z</time></trkpt><trkpt lat="45.60877268997873" lon="10.733692889074412"><ele>346.6666666666667</ele><time>2026-03-28T12:08:32.999Z</time></trkpt><trkpt lat="45.60886672034461" lon="10.733555005781476"><ele>346.3333333333333</ele><time>2026-03-28T12:08:33.999Z</time></trkpt><trkpt lat="45.60897731910837" lon="10.73339841686723"><ele>346.0</ele><time>2026-03-28T12:08:34.999Z</time></trkpt><trkpt lat="45.609094588241184" lon="10.733226109345638"><ele>346.0</ele><time>2026-03-28T12:08:35.999Z</time></trkpt><trkpt lat="45.60921781023928" lon="10.733063791801925"><ele>346.0</ele><time>2026-03-28T12:08:36.999Z</time></trkpt><trkpt lat="45.60932635025275" lon="10.732927929881994"><ele>346.0</ele><time>2026-03-28T12:08:37.999Z</time></trkpt><trkpt lat="45.60943016096794" lon="10.732802380157338"><ele>346.0</ele><time>2026-03-28T12:08:38.999Z</time></trkpt><trkpt lat="45.60954189202158" lon="10.732710149532586"><ele>347.25</ele><time>2026-03-28T12:08:39.999Z</time></trkpt><trkpt lat="45.609658919458184" lon="10.732621547021639"><ele>348.5</ele><time>2026-03-28T12:08:40.999Z</time></trkpt><trkpt lat="45.60975457577219" lon="10.73256051870735"><ele>349.75</ele><time>2026-03-28T12:08:41.999Z</time></trkpt><trkpt lat="45.609864917861756" lon="10.732507217293465"><ele>351.0</ele><time>2026-03-28T12:08:43Z</time></trkpt><trkpt lat="45.60999728497099" lon="10.732467488752816"><ele>351.0</ele><time>2026-03-28T12:08:44Z</time></trkpt><trkpt lat="45.6101069058537" lon="10.732449161531175"><ele>351.0</ele><time>2026-03-28T12:08:45Z</time></trkpt><trkpt lat="45.61019635395201" lon="10.732431674553835"><ele>351.0</ele><time>2026-03-28T12:08:46Z</time></trkpt><trkpt lat="45.61028626637448" lon="10.732428965360262"><ele>351.0</ele><time>2026-03-28T12:08:47Z</time></trkpt><trkpt lat="45.610384020602176" lon="10.73246297424677"><ele>351.0</ele><time>2026-03-28T12:08:48Z</time></trkpt><trkpt lat="45.61046553946134" lon="10.732528182511285"><ele>356.0</ele><time>2026-03-28T12:08:49Z</time></trkpt><trkpt lat="45.61058218907413" lon="10.732598269793167"><ele>361.0</ele><time>2026-03-28T12:08:50Z</time></trkpt><trkpt lat="45.610736758801934" lon="10.732670808425974"><ele>366.0</ele><time>2026-03-28T12:08:51Z</time></trkpt><trkpt lat="45.61090092297209" lon="10.732735761981141"><ele>368.1666666666667</ele><time>2026-03-28T12:08:52Z</time></trkpt><trkpt lat="45.6110099148496" lon="10.732777744196543"><ele>370.3333333333333</ele><time>2026-03-28T12:08:53Z</time></trkpt><trkpt lat="45.61107964364586" lon="10.732813677330308"><ele>372.5</ele><time>2026-03-28T12:08:54Z</time></trkpt><trkpt lat="45.61108687018847" lon="10.7329352502021"><ele>374.66666666666663</ele><time>2026-03-28T12:08:56Z</time></trkpt><trkpt lat="45.611066913496884" lon="10.733042173851452"><ele>376.8333333333333</ele><time>2026-03-28T12:08:57Z</time></trkpt><trkpt lat="45.61105215402622" lon="10.7331829888567"><ele>379.0</ele><time>2026-03-28T12:08:58Z</time></trkpt><trkpt lat="45.61105169161908" lon="10.733342950562431"><ele>379.0</ele><time>2026-03-28T12:08:59Z</time></trkpt><trkpt lat="45.611057759867506" lon="10.733493042531572"><ele>379.0</ele><time>2026-03-28T12:09:00Z</time></trkpt><trkpt lat="45.6110806405039" lon="10.73366682343254"><ele>379.0</ele><time>2026-03-28T12:09:01Z</time></trkpt><trkpt lat="45.61109195699216" lon="10.733827613779926"><ele>379.0</ele><time>2026-03-28T12:09:02Z</time></trkpt><trkpt lat="45.61109808934368" lon="10.733995387129951"><ele>382.4</ele><time>2026-03-28T12:09:03.001Z</time></trkpt><trkpt lat="45.61109621659843" lon="10.73415780505215"><ele>385.79999999999995</ele><time>2026-03-28T12:09:04.001Z</time></trkpt><trkpt lat="45.61109806040734" lon="10.734303868537921"><ele>389.20000000000005</ele><time>2026-03-28T12:09:05.001Z</time></trkpt><trkpt lat="45.611119763420625" lon="10.734427612810547"><ele>392.6</ele><time>2026-03-28T12:09:06.001Z</time></trkpt><trkpt lat="45.611157787283105" lon="10.734515719739738"><ele>396.0</ele><time>2026-03-28T12:09:07.001Z</time></trkpt><trkpt lat="45.6112656265412" lon="10.7345955592721"><ele>401.0</ele><time>2026-03-28T12:09:09.001Z</time></trkpt><trkpt lat="45.61137360091718" lon="10.73461505655739"><ele>406.0</ele><time>2026-03-28T12:09:11.001Z</time></trkpt><trkpt lat="45.611448227566775" lon="10.73465343256937"><ele>411.0</ele><time>2026-03-28T12:09:12.001Z</time></trkpt><trkpt lat="45.61156844650123" lon="10.734652241986094"><ele>416.0</ele><time>2026-03-28T12:09:14.001Z</time></trkpt><trkpt lat="45.61169164659946" lon="10.734659303683857"><ele>421.0</ele><time>2026-03-28T12:09:16.001Z</time></trkpt><trkpt lat="45.611792045202115" lon="10.734736841353074"><ele>421.00000000000006</ele><time>2026-03-28T12:09:18.001Z</time></trkpt><trkpt lat="45.611851541106205" lon="10.734815750792382"><ele>421.0</ele><time>2026-03-28T12:09:19.001Z</time></trkpt><trkpt lat="45.61192582624232" lon="10.734893392693822"><ele>421.0</ele><time>2026-03-28T12:09:20.001Z</time></trkpt><trkpt lat="45.611981982040504" lon="10.734949394453158"><ele>421.0</ele><time>2026-03-28T12:09:21.001Z</time></trkpt><trkpt lat="45.61208409717278" lon="10.734905604309684"><ele>421.00000000000006</ele><time>2026-03-28T12:09:23.001Z</time></trkpt><trkpt lat="45.61216472492444" lon="10.734849518398134"><ele>421.0</ele><time>2026-03-28T12:09:24.001Z</time></trkpt><trkpt lat="45.61227193853048" lon="10.734766602884296"><ele>421.20000000000005</ele><time>2026-03-28T12:09:25.001Z</time></trkpt><trkpt lat="45.612333910408914" lon="10.734738094847355"><ele>421.40000000000003</ele><time>2026-03-28T12:09:26.001Z</time></trkpt><trkpt lat="45.61242511713785" lon="10.734700832347015"><ele>421.6</ele><time>2026-03-28T12:09:28.001Z</time></trkpt><trkpt lat="45.61253611424846" lon="10.73481587541229"><ele>421.8</ele><time>2026-03-28T12:09:30.001Z</time></trkpt><trkpt lat="45.61262360081325" lon="10.734888542242253"><ele>422.0</ele><time>2026-03-28T12:09:31.001Z</time></trkpt><trkpt lat="45.61272167777709" lon="10.734902167129016"><ele>422.0</ele><time>2026-03-28T12:09:32.002Z</time></trkpt><trkpt lat="45.61282942894352" lon="10.734918730274657"><ele>422.0</ele><time>2026-03-28T12:09:33.002Z</time></trkpt><trkpt lat="45.612916523188154" lon="10.734968947318547"><ele>422.0</ele><time>2026-03-28T12:09:34.002Z</time></trkpt><trkpt lat="45.6129820232025" lon="10.735082793826857"><ele>422.0</ele><time>2026-03-28T12:09:35.002Z</time></trkpt><trkpt lat="45.613034557640994" lon="10.735209580312961"><ele>422.0</ele><time>2026-03-28T12:09:36.002Z</time></trkpt><trkpt lat="45.613103301222196" lon="10.735351759141576"><ele>428.0</ele><time>2026-03-28T12:09:37.002Z</time></trkpt><trkpt lat="45.61318700517194" lon="10.735506158356047"><ele>434.0</ele><time>2026-03-28T12:09:38.002Z</time></trkpt><trkpt lat="45.61328145903435" lon="10.73564570712898"><ele>440.0</ele><time>2026-03-28T12:09:39.002Z</time></trkpt><trkpt lat="45.61337124114498" lon="10.735793816116283"><ele>446.0</ele><time>2026-03-28T12:09:40.002Z</time></trkpt><trkpt lat="45.61345870409173" lon="10.735929906036336"><ele>446.0</ele><time>2026-03-28T12:09:41.002Z</time></trkpt><trkpt lat="45.61355961203649" lon="10.736028749492347"><ele>446.0</ele><time>2026-03-28T12:09:42.002Z</time></trkpt><trkpt lat="45.613654322800556" lon="10.736095445395868"><ele>446.0</ele><time>2026-03-28T12:09:43.002Z</time></trkpt><trkpt lat="45.61374053451706" lon="10.736146326273246"><ele>446.0</ele><time>2026-03-28T12:09:44.002Z</time></trkpt><trkpt lat="45.613799771495735" lon="10.736198206044065"><ele>446.0</ele><time>2026-03-28T12:09:45.002Z</time></trkpt><trkpt lat="45.61390013526286" lon="10.736304646759766"><ele>449.0</ele><time>2026-03-28T12:09:47.002Z</time></trkpt><trkpt lat="45.61398310772831" lon="10.736361173501157"><ele>452.0</ele><time>2026-03-28T12:09:48.002Z</time></trkpt><trkpt lat="45.61406958980094" lon="10.736373605374157"><ele>455.0</ele><time>2026-03-28T12:09:49.002Z</time></trkpt><trkpt lat="45.614140629515795" lon="10.736348063603538"><ele>458.0</ele><time>2026-03-28T12:09:50.002Z</time></trkpt><trkpt lat="45.61423984654058" lon="10.736427865556381"><ele>461.0</ele><time>2026-03-28T12:09:52.002Z</time></trkpt><trkpt lat="45.61424564510089" lon="10.73657274845402"><ele>461.0</ele><time>2026-03-28T12:09:54.002Z</time></trkpt><trkpt lat="45.614221722465345" lon="10.736684150364074"><ele>461.0</ele><time>2026-03-28T12:09:55.002Z</time></trkpt><trkpt lat="45.6142710951139" lon="10.73677081823159"><ele>461.0</ele><time>2026-03-28T12:09:58.002Z</time></trkpt><trkpt lat="45.61439214971678" lon="10.736788156993494"><ele>461.0</ele><time>2026-03-28T12:10:00.002Z</time></trkpt><trkpt lat="45.614496373238374" lon="10.736795197462879"><ele>461.0</ele><time>2026-03-28T12:10:01.002Z</time></trkpt><trkpt lat="45.6145729573554" lon="10.736764540788228"><ele>458.4</ele><time>2026-03-28T12:10:02.002Z</time></trkpt><trkpt lat="45.61463390847872" lon="10.73670114764539"><ele>455.8</ele><time>2026-03-28T12:10:03.002Z</time></trkpt><trkpt lat="45.61471047657055" lon="10.736633566334815"><ele>453.19999999999993</ele><time>2026-03-28T12:10:04.003Z</time></trkpt><trkpt lat="45.614810283586316" lon="10.736550245625413"><ele>450.59999999999997</ele><time>2026-03-28T12:10:05.003Z</time></trkpt><trkpt lat="45.61490146727518" lon="10.736465997102655"><ele>448.0</ele><time>2026-03-28T12:10:06.003Z</time></trkpt><trkpt lat="45.61499771798387" lon="10.736376984266002"><ele>448.0</ele><time>2026-03-28T12:10:07.003Z</time></trkpt><trkpt lat="45.61509310367354" lon="10.736286287692392"><ele>447.99999999999994</ele><time>2026-03-28T12:10:08.003Z</time></trkpt><trkpt lat="45.61517899981994" lon="10.736190701420698"><ele>447.99999999999994</ele><time>2026-03-28T12:10:09.003Z</time></trkpt><trkpt lat="45.61524134329715" lon="10.73612033921782"><ele>448.0</ele><time>2026-03-28T12:10:10.003Z</time></trkpt><trkpt lat="45.61528979466978" lon="10.736042638096048"><ele>448.0</ele><time>2026-03-28T12:10:11.003Z</time></trkpt><trkpt lat="45.6153182409192" lon="10.735858964759313"><ele>444.33333333333337</ele><time>2026-03-28T12:10:13.003Z</time></trkpt><trkpt lat="45.6153438055495" lon="10.73576056244477"><ele>440.6666666666667</ele><time>2026-03-28T12:10:14.003Z</time></trkpt><trkpt lat="45.61539958562746" lon="10.735713555080325"><ele>437.0</ele><time>2026-03-28T12:10:15.003Z</time></trkpt><trkpt lat="45.61548483494531" lon="10.735698591919896"><ele>433.33333333333337</ele><time>2026-03-28T12:10:16.003Z</time></trkpt><trkpt lat="45.615592246619094" lon="10.735690467890118"><ele>429.6666666666667</ele><time>2026-03-28T12:10:17.003Z</time></trkpt><trkpt lat="45.61566728784623" lon="10.735644171011364"><ele>426.0</ele><time>2026-03-28T12:10:18.003Z</time></trkpt><trkpt lat="45.61572218159292" lon="10.735578272805178"><ele>426.0</ele><time>2026-03-28T12:10:19.003Z</time></trkpt><trkpt lat="45.61581385294098" lon="10.735450093883978"><ele>426.0</ele><time>2026-03-28T12:10:20.003Z</time></trkpt><trkpt lat="45.615912891401905" lon="10.735301567254258"><ele>426.0</ele><time>2026-03-28T12:10:21.003Z</time></trkpt><trkpt lat="45.61600395289978" lon="10.735146713670492"><ele>426.0</ele><time>2026-03-28T12:10:22.003Z</time></trkpt><trkpt lat="45.61609612725253" lon="10.734997429385738"><ele>426.25</ele><time>2026-03-28T12:10:23.003Z</time></trkpt><trkpt lat="45.61619328788978" lon="10.734844112003387"><ele>426.5</ele><time>2026-03-28T12:10:24.003Z</time></trkpt><trkpt lat="45.61629080295719" lon="10.734682144193338"><ele>426.75</ele><time>2026-03-28T12:10:25.003Z</time></trkpt><trkpt lat="45.6163850137473" lon="10.734552384897603"><ele>427.0</ele><time>2026-03-28T12:10:26.003Z</time></trkpt><trkpt lat="45.61648204509159" lon="10.734454296959296"><ele>428.25</ele><time>2026-03-28T12:10:27.003Z</time></trkpt><trkpt lat="45.616556720110765" lon="10.734331614371538"><ele>429.5</ele><time>2026-03-28T12:10:28.003Z</time></trkpt><trkpt lat="45.616610754258176" lon="10.734165253646118"><ele>430.75</ele><time>2026-03-28T12:10:29.003Z</time></trkpt><trkpt lat="45.61665945918548" lon="10.733952688214856"><ele>432.0</ele><time>2026-03-28T12:10:30.003Z</time></trkpt><trkpt lat="45.616696989391826" lon="10.7337624731457"><ele>432.0</ele><time>2026-03-28T12:10:31.003Z</time></trkpt><trkpt lat="45.61673861026478" lon="10.733613868757564"><ele>432.00000000000006</ele><time>2026-03-28T12:10:32.003Z</time></trkpt><trkpt lat="45.616779290795456" lon="10.733512566898623"><ele>432.00000000000006</ele><time>2026-03-28T12:10:33.003Z</time></trkpt><trkpt lat="45.61681965321086" lon="10.7333986185992"><ele>432.0</ele><time>2026-03-28T12:10:33.999Z</time></trkpt><trkpt lat="45.616868255290996" lon="10.733239519606673"><ele>432.0</ele><time>2026-03-28T12:10:34.999Z</time></trkpt><trkpt lat="45.61692035250001" lon="10.73307265989646"><ele>431.75</ele><time>2026-03-28T12:10:35.999Z</time></trkpt><trkpt lat="45.616950637988595" lon="10.732906567087067"><ele>431.5</ele><time>2026-03-28T12:10:36.999Z</time></trkpt><trkpt lat="45.61696220023597" lon="10.732732887763856"><ele>431.25</ele><time>2026-03-28T12:10:37.999Z</time></trkpt><trkpt lat="45.61694808973657" lon="10.73257300702005"><ele>431.0</ele><time>2026-03-28T12:10:39Z</time></trkpt><trkpt lat="45.616935119709275" lon="10.732409837440011"><ele>429.0</ele><time>2026-03-28T12:10:40Z</time></trkpt><trkpt lat="45.61691578199658" lon="10.732250830778613"><ele>427.0</ele><time>2026-03-28T12:10:41Z</time></trkpt><trkpt lat="45.61688798800042" lon="10.732064290571135"><ele>425.0</ele><time>2026-03-28T12:10:42Z</time></trkpt><trkpt lat="45.61684839972106" lon="10.731891435348434"><ele>423.0</ele><time>2026-03-28T12:10:43Z</time></trkpt><trkpt lat="45.61677111700692" lon="10.731743473435797"><ele>418.75</ele><time>2026-03-28T12:10:44Z</time></trkpt><trkpt lat="45.61668465633136" lon="10.731600761595523"><ele>414.5</ele><time>2026-03-28T12:10:45Z</time></trkpt><trkpt lat="45.616624727013146" lon="10.731461675918933"><ele>410.25</ele><time>2026-03-28T12:10:46Z</time></trkpt><trkpt lat="45.616554833660814" lon="10.73131469143658"><ele>406.0</ele><time>2026-03-28T12:10:47Z</time></trkpt><trkpt lat="45.61648738853341" lon="10.731207877254604"><ele>406.0</ele><time>2026-03-28T12:10:48Z</time></trkpt><trkpt lat="45.61639873382212" lon="10.731132870247702"><ele>406.0</ele><time>2026-03-28T12:10:49Z</time></trkpt><trkpt lat="45.61633088419895" lon="10.731060241711514"><ele>406.0</ele><time>2026-03-28T12:10:50Z</time></trkpt><trkpt lat="45.616309425409014" lon="10.73096401176735"><ele>406.0</ele><time>2026-03-28T12:10:51Z</time></trkpt><trkpt lat="45.616295384875805" lon="10.730838852389656"><ele>406.0</ele><time>2026-03-28T12:10:52Z</time></trkpt><trkpt lat="45.61627834807824" lon="10.730692975664166"><ele>404.4</ele><time>2026-03-28T12:10:53Z</time></trkpt><trkpt lat="45.616285273677796" lon="10.730556168179483"><ele>402.8</ele><time>2026-03-28T12:10:54Z</time></trkpt><trkpt lat="45.616297915915204" lon="10.730416660587363"><ele>401.2</ele><time>2026-03-28T12:10:55Z</time></trkpt><trkpt lat="45.61630356769706" lon="10.730275324189655"><ele>399.59999999999997</ele><time>2026-03-28T12:10:56Z</time></trkpt><trkpt lat="45.61629564235449" lon="10.730162470811209"><ele>398.0</ele><time>2026-03-28T12:10:57Z</time></trkpt><trkpt lat="45.616271136049335" lon="10.730045115287826"><ele>397.99999999999994</ele><time>2026-03-28T12:10:58Z</time></trkpt><trkpt lat="45.61622631095522" lon="10.729926531665056"><ele>398.0</ele><time>2026-03-28T12:10:59Z</time></trkpt><trkpt lat="45.61615343285502" lon="10.729795225547411"><ele>398.0</ele><time>2026-03-28T12:11:00Z</time></trkpt><trkpt lat="45.61610787278655" lon="10.72973041143003"><ele>398.0</ele><time>2026-03-28T12:11:01Z</time></trkpt><trkpt lat="45.61605478585221" lon="10.729678649286475"><ele>397.99999999999994</ele><time>2026-03-28T12:11:02Z</time></trkpt><trkpt lat="45.61598065015432" lon="10.729634236437"><ele>398.0</ele><time>2026-03-28T12:11:03Z</time></trkpt><trkpt lat="45.6158678431905" lon="10.729593204073362"><ele>393.4</ele><time>2026-03-28T12:11:04Z</time></trkpt><trkpt lat="45.61573398865463" lon="10.72955706278463"><ele>388.79999999999995</ele><time>2026-03-28T12:11:05Z</time></trkpt><trkpt lat="45.61562455132079" lon="10.729534258369355"><ele>384.2</ele><time>2026-03-28T12:11:06Z</time></trkpt><trkpt lat="45.61553259087546" lon="10.729548978429536"><ele>379.6</ele><time>2026-03-28T12:11:07Z</time></trkpt><trkpt lat="45.61545207202114" lon="10.729591350881003"><ele>375.0</ele><time>2026-03-28T12:11:08.001Z</time></trkpt><trkpt lat="45.615355711963986" lon="10.729718327910476"><ele>372.6</ele><time>2026-03-28T12:11:10.001Z</time></trkpt><trkpt lat="45.61531578154616" lon="10.729819064629254"><ele>370.2</ele><time>2026-03-28T12:11:11.001Z</time></trkpt><trkpt lat="45.61530386317447" lon="10.729970373492112"><ele>367.79999999999995</ele><time>2026-03-28T12:11:12.001Z</time></trkpt><trkpt lat="45.6153002172504" lon="10.730107701385036"><ele>365.4</ele><time>2026-03-28T12:11:13.001Z</time></trkpt><trkpt lat="45.61530774178145" lon="10.730270435196745"><ele>363.0</ele><time>2026-03-28T12:11:14.001Z</time></trkpt><trkpt lat="45.61530641890663" lon="10.7304160038557"><ele>363.0</ele><time>2026-03-28T12:11:15.001Z</time></trkpt><trkpt lat="45.6152922580656" lon="10.7305187249296"><ele>363.0</ele><time>2026-03-28T12:11:16.001Z</time></trkpt><trkpt lat="45.615226638100694" lon="10.730630190550489"><ele>363.0</ele><time>2026-03-28T12:11:18.001Z</time></trkpt><trkpt lat="45.61515397830952" lon="10.730557869608553"><ele>363.0</ele><time>2026-03-28T12:11:20.001Z</time></trkpt><trkpt lat="45.615162342775584" lon="10.73046140192974"><ele>363.0</ele><time>2026-03-28T12:11:21.001Z</time></trkpt><trkpt lat="45.6151440319762" lon="10.73034157814903"><ele>363.0</ele><time>2026-03-28T12:11:22.001Z</time></trkpt><trkpt lat="45.61512444181255" lon="10.730196534619251"><ele>361.59999999999997</ele><time>2026-03-28T12:11:23.001Z</time></trkpt><trkpt lat="45.6150975717879" lon="10.730076250682762"><ele>360.2</ele><time>2026-03-28T12:11:24.001Z</time></trkpt><trkpt lat="45.615046410142334" lon="10.729983379062908"><ele>358.8</ele><time>2026-03-28T12:11:25.001Z</time></trkpt><trkpt lat="45.61496004186685" lon="10.72992258812555"><ele>357.4</ele><time>2026-03-28T12:11:26.001Z</time></trkpt><trkpt lat="45.61484462553586" lon="10.729875232142831"><ele>356.0</ele><time>2026-03-28T12:11:27.001Z</time></trkpt><trkpt lat="45.61470715906916" lon="10.729794064517888"><ele>356.0</ele><time>2026-03-28T12:11:28.001Z</time></trkpt><trkpt lat="45.614564350965054" lon="10.729683583285045"><ele>356.0</ele><time>2026-03-28T12:11:29.001Z</time></trkpt><trkpt lat="45.614423737639584" lon="10.729566103365016"><ele>356.0</ele><time>2026-03-28T12:11:30.001Z</time></trkpt><trkpt lat="45.61428045851092" lon="10.729444217684971"><ele>352.33333333333337</ele><time>2026-03-28T12:11:31.001Z</time></trkpt><trkpt lat="45.61413626553646" lon="10.729322293885211"><ele>348.6666666666667</ele><time>2026-03-28T12:11:32.001Z</time></trkpt><trkpt lat="45.613994161043244" lon="10.729210216905452"><ele>345.0</ele><time>2026-03-28T12:11:33.001Z</time></trkpt><trkpt lat="45.61388579654553" lon="10.729090688773502"><ele>345.0</ele><time>2026-03-28T12:11:34.001Z</time></trkpt><trkpt lat="45.613792553876856" lon="10.729019811982928"><ele>345.0</ele><time>2026-03-28T12:11:35.001Z</time></trkpt><trkpt lat="45.61372535667307" lon="10.728946311524416"><ele>345.0</ele><time>2026-03-28T12:11:36.001Z</time></trkpt><trkpt lat="45.61364348575524" lon="10.728856455288932"><ele>345.0</ele><time>2026-03-28T12:11:38.001Z</time></trkpt><trkpt lat="45.61369142187115" lon="10.72869185201612"><ele>345.0</ele><time>2026-03-28T12:11:40.002Z</time></trkpt><trkpt lat="45.61372660895435" lon="10.728540631449912"><ele>346.75</ele><time>2026-03-28T12:11:41.002Z</time></trkpt><trkpt lat="45.61382690390183" lon="10.728414216622989"><ele>348.5</ele><time>2026-03-28T12:11:42.002Z</time></trkpt><trkpt lat="45.613894622199005" lon="10.728267449570259"><ele>350.25</ele><time>2026-03-28T12:11:43.002Z</time></trkpt><trkpt lat="45.613945901341125" lon="10.728113685002242"><ele>352.0</ele><time>2026-03-28T12:11:44.002Z</time></trkpt><trkpt lat="45.613957624828394" lon="10.72797285258109"><ele>352.0</ele><time>2026-03-28T12:11:45.002Z</time></trkpt><trkpt lat="45.61392942215739" lon="10.727868516683927"><ele>352.0</ele><time>2026-03-28T12:11:46.002Z</time></trkpt><trkpt lat="45.61387630336286" lon="10.727770958854693"><ele>352.0</ele><time>2026-03-28T12:11:47.002Z</time></trkpt><trkpt lat="45.61379787206257" lon="10.727647889293007"><ele>352.0</ele><time>2026-03-28T12:11:48.002Z</time></trkpt><trkpt lat="45.61371284475837" lon="10.727562269628107"><ele>352.0</ele><time>2026-03-28T12:11:49.002Z</time></trkpt><trkpt lat="45.61361155244841" lon="10.727511443812864"><ele>352.75</ele><time>2026-03-28T12:11:50.002Z</time></trkpt><trkpt lat="45.61348648178783" lon="10.727480611788765"><ele>353.5</ele><time>2026-03-28T12:11:51.002Z</time></trkpt><trkpt lat="45.613365201614194" lon="10.727475639287857"><ele>354.25</ele><time>2026-03-28T12:11:52.002Z</time></trkpt><trkpt lat="45.61322240629763" lon="10.727506161927163"><ele>355.0</ele><time>2026-03-28T12:11:53.002Z</time></trkpt><trkpt lat="45.61310607073002" lon="10.72753410803764"><ele>355.0</ele><time>2026-03-28T12:11:54.002Z</time></trkpt><trkpt lat="45.61300347717247" lon="10.72751398709733"><ele>355.0</ele><time>2026-03-28T12:11:55.002Z</time></trkpt><trkpt lat="45.61291098456294" lon="10.727418755937324"><ele>355.0</ele><time>2026-03-28T12:11:56.002Z</time></trkpt><trkpt lat="45.61282141799406" lon="10.727335659265963"><ele>355.0</ele><time>2026-03-28T12:11:57.002Z</time></trkpt><trkpt lat="45.612732368961545" lon="10.727263967969579"><ele>355.0</ele><time>2026-03-28T12:11:58.002Z</time></trkpt><trkpt lat="45.61267376474981" lon="10.72716609295469"><ele>356.5</ele><time>2026-03-28T12:11:59.002Z</time></trkpt><trkpt lat="45.612638822858536" lon="10.727048939238175"><ele>358.0</ele><time>2026-03-28T12:12:00.002Z</time></trkpt><trkpt lat="45.61258328633178" lon="10.726924214514202"><ele>359.5</ele><time>2026-03-28T12:12:01.002Z</time></trkpt><trkpt lat="45.61250885480619" lon="10.726762340859409"><ele>361.0</ele><time>2026-03-28T12:12:02.002Z</time></trkpt><trkpt lat="45.612415613350336" lon="10.726621813387917"><ele>362.75</ele><time>2026-03-28T12:12:03.002Z</time></trkpt><trkpt lat="45.61230669499581" lon="10.72648287346388"><ele>364.5</ele><time>2026-03-28T12:12:04.002Z</time></trkpt><trkpt lat="45.6122087124023" lon="10.726342768085326"><ele>366.25</ele><time>2026-03-28T12:12:05.002Z</time></trkpt><trkpt lat="45.61213318020283" lon="10.726221319864374"><ele>368.0</ele><time>2026-03-28T12:12:06.002Z</time></trkpt><trkpt lat="45.612107189606284" lon="10.72611761411077"><ele>369.0</ele><time>2026-03-28T12:12:07.002Z</time></trkpt><trkpt lat="45.612101953100385" lon="10.725924262939067"><ele>370.0</ele><time>2026-03-28T12:12:09.002Z</time></trkpt><trkpt lat="45.61215603839279" lon="10.725827533046454"><ele>371.0</ele><time>2026-03-28T12:12:10.002Z</time></trkpt><trkpt lat="45.61226303535883" lon="10.725773159824994"><ele>372.0</ele><time>2026-03-28T12:12:11.002Z</time></trkpt><trkpt lat="45.612354488830654" lon="10.725685298686283"><ele>373.0</ele><time>2026-03-28T12:12:12.002Z</time></trkpt><trkpt lat="45.61242478502431" lon="10.725558566429752"><ele>373.0</ele><time>2026-03-28T12:12:13.003Z</time></trkpt><trkpt lat="45.61250156310562" lon="10.725436768563887"><ele>373.0</ele><time>2026-03-28T12:12:14.003Z</time></trkpt><trkpt lat="45.6126173438926" lon="10.72534347840349"><ele>373.0</ele><time>2026-03-28T12:12:15.003Z</time></trkpt><trkpt lat="45.612710508266716" lon="10.725209933803129"><ele>373.0</ele><time>2026-03-28T12:12:16.003Z</time></trkpt><trkpt lat="45.61279235648208" lon="10.725094619679872"><ele>372.0</ele><time>2026-03-28T12:12:17.003Z</time></trkpt><trkpt lat="45.61284594601164" lon="10.724987673824211"><ele>371.0</ele><time>2026-03-28T12:12:18.003Z</time></trkpt><trkpt lat="45.612869449889715" lon="10.724889961690954"><ele>370.0</ele><time>2026-03-28T12:12:19.003Z</time></trkpt><trkpt lat="45.61282850474102" lon="10.724738306678951"><ele>369.0</ele><time>2026-03-28T12:12:21.003Z</time></trkpt><trkpt lat="45.612752902441365" lon="10.724692553344308"><ele>368.0</ele><time>2026-03-28T12:12:22.003Z</time></trkpt><trkpt lat="45.61264451394247" lon="10.724655951734006"><ele>368.0</ele><time>2026-03-28T12:12:23.003Z</time></trkpt><trkpt lat="45.61250840993072" lon="10.724650007998166"><ele>368.0</ele><time>2026-03-28T12:12:24.003Z</time></trkpt><trkpt lat="45.61236759532147" lon="10.724660059728802"><ele>368.0</ele><time>2026-03-28T12:12:25.003Z</time></trkpt><trkpt lat="45.612219603975795" lon="10.724641300822672"><ele>368.0</ele><time>2026-03-28T12:12:26.003Z</time></trkpt><trkpt lat="45.61208092258847" lon="10.724673455602195"><ele>364.0</ele><time>2026-03-28T12:12:27.003Z</time></trkpt><trkpt lat="45.611954476611594" lon="10.724753262600325"><ele>360.0</ele><time>2026-03-28T12:12:28.003Z</time></trkpt><trkpt lat="45.611810072579" lon="10.724823299628374"><ele>356.0</ele><time>2026-03-28T12:12:29.003Z</time></trkpt><trkpt lat="45.61164446219505" lon="10.7248943758773"><ele>356.0</ele><time>2026-03-28T12:12:30.003Z</time></trkpt><trkpt lat="45.61150990731094" lon="10.72495940904746"><ele>356.0</ele><time>2026-03-28T12:12:31.003Z</time></trkpt><trkpt lat="45.61140148212262" lon="10.725011344635229"><ele>356.0</ele><time>2026-03-28T12:12:32.003Z</time></trkpt><trkpt lat="45.61132067061992" lon="10.725038562991033"><ele>356.0</ele><time>2026-03-28T12:12:33.003Z</time></trkpt><trkpt lat="45.61124485153848" lon="10.725007818613658"><ele>356.0</ele><time>2026-03-28T12:12:34.003Z</time></trkpt><trkpt lat="45.611150377832736" lon="10.7249982468198"><ele>354.0</ele><time>2026-03-28T12:12:35.003Z</time></trkpt><trkpt lat="45.611012087538974" lon="10.725116327108005"><ele>352.0</ele><time>2026-03-28T12:12:36.003Z</time></trkpt><trkpt lat="45.61085880606727" lon="10.725179521781797"><ele>350.0</ele><time>2026-03-28T12:12:37.003Z</time></trkpt><trkpt lat="45.610684505045505" lon="10.725213615676653"><ele>350.0</ele><time>2026-03-28T12:12:38.003Z</time></trkpt><trkpt lat="45.61050055496871" lon="10.725170033532596"><ele>350.0</ele><time>2026-03-28T12:12:39.003Z</time></trkpt><trkpt lat="45.610307258451876" lon="10.725154385586174"><ele>350.0</ele><time>2026-03-28T12:12:40Z</time></trkpt><trkpt lat="45.61011962021964" lon="10.725109387096571"><ele>347.6666666666667</ele><time>2026-03-28T12:12:41Z</time></trkpt><trkpt lat="45.609926012370565" lon="10.725086202059195"><ele>345.3333333333333</ele><time>2026-03-28T12:12:42Z</time></trkpt><trkpt lat="45.609721654844215" lon="10.725089077667967"><ele>343.0</ele><time>2026-03-28T12:12:43Z</time></trkpt><trkpt lat="45.6095179941671" lon="10.725118894084648"><ele>341.0</ele><time>2026-03-28T12:12:44Z</time></trkpt><trkpt lat="45.609323944597925" lon="10.725155479062064"><ele>339.0</ele><time>2026-03-28T12:12:45Z</time></trkpt><trkpt lat="45.60913562411441" lon="10.725182425460403"><ele>337.0</ele><time>2026-03-28T12:12:46Z</time></trkpt><trkpt lat="45.60895947224736" lon="10.725204905047834"><ele>337.0</ele><time>2026-03-28T12:12:47Z</time></trkpt><trkpt lat="45.60880234815421" lon="10.725219180399503"><ele>337.0</ele><time>2026-03-28T12:12:48Z</time></trkpt><trkpt lat="45.60866133005677" lon="10.725236642943232"><ele>337.0</ele><time>2026-03-28T12:12:49Z</time></trkpt><trkpt lat="45.608537556513134" lon="10.725259725211071"><ele>337.0</ele><time>2026-03-28T12:12:50Z</time></trkpt><trkpt lat="45.60844600406632" lon="10.725323894394817"><ele>336.40000000000003</ele><time>2026-03-28T12:12:51Z</time></trkpt><trkpt lat="45.60839606276267" lon="10.72543656585077"><ele>335.8</ele><time>2026-03-28T12:12:52Z</time></trkpt><trkpt lat="45.60840360470747" lon="10.725574109862688"><ele>335.2</ele><time>2026-03-28T12:12:53Z</time></trkpt><trkpt lat="45.60845972961218" lon="10.725700278183721"><ele>334.6</ele><time>2026-03-28T12:12:54Z</time></trkpt><trkpt lat="45.608585523130685" lon="10.72578223901518"><ele>334.0</ele><time>2026-03-28T12:12:55Z</time></trkpt><trkpt lat="45.60868007194516" lon="10.72577900045662"><ele>334.0</ele><time>2026-03-28T12:12:56Z</time></trkpt><trkpt lat="45.60877084721378" lon="10.725710229564244"><ele>334.0</ele><time>2026-03-28T12:12:57Z</time></trkpt><trkpt lat="45.60887356532845" lon="10.72562647285883"><ele>334.0</ele><time>2026-03-28T12:12:58Z</time></trkpt><trkpt lat="45.60894026443519" lon="10.72557503596094"><ele>334.0</ele><time>2026-03-28T12:12:59Z</time></trkpt><trkpt lat="45.608987822256736" lon="10.725689657414657"><ele>334.0</ele><time>2026-03-28T12:13:01Z</time></trkpt><trkpt lat="45.60896161204674" lon="10.725777175482895"><ele>334.0</ele><time>2026-03-28T12:13:02Z</time></trkpt><trkpt lat="45.60884850619034" lon="10.72581552467759"><ele>334.0</ele><time>2026-03-28T12:13:03Z</time></trkpt><trkpt lat="45.608728927213775" lon="10.725896172296903"><ele>334.0</ele><time>2026-03-28T12:13:04Z</time></trkpt><trkpt lat="45.60858681988111" lon="10.725967924413759"><ele>334.0</ele><time>2026-03-28T12:13:05Z</time></trkpt><trkpt lat="45.6084489870036" lon="10.726042710965306"><ele>330.3333333333333</ele><time>2026-03-28T12:13:06Z</time></trkpt><trkpt lat="45.60831300832998" lon="10.726124947705324"><ele>326.6666666666667</ele><time>2026-03-28T12:13:07Z</time></trkpt><trkpt lat="45.60816612235178" lon="10.726199976396623"><ele>323.0</ele><time>2026-03-28T12:13:08.001Z</time></trkpt><trkpt lat="45.608008207634875" lon="10.726257083328113"><ele>323.0</ele><time>2026-03-28T12:13:09.001Z</time></trkpt><trkpt lat="45.6078327960687" lon="10.726294252096514"><ele>323.0</ele><time>2026-03-28T12:13:10.001Z</time></trkpt><trkpt lat="45.607646509687164" lon="10.726309320761633"><ele>323.0</ele><time>2026-03-28T12:13:11.001Z</time></trkpt><trkpt lat="45.60746557584638" lon="10.7263093432469"><ele>321.6666666666667</ele><time>2026-03-28T12:13:12.001Z</time></trkpt><trkpt lat="45.60730239584548" lon="10.726312966239488"><ele>320.3333333333333</ele><time>2026-03-28T12:13:13.001Z</time></trkpt><trkpt lat="45.60714712194939" lon="10.726336961689285"><ele>319.0</ele><time>2026-03-28T12:13:14.001Z</time></trkpt><trkpt lat="45.6070087371159" lon="10.726393359460115"><ele>318.59999999999997</ele><time>2026-03-28T12:13:15.001Z</time></trkpt><trkpt lat="45.60688415945441" lon="10.72648183857199"><ele>318.2</ele><time>2026-03-28T12:13:16.001Z</time></trkpt><trkpt lat="45.60678020202145" lon="10.726579407249057"><ele>317.79999999999995</ele><time>2026-03-28T12:13:17.001Z</time></trkpt><trkpt lat="45.60671324711666" lon="10.726662246542698"><ele>317.4</ele><time>2026-03-28T12:13:18.001Z</time></trkpt><trkpt lat="45.60664403176424" lon="10.726754564976089"><ele>317.0</ele><time>2026-03-28T12:13:20.001Z</time></trkpt><trkpt lat="45.606543415327806" lon="10.726800646060264"><ele>317.0</ele><time>2026-03-28T12:13:23.001Z</time></trkpt><trkpt lat="45.60653472619031" lon="10.726502366594698"><ele>317.0</ele><time>2026-03-28T12:13:25.001Z</time></trkpt><trkpt lat="45.60652456122733" lon="10.726344424813414"><ele>317.0</ele><time>2026-03-28T12:13:26.001Z</time></trkpt><trkpt lat="45.60650088466469" lon="10.72621952604255"><ele>317.0</ele><time>2026-03-28T12:13:27.001Z</time></trkpt><trkpt lat="45.60648404997726" lon="10.726050718630948"><ele>316.33333333333337</ele><time>2026-03-28T12:13:28.001Z</time></trkpt><trkpt lat="45.60645504400544" lon="10.725843266857977"><ele>315.6666666666667</ele><time>2026-03-28T12:13:29.001Z</time></trkpt><trkpt lat="45.606444080676965" lon="10.72562992747255"><ele>315.0</ele><time>2026-03-28T12:13:30.001Z</time></trkpt><trkpt lat="45.60645423684351" lon="10.725411654081297"><ele>313.75</ele><time>2026-03-28T12:13:31.001Z</time></trkpt><trkpt lat="45.60648229750439" lon="10.725197198731001"><ele>312.5</ele><time>2026-03-28T12:13:32.001Z</time></trkpt><trkpt lat="45.606527626879576" lon="10.725011903740196"><ele>311.25</ele><time>2026-03-28T12:13:33.001Z</time></trkpt><trkpt lat="45.60659130096243" lon="10.724825897403731"><ele>310.0</ele><time>2026-03-28T12:13:34.001Z</time></trkpt><trkpt lat="45.606673416547096" lon="10.724624422244714"><ele>310.0</ele><time>2026-03-28T12:13:35.001Z</time></trkpt><trkpt lat="45.606764688981634" lon="10.72443084964929"><ele>310.0</ele><time>2026-03-28T12:13:36.001Z</time></trkpt><trkpt lat="45.60684265958319" lon="10.7242451063657"><ele>310.0</ele><time>2026-03-28T12:13:37.001Z</time></trkpt><trkpt lat="45.60690353231252" lon="10.724077965199681"><ele>310.0</ele><time>2026-03-28T12:13:38.001Z</time></trkpt><trkpt lat="45.60693113261042" lon="10.723930823520147"><ele>308.6</ele><time>2026-03-28T12:13:39.001Z</time></trkpt><trkpt lat="45.606955812924774" lon="10.723793613813806"><ele>307.2</ele><time>2026-03-28T12:13:40.001Z</time></trkpt><trkpt lat="45.60688298691676" lon="10.723658829884618"><ele>305.8</ele><time>2026-03-28T12:13:41.001Z</time></trkpt><trkpt lat="45.60686025381316" lon="10.72355832670996"><ele>304.4</ele><time>2026-03-28T12:13:42.001Z</time></trkpt><trkpt lat="45.606845899143906" lon="10.723466439305065"><ele>303.0</ele><time>2026-03-28T12:13:43.002Z</time></trkpt><trkpt lat="45.60680348342453" lon="10.72329182407686"><ele>302.75</ele><time>2026-03-28T12:13:45.002Z</time></trkpt><trkpt lat="45.60679878831829" lon="10.72312096797847"><ele>302.5</ele><time>2026-03-28T12:13:46.002Z</time></trkpt><trkpt lat="45.60678919756589" lon="10.722949433792829"><ele>302.25</ele><time>2026-03-28T12:13:47.002Z</time></trkpt><trkpt lat="45.60672275024849" lon="10.722803832799595"><ele>302.0</ele><time>2026-03-28T12:13:48.002Z</time></trkpt><trkpt lat="45.60658224456035" lon="10.722729052114056"><ele>305.33333333333337</ele><time>2026-03-28T12:13:49.002Z</time></trkpt><trkpt lat="45.60642502476659" lon="10.722628070383193"><ele>308.6666666666667</ele><time>2026-03-28T12:13:50.002Z</time></trkpt><trkpt lat="45.60623880340932" lon="10.722543946078401"><ele>312.0</ele><time>2026-03-28T12:13:51.002Z</time></trkpt><trkpt lat="45.60603470719231" lon="10.722504844225321"><ele>313.0</ele><time>2026-03-28T12:13:52.002Z</time></trkpt><trkpt lat="45.60582497259263" lon="10.722466055444578"><ele>314.0</ele><time>2026-03-28T12:13:53.002Z</time></trkpt><trkpt lat="45.60563721548289" lon="10.722424079807114"><ele>315.0</ele><time>2026-03-28T12:13:54.002Z</time></trkpt><trkpt lat="45.60550008511895" lon="10.722327841622686"><ele>315.0</ele><time>2026-03-28T12:13:55.002Z</time></trkpt><trkpt lat="45.60540158692344" lon="10.72229199857424"><ele>315.0</ele><time>2026-03-28T12:13:56.002Z</time></trkpt><trkpt lat="45.60534110459586" lon="10.722254141291826"><ele>315.0</ele><time>2026-03-28T12:13:57.002Z</time></trkpt><trkpt lat="45.60529551049131" lon="10.722182362908098"><ele>315.0</ele><time>2026-03-28T12:13:58.002Z</time></trkpt><trkpt lat="45.60529755209191" lon="10.722019996174007"><ele>315.0</ele><time>2026-03-28T12:13:59.002Z</time></trkpt><trkpt lat="45.605259616426395" lon="10.721886531493636"><ele>316.2</ele><time>2026-03-28T12:14:00.002Z</time></trkpt><trkpt lat="45.60526717915618" lon="10.721789193686075"><ele>317.4</ele><time>2026-03-28T12:14:01.002Z</time></trkpt><trkpt lat="45.60532000364429" lon="10.721691371325182"><ele>318.6</ele><time>2026-03-28T12:14:02.002Z</time></trkpt><trkpt lat="45.60541257246958" lon="10.721586080423203"><ele>319.8</ele><time>2026-03-28T12:14:03.002Z</time></trkpt><trkpt lat="45.605492828929776" lon="10.721432485254892"><ele>321.0</ele><time>2026-03-28T12:14:04.002Z</time></trkpt><trkpt lat="45.6055973257877" lon="10.72132932169885"><ele>322.75</ele><time>2026-03-28T12:14:05.002Z</time></trkpt><trkpt lat="45.60571138426608" lon="10.721275818485307"><ele>324.5</ele><time>2026-03-28T12:14:06.002Z</time></trkpt><trkpt lat="45.60582673923365" lon="10.721258504965279"><ele>326.25</ele><time>2026-03-28T12:14:07.002Z</time></trkpt><trkpt lat="45.605945977178756" lon="10.721203337635616"><ele>328.0</ele><time>2026-03-28T12:14:08.002Z</time></trkpt><trkpt lat="45.60603373147534" lon="10.721114717451421"><ele>328.25</ele><time>2026-03-28T12:14:09.002Z</time></trkpt><trkpt lat="45.60608810113374" lon="10.720987792280388"><ele>328.5</ele><time>2026-03-28T12:14:10.002Z</time></trkpt><trkpt lat="45.60612638273409" lon="10.720823960498409"><ele>328.75</ele><time>2026-03-28T12:14:11.002Z</time></trkpt><trkpt lat="45.606156670677485" lon="10.720645578656619"><ele>329.0</ele><time>2026-03-28T12:14:12.002Z</time></trkpt><trkpt lat="45.60621217183063" lon="10.720479374651292"><ele>330.75</ele><time>2026-03-28T12:14:13.002Z</time></trkpt><trkpt lat="45.60629003395549" lon="10.720345676299168"><ele>332.5</ele><time>2026-03-28T12:14:14.002Z</time></trkpt><trkpt lat="45.606381042509355" lon="10.720241684004995"><ele>334.25</ele><time>2026-03-28T12:14:15.002Z</time></trkpt><trkpt lat="45.606470233726526" lon="10.720157541399589"><ele>336.0</ele><time>2026-03-28T12:14:16.002Z</time></trkpt><trkpt lat="45.60656478913624" lon="10.720056186187557"><ele>337.20000000000005</ele><time>2026-03-28T12:14:17.003Z</time></trkpt><trkpt lat="45.60665982603092" lon="10.719958636409403"><ele>338.40000000000003</ele><time>2026-03-28T12:14:18.003Z</time></trkpt><trkpt lat="45.606729093751625" lon="10.7198792819093"><ele>339.6</ele><time>2026-03-28T12:14:19.003Z</time></trkpt><trkpt lat="45.60676056073556" lon="10.719790643781478"><ele>340.8</ele><time>2026-03-28T12:14:20.003Z</time></trkpt><trkpt lat="45.60678445748172" lon="10.71967529822244"><ele>342.0</ele><time>2026-03-28T12:14:21.003Z</time></trkpt><trkpt lat="45.60673777662553" lon="10.719515980420711"><ele>342.8</ele><time>2026-03-28T12:14:22.003Z</time></trkpt><trkpt lat="45.60668916125258" lon="10.719383442532784"><ele>343.6</ele><time>2026-03-28T12:14:23.003Z</time></trkpt><trkpt lat="45.60664414096952" lon="10.719295150955087"><ele>344.40000000000003</ele><time>2026-03-28T12:14:24.003Z</time></trkpt><trkpt lat="45.60662485001596" lon="10.719199787302841"><ele>345.20000000000005</ele><time>2026-03-28T12:14:25.003Z</time></trkpt><trkpt lat="45.60662991318961" lon="10.719066843329673"><ele>346.0</ele><time>2026-03-28T12:14:27.003Z</time></trkpt><trkpt lat="45.60696132478182" lon="10.718861310680852"><ele>350.0</ele><time>2026-03-28T12:14:29.003Z</time></trkpt><trkpt lat="45.607084924059976" lon="10.71874598215942"><ele>354.0</ele><time>2026-03-28T12:14:30.003Z</time></trkpt><trkpt lat="45.60721076382736" lon="10.718647499549792"><ele>358.0</ele><time>2026-03-28T12:14:31.003Z</time></trkpt><trkpt lat="45.60731135658596" lon="10.718558751680881"><ele>362.0</ele><time>2026-03-28T12:14:32.003Z</time></trkpt><trkpt lat="45.60737165143179" lon="10.71845546080132"><ele>362.25</ele><time>2026-03-28T12:14:33.003Z</time></trkpt><trkpt lat="45.60739993609616" lon="10.718320231015921"><ele>362.5</ele><time>2026-03-28T12:14:35.003Z</time></trkpt><trkpt lat="45.60737769212632" lon="10.718106732326364"><ele>362.75</ele><time>2026-03-28T12:14:37.003Z</time></trkpt><trkpt lat="45.607355930587964" lon="10.717935678017714"><ele>363.0</ele><time>2026-03-28T12:14:38.003Z</time></trkpt><trkpt lat="45.607326731692446" lon="10.717771642471327"><ele>362.59999999999997</ele><time>2026-03-28T12:14:39.003Z</time></trkpt><trkpt lat="45.607291128564114" lon="10.717601800081724"><ele>362.2</ele><time>2026-03-28T12:14:40.003Z</time></trkpt><trkpt lat="45.607258994453055" lon="10.7174560914398"><ele>361.8</ele><time>2026-03-28T12:14:41.003Z</time></trkpt><trkpt lat="45.60723812787998" lon="10.71733922850098"><ele>361.4</ele><time>2026-03-28T12:14:42.003Z</time></trkpt><trkpt lat="45.60722079163428" lon="10.717217687316598"><ele>361.0</ele><time>2026-03-28T12:14:43.003Z</time></trkpt><trkpt lat="45.60725994935988" lon="10.717059100004207"><ele>361.0</ele><time>2026-03-28T12:14:45.003Z</time></trkpt><trkpt lat="45.60736088723716" lon="10.717071632720993"><ele>361.0</ele><time>2026-03-28T12:14:47Z</time></trkpt><trkpt lat="45.60742246495206" lon="10.71711607490772"><ele>361.0</ele><time>2026-03-28T12:14:48Z</time></trkpt><trkpt lat="45.607501569235076" lon="10.717084780355876"><ele>361.0</ele><time>2026-03-28T12:14:50Z</time></trkpt><trkpt lat="45.60758172600338" lon="10.717089597253239"><ele>361.0</ele><time>2026-03-28T12:14:52Z</time></trkpt><trkpt lat="45.60768767050901" lon="10.717096852858964"><ele>361.0</ele><time>2026-03-28T12:14:53Z</time></trkpt><trkpt lat="45.60780427057299" lon="10.717110857321101"><ele>364.5</ele><time>2026-03-28T12:14:54Z</time></trkpt><trkpt lat="45.60792121433799" lon="10.717116062972424"><ele>368.0</ele><time>2026-03-28T12:14:55Z</time></trkpt><trkpt lat="45.60803996108016" lon="10.717112469460327"><ele>371.5</ele><time>2026-03-28T12:14:56Z</time></trkpt><trkpt lat="45.6081581866318" lon="10.717116643526486"><ele>375.0</ele><time>2026-03-28T12:14:57Z</time></trkpt><trkpt lat="45.60825808964021" lon="10.717118565510265"><ele>375.0</ele><time>2026-03-28T12:14:58Z</time></trkpt><trkpt lat="45.60836387173009" lon="10.717124145209793"><ele>375.0</ele><time>2026-03-28T12:14:59Z</time></trkpt><trkpt lat="45.60845111477027" lon="10.71714713447564"><ele>375.0</ele><time>2026-03-28T12:15:00Z</time></trkpt><trkpt lat="45.60854160030273" lon="10.717179535806515"><ele>375.0</ele><time>2026-03-28T12:15:01Z</time></trkpt><trkpt lat="45.60862123914486" lon="10.71717928441988"><ele>375.0</ele><time>2026-03-28T12:15:02Z</time></trkpt><trkpt lat="45.608704170219966" lon="10.717130217006046"><ele>376.25</ele><time>2026-03-28T12:15:03Z</time></trkpt><trkpt lat="45.60878085607414" lon="10.717048273709947"><ele>377.5</ele><time>2026-03-28T12:15:04Z</time></trkpt><trkpt lat="45.608895780969455" lon="10.716962147756742"><ele>378.75</ele><time>2026-03-28T12:15:05Z</time></trkpt><trkpt lat="45.60901668056244" lon="10.716888148475668"><ele>380.0</ele><time>2026-03-28T12:15:06Z</time></trkpt><trkpt lat="45.60914312278626" lon="10.71681538226473"><ele>380.0</ele><time>2026-03-28T12:15:07Z</time></trkpt><trkpt lat="45.609272741211285" lon="10.716775442992803"><ele>380.0</ele><time>2026-03-28T12:15:08Z</time></trkpt><trkpt lat="45.609397781864274" lon="10.716747639320877"><ele>380.0</ele><time>2026-03-28T12:15:09Z</time></trkpt><trkpt lat="45.60952348310212" lon="10.716705583734736"><ele>380.0</ele><time>2026-03-28T12:15:10Z</time></trkpt><trkpt lat="45.609660291244786" lon="10.716659413406877"><ele>384.25</ele><time>2026-03-28T12:15:11Z</time></trkpt><trkpt lat="45.60980378111266" lon="10.716625848514102"><ele>388.5</ele><time>2026-03-28T12:15:12Z</time></trkpt><trkpt lat="45.60994749263144" lon="10.716600675073972"><ele>392.75</ele><time>2026-03-28T12:15:13Z</time></trkpt><trkpt lat="45.6100906432864" lon="10.716555481607797"><ele>397.0</ele><time>2026-03-28T12:15:14.001Z</time></trkpt><trkpt lat="45.61023448233063" lon="10.716490089495645"><ele>400.33333333333337</ele><time>2026-03-28T12:15:15.001Z</time></trkpt><trkpt lat="45.61038830624619" lon="10.716417465879994"><ele>403.66666666666663</ele><time>2026-03-28T12:15:16.001Z</time></trkpt><trkpt lat="45.61052646653301" lon="10.716356996665175"><ele>407.0</ele><time>2026-03-28T12:15:17.001Z</time></trkpt><trkpt lat="45.61066789431057" lon="10.716305950974098"><ele>407.0</ele><time>2026-03-28T12:15:18.001Z</time></trkpt><trkpt lat="45.61081887730511" lon="10.716264995944659"><ele>407.0</ele><time>2026-03-28T12:15:19.001Z</time></trkpt><trkpt lat="45.61097335404486" lon="10.716224716366465"><ele>407.0</ele><time>2026-03-28T12:15:20.001Z</time></trkpt><trkpt lat="45.611125864875866" lon="10.716182783116407"><ele>409.25</ele><time>2026-03-28T12:15:21.001Z</time></trkpt><trkpt lat="45.611280033471715" lon="10.71613134554856"><ele>411.5</ele><time>2026-03-28T12:15:22.001Z</time></trkpt><trkpt lat="45.6114159565559" lon="10.716070239963031"><ele>413.75</ele><time>2026-03-28T12:15:23.001Z</time></trkpt><trkpt lat="45.61153453406116" lon="10.716011890096715"><ele>416.0</ele><time>2026-03-28T12:15:24.001Z</time></trkpt><trkpt lat="45.61164299936907" lon="10.715958491878482"><ele>412.0</ele><time>2026-03-28T12:15:25.001Z</time></trkpt><trkpt lat="45.61175657657479" lon="10.71591211387777"><ele>408.0</ele><time>2026-03-28T12:15:26.001Z</time></trkpt><trkpt lat="45.611881203515864" lon="10.715868139988313"><ele>404.0</ele><time>2026-03-28T12:15:27.001Z</time></trkpt><trkpt lat="45.61198866573881" lon="10.715829214854002"><ele>400.0</ele><time>2026-03-28T12:15:28.001Z</time></trkpt><trkpt lat="45.612068146187084" lon="10.715801969483696"><ele>396.0</ele><time>2026-03-28T12:15:29.001Z</time></trkpt><trkpt lat="45.61214899140086" lon="10.715806251572172"><ele>395.5</ele><time>2026-03-28T12:15:30.001Z</time></trkpt><trkpt lat="45.61225369944167" lon="10.715863132623161"><ele>395.0</ele><time>2026-03-28T12:15:31.001Z</time></trkpt><trkpt lat="45.612376652682656" lon="10.71593826422373"><ele>394.5</ele><time>2026-03-28T12:15:32.001Z</time></trkpt><trkpt lat="45.612486307449466" lon="10.715983017796304"><ele>394.0</ele><time>2026-03-28T12:15:33.001Z</time></trkpt><trkpt lat="45.61259148145199" lon="10.715994538634966"><ele>394.0</ele><time>2026-03-28T12:15:34.001Z</time></trkpt><trkpt lat="45.61268903051225" lon="10.715957242452946"><ele>394.0</ele><time>2026-03-28T12:15:35.001Z</time></trkpt><trkpt lat="45.61279467971128" lon="10.715903533407879"><ele>394.0</ele><time>2026-03-28T12:15:36.001Z</time></trkpt><trkpt lat="45.61287870804612" lon="10.715914342272574"><ele>394.0</ele><time>2026-03-28T12:15:37.001Z</time></trkpt><trkpt lat="45.61294337942293" lon="10.71596970703938"><ele>394.0</ele><time>2026-03-28T12:15:38.001Z</time></trkpt><trkpt lat="45.61299921647714" lon="10.716064732303183"><ele>393.0</ele><time>2026-03-28T12:15:39.001Z</time></trkpt><trkpt lat="45.61305656756205" lon="10.716165040511072"><ele>392.0</ele><time>2026-03-28T12:15:40.001Z</time></trkpt><trkpt lat="45.613189917895845" lon="10.71617306802901"><ele>391.0</ele><time>2026-03-28T12:15:42.001Z</time></trkpt><trkpt lat="45.61330221370761" lon="10.716120137820516"><ele>390.0</ele><time>2026-03-28T12:15:43.001Z</time></trkpt><trkpt lat="45.61343701323798" lon="10.716048481404304"><ele>390.0</ele><time>2026-03-28T12:15:44.001Z</time></trkpt><trkpt lat="45.613539588094596" lon="10.715994283786607"><ele>390.0</ele><time>2026-03-28T12:15:45.001Z</time></trkpt><trkpt lat="45.6136319829196" lon="10.71598791404807"><ele>390.0</ele><time>2026-03-28T12:15:46.001Z</time></trkpt><trkpt lat="45.613731029016776" lon="10.716009720330852"><ele>390.0</ele><time>2026-03-28T12:15:47.001Z</time></trkpt><trkpt lat="45.613855854334766" lon="10.716055365659622"><ele>390.0</ele><time>2026-03-28T12:15:48.001Z</time></trkpt><trkpt lat="45.61396637751736" lon="10.716089429649399"><ele>392.0</ele><time>2026-03-28T12:15:49.001Z</time></trkpt><trkpt lat="45.61406989827582" lon="10.716130969652374"><ele>394.0</ele><time>2026-03-28T12:15:50.001Z</time></trkpt><trkpt lat="45.61415109153814" lon="10.716180636095899"><ele>396.0</ele><time>2026-03-28T12:15:51.001Z</time></trkpt><trkpt lat="45.61427050207971" lon="10.716180122277175"><ele>398.0</ele><time>2026-03-28T12:15:53.002Z</time></trkpt><trkpt lat="45.61435863253421" lon="10.716143539626108"><ele>400.0</ele><time>2026-03-28T12:15:54.002Z</time></trkpt><trkpt lat="45.61448117179693" lon="10.716091948887362"><ele>397.75</ele><time>2026-03-28T12:15:55.002Z</time></trkpt><trkpt lat="45.61460702720181" lon="10.71603458843277"><ele>395.5</ele><time>2026-03-28T12:15:56.002Z</time></trkpt><trkpt lat="45.61471950471246" lon="10.715981062176166"><ele>393.25</ele><time>2026-03-28T12:15:57.002Z</time></trkpt><trkpt lat="45.614817318309605" lon="10.715929174296356"><ele>391.0</ele><time>2026-03-28T12:15:58.002Z</time></trkpt><trkpt lat="45.61490790195567" lon="10.71582918031995"><ele>391.0</ele><time>2026-03-28T12:15:59.002Z</time></trkpt><trkpt lat="45.61501729344304" lon="10.71569102195633"><ele>391.0</ele><time>2026-03-28T12:16:00.002Z</time></trkpt><trkpt lat="45.61511840598867" lon="10.715587537679856"><ele>391.0</ele><time>2026-03-28T12:16:01.002Z</time></trkpt><trkpt lat="45.61519768501495" lon="10.715533783297468"><ele>391.0</ele><time>2026-03-28T12:16:02.002Z</time></trkpt><trkpt lat="45.615283283366956" lon="10.715498954791201"><ele>391.0</ele><time>2026-03-28T12:16:03.002Z</time></trkpt><trkpt lat="45.61539447302797" lon="10.715450110350114"><ele>392.20000000000005</ele><time>2026-03-28T12:16:04.002Z</time></trkpt><trkpt lat="45.615486915323544" lon="10.715374325913475"><ele>393.40000000000003</ele><time>2026-03-28T12:16:05.002Z</time></trkpt><trkpt lat="45.61558711443933" lon="10.715268590885872"><ele>394.6</ele><time>2026-03-28T12:16:06.002Z</time></trkpt><trkpt lat="45.615651797380366" lon="10.71517304691646"><ele>395.8</ele><time>2026-03-28T12:16:07.002Z</time></trkpt><trkpt lat="45.615714558422404" lon="10.715059766238829"><ele>397.0</ele><time>2026-03-28T12:16:08.002Z</time></trkpt><trkpt lat="45.61575500294967" lon="10.714949179910459"><ele>397.6</ele><time>2026-03-28T12:16:09.002Z</time></trkpt><trkpt lat="45.615807110370746" lon="10.71482378304076"><ele>398.20000000000005</ele><time>2026-03-28T12:16:10.002Z</time></trkpt><trkpt lat="45.61586262033662" lon="10.714719364740116"><ele>398.8</ele><time>2026-03-28T12:16:11.002Z</time></trkpt><trkpt lat="45.61593924032469" lon="10.71464331410663"><ele>399.4</ele><time>2026-03-28T12:16:12.002Z</time></trkpt><trkpt lat="45.61601800422956" lon="10.7145876554239"><ele>400.0</ele><time>2026-03-28T12:16:13.002Z</time></trkpt><trkpt lat="45.61611170836219" lon="10.71454707798984"><ele>401.8</ele><time>2026-03-28T12:16:14.002Z</time></trkpt><trkpt lat="45.61620537371276" lon="10.714504667183341"><ele>403.6</ele><time>2026-03-28T12:16:15.002Z</time></trkpt><trkpt lat="45.61629873825666" lon="10.714441135683275"><ele>405.4</ele><time>2026-03-28T12:16:16.002Z</time></trkpt><trkpt lat="45.616405076986844" lon="10.714384198076216"><ele>407.2</ele><time>2026-03-28T12:16:17.002Z</time></trkpt><trkpt lat="45.61651731863855" lon="10.714345806766694"><ele>409.0</ele><time>2026-03-28T12:16:18.002Z</time></trkpt><trkpt lat="45.61661801436293" lon="10.714335357869137"><ele>409.0</ele><time>2026-03-28T12:16:19.002Z</time></trkpt><trkpt lat="45.6167003589814" lon="10.714365896042661"><ele>409.0</ele><time>2026-03-28T12:16:20.002Z</time></trkpt><trkpt lat="45.6167976434262" lon="10.71441365241992"><ele>409.0</ele><time>2026-03-28T12:16:21.002Z</time></trkpt><trkpt lat="45.61688973242031" lon="10.714451062681654"><ele>409.0</ele><time>2026-03-28T12:16:22.002Z</time></trkpt><trkpt lat="45.61695420094677" lon="10.714479427796068"><ele>409.0</ele><time>2026-03-28T12:16:23.002Z</time></trkpt><trkpt lat="45.61711041559524" lon="10.714435253656923"><ele>413.75</ele><time>2026-03-28T12:16:25.002Z</time></trkpt><trkpt lat="45.61723188959045" lon="10.71441469488336"><ele>418.5</ele><time>2026-03-28T12:16:26.002Z</time></trkpt><trkpt lat="45.61735222928005" lon="10.714411977360841"><ele>423.25</ele><time>2026-03-28T12:16:27.002Z</time></trkpt><trkpt lat="45.617467734129534" lon="10.714406736678033"><ele>428.0</ele><time>2026-03-28T12:16:28.002Z</time></trkpt><trkpt lat="45.61758428945484" lon="10.71440548535536"><ele>428.0</ele><time>2026-03-28T12:16:29.003Z</time></trkpt><trkpt lat="45.61769394803366" lon="10.714416829450712"><ele>427.99999999999994</ele><time>2026-03-28T12:16:30.003Z</time></trkpt><trkpt lat="45.617780734182986" lon="10.714451278452085"><ele>427.99999999999994</ele><time>2026-03-28T12:16:31.003Z</time></trkpt><trkpt lat="45.6178656293882" lon="10.714466297216758"><ele>428.0</ele><time>2026-03-28T12:16:32.003Z</time></trkpt><trkpt lat="45.617959495933036" lon="10.714434889091866"><ele>428.0</ele><time>2026-03-28T12:16:33.003Z</time></trkpt><trkpt lat="45.618064376417074" lon="10.71438006123586"><ele>428.59999999999997</ele><time>2026-03-28T12:16:34.003Z</time></trkpt><trkpt lat="45.61814069368013" lon="10.71429579374276"><ele>429.19999999999993</ele><time>2026-03-28T12:16:36.003Z</time></trkpt><trkpt lat="45.61809916392213" lon="10.71410517780137"><ele>429.8</ele><time>2026-03-28T12:16:38.003Z</time></trkpt><trkpt lat="45.61805709606908" lon="10.71400048790161"><ele>430.4</ele><time>2026-03-28T12:16:39.003Z</time></trkpt><trkpt lat="45.61807613389343" lon="10.7138649169384"><ele>431.0</ele><time>2026-03-28T12:16:41.003Z</time></trkpt><trkpt lat="45.61811796880831" lon="10.713681635545193"><ele>429.16666666666663</ele><time>2026-03-28T12:16:44.003Z</time></trkpt><trkpt lat="45.618127407858125" lon="10.713526902913465"><ele>427.3333333333333</ele><time>2026-03-28T12:16:45.003Z</time></trkpt><trkpt lat="45.61814588611472" lon="10.713418045094766"><ele>425.5</ele><time>2026-03-28T12:16:46.003Z</time></trkpt><trkpt lat="45.61818116679807" lon="10.71331169330397"><ele>423.66666666666663</ele><time>2026-03-28T12:16:48.003Z</time></trkpt><trkpt lat="45.61825626945174" lon="10.713240235473343"><ele>421.8333333333333</ele><time>2026-03-28T12:16:50.003Z</time></trkpt><trkpt lat="45.61833409229304" lon="10.713213710031152"><ele>420.0</ele><time>2026-03-28T12:16:51.003Z</time></trkpt><trkpt lat="45.61842221180595" lon="10.713212899742393"><ele>420.0</ele><time>2026-03-28T12:16:52Z</time></trkpt><trkpt lat="45.61852217252948" lon="10.713206565033468"><ele>420.0</ele><time>2026-03-28T12:16:53Z</time></trkpt><trkpt lat="45.618631134090386" lon="10.713170428705558"><ele>420.0</ele><time>2026-03-28T12:16:54Z</time></trkpt><trkpt lat="45.61875050250181" lon="10.713126117230875"><ele>420.0</ele><time>2026-03-28T12:16:55Z</time></trkpt><trkpt lat="45.618856488953924" lon="10.713100270181734"><ele>420.0</ele><time>2026-03-28T12:16:56Z</time></trkpt><trkpt lat="45.61892345561119" lon="10.713093966310206"><ele>420.0</ele><time>2026-03-28T12:16:57Z</time></trkpt><trkpt lat="45.61894519756324" lon="10.71319388312052"><ele>420.0</ele><time>2026-03-28T12:16:59Z</time></trkpt><trkpt lat="45.61882322334364" lon="10.713258329705736"><ele>420.0</ele><time>2026-03-28T12:17:01Z</time></trkpt><trkpt lat="45.61871538128721" lon="10.713283090142802"><ele>420.0</ele><time>2026-03-28T12:17:02Z</time></trkpt><trkpt lat="45.61861308215434" lon="10.713325344145623"><ele>420.0</ele><time>2026-03-28T12:17:03Z</time></trkpt><trkpt lat="45.61850746983207" lon="10.713402988226772"><ele>420.0</ele><time>2026-03-28T12:17:04Z</time></trkpt><trkpt lat="45.61842020426825" lon="10.713523897690541"><ele>420.0</ele><time>2026-03-28T12:17:05Z</time></trkpt><trkpt lat="45.61837067085678" lon="10.713692093375641"><ele>420.0</ele><time>2026-03-28T12:17:06Z</time></trkpt><trkpt lat="45.61834274920359" lon="10.71386799490171"><ele>420.0</ele><time>2026-03-28T12:17:07Z</time></trkpt><trkpt lat="45.61831958445785" lon="10.7140489577007"><ele>423.66666666666663</ele><time>2026-03-28T12:17:08Z</time></trkpt><trkpt lat="45.6182834693342" lon="10.71424033531847"><ele>427.3333333333333</ele><time>2026-03-28T12:17:09Z</time></trkpt><trkpt lat="45.618239011786116" lon="10.714452421781443"><ele>431.0</ele><time>2026-03-28T12:17:10Z</time></trkpt><trkpt lat="45.618197044689715" lon="10.714674776735091"><ele>434.3333333333333</ele><time>2026-03-28T12:17:11Z</time></trkpt><trkpt lat="45.61813935556993" lon="10.714878039700132"><ele>437.66666666666663</ele><time>2026-03-28T12:17:12Z</time></trkpt><trkpt lat="45.61810552498877" lon="10.715094362526568"><ele>441.0</ele><time>2026-03-28T12:17:13Z</time></trkpt><trkpt lat="45.618060993345296" lon="10.715303007915349"><ele>444.33333333333337</ele><time>2026-03-28T12:17:14Z</time></trkpt><trkpt lat="45.61801043457273" lon="10.715529861987434"><ele>447.6666666666667</ele><time>2026-03-28T12:17:15Z</time></trkpt><trkpt lat="45.61796418434431" lon="10.715749087963065"><ele>451.0</ele><time>2026-03-28T12:17:16Z</time></trkpt><trkpt lat="45.61791892414618" lon="10.715970457002912"><ele>452.75</ele><time>2026-03-28T12:17:17Z</time></trkpt><trkpt lat="45.61787454652347" lon="10.716164229776624"><ele>454.5</ele><time>2026-03-28T12:17:18Z</time></trkpt><trkpt lat="45.6178300685188" lon="10.716335062979429"><ele>456.25</ele><time>2026-03-28T12:17:19Z</time></trkpt><trkpt lat="45.617773621366325" lon="10.716468264339003"><ele>458.0</ele><time>2026-03-28T12:17:20Z</time></trkpt><trkpt lat="45.617747620901575" lon="10.716570733309727"><ele>458.0</ele><time>2026-03-28T12:17:21Z</time></trkpt><trkpt lat="45.61775181498853" lon="10.716693707657694"><ele>458.0</ele><time>2026-03-28T12:17:23Z</time></trkpt><trkpt lat="45.61795275070124" lon="10.716507914611118"><ele>458.0</ele><time>2026-03-28T12:17:26.001Z</time></trkpt><trkpt lat="45.61802669832885" lon="10.71636479813084"><ele>458.0</ele><time>2026-03-28T12:17:27.001Z</time></trkpt><trkpt lat="45.618114903891744" lon="10.716190662352512"><ele>458.0</ele><time>2026-03-28T12:17:28.001Z</time></trkpt><trkpt lat="45.61821827572804" lon="10.716010976879465"><ele>458.0</ele><time>2026-03-28T12:17:29.001Z</time></trkpt><trkpt lat="45.61833060825599" lon="10.715832588195482"><ele>455.66666666666663</ele><time>2026-03-28T12:17:30.001Z</time></trkpt><trkpt lat="45.618451706760254" lon="10.71565257793622"><ele>453.33333333333337</ele><time>2026-03-28T12:17:31.001Z</time></trkpt><trkpt lat="45.61857625071363" lon="10.715471405327094"><ele>451.0</ele><time>2026-03-28T12:17:32.001Z</time></trkpt><trkpt lat="45.61870722840715" lon="10.715291854660256"><ele>452.33333333333337</ele><time>2026-03-28T12:17:33.001Z</time></trkpt><trkpt lat="45.61883651126204" lon="10.71513006378132"><ele>453.66666666666663</ele><time>2026-03-28T12:17:34.001Z</time></trkpt><trkpt lat="45.618973963268644" lon="10.715003368946673"><ele>455.0</ele><time>2026-03-28T12:17:35.001Z</time></trkpt><trkpt lat="45.619131176937174" lon="10.71496132914069"><ele>455.0</ele><time>2026-03-28T12:17:36.001Z</time></trkpt><trkpt lat="45.619292668013536" lon="10.714932119000707"><ele>455.0</ele><time>2026-03-28T12:17:37.001Z</time></trkpt><trkpt lat="45.61947143238171" lon="10.714907827458305"><ele>455.0</ele><time>2026-03-28T12:17:38.001Z</time></trkpt><trkpt lat="45.61965661824222" lon="10.714865745000413"><ele>457.66666666666663</ele><time>2026-03-28T12:17:39.001Z</time></trkpt><trkpt lat="45.61984561943644" lon="10.714845333232125"><ele>460.33333333333337</ele><time>2026-03-28T12:17:40.001Z</time></trkpt><trkpt lat="45.620040177655405" lon="10.714817570009448"><ele>463.0</ele><time>2026-03-28T12:17:41.001Z</time></trkpt><trkpt lat="45.62023308595037" lon="10.7147895593642"><ele>466.33333333333337</ele><time>2026-03-28T12:17:42.001Z</time></trkpt><trkpt lat="45.620423941443285" lon="10.714762643340766"><ele>469.66666666666663</ele><time>2026-03-28T12:17:43.001Z</time></trkpt><trkpt lat="45.62061779703181" lon="10.714733085022436"><ele>473.0</ele><time>2026-03-28T12:17:44.001Z</time></trkpt><trkpt lat="45.62080014074511" lon="10.714705785128972"><ele>473.0</ele><time>2026-03-28T12:17:45.001Z</time></trkpt><trkpt lat="45.620958668201794" lon="10.714683789204152"><ele>473.0</ele><time>2026-03-28T12:17:46.001Z</time></trkpt><trkpt lat="45.621085442935915" lon="10.714667992670774"><ele>473.0</ele><time>2026-03-28T12:17:47.001Z</time></trkpt><trkpt lat="45.6211848896422" lon="10.714658375393162"><ele>473.0</ele><time>2026-03-28T12:17:48.001Z</time></trkpt><trkpt lat="45.62126554338228" lon="10.71468065640149"><ele>473.0</ele><time>2026-03-28T12:17:49.001Z</time></trkpt><trkpt lat="45.62131982234235" lon="10.714758996194176"><ele>472.99999999999994</ele><time>2026-03-28T12:17:50.001Z</time></trkpt><trkpt lat="45.621321375962395" lon="10.714859901649964"><ele>472.99999999999994</ele><time>2026-03-28T12:17:51.001Z</time></trkpt><trkpt lat="45.621281677219024" lon="10.714963947441941"><ele>473.0</ele><time>2026-03-28T12:17:52.001Z</time></trkpt><trkpt lat="45.621168111961474" lon="10.715034560909965"><ele>473.0</ele><time>2026-03-28T12:17:53.001Z</time></trkpt><trkpt lat="45.62103667921364" lon="10.715109090252286"><ele>473.0</ele><time>2026-03-28T12:17:54.001Z</time></trkpt><trkpt lat="45.62088392859323" lon="10.715175523765627"><ele>473.0</ele><time>2026-03-28T12:17:55.001Z</time></trkpt><trkpt lat="45.62071839941913" lon="10.715264517145078"><ele>473.0</ele><time>2026-03-28T12:17:56.001Z</time></trkpt><trkpt lat="45.6205323529276" lon="10.715366869566113"><ele>474.66666666666663</ele><time>2026-03-28T12:17:57.001Z</time></trkpt><trkpt lat="45.62033790501181" lon="10.715476226610653"><ele>476.33333333333337</ele><time>2026-03-28T12:17:58.001Z</time></trkpt><trkpt lat="45.620137189872835" lon="10.715582569030733"><ele>478.0</ele><time>2026-03-28T12:17:59.001Z</time></trkpt><trkpt lat="45.61994048895148" lon="10.715685149333455"><ele>478.0</ele><time>2026-03-28T12:18:00.001Z</time></trkpt><trkpt lat="45.619754549001996" lon="10.715781468010993"><ele>478.0</ele><time>2026-03-28T12:18:01.002Z</time></trkpt><trkpt lat="45.6195852361483" lon="10.715870201303531"><ele>478.0</ele><time>2026-03-28T12:18:02.002Z</time></trkpt><trkpt lat="45.61944340012229" lon="10.715946043815029"><ele>478.59999999999997</ele><time>2026-03-28T12:18:03.002Z</time></trkpt><trkpt lat="45.619321986316166" lon="10.716013364093769"><ele>479.19999999999993</ele><time>2026-03-28T12:18:04.002Z</time></trkpt><trkpt lat="45.61923865991865" lon="10.716074326846952"><ele>479.8</ele><time>2026-03-28T12:18:05.002Z</time></trkpt><trkpt lat="45.61919962705784" lon="10.716160223056791"><ele>480.4</ele><time>2026-03-28T12:18:06.002Z</time></trkpt><trkpt lat="45.61927597303934" lon="10.716326415684915"><ele>481.0</ele><time>2026-03-28T12:18:08.002Z</time></trkpt><trkpt lat="45.61937837138907" lon="10.716354066168629"><ele>484.0</ele><time>2026-03-28T12:18:09.002Z</time></trkpt><trkpt lat="45.61950506319287" lon="10.716333586395141"><ele>487.0</ele><time>2026-03-28T12:18:10.002Z</time></trkpt><trkpt lat="45.61964490259735" lon="10.716291361565624"><ele>490.0</ele><time>2026-03-28T12:18:11.002Z</time></trkpt><trkpt lat="45.61977422335379" lon="10.716267914867451"><ele>493.0</ele><time>2026-03-28T12:18:12.002Z</time></trkpt><trkpt lat="45.61989615007821" lon="10.716253539391277"><ele>493.0</ele><time>2026-03-28T12:18:13.002Z</time></trkpt><trkpt lat="45.62001777748213" lon="10.716226098597984"><ele>493.0</ele><time>2026-03-28T12:18:14.002Z</time></trkpt><trkpt lat="45.620134005248836" lon="10.716197627946169"><ele>493.0</ele><time>2026-03-28T12:18:15.002Z</time></trkpt><trkpt lat="45.62026493765922" lon="10.71616840222606"><ele>493.0</ele><time>2026-03-28T12:18:16.002Z</time></trkpt><trkpt lat="45.62041542543068" lon="10.716134098726478"><ele>491.33333333333337</ele><time>2026-03-28T12:18:17.002Z</time></trkpt><trkpt lat="45.62058425935276" lon="10.7161011599965"><ele>489.66666666666663</ele><time>2026-03-28T12:18:18.002Z</time></trkpt><trkpt lat="45.62077911506461" lon="10.716076638923465"><ele>488.0</ele><time>2026-03-28T12:18:19.002Z</time></trkpt><trkpt lat="45.62097474434128" lon="10.71606330130382"><ele>490.66666666666663</ele><time>2026-03-28T12:18:20.002Z</time></trkpt><trkpt lat="45.62118208888124" lon="10.716057338122432"><ele>493.33333333333337</ele><time>2026-03-28T12:18:21.002Z</time></trkpt><trkpt lat="45.62139346594883" lon="10.71604685306756"><ele>496.0</ele><time>2026-03-28T12:18:22.002Z</time></trkpt><trkpt lat="45.621599228067716" lon="10.716033295169835"><ele>496.0</ele><time>2026-03-28T12:18:23.002Z</time></trkpt><trkpt lat="45.62180062991343" lon="10.716011817985624"><ele>496.0</ele><time>2026-03-28T12:18:24.002Z</time></trkpt><trkpt lat="45.621999598765406" lon="10.716021919131752"><ele>496.0</ele><time>2026-03-28T12:18:25.002Z</time></trkpt><trkpt lat="45.62219310516827" lon="10.716045862962686"><ele>504.6666666666667</ele><time>2026-03-28T12:18:26.002Z</time></trkpt><trkpt lat="45.62238007063328" lon="10.716077035402876"><ele>513.3333333333334</ele><time>2026-03-28T12:18:27.002Z</time></trkpt><trkpt lat="45.62257044682038" lon="10.716083806051122"><ele>522.0</ele><time>2026-03-28T12:18:28.002Z</time></trkpt><trkpt lat="45.622758363705714" lon="10.716128468564008"><ele>522.3333333333334</ele><time>2026-03-28T12:18:29.002Z</time></trkpt><trkpt lat="45.622951263762516" lon="10.7161560802525"><ele>522.6666666666667</ele><time>2026-03-28T12:18:30.002Z</time></trkpt><trkpt lat="45.62314355546262" lon="10.716191395987606"><ele>523.0</ele><time>2026-03-28T12:18:31.002Z</time></trkpt><trkpt lat="45.623337514570146" lon="10.716230214809535"><ele>523.0</ele><time>2026-03-28T12:18:32.002Z</time></trkpt><trkpt lat="45.623530177990595" lon="10.716263852132984"><ele>523.0</ele><time>2026-03-28T12:18:33.002Z</time></trkpt><trkpt lat="45.623724110511546" lon="10.71630053012219"><ele>523.0</ele><time>2026-03-28T12:18:34.002Z</time></trkpt><trkpt lat="45.623920259249346" lon="10.716341723350489"><ele>523.0</ele><time>2026-03-28T12:18:35.002Z</time></trkpt><trkpt lat="45.62411285296861" lon="10.716393743056347"><ele>523.0</ele><time>2026-03-28T12:18:36.002Z</time></trkpt><trkpt lat="45.62430838110984" lon="10.716474635547327"><ele>523.0</ele><time>2026-03-28T12:18:37.003Z</time></trkpt><trkpt lat="45.6245002596118" lon="10.716565688978763"><ele>521.3333333333334</ele><time>2026-03-28T12:18:38.003Z</time></trkpt><trkpt lat="45.624694988032545" lon="10.716664786813016"><ele>519.6666666666666</ele><time>2026-03-28T12:18:39.003Z</time></trkpt><trkpt lat="45.62489299788921" lon="10.716767872295765"><ele>518.0</ele><time>2026-03-28T12:18:40.003Z</time></trkpt><trkpt lat="45.62509453672487" lon="10.71687600478599"><ele>523.6666666666666</ele><time>2026-03-28T12:18:41.003Z</time></trkpt><trkpt lat="45.625297805652906" lon="10.716979619752607"><ele>529.3333333333334</ele><time>2026-03-28T12:18:42.003Z</time></trkpt><trkpt lat="45.62550320266769" lon="10.717080551346683"><ele>535.0</ele><time>2026-03-28T12:18:43.003Z</time></trkpt><trkpt lat="45.62570431436401" lon="10.717176808094868"><ele>535.0</ele><time>2026-03-28T12:18:44.003Z</time></trkpt><trkpt lat="45.62589807636053" lon="10.717300015029002"><ele>535.0</ele><time>2026-03-28T12:18:45.003Z</time></trkpt><trkpt lat="45.62609978488686" lon="10.717385286042152"><ele>535.0</ele><time>2026-03-28T12:18:46.003Z</time></trkpt><trkpt lat="45.62628807748605" lon="10.717513673948003"><ele>533.3333333333334</ele><time>2026-03-28T12:18:47.003Z</time></trkpt><trkpt lat="45.62647103503005" lon="10.717625398771995"><ele>531.6666666666666</ele><time>2026-03-28T12:18:48.003Z</time></trkpt><trkpt lat="45.626657979159795" lon="10.717732244621132"><ele>530.0</ele><time>2026-03-28T12:18:49.003Z</time></trkpt><trkpt lat="45.626829784593454" lon="10.717864489083956"><ele>533.6666666666666</ele><time>2026-03-28T12:18:50.003Z</time></trkpt><trkpt lat="45.62698131100407" lon="10.717985912382682"><ele>537.3333333333334</ele><time>2026-03-28T12:18:51.003Z</time></trkpt><trkpt lat="45.62711994223719" lon="10.718092341909255"><ele>541.0</ele><time>2026-03-28T12:18:52.003Z</time></trkpt><trkpt lat="45.62724165638208" lon="10.718179749763006"><ele>541.0</ele><time>2026-03-28T12:18:53.003Z</time></trkpt><trkpt lat="45.627347409727896" lon="10.718259094428202"><ele>541.0</ele><time>2026-03-28T12:18:54.003Z</time></trkpt><trkpt lat="45.627443430026744" lon="10.7183242868973"><ele>541.0</ele><time>2026-03-28T12:18:55.003Z</time></trkpt><trkpt lat="45.627525722900565" lon="10.718414547264102"><ele>541.0</ele><time>2026-03-28T12:18:56.003Z</time></trkpt><trkpt lat="45.62761275617979" lon="10.718505084504597"><ele>541.0</ele><time>2026-03-28T12:18:57.003Z</time></trkpt><trkpt lat="45.6277056694439" lon="10.718622643105741"><ele>542.5</ele><time>2026-03-28T12:18:57.999Z</time></trkpt><trkpt lat="45.627797255517876" lon="10.718758953175474"><ele>544.0</ele><time>2026-03-28T12:18:58.999Z</time></trkpt><trkpt lat="45.6278876391953" lon="10.718896534197121"><ele>545.5</ele><time>2026-03-28T12:18:59.999Z</time></trkpt><trkpt lat="45.62798338596417" lon="10.719035202089463"><ele>547.0</ele><time>2026-03-28T12:19:00.999Z</time></trkpt><trkpt lat="45.62807571587445" lon="10.719174573061862"><ele>547.0</ele><time>2026-03-28T12:19:01.999Z</time></trkpt><trkpt lat="45.628168443462236" lon="10.719314744861396"><ele>547.0</ele><time>2026-03-28T12:19:03Z</time></trkpt><trkpt lat="45.62825781490621" lon="10.719431014940225"><ele>547.0</ele><time>2026-03-28T12:19:03.999Z</time></trkpt><trkpt lat="45.62833423517244" lon="10.719556850894985"><ele>547.0</ele><time>2026-03-28T12:19:04.999Z</time></trkpt><trkpt lat="45.62839717550158" lon="10.719668837820045"><ele>550.4</ele><time>2026-03-28T12:19:06Z</time></trkpt><trkpt lat="45.62844944455702" lon="10.719751223847092"><ele>553.8000000000001</ele><time>2026-03-28T12:19:07Z</time></trkpt><trkpt lat="45.62846429787417" lon="10.719904996030264"><ele>557.2</ele><time>2026-03-28T12:19:09Z</time></trkpt><trkpt lat="45.628345303405276" lon="10.719950914205834"><ele>560.6</ele><time>2026-03-28T12:19:11Z</time></trkpt><trkpt lat="45.62827556319882" lon="10.719841284863527"><ele>564.0</ele><time>2026-03-28T12:19:12Z</time></trkpt><trkpt lat="45.62817534974654" lon="10.719745561097035"><ele>564.0</ele><time>2026-03-28T12:19:13Z</time></trkpt><trkpt lat="45.628045062870825" lon="10.71962291018216"><ele>564.0</ele><time>2026-03-28T12:19:14Z</time></trkpt><trkpt lat="45.627906324049896" lon="10.719517777265185"><ele>564.0</ele><time>2026-03-28T12:19:15Z</time></trkpt><trkpt lat="45.6278061697899" lon="10.719406815627922"><ele>564.0</ele><time>2026-03-28T12:19:16Z</time></trkpt><trkpt lat="45.62771565417773" lon="10.719343287320305"><ele>564.0</ele><time>2026-03-28T12:19:17Z</time></trkpt><trkpt lat="45.6276478408007" lon="10.719344231958397"><ele>564.0</ele><time>2026-03-28T12:19:18Z</time></trkpt><trkpt lat="45.62761939962612" lon="10.719496869954675"><ele>564.0</ele><time>2026-03-28T12:19:20Z</time></trkpt><trkpt lat="45.62768450802074" lon="10.719590924900995"><ele>564.0</ele><time>2026-03-28T12:19:21Z</time></trkpt><trkpt lat="45.62778354177658" lon="10.71965804928526"><ele>564.0</ele><time>2026-03-28T12:19:22Z</time></trkpt><trkpt lat="45.62788486739967" lon="10.71975311093345"><ele>564.0</ele><time>2026-03-28T12:19:23Z</time></trkpt><trkpt lat="45.627994125731064" lon="10.719861742860951"><ele>564.0</ele><time>2026-03-28T12:19:24Z</time></trkpt><trkpt lat="45.62812612532659" lon="10.719978825318542"><ele>564.0</ele><time>2026-03-28T12:19:25Z</time></trkpt><trkpt lat="45.62826477683529" lon="10.720119699237813"><ele>565.6666666666666</ele><time>2026-03-28T12:19:26Z</time></trkpt><trkpt lat="45.628403841276544" lon="10.720258335733932"><ele>567.3333333333333</ele><time>2026-03-28T12:19:27Z</time></trkpt><trkpt lat="45.62854885771102" lon="10.720394691981005"><ele>569.0</ele><time>2026-03-28T12:19:28Z</time></trkpt><trkpt lat="45.62869587120626" lon="10.720531345214223"><ele>569.0</ele><time>2026-03-28T12:19:29Z</time></trkpt><trkpt lat="45.628843678536406" lon="10.7206639383346"><ele>569.0</ele><time>2026-03-28T12:19:30Z</time></trkpt><trkpt lat="45.62898864902401" lon="10.720801593253816"><ele>569.0</ele><time>2026-03-28T12:19:31Z</time></trkpt><trkpt lat="45.629136411190395" lon="10.720939587633703"><ele>570.6666666666666</ele><time>2026-03-28T12:19:32Z</time></trkpt><trkpt lat="45.629279396089686" lon="10.721071091336698"><ele>572.3333333333334</ele><time>2026-03-28T12:19:33Z</time></trkpt><trkpt lat="45.6294154565521" lon="10.721199887998898"><ele>574.0</ele><time>2026-03-28T12:19:34Z</time></trkpt><trkpt lat="45.62952310302161" lon="10.721331934777215"><ele>574.0</ele><time>2026-03-28T12:19:35Z</time></trkpt><trkpt lat="45.62960112583347" lon="10.721483287880664"><ele>574.0</ele><time>2026-03-28T12:19:36Z</time></trkpt><trkpt lat="45.62967519327267" lon="10.721643075434224"><ele>574.0</ele><time>2026-03-28T12:19:37.001Z</time></trkpt><trkpt lat="45.62977421646891" lon="10.721780793559196"><ele>574.0</ele><time>2026-03-28T12:19:38.001Z</time></trkpt><trkpt lat="45.6298962467944" lon="10.721871370750103"><ele>575.25</ele><time>2026-03-28T12:19:39.001Z</time></trkpt><trkpt lat="45.63003053552468" lon="10.721937741380087"><ele>576.5</ele><time>2026-03-28T12:19:40.001Z</time></trkpt><trkpt lat="45.63016577521893" lon="10.722011464649523"><ele>577.75</ele><time>2026-03-28T12:19:41.001Z</time></trkpt><trkpt lat="45.6302736188304" lon="10.72210571749905"><ele>579.0</ele><time>2026-03-28T12:19:42.001Z</time></trkpt><trkpt lat="45.63036688763307" lon="10.72222101238583"><ele>579.0</ele><time>2026-03-28T12:19:43.001Z</time></trkpt><trkpt lat="45.63045246181456" lon="10.722362400151853"><ele>579.0</ele><time>2026-03-28T12:19:44.001Z</time></trkpt><trkpt lat="45.630524501997314" lon="10.722505633441738"><ele>579.0</ele><time>2026-03-28T12:19:45.001Z</time></trkpt><trkpt lat="45.63060714985754" lon="10.722619591188442"><ele>579.0</ele><time>2026-03-28T12:19:46.001Z</time></trkpt><trkpt lat="45.630720671325754" lon="10.722695042836152"><ele>580.75</ele><time>2026-03-28T12:19:47.001Z</time></trkpt><trkpt lat="45.630844274649625" lon="10.722754667637222"><ele>582.5</ele><time>2026-03-28T12:19:48.001Z</time></trkpt><trkpt lat="45.630947141208225" lon="10.722840537778026"><ele>584.25</ele><time>2026-03-28T12:19:49.001Z</time></trkpt><trkpt lat="45.63101304244281" lon="10.722955636146718"><ele>586.0</ele><time>2026-03-28T12:19:50.001Z</time></trkpt><trkpt lat="45.631062957982806" lon="10.7230976442247"><ele>586.0</ele><time>2026-03-28T12:19:51.001Z</time></trkpt><trkpt lat="45.63106754295453" lon="10.723276956176901"><ele>586.0</ele><time>2026-03-28T12:19:52.001Z</time></trkpt><trkpt lat="45.63107855863774" lon="10.723452227673121"><ele>586.0</ele><time>2026-03-28T12:19:53.001Z</time></trkpt><trkpt lat="45.631102387022636" lon="10.723661929223224"><ele>586.0</ele><time>2026-03-28T12:19:54.001Z</time></trkpt><trkpt lat="45.6311487822979" lon="10.723882858552038"><ele>583.3333333333334</ele><time>2026-03-28T12:19:55.001Z</time></trkpt><trkpt lat="45.63117449084494" lon="10.724116923208063"><ele>580.6666666666666</ele><time>2026-03-28T12:19:56.001Z</time></trkpt><trkpt lat="45.631223892950864" lon="10.724347948852682"><ele>578.0</ele><time>2026-03-28T12:19:57.001Z</time></trkpt><trkpt lat="45.63129557205824" lon="10.72457446975445"><ele>578.0</ele><time>2026-03-28T12:19:58.001Z</time></trkpt><trkpt lat="45.63138202933801" lon="10.724788679205744"><ele>578.0</ele><time>2026-03-28T12:19:59.001Z</time></trkpt><trkpt lat="45.63144159127812" lon="10.725010497588977"><ele>578.0</ele><time>2026-03-28T12:20:00.001Z</time></trkpt><trkpt lat="45.63149475668064" lon="10.72522817108161"><ele>580.0</ele><time>2026-03-28T12:20:01.001Z</time></trkpt><trkpt lat="45.631540587560636" lon="10.72544114341183"><ele>582.0</ele><time>2026-03-28T12:20:02.001Z</time></trkpt><trkpt lat="45.63158959422805" lon="10.725656521627405"><ele>584.0</ele><time>2026-03-28T12:20:03.001Z</time></trkpt><trkpt lat="45.631646254792784" lon="10.725866803858416"><ele>584.0</ele><time>2026-03-28T12:20:04.001Z</time></trkpt><trkpt lat="45.631703669970896" lon="10.726077370068408"><ele>584.0</ele><time>2026-03-28T12:20:05.001Z</time></trkpt><trkpt lat="45.63176234722772" lon="10.726281919109615"><ele>584.0</ele><time>2026-03-28T12:20:06.001Z</time></trkpt><trkpt lat="45.6318358686127" lon="10.726482658576368"><ele>584.0</ele><time>2026-03-28T12:20:07.001Z</time></trkpt><trkpt lat="45.63192004357057" lon="10.726674160334687"><ele>584.0</ele><time>2026-03-28T12:20:08.001Z</time></trkpt><trkpt lat="45.632006759934505" lon="10.726861632752538"><ele>584.0</ele><time>2026-03-28T12:20:09.001Z</time></trkpt><trkpt lat="45.63209682111863" lon="10.727049740038588"><ele>584.5</ele><time>2026-03-28T12:20:10.002Z</time></trkpt><trkpt lat="45.63218920907904" lon="10.727226711458"><ele>585.0</ele><time>2026-03-28T12:20:11.002Z</time></trkpt><trkpt lat="45.632278299049275" lon="10.727407672921109"><ele>585.5</ele><time>2026-03-28T12:20:12.002Z</time></trkpt><trkpt lat="45.63235388592736" lon="10.727576196842364"><ele>586.0</ele><time>2026-03-28T12:20:13.002Z</time></trkpt><trkpt lat="45.632412396531706" lon="10.727715618026844"><ele>586.5</ele><time>2026-03-28T12:20:14.002Z</time></trkpt><trkpt lat="45.63245530533883" lon="10.727823414856612"><ele>587.0</ele><time>2026-03-28T12:20:15.002Z</time></trkpt><trkpt lat="45.63249737014006" lon="10.727944695903279"><ele>587.5</ele><time>2026-03-28T12:20:17.002Z</time></trkpt><trkpt lat="45.6326660181695" lon="10.727849541591015"><ele>588.0</ele><time>2026-03-28T12:20:19.002Z</time></trkpt><trkpt lat="45.63275734875168" lon="10.727787718833738"><ele>587.8333333333334</ele><time>2026-03-28T12:20:20.002Z</time></trkpt><trkpt lat="45.63284901664335" lon="10.72772841883169"><ele>587.6666666666666</ele><time>2026-03-28T12:20:21.002Z</time></trkpt><trkpt lat="45.63292476863786" lon="10.72767282921323"><ele>587.5</ele><time>2026-03-28T12:20:22.002Z</time></trkpt><trkpt lat="45.632992290834395" lon="10.727628458061814"><ele>587.3333333333333</ele><time>2026-03-28T12:20:23.002Z</time></trkpt><trkpt lat="45.633064704457595" lon="10.727569048273898"><ele>587.1666666666666</ele><time>2026-03-28T12:20:24.002Z</time></trkpt><trkpt lat="45.63314764925806" lon="10.727503377356086"><ele>587.0</ele><time>2026-03-28T12:20:25.002Z</time></trkpt><trkpt lat="45.63322507505672" lon="10.727425042473646"><ele>587.0</ele><time>2026-03-28T12:20:26.002Z</time></trkpt><trkpt lat="45.633295467286324" lon="10.727372472442534"><ele>587.0</ele><time>2026-03-28T12:20:27.002Z</time></trkpt><trkpt lat="45.63337224478688" lon="10.72735115641635"><ele>587.0</ele><time>2026-03-28T12:20:28.002Z</time></trkpt><trkpt lat="45.63344466530433" lon="10.727294372255937"><ele>587.0</ele><time>2026-03-28T12:20:29.002Z</time></trkpt><trkpt lat="45.633508352119605" lon="10.727246434808452"><ele>587.0</ele><time>2026-03-28T12:20:30.002Z</time></trkpt><trkpt lat="45.6336075196902" lon="10.727272207167221"><ele>587.0</ele><time>2026-03-28T12:20:32.002Z</time></trkpt><trkpt lat="45.63366602885338" lon="10.727328783162427"><ele>585.4</ele><time>2026-03-28T12:20:33.002Z</time></trkpt><trkpt lat="45.633717595217504" lon="10.727442155103853"><ele>583.8000000000001</ele><time>2026-03-28T12:20:34.002Z</time></trkpt><trkpt lat="45.63379949983925" lon="10.727546011616212"><ele>582.2</ele><time>2026-03-28T12:20:35.002Z</time></trkpt><trkpt lat="45.63386349787216" lon="10.727661332036242"><ele>580.6</ele><time>2026-03-28T12:20:36.002Z</time></trkpt><trkpt lat="45.633917564645095" lon="10.727771368127454"><ele>579.0</ele><time>2026-03-28T12:20:37.002Z</time></trkpt><trkpt lat="45.634012993028094" lon="10.727821213949856"><ele>579.0</ele><time>2026-03-28T12:20:38.002Z</time></trkpt><trkpt lat="45.63411413319621" lon="10.727847799415294"><ele>579.0</ele><time>2026-03-28T12:20:39.002Z</time></trkpt><trkpt lat="45.63422876074158" lon="10.727842673899598"><ele>579.0</ele><time>2026-03-28T12:20:40.002Z</time></trkpt><trkpt lat="45.634323947323615" lon="10.727801946323073"><ele>579.0</ele><time>2026-03-28T12:20:41.002Z</time></trkpt><trkpt lat="45.634406424748825" lon="10.727720484144687"><ele>579.0</ele><time>2026-03-28T12:20:42.002Z</time></trkpt><trkpt lat="45.63446456820594" lon="10.727612367260093"><ele>573.25</ele><time>2026-03-28T12:20:43.002Z</time></trkpt><trkpt lat="45.63450661121017" lon="10.727465856541071"><ele>567.5</ele><time>2026-03-28T12:20:44.003Z</time></trkpt><trkpt lat="45.63459371437673" lon="10.727331045706629"><ele>561.75</ele><time>2026-03-28T12:20:45.003Z</time></trkpt><trkpt lat="45.634700763546135" lon="10.727200999073286"><ele>556.0</ele><time>2026-03-28T12:20:46.003Z</time></trkpt><trkpt lat="45.63479826381939" lon="10.727079094394423"><ele>556.0</ele><time>2026-03-28T12:20:47.003Z</time></trkpt><trkpt lat="45.634911054177266" lon="10.726974881194145"><ele>556.0</ele><time>2026-03-28T12:20:48.003Z</time></trkpt><trkpt lat="45.63502470493247" lon="10.726904993129825"><ele>556.0</ele><time>2026-03-28T12:20:49.003Z</time></trkpt><trkpt lat="45.63512357953467" lon="10.726852358230683"><ele>556.0</ele><time>2026-03-28T12:20:50.003Z</time></trkpt><trkpt lat="45.63519967440374" lon="10.726716995952783"><ele>555.8</ele><time>2026-03-28T12:20:51.003Z</time></trkpt><trkpt lat="45.63527551372029" lon="10.726635597584231"><ele>555.6</ele><time>2026-03-28T12:20:52.003Z</time></trkpt><trkpt lat="45.635339473927964" lon="10.726590030190392"><ele>555.4</ele><time>2026-03-28T12:20:53.003Z</time></trkpt><trkpt lat="45.63541785883506" lon="10.726481078630082"><ele>555.2</ele><time>2026-03-28T12:20:55.003Z</time></trkpt><trkpt lat="45.635440936139375" lon="10.726379859703645"><ele>555.0</ele><time>2026-03-28T12:20:58.003Z</time></trkpt><trkpt lat="45.6352409288945" lon="10.726659062136099"><ele>555.0</ele><time>2026-03-28T12:21:10Z</time></trkpt><trkpt lat="45.63516010084522" lon="10.726738632798961"><ele>555.0</ele><time>2026-03-28T12:21:11Z</time></trkpt><trkpt lat="45.635150482642096" lon="10.726896737057752"><ele>555.0</ele><time>2026-03-28T12:21:13Z</time></trkpt><trkpt lat="45.63522397242222" lon="10.726807974177547"><ele>555.0</ele><time>2026-03-28T12:21:16Z</time></trkpt><trkpt lat="45.63529098096031" lon="10.72667231341203"><ele>555.0</ele><time>2026-03-28T12:21:17Z</time></trkpt><trkpt lat="45.63537915532005" lon="10.72653147057607"><ele>550.5</ele><time>2026-03-28T12:21:18Z</time></trkpt><trkpt lat="45.635535448413115" lon="10.726446326342264"><ele>546.0</ele><time>2026-03-28T12:21:19Z</time></trkpt><trkpt lat="45.63563731079453" lon="10.72629760926805"><ele>541.5</ele><time>2026-03-28T12:21:20Z</time></trkpt><trkpt lat="45.63575280107535" lon="10.726206069716666"><ele>537.0</ele><time>2026-03-28T12:21:21Z</time></trkpt><trkpt lat="45.63583667634212" lon="10.726094553086948"><ele>536.0</ele><time>2026-03-28T12:21:22Z</time></trkpt><trkpt lat="45.6359060008779" lon="10.726004567744754"><ele>535.0</ele><time>2026-03-28T12:21:23Z</time></trkpt><trkpt lat="45.635926085196246" lon="10.725894574697504"><ele>534.0</ele><time>2026-03-28T12:21:24Z</time></trkpt><trkpt lat="45.635928117421955" lon="10.725793519003375"><ele>533.0</ele><time>2026-03-28T12:21:25Z</time></trkpt><trkpt lat="45.635905455308965" lon="10.725673541433586"><ele>532.0</ele><time>2026-03-28T12:21:26Z</time></trkpt><trkpt lat="45.635873843490415" lon="10.725546256161891"><ele>531.0</ele><time>2026-03-28T12:21:27Z</time></trkpt><trkpt lat="45.635826332454535" lon="10.72540784298539"><ele>531.0</ele><time>2026-03-28T12:21:28Z</time></trkpt><trkpt lat="45.63576868381333" lon="10.72526533549641"><ele>531.0</ele><time>2026-03-28T12:21:29Z</time></trkpt><trkpt lat="45.635691064569535" lon="10.725102963156663"><ele>531.0</ele><time>2026-03-28T12:21:30Z</time></trkpt><trkpt lat="45.635598713256094" lon="10.72494420519979"><ele>531.0</ele><time>2026-03-28T12:21:31Z</time></trkpt><trkpt lat="45.63550324090726" lon="10.724801097697384"><ele>531.0</ele><time>2026-03-28T12:21:32Z</time></trkpt><trkpt lat="45.63541344307331" lon="10.724677001167889"><ele>531.0</ele><time>2026-03-28T12:21:33Z</time></trkpt><trkpt lat="45.635321778086976" lon="10.724567071027975"><ele>531.0</ele><time>2026-03-28T12:21:34Z</time></trkpt><trkpt lat="45.635225473517416" lon="10.724472619377499"><ele>531.0</ele><time>2026-03-28T12:21:35Z</time></trkpt><trkpt lat="45.63514404179815" lon="10.724352550945977"><ele>527.4</ele><time>2026-03-28T12:21:36Z</time></trkpt><trkpt lat="45.63505190989966" lon="10.724269740111277"><ele>523.8</ele><time>2026-03-28T12:21:37Z</time></trkpt><trkpt lat="45.634976170137136" lon="10.724196292011287"><ele>520.1999999999999</ele><time>2026-03-28T12:21:38Z</time></trkpt><trkpt lat="45.63488418613057" lon="10.724102995857418"><ele>516.6</ele><time>2026-03-28T12:21:39Z</time></trkpt><trkpt lat="45.63482315500467" lon="10.724024922081613"><ele>513.0</ele><time>2026-03-28T12:21:40.001Z</time></trkpt><trkpt lat="45.63478882665162" lon="10.723895295527008"><ele>513.0</ele><time>2026-03-28T12:21:42.001Z</time></trkpt><trkpt lat="45.634762289263115" lon="10.723732329280576"><ele>513.0</ele><time>2026-03-28T12:21:44.001Z</time></trkpt><trkpt lat="45.63473818837013" lon="10.723640342190079"><ele>513.0</ele><time>2026-03-28T12:21:45.001Z</time></trkpt><trkpt lat="45.63470373461947" lon="10.72352645107781"><ele>513.0</ele><time>2026-03-28T12:21:46.001Z</time></trkpt><trkpt lat="45.634676242704465" lon="10.723374775101131"><ele>513.0</ele><time>2026-03-28T12:21:47.001Z</time></trkpt><trkpt lat="45.6346408624426" lon="10.723204078898746"><ele>509.0</ele><time>2026-03-28T12:21:48.001Z</time></trkpt><trkpt lat="45.63461026650808" lon="10.723023655339023"><ele>505.0</ele><time>2026-03-28T12:21:49.001Z</time></trkpt><trkpt lat="45.634591784618195" lon="10.72285486029579"><ele>501.0</ele><time>2026-03-28T12:21:50.001Z</time></trkpt><trkpt lat="45.63461438803912" lon="10.722690754008052"><ele>497.0</ele><time>2026-03-28T12:21:51.001Z</time></trkpt><trkpt lat="45.634623720175156" lon="10.722525285273678"><ele>495.20000000000005</ele><time>2026-03-28T12:21:52.001Z</time></trkpt><trkpt lat="45.63461960136274" lon="10.722351221760835"><ele>493.40000000000003</ele><time>2026-03-28T12:21:53.001Z</time></trkpt><trkpt lat="45.63462988283131" lon="10.722179039547928"><ele>491.59999999999997</ele><time>2026-03-28T12:21:54.001Z</time></trkpt><trkpt lat="45.63463240996529" lon="10.722028586271177"><ele>489.79999999999995</ele><time>2026-03-28T12:21:55.001Z</time></trkpt><trkpt lat="45.63463118349267" lon="10.72189806767823"><ele>488.0</ele><time>2026-03-28T12:21:56.001Z</time></trkpt><trkpt lat="45.634632820381704" lon="10.7217896892927"><ele>486.5</ele><time>2026-03-28T12:21:57.001Z</time></trkpt><trkpt lat="45.6346416284902" lon="10.721652296819922"><ele>485.0</ele><time>2026-03-28T12:21:59.001Z</time></trkpt><trkpt lat="45.634670085792614" lon="10.721504017919804"><ele>483.5</ele><time>2026-03-28T12:22:01.001Z</time></trkpt><trkpt lat="45.63467739474479" lon="10.721414079678864"><ele>482.0</ele><time>2026-03-28T12:22:02.001Z</time></trkpt><trkpt lat="45.6343981930241" lon="10.721239440232463"><ele>482.8</ele><time>2026-03-28T12:22:03.001Z</time></trkpt><trkpt lat="45.63435914764459" lon="10.721163494795055"><ele>483.6</ele><time>2026-03-28T12:22:04.001Z</time></trkpt><trkpt lat="45.63438163711343" lon="10.721018552541306"><ele>484.40000000000003</ele><time>2026-03-28T12:22:06.001Z</time></trkpt><trkpt lat="45.63443091998212" lon="10.720832320222451"><ele>485.20000000000005</ele><time>2026-03-28T12:22:08.001Z</time></trkpt><trkpt lat="45.63443542157377" lon="10.720678060077436"><ele>486.0</ele><time>2026-03-28T12:22:10.001Z</time></trkpt><trkpt lat="45.63440471026784" lon="10.720584727836055"><ele>486.0</ele><time>2026-03-28T12:22:11.002Z</time></trkpt><trkpt lat="45.63437088685695" lon="10.72049122184451"><ele>486.0</ele><time>2026-03-28T12:22:12.002Z</time></trkpt><trkpt lat="45.63431056561264" lon="10.720373592212667"><ele>486.0</ele><time>2026-03-28T12:22:13.002Z</time></trkpt><trkpt lat="45.63425573291869" lon="10.72026355555239"><ele>486.0</ele><time>2026-03-28T12:22:14.002Z</time></trkpt><trkpt lat="45.634229797902435" lon="10.720177544570435"><ele>486.0</ele><time>2026-03-28T12:22:15.002Z</time></trkpt><trkpt lat="45.634183866136944" lon="10.720036860912366"><ele>486.0</ele><time>2026-03-28T12:22:17.002Z</time></trkpt><trkpt lat="45.63415307168114" lon="10.719913073737649"><ele>483.6666666666667</ele><time>2026-03-28T12:22:20.002Z</time></trkpt><trkpt lat="45.63415759011277" lon="10.719745354547273"><ele>481.33333333333337</ele><time>2026-03-28T12:22:22.002Z</time></trkpt><trkpt lat="45.63415789867257" lon="10.719619147639795"><ele>479.0</ele><time>2026-03-28T12:22:25.002Z</time></trkpt><trkpt lat="45.6341124892153" lon="10.719552123579133"><ele>476.6666666666667</ele><time>2026-03-28T12:22:27.002Z</time></trkpt><trkpt lat="45.634075414576586" lon="10.719477947612619"><ele>474.33333333333337</ele><time>2026-03-28T12:22:29.002Z</time></trkpt><trkpt lat="45.63399978956581" lon="10.71937380640406"><ele>472.0</ele><time>2026-03-28T12:22:32.002Z</time></trkpt><trkpt lat="45.63396768233508" lon="10.719290971381643"><ele>469.57142857142856</ele><time>2026-03-28T12:22:34.002Z</time></trkpt><trkpt lat="45.63393506833619" lon="10.719207498172043"><ele>467.14285714285717</ele><time>2026-03-28T12:22:36.002Z</time></trkpt><trkpt lat="45.63392694333786" lon="10.719112657190662"><ele>464.7142857142857</ele><time>2026-03-28T12:22:38.002Z</time></trkpt><trkpt lat="45.633896511792756" lon="10.719022202609885"><ele>462.2857142857143</ele><time>2026-03-28T12:22:40.002Z</time></trkpt><trkpt lat="45.63390390977232" lon="10.718917381643903"><ele>459.8571428571429</ele><time>2026-03-28T12:22:44.003Z</time></trkpt><trkpt lat="45.63387238827151" lon="10.71882870884235"><ele>457.42857142857144</ele><time>2026-03-28T12:24:31.002Z</time></trkpt><trkpt lat="45.633867081392204" lon="10.71872498277135"><ele>455.0</ele><time>2026-03-28T12:24:34.002Z</time></trkpt><trkpt lat="45.63384686302625" lon="10.71862914104555"><ele>452.16666666666663</ele><time>2026-03-28T12:24:36.002Z</time></trkpt><trkpt lat="45.633834847561936" lon="10.718505798512043"><ele>449.3333333333333</ele><time>2026-03-28T12:24:38.002Z</time></trkpt><trkpt lat="45.633814034111" lon="10.718381583660337"><ele>446.5</ele><time>2026-03-28T12:24:40.002Z</time></trkpt><trkpt lat="45.63379824695212" lon="10.718287579855936"><ele>443.66666666666663</ele><time>2026-03-28T12:24:42.002Z</time></trkpt><trkpt lat="45.6337964663341" lon="10.718168105206352"><ele>440.8333333333333</ele><time>2026-03-28T12:24:45.003Z</time></trkpt><trkpt lat="45.633803133938244" lon="10.718074411161643"><ele>438.0</ele><time>2026-03-28T12:24:50.003Z</time></trkpt><trkpt lat="45.63381745435828" lon="10.717985273152541"><ele>438.0</ele><time>2026-03-28T12:24:53.003Z</time></trkpt><trkpt lat="45.63382005225183" lon="10.717873557515132"><ele>438.0</ele><time>2026-03-28T12:24:56.003Z</time></trkpt><trkpt lat="45.63379732263314" lon="10.717781706376503"><ele>438.0</ele><time>2026-03-28T12:25:00.003Z</time></trkpt><trkpt lat="45.63378545721352" lon="10.717684439921703"><ele>438.0</ele><time>2026-03-28T12:25:03.003Z</time></trkpt><trkpt lat="45.63377223096572" lon="10.717565152529565"><ele>438.0</ele><time>2026-03-28T12:25:06.003Z</time></trkpt><trkpt lat="45.63373196053732" lon="10.717448718063537"><ele>438.0</ele><time>2026-03-28T12:25:09.003Z</time></trkpt><trkpt lat="45.633725404791484" lon="10.717355895757263"><ele>438.2857142857143</ele><time>2026-03-28T12:25:14.003Z</time></trkpt><trkpt lat="45.633695947957555" lon="10.717253321342483"><ele>438.57142857142856</ele><time>2026-03-28T12:25:22.001Z</time></trkpt><trkpt lat="45.6336620737925" lon="10.717177196613152"><ele>438.85714285714283</ele><time>2026-03-28T12:25:30.001Z</time></trkpt><trkpt lat="45.63363027437745" lon="10.717077940859992"><ele>439.1428571428571</ele><time>2026-03-28T12:25:41.001Z</time></trkpt><trkpt lat="45.63359060416087" lon="10.71699840475332"><ele>439.42857142857144</ele><time>2026-03-28T12:25:47.001Z</time></trkpt><trkpt lat="45.63353994383238" lon="10.716915612195553"><ele>439.71428571428567</ele><time>2026-03-28T12:25:53.001Z</time></trkpt><trkpt lat="45.633493294444584" lon="10.71684223204089"><ele>440.0</ele><time>2026-03-28T12:25:58.001Z</time></trkpt><trkpt lat="45.63344939426343" lon="10.716770752721738"><ele>436.3333333333333</ele><time>2026-03-28T12:26:09.001Z</time></trkpt><trkpt lat="45.63338078468824" lon="10.716733619306082"><ele>432.66666666666663</ele><time>2026-03-28T12:26:32.001Z</time></trkpt><trkpt lat="45.633321035858245" lon="10.716695058932697"><ele>429.0</ele><time>2026-03-28T12:27:20.002Z</time></trkpt><trkpt lat="45.63327505553666" lon="10.716631379481251"><ele>425.33333333333337</ele><time>2026-03-28T12:27:23Z</time></trkpt><trkpt lat="45.633248768160485" lon="10.716530663481006"><ele>421.6666666666667</ele><time>2026-03-28T12:27:26Z</time></trkpt><trkpt lat="45.63320864352646" lon="10.716412733764479"><ele>418.0</ele><time>2026-03-28T12:27:30Z</time></trkpt><trkpt lat="45.63319249502986" lon="10.716295938332477"><ele>418.0</ele><time>2026-03-28T12:27:33Z</time></trkpt><trkpt lat="45.63316775786714" lon="10.716199421673165"><ele>418.0</ele><time>2026-03-28T12:27:35Z</time></trkpt><trkpt lat="45.63314799727248" lon="10.716096077951963"><ele>418.0</ele><time>2026-03-28T12:27:37Z</time></trkpt><trkpt lat="45.633128840838154" lon="10.715995720202292"><ele>418.0</ele><time>2026-03-28T12:27:41Z</time></trkpt><trkpt lat="45.63309679994961" lon="10.715918015647349"><ele>418.0</ele><time>2026-03-28T12:27:44Z</time></trkpt><trkpt lat="45.63307140935285" lon="10.71580209530729"><ele>418.0</ele><time>2026-03-28T12:27:47Z</time></trkpt><trkpt lat="45.63304523316899" lon="10.715718685625477"><ele>418.0</ele><time>2026-03-28T12:27:51Z</time></trkpt><trkpt lat="45.63304140484691" lon="10.7156168595483"><ele>414.85714285714283</ele><time>2026-03-28T12:27:57Z</time></trkpt><trkpt lat="45.633053219359205" lon="10.715519085455611"><ele>411.71428571428567</ele><time>2026-03-28T12:28:07.001Z</time></trkpt><trkpt lat="45.633077963454475" lon="10.71542962522673"><ele>408.57142857142856</ele><time>2026-03-28T12:28:16.001Z</time></trkpt><trkpt lat="45.63308480697219" lon="10.715333629945077"><ele>405.42857142857144</ele><time>2026-03-28T12:28:30.001Z</time></trkpt><trkpt lat="45.633045112496646" lon="10.715250715551855"><ele>402.2857142857143</ele><time>2026-03-28T12:28:36.001Z</time></trkpt><trkpt lat="45.63300016017637" lon="10.71517637919743"><ele>399.14285714285717</ele><time>2026-03-28T12:28:45.001Z</time></trkpt><trkpt lat="45.63296970622636" lon="10.715092773360333"><ele>396.0</ele><time>2026-03-28T12:28:53.002Z</time></trkpt><trkpt lat="45.63295836180179" lon="10.715002968469152"><ele>392.8333333333333</ele><time>2026-03-28T12:29:02.002Z</time></trkpt><trkpt lat="45.63297074688341" lon="10.714899595674108"><ele>389.6666666666667</ele><time>2026-03-28T12:29:24.002Z</time></trkpt><trkpt lat="45.63302402337941" lon="10.714827311164225"><ele>386.5</ele><time>2026-03-28T12:29:37.999Z</time></trkpt><trkpt lat="45.633102296016155" lon="10.714807018713813"><ele>383.33333333333337</ele><time>2026-03-28T12:29:47Z</time></trkpt><trkpt lat="45.63310759128076" lon="10.714688106554444"><ele>380.1666666666667</ele><time>2026-03-28T12:29:54Z</time></trkpt><trkpt lat="45.63312839051749" lon="10.714557421663308"><ele>377.0</ele><time>2026-03-28T12:30:09Z</time></trkpt><trkpt lat="45.63312400161147" lon="10.71444398119739"><ele>374.1666666666667</ele><time>2026-03-28T12:30:12Z</time></trkpt><trkpt lat="45.63316895745487" lon="10.714347110677181"><ele>371.33333333333337</ele><time>2026-03-28T12:30:16.001Z</time></trkpt><trkpt lat="45.63321446191325" lon="10.714256586061483"><ele>368.5</ele><time>2026-03-28T12:30:21.001Z</time></trkpt><trkpt lat="45.63326799429009" lon="10.714175737441954"><ele>365.6666666666667</ele><time>2026-03-28T12:30:24.001Z</time></trkpt><trkpt lat="45.63331566720938" lon="10.71410110730622"><ele>362.8333333333333</ele><time>2026-03-28T12:30:29.001Z</time></trkpt><trkpt lat="45.633351872836776" lon="10.714004201806205"><ele>360.0</ele><time>2026-03-28T12:30:34.001Z</time></trkpt><trkpt lat="45.63333853687009" lon="10.71391012339732"><ele>360.0</ele><time>2026-03-28T12:30:38.001Z</time></trkpt><trkpt lat="45.63331644111918" lon="10.713811214495031"><ele>360.0</ele><time>2026-03-28T12:30:41.001Z</time></trkpt><trkpt lat="45.63327744616918" lon="10.713727218073675"><ele>360.0</ele><time>2026-03-28T12:30:48.001Z</time></trkpt><trkpt lat="45.63323257401047" lon="10.713623175048394"><ele>360.0</ele><time>2026-03-28T12:30:53.001Z</time></trkpt><trkpt lat="45.633199130012905" lon="10.713524711981199"><ele>360.0</ele><time>2026-03-28T12:30:56.001Z</time></trkpt><trkpt lat="45.633162940143286" lon="10.71341774940027"><ele>360.0</ele><time>2026-03-28T12:31:02.002Z</time></trkpt><trkpt lat="45.63313320062011" lon="10.713333497755086"><ele>357.4285714285714</ele><time>2026-03-28T12:31:06.002Z</time></trkpt><trkpt lat="45.63311154304202" lon="10.713227487429583"><ele>354.8571428571429</ele><time>2026-03-28T12:31:12.002Z</time></trkpt><trkpt lat="45.63306506900806" lon="10.71315533478297"><ele>352.2857142857143</ele><time>2026-03-28T12:31:15.002Z</time></trkpt><trkpt lat="45.63304225949803" lon="10.713058074222065"><ele>349.71428571428567</ele><time>2026-03-28T12:31:22.002Z</time></trkpt><trkpt lat="45.63304927333323" lon="10.712933437880533"><ele>347.1428571428571</ele><time>2026-03-28T12:31:28.002Z</time></trkpt><trkpt lat="45.63309150677102" lon="10.712866229811507"><ele>344.57142857142856</ele><time>2026-03-28T12:31:34.999Z</time></trkpt><trkpt lat="45.63315852125347" lon="10.712858370022786"><ele>342.0</ele><time>2026-03-28T12:31:37.999Z</time></trkpt><trkpt lat="45.63322077869677" lon="10.712879957219366"><ele>342.0</ele><time>2026-03-28T12:31:39.999Z</time></trkpt><trkpt lat="45.63331295311505" lon="10.71280632977029"><ele>342.0</ele><time>2026-03-28T12:31:42.999Z</time></trkpt><trkpt lat="45.633384456172614" lon="10.712729455381291"><ele>342.0</ele><time>2026-03-28T12:31:44.999Z</time></trkpt><trkpt lat="45.63345406489997" lon="10.712689773500385"><ele>342.0</ele><time>2026-03-28T12:31:46.999Z</time></trkpt><trkpt lat="45.633532505701794" lon="10.712711974129583"><ele>342.0</ele><time>2026-03-28T12:31:48.999Z</time></trkpt><trkpt lat="45.63360649168961" lon="10.712767317766193"><ele>342.0</ele><time>2026-03-28T12:31:52.999Z</time></trkpt><trkpt lat="45.63366390846348" lon="10.712858306446236"><ele>338.8333333333333</ele><time>2026-03-28T12:31:54.999Z</time></trkpt><trkpt lat="45.63370859881765" lon="10.712944836189081"><ele>335.6666666666667</ele><time>2026-03-28T12:32:11Z</time></trkpt><trkpt lat="45.63375636150179" lon="10.713045099772545"><ele>332.5</ele><time>2026-03-28T12:32:13Z</time></trkpt><trkpt lat="45.63386150728915" lon="10.713060618513598"><ele>329.33333333333337</ele><time>2026-03-28T12:32:15Z</time></trkpt><trkpt lat="45.6339420415493" lon="10.713086497295073"><ele>326.1666666666667</ele><time>2026-03-28T12:32:17Z</time></trkpt><trkpt lat="45.63401841203581" lon="10.713150134312963"><ele>323.0</ele><time>2026-03-28T12:32:19Z</time></trkpt><trkpt lat="45.6341221633742" lon="10.713223325042602"><ele>323.0</ele><time>2026-03-28T12:32:21Z</time></trkpt><trkpt lat="45.634216075214866" lon="10.713250112202441"><ele>323.0</ele><time>2026-03-28T12:32:23Z</time></trkpt><trkpt lat="45.63426418877139" lon="10.713308936013561"><ele>323.0</ele><time>2026-03-28T12:32:25Z</time></trkpt><trkpt lat="45.63433907671839" lon="10.713357465050107"><ele>323.0</ele><time>2026-03-28T12:32:27.001Z</time></trkpt><trkpt lat="45.63441836085837" lon="10.713437557844554"><ele>323.0</ele><time>2026-03-28T12:32:29.001Z</time></trkpt><trkpt lat="45.634479332960694" lon="10.71349917164802"><ele>323.0</ele><time>2026-03-28T12:32:31.001Z</time></trkpt><trkpt lat="45.63454951000999" lon="10.71360704857231"><ele>331.0</ele><time>2026-03-28T12:32:34.001Z</time></trkpt><trkpt lat="45.63466279287886" lon="10.713628042873104"><ele>331.0</ele><time>2026-03-28T12:32:36.001Z</time></trkpt><trkpt lat="45.63473138415651" lon="10.713618391580207"><ele>331.0</ele><time>2026-03-28T12:32:38.001Z</time></trkpt><trkpt lat="45.63479588727264" lon="10.713679579655258"><ele>331.0</ele><time>2026-03-28T12:32:46.001Z</time></trkpt></trkseg><trkseg><trkpt lat="45.634917779939435" lon="10.713749362518323"><ele>331.0</ele><time>2026-03-28T12:42:46.002Z</time></trkpt><trkpt lat="45.63498226345418" lon="10.7137745470704"><ele>331.0</ele><time>2026-03-28T12:42:49.002Z</time></trkpt><trkpt lat="45.635046977367914" lon="10.713786197196576"><ele>331.0</ele><time>2026-03-28T12:42:52.002Z</time></trkpt><trkpt lat="45.63511324653441" lon="10.713796824585314"><ele>331.0</ele><time>2026-03-28T12:42:59.003Z</time></trkpt><trkpt lat="45.6351759062008" lon="10.713819325471182"><ele>331.0</ele><time>2026-03-28T12:43:03Z</time></trkpt><trkpt lat="45.63523929538738" lon="10.713835231736448"><ele>331.0</ele><time>2026-03-28T12:43:08Z</time></trkpt><trkpt lat="45.63536391395621" lon="10.713884117862055"><ele>331.0</ele><time>2026-03-28T12:43:29Z</time></trkpt><trkpt lat="45.6354235239586" lon="10.71383911045036"><ele>331.0</ele><time>2026-03-28T12:43:35Z</time></trkpt><trkpt lat="45.6354685502211" lon="10.71375531075802"><ele>331.0</ele><time>2026-03-28T12:43:38Z</time></trkpt><trkpt lat="45.63544016531281" lon="10.713836350772743"><ele>331.0</ele><time>2026-03-28T12:48:36.002Z</time></trkpt><trkpt lat="45.635370617793036" lon="10.713905250405361"><ele>331.0</ele><time>2026-03-28T12:50:52.002Z</time></trkpt><trkpt lat="45.63529857033418" lon="10.713867113423003"><ele>331.0</ele><time>2026-03-28T12:51:13.003Z</time></trkpt><trkpt lat="45.63523388573017" lon="10.713883828383755"><ele>331.0</ele><time>2026-03-28T12:53:26.003Z</time></trkpt><trkpt lat="45.6351725693357" lon="10.71385069386632"><ele>331.0</ele><time>2026-03-28T12:53:45.999Z</time></trkpt><trkpt lat="45.63510861078329" lon="10.713823909130229"><ele>331.0</ele><time>2026-03-28T12:53:56Z</time></trkpt><trkpt lat="45.63499573575625" lon="10.713811630015686"><ele>331.0</ele><time>2026-03-28T12:54:02Z</time></trkpt><trkpt lat="45.63491697975551" lon="10.71377338279043"><ele>331.0</ele><time>2026-03-28T12:54:04Z</time></trkpt><trkpt lat="45.63485360675538" lon="10.71374116920243"><ele>331.0</ele><time>2026-03-28T12:54:06.001Z</time></trkpt><trkpt lat="45.634778131349805" lon="10.713703644722786"><ele>331.0</ele><time>2026-03-28T12:56:30.001Z</time></trkpt><trkpt lat="45.634802028185504" lon="10.713617341645763"><ele>326.6</ele><time>2026-03-28T12:56:47.002Z</time></trkpt><trkpt lat="45.63484619115729" lon="10.713552869338933"><ele>322.20000000000005</ele><time>2026-03-28T12:57:01.002Z</time></trkpt><trkpt lat="45.634910887123965" lon="10.713542574082899"><ele>317.79999999999995</ele><time>2026-03-28T12:57:06.002Z</time></trkpt><trkpt lat="45.63503844687462" lon="10.713530386600333"><ele>313.4</ele><time>2026-03-28T12:57:35.003Z</time></trkpt><trkpt lat="45.63510361681956" lon="10.71353273721274"><ele>309.0</ele><time>2026-03-28T12:57:42Z</time></trkpt><trkpt lat="45.635238415405645" lon="10.713396973251928"><ele>309.00000000000006</ele><time>2026-03-28T12:57:54Z</time></trkpt><trkpt lat="45.63525770453207" lon="10.713309227650186"><ele>309.0</ele><time>2026-03-28T12:58:08Z</time></trkpt><trkpt lat="45.635307958720304" lon="10.713248306528444"><ele>309.0</ele><time>2026-03-28T12:58:17.001Z</time></trkpt><trkpt lat="45.63535207882795" lon="10.713181998177133"><ele>309.0</ele><time>2026-03-28T12:58:21.001Z</time></trkpt><trkpt lat="45.63542465484661" lon="10.713170859295133"><ele>309.0</ele><time>2026-03-28T12:58:30.001Z</time></trkpt><trkpt lat="45.63548473760627" lon="10.713207465298195"><ele>309.00000000000006</ele><time>2026-03-28T12:58:36.001Z</time></trkpt><trkpt lat="45.635549906547254" lon="10.713216359052458"><ele>309.0</ele><time>2026-03-28T12:59:07.002Z</time></trkpt><trkpt lat="45.635608402386616" lon="10.713149998128712"><ele>306.8571428571429</ele><time>2026-03-28T12:59:13.002Z</time></trkpt><trkpt lat="45.63566417148279" lon="10.713095435098117"><ele>304.7142857142857</ele><time>2026-03-28T12:59:17.002Z</time></trkpt><trkpt lat="45.6357095987709" lon="10.713001277271383"><ele>302.57142857142856</ele><time>2026-03-28T12:59:21.003Z</time></trkpt><trkpt lat="45.63574551397085" lon="10.71291727695914"><ele>300.42857142857144</ele><time>2026-03-28T12:59:33.003Z</time></trkpt><trkpt lat="45.635781291988486" lon="10.712839476932906"><ele>298.2857142857143</ele><time>2026-03-28T12:59:46.003Z</time></trkpt><trkpt lat="45.635792612779184" lon="10.712744461877447"><ele>296.14285714285717</ele><time>2026-03-28T12:59:51.997Z</time></trkpt><trkpt lat="45.635798176164336" lon="10.712647185833669"><ele>294.0</ele><time>2026-03-28T12:59:55.998Z</time></trkpt><trkpt lat="45.635843179672456" lon="10.712566942450641"><ele>291.14285714285717</ele><time>2026-03-28T12:59:58.998Z</time></trkpt><trkpt lat="45.63591018499617" lon="10.712570125132254"><ele>288.2857142857143</ele><time>2026-03-28T13:00:21Z</time></trkpt><trkpt lat="45.6358905400519" lon="10.71245911201412"><ele>285.42857142857144</ele><time>2026-03-28T13:00:37.001Z</time></trkpt><trkpt lat="45.635897492695015" lon="10.71235943505869"><ele>282.57142857142856</ele><time>2026-03-28T13:00:41.001Z</time></trkpt><trkpt lat="45.63591444526895" lon="10.712272202390373"><ele>279.7142857142857</ele><time>2026-03-28T13:00:48.001Z</time></trkpt><trkpt lat="45.63590695001135" lon="10.712180638493095"><ele>276.8571428571429</ele><time>2026-03-28T13:00:52.001Z</time></trkpt><trkpt lat="45.63588159538918" lon="10.712091740658243"><ele>274.0</ele><time>2026-03-28T13:00:58.002Z</time></trkpt><trkpt lat="45.63585299982362" lon="10.712010775910326"><ele>274.0</ele><time>2026-03-28T13:01:06.002Z</time></trkpt><trkpt lat="45.63580097002731" lon="10.711908638130964"><ele>274.0</ele><time>2026-03-28T13:01:19.002Z</time></trkpt><trkpt lat="45.635753756605304" lon="10.711824618389649"><ele>274.0</ele><time>2026-03-28T13:01:28.003Z</time></trkpt><trkpt lat="45.635689498944004" lon="10.711756633884143"><ele>274.0</ele><time>2026-03-28T13:02:56.001Z</time></trkpt><trkpt lat="45.63562371056024" lon="10.711730170458937"><ele>274.0</ele><time>2026-03-28T13:02:58.001Z</time></trkpt><trkpt lat="45.63553796854154" lon="10.711699163135245"><ele>274.0</ele><time>2026-03-28T13:03:00.002Z</time></trkpt><trkpt lat="45.63547154443747" lon="10.711651219498107"><ele>272.3333333333333</ele><time>2026-03-28T13:03:02.002Z</time></trkpt><trkpt lat="45.63535485902236" lon="10.711596334049837"><ele>270.66666666666663</ele><time>2026-03-28T13:03:04.002Z</time></trkpt><trkpt lat="45.63527494464718" lon="10.711591450251527"><ele>269.0</ele><time>2026-03-28T13:03:05.002Z</time></trkpt><trkpt lat="45.635203769125106" lon="10.711597331810154"><ele>267.3333333333333</ele><time>2026-03-28T13:03:06.002Z</time></trkpt><trkpt lat="45.63513697392852" lon="10.711577335052866"><ele>265.6666666666667</ele><time>2026-03-28T13:03:07.002Z</time></trkpt><trkpt lat="45.63505692430269" lon="10.711496939006674"><ele>264.0</ele><time>2026-03-28T13:03:09.002Z</time></trkpt><trkpt lat="45.63504063248146" lon="10.711356250478827"><ele>264.0</ele><time>2026-03-28T13:03:11.002Z</time></trkpt><trkpt lat="45.63498940046241" lon="10.711266491404242"><ele>264.0</ele><time>2026-03-28T13:03:13.002Z</time></trkpt><trkpt lat="45.6348923757039" lon="10.711246726501289"><ele>264.0</ele><time>2026-03-28T13:03:15.002Z</time></trkpt><trkpt lat="45.63482367568133" lon="10.711257277629176"><ele>264.0</ele><time>2026-03-28T13:03:16.002Z</time></trkpt><trkpt lat="45.63476008899234" lon="10.711261581316569"><ele>264.0</ele><time>2026-03-28T13:03:17.002Z</time></trkpt><trkpt lat="45.63469741678164" lon="10.711241573760764"><ele>264.0</ele><time>2026-03-28T13:03:18.002Z</time></trkpt><trkpt lat="45.63463200211573" lon="10.711216824976866"><ele>264.0</ele><time>2026-03-28T13:03:19.002Z</time></trkpt><trkpt lat="45.63452070062316" lon="10.711146185606554"><ele>263.4</ele><time>2026-03-28T13:03:21.002Z</time></trkpt><trkpt lat="45.634454411399346" lon="10.711113177803226"><ele>262.79999999999995</ele><time>2026-03-28T13:03:22.002Z</time></trkpt><trkpt lat="45.63435712740661" lon="10.711049333866665"><ele>262.20000000000005</ele><time>2026-03-28T13:03:24.002Z</time></trkpt><trkpt lat="45.63425423633788" lon="10.710978288187198"><ele>261.6</ele><time>2026-03-28T13:03:26.002Z</time></trkpt><trkpt lat="45.63417528008281" lon="10.710919817930424"><ele>261.0</ele><time>2026-03-28T13:03:28.002Z</time></trkpt><trkpt lat="45.63408759579973" lon="10.7108883201977"><ele>261.0</ele><time>2026-03-28T13:03:30.003Z</time></trkpt><trkpt lat="45.634007339729564" lon="10.710850717682252"><ele>261.0</ele><time>2026-03-28T13:03:32.003Z</time></trkpt><trkpt lat="45.633931762336935" lon="10.710827713360718"><ele>261.0</ele><time>2026-03-28T13:03:34.003Z</time></trkpt><trkpt lat="45.63386309822546" lon="10.710814009802043"><ele>261.0</ele><time>2026-03-28T13:03:37.003Z</time></trkpt><trkpt lat="45.63375493691341" lon="10.710795799811352"><ele>261.0</ele><time>2026-03-28T13:03:57.003Z</time></trkpt><trkpt lat="45.63365058900322" lon="10.710797996613472"><ele>261.0</ele><time>2026-03-28T13:03:59.003Z</time></trkpt><trkpt lat="45.63355790645259" lon="10.710736561604008"><ele>263.1666666666667</ele><time>2026-03-28T13:04:00.999Z</time></trkpt><trkpt lat="45.633473647697336" lon="10.7106754285145"><ele>265.3333333333333</ele><time>2026-03-28T13:04:02.999Z</time></trkpt><trkpt lat="45.633404357657554" lon="10.710661308787376"><ele>267.5</ele><time>2026-03-28T13:04:03.999Z</time></trkpt><trkpt lat="45.633342288642545" lon="10.71062817265856"><ele>269.66666666666663</ele><time>2026-03-28T13:04:04.999Z</time></trkpt><trkpt lat="45.63325627560746" lon="10.710526420937924"><ele>271.8333333333333</ele><time>2026-03-28T13:04:06.999Z</time></trkpt><trkpt lat="45.63317330684379" lon="10.710502157688625"><ele>274.0</ele><time>2026-03-28T13:04:08.999Z</time></trkpt><trkpt lat="45.63311098767014" lon="10.710461836058716"><ele>274.0</ele><time>2026-03-28T13:04:10.999Z</time></trkpt><trkpt lat="45.63303477090256" lon="10.710449437538035"><ele>274.0</ele><time>2026-03-28T13:04:12.999Z</time></trkpt><trkpt lat="45.632925932356905" lon="10.710456796171504"><ele>274.0</ele><time>2026-03-28T13:04:14.999Z</time></trkpt><trkpt lat="45.63285341703599" lon="10.710450570808478"><ele>274.0</ele><time>2026-03-28T13:04:16.999Z</time></trkpt><trkpt lat="45.63279136915036" lon="10.710388908430268"><ele>274.0</ele><time>2026-03-28T13:04:20Z</time></trkpt><trkpt lat="45.632723873562846" lon="10.710308326653067"><ele>274.0</ele><time>2026-03-28T13:04:22Z</time></trkpt><trkpt lat="45.63268361512348" lon="10.710236994303793"><ele>272.3333333333333</ele><time>2026-03-28T13:04:23Z</time></trkpt><trkpt lat="45.63266331081794" lon="10.71010476447753"><ele>270.66666666666663</ele><time>2026-03-28T13:04:25Z</time></trkpt><trkpt lat="45.63258208003454" lon="10.710051065393333"><ele>269.0</ele><time>2026-03-28T13:04:28Z</time></trkpt><trkpt lat="45.63250065685729" lon="10.710035459230987"><ele>267.3333333333333</ele><time>2026-03-28T13:04:30Z</time></trkpt><trkpt lat="45.63243534299405" lon="10.710056778726267"><ele>265.6666666666667</ele><time>2026-03-28T13:04:33Z</time></trkpt><trkpt lat="45.63237010057876" lon="10.710037430860012"><ele>264.0</ele><time>2026-03-28T13:04:49.001Z</time></trkpt><trkpt lat="45.63230334860561" lon="10.710011776257184"><ele>264.0</ele><time>2026-03-28T13:04:51.001Z</time></trkpt><trkpt lat="45.63221958057992" lon="10.709967484074753"><ele>264.0</ele><time>2026-03-28T13:04:53.001Z</time></trkpt><trkpt lat="45.63211715309569" lon="10.709921482530145"><ele>264.0</ele><time>2026-03-28T13:04:55.001Z</time></trkpt><trkpt lat="45.63202077909384" lon="10.709916576224225"><ele>264.0</ele><time>2026-03-28T13:04:57.001Z</time></trkpt><trkpt lat="45.63194664900985" lon="10.709900344913272"><ele>264.0</ele><time>2026-03-28T13:04:59.001Z</time></trkpt><trkpt lat="45.63184085737613" lon="10.70989574497708"><ele>266.59999999999997</ele><time>2026-03-28T13:05:01.001Z</time></trkpt><trkpt lat="45.63175089131073" lon="10.70991319670168"><ele>269.2</ele><time>2026-03-28T13:05:03.001Z</time></trkpt><trkpt lat="45.631687810672545" lon="10.709975542818949"><ele>271.79999999999995</ele><time>2026-03-28T13:05:05.002Z</time></trkpt><trkpt lat="45.631584978942676" lon="10.70999212782252"><ele>274.4</ele><time>2026-03-28T13:05:08.002Z</time></trkpt><trkpt lat="45.6314638670521" lon="10.71006765826144"><ele>277.0</ele><time>2026-03-28T13:05:10.002Z</time></trkpt><trkpt lat="45.63139538869358" lon="10.71011501416086"><ele>277.0</ele><time>2026-03-28T13:05:11.002Z</time></trkpt><trkpt lat="45.63133007264317" lon="10.710165702341484"><ele>277.0</ele><time>2026-03-28T13:05:12.002Z</time></trkpt><trkpt lat="45.63126218310562" lon="10.710190461748022"><ele>277.0</ele><time>2026-03-28T13:05:14.002Z</time></trkpt><trkpt lat="45.63118162170574" lon="10.710147198405538"><ele>277.0</ele><time>2026-03-28T13:05:16.002Z</time></trkpt><trkpt lat="45.63109598094508" lon="10.710143161848679"><ele>277.0</ele><time>2026-03-28T13:05:18.002Z</time></trkpt><trkpt lat="45.630953034576464" lon="10.71014126658907"><ele>279.0</ele><time>2026-03-28T13:05:20.002Z</time></trkpt><trkpt lat="45.630884067201926" lon="10.710032417624614"><ele>281.0</ele><time>2026-03-28T13:05:22.002Z</time></trkpt><trkpt lat="45.630856177414714" lon="10.709926215569327"><ele>283.0</ele><time>2026-03-28T13:05:23.002Z</time></trkpt><trkpt lat="45.63082074837756" lon="10.709808678437328"><ele>285.0</ele><time>2026-03-28T13:05:25.002Z</time></trkpt><trkpt lat="45.63075660385089" lon="10.709798888100416"><ele>287.0</ele><time>2026-03-28T13:05:27.002Z</time></trkpt><trkpt lat="45.630685191701104" lon="10.709791739730687"><ele>289.0</ele><time>2026-03-28T13:05:28.002Z</time></trkpt><trkpt lat="45.63061125441747" lon="10.709812271105859"><ele>289.0</ele><time>2026-03-28T13:05:29.002Z</time></trkpt><trkpt lat="45.630498206328234" lon="10.709810004309514"><ele>289.0</ele><time>2026-03-28T13:05:31.002Z</time></trkpt><trkpt lat="45.6304048058504" lon="10.709733039342067"><ele>289.0</ele><time>2026-03-28T13:05:33.002Z</time></trkpt><trkpt lat="45.63034184794971" lon="10.709700178812088"><ele>289.0</ele><time>2026-03-28T13:05:34.002Z</time></trkpt><trkpt lat="45.63027991471338" lon="10.709670510402637"><ele>289.0</ele><time>2026-03-28T13:05:35.002Z</time></trkpt><trkpt lat="45.63019870730082" lon="10.709617255762"><ele>289.0</ele><time>2026-03-28T13:05:36.002Z</time></trkpt><trkpt lat="45.63012349626537" lon="10.709554298905017"><ele>288.8333333333333</ele><time>2026-03-28T13:05:37.003Z</time></trkpt><trkpt lat="45.6300399465821" lon="10.709478891229598"><ele>288.66666666666663</ele><time>2026-03-28T13:05:38.003Z</time></trkpt><trkpt lat="45.62997847099672" lon="10.709422948146699"><ele>288.5</ele><time>2026-03-28T13:05:39.003Z</time></trkpt><trkpt lat="45.62991970733788" lon="10.709384277705661"><ele>288.3333333333333</ele><time>2026-03-28T13:05:40.003Z</time></trkpt><trkpt lat="45.629825860319045" lon="10.709402840320314"><ele>288.1666666666667</ele><time>2026-03-28T13:05:42.003Z</time></trkpt><trkpt lat="45.62972464439338" lon="10.709353077050014"><ele>288.0</ele><time>2026-03-28T13:05:44.003Z</time></trkpt><trkpt lat="45.62966991810343" lon="10.709294612368872"><ele>288.0</ele><time>2026-03-28T13:05:45.003Z</time></trkpt><trkpt lat="45.629603227434934" lon="10.70925746426487"><ele>288.0</ele><time>2026-03-28T13:05:46.003Z</time></trkpt><trkpt lat="45.62951430564522" lon="10.70922570842478"><ele>288.0</ele><time>2026-03-28T13:05:47.003Z</time></trkpt><trkpt lat="45.62945160808731" lon="10.709169428530622"><ele>288.0</ele><time>2026-03-28T13:05:48.003Z</time></trkpt><trkpt lat="45.62937588904969" lon="10.709101100565872"><ele>288.0</ele><time>2026-03-28T13:05:49.003Z</time></trkpt><trkpt lat="45.6292963214548" lon="10.709033676867335"><ele>288.0</ele><time>2026-03-28T13:05:50.003Z</time></trkpt><trkpt lat="45.62924237719132" lon="10.708959378477342"><ele>291.6666666666667</ele><time>2026-03-28T13:05:51.003Z</time></trkpt><trkpt lat="45.62917361140627" lon="10.708828035447912"><ele>295.3333333333333</ele><time>2026-03-28T13:05:53.003Z</time></trkpt><trkpt lat="45.629040479912966" lon="10.708802028027726"><ele>299.0</ele><time>2026-03-28T13:05:55.003Z</time></trkpt><trkpt lat="45.62897616865807" lon="10.70880729655455"><ele>302.66666666666663</ele><time>2026-03-28T13:05:56.003Z</time></trkpt><trkpt lat="45.62891340206019" lon="10.708835111602701"><ele>306.3333333333333</ele><time>2026-03-28T13:05:57.003Z</time></trkpt><trkpt lat="45.6288468280309" lon="10.708832905721579"><ele>310.0</ele><time>2026-03-28T13:05:58.003Z</time></trkpt><trkpt lat="45.62875405461777" lon="10.708802043609472"><ele>310.0</ele><time>2026-03-28T13:05:59.003Z</time></trkpt><trkpt lat="45.628671014574905" lon="10.708766872001496"><ele>310.0</ele><time>2026-03-28T13:06:00.003Z</time></trkpt><trkpt lat="45.628598832964094" lon="10.70871112449906"><ele>310.0</ele><time>2026-03-28T13:06:01.003Z</time></trkpt><trkpt lat="45.62854382924605" lon="10.708664983968346"><ele>310.0</ele><time>2026-03-28T13:06:02.003Z</time></trkpt><trkpt lat="45.62843321799659" lon="10.708679356484568"><ele>310.0</ele><time>2026-03-28T13:06:04.003Z</time></trkpt><trkpt lat="45.62835844045362" lon="10.70870112006543"><ele>310.0</ele><time>2026-03-28T13:06:05.003Z</time></trkpt><trkpt lat="45.62825912534601" lon="10.708703654438986"><ele>309.0</ele><time>2026-03-28T13:06:05.997Z</time></trkpt><trkpt lat="45.62816954532779" lon="10.708666985356126"><ele>308.0</ele><time>2026-03-28T13:06:06.997Z</time></trkpt><trkpt lat="45.62808761033996" lon="10.70861953126338"><ele>307.0</ele><time>2026-03-28T13:06:07.998Z</time></trkpt><trkpt lat="45.62800376744017" lon="10.708592983752482"><ele>306.0</ele><time>2026-03-28T13:06:08.998Z</time></trkpt><trkpt lat="45.6279312335359" lon="10.708568838549311"><ele>305.0</ele><time>2026-03-28T13:06:09.998Z</time></trkpt><trkpt lat="45.62785342482676" lon="10.70851971605427"><ele>304.0</ele><time>2026-03-28T13:06:10.998Z</time></trkpt><trkpt lat="45.627790197394475" lon="10.708519479823948"><ele>304.0</ele><time>2026-03-28T13:06:11.998Z</time></trkpt><trkpt lat="45.627692577400616" lon="10.708536805468746"><ele>304.0</ele><time>2026-03-28T13:06:12.998Z</time></trkpt><trkpt lat="45.62759799088417" lon="10.708577431767294"><ele>304.0</ele><time>2026-03-28T13:06:13.998Z</time></trkpt><trkpt lat="45.62751599083069" lon="10.708590879511103"><ele>304.0</ele><time>2026-03-28T13:06:14.998Z</time></trkpt><trkpt lat="45.62740366070594" lon="10.708640719960993"><ele>304.0</ele><time>2026-03-28T13:06:16.998Z</time></trkpt><trkpt lat="45.62733197078115" lon="10.708754847886961"><ele>307.8333333333333</ele><time>2026-03-28T13:06:18.999Z</time></trkpt><trkpt lat="45.62729293685001" lon="10.708857833731264"><ele>311.66666666666663</ele><time>2026-03-28T13:06:19.999Z</time></trkpt><trkpt lat="45.627252605476045" lon="10.708928393468351"><ele>315.5</ele><time>2026-03-28T13:06:20.999Z</time></trkpt><trkpt lat="45.62720812536546" lon="10.709026118689321"><ele>319.3333333333333</ele><time>2026-03-28T13:06:21.999Z</time></trkpt><trkpt lat="45.627168177843615" lon="10.709131378706786"><ele>323.1666666666667</ele><time>2026-03-28T13:06:23.999Z</time></trkpt><trkpt lat="45.627093288101385" lon="10.709042270782746"><ele>327.0</ele><time>2026-03-28T13:06:25.999Z</time></trkpt><trkpt lat="45.62702468298485" lon="10.7088851490741"><ele>327.0</ele><time>2026-03-28T13:06:27.999Z</time></trkpt><trkpt lat="45.62698062209297" lon="10.70877735276476"><ele>327.0</ele><time>2026-03-28T13:06:30Z</time></trkpt><trkpt lat="45.62691422345062" lon="10.708742358427294"><ele>327.0</ele><time>2026-03-28T13:06:32Z</time></trkpt><trkpt lat="45.62684921424103" lon="10.70869516270132"><ele>327.0</ele><time>2026-03-28T13:06:42Z</time></trkpt><trkpt lat="45.62675491446686" lon="10.708675687202163"><ele>327.0</ele><time>2026-03-28T13:06:44Z</time></trkpt><trkpt lat="45.62668686297729" lon="10.708703490663984"><ele>327.0</ele><time>2026-03-28T13:06:46.001Z</time></trkpt><trkpt lat="45.62660177456388" lon="10.708749845829955"><ele>327.8</ele><time>2026-03-28T13:06:48.001Z</time></trkpt><trkpt lat="45.62648846952173" lon="10.708714601389955"><ele>328.6</ele><time>2026-03-28T13:06:50.001Z</time></trkpt><trkpt lat="45.62641256584479" lon="10.708683258064099"><ele>329.40000000000003</ele><time>2026-03-28T13:06:51.001Z</time></trkpt><trkpt lat="45.626346075770385" lon="10.708566807027138"><ele>330.20000000000005</ele><time>2026-03-28T13:06:53.001Z</time></trkpt><trkpt lat="45.62628051290277" lon="10.708425819975602"><ele>331.0</ele><time>2026-03-28T13:06:55.001Z</time></trkpt><trkpt lat="45.626195411749755" lon="10.708425263695315"><ele>329.16666666666663</ele><time>2026-03-28T13:06:58.001Z</time></trkpt><trkpt lat="45.626135518865844" lon="10.708459310347063"><ele>327.3333333333333</ele><time>2026-03-28T13:06:59.001Z</time></trkpt><trkpt lat="45.626069386631556" lon="10.708487005710168"><ele>325.5</ele><time>2026-03-28T13:07:00.001Z</time></trkpt><trkpt lat="45.62597233692187" lon="10.708499457067921"><ele>323.6666666666667</ele><time>2026-03-28T13:07:02.001Z</time></trkpt><trkpt lat="45.62585174360248" lon="10.708489330283932"><ele>321.83333333333337</ele><time>2026-03-28T13:07:12.001Z</time></trkpt><trkpt lat="45.62577588129316" lon="10.708505030989503"><ele>320.0</ele><time>2026-03-28T13:07:13.002Z</time></trkpt><trkpt lat="45.62570651417519" lon="10.708523934584406"><ele>320.0</ele><time>2026-03-28T13:07:14.002Z</time></trkpt><trkpt lat="45.62562110652592" lon="10.708554523104302"><ele>320.0</ele><time>2026-03-28T13:07:16.002Z</time></trkpt><trkpt lat="45.62555172914488" lon="10.70844778023185"><ele>320.0</ele><time>2026-03-28T13:07:18.002Z</time></trkpt><trkpt lat="45.62554436402893" lon="10.708278269563028"><ele>320.0</ele><time>2026-03-28T13:07:20.002Z</time></trkpt><trkpt lat="45.625570768681236" lon="10.708106807208935"><ele>320.0</ele><time>2026-03-28T13:07:22.002Z</time></trkpt><trkpt lat="45.62557920129048" lon="10.708016209883557"><ele>320.0</ele><time>2026-03-28T13:07:23.002Z</time></trkpt><trkpt lat="45.62549977130171" lon="10.707863708430178"><ele>320.0</ele><time>2026-03-28T13:07:25.002Z</time></trkpt><trkpt lat="45.62543373381948" lon="10.707797915559208"><ele>320.0</ele><time>2026-03-28T13:07:26.002Z</time></trkpt><trkpt lat="45.6253481269568" lon="10.707724071156349"><ele>320.0</ele><time>2026-03-28T13:07:27.002Z</time></trkpt><trkpt lat="45.62528122015025" lon="10.707667237971718"><ele>320.0</ele><time>2026-03-28T13:07:28.002Z</time></trkpt><trkpt lat="45.62521845834881" lon="10.707642883852998"><ele>319.0</ele><time>2026-03-28T13:07:29.002Z</time></trkpt><trkpt lat="45.62515208741115" lon="10.707641062475032"><ele>318.0</ele><time>2026-03-28T13:07:30.002Z</time></trkpt><trkpt lat="45.6250729860258" lon="10.707650677380345"><ele>317.0</ele><time>2026-03-28T13:07:31.002Z</time></trkpt><trkpt lat="45.62500274751442" lon="10.707690098970378"><ele>316.0</ele><time>2026-03-28T13:07:32.002Z</time></trkpt><trkpt lat="45.62492177839936" lon="10.707742447316573"><ele>315.0</ele><time>2026-03-28T13:07:33.002Z</time></trkpt><trkpt lat="45.624842658645996" lon="10.707771288771156"><ele>314.0</ele><time>2026-03-28T13:07:34.002Z</time></trkpt><trkpt lat="45.624767030129284" lon="10.707809698927143"><ele>317.2</ele><time>2026-03-28T13:07:35.002Z</time></trkpt><trkpt lat="45.62467889949457" lon="10.707893402330113"><ele>320.4</ele><time>2026-03-28T13:07:37.002Z</time></trkpt><trkpt lat="45.62459881945108" lon="10.707951239897033"><ele>323.6</ele><time>2026-03-28T13:07:39.002Z</time></trkpt><trkpt lat="45.62450997988368" lon="10.7079536581886"><ele>326.8</ele><time>2026-03-28T13:07:41.002Z</time></trkpt><trkpt lat="45.62443843539965" lon="10.70791166075852"><ele>330.0</ele><time>2026-03-28T13:07:43.002Z</time></trkpt><trkpt lat="45.62437835314972" lon="10.707791492085244"><ele>328.28571428571433</ele><time>2026-03-28T13:07:45.003Z</time></trkpt><trkpt lat="45.62434067980262" lon="10.707705631856458"><ele>326.57142857142856</ele><time>2026-03-28T13:07:46.003Z</time></trkpt><trkpt lat="45.62429387983774" lon="10.707625088689756"><ele>324.8571428571429</ele><time>2026-03-28T13:07:47.003Z</time></trkpt><trkpt lat="45.624229674469724" lon="10.707558924809746"><ele>323.14285714285717</ele><time>2026-03-28T13:07:48.003Z</time></trkpt><trkpt lat="45.624157603754284" lon="10.707513286206467"><ele>321.42857142857144</ele><time>2026-03-28T13:07:49.003Z</time></trkpt><trkpt lat="45.62409438570912" lon="10.70747017966159"><ele>319.7142857142857</ele><time>2026-03-28T13:07:50.003Z</time></trkpt><trkpt lat="45.62402744486027" lon="10.707416433077045"><ele>318.0</ele><time>2026-03-28T13:07:51.003Z</time></trkpt><trkpt lat="45.623969391202834" lon="10.707376934750041"><ele>318.0</ele><time>2026-03-28T13:07:52.003Z</time></trkpt><trkpt lat="45.62390611934026" lon="10.707356932472809"><ele>318.0</ele><time>2026-03-28T13:07:53.003Z</time></trkpt><trkpt lat="45.62382310004828" lon="10.707389795059905"><ele>318.0</ele><time>2026-03-28T13:07:55.003Z</time></trkpt><trkpt lat="45.62378228212456" lon="10.707494397900422"><ele>318.0</ele><time>2026-03-28T13:07:57.003Z</time></trkpt><trkpt lat="45.623711477371266" lon="10.707626840932866"><ele>318.0</ele><time>2026-03-28T13:07:59.003Z</time></trkpt><trkpt lat="45.62366387770742" lon="10.70770149159361"><ele>318.0</ele><time>2026-03-28T13:08:01.003Z</time></trkpt><trkpt lat="45.623575017019476" lon="10.707847114727935"><ele>320.8</ele><time>2026-03-28T13:08:03.003Z</time></trkpt><trkpt lat="45.623519981182326" lon="10.707946137310142"><ele>323.6</ele><time>2026-03-28T13:08:04.003Z</time></trkpt><trkpt lat="45.62345755324632" lon="10.708034980176281"><ele>326.40000000000003</ele><time>2026-03-28T13:08:05.003Z</time></trkpt><trkpt lat="45.62338415344173" lon="10.708103059397576"><ele>329.20000000000005</ele><time>2026-03-28T13:08:06.003Z</time></trkpt><trkpt lat="45.623290868593905" lon="10.708148439311369"><ele>332.0</ele><time>2026-03-28T13:08:07.003Z</time></trkpt><trkpt lat="45.62320352186429" lon="10.708177094027269"><ele>332.0</ele><time>2026-03-28T13:08:08.003Z</time></trkpt><trkpt lat="45.62312236165781" lon="10.708179615478091"><ele>332.0</ele><time>2026-03-28T13:08:09.003Z</time></trkpt><trkpt lat="45.62299020251367" lon="10.70819311544759"><ele>332.0</ele><time>2026-03-28T13:08:11.003Z</time></trkpt><trkpt lat="45.622921151783544" lon="10.708203407899015"><ele>332.0</ele><time>2026-03-28T13:08:11.997Z</time></trkpt><trkpt lat="45.622848036033815" lon="10.70819845927156"><ele>332.0</ele><time>2026-03-28T13:08:12.998Z</time></trkpt><trkpt lat="45.622760528506504" lon="10.708173734365992"><ele>332.0</ele><time>2026-03-28T13:08:13.998Z</time></trkpt><trkpt lat="45.62266732309518" lon="10.708134685613263"><ele>332.20000000000005</ele><time>2026-03-28T13:08:14.998Z</time></trkpt><trkpt lat="45.622581784829244" lon="10.708095351182926"><ele>332.4</ele><time>2026-03-28T13:08:15.998Z</time></trkpt><trkpt lat="45.62251788599151" lon="10.708061822662534"><ele>332.6</ele><time>2026-03-28T13:08:16.998Z</time></trkpt><trkpt lat="45.62239799136196" lon="10.708072276777969"><ele>332.79999999999995</ele><time>2026-03-28T13:08:18.998Z</time></trkpt><trkpt lat="45.62234762558554" lon="10.707975394349843"><ele>333.0</ele><time>2026-03-28T13:08:20.998Z</time></trkpt><trkpt lat="45.62234334244067" lon="10.707773480127779"><ele>329.59999999999997</ele><time>2026-03-28T13:08:22.999Z</time></trkpt><trkpt lat="45.62231917806513" lon="10.707648577041141"><ele>326.2</ele><time>2026-03-28T13:08:23.999Z</time></trkpt><trkpt lat="45.62229337702332" lon="10.707512756278334"><ele>322.8</ele><time>2026-03-28T13:08:24.999Z</time></trkpt><trkpt lat="45.62226745742807" lon="10.707360746082484"><ele>319.4</ele><time>2026-03-28T13:08:25.999Z</time></trkpt><trkpt lat="45.62224755678869" lon="10.70722556392498"><ele>316.0</ele><time>2026-03-28T13:08:26.999Z</time></trkpt><trkpt lat="45.62222278712857" lon="10.707117803757923"><ele>316.0</ele><time>2026-03-28T13:08:27.999Z</time></trkpt><trkpt lat="45.622133662247016" lon="10.707021154225014"><ele>316.0</ele><time>2026-03-28T13:08:29.999Z</time></trkpt><trkpt lat="45.62206707370338" lon="10.706952513030691"><ele>316.0</ele><time>2026-03-28T13:08:30.999Z</time></trkpt><trkpt lat="45.62202540637555" lon="10.706853380776971"><ele>316.0</ele><time>2026-03-28T13:08:31.999Z</time></trkpt><trkpt lat="45.621934272329455" lon="10.706745265788982"><ele>316.0</ele><time>2026-03-28T13:08:33.999Z</time></trkpt><trkpt lat="45.62184769414078" lon="10.706729914483113"><ele>318.0</ele><time>2026-03-28T13:08:35Z</time></trkpt><trkpt lat="45.62174302230276" lon="10.706668594468248"><ele>320.0</ele><time>2026-03-28T13:08:36Z</time></trkpt><trkpt lat="45.621651514913005" lon="10.706608403132778"><ele>322.0</ele><time>2026-03-28T13:08:37Z</time></trkpt><trkpt lat="45.621565943548426" lon="10.706554293637224"><ele>324.0</ele><time>2026-03-28T13:08:38Z</time></trkpt><trkpt lat="45.62148597736245" lon="10.70652854593853"><ele>326.0</ele><time>2026-03-28T13:08:39Z</time></trkpt><trkpt lat="45.6214216583327" lon="10.706518217359905"><ele>326.0</ele><time>2026-03-28T13:08:40Z</time></trkpt><trkpt lat="45.621310235420545" lon="10.70660025592874"><ele>326.0</ele><time>2026-03-28T13:08:42Z</time></trkpt><trkpt lat="45.621231674225804" lon="10.706690923473435"><ele>326.0</ele><time>2026-03-28T13:08:43Z</time></trkpt><trkpt lat="45.621140555385715" lon="10.706765045960047"><ele>326.0</ele><time>2026-03-28T13:08:44Z</time></trkpt><trkpt lat="45.62105092484075" lon="10.70677821396403"><ele>326.0</ele><time>2026-03-28T13:08:45Z</time></trkpt><trkpt lat="45.6209719806997" lon="10.70674501741903"><ele>326.83333333333337</ele><time>2026-03-28T13:08:46Z</time></trkpt><trkpt lat="45.62090565278118" lon="10.706677409733798"><ele>327.6666666666667</ele><time>2026-03-28T13:08:47Z</time></trkpt><trkpt lat="45.62085042493459" lon="10.706574343496484"><ele>328.5</ele><time>2026-03-28T13:08:48Z</time></trkpt><trkpt lat="45.62082891320679" lon="10.706484983359605"><ele>329.3333333333333</ele><time>2026-03-28T13:08:49Z</time></trkpt><trkpt lat="45.62080107338301" lon="10.706375347893665"><ele>330.16666666666663</ele><time>2026-03-28T13:08:51Z</time></trkpt><trkpt lat="45.62072879628677" lon="10.706340807677348"><ele>331.0</ele><time>2026-03-28T13:08:52Z</time></trkpt><trkpt lat="45.620623565328906" lon="10.706313198455296"><ele>331.0</ele><time>2026-03-28T13:08:53.001Z</time></trkpt><trkpt lat="45.62052215095338" lon="10.7062475130321"><ele>331.0</ele><time>2026-03-28T13:08:54.001Z</time></trkpt><trkpt lat="45.62040919904674" lon="10.706191011986459"><ele>331.0</ele><time>2026-03-28T13:08:55.001Z</time></trkpt><trkpt lat="45.62028922644287" lon="10.706126980513794"><ele>331.0</ele><time>2026-03-28T13:08:56.001Z</time></trkpt><trkpt lat="45.62018362403694" lon="10.7060671628333"><ele>330.8333333333333</ele><time>2026-03-28T13:08:57.001Z</time></trkpt><trkpt lat="45.62010431141876" lon="10.706003160833799"><ele>330.66666666666663</ele><time>2026-03-28T13:08:58.001Z</time></trkpt><trkpt lat="45.62002796047906" lon="10.705958633476701"><ele>330.5</ele><time>2026-03-28T13:08:59.001Z</time></trkpt><trkpt lat="45.6199532677401" lon="10.705925420810969"><ele>330.3333333333333</ele><time>2026-03-28T13:09:00.001Z</time></trkpt><trkpt lat="45.61987217612504" lon="10.705893136660169"><ele>330.1666666666667</ele><time>2026-03-28T13:09:01.001Z</time></trkpt><trkpt lat="45.61978784114869" lon="10.705861369006016"><ele>330.0</ele><time>2026-03-28T13:09:02.001Z</time></trkpt><trkpt lat="45.6197021132488" lon="10.705831001598915"><ele>330.0</ele><time>2026-03-28T13:09:03.001Z</time></trkpt><trkpt lat="45.61960612783287" lon="10.705801149826586"><ele>330.0</ele><time>2026-03-28T13:09:04.001Z</time></trkpt><trkpt lat="45.61951032928795" lon="10.705774439280782"><ele>330.0</ele><time>2026-03-28T13:09:05.001Z</time></trkpt><trkpt lat="45.61941469233085" lon="10.705749156463575"><ele>330.0</ele><time>2026-03-28T13:09:06.001Z</time></trkpt><trkpt lat="45.61931674989725" lon="10.705742464706173"><ele>330.0</ele><time>2026-03-28T13:09:07.001Z</time></trkpt><trkpt lat="45.619212227529445" lon="10.70571534190276"><ele>332.0</ele><time>2026-03-28T13:09:08.001Z</time></trkpt><trkpt lat="45.61911084230112" lon="10.705677703104406"><ele>334.0</ele><time>2026-03-28T13:09:09.001Z</time></trkpt><trkpt lat="45.619005943306746" lon="10.705629455323836"><ele>336.0</ele><time>2026-03-28T13:09:10.001Z</time></trkpt><trkpt lat="45.618900236239824" lon="10.705572095323259"><ele>338.0</ele><time>2026-03-28T13:09:11.001Z</time></trkpt><trkpt lat="45.618801139245925" lon="10.705484167599959"><ele>340.0</ele><time>2026-03-28T13:09:12.001Z</time></trkpt><trkpt lat="45.61867777089318" lon="10.7054425584329"><ele>341.5</ele><time>2026-03-28T13:09:13.001Z</time></trkpt><trkpt lat="45.618552016158255" lon="10.705369386462767"><ele>343.0</ele><time>2026-03-28T13:09:14.001Z</time></trkpt><trkpt lat="45.61842307747619" lon="10.705290137371883"><ele>344.5</ele><time>2026-03-28T13:09:15.001Z</time></trkpt><trkpt lat="45.61829381386241" lon="10.705204680242456"><ele>346.0</ele><time>2026-03-28T13:09:16.001Z</time></trkpt><trkpt lat="45.618169868682635" lon="10.705116168675097"><ele>343.75</ele><time>2026-03-28T13:09:17.001Z</time></trkpt><trkpt lat="45.618048471292234" lon="10.705026387323985"><ele>341.5</ele><time>2026-03-28T13:09:18.001Z</time></trkpt><trkpt lat="45.61793180090075" lon="10.70493789781821"><ele>339.25</ele><time>2026-03-28T13:09:19.001Z</time></trkpt><trkpt lat="45.61783432950122" lon="10.704861979303946"><ele>337.0</ele><time>2026-03-28T13:09:20.001Z</time></trkpt><trkpt lat="45.6177494864344" lon="10.704809948486956"><ele>337.0</ele><time>2026-03-28T13:09:21.002Z</time></trkpt><trkpt lat="45.617687176146575" lon="10.704775176915811"><ele>337.0</ele><time>2026-03-28T13:09:22.002Z</time></trkpt><trkpt lat="45.617613810805764" lon="10.70475862463097"><ele>337.0</ele><time>2026-03-28T13:09:24.002Z</time></trkpt><trkpt lat="45.617538970994495" lon="10.704738437510708"><ele>337.0</ele><time>2026-03-28T13:10:13.003Z</time></trkpt><trkpt lat="45.617459673639885" lon="10.70473168277216"><ele>337.0</ele><time>2026-03-28T13:10:14.003Z</time></trkpt><trkpt lat="45.61737518870427" lon="10.70473711428501"><ele>337.0</ele><time>2026-03-28T13:10:15.003Z</time></trkpt><trkpt lat="45.617264278234344" lon="10.70474803617257"><ele>337.0</ele><time>2026-03-28T13:10:16.003Z</time></trkpt><trkpt lat="45.61714289829522" lon="10.704761434589656"><ele>337.0</ele><time>2026-03-28T13:10:17.003Z</time></trkpt><trkpt lat="45.61701022802068" lon="10.7047760792776"><ele>337.0</ele><time>2026-03-28T13:10:17.998Z</time></trkpt><trkpt lat="45.61686638696066" lon="10.704791957045458"><ele>337.0</ele><time>2026-03-28T13:10:18.999Z</time></trkpt><trkpt lat="45.6167141449471" lon="10.704807266586078"><ele>336.5</ele><time>2026-03-28T13:10:19.999Z</time></trkpt><trkpt lat="45.616576024368136" lon="10.704821124010229"><ele>336.0</ele><time>2026-03-28T13:10:20.999Z</time></trkpt><trkpt lat="45.6164596825398" lon="10.704847318303937"><ele>335.5</ele><time>2026-03-28T13:10:21.999Z</time></trkpt><trkpt lat="45.61635706607754" lon="10.704828405882774"><ele>335.0</ele><time>2026-03-28T13:10:22.999Z</time></trkpt><trkpt lat="45.61626949193492" lon="10.704741052746238"><ele>335.0</ele><time>2026-03-28T13:10:23.999Z</time></trkpt><trkpt lat="45.61617991374748" lon="10.70464217363759"><ele>335.0</ele><time>2026-03-28T13:10:24.999Z</time></trkpt><trkpt lat="45.61610023187207" lon="10.704568416001768"><ele>335.0</ele><time>2026-03-28T13:10:25.999Z</time></trkpt><trkpt lat="45.61602806249249" lon="10.704492226831887"><ele>335.0</ele><time>2026-03-28T13:10:26.999Z</time></trkpt><trkpt lat="45.61595646158782" lon="10.70441139682898"><ele>335.0</ele><time>2026-03-28T13:10:27.999Z</time></trkpt><trkpt lat="45.615875575681116" lon="10.704324631215473"><ele>332.4</ele><time>2026-03-28T13:10:28.999Z</time></trkpt><trkpt lat="45.615793710959856" lon="10.704231491513228"><ele>329.8</ele><time>2026-03-28T13:10:29.999Z</time></trkpt><trkpt lat="45.61570832963707" lon="10.70413599183619"><ele>327.20000000000005</ele><time>2026-03-28T13:10:30.999Z</time></trkpt><trkpt lat="45.6156207343175" lon="10.704045194258322"><ele>324.6</ele><time>2026-03-28T13:10:31.999Z</time></trkpt><trkpt lat="45.61552785971615" lon="10.70394219339923"><ele>322.0</ele><time>2026-03-28T13:10:32.999Z</time></trkpt><trkpt lat="45.61542078990887" lon="10.703834329797305"><ele>322.66666666666663</ele><time>2026-03-28T13:10:34Z</time></trkpt><trkpt lat="45.61530799609053" lon="10.70371370415471"><ele>323.3333333333333</ele><time>2026-03-28T13:10:35Z</time></trkpt><trkpt lat="45.61518296842898" lon="10.703579543264494"><ele>324.0</ele><time>2026-03-28T13:10:36Z</time></trkpt><trkpt lat="45.615053107340344" lon="10.703442671772242"><ele>322.25</ele><time>2026-03-28T13:10:37Z</time></trkpt><trkpt lat="45.61492930080982" lon="10.703312384785212"><ele>320.5</ele><time>2026-03-28T13:10:38Z</time></trkpt><trkpt lat="45.614813974674064" lon="10.703190126503092"><ele>318.75</ele><time>2026-03-28T13:10:39Z</time></trkpt><trkpt lat="45.61470306659763" lon="10.70308408457812"><ele>317.0</ele><time>2026-03-28T13:10:40Z</time></trkpt><trkpt lat="45.6145827991736" lon="10.703003268083778"><ele>315.6666666666667</ele><time>2026-03-28T13:10:41Z</time></trkpt><trkpt lat="45.61444407083098" lon="10.702938852765712"><ele>314.3333333333333</ele><time>2026-03-28T13:10:42Z</time></trkpt><trkpt lat="45.61429521081306" lon="10.702879642612753"><ele>313.0</ele><time>2026-03-28T13:10:43Z</time></trkpt><trkpt lat="45.61414431424835" lon="10.7028188026738"><ele>313.0</ele><time>2026-03-28T13:10:44Z</time></trkpt><trkpt lat="45.614009164103436" lon="10.702763088066485"><ele>313.0</ele><time>2026-03-28T13:10:45Z</time></trkpt><trkpt lat="45.61388106591687" lon="10.702712023770085"><ele>313.0</ele><time>2026-03-28T13:10:46Z</time></trkpt><trkpt lat="45.613761481599454" lon="10.702664527833786"><ele>313.0</ele><time>2026-03-28T13:10:47Z</time></trkpt><trkpt lat="45.61363488927619" lon="10.702622452697465"><ele>312.0</ele><time>2026-03-28T13:10:48Z</time></trkpt><trkpt lat="45.61349952413258" lon="10.702571479425995"><ele>311.0</ele><time>2026-03-28T13:10:49Z</time></trkpt><trkpt lat="45.61336212842472" lon="10.70252031601032"><ele>310.0</ele><time>2026-03-28T13:10:50Z</time></trkpt><trkpt lat="45.61321686152626" lon="10.702478300551224"><ele>309.0</ele><time>2026-03-28T13:10:51Z</time></trkpt><trkpt lat="45.613068658949366" lon="10.702433968372645"><ele>309.0</ele><time>2026-03-28T13:10:52Z</time></trkpt><trkpt lat="45.612934151509634" lon="10.702367056607955"><ele>309.0</ele><time>2026-03-28T13:10:53.001Z</time></trkpt><trkpt lat="45.61280052684422" lon="10.702322495259315"><ele>309.0</ele><time>2026-03-28T13:10:54.001Z</time></trkpt><trkpt lat="45.61267280325809" lon="10.702278717688722"><ele>309.0</ele><time>2026-03-28T13:10:55.001Z</time></trkpt><trkpt lat="45.61254809425785" lon="10.702253469726022"><ele>309.0</ele><time>2026-03-28T13:10:56.001Z</time></trkpt><trkpt lat="45.612419534791165" lon="10.702188688156896"><ele>309.0</ele><time>2026-03-28T13:10:57.001Z</time></trkpt><trkpt lat="45.61228041162097" lon="10.702135958649658"><ele>309.0</ele><time>2026-03-28T13:10:58.001Z</time></trkpt><trkpt lat="45.612150189539385" lon="10.702094572721291"><ele>309.0</ele><time>2026-03-28T13:10:59.001Z</time></trkpt><trkpt lat="45.61203353870884" lon="10.702061175333197"><ele>309.0</ele><time>2026-03-28T13:11:00.001Z</time></trkpt><trkpt lat="45.61192921189389" lon="10.702043931630376"><ele>309.0</ele><time>2026-03-28T13:11:01.001Z</time></trkpt><trkpt lat="45.611848610235384" lon="10.70204915935262"><ele>309.0</ele><time>2026-03-28T13:11:02.001Z</time></trkpt><trkpt lat="45.611774539215155" lon="10.702080834456908"><ele>309.0</ele><time>2026-03-28T13:11:03.001Z</time></trkpt><trkpt lat="45.61171363279991" lon="10.702133474263547"><ele>309.0</ele><time>2026-03-28T13:11:04.001Z</time></trkpt><trkpt lat="45.6116485927068" lon="10.702180788004677"><ele>309.0</ele><time>2026-03-28T13:11:05.001Z</time></trkpt><trkpt lat="45.61155798285493" lon="10.702117028857304"><ele>309.0</ele><time>2026-03-28T13:11:07.001Z</time></trkpt><trkpt lat="45.611518690199475" lon="10.702046449169591"><ele>309.0</ele><time>2026-03-28T13:11:08.001Z</time></trkpt><trkpt lat="45.61143308428643" lon="10.701936718243157"><ele>309.0</ele><time>2026-03-28T13:11:10.001Z</time></trkpt><trkpt lat="45.611310908897224" lon="10.701900647445335"><ele>309.0</ele><time>2026-03-28T13:11:12.001Z</time></trkpt><trkpt lat="45.61120729004832" lon="10.701916423246443"><ele>309.0</ele><time>2026-03-28T13:11:13.001Z</time></trkpt><trkpt lat="45.61110149835023" lon="10.701934511858324"><ele>308.59999999999997</ele><time>2026-03-28T13:11:14.001Z</time></trkpt><trkpt lat="45.61099961401848" lon="10.701955875449364"><ele>308.2</ele><time>2026-03-28T13:11:15.001Z</time></trkpt><trkpt lat="45.610898267244735" lon="10.70197584252457"><ele>307.79999999999995</ele><time>2026-03-28T13:11:16.001Z</time></trkpt><trkpt lat="45.61080691901582" lon="10.701941680861104"><ele>307.4</ele><time>2026-03-28T13:11:17.001Z</time></trkpt><trkpt lat="45.610717866771026" lon="10.701921003532922"><ele>307.0</ele><time>2026-03-28T13:11:18.001Z</time></trkpt><trkpt lat="45.61060567628675" lon="10.701900474784809"><ele>306.5</ele><time>2026-03-28T13:11:19.001Z</time></trkpt><trkpt lat="45.610492398645334" lon="10.701809604584316"><ele>306.0</ele><time>2026-03-28T13:11:20.001Z</time></trkpt><trkpt lat="45.610369078309375" lon="10.701733304035688"><ele>305.5</ele><time>2026-03-28T13:11:21.002Z</time></trkpt><trkpt lat="45.61023748234978" lon="10.70167118073035"><ele>305.0</ele><time>2026-03-28T13:11:22.002Z</time></trkpt><trkpt lat="45.61011144503939" lon="10.701572880517412"><ele>305.0</ele><time>2026-03-28T13:11:23.002Z</time></trkpt><trkpt lat="45.60997753713928" lon="10.701489419673505"><ele>305.0</ele><time>2026-03-28T13:11:24.002Z</time></trkpt><trkpt lat="45.60984287200919" lon="10.701393572693773"><ele>305.0</ele><time>2026-03-28T13:11:25.002Z</time></trkpt><trkpt lat="45.60969364442089" lon="10.701295253942117"><ele>305.0</ele><time>2026-03-28T13:11:26.002Z</time></trkpt><trkpt lat="45.609534493663745" lon="10.701198949671202"><ele>305.0</ele><time>2026-03-28T13:11:27.002Z</time></trkpt><trkpt lat="45.609371642926696" lon="10.701133253949317"><ele>305.0</ele><time>2026-03-28T13:11:28.002Z</time></trkpt><trkpt lat="45.609213525736976" lon="10.701098141306801"><ele>301.33333333333337</ele><time>2026-03-28T13:11:29.002Z</time></trkpt><trkpt lat="45.60906630208362" lon="10.701075558273661"><ele>297.6666666666667</ele><time>2026-03-28T13:11:30.002Z</time></trkpt><trkpt lat="45.608913168998235" lon="10.701019847605943"><ele>294.0</ele><time>2026-03-28T13:11:31.002Z</time></trkpt><trkpt lat="45.60875245208714" lon="10.701002978218584"><ele>295.75</ele><time>2026-03-28T13:11:32.002Z</time></trkpt><trkpt lat="45.60860788562309" lon="10.700966885153296"><ele>297.5</ele><time>2026-03-28T13:11:33.002Z</time></trkpt><trkpt lat="45.60846836658883" lon="10.700919614934639"><ele>299.25</ele><time>2026-03-28T13:11:34.002Z</time></trkpt><trkpt lat="45.60831994817693" lon="10.700848470400574"><ele>301.0</ele><time>2026-03-28T13:11:35.002Z</time></trkpt><trkpt lat="45.60816616716676" lon="10.700761488859227"><ele>301.0</ele><time>2026-03-28T13:11:36.002Z</time></trkpt><trkpt lat="45.60800963647706" lon="10.700691965636352"><ele>301.0</ele><time>2026-03-28T13:11:37.002Z</time></trkpt><trkpt lat="45.607873025438494" lon="10.700634307547734"><ele>301.0</ele><time>2026-03-28T13:11:38.002Z</time></trkpt><trkpt lat="45.6077275037485" lon="10.700585804616274"><ele>301.6</ele><time>2026-03-28T13:11:39.002Z</time></trkpt><trkpt lat="45.607598708915" lon="10.700568239795825"><ele>302.20000000000005</ele><time>2026-03-28T13:11:40.002Z</time></trkpt><trkpt lat="45.6074844646128" lon="10.700551523060396"><ele>302.79999999999995</ele><time>2026-03-28T13:11:41.002Z</time></trkpt><trkpt lat="45.60738841942282" lon="10.700546297989039"><ele>303.4</ele><time>2026-03-28T13:11:42.002Z</time></trkpt><trkpt lat="45.60730509529049" lon="10.700550379096269"><ele>304.0</ele><time>2026-03-28T13:11:43.002Z</time></trkpt><trkpt lat="45.60722367906686" lon="10.700562425529705"><ele>304.0</ele><time>2026-03-28T13:11:44.002Z</time></trkpt><trkpt lat="45.60714558883102" lon="10.700568874374635"><ele>304.0</ele><time>2026-03-28T13:11:45.002Z</time></trkpt><trkpt lat="45.60704004411493" lon="10.700560534023703"><ele>304.0</ele><time>2026-03-28T13:11:46.002Z</time></trkpt><trkpt lat="45.60693435806047" lon="10.70054460417091"><ele>304.0</ele><time>2026-03-28T13:11:47.002Z</time></trkpt><trkpt lat="45.60684650795893" lon="10.700500858531372"><ele>304.0</ele><time>2026-03-28T13:11:48.002Z</time></trkpt><trkpt lat="45.60676250916236" lon="10.700400081326562"><ele>303.8</ele><time>2026-03-28T13:11:50.002Z</time></trkpt><trkpt lat="45.606772932709944" lon="10.700304207202716"><ele>303.59999999999997</ele><time>2026-03-28T13:11:51.002Z</time></trkpt><trkpt lat="45.60688122988658" lon="10.700153812547684"><ele>303.4</ele><time>2026-03-28T13:11:53.003Z</time></trkpt><trkpt lat="45.606989659815675" lon="10.700157571259123"><ele>303.2</ele><time>2026-03-28T13:11:55.003Z</time></trkpt><trkpt lat="45.60707568756813" lon="10.700135742728662"><ele>303.0</ele><time>2026-03-28T13:11:57.003Z</time></trkpt><trkpt lat="45.60718308619324" lon="10.70012959323961"><ele>301.0</ele><time>2026-03-28T13:11:59.003Z</time></trkpt><trkpt lat="45.607257497563296" lon="10.700126670569018"><ele>299.0</ele><time>2026-03-28T13:12:00.003Z</time></trkpt><trkpt lat="45.607338006132146" lon="10.700117144215447"><ele>297.0</ele><time>2026-03-28T13:12:01.003Z</time></trkpt><trkpt lat="45.60742487815286" lon="10.7000997405184"><ele>295.0</ele><time>2026-03-28T13:12:02.003Z</time></trkpt><trkpt lat="45.607517946931445" lon="10.700065101018264"><ele>293.0</ele><time>2026-03-28T13:12:03.003Z</time></trkpt><trkpt lat="45.60760862425271" lon="10.700026211321127"><ele>291.0</ele><time>2026-03-28T13:12:04.003Z</time></trkpt><trkpt lat="45.60769699412931" lon="10.699997851966392"><ele>291.0</ele><time>2026-03-28T13:12:05.003Z</time></trkpt><trkpt lat="45.60776537905364" lon="10.699965536744758"><ele>291.0</ele><time>2026-03-28T13:12:06.003Z</time></trkpt><trkpt lat="45.60786375592922" lon="10.699936864800907"><ele>291.0</ele><time>2026-03-28T13:12:08.003Z</time></trkpt><trkpt lat="45.6079703829573" lon="10.699924911537472"><ele>291.0</ele><time>2026-03-28T13:12:10.003Z</time></trkpt><trkpt lat="45.60804974789059" lon="10.699944572623346"><ele>291.0</ele><time>2026-03-28T13:12:11.003Z</time></trkpt><trkpt lat="45.60814234448329" lon="10.69998291346285"><ele>290.0</ele><time>2026-03-28T13:12:12.003Z</time></trkpt><trkpt lat="45.60824379649563" lon="10.700023150543142"><ele>289.0</ele><time>2026-03-28T13:12:13.003Z</time></trkpt><trkpt lat="45.60833971482693" lon="10.700063639837172"><ele>288.0</ele><time>2026-03-28T13:12:14.003Z</time></trkpt><trkpt lat="45.60843009152199" lon="10.700099024162261"><ele>287.0</ele><time>2026-03-28T13:12:15.003Z</time></trkpt><trkpt lat="45.60851776342318" lon="10.70012127711893"><ele>286.0</ele><time>2026-03-28T13:12:16.003Z</time></trkpt><trkpt lat="45.60859983970811" lon="10.700130608007116"><ele>284.2857142857143</ele><time>2026-03-28T13:12:17.003Z</time></trkpt><trkpt lat="45.60867402453055" lon="10.700161560673418"><ele>282.57142857142856</ele><time>2026-03-28T13:12:18.003Z</time></trkpt><trkpt lat="45.608753183619264" lon="10.700146730051898"><ele>280.8571428571429</ele><time>2026-03-28T13:12:19.003Z</time></trkpt><trkpt lat="45.6088228632871" lon="10.700162961077746"><ele>279.1428571428571</ele><time>2026-03-28T13:12:20.003Z</time></trkpt><trkpt lat="45.608891281823354" lon="10.70017689601965"><ele>277.42857142857144</ele><time>2026-03-28T13:12:21.003Z</time></trkpt><trkpt lat="45.60895860140064" lon="10.700180376787937"><ele>275.7142857142857</ele><time>2026-03-28T13:12:22.003Z</time></trkpt><trkpt lat="45.609022355999194" lon="10.700185560086721"><ele>274.0</ele><time>2026-03-28T13:12:23.003Z</time></trkpt><trkpt lat="45.60913025440926" lon="10.700205902211922"><ele>274.0</ele><time>2026-03-28T13:12:24.999Z</time></trkpt><trkpt lat="45.60920956136781" lon="10.70013664794556"><ele>274.0</ele><time>2026-03-28T13:12:26.999Z</time></trkpt><trkpt lat="45.60920299369509" lon="10.700033624398033"><ele>274.0</ele><time>2026-03-28T13:12:27.999Z</time></trkpt><trkpt lat="45.60912380008742" lon="10.699964835699223"><ele>274.0</ele><time>2026-03-28T13:12:28.999Z</time></trkpt><trkpt lat="45.60901842912294" lon="10.699964098255316"><ele>274.0</ele><time>2026-03-28T13:12:29.999Z</time></trkpt><trkpt lat="45.6089059186227" lon="10.699941301883987"><ele>274.0</ele><time>2026-03-28T13:12:30.999Z</time></trkpt><trkpt lat="45.60879557410462" lon="10.699875342499643"><ele>274.0</ele><time>2026-03-28T13:12:31.999Z</time></trkpt><trkpt lat="45.60867180152762" lon="10.699821822914519"><ele>274.0</ele><time>2026-03-28T13:12:32.999Z</time></trkpt><trkpt lat="45.6085515593845" lon="10.699760576954244"><ele>274.0</ele><time>2026-03-28T13:12:33.999Z</time></trkpt><trkpt lat="45.60842586683128" lon="10.699699338212458"><ele>272.8</ele><time>2026-03-28T13:12:34.999Z</time></trkpt><trkpt lat="45.60830745754959" lon="10.699634863420123"><ele>271.59999999999997</ele><time>2026-03-28T13:12:35.999Z</time></trkpt><trkpt lat="45.60819985638196" lon="10.699573406348671"><ele>270.4</ele><time>2026-03-28T13:12:36.999Z</time></trkpt><trkpt lat="45.60810862990369" lon="10.699486721154255"><ele>269.2</ele><time>2026-03-28T13:12:37.999Z</time></trkpt><trkpt lat="45.60802321365627" lon="10.699425329071959"><ele>268.0</ele><time>2026-03-28T13:12:38.999Z</time></trkpt><trkpt lat="45.607930119105184" lon="10.699377781238326"><ele>268.75</ele><time>2026-03-28T13:12:40Z</time></trkpt><trkpt lat="45.60781201911978" lon="10.69936682999169"><ele>269.5</ele><time>2026-03-28T13:12:41Z</time></trkpt><trkpt lat="45.60769652740482" lon="10.699359096519014"><ele>270.25</ele><time>2026-03-28T13:12:42Z</time></trkpt><trkpt lat="45.60759227675039" lon="10.699300220361334"><ele>271.0</ele><time>2026-03-28T13:12:43Z</time></trkpt><trkpt lat="45.60749758619319" lon="10.699188698137158"><ele>271.0</ele><time>2026-03-28T13:12:44Z</time></trkpt><trkpt lat="45.60739947803083" lon="10.699074207247934"><ele>271.0</ele><time>2026-03-28T13:12:45Z</time></trkpt><trkpt lat="45.60731575559402" lon="10.698964981408833"><ele>271.0</ele><time>2026-03-28T13:12:46Z</time></trkpt><trkpt lat="45.607280561389274" lon="10.698813462011902"><ele>271.0</ele><time>2026-03-28T13:12:47Z</time></trkpt><trkpt lat="45.60724678704214" lon="10.698664498505616"><ele>270.0</ele><time>2026-03-28T13:12:48Z</time></trkpt><trkpt lat="45.60720169582355" lon="10.698513874621174"><ele>269.0</ele><time>2026-03-28T13:12:49Z</time></trkpt><trkpt lat="45.60713357569763" lon="10.698352500968419"><ele>268.0</ele><time>2026-03-28T13:12:50Z</time></trkpt><trkpt lat="45.607046141387706" lon="10.698197771888367"><ele>267.0</ele><time>2026-03-28T13:12:51Z</time></trkpt><trkpt lat="45.60693259995573" lon="10.698061427458896"><ele>267.0</ele><time>2026-03-28T13:12:52Z</time></trkpt><trkpt lat="45.6068267096795" lon="10.697904088080696"><ele>267.0</ele><time>2026-03-28T13:12:53Z</time></trkpt><trkpt lat="45.60672565653533" lon="10.697748697165698"><ele>267.0</ele><time>2026-03-28T13:12:54Z</time></trkpt><trkpt lat="45.60663725186351" lon="10.69759512086271"><ele>267.0</ele><time>2026-03-28T13:12:55Z</time></trkpt><trkpt lat="45.606562706001206" lon="10.697458000490393"><ele>265.3333333333333</ele><time>2026-03-28T13:12:56Z</time></trkpt><trkpt lat="45.606491061481734" lon="10.697349442249259"><ele>263.6666666666667</ele><time>2026-03-28T13:12:57Z</time></trkpt><trkpt lat="45.6064499702599" lon="10.697234652818345"><ele>262.0</ele><time>2026-03-28T13:12:58Z</time></trkpt><trkpt lat="45.606443370327916" lon="10.697142093087587"><ele>260.33333333333337</ele><time>2026-03-28T13:12:59Z</time></trkpt><trkpt lat="45.6064637486285" lon="10.697028229114565"><ele>258.6666666666667</ele><time>2026-03-28T13:13:00Z</time></trkpt><trkpt lat="45.606472640829665" lon="10.696887858689342"><ele>257.0</ele><time>2026-03-28T13:13:01.001Z</time></trkpt><trkpt lat="45.60647994797086" lon="10.696740850844407"><ele>255.2</ele><time>2026-03-28T13:13:02.001Z</time></trkpt><trkpt lat="45.606487838668755" lon="10.696612441760152"><ele>253.39999999999998</ele><time>2026-03-28T13:13:03.001Z</time></trkpt><trkpt lat="45.60648978705266" lon="10.696482503441171"><ele>251.60000000000002</ele><time>2026-03-28T13:13:04.001Z</time></trkpt><trkpt lat="45.606469777980756" lon="10.69636490983998"><ele>249.8</ele><time>2026-03-28T13:13:05.001Z</time></trkpt><trkpt lat="45.606409423520475" lon="10.696261074472762"><ele>248.0</ele><time>2026-03-28T13:13:06.001Z</time></trkpt><trkpt lat="45.606315763723615" lon="10.696177071085645"><ele>247.75</ele><time>2026-03-28T13:13:07.001Z</time></trkpt><trkpt lat="45.606214270657354" lon="10.696076624446988"><ele>247.5</ele><time>2026-03-28T13:13:08.001Z</time></trkpt><trkpt lat="45.60611172391067" lon="10.695991849191286"><ele>247.25</ele><time>2026-03-28T13:13:09.001Z</time></trkpt><trkpt lat="45.606007849645664" lon="10.695895225584847"><ele>247.0</ele><time>2026-03-28T13:13:10.001Z</time></trkpt><trkpt lat="45.60590357148574" lon="10.69578192622732"><ele>247.0</ele><time>2026-03-28T13:13:11.001Z</time></trkpt><trkpt lat="45.605808775506524" lon="10.69564697797722"><ele>247.0</ele><time>2026-03-28T13:13:12.001Z</time></trkpt><trkpt lat="45.60571451671046" lon="10.695539824368879"><ele>247.0</ele><time>2026-03-28T13:13:13.001Z</time></trkpt><trkpt lat="45.60564406458823" lon="10.695422562845682"><ele>247.0</ele><time>2026-03-28T13:13:14.001Z</time></trkpt><trkpt lat="45.605569724190815" lon="10.695358621682061"><ele>247.0</ele><time>2026-03-28T13:13:15.001Z</time></trkpt><trkpt lat="45.60553198639744" lon="10.69522359504216"><ele>247.0</ele><time>2026-03-28T13:13:17.001Z</time></trkpt><trkpt lat="45.605720768042374" lon="10.695267343380326"><ele>247.0</ele><time>2026-03-28T13:13:20.001Z</time></trkpt><trkpt lat="45.60582820726063" lon="10.695360385351366"><ele>247.0</ele><time>2026-03-28T13:13:21.001Z</time></trkpt><trkpt lat="45.60594778086375" lon="10.695451728696753"><ele>247.0</ele><time>2026-03-28T13:13:22.001Z</time></trkpt><trkpt lat="45.606075144235106" lon="10.695532373735949"><ele>247.0</ele><time>2026-03-28T13:13:23.001Z</time></trkpt><trkpt lat="45.60619903292174" lon="10.695608369439908"><ele>247.0</ele><time>2026-03-28T13:13:24.001Z</time></trkpt><trkpt lat="45.60632248748752" lon="10.695684777278155"><ele>247.0</ele><time>2026-03-28T13:13:25.001Z</time></trkpt><trkpt lat="45.606438247146954" lon="10.695750122914252"><ele>243.5</ele><time>2026-03-28T13:13:26.001Z</time></trkpt><trkpt lat="45.6065503190324" lon="10.695815545924207"><ele>240.0</ele><time>2026-03-28T13:13:27.001Z</time></trkpt><trkpt lat="45.60665980000314" lon="10.69587345754445"><ele>236.5</ele><time>2026-03-28T13:13:28.001Z</time></trkpt><trkpt lat="45.60676618223298" lon="10.695924811152207"><ele>233.0</ele><time>2026-03-28T13:13:29.001Z</time></trkpt><trkpt lat="45.606863742297676" lon="10.69597816035274"><ele>233.00000000000003</ele><time>2026-03-28T13:13:30.002Z</time></trkpt><trkpt lat="45.60694348047617" lon="10.696056077581332"><ele>233.0</ele><time>2026-03-28T13:13:31.002Z</time></trkpt><trkpt lat="45.60701315072784" lon="10.696148707561195"><ele>233.0</ele><time>2026-03-28T13:13:32.002Z</time></trkpt><trkpt lat="45.607082705973035" lon="10.696219053678664"><ele>233.0</ele><time>2026-03-28T13:13:33.002Z</time></trkpt><trkpt lat="45.60714342654689" lon="10.696249048634472"><ele>233.00000000000003</ele><time>2026-03-28T13:13:34.002Z</time></trkpt><trkpt lat="45.60723614552434" lon="10.696251511870022"><ele>233.0</ele><time>2026-03-28T13:13:36.002Z</time></trkpt><trkpt lat="45.60723764452751" lon="10.696076298607263"><ele>233.0</ele><time>2026-03-28T13:13:37.002Z</time></trkpt><trkpt lat="45.607149907060496" lon="10.695999999463595"><ele>233.0</ele><time>2026-03-28T13:13:38.002Z</time></trkpt><trkpt lat="45.607072327849785" lon="10.695872796927432"><ele>233.0</ele><time>2026-03-28T13:13:39.002Z</time></trkpt><trkpt lat="45.60698203707996" lon="10.695745466018419"><ele>233.0</ele><time>2026-03-28T13:13:40.002Z</time></trkpt><trkpt lat="45.60687791634288" lon="10.695615055700266"><ele>233.0</ele><time>2026-03-28T13:13:41.002Z</time></trkpt><trkpt lat="45.60674464000256" lon="10.695505818021573"><ele>233.0</ele><time>2026-03-28T13:13:42.002Z</time></trkpt><trkpt lat="45.606619041072264" lon="10.695368797402457"><ele>233.0</ele><time>2026-03-28T13:13:43.002Z</time></trkpt><trkpt lat="45.60648582435604" lon="10.695245652374066"><ele>231.66666666666669</ele><time>2026-03-28T13:13:44.002Z</time></trkpt><trkpt lat="45.606344007158036" lon="10.695108192715185"><ele>230.33333333333331</ele><time>2026-03-28T13:13:45.002Z</time></trkpt><trkpt lat="45.60619474433329" lon="10.69498424444253"><ele>229.0</ele><time>2026-03-28T13:13:46.002Z</time></trkpt><trkpt lat="45.6060749834075" lon="10.694819364676837"><ele>229.0</ele><time>2026-03-28T13:13:47.002Z</time></trkpt><trkpt lat="45.6059438437996" lon="10.694653796997267"><ele>229.0</ele><time>2026-03-28T13:13:48.002Z</time></trkpt><trkpt lat="45.60582473873426" lon="10.694471743916809"><ele>229.0</ele><time>2026-03-28T13:13:49.002Z</time></trkpt><trkpt lat="45.60569723852034" lon="10.694292119839488"><ele>226.66666666666666</ele><time>2026-03-28T13:13:50.002Z</time></trkpt><trkpt lat="45.60555190780581" lon="10.694142009933921"><ele>224.33333333333331</ele><time>2026-03-28T13:13:51.002Z</time></trkpt><trkpt lat="45.60541847075045" lon="10.693980486628464"><ele>222.0</ele><time>2026-03-28T13:13:52.002Z</time></trkpt><trkpt lat="45.60526779484081" lon="10.693818226335548"><ele>222.0</ele><time>2026-03-28T13:13:53.002Z</time></trkpt><trkpt lat="45.605126146265015" lon="10.693679037025262"><ele>222.0</ele><time>2026-03-28T13:13:54.002Z</time></trkpt><trkpt lat="45.60500122882405" lon="10.693564496950854"><ele>222.0</ele><time>2026-03-28T13:13:55.002Z</time></trkpt><trkpt lat="45.60489374998761" lon="10.693444217493308"><ele>220.5</ele><time>2026-03-28T13:13:56.002Z</time></trkpt><trkpt lat="45.60477883639363" lon="10.693373666149952"><ele>219.0</ele><time>2026-03-28T13:13:57.002Z</time></trkpt><trkpt lat="45.604675019448415" lon="10.693260953280594"><ele>217.5</ele><time>2026-03-28T13:13:58.002Z</time></trkpt><trkpt lat="45.60454842777939" lon="10.693156353812265"><ele>216.0</ele><time>2026-03-28T13:13:59.002Z</time></trkpt><trkpt lat="45.60442508331547" lon="10.69304030304255"><ele>216.0</ele><time>2026-03-28T13:14:00.002Z</time></trkpt><trkpt lat="45.60429324182262" lon="10.692906282999637"><ele>216.0</ele><time>2026-03-28T13:14:01.002Z</time></trkpt><trkpt lat="45.604162571820076" lon="10.692769157006921"><ele>216.0</ele><time>2026-03-28T13:14:02.002Z</time></trkpt><trkpt lat="45.60401592714141" lon="10.692613571996427"><ele>216.0</ele><time>2026-03-28T13:14:03.003Z</time></trkpt><trkpt lat="45.603887917470686" lon="10.69245624686356"><ele>216.0</ele><time>2026-03-28T13:14:04.003Z</time></trkpt><trkpt lat="45.60376320355352" lon="10.692333963029496"><ele>216.0</ele><time>2026-03-28T13:14:05.003Z</time></trkpt><trkpt lat="45.603627766962376" lon="10.692239892546729"><ele>216.0</ele><time>2026-03-28T13:14:06.003Z</time></trkpt><trkpt lat="45.6034781344731" lon="10.692117698170145"><ele>216.0</ele><time>2026-03-28T13:14:07.003Z</time></trkpt><trkpt lat="45.60332629125624" lon="10.692005758393067"><ele>216.0</ele><time>2026-03-28T13:14:08.003Z</time></trkpt><trkpt lat="45.60316955712377" lon="10.69188705000672"><ele>212.0</ele><time>2026-03-28T13:14:09.003Z</time></trkpt><trkpt lat="45.603000385247185" lon="10.691783051608407"><ele>208.0</ele><time>2026-03-28T13:14:10.003Z</time></trkpt><trkpt lat="45.60286124051917" lon="10.691646892821252"><ele>204.0</ele><time>2026-03-28T13:14:11.003Z</time></trkpt><trkpt lat="45.6027376293884" lon="10.691523907354977"><ele>204.0</ele><time>2026-03-28T13:14:12.003Z</time></trkpt><trkpt lat="45.60262423974842" lon="10.691380692192464"><ele>204.0</ele><time>2026-03-28T13:14:13.003Z</time></trkpt><trkpt lat="45.60251669016935" lon="10.691242496810435"><ele>204.0</ele><time>2026-03-28T13:14:14.003Z</time></trkpt><trkpt lat="45.60240233882962" lon="10.691126266895026"><ele>204.0</ele><time>2026-03-28T13:14:15.003Z</time></trkpt><trkpt lat="45.60227889325731" lon="10.691042613342397"><ele>198.66666666666666</ele><time>2026-03-28T13:14:16.003Z</time></trkpt><trkpt lat="45.602140090526426" lon="10.690968777363247"><ele>193.33333333333331</ele><time>2026-03-28T13:14:17.003Z</time></trkpt><trkpt lat="45.60198475826078" lon="10.690895175223737"><ele>188.0</ele><time>2026-03-28T13:14:18.003Z</time></trkpt><trkpt lat="45.60182648247578" lon="10.690816758551804"><ele>188.0</ele><time>2026-03-28T13:14:19.003Z</time></trkpt><trkpt lat="45.60166226414617" lon="10.690740552526266"><ele>188.0</ele><time>2026-03-28T13:14:20.003Z</time></trkpt><trkpt lat="45.601497443922504" lon="10.690669359421426"><ele>188.0</ele><time>2026-03-28T13:14:21.003Z</time></trkpt><trkpt lat="45.60133516909012" lon="10.690598922620522"><ele>188.0</ele><time>2026-03-28T13:14:22.003Z</time></trkpt><trkpt lat="45.60120380103845" lon="10.6905379040358"><ele>188.0</ele><time>2026-03-28T13:14:23.003Z</time></trkpt><trkpt lat="45.60109362368665" lon="10.690458258139175"><ele>188.0</ele><time>2026-03-28T13:14:24.003Z</time></trkpt><trkpt lat="45.60099329133446" lon="10.690388252253976"><ele>188.0</ele><time>2026-03-28T13:14:25.003Z</time></trkpt><trkpt lat="45.60088692011769" lon="10.69035325708079"><ele>189.5</ele><time>2026-03-28T13:14:26.003Z</time></trkpt><trkpt lat="45.60079695965928" lon="10.690335070656356"><ele>191.0</ele><time>2026-03-28T13:14:27.003Z</time></trkpt><trkpt lat="45.60074193848952" lon="10.690290034492834"><ele>192.5</ele><time>2026-03-28T13:14:28.003Z</time></trkpt><trkpt lat="45.60076990538564" lon="10.690180526331618"><ele>194.0</ele><time>2026-03-28T13:14:30.999Z</time></trkpt><trkpt lat="45.600897029302565" lon="10.690213974191115"><ele>195.50000000000003</ele><time>2026-03-28T13:14:32.999Z</time></trkpt><trkpt lat="45.600978219368585" lon="10.690230827330543"><ele>197.0</ele><time>2026-03-28T13:14:33.999Z</time></trkpt><trkpt lat="45.60107592910564" lon="10.690237452637124"><ele>188.75</ele><time>2026-03-28T13:14:34.999Z</time></trkpt><trkpt lat="45.60118043893357" lon="10.690234920983746"><ele>180.5</ele><time>2026-03-28T13:14:35.999Z</time></trkpt><trkpt lat="45.60130160556521" lon="10.690224853877105"><ele>172.25</ele><time>2026-03-28T13:14:36.999Z</time></trkpt><trkpt lat="45.60142875287417" lon="10.690218942712708"><ele>164.0</ele><time>2026-03-28T13:14:37.999Z</time></trkpt><trkpt lat="45.60156230086904" lon="10.690221668207208"><ele>164.0</ele><time>2026-03-28T13:14:38.999Z</time></trkpt><trkpt lat="45.60170129417967" lon="10.69023586879172"><ele>164.0</ele><time>2026-03-28T13:14:39.999Z</time></trkpt><trkpt lat="45.601845299236864" lon="10.690248993824719"><ele>164.0</ele><time>2026-03-28T13:14:40.999Z</time></trkpt><trkpt lat="45.60199199027781" lon="10.690263316493938"><ele>164.0</ele><time>2026-03-28T13:14:41.999Z</time></trkpt><trkpt lat="45.60214110507325" lon="10.690267707573131"><ele>168.25</ele><time>2026-03-28T13:14:42.999Z</time></trkpt><trkpt lat="45.602295787525165" lon="10.690273216011272"><ele>172.5</ele><time>2026-03-28T13:14:43.999Z</time></trkpt><trkpt lat="45.60244446592956" lon="10.690286256795094"><ele>176.75</ele><time>2026-03-28T13:14:45Z</time></trkpt><trkpt lat="45.602586595353955" lon="10.690307701442167"><ele>181.0</ele><time>2026-03-28T13:14:46Z</time></trkpt><trkpt lat="45.602721910653685" lon="10.6903206485466"><ele>178.75</ele><time>2026-03-28T13:14:47Z</time></trkpt><trkpt lat="45.60285538067409" lon="10.690321052211722"><ele>176.5</ele><time>2026-03-28T13:14:48Z</time></trkpt><trkpt lat="45.60299658418113" lon="10.690325009986015"><ele>174.25</ele><time>2026-03-28T13:14:49Z</time></trkpt><trkpt lat="45.60314375302334" lon="10.690316610372811"><ele>172.0</ele><time>2026-03-28T13:14:50Z</time></trkpt><trkpt lat="45.603298466874875" lon="10.69030848508665"><ele>172.0</ele><time>2026-03-28T13:14:51Z</time></trkpt><trkpt lat="45.603457699176374" lon="10.690306903539952"><ele>172.0</ele><time>2026-03-28T13:14:52Z</time></trkpt><trkpt lat="45.60360950739684" lon="10.690306272151625"><ele>172.0</ele><time>2026-03-28T13:14:53Z</time></trkpt><trkpt lat="45.60376302453164" lon="10.690297598343944"><ele>170.25</ele><time>2026-03-28T13:14:54Z</time></trkpt><trkpt lat="45.60391493735722" lon="10.690295613890575"><ele>168.5</ele><time>2026-03-28T13:14:55Z</time></trkpt><trkpt lat="45.60406036072267" lon="10.690293891329473"><ele>166.75</ele><time>2026-03-28T13:14:56Z</time></trkpt><trkpt lat="45.60419534103887" lon="10.690295239663007"><ele>165.0</ele><time>2026-03-28T13:14:57Z</time></trkpt><trkpt lat="45.60432588981443" lon="10.690307264424721"><ele>165.0</ele><time>2026-03-28T13:14:58Z</time></trkpt><trkpt lat="45.60444844555787" lon="10.690344303313374"><ele>165.0</ele><time>2026-03-28T13:14:59Z</time></trkpt><trkpt lat="45.604573137037946" lon="10.690397919027932"><ele>165.0</ele><time>2026-03-28T13:15:00Z</time></trkpt><trkpt lat="45.604702908280245" lon="10.690451835024062"><ele>165.0</ele><time>2026-03-28T13:15:01Z</time></trkpt><trkpt lat="45.60482650003155" lon="10.69049299187789"><ele>162.0</ele><time>2026-03-28T13:15:02Z</time></trkpt><trkpt lat="45.60495119965954" lon="10.690512373489595"><ele>159.0</ele><time>2026-03-28T13:15:03Z</time></trkpt><trkpt lat="45.60507266346844" lon="10.690520479276186"><ele>156.0</ele><time>2026-03-28T13:15:04Z</time></trkpt><trkpt lat="45.60518991115464" lon="10.690531720381237"><ele>153.0</ele><time>2026-03-28T13:15:05.001Z</time></trkpt><trkpt lat="45.60530406377503" lon="10.690565981160841"><ele>149.0</ele><time>2026-03-28T13:15:06.001Z</time></trkpt><trkpt lat="45.60542371220503" lon="10.690625708792524"><ele>145.0</ele><time>2026-03-28T13:15:07.001Z</time></trkpt><trkpt lat="45.60553019024983" lon="10.690695078919058"><ele>141.0</ele><time>2026-03-28T13:15:08.001Z</time></trkpt><trkpt lat="45.60562325603431" lon="10.690777776242928"><ele>137.0</ele><time>2026-03-28T13:15:09.001Z</time></trkpt><trkpt lat="45.60571382300793" lon="10.690870323158151"><ele>137.0</ele><time>2026-03-28T13:15:10.001Z</time></trkpt><trkpt lat="45.60579692868744" lon="10.690952425405241"><ele>137.0</ele><time>2026-03-28T13:15:11.001Z</time></trkpt><trkpt lat="45.60586336125538" lon="10.691001259953966"><ele>137.0</ele><time>2026-03-28T13:15:12.001Z</time></trkpt><trkpt lat="45.60594869110505" lon="10.690989915589988"><ele>137.0</ele><time>2026-03-28T13:15:14.001Z</time></trkpt><trkpt lat="45.60587586893171" lon="10.690773132954439"><ele>137.0</ele><time>2026-03-28T13:15:16.001Z</time></trkpt><trkpt lat="45.60579730889612" lon="10.690678768109699"><ele>137.0</ele><time>2026-03-28T13:15:17.001Z</time></trkpt><trkpt lat="45.605710262166355" lon="10.690575864412862"><ele>137.0</ele><time>2026-03-28T13:15:18.001Z</time></trkpt><trkpt lat="45.605601012014915" lon="10.690474143134304"><ele>137.0</ele><time>2026-03-28T13:15:19.001Z</time></trkpt><trkpt lat="45.60549245815262" lon="10.69034817921794"><ele>137.0</ele><time>2026-03-28T13:15:20.001Z</time></trkpt><trkpt lat="45.605371478117995" lon="10.690209003527892"><ele>136.0</ele><time>2026-03-28T13:15:21.001Z</time></trkpt><trkpt lat="45.60523969737128" lon="10.690071486900418"><ele>135.0</ele><time>2026-03-28T13:15:22.001Z</time></trkpt><trkpt lat="45.605099342759395" lon="10.689930768412438"><ele>134.0</ele><time>2026-03-28T13:15:23.001Z</time></trkpt><trkpt lat="45.60496483772384" lon="10.68982214617874"><ele>134.0</ele><time>2026-03-28T13:15:24.001Z</time></trkpt><trkpt lat="45.60484052570989" lon="10.689709986025079"><ele>134.0</ele><time>2026-03-28T13:15:25.001Z</time></trkpt><trkpt lat="45.60471880181524" lon="10.68961487782443"><ele>134.0</ele><time>2026-03-28T13:15:26.001Z</time></trkpt><trkpt lat="45.60461235350748" lon="10.68952730100445"><ele>134.0</ele><time>2026-03-28T13:15:27.001Z</time></trkpt><trkpt lat="45.6045123967668" lon="10.689452428113785"><ele>132.6</ele><time>2026-03-28T13:15:28.001Z</time></trkpt><trkpt lat="45.60443379013778" lon="10.689382212794222"><ele>131.2</ele><time>2026-03-28T13:15:29.001Z</time></trkpt><trkpt lat="45.604375649727736" lon="10.689321994134001"><ele>129.79999999999998</ele><time>2026-03-28T13:15:30.001Z</time></trkpt><trkpt lat="45.60436562370935" lon="10.689197144474107"><ele>128.4</ele><time>2026-03-28T13:15:32.001Z</time></trkpt><trkpt lat="45.60450250031048" lon="10.689185475872407"><ele>127.0</ele><time>2026-03-28T13:15:34.001Z</time></trkpt><trkpt lat="45.60461133902562" lon="10.689248088712121"><ele>125.25</ele><time>2026-03-28T13:15:35.002Z</time></trkpt><trkpt lat="45.60472579375984" lon="10.68928798532413"><ele>123.5</ele><time>2026-03-28T13:15:36.002Z</time></trkpt><trkpt lat="45.604855688053114" lon="10.689314311261814"><ele>121.75</ele><time>2026-03-28T13:15:37.002Z</time></trkpt><trkpt lat="45.60499453227272" lon="10.689328384354244"><ele>120.0</ele><time>2026-03-28T13:15:38.002Z</time></trkpt><trkpt lat="45.60513517444984" lon="10.6893484588029"><ele>120.0</ele><time>2026-03-28T13:15:39.002Z</time></trkpt><trkpt lat="45.60525872061794" lon="10.689399006438242"><ele>120.0</ele><time>2026-03-28T13:15:40.002Z</time></trkpt><trkpt lat="45.60537152004259" lon="10.689468409749425"><ele>120.0</ele><time>2026-03-28T13:15:41.002Z</time></trkpt><trkpt lat="45.60549362048628" lon="10.689536227272432"><ele>120.0</ele><time>2026-03-28T13:15:42.002Z</time></trkpt><trkpt lat="45.60563029275349" lon="10.689602013727134"><ele>120.25</ele><time>2026-03-28T13:15:43.002Z</time></trkpt><trkpt lat="45.60577407990744" lon="10.689676484281312"><ele>120.5</ele><time>2026-03-28T13:15:44.002Z</time></trkpt><trkpt lat="45.60590835688905" lon="10.689753065296388"><ele>120.75</ele><time>2026-03-28T13:15:45.002Z</time></trkpt><trkpt lat="45.60602141981709" lon="10.689836843389472"><ele>121.0</ele><time>2026-03-28T13:15:46.002Z</time></trkpt><trkpt lat="45.60612108563928" lon="10.689933468230837"><ele>121.16666666666667</ele><time>2026-03-28T13:15:47.002Z</time></trkpt><trkpt lat="45.60620387541609" lon="10.690028340694473"><ele>121.33333333333334</ele><time>2026-03-28T13:15:48.002Z</time></trkpt><trkpt lat="45.60626931712878" lon="10.690119821798948"><ele>121.5</ele><time>2026-03-28T13:15:49.002Z</time></trkpt><trkpt lat="45.60633061415194" lon="10.690206665598772"><ele>121.66666666666666</ele><time>2026-03-28T13:15:50.002Z</time></trkpt><trkpt lat="45.60639353283923" lon="10.690277769384924"><ele>121.83333333333333</ele><time>2026-03-28T13:15:51.002Z</time></trkpt><trkpt lat="45.60646495992727" lon="10.690339300742318"><ele>122.0</ele><time>2026-03-28T13:15:52.002Z</time></trkpt><trkpt lat="45.606558149794424" lon="10.69041063054727"><ele>122.0</ele><time>2026-03-28T13:15:53.002Z</time></trkpt><trkpt lat="45.606644980720645" lon="10.690478080620109"><ele>121.99999999999999</ele><time>2026-03-28T13:15:54.002Z</time></trkpt><trkpt lat="45.60672449901045" lon="10.690541536109999"><ele>121.99999999999999</ele><time>2026-03-28T13:15:55.002Z</time></trkpt><trkpt lat="45.60680847947066" lon="10.690587171572021"><ele>122.0</ele><time>2026-03-28T13:15:56.002Z</time></trkpt><trkpt lat="45.60691069975746" lon="10.690666603362473"><ele>122.0</ele><time>2026-03-28T13:15:57.002Z</time></trkpt><trkpt lat="45.6070403190598" lon="10.690730770106045"><ele>117.5</ele><time>2026-03-28T13:15:58.002Z</time></trkpt><trkpt lat="45.60718070481696" lon="10.69078992819057"><ele>113.0</ele><time>2026-03-28T13:15:59.002Z</time></trkpt><trkpt lat="45.607324022168456" lon="10.690846273010823"><ele>108.5</ele><time>2026-03-28T13:16:00.002Z</time></trkpt><trkpt lat="45.607462115766985" lon="10.6909078590747"><ele>104.0</ele><time>2026-03-28T13:16:01.002Z</time></trkpt><trkpt lat="45.60758948427435" lon="10.690958725915976"><ele>104.0</ele><time>2026-03-28T13:16:02.002Z</time></trkpt><trkpt lat="45.60770526405925" lon="10.691014326089439"><ele>104.0</ele><time>2026-03-28T13:16:03.002Z</time></trkpt><trkpt lat="45.60780721079716" lon="10.69106980060207"><ele>104.0</ele><time>2026-03-28T13:16:04.002Z</time></trkpt><trkpt lat="45.60790387986323" lon="10.691126901529369"><ele>104.0</ele><time>2026-03-28T13:16:05.002Z</time></trkpt><trkpt lat="45.607993206834166" lon="10.691169642448134"><ele>104.0</ele><time>2026-03-28T13:16:06.002Z</time></trkpt><trkpt lat="45.60808144789013" lon="10.691179340423455"><ele>105.25</ele><time>2026-03-28T13:16:07.003Z</time></trkpt><trkpt lat="45.6081865699524" lon="10.69118711463833"><ele>106.5</ele><time>2026-03-28T13:16:08.003Z</time></trkpt><trkpt lat="45.60830137304826" lon="10.69121740526742"><ele>107.75</ele><time>2026-03-28T13:16:09.003Z</time></trkpt><trkpt lat="45.608424901904996" lon="10.691199684974245"><ele>109.0</ele><time>2026-03-28T13:16:10.003Z</time></trkpt><trkpt lat="45.60855538278623" lon="10.691198647832113"><ele>106.5</ele><time>2026-03-28T13:16:11.003Z</time></trkpt><trkpt lat="45.60868042867318" lon="10.691193147577222"><ele>104.0</ele><time>2026-03-28T13:16:12.003Z</time></trkpt><trkpt lat="45.60879964789964" lon="10.691188268909485"><ele>101.5</ele><time>2026-03-28T13:16:13.003Z</time></trkpt><trkpt lat="45.60891889259269" lon="10.691190807710294"><ele>99.0</ele><time>2026-03-28T13:16:14.003Z</time></trkpt><trkpt lat="45.60904523179255" lon="10.691185171735345"><ele>99.0</ele><time>2026-03-28T13:16:15.003Z</time></trkpt><trkpt lat="45.60917996977619" lon="10.691193339169267"><ele>99.0</ele><time>2026-03-28T13:16:16.003Z</time></trkpt><trkpt lat="45.609306971310666" lon="10.69120642056023"><ele>99.0</ele><time>2026-03-28T13:16:17.003Z</time></trkpt><trkpt lat="45.60942519378397" lon="10.691215705596642"><ele>99.0</ele><time>2026-03-28T13:16:18.003Z</time></trkpt><trkpt lat="45.609534234761355" lon="10.691205557879156"><ele>98.6</ele><time>2026-03-28T13:16:19.003Z</time></trkpt><trkpt lat="45.60963605522166" lon="10.691171269048565"><ele>98.2</ele><time>2026-03-28T13:16:20.003Z</time></trkpt><trkpt lat="45.60971982467986" lon="10.691107029464174"><ele>97.8</ele><time>2026-03-28T13:16:21.003Z</time></trkpt><trkpt lat="45.60978192221167" lon="10.691015725894204"><ele>97.39999999999999</ele><time>2026-03-28T13:16:22.003Z</time></trkpt><trkpt lat="45.60981157000234" lon="10.69089546714449"><ele>97.0</ele><time>2026-03-28T13:16:23.003Z</time></trkpt><trkpt lat="45.609831007107964" lon="10.690757526741798"><ele>95.0</ele><time>2026-03-28T13:16:24.003Z</time></trkpt><trkpt lat="45.60984531207447" lon="10.690603962974322"><ele>93.0</ele><time>2026-03-28T13:16:25.003Z</time></trkpt><trkpt lat="45.60985603594487" lon="10.690443333825126"><ele>91.0</ele><time>2026-03-28T13:16:26.003Z</time></trkpt><trkpt lat="45.60985203383874" lon="10.690271081112257"><ele>89.0</ele><time>2026-03-28T13:16:27.003Z</time></trkpt><trkpt lat="45.609838587078166" lon="10.690099071805248"><ele>87.80000000000001</ele><time>2026-03-28T13:16:28.003Z</time></trkpt><trkpt lat="45.609821453387674" lon="10.6899254413732"><ele>86.60000000000001</ele><time>2026-03-28T13:16:29.003Z</time></trkpt><trkpt lat="45.6098090823767" lon="10.689752654836283"><ele>85.4</ele><time>2026-03-28T13:16:30.003Z</time></trkpt><trkpt lat="45.60982914491913" lon="10.689594538099284"><ele>84.2</ele><time>2026-03-28T13:16:31.003Z</time></trkpt><trkpt lat="45.60983613302251" lon="10.689469731130602"><ele>83.0</ele><time>2026-03-28T13:16:32.003Z</time></trkpt><trkpt lat="45.60984667118962" lon="10.689301375835637"><ele>82.0</ele><time>2026-03-28T13:16:34.003Z</time></trkpt><trkpt lat="45.60987174100156" lon="10.689204759973345"><ele>81.0</ele><time>2026-03-28T13:16:34.999Z</time></trkpt><trkpt lat="45.60989123320672" lon="10.689095712326381"><ele>80.0</ele><time>2026-03-28T13:16:35.999Z</time></trkpt><trkpt lat="45.60991206649591" lon="10.68896228435208"><ele>79.0</ele><time>2026-03-28T13:16:37.999Z</time></trkpt><trkpt lat="45.60993931370342" lon="10.68883775961888"><ele>78.0</ele><time>2026-03-28T13:16:40.999Z</time></trkpt><trkpt lat="45.60994414238142" lon="10.688734179576329"><ele>77.0</ele><time>2026-03-28T13:16:41.999Z</time></trkpt><trkpt lat="45.60997373318993" lon="10.6886269422996"><ele>76.2</ele><time>2026-03-28T13:16:42.999Z</time></trkpt><trkpt lat="45.60998434468229" lon="10.6885261047439"><ele>75.4</ele><time>2026-03-28T13:16:43.999Z</time></trkpt><trkpt lat="45.609992753407575" lon="10.688436810148719"><ele>74.6</ele><time>2026-03-28T13:16:44.999Z</time></trkpt><trkpt lat="45.6097903815144" lon="10.68841493885388"><ele>73.8</ele><time>2026-03-28T13:16:48.999Z</time></trkpt><trkpt lat="45.60971870332601" lon="10.688444315213056"><ele>73.0</ele><time>2026-03-28T13:16:50Z</time></trkpt><trkpt lat="45.609652535020004" lon="10.688480600899219"><ele>73.0</ele><time>2026-03-28T13:16:51Z</time></trkpt><trkpt lat="45.60955607249506" lon="10.688494331450725"><ele>73.0</ele><time>2026-03-28T13:16:53Z</time></trkpt><trkpt lat="45.60950322026394" lon="10.688403025217973"><ele>73.0</ele><time>2026-03-28T13:16:54Z</time></trkpt><trkpt lat="45.609417377990546" lon="10.688344189502313"><ele>73.0</ele><time>2026-03-28T13:16:55Z</time></trkpt><trkpt lat="45.6093176968718" lon="10.68826387300531"><ele>73.0</ele><time>2026-03-28T13:16:56Z</time></trkpt><trkpt lat="45.609201576486484" lon="10.688190627238834"><ele>73.0</ele><time>2026-03-28T13:16:57Z</time></trkpt><trkpt lat="45.60909011153476" lon="10.688097660888747"><ele>73.0</ele><time>2026-03-28T13:16:58Z</time></trkpt><trkpt lat="45.608975775548046" lon="10.68801294880576"><ele>73.0</ele><time>2026-03-28T13:16:59Z</time></trkpt><trkpt lat="45.60886514955048" lon="10.687922228554314"><ele>73.0</ele><time>2026-03-28T13:17:00Z</time></trkpt><trkpt lat="45.60874306696055" lon="10.687857826895652"><ele>73.0</ele><time>2026-03-28T13:17:01Z</time></trkpt><trkpt lat="45.60863841467994" lon="10.687809763878827"><ele>73.0</ele><time>2026-03-28T13:17:02Z</time></trkpt><trkpt lat="45.60852702564534" lon="10.687762549554664"><ele>73.0</ele><time>2026-03-28T13:17:03Z</time></trkpt><trkpt lat="45.60841802978229" lon="10.687740569971963"><ele>73.0</ele><time>2026-03-28T13:17:04Z</time></trkpt><trkpt lat="45.608316259751" lon="10.687703738196591"><ele>73.0</ele><time>2026-03-28T13:17:05Z</time></trkpt><trkpt lat="45.608223810660164" lon="10.687654107932717"><ele>73.0</ele><time>2026-03-28T13:17:06Z</time></trkpt><trkpt lat="45.608142792035096" lon="10.687625627602774"><ele>73.0</ele><time>2026-03-28T13:17:07Z</time></trkpt><trkpt lat="45.60802519189138" lon="10.68758005414814"><ele>73.0</ele><time>2026-03-28T13:17:08Z</time></trkpt><trkpt lat="45.607901795960416" lon="10.687527130246416"><ele>73.0</ele><time>2026-03-28T13:17:09Z</time></trkpt><trkpt lat="45.60777927882593" lon="10.687454322096958"><ele>73.5</ele><time>2026-03-28T13:17:10Z</time></trkpt><trkpt lat="45.60765506470675" lon="10.687368766052229"><ele>74.0</ele><time>2026-03-28T13:17:11.001Z</time></trkpt><trkpt lat="45.607517557916175" lon="10.687291267848876"><ele>74.5</ele><time>2026-03-28T13:17:12.001Z</time></trkpt><trkpt lat="45.607382604776085" lon="10.687221065428522"><ele>75.0</ele><time>2026-03-28T13:17:13.001Z</time></trkpt><trkpt lat="45.60726958393558" lon="10.68717599746208"><ele>75.0</ele><time>2026-03-28T13:17:14.001Z</time></trkpt><trkpt lat="45.60716885413563" lon="10.687160686907731"><ele>75.0</ele><time>2026-03-28T13:17:15.001Z</time></trkpt><trkpt lat="45.607056548268936" lon="10.68717917952973"><ele>75.0</ele><time>2026-03-28T13:17:17.001Z</time></trkpt><trkpt lat="45.60696292806331" lon="10.687159301801268"><ele>75.0</ele><time>2026-03-28T13:17:18.001Z</time></trkpt><trkpt lat="45.606850188001765" lon="10.687151317684775"><ele>75.0</ele><time>2026-03-28T13:17:19.001Z</time></trkpt><trkpt lat="45.60672778087472" lon="10.68714291447582"><ele>75.25</ele><time>2026-03-28T13:17:20.001Z</time></trkpt><trkpt lat="45.606604085862244" lon="10.687133913120617"><ele>75.5</ele><time>2026-03-28T13:17:21.001Z</time></trkpt><trkpt lat="45.60647346781564" lon="10.687121448390753"><ele>75.75</ele><time>2026-03-28T13:17:22.001Z</time></trkpt><trkpt lat="45.606345734059744" lon="10.687128237623806"><ele>76.0</ele><time>2026-03-28T13:17:23.001Z</time></trkpt><trkpt lat="45.60622723457403" lon="10.687104603162464"><ele>75.39999999999999</ele><time>2026-03-28T13:17:24.001Z</time></trkpt><trkpt lat="45.60612420904742" lon="10.687088601226577"><ele>74.8</ele><time>2026-03-28T13:17:25.001Z</time></trkpt><trkpt lat="45.606046349946205" lon="10.687083665185526"><ele>74.19999999999999</ele><time>2026-03-28T13:17:26.001Z</time></trkpt><trkpt lat="45.605964477724" lon="10.6870383679482"><ele>73.6</ele><time>2026-03-28T13:17:28.001Z</time></trkpt><trkpt lat="45.605977535628746" lon="10.686830608030458"><ele>73.0</ele><time>2026-03-28T13:17:30.001Z</time></trkpt><trkpt lat="45.60595321924093" lon="10.686662337522305"><ele>73.0</ele><time>2026-03-28T13:17:31.001Z</time></trkpt><trkpt lat="45.60594138076314" lon="10.686505798753496"><ele>73.0</ele><time>2026-03-28T13:17:32.001Z</time></trkpt><trkpt lat="45.60592427358252" lon="10.686370119139138"><ele>73.0</ele><time>2026-03-28T13:17:33.001Z</time></trkpt><trkpt lat="45.60591443314657" lon="10.686265189166418"><ele>73.0</ele><time>2026-03-28T13:17:34.001Z</time></trkpt><trkpt lat="45.60591146705613" lon="10.686143199050674"><ele>73.0</ele><time>2026-03-28T13:17:36.001Z</time></trkpt><trkpt lat="45.60591230293792" lon="10.685978841106552"><ele>72.16666666666666</ele><time>2026-03-28T13:17:41.002Z</time></trkpt><trkpt lat="45.605908960511236" lon="10.68587505712245"><ele>71.33333333333333</ele><time>2026-03-28T13:17:42.002Z</time></trkpt><trkpt lat="45.60590443373682" lon="10.685734498962077"><ele>70.5</ele><time>2026-03-28T13:17:44.002Z</time></trkpt><trkpt lat="45.60590135736276" lon="10.685638976247388"><ele>69.66666666666667</ele><time>2026-03-28T13:17:47.002Z</time></trkpt><trkpt lat="45.605802444852245" lon="10.685548041764074"><ele>68.83333333333334</ele><time>2026-03-28T13:17:50.002Z</time></trkpt><trkpt lat="45.60576827637179" lon="10.685453566600781"><ele>68.0</ele><time>2026-03-28T13:17:52.002Z</time></trkpt><trkpt lat="45.60542228163131" lon="10.684786947192181"><ele>67.33333333333334</ele><time>2026-03-28T13:21:31.001Z</time></trkpt><trkpt lat="45.60536789474452" lon="10.684849768266833"><ele>66.66666666666667</ele><time>2026-03-28T13:24:58.999Z</time></trkpt><trkpt lat="45.60546696426155" lon="10.68468997847927"><ele>66.0</ele><time>2026-03-28T13:29:15.999Z</time></trkpt><trkpt lat="45.60544133738207" lon="10.684590284671659"><ele>65.33333333333333</ele><time>2026-03-28T13:29:20.999Z</time></trkpt><trkpt lat="45.60539771795779" lon="10.68448620152635"><ele>64.66666666666666</ele><time>2026-03-28T13:29:25.999Z</time></trkpt><trkpt lat="45.605369312611195" lon="10.684399460408768"><ele>64.0</ele><time>2026-03-28T13:29:29Z</time></trkpt><trkpt lat="45.6053446283885" lon="10.684279022092626"><ele>63.83333333333333</ele><time>2026-03-28T13:29:33Z</time></trkpt><trkpt lat="45.60531819304763" lon="10.68417621321192"><ele>63.666666666666664</ele><time>2026-03-28T13:29:36Z</time></trkpt><trkpt lat="45.60530856894641" lon="10.684076732339289"><ele>63.5</ele><time>2026-03-28T13:29:39Z</time></trkpt><trkpt lat="45.60529607258759" lon="10.683978114085901"><ele>63.33333333333333</ele><time>2026-03-28T13:29:42Z</time></trkpt><trkpt lat="45.605280938918185" lon="10.683888372292426"><ele>63.166666666666664</ele><time>2026-03-28T13:29:44Z</time></trkpt><trkpt lat="45.605265542180064" lon="10.683767116208921"><ele>63.0</ele><time>2026-03-28T13:29:47Z</time></trkpt><trkpt lat="45.60525914467167" lon="10.683641779962386"><ele>62.85714285714286</ele><time>2026-03-28T13:29:50Z</time></trkpt><trkpt lat="45.60525061436132" lon="10.683537441730406"><ele>62.714285714285715</ele><time>2026-03-28T13:29:52Z</time></trkpt><trkpt lat="45.60524602503859" lon="10.683436230580197"><ele>62.57142857142857</ele><time>2026-03-28T13:29:54Z</time></trkpt><trkpt lat="45.605243831371865" lon="10.68333083648965"><ele>62.42857142857143</ele><time>2026-03-28T13:29:56.001Z</time></trkpt><trkpt lat="45.60524675786252" lon="10.683220612613908"><ele>62.28571428571429</ele><time>2026-03-28T13:29:58.001Z</time></trkpt><trkpt lat="45.60525518439465" lon="10.683110804261219"><ele>62.142857142857146</ele><time>2026-03-28T13:30:00.001Z</time></trkpt><trkpt lat="45.60525478659797" lon="10.683015407688728"><ele>62.0</ele><time>2026-03-28T13:30:02.001Z</time></trkpt><trkpt lat="45.6052724714869" lon="10.68290734369096"><ele>62.00000000000001</ele><time>2026-03-28T13:30:04.001Z</time></trkpt><trkpt lat="45.6052876434052" lon="10.682799654341723"><ele>62.0</ele><time>2026-03-28T13:30:06.001Z</time></trkpt><trkpt lat="45.60530744245398" lon="10.682685968568949"><ele>62.0</ele><time>2026-03-28T13:30:08.001Z</time></trkpt><trkpt lat="45.60533163838668" lon="10.682571008821562"><ele>62.0</ele><time>2026-03-28T13:30:10.001Z</time></trkpt><trkpt lat="45.605354695183244" lon="10.682447062427626"><ele>62.00000000000001</ele><time>2026-03-28T13:30:12.001Z</time></trkpt><trkpt lat="45.605378774703006" lon="10.682325505262623"><ele>62.0</ele><time>2026-03-28T13:30:14.001Z</time></trkpt><trkpt lat="45.6054066345298" lon="10.682204601932323"><ele>62.0</ele><time>2026-03-28T13:30:16.001Z</time></trkpt><trkpt lat="45.60543479529363" lon="10.682083111898452"><ele>62.0</ele><time>2026-03-28T13:30:18.001Z</time></trkpt><trkpt lat="45.605463237072705" lon="10.681954190165387"><ele>62.0</ele><time>2026-03-28T13:30:20.001Z</time></trkpt><trkpt lat="45.60549399812066" lon="10.681829228711752"><ele>62.0</ele><time>2026-03-28T13:30:22.001Z</time></trkpt><trkpt lat="45.60552478835182" lon="10.68169972368078"><ele>62.0</ele><time>2026-03-28T13:30:24.001Z</time></trkpt><trkpt lat="45.605552980543266" lon="10.681570127358212"><ele>62.0</ele><time>2026-03-28T13:30:26.001Z</time></trkpt><trkpt lat="45.60558697627117" lon="10.681440962693205"><ele>62.0</ele><time>2026-03-28T13:30:28.001Z</time></trkpt><trkpt lat="45.605626302594914" lon="10.681308437970635"><ele>62.0</ele><time>2026-03-28T13:30:30.002Z</time></trkpt><trkpt lat="45.60567090075422" lon="10.681177421639891"><ele>62.0</ele><time>2026-03-28T13:30:32.002Z</time></trkpt><trkpt lat="45.60571328696781" lon="10.681048791358855"><ele>62.0</ele><time>2026-03-28T13:30:34.002Z</time></trkpt><trkpt lat="45.60575696281379" lon="10.680918937148896"><ele>62.0</ele><time>2026-03-28T13:30:36.002Z</time></trkpt><trkpt lat="45.60580448908961" lon="10.680794312691386"><ele>62.0</ele><time>2026-03-28T13:30:38.002Z</time></trkpt><trkpt lat="45.60584769602468" lon="10.680665240664947"><ele>62.0</ele><time>2026-03-28T13:30:40.002Z</time></trkpt><trkpt lat="45.60589250990059" lon="10.680535303226208"><ele>62.0</ele><time>2026-03-28T13:30:42.002Z</time></trkpt><trkpt lat="45.60593756587002" lon="10.680406240816533"><ele>62.0</ele><time>2026-03-28T13:30:44.002Z</time></trkpt><trkpt lat="45.60598220479642" lon="10.680276148973753"><ele>62.0</ele><time>2026-03-28T13:30:46.002Z</time></trkpt><trkpt lat="45.60602571328206" lon="10.680144750758798"><ele>62.0</ele><time>2026-03-28T13:30:48.002Z</time></trkpt><trkpt lat="45.60606937959652" lon="10.680014907062136"><ele>62.0</ele><time>2026-03-28T13:30:50.002Z</time></trkpt><trkpt lat="45.606109727575756" lon="10.679877905403393"><ele>62.0</ele><time>2026-03-28T13:30:52.002Z</time></trkpt><trkpt lat="45.6061537543049" lon="10.679745720925736"><ele>62.0</ele><time>2026-03-28T13:30:54.002Z</time></trkpt><trkpt lat="45.60619502048385" lon="10.67961427952272"><ele>62.0</ele><time>2026-03-28T13:30:56.002Z</time></trkpt><trkpt lat="45.60623618095635" lon="10.679483900274343"><ele>62.0</ele><time>2026-03-28T13:30:58.002Z</time></trkpt><trkpt lat="45.60627758191876" lon="10.679349817036078"><ele>62.0</ele><time>2026-03-28T13:31:00.002Z</time></trkpt><trkpt lat="45.60631895769979" lon="10.679213102916682"><ele>62.0</ele><time>2026-03-28T13:31:02.002Z</time></trkpt><trkpt lat="45.606362047853096" lon="10.679078977566006"><ele>62.0</ele><time>2026-03-28T13:31:04.002Z</time></trkpt><trkpt lat="45.6064038164907" lon="10.678944726760552"><ele>62.0</ele><time>2026-03-28T13:31:06.003Z</time></trkpt><trkpt lat="45.60644361604695" lon="10.678809562485911"><ele>62.0</ele><time>2026-03-28T13:31:08.003Z</time></trkpt><trkpt lat="45.606486991096126" lon="10.678672264453688"><ele>62.0</ele><time>2026-03-28T13:31:10.003Z</time></trkpt><trkpt lat="45.60652524270979" lon="10.67853834100011"><ele>62.0</ele><time>2026-03-28T13:31:12.003Z</time></trkpt><trkpt lat="45.60656578086403" lon="10.678402209087057"><ele>62.0</ele><time>2026-03-28T13:31:14.003Z</time></trkpt><trkpt lat="45.60660655494803" lon="10.678267443958294"><ele>62.0</ele><time>2026-03-28T13:31:16.003Z</time></trkpt><trkpt lat="45.60664386860545" lon="10.678135323984014"><ele>62.0</ele><time>2026-03-28T13:31:18Z</time></trkpt><trkpt lat="45.60668244395174" lon="10.677996553562982"><ele>62.0</ele><time>2026-03-28T13:31:20Z</time></trkpt><trkpt lat="45.60672136369409" lon="10.677860368915589"><ele>62.0</ele><time>2026-03-28T13:31:22Z</time></trkpt><trkpt lat="45.6067618988728" lon="10.677725686720974"><ele>62.0</ele><time>2026-03-28T13:31:24Z</time></trkpt><trkpt lat="45.60680112742933" lon="10.677592997923117"><ele>62.0</ele><time>2026-03-28T13:31:26Z</time></trkpt><trkpt lat="45.60684135005337" lon="10.677458574801266"><ele>62.0</ele><time>2026-03-28T13:31:28Z</time></trkpt><trkpt lat="45.60688203021859" lon="10.677324672412414"><ele>62.0</ele><time>2026-03-28T13:31:30Z</time></trkpt><trkpt lat="45.60692304300343" lon="10.677190110903922"><ele>62.0</ele><time>2026-03-28T13:31:32.001Z</time></trkpt><trkpt lat="45.60696575558508" lon="10.677049312030706"><ele>62.0</ele><time>2026-03-28T13:31:34.001Z</time></trkpt><trkpt lat="45.60700620141924" lon="10.676911901362745"><ele>62.0</ele><time>2026-03-28T13:31:36.001Z</time></trkpt><trkpt lat="45.607043166872316" lon="10.676773741313896"><ele>62.0</ele><time>2026-03-28T13:31:38.001Z</time></trkpt><trkpt lat="45.607082470488095" lon="10.676635709760129"><ele>62.0</ele><time>2026-03-28T13:31:40.001Z</time></trkpt><trkpt lat="45.60712032109218" lon="10.676501435261974"><ele>62.0</ele><time>2026-03-28T13:31:42.001Z</time></trkpt><trkpt lat="45.607158084940636" lon="10.676366169753496"><ele>62.0</ele><time>2026-03-28T13:31:44.001Z</time></trkpt><trkpt lat="45.60719865592566" lon="10.6762316181224"><ele>62.0</ele><time>2026-03-28T13:31:46.001Z</time></trkpt><trkpt lat="45.60723638668583" lon="10.676090675947718"><ele>62.0</ele><time>2026-03-28T13:31:48.001Z</time></trkpt><trkpt lat="45.60727635873819" lon="10.675950587851334"><ele>62.0</ele><time>2026-03-28T13:31:50.001Z</time></trkpt><trkpt lat="45.60731637377978" lon="10.6758106277979"><ele>62.0</ele><time>2026-03-28T13:31:52.001Z</time></trkpt><trkpt lat="45.607357119693944" lon="10.675674102046257"><ele>62.0</ele><time>2026-03-28T13:31:54.001Z</time></trkpt><trkpt lat="45.60740001766631" lon="10.675535143712398"><ele>62.0</ele><time>2026-03-28T13:31:56.001Z</time></trkpt><trkpt lat="45.60744242445462" lon="10.675398870448262"><ele>62.0</ele><time>2026-03-28T13:31:58.001Z</time></trkpt><trkpt lat="45.60748438342739" lon="10.675267322082734"><ele>62.0</ele><time>2026-03-28T13:32:00.001Z</time></trkpt><trkpt lat="45.607525494012755" lon="10.675131764213466"><ele>62.0</ele><time>2026-03-28T13:32:02.001Z</time></trkpt><trkpt lat="45.60756887738446" lon="10.674994998537015"><ele>62.0</ele><time>2026-03-28T13:32:04.001Z</time></trkpt><trkpt lat="45.60761185684322" lon="10.674864867464372"><ele>62.0</ele><time>2026-03-28T13:32:06.001Z</time></trkpt><trkpt lat="45.60765667846606" lon="10.674733048507157"><ele>62.0</ele><time>2026-03-28T13:32:08.001Z</time></trkpt><trkpt lat="45.607703747075554" lon="10.674597322948394"><ele>62.0</ele><time>2026-03-28T13:32:10.001Z</time></trkpt><trkpt lat="45.60774593502242" lon="10.674464121989667"><ele>62.0</ele><time>2026-03-28T13:32:12.001Z</time></trkpt><trkpt lat="45.60779111507508" lon="10.674324162677637"><ele>62.0</ele><time>2026-03-28T13:32:14.002Z</time></trkpt><trkpt lat="45.60783764835213" lon="10.67419058471174"><ele>62.0</ele><time>2026-03-28T13:32:16.002Z</time></trkpt><trkpt lat="45.607883276803676" lon="10.674054493101336"><ele>62.0</ele><time>2026-03-28T13:32:18.002Z</time></trkpt><trkpt lat="45.60793071282596" lon="10.673916609145444"><ele>62.0</ele><time>2026-03-28T13:32:20.002Z</time></trkpt><trkpt lat="45.607975589821145" lon="10.673779712878959"><ele>62.0</ele><time>2026-03-28T13:32:22.002Z</time></trkpt><trkpt lat="45.60801878508327" lon="10.67364376932577"><ele>62.0</ele><time>2026-03-28T13:32:24.002Z</time></trkpt><trkpt lat="45.60805701943596" lon="10.673508490478286"><ele>62.0</ele><time>2026-03-28T13:32:26.002Z</time></trkpt><trkpt lat="45.608098377070725" lon="10.673374267624851"><ele>62.0</ele><time>2026-03-28T13:32:28.002Z</time></trkpt><trkpt lat="45.60814068223982" lon="10.673240733411202"><ele>62.0</ele><time>2026-03-28T13:32:30.002Z</time></trkpt><trkpt lat="45.60818136103264" lon="10.673104528144998"><ele>62.0</ele><time>2026-03-28T13:32:32.002Z</time></trkpt><trkpt lat="45.60822384456938" lon="10.67296619225519"><ele>62.0</ele><time>2026-03-28T13:32:34.002Z</time></trkpt><trkpt lat="45.60826665918405" lon="10.67283641721674"><ele>62.0</ele><time>2026-03-28T13:32:36.002Z</time></trkpt><trkpt lat="45.608312591713336" lon="10.672694733430191"><ele>62.0</ele><time>2026-03-28T13:32:38.002Z</time></trkpt><trkpt lat="45.608360979377466" lon="10.672543733685098"><ele>62.0</ele><time>2026-03-28T13:32:40.002Z</time></trkpt><trkpt lat="45.60847793244348" lon="10.672196270907923"><ele>62.0</ele><time>2026-03-28T13:32:45.002Z</time></trkpt><trkpt lat="45.60920455382365" lon="10.669902802182854"><ele>62.0</ele><time>2026-03-28T13:33:19.002Z</time></trkpt><trkpt lat="45.60924604066571" lon="10.66980405851825"><ele>62.0</ele><time>2026-03-28T13:33:21.002Z</time></trkpt><trkpt lat="45.60930945615671" lon="10.669682174091117"><ele>62.0</ele><time>2026-03-28T13:33:23.001Z</time></trkpt><trkpt lat="45.60934270627717" lon="10.669547274981593"><ele>62.0</ele><time>2026-03-28T13:33:25.001Z</time></trkpt><trkpt lat="45.6093826714893" lon="10.669415110185504"><ele>62.0</ele><time>2026-03-28T13:33:27.001Z</time></trkpt><trkpt lat="45.60942723093592" lon="10.669281354529227"><ele>62.0</ele><time>2026-03-28T13:33:29.001Z</time></trkpt><trkpt lat="45.60946783173492" lon="10.669145603936776"><ele>62.0</ele><time>2026-03-28T13:33:31.001Z</time></trkpt><trkpt lat="45.60951312831653" lon="10.669016869357787"><ele>62.0</ele><time>2026-03-28T13:33:33.001Z</time></trkpt><trkpt lat="45.60955419961597" lon="10.668886446979597"><ele>62.0</ele><time>2026-03-28T13:33:35.001Z</time></trkpt><trkpt lat="45.60959473208202" lon="10.66875815365346"><ele>62.0</ele><time>2026-03-28T13:33:37.001Z</time></trkpt><trkpt lat="45.60962335559504" lon="10.668587732742274"><ele>62.0</ele><time>2026-03-28T13:33:39.001Z</time></trkpt><trkpt lat="45.609671075987634" lon="10.668454117563554"><ele>62.0</ele><time>2026-03-28T13:33:41.001Z</time></trkpt><trkpt lat="45.60971252029817" lon="10.668317439639866"><ele>62.0</ele><time>2026-03-28T13:33:43.001Z</time></trkpt><trkpt lat="45.60975655788223" lon="10.668182583544647"><ele>62.0</ele><time>2026-03-28T13:33:45.001Z</time></trkpt><trkpt lat="45.60979857609768" lon="10.66804590904037"><ele>62.0</ele><time>2026-03-28T13:33:47.001Z</time></trkpt><trkpt lat="45.60984235241584" lon="10.667911617507077"><ele>62.0</ele><time>2026-03-28T13:33:49.001Z</time></trkpt><trkpt lat="45.609886896430204" lon="10.667778993510474"><ele>62.0</ele><time>2026-03-28T13:33:51.001Z</time></trkpt><trkpt lat="45.6099308391898" lon="10.667645977762948"><ele>62.0</ele><time>2026-03-28T13:33:53.001Z</time></trkpt><trkpt lat="45.60997429300183" lon="10.66751366854595"><ele>62.0</ele><time>2026-03-28T13:33:55.001Z</time></trkpt><trkpt lat="45.610019517041565" lon="10.667380685084417"><ele>62.0</ele><time>2026-03-28T13:33:57.001Z</time></trkpt><trkpt lat="45.61006035585949" lon="10.667248766573302"><ele>62.0</ele><time>2026-03-28T13:33:59.001Z</time></trkpt><trkpt lat="45.61010489447647" lon="10.667114433903569"><ele>62.0</ele><time>2026-03-28T13:34:01.001Z</time></trkpt><trkpt lat="45.61014984295564" lon="10.666976874206222"><ele>62.0</ele><time>2026-03-28T13:34:03.001Z</time></trkpt><trkpt lat="45.61019333764816" lon="10.666840566442309"><ele>62.0</ele><time>2026-03-28T13:34:05.001Z</time></trkpt><trkpt lat="45.61023528021484" lon="10.666701978727914"><ele>62.0</ele><time>2026-03-28T13:34:07.001Z</time></trkpt><trkpt lat="45.61027909904148" lon="10.66656544928344"><ele>62.0</ele><time>2026-03-28T13:34:09.001Z</time></trkpt><trkpt lat="45.61032247404257" lon="10.66642752757963"><ele>62.0</ele><time>2026-03-28T13:34:11.001Z</time></trkpt><trkpt lat="45.61036482289102" lon="10.666291326378339"><ele>62.0</ele><time>2026-03-28T13:34:13.002Z</time></trkpt><trkpt lat="45.610408643956525" lon="10.666156264107393"><ele>62.0</ele><time>2026-03-28T13:34:15.002Z</time></trkpt><trkpt lat="45.61044882507491" lon="10.666021729022633"><ele>62.0</ele><time>2026-03-28T13:34:17.002Z</time></trkpt><trkpt lat="45.61048878872729" lon="10.665883137826158"><ele>62.0</ele><time>2026-03-28T13:34:19.002Z</time></trkpt><trkpt lat="45.610528059784706" lon="10.66574329010507"><ele>62.0</ele><time>2026-03-28T13:34:21.002Z</time></trkpt><trkpt lat="45.6105641769169" lon="10.665603144283974"><ele>62.0</ele><time>2026-03-28T13:34:23.002Z</time></trkpt><trkpt lat="45.61060346707271" lon="10.66546301854438"><ele>62.0</ele><time>2026-03-28T13:34:25.002Z</time></trkpt><trkpt lat="45.61064274517722" lon="10.665325431815472"><ele>62.0</ele><time>2026-03-28T13:34:27.002Z</time></trkpt><trkpt lat="45.61068264432033" lon="10.665183497920395"><ele>62.0</ele><time>2026-03-28T13:34:29.002Z</time></trkpt><trkpt lat="45.610721479664036" lon="10.665042261703457"><ele>62.0</ele><time>2026-03-28T13:34:31.002Z</time></trkpt><trkpt lat="45.610761761087346" lon="10.664904699600621"><ele>62.0</ele><time>2026-03-28T13:34:33.002Z</time></trkpt><trkpt lat="45.61080397175057" lon="10.664764514292754"><ele>62.0</ele><time>2026-03-28T13:34:35.002Z</time></trkpt><trkpt lat="45.61084499517308" lon="10.664626387554533"><ele>62.0</ele><time>2026-03-28T13:34:37.002Z</time></trkpt><trkpt lat="45.610888261238564" lon="10.664485611029164"><ele>62.0</ele><time>2026-03-28T13:34:39.002Z</time></trkpt><trkpt lat="45.6109288957996" lon="10.664349100904026"><ele>62.0</ele><time>2026-03-28T13:34:41.002Z</time></trkpt><trkpt lat="45.61096910724801" lon="10.664206658261651"><ele>62.0</ele><time>2026-03-28T13:34:43.002Z</time></trkpt><trkpt lat="45.61100868453884" lon="10.664065954710141"><ele>62.0</ele><time>2026-03-28T13:34:45.002Z</time></trkpt><trkpt lat="45.61104474405016" lon="10.663925984759224"><ele>62.0</ele><time>2026-03-28T13:34:47.002Z</time></trkpt><trkpt lat="45.611083878420914" lon="10.663784884865152"><ele>62.0</ele><time>2026-03-28T13:34:49.002Z</time></trkpt><trkpt lat="45.61112533312612" lon="10.663645417863885"><ele>62.0</ele><time>2026-03-28T13:34:51.002Z</time></trkpt><trkpt lat="45.611163493418864" lon="10.663509135338463"><ele>62.0</ele><time>2026-03-28T13:34:53.002Z</time></trkpt><trkpt lat="45.61120154233054" lon="10.663368893527446"><ele>62.0</ele><time>2026-03-28T13:34:55.002Z</time></trkpt><trkpt lat="45.61123998095048" lon="10.66323294189982"><ele>62.0</ele><time>2026-03-28T13:34:57.003Z</time></trkpt><trkpt lat="45.61127981757306" lon="10.663095217814956"><ele>62.0</ele><time>2026-03-28T13:34:59.003Z</time></trkpt><trkpt lat="45.611319818332916" lon="10.66295944646164"><ele>62.0</ele><time>2026-03-28T13:35:01.003Z</time></trkpt><trkpt lat="45.61135713309053" lon="10.662822707996543"><ele>62.0</ele><time>2026-03-28T13:35:03.003Z</time></trkpt><trkpt lat="45.61139607220283" lon="10.66268631627125"><ele>62.0</ele><time>2026-03-28T13:35:05.003Z</time></trkpt><trkpt lat="45.611434630985805" lon="10.662551972488846"><ele>62.0</ele><time>2026-03-28T13:35:07.003Z</time></trkpt><trkpt lat="45.611472205540174" lon="10.662417409857015"><ele>62.0</ele><time>2026-03-28T13:35:09.003Z</time></trkpt><trkpt lat="45.61151132680259" lon="10.662282630539682"><ele>62.0</ele><time>2026-03-28T13:35:11.003Z</time></trkpt><trkpt lat="45.611548040115686" lon="10.662144784294014"><ele>62.0</ele><time>2026-03-28T13:35:13.003Z</time></trkpt><trkpt lat="45.61158681172494" lon="10.662006137208945"><ele>62.0</ele><time>2026-03-28T13:35:15.003Z</time></trkpt><trkpt lat="45.61162833402985" lon="10.661866945518494"><ele>62.0</ele><time>2026-03-28T13:35:17.003Z</time></trkpt><trkpt lat="45.61166856618058" lon="10.661728060650681"><ele>62.0</ele><time>2026-03-28T13:35:19.003Z</time></trkpt><trkpt lat="45.61170962900196" lon="10.661587918390506"><ele>62.0</ele><time>2026-03-28T13:35:21.003Z</time></trkpt><trkpt lat="45.61174938141364" lon="10.661449076907036"><ele>62.0</ele><time>2026-03-28T13:35:23.003Z</time></trkpt><trkpt lat="45.61179279565025" lon="10.661311234703334"><ele>62.0</ele><time>2026-03-28T13:35:25.002Z</time></trkpt><trkpt lat="45.61183314855322" lon="10.661174425607403"><ele>62.0</ele><time>2026-03-28T13:35:27.002Z</time></trkpt><trkpt lat="45.61187396875206" lon="10.661037165869098"><ele>62.0</ele><time>2026-03-28T13:35:29.002Z</time></trkpt><trkpt lat="45.61191396046458" lon="10.660901692231045"><ele>62.0</ele><time>2026-03-28T13:35:31.002Z</time></trkpt><trkpt lat="45.611952735078304" lon="10.660764068692611"><ele>62.0</ele><time>2026-03-28T13:35:33.002Z</time></trkpt><trkpt lat="45.61199173938395" lon="10.66062701974513"><ele>62.0</ele><time>2026-03-28T13:35:35.002Z</time></trkpt><trkpt lat="45.61203063637695" lon="10.660487171574145"><ele>62.0</ele><time>2026-03-28T13:35:37.002Z</time></trkpt><trkpt lat="45.61207036107019" lon="10.66034970692221"><ele>62.0</ele><time>2026-03-28T13:35:39.001Z</time></trkpt><trkpt lat="45.612108502117664" lon="10.660212847117338"><ele>62.0</ele><time>2026-03-28T13:35:41.001Z</time></trkpt><trkpt lat="45.61214730039293" lon="10.660075711060562"><ele>62.0</ele><time>2026-03-28T13:35:43.001Z</time></trkpt><trkpt lat="45.61218650328579" lon="10.659936535220789"><ele>62.0</ele><time>2026-03-28T13:35:45.001Z</time></trkpt><trkpt lat="45.612226336500896" lon="10.65980021526884"><ele>62.0</ele><time>2026-03-28T13:35:47.001Z</time></trkpt><trkpt lat="45.612267795269425" lon="10.659662264557133"><ele>62.0</ele><time>2026-03-28T13:35:49.001Z</time></trkpt><trkpt lat="45.612307134425556" lon="10.659523498042386"><ele>62.0</ele><time>2026-03-28T13:35:51.001Z</time></trkpt><trkpt lat="45.61234939774781" lon="10.659385367503578"><ele>62.0</ele><time>2026-03-28T13:35:53.001Z</time></trkpt><trkpt lat="45.61239179543578" lon="10.659246920200822"><ele>62.0</ele><time>2026-03-28T13:35:55.001Z</time></trkpt><trkpt lat="45.61243250601309" lon="10.6591087040292"><ele>62.0</ele><time>2026-03-28T13:35:57.001Z</time></trkpt><trkpt lat="45.61247615864418" lon="10.658974314233436"><ele>62.0</ele><time>2026-03-28T13:35:59.001Z</time></trkpt><trkpt lat="45.61251332281192" lon="10.658832915721495"><ele>62.0</ele><time>2026-03-28T13:36:01.001Z</time></trkpt><trkpt lat="45.61255194056154" lon="10.658696134113507"><ele>62.0</ele><time>2026-03-28T13:36:03.001Z</time></trkpt><trkpt lat="45.61259351383156" lon="10.658561200744051"><ele>62.0</ele><time>2026-03-28T13:36:05.001Z</time></trkpt><trkpt lat="45.612632775837334" lon="10.658424985726894"><ele>62.0</ele><time>2026-03-28T13:36:07.001Z</time></trkpt><trkpt lat="45.61267030912571" lon="10.658286032890672"><ele>62.0</ele><time>2026-03-28T13:36:09.001Z</time></trkpt><trkpt lat="45.61270924508746" lon="10.658144527719731"><ele>62.0</ele><time>2026-03-28T13:36:11.001Z</time></trkpt><trkpt lat="45.612748901331635" lon="10.658002244236286"><ele>62.0</ele><time>2026-03-28T13:36:13.001Z</time></trkpt><trkpt lat="45.61278606543152" lon="10.6578609927741"><ele>62.0</ele><time>2026-03-28T13:36:15.002Z</time></trkpt><trkpt lat="45.612822928317506" lon="10.657720974238774"><ele>62.0</ele><time>2026-03-28T13:36:17.002Z</time></trkpt><trkpt lat="45.61285855573434" lon="10.657582363968325"><ele>62.0</ele><time>2026-03-28T13:36:19.002Z</time></trkpt><trkpt lat="45.61289370230971" lon="10.657441203492661"><ele>62.0</ele><time>2026-03-28T13:36:21.002Z</time></trkpt><trkpt lat="45.612929500916906" lon="10.657299629713147"><ele>62.0</ele><time>2026-03-28T13:36:23.002Z</time></trkpt><trkpt lat="45.612965554057915" lon="10.65716160356393"><ele>62.0</ele><time>2026-03-28T13:36:25.002Z</time></trkpt><trkpt lat="45.61299906095594" lon="10.657019419330815"><ele>62.0</ele><time>2026-03-28T13:36:27.002Z</time></trkpt><trkpt lat="45.61303514618614" lon="10.656878552958974"><ele>62.0</ele><time>2026-03-28T13:36:29.002Z</time></trkpt><trkpt lat="45.61307161617877" lon="10.656743710044248"><ele>62.0</ele><time>2026-03-28T13:36:31.002Z</time></trkpt><trkpt lat="45.613107988944385" lon="10.656606960675406"><ele>62.0</ele><time>2026-03-28T13:36:33.002Z</time></trkpt><trkpt lat="45.61314271992433" lon="10.656467907108036"><ele>62.0</ele><time>2026-03-28T13:36:35.002Z</time></trkpt><trkpt lat="45.613180844031874" lon="10.656329744806817"><ele>62.0</ele><time>2026-03-28T13:36:37.002Z</time></trkpt><trkpt lat="45.6132180213986" lon="10.656188605331824"><ele>62.0</ele><time>2026-03-28T13:36:39.002Z</time></trkpt><trkpt lat="45.6132528504137" lon="10.65604891110156"><ele>62.0</ele><time>2026-03-28T13:36:41.002Z</time></trkpt><trkpt lat="45.613284612488336" lon="10.655906495211733"><ele>62.0</ele><time>2026-03-28T13:36:43.002Z</time></trkpt><trkpt lat="45.613318717178444" lon="10.655763759725009"><ele>62.0</ele><time>2026-03-28T13:36:45.002Z</time></trkpt><trkpt lat="45.61335270537727" lon="10.655619097045024"><ele>62.0</ele><time>2026-03-28T13:36:47.002Z</time></trkpt><trkpt lat="45.61338946854606" lon="10.655476798507602"><ele>62.0</ele><time>2026-03-28T13:36:49.002Z</time></trkpt><trkpt lat="45.61342346851407" lon="10.655334505560393"><ele>62.0</ele><time>2026-03-28T13:36:51.002Z</time></trkpt><trkpt lat="45.61346131615378" lon="10.655194311387355"><ele>62.0</ele><time>2026-03-28T13:36:53.002Z</time></trkpt><trkpt lat="45.61349662966464" lon="10.65505173038202"><ele>62.0</ele><time>2026-03-28T13:36:55.002Z</time></trkpt><trkpt lat="45.613533337999684" lon="10.654912402206369"><ele>62.0</ele><time>2026-03-28T13:36:57.002Z</time></trkpt><trkpt lat="45.613571141842655" lon="10.654774046102379"><ele>62.0</ele><time>2026-03-28T13:36:59.002Z</time></trkpt><trkpt lat="45.613608648507146" lon="10.654637591892783"><ele>62.0</ele><time>2026-03-28T13:37:01.002Z</time></trkpt><trkpt lat="45.61364784223195" lon="10.654498441546119"><ele>62.0</ele><time>2026-03-28T13:37:03.002Z</time></trkpt><trkpt lat="45.61368535601075" lon="10.65436095604332"><ele>62.0</ele><time>2026-03-28T13:37:05.002Z</time></trkpt><trkpt lat="45.61372591933688" lon="10.654222549584222"><ele>62.0</ele><time>2026-03-28T13:37:07.002Z</time></trkpt><trkpt lat="45.61376561505002" lon="10.654086656256013"><ele>62.0</ele><time>2026-03-28T13:37:09.002Z</time></trkpt><trkpt lat="45.61380337219553" lon="10.653950704693642"><ele>62.0</ele><time>2026-03-28T13:37:11.003Z</time></trkpt><trkpt lat="45.613841958790815" lon="10.653808743362879"><ele>62.0</ele><time>2026-03-28T13:37:13.003Z</time></trkpt><trkpt lat="45.61388031445437" lon="10.653666739697366"><ele>62.0</ele><time>2026-03-28T13:37:15.003Z</time></trkpt><trkpt lat="45.613921212927465" lon="10.653527809960112"><ele>62.0</ele><time>2026-03-28T13:37:17.003Z</time></trkpt><trkpt lat="45.61396284207841" lon="10.653389510016982"><ele>62.0</ele><time>2026-03-28T13:37:19.003Z</time></trkpt><trkpt lat="45.61400226667531" lon="10.65325100261558"><ele>62.0</ele><time>2026-03-28T13:37:21.003Z</time></trkpt><trkpt lat="45.61404056213829" lon="10.653115808090156"><ele>62.0</ele><time>2026-03-28T13:37:23.003Z</time></trkpt><trkpt lat="45.614082089649905" lon="10.652980643436353"><ele>62.0</ele><time>2026-03-28T13:37:25.003Z</time></trkpt><trkpt lat="45.61411890239286" lon="10.652843925467252"><ele>62.0</ele><time>2026-03-28T13:37:27.003Z</time></trkpt><trkpt lat="45.6141556924166" lon="10.652708153581859"><ele>62.0</ele><time>2026-03-28T13:37:29.003Z</time></trkpt><trkpt lat="45.61419723869097" lon="10.652569274830435"><ele>62.0</ele><time>2026-03-28T13:37:31.002Z</time></trkpt><trkpt lat="45.61423764645482" lon="10.652434306860576"><ele>62.0</ele><time>2026-03-28T13:37:33.002Z</time></trkpt><trkpt lat="45.61427642794293" lon="10.65229599908661"><ele>62.0</ele><time>2026-03-28T13:37:35.002Z</time></trkpt><trkpt lat="45.61431441105087" lon="10.6521612181179"><ele>62.0</ele><time>2026-03-28T13:37:37.002Z</time></trkpt><trkpt lat="45.61435528592646" lon="10.652026821994454"><ele>62.0</ele><time>2026-03-28T13:37:39.002Z</time></trkpt><trkpt lat="45.614398557888755" lon="10.651887842495363"><ele>62.0</ele><time>2026-03-28T13:37:41.002Z</time></trkpt><trkpt lat="45.61444297500126" lon="10.651746476081236"><ele>62.0</ele><time>2026-03-28T13:37:43.002Z</time></trkpt><trkpt lat="45.61448587415826" lon="10.651610274993729"><ele>62.0</ele><time>2026-03-28T13:37:45.002Z</time></trkpt><trkpt lat="45.61452778716434" lon="10.651477732782205"><ele>62.0</ele><time>2026-03-28T13:37:47.002Z</time></trkpt><trkpt lat="45.614568242008886" lon="10.651341770572378"><ele>62.0</ele><time>2026-03-28T13:37:49.002Z</time></trkpt><trkpt lat="45.614609496365034" lon="10.651207836519456"><ele>62.0</ele><time>2026-03-28T13:37:51.002Z</time></trkpt><trkpt lat="45.61465079125334" lon="10.651074750493185"><ele>62.0</ele><time>2026-03-28T13:37:53.002Z</time></trkpt><trkpt lat="45.614690508618345" lon="10.650938421750306"><ele>62.0</ele><time>2026-03-28T13:37:55.002Z</time></trkpt><trkpt lat="45.61473118661115" lon="10.650799085462443"><ele>62.0</ele><time>2026-03-28T13:37:57.002Z</time></trkpt><trkpt lat="45.61477166690608" lon="10.65065699311066"><ele>62.0</ele><time>2026-03-28T13:37:59.002Z</time></trkpt><trkpt lat="45.61481143704294" lon="10.65051979423541"><ele>62.0</ele><time>2026-03-28T13:38:01.001Z</time></trkpt><trkpt lat="45.614854166640434" lon="10.650382513663462"><ele>62.0</ele><time>2026-03-28T13:38:03.001Z</time></trkpt><trkpt lat="45.61489399120635" lon="10.650243208150533"><ele>62.0</ele><time>2026-03-28T13:38:05.001Z</time></trkpt><trkpt lat="45.6149299333286" lon="10.650107098101216"><ele>62.0</ele><time>2026-03-28T13:38:07.001Z</time></trkpt><trkpt lat="45.61496777053686" lon="10.64997056887072"><ele>62.0</ele><time>2026-03-28T13:38:09.001Z</time></trkpt><trkpt lat="45.615009822832626" lon="10.649831232061477"><ele>62.0</ele><time>2026-03-28T13:38:11.001Z</time></trkpt><trkpt lat="45.61504677621789" lon="10.649692256457929"><ele>62.0</ele><time>2026-03-28T13:38:13.001Z</time></trkpt><trkpt lat="45.61508480201944" lon="10.649553371849331"><ele>62.0</ele><time>2026-03-28T13:38:15.001Z</time></trkpt><trkpt lat="45.615125488659984" lon="10.649414999961056"><ele>62.0</ele><time>2026-03-28T13:38:17.001Z</time></trkpt><trkpt lat="45.61516438662404" lon="10.649274459222703"><ele>62.0</ele><time>2026-03-28T13:38:19.001Z</time></trkpt><trkpt lat="45.61520278849127" lon="10.649134118400152"><ele>62.0</ele><time>2026-03-28T13:38:21.002Z</time></trkpt><trkpt lat="45.61524393788919" lon="10.648992228438837"><ele>62.0</ele><time>2026-03-28T13:38:23.002Z</time></trkpt><trkpt lat="45.615283539160224" lon="10.64885324108369"><ele>62.0</ele><time>2026-03-28T13:38:25.002Z</time></trkpt><trkpt lat="45.61532208349932" lon="10.648713808245674"><ele>62.0</ele><time>2026-03-28T13:38:27.002Z</time></trkpt><trkpt lat="45.61536285390009" lon="10.648576966108578"><ele>62.0</ele><time>2026-03-28T13:38:29.002Z</time></trkpt><trkpt lat="45.615401552497595" lon="10.648437367819355"><ele>62.0</ele><time>2026-03-28T13:38:31.002Z</time></trkpt><trkpt lat="45.615438024964185" lon="10.648297094515428"><ele>62.0</ele><time>2026-03-28T13:38:33.002Z</time></trkpt><trkpt lat="45.61547746990258" lon="10.648155768269802"><ele>62.0</ele><time>2026-03-28T13:38:35.002Z</time></trkpt><trkpt lat="45.61551409842876" lon="10.648014030579485"><ele>62.0</ele><time>2026-03-28T13:38:37.002Z</time></trkpt><trkpt lat="45.615551837125324" lon="10.647870822763412"><ele>62.0</ele><time>2026-03-28T13:38:39.002Z</time></trkpt><trkpt lat="45.61558792339737" lon="10.647731209390217"><ele>62.0</ele><time>2026-03-28T13:38:41.002Z</time></trkpt><trkpt lat="45.61562427263485" lon="10.647588954395136"><ele>62.0</ele><time>2026-03-28T13:38:43.002Z</time></trkpt><trkpt lat="45.61566096035054" lon="10.647447715327377"><ele>62.0</ele><time>2026-03-28T13:38:45.002Z</time></trkpt><trkpt lat="45.615696558403506" lon="10.647303468372439"><ele>62.0</ele><time>2026-03-28T13:38:47.002Z</time></trkpt><trkpt lat="45.61573347173528" lon="10.647162347026494"><ele>62.0</ele><time>2026-03-28T13:38:49.002Z</time></trkpt><trkpt lat="45.61576903145913" lon="10.647020796160017"><ele>62.0</ele><time>2026-03-28T13:38:51.002Z</time></trkpt><trkpt lat="45.61580261013603" lon="10.646879282717197"><ele>62.0</ele><time>2026-03-28T13:38:53.002Z</time></trkpt><trkpt lat="45.615835677939394" lon="10.646737033769558"><ele>62.0</ele><time>2026-03-28T13:38:55.002Z</time></trkpt><trkpt lat="45.615866886780346" lon="10.646596512263777"><ele>62.0</ele><time>2026-03-28T13:38:57.002Z</time></trkpt><trkpt lat="45.61589930289526" lon="10.646452960314978"><ele>62.0</ele><time>2026-03-28T13:38:59.002Z</time></trkpt><trkpt lat="45.61593015877724" lon="10.646309973201598"><ele>62.0</ele><time>2026-03-28T13:39:01.002Z</time></trkpt><trkpt lat="45.61596150303798" lon="10.646169429965827"><ele>62.0</ele><time>2026-03-28T13:39:03.002Z</time></trkpt><trkpt lat="45.61599574674486" lon="10.646026310028658"><ele>62.0</ele><time>2026-03-28T13:39:05.002Z</time></trkpt><trkpt lat="45.61602712206917" lon="10.645882726942979"><ele>62.0</ele><time>2026-03-28T13:39:07.002Z</time></trkpt><trkpt lat="45.616059356009636" lon="10.645740334567463"><ele>62.0</ele><time>2026-03-28T13:39:09.002Z</time></trkpt><trkpt lat="45.61609182558626" lon="10.645600459900159"><ele>62.0</ele><time>2026-03-28T13:39:11.002Z</time></trkpt><trkpt lat="45.616125270215704" lon="10.645459612428139"><ele>62.0</ele><time>2026-03-28T13:39:13.002Z</time></trkpt><trkpt lat="45.616157011228" lon="10.645318942318063"><ele>62.0</ele><time>2026-03-28T13:39:15.002Z</time></trkpt><trkpt lat="45.61618640313527" lon="10.645177749865844"><ele>62.0</ele><time>2026-03-28T13:39:17.002Z</time></trkpt><trkpt lat="45.61622035656017" lon="10.645038566837568"><ele>62.0</ele><time>2026-03-28T13:39:19.002Z</time></trkpt><trkpt lat="45.61625586643254" lon="10.644897524729107"><ele>62.0</ele><time>2026-03-28T13:39:21.002Z</time></trkpt><trkpt lat="45.61628795161112" lon="10.644752929643824"><ele>62.0</ele><time>2026-03-28T13:39:23.002Z</time></trkpt><trkpt lat="45.6163192057463" lon="10.64460821769323"><ele>62.0</ele><time>2026-03-28T13:39:25.002Z</time></trkpt><trkpt lat="45.616352168878116" lon="10.644463221479912"><ele>62.0</ele><time>2026-03-28T13:39:27.002Z</time></trkpt><trkpt lat="45.616386398074205" lon="10.644320200020871"><ele>62.0</ele><time>2026-03-28T13:39:29.002Z</time></trkpt><trkpt lat="45.616419189044585" lon="10.644176036049778"><ele>62.0</ele><time>2026-03-28T13:39:31.002Z</time></trkpt><trkpt lat="45.616452911202614" lon="10.64403398745239"><ele>62.0</ele><time>2026-03-28T13:39:33.002Z</time></trkpt><trkpt lat="45.616485826517156" lon="10.643891796970843"><ele>62.0</ele><time>2026-03-28T13:39:35.002Z</time></trkpt><trkpt lat="45.61651857967908" lon="10.643745952565997"><ele>62.0</ele><time>2026-03-28T13:39:37.002Z</time></trkpt><trkpt lat="45.61655394644103" lon="10.643604848481448"><ele>62.0</ele><time>2026-03-28T13:39:39.002Z</time></trkpt><trkpt lat="45.616590589542064" lon="10.643465407810195"><ele>62.0</ele><time>2026-03-28T13:39:41.002Z</time></trkpt><trkpt lat="45.61662411845045" lon="10.64332529890725"><ele>62.0</ele><time>2026-03-28T13:39:43.002Z</time></trkpt><trkpt lat="45.61665879534118" lon="10.643184486238395"><ele>62.0</ele><time>2026-03-28T13:39:45.002Z</time></trkpt><trkpt lat="45.61669407021867" lon="10.643044757429399"><ele>62.0</ele><time>2026-03-28T13:39:47.002Z</time></trkpt><trkpt lat="45.61672491320532" lon="10.64290194256624"><ele>62.0</ele><time>2026-03-28T13:39:49.002Z</time></trkpt><trkpt lat="45.61675860771717" lon="10.642758279503166"><ele>62.0</ele><time>2026-03-28T13:39:51.002Z</time></trkpt><trkpt lat="45.616793732359966" lon="10.642618150208973"><ele>62.0</ele><time>2026-03-28T13:39:53.002Z</time></trkpt><trkpt lat="45.616832258487285" lon="10.642476223112139"><ele>62.0</ele><time>2026-03-28T13:39:55.001Z</time></trkpt><trkpt lat="45.61686948581042" lon="10.64233162362144"><ele>62.0</ele><time>2026-03-28T13:39:57.001Z</time></trkpt><trkpt lat="45.61690864369627" lon="10.64219023863737"><ele>62.0</ele><time>2026-03-28T13:39:59.001Z</time></trkpt><trkpt lat="45.6169487792639" lon="10.642051935387991"><ele>62.0</ele><time>2026-03-28T13:40:01.001Z</time></trkpt><trkpt lat="45.616980465081475" lon="10.641913923785959"><ele>62.0</ele><time>2026-03-28T13:40:03.001Z</time></trkpt><trkpt lat="45.61702984200434" lon="10.64177168989469"><ele>62.0</ele><time>2026-03-28T13:40:05.001Z</time></trkpt><trkpt lat="45.617071253542036" lon="10.641632952867251"><ele>62.0</ele><time>2026-03-28T13:40:07.001Z</time></trkpt><trkpt lat="45.61711457989103" lon="10.641495042197796"><ele>62.0</ele><time>2026-03-28T13:40:09.001Z</time></trkpt><trkpt lat="45.617158996933085" lon="10.64135871903623"><ele>62.0</ele><time>2026-03-28T13:40:11.001Z</time></trkpt><trkpt lat="45.61720541246664" lon="10.64122124747722"><ele>62.0</ele><time>2026-03-28T13:40:13.001Z</time></trkpt><trkpt lat="45.61724902332242" lon="10.641084747160921"><ele>62.0</ele><time>2026-03-28T13:40:15.001Z</time></trkpt><trkpt lat="45.61729402729984" lon="10.640946270699137"><ele>62.0</ele><time>2026-03-28T13:40:17.001Z</time></trkpt><trkpt lat="45.61733980233432" lon="10.64080976372288"><ele>62.0</ele><time>2026-03-28T13:40:19.001Z</time></trkpt><trkpt lat="45.617382866163545" lon="10.640672363774256"><ele>62.0</ele><time>2026-03-28T13:40:21.001Z</time></trkpt><trkpt lat="45.6174279871189" lon="10.640535014951652"><ele>62.0</ele><time>2026-03-28T13:40:23.001Z</time></trkpt><trkpt lat="45.61746929522098" lon="10.64039679444392"><ele>62.0</ele><time>2026-03-28T13:40:25.001Z</time></trkpt><trkpt lat="45.61751358024199" lon="10.640260346314243"><ele>62.0</ele><time>2026-03-28T13:40:27.001Z</time></trkpt><trkpt lat="45.61755917063899" lon="10.640123361920729"><ele>62.0</ele><time>2026-03-28T13:40:29.001Z</time></trkpt><trkpt lat="45.61759878832766" lon="10.639985442169271"><ele>62.0</ele><time>2026-03-28T13:40:31.001Z</time></trkpt><trkpt lat="45.61764051588362" lon="10.639847119649524"><ele>62.0</ele><time>2026-03-28T13:40:33.001Z</time></trkpt><trkpt lat="45.61768630860687" lon="10.639707768231494"><ele>62.0</ele><time>2026-03-28T13:40:35.001Z</time></trkpt><trkpt lat="45.61773308518703" lon="10.63957269550652"><ele>62.0</ele><time>2026-03-28T13:40:37.001Z</time></trkpt><trkpt lat="45.61777654458567" lon="10.63943580880791"><ele>62.0</ele><time>2026-03-28T13:40:39.001Z</time></trkpt><trkpt lat="45.6178203673575" lon="10.639299173656449"><ele>62.0</ele><time>2026-03-28T13:40:41.001Z</time></trkpt><trkpt lat="45.61786843618826" lon="10.639159391331683"><ele>62.0</ele><time>2026-03-28T13:40:43.001Z</time></trkpt><trkpt lat="45.61791409914175" lon="10.639022974213217"><ele>62.0</ele><time>2026-03-28T13:40:45.001Z</time></trkpt><trkpt lat="45.617959279483806" lon="10.638887490230958"><ele>62.0</ele><time>2026-03-28T13:40:47.001Z</time></trkpt><trkpt lat="45.61800478417314" lon="10.638752863539937"><ele>62.0</ele><time>2026-03-28T13:40:49.001Z</time></trkpt><trkpt lat="45.61805086839324" lon="10.638618259966776"><ele>62.0</ele><time>2026-03-28T13:40:51.001Z</time></trkpt><trkpt lat="45.618097545889626" lon="10.638484997622228"><ele>62.0</ele><time>2026-03-28T13:40:53.001Z</time></trkpt><trkpt lat="45.61814326664885" lon="10.638348702255351"><ele>62.0</ele><time>2026-03-28T13:40:55.001Z</time></trkpt><trkpt lat="45.61818709395314" lon="10.638215876942576"><ele>62.0</ele><time>2026-03-28T13:40:57.001Z</time></trkpt><trkpt lat="45.61823139567414" lon="10.638080982325468"><ele>62.0</ele><time>2026-03-28T13:40:59.001Z</time></trkpt><trkpt lat="45.61827380238734" lon="10.637942189224388"><ele>62.0</ele><time>2026-03-28T13:41:01.001Z</time></trkpt><trkpt lat="45.618313347089355" lon="10.637805313513704"><ele>62.0</ele><time>2026-03-28T13:41:03.001Z</time></trkpt><trkpt lat="45.61835334342727" lon="10.637668730976888"><ele>62.0</ele><time>2026-03-28T13:41:05.001Z</time></trkpt><trkpt lat="45.618392476641986" lon="10.63752978560756"><ele>62.0</ele><time>2026-03-28T13:41:07.001Z</time></trkpt><trkpt lat="45.618433242547034" lon="10.63739179176477"><ele>62.0</ele><time>2026-03-28T13:41:09.001Z</time></trkpt><trkpt lat="45.618474574488495" lon="10.637253485822704"><ele>62.0</ele><time>2026-03-28T13:41:11.001Z</time></trkpt><trkpt lat="45.61851366258323" lon="10.637113545810946"><ele>62.0</ele><time>2026-03-28T13:41:13.001Z</time></trkpt><trkpt lat="45.6185522648125" lon="10.63697562927091"><ele>62.0</ele><time>2026-03-28T13:41:15.001Z</time></trkpt><trkpt lat="45.618590958239515" lon="10.636837045879238"><ele>62.0</ele><time>2026-03-28T13:41:17.001Z</time></trkpt><trkpt lat="45.61862992031136" lon="10.63669961461817"><ele>62.0</ele><time>2026-03-28T13:41:19.001Z</time></trkpt><trkpt lat="45.618668646322384" lon="10.636564614607456"><ele>62.0</ele><time>2026-03-28T13:41:21.002Z</time></trkpt><trkpt lat="45.618710047885386" lon="10.636429027313351"><ele>62.0</ele><time>2026-03-28T13:41:23.002Z</time></trkpt><trkpt lat="45.61875293691879" lon="10.636291339241227"><ele>62.0</ele><time>2026-03-28T13:41:25.002Z</time></trkpt><trkpt lat="45.61879188938882" lon="10.636151929555725"><ele>62.0</ele><time>2026-03-28T13:41:27.002Z</time></trkpt><trkpt lat="45.61883220783036" lon="10.636013896814095"><ele>62.0</ele><time>2026-03-28T13:41:29.002Z</time></trkpt><trkpt lat="45.618872608327656" lon="10.635874916025584"><ele>62.0</ele><time>2026-03-28T13:41:31.002Z</time></trkpt><trkpt lat="45.6189101291727" lon="10.635734171314867"><ele>62.0</ele><time>2026-03-28T13:41:33.002Z</time></trkpt><trkpt lat="45.618951766103294" lon="10.635596649445068"><ele>62.0</ele><time>2026-03-28T13:41:35.002Z</time></trkpt><trkpt lat="45.618991297794025" lon="10.635453636915017"><ele>62.0</ele><time>2026-03-28T13:41:37.002Z</time></trkpt><trkpt lat="45.61902923356699" lon="10.635317094788377"><ele>62.0</ele><time>2026-03-28T13:41:39.002Z</time></trkpt><trkpt lat="45.61907097983074" lon="10.63517864324459"><ele>62.0</ele><time>2026-03-28T13:41:41.002Z</time></trkpt><trkpt lat="45.61911248912298" lon="10.635037779685732"><ele>62.0</ele><time>2026-03-28T13:41:43.001Z</time></trkpt><trkpt lat="45.61914908678261" lon="10.634901797677525"><ele>62.0</ele><time>2026-03-28T13:41:45.001Z</time></trkpt><trkpt lat="45.619187404552555" lon="10.634762609552594"><ele>62.0</ele><time>2026-03-28T13:41:47.001Z</time></trkpt><trkpt lat="45.61922393167754" lon="10.634621507362617"><ele>62.0</ele><time>2026-03-28T13:41:49.001Z</time></trkpt><trkpt lat="45.61926333193439" lon="10.63448227092034"><ele>62.0</ele><time>2026-03-28T13:41:51.001Z</time></trkpt><trkpt lat="45.61930240871774" lon="10.634340423586188"><ele>62.0</ele><time>2026-03-28T13:41:53.001Z</time></trkpt><trkpt lat="45.619340236262964" lon="10.634203669805691"><ele>62.0</ele><time>2026-03-28T13:41:55.001Z</time></trkpt><trkpt lat="45.61937812120584" lon="10.63406693954644"><ele>62.0</ele><time>2026-03-28T13:41:57.001Z</time></trkpt><trkpt lat="45.61941734636703" lon="10.633924979700758"><ele>62.0</ele><time>2026-03-28T13:41:59.001Z</time></trkpt><trkpt lat="45.61945721950961" lon="10.633782572044588"><ele>62.0</ele><time>2026-03-28T13:42:01.001Z</time></trkpt><trkpt lat="45.619500348002425" lon="10.63364215791749"><ele>62.0</ele><time>2026-03-28T13:42:03.001Z</time></trkpt><trkpt lat="45.61954265170471" lon="10.633503444121281"><ele>62.0</ele><time>2026-03-28T13:42:05.001Z</time></trkpt><trkpt lat="45.61958597221111" lon="10.633364731264301"><ele>62.0</ele><time>2026-03-28T13:42:07.001Z</time></trkpt><trkpt lat="45.61962628572377" lon="10.633227122956363"><ele>62.0</ele><time>2026-03-28T13:42:09.001Z</time></trkpt><trkpt lat="45.61966649371119" lon="10.633089042865272"><ele>62.0</ele><time>2026-03-28T13:42:11.001Z</time></trkpt><trkpt lat="45.619705507743504" lon="10.632951850713228"><ele>62.0</ele><time>2026-03-28T13:42:13.001Z</time></trkpt><trkpt lat="45.6197431541864" lon="10.632815872541508"><ele>62.0</ele><time>2026-03-28T13:42:15.001Z</time></trkpt><trkpt lat="45.61978080942826" lon="10.632679029007807"><ele>62.0</ele><time>2026-03-28T13:42:17.001Z</time></trkpt><trkpt lat="45.619818448681485" lon="10.632540457635075"><ele>62.0</ele><time>2026-03-28T13:42:19.001Z</time></trkpt><trkpt lat="45.619858115144524" lon="10.632403643263807"><ele>62.0</ele><time>2026-03-28T13:42:21.001Z</time></trkpt><trkpt lat="45.61989742113714" lon="10.632265710477784"><ele>62.0</ele><time>2026-03-28T13:42:23.001Z</time></trkpt><trkpt lat="45.61993790670246" lon="10.632128080020662"><ele>62.0</ele><time>2026-03-28T13:42:25.001Z</time></trkpt><trkpt lat="45.61997944393386" lon="10.63198909242087"><ele>62.0</ele><time>2026-03-28T13:42:27.001Z</time></trkpt><trkpt lat="45.620019831286115" lon="10.631853957055684"><ele>62.0</ele><time>2026-03-28T13:42:29.001Z</time></trkpt><trkpt lat="45.62005757140968" lon="10.631714589811512"><ele>62.0</ele><time>2026-03-28T13:42:31.001Z</time></trkpt><trkpt lat="45.62009731554464" lon="10.631574164161382"><ele>62.0</ele><time>2026-03-28T13:42:33.001Z</time></trkpt><trkpt lat="45.62013714678168" lon="10.631435086479332"><ele>62.0</ele><time>2026-03-28T13:42:35.001Z</time></trkpt><trkpt lat="45.62017768584329" lon="10.631297322988779"><ele>62.0</ele><time>2026-03-28T13:42:37.001Z</time></trkpt><trkpt lat="45.620218328025516" lon="10.631160029849877"><ele>62.0</ele><time>2026-03-28T13:42:39.001Z</time></trkpt><trkpt lat="45.62025718677972" lon="10.631021979196637"><ele>62.0</ele><time>2026-03-28T13:42:41.001Z</time></trkpt><trkpt lat="45.62029492720644" lon="10.630885919166747"><ele>62.0</ele><time>2026-03-28T13:42:43.001Z</time></trkpt><trkpt lat="45.62033472869701" lon="10.630749284140634"><ele>62.0</ele><time>2026-03-28T13:42:45.001Z</time></trkpt><trkpt lat="45.6203759290729" lon="10.630613615052965"><ele>62.0</ele><time>2026-03-28T13:42:47.001Z</time></trkpt><trkpt lat="45.620416411224454" lon="10.630478933586373"><ele>62.0</ele><time>2026-03-28T13:42:49.001Z</time></trkpt><trkpt lat="45.62045581934001" lon="10.630344934423544"><ele>62.0</ele><time>2026-03-28T13:42:51.001Z</time></trkpt><trkpt lat="45.620497551493465" lon="10.630211752342623"><ele>62.0</ele><time>2026-03-28T13:42:53.001Z</time></trkpt><trkpt lat="45.62053880006153" lon="10.630078364979164"><ele>62.0</ele><time>2026-03-28T13:42:55.001Z</time></trkpt><trkpt lat="45.6205839482488" lon="10.629943716471445"><ele>62.0</ele><time>2026-03-28T13:42:57.001Z</time></trkpt><trkpt lat="45.620623978302234" lon="10.629810539496152"><ele>62.0</ele><time>2026-03-28T13:42:59.001Z</time></trkpt><trkpt lat="45.62066737457675" lon="10.629679701575963"><ele>62.0</ele><time>2026-03-28T13:43:01.001Z</time></trkpt><trkpt lat="45.62071013047169" lon="10.629548014463806"><ele>62.0</ele><time>2026-03-28T13:43:03.001Z</time></trkpt><trkpt lat="45.620752291729026" lon="10.629414680079783"><ele>62.0</ele><time>2026-03-28T13:43:05.001Z</time></trkpt><trkpt lat="45.620794183855736" lon="10.629282801022667"><ele>62.0</ele><time>2026-03-28T13:43:07.001Z</time></trkpt><trkpt lat="45.62083501919227" lon="10.629151415705529"><ele>62.0</ele><time>2026-03-28T13:43:09.001Z</time></trkpt><trkpt lat="45.620874606156605" lon="10.629017810755343"><ele>62.0</ele><time>2026-03-28T13:43:11.001Z</time></trkpt><trkpt lat="45.62091694359485" lon="10.628886362598706"><ele>62.0</ele><time>2026-03-28T13:43:13.001Z</time></trkpt><trkpt lat="45.62095839671357" lon="10.628752354844137"><ele>62.0</ele><time>2026-03-28T13:43:15.001Z</time></trkpt><trkpt lat="45.62099813598235" lon="10.628622661578618"><ele>62.0</ele><time>2026-03-28T13:43:17.001Z</time></trkpt><trkpt lat="45.62103750874923" lon="10.628489896950425"><ele>62.0</ele><time>2026-03-28T13:43:19.001Z</time></trkpt><trkpt lat="45.62108159960703" lon="10.628355864796697"><ele>62.0</ele><time>2026-03-28T13:43:21.001Z</time></trkpt><trkpt lat="45.621122180831506" lon="10.628222056954868"><ele>62.0</ele><time>2026-03-28T13:43:23.001Z</time></trkpt><trkpt lat="45.62116262877751" lon="10.628090569729489"><ele>62.0</ele><time>2026-03-28T13:43:25.001Z</time></trkpt><trkpt lat="45.62120463906851" lon="10.627957569405947"><ele>62.0</ele><time>2026-03-28T13:43:27.001Z</time></trkpt><trkpt lat="45.6212450619582" lon="10.627824010611686"><ele>62.0</ele><time>2026-03-28T13:43:29.001Z</time></trkpt><trkpt lat="45.62128540816276" lon="10.627687334551664"><ele>62.0</ele><time>2026-03-28T13:43:31.001Z</time></trkpt><trkpt lat="45.621326322149265" lon="10.627551197674812"><ele>62.0</ele><time>2026-03-28T13:43:33.001Z</time></trkpt><trkpt lat="45.62136642273117" lon="10.627416169363578"><ele>62.0</ele><time>2026-03-28T13:43:35.001Z</time></trkpt><trkpt lat="45.62140820876299" lon="10.627282880719022"><ele>62.0</ele><time>2026-03-28T13:43:37.001Z</time></trkpt><trkpt lat="45.6214523300479" lon="10.627149675452216"><ele>62.0</ele><time>2026-03-28T13:43:39.001Z</time></trkpt><trkpt lat="45.62149622838961" lon="10.627014289449988"><ele>62.0</ele><time>2026-03-28T13:43:41.001Z</time></trkpt><trkpt lat="45.62153619937465" lon="10.62687883248015"><ele>62.0</ele><time>2026-03-28T13:43:43.001Z</time></trkpt><trkpt lat="45.621578051683926" lon="10.626744270436173"><ele>62.0</ele><time>2026-03-28T13:43:45.001Z</time></trkpt><trkpt lat="45.6216209396821" lon="10.626609742249794"><ele>62.0</ele><time>2026-03-28T13:43:47.001Z</time></trkpt><trkpt lat="45.62166176793132" lon="10.626476052439978"><ele>62.0</ele><time>2026-03-28T13:43:49.001Z</time></trkpt><trkpt lat="45.62170582904665" lon="10.626342397368662"><ele>62.0</ele><time>2026-03-28T13:43:51.001Z</time></trkpt><trkpt lat="45.621747628989425" lon="10.626209676952556"><ele>62.0</ele><time>2026-03-28T13:43:53.001Z</time></trkpt><trkpt lat="45.62178933570832" lon="10.62607654430532"><ele>62.0</ele><time>2026-03-28T13:43:55.001Z</time></trkpt><trkpt lat="45.62183224449117" lon="10.625942687633053"><ele>62.0</ele><time>2026-03-28T13:43:57.001Z</time></trkpt><trkpt lat="45.62187344338725" lon="10.62580845867995"><ele>62.0</ele><time>2026-03-28T13:43:59.001Z</time></trkpt><trkpt lat="45.62191288968018" lon="10.62567450472694"><ele>62.0</ele><time>2026-03-28T13:44:01.001Z</time></trkpt><trkpt lat="45.621954534384734" lon="10.625542637902106"><ele>62.0</ele><time>2026-03-28T13:44:03.001Z</time></trkpt><trkpt lat="45.62199694240132" lon="10.625411507872576"><ele>62.0</ele><time>2026-03-28T13:44:05.001Z</time></trkpt><trkpt lat="45.62203889175321" lon="10.625283981475732"><ele>62.0</ele><time>2026-03-28T13:44:07Z</time></trkpt><trkpt lat="45.62208232359485" lon="10.62514873575327"><ele>62.0</ele><time>2026-03-28T13:44:09Z</time></trkpt><trkpt lat="45.62212614998135" lon="10.62501743584719"><ele>62.0</ele><time>2026-03-28T13:44:11Z</time></trkpt><trkpt lat="45.62216863026012" lon="10.624890745448639"><ele>62.0</ele><time>2026-03-28T13:44:13Z</time></trkpt><trkpt lat="45.62221052550139" lon="10.624760207397282"><ele>62.0</ele><time>2026-03-28T13:44:15Z</time></trkpt><trkpt lat="45.62225311030384" lon="10.624630656404104"><ele>62.0</ele><time>2026-03-28T13:44:17Z</time></trkpt><trkpt lat="45.622296490283034" lon="10.62450038801481"><ele>62.0</ele><time>2026-03-28T13:44:19Z</time></trkpt><trkpt lat="45.622337714473815" lon="10.624371816846837"><ele>62.0</ele><time>2026-03-28T13:44:21Z</time></trkpt><trkpt lat="45.622382269552446" lon="10.624239267471062"><ele>62.0</ele><time>2026-03-28T13:44:23Z</time></trkpt><trkpt lat="45.62242556885098" lon="10.624105343405187"><ele>62.0</ele><time>2026-03-28T13:44:25Z</time></trkpt><trkpt lat="45.62246700152739" lon="10.623968976747546"><ele>62.0</ele><time>2026-03-28T13:44:27Z</time></trkpt><trkpt lat="45.62251012759187" lon="10.62383564133153"><ele>62.0</ele><time>2026-03-28T13:44:29Z</time></trkpt><trkpt lat="45.62255163762522" lon="10.623705013158789"><ele>62.0</ele><time>2026-03-28T13:44:31Z</time></trkpt><trkpt lat="45.62259321848081" lon="10.623572896974814"><ele>62.0</ele><time>2026-03-28T13:44:33Z</time></trkpt><trkpt lat="45.622633034384535" lon="10.623440800573348"><ele>62.0</ele><time>2026-03-28T13:44:35Z</time></trkpt><trkpt lat="45.62267577625749" lon="10.623307595916518"><ele>62.0</ele><time>2026-03-28T13:44:37Z</time></trkpt><trkpt lat="45.62271722368531" lon="10.623173847663614"><ele>62.0</ele><time>2026-03-28T13:44:39Z</time></trkpt><trkpt lat="45.622761306248336" lon="10.623040099447648"><ele>62.0</ele><time>2026-03-28T13:44:41Z</time></trkpt><trkpt lat="45.622806111612455" lon="10.622903246914875"><ele>62.0</ele><time>2026-03-28T13:44:43Z</time></trkpt><trkpt lat="45.62284526112679" lon="10.622767812839175"><ele>62.0</ele><time>2026-03-28T13:44:45Z</time></trkpt><trkpt lat="45.622888561852825" lon="10.622633351889636"><ele>62.0</ele><time>2026-03-28T13:44:47Z</time></trkpt><trkpt lat="45.62292678748079" lon="10.622498028569687"><ele>62.0</ele><time>2026-03-28T13:44:49Z</time></trkpt><trkpt lat="45.62296328241109" lon="10.622363513092264"><ele>62.0</ele><time>2026-03-28T13:44:51Z</time></trkpt><trkpt lat="45.62299798850116" lon="10.62222624874863"><ele>62.0</ele><time>2026-03-28T13:44:53Z</time></trkpt><trkpt lat="45.62303459190174" lon="10.622092489536143"><ele>62.0</ele><time>2026-03-28T13:44:55Z</time></trkpt><trkpt lat="45.62307400504259" lon="10.621958304154703"><ele>62.0</ele><time>2026-03-28T13:44:57Z</time></trkpt><trkpt lat="45.62311422541002" lon="10.62182372832516"><ele>62.0</ele><time>2026-03-28T13:44:59Z</time></trkpt><trkpt lat="45.62315894432478" lon="10.621687101074313"><ele>62.0</ele><time>2026-03-28T13:45:01Z</time></trkpt><trkpt lat="45.62320089050836" lon="10.621552172399621"><ele>62.0</ele><time>2026-03-28T13:45:03Z</time></trkpt><trkpt lat="45.623243214537474" lon="10.62142005980536"><ele>62.0</ele><time>2026-03-28T13:45:05Z</time></trkpt><trkpt lat="45.62328847551859" lon="10.621284739031363"><ele>62.0</ele><time>2026-03-28T13:45:07Z</time></trkpt><trkpt lat="45.62333203493898" lon="10.62115097220924"><ele>62.0</ele><time>2026-03-28T13:45:09Z</time></trkpt><trkpt lat="45.62337444545966" lon="10.621016977917117"><ele>62.0</ele><time>2026-03-28T13:45:11Z</time></trkpt><trkpt lat="45.62341590538413" lon="10.620882710168503"><ele>62.0</ele><time>2026-03-28T13:45:13Z</time></trkpt><trkpt lat="45.62345536010069" lon="10.620751696242984"><ele>62.0</ele><time>2026-03-28T13:45:15Z</time></trkpt><trkpt lat="45.62349926790421" lon="10.62061931358372"><ele>62.0</ele><time>2026-03-28T13:45:17Z</time></trkpt><trkpt lat="45.62354207055292" lon="10.620485656203314"><ele>62.0</ele><time>2026-03-28T13:45:19Z</time></trkpt><trkpt lat="45.62358510673573" lon="10.62035166473659"><ele>62.0</ele><time>2026-03-28T13:45:21Z</time></trkpt><trkpt lat="45.623626261565775" lon="10.620219838694346"><ele>62.0</ele><time>2026-03-28T13:45:23Z</time></trkpt><trkpt lat="45.62366817151658" lon="10.62008735266939"><ele>62.0</ele><time>2026-03-28T13:45:25Z</time></trkpt><trkpt lat="45.62370616014865" lon="10.619955202617627"><ele>62.0</ele><time>2026-03-28T13:45:27Z</time></trkpt><trkpt lat="45.623746857178695" lon="10.619821316440142"><ele>62.0</ele><time>2026-03-28T13:45:29.001Z</time></trkpt><trkpt lat="45.62378929957618" lon="10.619686920291867"><ele>62.0</ele><time>2026-03-28T13:45:31.001Z</time></trkpt><trkpt lat="45.62382906601839" lon="10.619552803194654"><ele>62.0</ele><time>2026-03-28T13:45:33.001Z</time></trkpt><trkpt lat="45.62386973937352" lon="10.619419349257313"><ele>62.0</ele><time>2026-03-28T13:45:35.001Z</time></trkpt><trkpt lat="45.623910655777806" lon="10.619284479520894"><ele>62.0</ele><time>2026-03-28T13:45:37.001Z</time></trkpt><trkpt lat="45.623950382169426" lon="10.619151742546219"><ele>62.0</ele><time>2026-03-28T13:45:39.001Z</time></trkpt><trkpt lat="45.62399204167778" lon="10.619019263917927"><ele>62.0</ele><time>2026-03-28T13:45:41.001Z</time></trkpt><trkpt lat="45.62403369520222" lon="10.618886132359826"><ele>62.0</ele><time>2026-03-28T13:45:43.001Z</time></trkpt><trkpt lat="45.624074060986715" lon="10.61875325357839"><ele>62.0</ele><time>2026-03-28T13:45:45.001Z</time></trkpt><trkpt lat="45.624114281631144" lon="10.618620117387422"><ele>62.0</ele><time>2026-03-28T13:45:47.001Z</time></trkpt><trkpt lat="45.62415640266844" lon="10.618488704117276"><ele>62.0</ele><time>2026-03-28T13:45:49.001Z</time></trkpt><trkpt lat="45.62420124003796" lon="10.61835715057419"><ele>62.0</ele><time>2026-03-28T13:45:51.001Z</time></trkpt><trkpt lat="45.62424181663889" lon="10.618228857236291"><ele>62.0</ele><time>2026-03-28T13:45:53.001Z</time></trkpt><trkpt lat="45.62428189039229" lon="10.618098312237382"><ele>62.0</ele><time>2026-03-28T13:45:55Z</time></trkpt><trkpt lat="45.6243270765425" lon="10.617963904841051"><ele>62.0</ele><time>2026-03-28T13:45:57Z</time></trkpt><trkpt lat="45.62436968099137" lon="10.61783243468008"><ele>62.0</ele><time>2026-03-28T13:45:59Z</time></trkpt><trkpt lat="45.624413049539584" lon="10.617702201666633"><ele>62.0</ele><time>2026-03-28T13:46:01Z</time></trkpt><trkpt lat="45.624452469460486" lon="10.61757270136322"><ele>62.0</ele><time>2026-03-28T13:46:03Z</time></trkpt><trkpt lat="45.62449222169752" lon="10.617442237425056"><ele>62.0</ele><time>2026-03-28T13:46:05Z</time></trkpt><trkpt lat="45.62453397432567" lon="10.617308866441673"><ele>62.0</ele><time>2026-03-28T13:46:07Z</time></trkpt><trkpt lat="45.624578620655804" lon="10.617177093765724"><ele>62.0</ele><time>2026-03-28T13:46:09Z</time></trkpt><trkpt lat="45.624617901670604" lon="10.617044003142535"><ele>62.0</ele><time>2026-03-28T13:46:11Z</time></trkpt><trkpt lat="45.62465950758019" lon="10.616907496444176"><ele>62.0</ele><time>2026-03-28T13:46:13Z</time></trkpt><trkpt lat="45.624698857936515" lon="10.616773424050988"><ele>62.0</ele><time>2026-03-28T13:46:15Z</time></trkpt><trkpt lat="45.62473822600691" lon="10.616641334762907"><ele>62.0</ele><time>2026-03-28T13:46:17Z</time></trkpt><trkpt lat="45.62477919106483" lon="10.616506830687793"><ele>62.0</ele><time>2026-03-28T13:46:19Z</time></trkpt><trkpt lat="45.6248202092237" lon="10.616372302402155"><ele>62.0</ele><time>2026-03-28T13:46:21Z</time></trkpt><trkpt lat="45.62485523836699" lon="10.616239791700584"><ele>62.0</ele><time>2026-03-28T13:46:23Z</time></trkpt><trkpt lat="45.62489330529759" lon="10.6161039315162"><ele>62.0</ele><time>2026-03-28T13:46:25Z</time></trkpt><trkpt lat="45.624935016120304" lon="10.615970695304037"><ele>62.0</ele><time>2026-03-28T13:46:27Z</time></trkpt><trkpt lat="45.624980197969" lon="10.615839122409843"><ele>62.0</ele><time>2026-03-28T13:46:29Z</time></trkpt><trkpt lat="45.62502567557324" lon="10.615707760604925"><ele>62.0</ele><time>2026-03-28T13:46:31Z</time></trkpt><trkpt lat="45.62507006089052" lon="10.615575046571697"><ele>62.0</ele><time>2026-03-28T13:46:33Z</time></trkpt><trkpt lat="45.62511900224249" lon="10.615442076235546"><ele>62.0</ele><time>2026-03-28T13:46:35Z</time></trkpt><trkpt lat="45.62516395288496" lon="10.615310490782111"><ele>62.0</ele><time>2026-03-28T13:46:37Z</time></trkpt><trkpt lat="45.6252095319087" lon="10.615177864402202"><ele>62.0</ele><time>2026-03-28T13:46:39Z</time></trkpt><trkpt lat="45.62525162965054" lon="10.615048714355364"><ele>62.0</ele><time>2026-03-28T13:46:41Z</time></trkpt><trkpt lat="45.62529481498909" lon="10.614917882446301"><ele>62.0</ele><time>2026-03-28T13:46:43Z</time></trkpt><trkpt lat="45.62533685892787" lon="10.614786165269384"><ele>62.0</ele><time>2026-03-28T13:46:45Z</time></trkpt><trkpt lat="45.625380533680485" lon="10.614655444082135"><ele>62.0</ele><time>2026-03-28T13:46:47Z</time></trkpt><trkpt lat="45.62542101097522" lon="10.614526031976931"><ele>62.0</ele><time>2026-03-28T13:46:49Z</time></trkpt><trkpt lat="45.62546084690684" lon="10.614391555539877"><ele>62.0</ele><time>2026-03-28T13:46:51Z</time></trkpt><trkpt lat="45.62550254691164" lon="10.614255478761818"><ele>62.0</ele><time>2026-03-28T13:46:53Z</time></trkpt><trkpt lat="45.62554469565291" lon="10.614121314800734"><ele>62.0</ele><time>2026-03-28T13:46:55Z</time></trkpt><trkpt lat="45.62558488695194" lon="10.613991700182751"><ele>62.0</ele><time>2026-03-28T13:46:57Z</time></trkpt><trkpt lat="45.62562441284156" lon="10.613862502805864"><ele>62.0</ele><time>2026-03-28T13:46:59Z</time></trkpt><trkpt lat="45.625666490481464" lon="10.61373008040225"><ele>62.0</ele><time>2026-03-28T13:47:01Z</time></trkpt><trkpt lat="45.625706584912294" lon="10.61359810229541"><ele>62.0</ele><time>2026-03-28T13:47:03Z</time></trkpt><trkpt lat="45.625747520600214" lon="10.613466718104526"><ele>62.0</ele><time>2026-03-28T13:47:05Z</time></trkpt><trkpt lat="45.62578806206933" lon="10.613330723746724"><ele>62.0</ele><time>2026-03-28T13:47:07Z</time></trkpt><trkpt lat="45.62582919562361" lon="10.613199971265693"><ele>62.0</ele><time>2026-03-28T13:47:09Z</time></trkpt><trkpt lat="45.62586872770432" lon="10.613067156687325"><ele>62.0</ele><time>2026-03-28T13:47:11Z</time></trkpt><trkpt lat="45.625911459853114" lon="10.612935940123908"><ele>62.0</ele><time>2026-03-28T13:47:13Z</time></trkpt><trkpt lat="45.62595647333686" lon="10.612805221007442"><ele>62.0</ele><time>2026-03-28T13:47:15Z</time></trkpt><trkpt lat="45.62599680186352" lon="10.612674692471682"><ele>62.0</ele><time>2026-03-28T13:47:17Z</time></trkpt><trkpt lat="45.626038203044835" lon="10.612542659186802"><ele>62.0</ele><time>2026-03-28T13:47:19Z</time></trkpt><trkpt lat="45.6260775935697" lon="10.61240885206821"><ele>62.0</ele><time>2026-03-28T13:47:21Z</time></trkpt><trkpt lat="45.6261181703839" lon="10.612277007961087"><ele>62.0</ele><time>2026-03-28T13:47:23Z</time></trkpt><trkpt lat="45.626160006299784" lon="10.612144769556355"><ele>62.0</ele><time>2026-03-28T13:47:25Z</time></trkpt><trkpt lat="45.62620363802493" lon="10.612012050057206"><ele>62.0</ele><time>2026-03-28T13:47:27Z</time></trkpt><trkpt lat="45.62624344787302" lon="10.611883128792329"><ele>62.0</ele><time>2026-03-28T13:47:29Z</time></trkpt><trkpt lat="45.62628581240175" lon="10.611750165768376"><ele>62.0</ele><time>2026-03-28T13:47:31Z</time></trkpt><trkpt lat="45.62632624735289" lon="10.611618785252382"><ele>62.0</ele><time>2026-03-28T13:47:33Z</time></trkpt><trkpt lat="45.62636370738831" lon="10.611487176567936"><ele>62.0</ele><time>2026-03-28T13:47:35Z</time></trkpt><trkpt lat="45.62640514783441" lon="10.611355876705739"><ele>62.0</ele><time>2026-03-28T13:47:37Z</time></trkpt><trkpt lat="45.62644618245314" lon="10.611223952342542"><ele>62.0</ele><time>2026-03-28T13:47:39Z</time></trkpt><trkpt lat="45.62648759574385" lon="10.611092090400437"><ele>62.0</ele><time>2026-03-28T13:47:41Z</time></trkpt><trkpt lat="45.62653045923799" lon="10.610960318745297"><ele>62.0</ele><time>2026-03-28T13:47:43Z</time></trkpt><trkpt lat="45.62657205373641" lon="10.61082962359822"><ele>62.0</ele><time>2026-03-28T13:47:45Z</time></trkpt><trkpt lat="45.62661667012985" lon="10.61069603915157"><ele>62.0</ele><time>2026-03-28T13:47:47Z</time></trkpt><trkpt lat="45.62666008161016" lon="10.610561725130403"><ele>62.0</ele><time>2026-03-28T13:47:49Z</time></trkpt><trkpt lat="45.62670225415956" lon="10.610430961413162"><ele>62.0</ele><time>2026-03-28T13:47:51Z</time></trkpt><trkpt lat="45.62674480318576" lon="10.610298214877794"><ele>62.0</ele><time>2026-03-28T13:47:53Z</time></trkpt><trkpt lat="45.62678529286663" lon="10.610168247886758"><ele>62.0</ele><time>2026-03-28T13:47:55Z</time></trkpt><trkpt lat="45.626825131674686" lon="10.610041403695371"><ele>62.0</ele><time>2026-03-28T13:47:57Z</time></trkpt><trkpt lat="45.62686756366321" lon="10.609908560086689"><ele>62.0</ele><time>2026-03-28T13:47:59Z</time></trkpt><trkpt lat="45.629833757212566" lon="10.60266453250089"><ele>62.00000000000001</ele><time>2026-03-28T13:49:55Z</time></trkpt><trkpt lat="45.62989976166118" lon="10.602574876144468"><ele>62.0</ele><time>2026-03-28T13:49:57Z</time></trkpt><trkpt lat="45.62996188197427" lon="10.602488533470135"><ele>62.0</ele><time>2026-03-28T13:49:59Z</time></trkpt><trkpt lat="45.63002972675618" lon="10.60240834794769"><ele>62.0</ele><time>2026-03-28T13:50:01Z</time></trkpt><trkpt lat="45.63009720419207" lon="10.602330492271504"><ele>62.00000000000001</ele><time>2026-03-28T13:50:03Z</time></trkpt><trkpt lat="45.630166148854094" lon="10.602254728022396"><ele>62.0</ele><time>2026-03-28T13:50:05Z</time></trkpt><trkpt lat="45.63023175634003" lon="10.602184966260701"><ele>62.0</ele><time>2026-03-28T13:50:07Z</time></trkpt><trkpt lat="45.63030122075083" lon="10.60211410782934"><ele>62.0</ele><time>2026-03-28T13:50:09Z</time></trkpt><trkpt lat="45.63043353643538" lon="10.601984006680231"><ele>62.0</ele><time>2026-03-28T13:50:13Z</time></trkpt><trkpt lat="45.63049236065266" lon="10.601923205346555"><ele>62.0</ele><time>2026-03-28T13:50:15Z</time></trkpt><trkpt lat="45.63055007019059" lon="10.601869993551874"><ele>62.0</ele><time>2026-03-28T13:50:17Z</time></trkpt><trkpt lat="45.63060644539839" lon="10.601816061109371"><ele>62.0</ele><time>2026-03-28T13:50:19Z</time></trkpt><trkpt lat="45.63066707553251" lon="10.601769020543566"><ele>62.00000000000001</ele><time>2026-03-28T13:50:21Z</time></trkpt><trkpt lat="45.63072613851969" lon="10.601720207374534"><ele>62.0</ele><time>2026-03-28T13:50:23Z</time></trkpt><trkpt lat="45.63078615931662" lon="10.601678304097002"><ele>62.0</ele><time>2026-03-28T13:50:25Z</time></trkpt><trkpt lat="45.63084292166146" lon="10.601634471337759"><ele>62.00000000000001</ele><time>2026-03-28T13:50:27Z</time></trkpt><trkpt lat="45.630902224060335" lon="10.601593364778656"><ele>62.0</ele><time>2026-03-28T13:50:29Z</time></trkpt><trkpt lat="45.630986139708185" lon="10.601529519973097"><ele>62.0</ele><time>2026-03-28T13:50:32Z</time></trkpt><trkpt lat="45.63112447103402" lon="10.601429678531675"><ele>62.00000000000001</ele><time>2026-03-28T13:50:37Z</time></trkpt><trkpt lat="45.63120255403438" lon="10.601381430052578"><ele>62.0</ele><time>2026-03-28T13:50:40Z</time></trkpt><trkpt lat="45.63128749780325" lon="10.601339402511455"><ele>62.0</ele><time>2026-03-28T13:50:43Z</time></trkpt><trkpt lat="45.631367167432785" lon="10.60129572298366"><ele>62.0</ele><time>2026-03-28T13:50:46Z</time></trkpt><trkpt lat="45.6314578377422" lon="10.60124964849774"><ele>62.00000000000001</ele><time>2026-03-28T13:50:49Z</time></trkpt><trkpt lat="45.63153348262692" lon="10.601211994512763"><ele>62.0</ele><time>2026-03-28T13:50:52Z</time></trkpt><trkpt lat="45.63161123871462" lon="10.601176175297004"><ele>62.0</ele><time>2026-03-28T13:50:55Z</time></trkpt><trkpt lat="45.63175678719767" lon="10.601106224088516"><ele>62.0</ele><time>2026-03-28T13:51:01Z</time></trkpt><trkpt lat="45.63204027189574" lon="10.600991988973751"><ele>62.0</ele><time>2026-03-28T13:51:13Z</time></trkpt><trkpt lat="45.63210945466079" lon="10.60096785376785"><ele>62.142857142857146</ele><time>2026-03-28T13:51:16Z</time></trkpt><trkpt lat="45.63218512473429" lon="10.600934734508169"><ele>62.28571428571429</ele><time>2026-03-28T13:51:20Z</time></trkpt><trkpt lat="45.63226279279247" lon="10.60091721200941"><ele>62.42857142857143</ele><time>2026-03-28T13:51:24Z</time></trkpt><trkpt lat="45.632328190600404" lon="10.600900535741552"><ele>62.57142857142857</ele><time>2026-03-28T13:51:28Z</time></trkpt><trkpt lat="45.63239597363655" lon="10.600887434367259"><ele>62.714285714285715</ele><time>2026-03-28T13:51:34Z</time></trkpt><trkpt lat="45.63246523988258" lon="10.600876796920815"><ele>62.85714285714286</ele><time>2026-03-28T13:51:42Z</time></trkpt><trkpt lat="45.63252857495288" lon="10.600880031693876"><ele>63.0</ele><time>2026-03-28T13:52:07Z</time></trkpt><trkpt lat="45.63260577049434" lon="10.600889422780448"><ele>63.0</ele><time>2026-03-28T13:53:22Z</time></trkpt><trkpt lat="45.63268139333259" lon="10.600881932195469"><ele>63.0</ele><time>2026-03-28T13:53:28Z</time></trkpt><trkpt lat="45.632753283703366" lon="10.600837742706407"><ele>63.0</ele><time>2026-03-28T13:53:33Z</time></trkpt><trkpt lat="45.632816741577194" lon="10.6008284685896"><ele>63.0</ele><time>2026-03-28T13:53:36Z</time></trkpt><trkpt lat="45.632871685973846" lon="10.600874209640736"><ele>63.0</ele><time>2026-03-28T13:53:39Z</time></trkpt><trkpt lat="45.63293429870563" lon="10.600911945696593"><ele>63.0</ele><time>2026-03-28T13:53:43Z</time></trkpt><trkpt lat="45.633000274706454" lon="10.600986953426808"><ele>63.0</ele><time>2026-03-28T13:53:48Z</time></trkpt><trkpt lat="45.632999309499596" lon="10.601148020182988"><ele>63.333333333333336</ele><time>2026-03-28T13:53:50Z</time></trkpt><trkpt lat="45.63294981155237" lon="10.6013059245357"><ele>63.66666666666667</ele><time>2026-03-28T13:53:52Z</time></trkpt><trkpt lat="45.63292203461839" lon="10.601394398410859"><ele>64.0</ele><time>2026-03-28T13:53:53Z</time></trkpt><trkpt lat="45.632892480796876" lon="10.601479870499315"><ele>64.33333333333334</ele><time>2026-03-28T13:53:54Z</time></trkpt><trkpt lat="45.632843163405674" lon="10.601642652018404"><ele>64.66666666666667</ele><time>2026-03-28T13:53:56Z</time></trkpt><trkpt lat="45.63281909593093" lon="10.601729665098565"><ele>65.0</ele><time>2026-03-28T13:53:57Z</time></trkpt><trkpt lat="45.63278812778685" lon="10.601822992572979"><ele>65.0</ele><time>2026-03-28T13:53:58Z</time></trkpt><trkpt lat="45.63275994506911" lon="10.601924213404807"><ele>65.0</ele><time>2026-03-28T13:53:59Z</time></trkpt><trkpt lat="45.63272631736804" lon="10.60202889989901"><ele>65.0</ele><time>2026-03-28T13:54:00Z</time></trkpt><trkpt lat="45.632693889034115" lon="10.602134736926558"><ele>65.0</ele><time>2026-03-28T13:54:01Z</time></trkpt><trkpt lat="45.63266539674979" lon="10.602219909073819"><ele>65.0</ele><time>2026-03-28T13:54:02Z</time></trkpt><trkpt lat="45.632610730605236" lon="10.602393610470052"><ele>65.0</ele><time>2026-03-28T13:54:04Z</time></trkpt><trkpt lat="45.632582080065355" lon="10.602486632095152"><ele>65.5</ele><time>2026-03-28T13:54:05Z</time></trkpt><trkpt lat="45.63252703151083" lon="10.602637615099857"><ele>66.0</ele><time>2026-03-28T13:54:07Z</time></trkpt><trkpt lat="45.63249908240203" lon="10.602725276993564"><ele>66.5</ele><time>2026-03-28T13:54:08Z</time></trkpt><trkpt lat="45.63246954776802" lon="10.602819487649025"><ele>67.0</ele><time>2026-03-28T13:54:09Z</time></trkpt><trkpt lat="45.63243997714735" lon="10.60291799750764"><ele>67.5</ele><time>2026-03-28T13:54:10Z</time></trkpt><trkpt lat="45.632411653126965" lon="10.603015492030726"><ele>68.0</ele><time>2026-03-28T13:54:11Z</time></trkpt><trkpt lat="45.63238724047773" lon="10.60309936401561"><ele>68.2</ele><time>2026-03-28T13:54:12Z</time></trkpt><trkpt lat="45.632339475718545" lon="10.60324412739835"><ele>68.4</ele><time>2026-03-28T13:54:14Z</time></trkpt><trkpt lat="45.632292646888914" lon="10.60340517423186"><ele>68.60000000000001</ele><time>2026-03-28T13:54:16Z</time></trkpt><trkpt lat="45.632241142236744" lon="10.603559658306468"><ele>68.8</ele><time>2026-03-28T13:54:18Z</time></trkpt><trkpt lat="45.63219810879715" lon="10.603678094890213"><ele>69.0</ele><time>2026-03-28T13:54:19.998Z</time></trkpt><trkpt lat="45.632164211200724" lon="10.603806983889903"><ele>69.0</ele><time>2026-03-28T13:54:21.998Z</time></trkpt><trkpt lat="45.63220015780453" lon="10.60393993766491"><ele>69.0</ele><time>2026-03-28T13:54:23.998Z</time></trkpt><trkpt lat="45.63225831918719" lon="10.604002909148482"><ele>69.0</ele><time>2026-03-28T13:54:24.998Z</time></trkpt><trkpt lat="45.632340061985715" lon="10.604071901016322"><ele>69.0</ele><time>2026-03-28T13:54:25.998Z</time></trkpt><trkpt lat="45.6324112256411" lon="10.604179702669747"><ele>69.0</ele><time>2026-03-28T13:54:26.998Z</time></trkpt><trkpt lat="45.63250381740499" lon="10.60430598991332"><ele>69.0</ele><time>2026-03-28T13:54:27.998Z</time></trkpt><trkpt lat="45.63259981883816" lon="10.604392904668691"><ele>69.0</ele><time>2026-03-28T13:54:28.998Z</time></trkpt><trkpt lat="45.63266650600256" lon="10.604499882633375"><ele>69.0</ele><time>2026-03-28T13:54:29.998Z</time></trkpt><trkpt lat="45.632741706714654" lon="10.604620368267026"><ele>69.0</ele><time>2026-03-28T13:54:30.998Z</time></trkpt><trkpt lat="45.632825732483944" lon="10.604740957802568"><ele>69.0</ele><time>2026-03-28T13:54:31.998Z</time></trkpt><trkpt lat="45.63290341033752" lon="10.604860070019988"><ele>68.8</ele><time>2026-03-28T13:54:32.998Z</time></trkpt><trkpt lat="45.63297635724771" lon="10.604968789395905"><ele>68.60000000000001</ele><time>2026-03-28T13:54:33.998Z</time></trkpt><trkpt lat="45.6330553943725" lon="10.60507891791687"><ele>68.4</ele><time>2026-03-28T13:54:34.998Z</time></trkpt><trkpt lat="45.63312704316371" lon="10.605181992727433"><ele>68.2</ele><time>2026-03-28T13:54:35.998Z</time></trkpt><trkpt lat="45.63319597409669" lon="10.60528296166679"><ele>68.0</ele><time>2026-03-28T13:54:36.998Z</time></trkpt><trkpt lat="45.633263123858825" lon="10.605380001633646"><ele>68.4</ele><time>2026-03-28T13:54:37.998Z</time></trkpt><trkpt lat="45.63333276422423" lon="10.605479312613523"><ele>68.8</ele><time>2026-03-28T13:54:38.998Z</time></trkpt><trkpt lat="45.63340463119471" lon="10.605581102264324"><ele>69.2</ele><time>2026-03-28T13:54:39.998Z</time></trkpt><trkpt lat="45.633478389541295" lon="10.605684297957929"><ele>69.6</ele><time>2026-03-28T13:54:40.998Z</time></trkpt><trkpt lat="45.63355522897145" lon="10.605786935840825"><ele>70.0</ele><time>2026-03-28T13:54:41.999Z</time></trkpt><trkpt lat="45.63363142204886" lon="10.605883752503605"><ele>70.0</ele><time>2026-03-28T13:54:42.999Z</time></trkpt><trkpt lat="45.63370441163467" lon="10.605974188765565"><ele>70.0</ele><time>2026-03-28T13:54:43.999Z</time></trkpt><trkpt lat="45.63378256180884" lon="10.606066008338246"><ele>70.0</ele><time>2026-03-28T13:54:44.999Z</time></trkpt><trkpt lat="45.6338590002131" lon="10.606156199466318"><ele>70.0</ele><time>2026-03-28T13:54:45.999Z</time></trkpt><trkpt lat="45.63392287676717" lon="10.606228888789264"><ele>70.0</ele><time>2026-03-28T13:54:46.999Z</time></trkpt><trkpt lat="45.633979902914774" lon="10.606293931320137"><ele>70.0</ele><time>2026-03-28T13:54:47.999Z</time></trkpt><trkpt lat="45.634063265033234" lon="10.6063972125261"><ele>70.0</ele><time>2026-03-28T13:54:49.999Z</time></trkpt><trkpt lat="45.63414286602842" lon="10.606485556607527"><ele>70.0</ele><time>2026-03-28T13:54:51.999Z</time></trkpt><trkpt lat="45.634217787775576" lon="10.60653643277596"><ele>70.0</ele><time>2026-03-28T13:54:52.999Z</time></trkpt><trkpt lat="45.63431093720553" lon="10.606607530182718"><ele>70.0</ele><time>2026-03-28T13:54:53.999Z</time></trkpt><trkpt lat="45.63442233503644" lon="10.606683106303004"><ele>70.25</ele><time>2026-03-28T13:54:54.999Z</time></trkpt><trkpt lat="45.63453161173778" lon="10.606769503400514"><ele>70.5</ele><time>2026-03-28T13:54:55.999Z</time></trkpt><trkpt lat="45.634625890770664" lon="10.606864347928315"><ele>70.75</ele><time>2026-03-28T13:54:56.999Z</time></trkpt><trkpt lat="45.634702968329115" lon="10.60697827289243"><ele>71.0</ele><time>2026-03-28T13:54:57.999Z</time></trkpt><trkpt lat="45.63477120999232" lon="10.607109823875483"><ele>71.0</ele><time>2026-03-28T13:54:58.999Z</time></trkpt><trkpt lat="45.634846894804085" lon="10.607235876400354"><ele>71.0</ele><time>2026-03-28T13:54:59.999Z</time></trkpt><trkpt lat="45.63491803252864" lon="10.607352624900962"><ele>71.0</ele><time>2026-03-28T13:55:00.999Z</time></trkpt><trkpt lat="45.63498635920943" lon="10.607460241356783"><ele>71.0</ele><time>2026-03-28T13:55:01.999Z</time></trkpt><trkpt lat="45.63503856894722" lon="10.60754519291782"><ele>71.0</ele><time>2026-03-28T13:55:02.999Z</time></trkpt><trkpt lat="45.63508501961981" lon="10.607618615512347"><ele>71.0</ele><time>2026-03-28T13:55:04.999Z</time></trkpt><trkpt lat="45.63515023048397" lon="10.607685975164507"><ele>71.0</ele><time>2026-03-28T13:55:07.999Z</time></trkpt><trkpt lat="45.63526526365542" lon="10.607521503296402"><ele>71.0</ele><time>2026-03-28T13:55:08.999Z</time></trkpt><trkpt lat="45.63533901452643" lon="10.60741227512289"><ele>71.0</ele><time>2026-03-28T13:55:09.999Z</time></trkpt><trkpt lat="45.6354169643674" lon="10.60728350343532"><ele>71.25</ele><time>2026-03-28T13:55:10.999Z</time></trkpt><trkpt lat="45.63551629533839" lon="10.607146147718623"><ele>71.5</ele><time>2026-03-28T13:55:11.999Z</time></trkpt><trkpt lat="45.63562500022863" lon="10.60699948150184"><ele>71.75</ele><time>2026-03-28T13:55:12.999Z</time></trkpt><trkpt lat="45.6357289164355" lon="10.606859412019853"><ele>72.0</ele><time>2026-03-28T13:55:13.999Z</time></trkpt><trkpt lat="45.63583300258835" lon="10.606704077549844"><ele>72.0</ele><time>2026-03-28T13:55:14.999Z</time></trkpt><trkpt lat="45.635934397227274" lon="10.606552574675511"><ele>72.0</ele><time>2026-03-28T13:55:15.999Z</time></trkpt><trkpt lat="45.63603561006057" lon="10.606403472691914"><ele>72.0</ele><time>2026-03-28T13:55:16.999Z</time></trkpt><trkpt lat="45.63613905705418" lon="10.606250659483733"><ele>72.0</ele><time>2026-03-28T13:55:17.999Z</time></trkpt><trkpt lat="45.636232707543066" lon="10.606114885869982"><ele>72.5</ele><time>2026-03-28T13:55:18.999Z</time></trkpt><trkpt lat="45.63632466429084" lon="10.605983411332307"><ele>73.0</ele><time>2026-03-28T13:55:19.999Z</time></trkpt><trkpt lat="45.63640930336856" lon="10.605835866357006"><ele>73.5</ele><time>2026-03-28T13:55:20.999Z</time></trkpt><trkpt lat="45.63649013757524" lon="10.60571821858197"><ele>74.0</ele><time>2026-03-28T13:55:21.999Z</time></trkpt><trkpt lat="45.63656985615601" lon="10.60563399650392"><ele>74.0</ele><time>2026-03-28T13:55:22.999Z</time></trkpt><trkpt lat="45.63662373884066" lon="10.605525201608991"><ele>74.0</ele><time>2026-03-28T13:55:23.999Z</time></trkpt><trkpt lat="45.636689143530226" lon="10.605466053507797"><ele>74.0</ele><time>2026-03-28T13:55:24.999Z</time></trkpt><trkpt lat="45.63677868850557" lon="10.60534041159354"><ele>74.0</ele><time>2026-03-28T13:55:26.999Z</time></trkpt><trkpt lat="45.63682384712825" lon="10.605242234699439"><ele>74.0</ele><time>2026-03-28T13:55:28Z</time></trkpt><trkpt lat="45.63690151067358" lon="10.605162859671925"><ele>73.75</ele><time>2026-03-28T13:55:30Z</time></trkpt><trkpt lat="45.63681380107565" lon="10.60501096377594"><ele>73.5</ele><time>2026-03-28T13:55:31Z</time></trkpt><trkpt lat="45.63673529624954" lon="10.604920789161351"><ele>73.25</ele><time>2026-03-28T13:55:32Z</time></trkpt><trkpt lat="45.63664588005051" lon="10.604811580332065"><ele>73.0</ele><time>2026-03-28T13:55:33Z</time></trkpt><trkpt lat="45.63656017038324" lon="10.60466770200851"><ele>73.0</ele><time>2026-03-28T13:55:34Z</time></trkpt><trkpt lat="45.63647035329499" lon="10.604500073161597"><ele>73.0</ele><time>2026-03-28T13:55:35Z</time></trkpt><trkpt lat="45.636388746519906" lon="10.604298218698895"><ele>73.0</ele><time>2026-03-28T13:55:36Z</time></trkpt><trkpt lat="45.63629610950162" lon="10.604121337571106"><ele>72.75</ele><time>2026-03-28T13:55:37Z</time></trkpt><trkpt lat="45.63620844495381" lon="10.603953309380856"><ele>72.5</ele><time>2026-03-28T13:55:38Z</time></trkpt><trkpt lat="45.63612314907234" lon="10.603789821225515"><ele>72.25</ele><time>2026-03-28T13:55:39Z</time></trkpt><trkpt lat="45.63605176769491" lon="10.60365277673336"><ele>72.0</ele><time>2026-03-28T13:55:40Z</time></trkpt><trkpt lat="45.63598778068948" lon="10.60352974727026"><ele>71.33333333333333</ele><time>2026-03-28T13:55:41Z</time></trkpt><trkpt lat="45.63590832300851" lon="10.603376971691931"><ele>70.66666666666666</ele><time>2026-03-28T13:55:42Z</time></trkpt><trkpt lat="45.63579863054239" lon="10.603214742330756"><ele>70.0</ele><time>2026-03-28T13:55:43Z</time></trkpt><trkpt lat="45.63570195822161" lon="10.60303048290623"><ele>70.0</ele><time>2026-03-28T13:55:44Z</time></trkpt><trkpt lat="45.635606249048976" lon="10.602852555890419"><ele>70.0</ele><time>2026-03-28T13:55:45Z</time></trkpt><trkpt lat="45.63550535083468" lon="10.60266577567329"><ele>70.0</ele><time>2026-03-28T13:55:46Z</time></trkpt><trkpt lat="45.63540588401649" lon="10.602468050950309"><ele>70.33333333333333</ele><time>2026-03-28T13:55:47Z</time></trkpt><trkpt lat="45.63531475341888" lon="10.602285347230767"><ele>70.66666666666667</ele><time>2026-03-28T13:55:48Z</time></trkpt><trkpt lat="45.63522079700631" lon="10.602109538199633"><ele>71.0</ele><time>2026-03-28T13:55:49Z</time></trkpt><trkpt lat="45.63512686734468" lon="10.601931997450949"><ele>70.33333333333334</ele><time>2026-03-28T13:55:50Z</time></trkpt><trkpt lat="45.63506041103757" lon="10.60173588301872"><ele>69.66666666666667</ele><time>2026-03-28T13:55:51Z</time></trkpt><trkpt lat="45.63497013297542" lon="10.601565848775236"><ele>69.0</ele><time>2026-03-28T13:55:52Z</time></trkpt><trkpt lat="45.63492864275591" lon="10.601357778659922"><ele>69.33333333333333</ele><time>2026-03-28T13:55:53Z</time></trkpt><trkpt lat="45.634904500066355" lon="10.60114352492196"><ele>69.66666666666666</ele><time>2026-03-28T13:55:54Z</time></trkpt><trkpt lat="45.634886764915954" lon="10.600923554456344"><ele>70.0</ele><time>2026-03-28T13:55:55Z</time></trkpt><trkpt lat="45.634949222563314" lon="10.600732181325707"><ele>70.0</ele><time>2026-03-28T13:55:56Z</time></trkpt><trkpt lat="45.635005339153395" lon="10.600535515683054"><ele>70.0</ele><time>2026-03-28T13:55:57Z</time></trkpt><trkpt lat="45.635069136981485" lon="10.60035039839493"><ele>70.0</ele><time>2026-03-28T13:55:58Z</time></trkpt><trkpt lat="45.63512766504469" lon="10.600181734551827"><ele>70.0</ele><time>2026-03-28T13:55:59Z</time></trkpt><trkpt lat="45.6351710385783" lon="10.600012219678964"><ele>70.4</ele><time>2026-03-28T13:56:00Z</time></trkpt><trkpt lat="45.635237761395686" lon="10.599886322496046"><ele>70.8</ele><time>2026-03-28T13:56:01Z</time></trkpt><trkpt lat="45.63529327758795" lon="10.599764365301278"><ele>71.2</ele><time>2026-03-28T13:56:02Z</time></trkpt><trkpt lat="45.63532394558426" lon="10.599663489670833"><ele>71.6</ele><time>2026-03-28T13:56:03Z</time></trkpt><trkpt lat="45.63538222640317" lon="10.599589534596722"><ele>72.0</ele><time>2026-03-28T13:56:04Z</time></trkpt><trkpt lat="45.635450813894494" lon="10.599466055946904"><ele>72.0</ele><time>2026-03-28T13:56:05Z</time></trkpt><trkpt lat="45.63552627075992" lon="10.599328090722786"><ele>72.0</ele><time>2026-03-28T13:56:06Z</time></trkpt><trkpt lat="45.63558088754301" lon="10.599186874394405"><ele>72.0</ele><time>2026-03-28T13:56:07Z</time></trkpt><trkpt lat="45.63563012194554" lon="10.599074475702805"><ele>72.0</ele><time>2026-03-28T13:56:08Z</time></trkpt><trkpt lat="45.63566175512604" lon="10.598972623939806"><ele>72.0</ele><time>2026-03-28T13:56:09Z</time></trkpt><trkpt lat="45.63569252928018" lon="10.598880383796988"><ele>72.0</ele><time>2026-03-28T13:56:10Z</time></trkpt><trkpt lat="45.63570821183171" lon="10.598729842604168"><ele>72.0</ele><time>2026-03-28T13:56:11Z</time></trkpt><trkpt lat="45.63572321513863" lon="10.598564720573648"><ele>72.0</ele><time>2026-03-28T13:56:12Z</time></trkpt><trkpt lat="45.63571714355823" lon="10.598373584615667"><ele>72.0</ele><time>2026-03-28T13:56:13Z</time></trkpt><trkpt lat="45.63571349676921" lon="10.598211920975002"><ele>72.4</ele><time>2026-03-28T13:56:14Z</time></trkpt><trkpt lat="45.63570895157173" lon="10.598065947372998"><ele>72.80000000000001</ele><time>2026-03-28T13:56:15Z</time></trkpt><trkpt lat="45.63570415038484" lon="10.59793576882788"><ele>73.2</ele><time>2026-03-28T13:56:16Z</time></trkpt><trkpt lat="45.63569062655479" lon="10.597816502874545"><ele>73.60000000000001</ele><time>2026-03-28T13:56:17Z</time></trkpt><trkpt lat="45.63567441294709" lon="10.597691632045018"><ele>74.0</ele><time>2026-03-28T13:56:18Z</time></trkpt><trkpt lat="45.63565134804573" lon="10.597557947866658"><ele>75.0</ele><time>2026-03-28T13:56:19Z</time></trkpt><trkpt lat="45.635643784342015" lon="10.597420922743934"><ele>76.0</ele><time>2026-03-28T13:56:20Z</time></trkpt><trkpt lat="45.63561296428042" lon="10.597301312871359"><ele>77.0</ele><time>2026-03-28T13:56:21Z</time></trkpt><trkpt lat="45.63557956538" lon="10.59718539071499"><ele>78.0</ele><time>2026-03-28T13:56:22Z</time></trkpt><trkpt lat="45.635520875728005" lon="10.597071768217553"><ele>79.0</ele><time>2026-03-28T13:56:23Z</time></trkpt><trkpt lat="45.6354808918018" lon="10.596923310076928"><ele>77.25</ele><time>2026-03-28T13:56:24Z</time></trkpt><trkpt lat="45.63541873100307" lon="10.596783139240662"><ele>75.5</ele><time>2026-03-28T13:56:24.996Z</time></trkpt><trkpt lat="45.63534208835864" lon="10.596628295428836"><ele>73.75</ele><time>2026-03-28T13:56:25.996Z</time></trkpt><trkpt lat="45.63525437356728" lon="10.596453126372232"><ele>72.0</ele><time>2026-03-28T13:56:26.996Z</time></trkpt><trkpt lat="45.635163868448146" lon="10.596262241479032"><ele>74.0</ele><time>2026-03-28T13:56:27.996Z</time></trkpt><trkpt lat="45.635057522849586" lon="10.596057170830687"><ele>76.0</ele><time>2026-03-28T13:56:28.996Z</time></trkpt><trkpt lat="45.63497791333108" lon="10.59581135952099"><ele>78.0</ele><time>2026-03-28T13:56:29.996Z</time></trkpt><trkpt lat="45.63488853527676" lon="10.595572769528227"><ele>78.0</ele><time>2026-03-28T13:56:30.996Z</time></trkpt><trkpt lat="45.63477366547301" lon="10.595357786395317"><ele>78.0</ele><time>2026-03-28T13:56:31.996Z</time></trkpt><trkpt lat="45.63467852222909" lon="10.595120757880386"><ele>78.0</ele><time>2026-03-28T13:56:32.996Z</time></trkpt><trkpt lat="45.63457854298854" lon="10.5948851834448"><ele>77.66666666666667</ele><time>2026-03-28T13:56:33.996Z</time></trkpt><trkpt lat="45.63447999713371" lon="10.594661379678453"><ele>77.33333333333334</ele><time>2026-03-28T13:56:34.996Z</time></trkpt><trkpt lat="45.63438075123764" lon="10.594454516242525"><ele>77.0</ele><time>2026-03-28T13:56:35.996Z</time></trkpt><trkpt lat="45.634282556921605" lon="10.594268601102506"><ele>77.0</ele><time>2026-03-28T13:56:36.996Z</time></trkpt><trkpt lat="45.63418829719999" lon="10.594097686305084"><ele>77.0</ele><time>2026-03-28T13:56:37.997Z</time></trkpt><trkpt lat="45.63410423908228" lon="10.593939867950857"><ele>77.0</ele><time>2026-03-28T13:56:38.997Z</time></trkpt><trkpt lat="45.634024808740946" lon="10.593792252539304"><ele>77.0</ele><time>2026-03-28T13:56:39.997Z</time></trkpt><trkpt lat="45.6339380934149" lon="10.593631475574616"><ele>83.33333333333334</ele><time>2026-03-28T13:56:40.997Z</time></trkpt><trkpt lat="45.633861054227964" lon="10.59342720957981"><ele>89.66666666666667</ele><time>2026-03-28T13:56:41.997Z</time></trkpt><trkpt lat="45.63375495894022" lon="10.593223648255261"><ele>96.0</ele><time>2026-03-28T13:56:42.997Z</time></trkpt><trkpt lat="45.63364890385597" lon="10.593020163949397"><ele>89.0</ele><time>2026-03-28T13:56:43.997Z</time></trkpt><trkpt lat="45.63353442711775" lon="10.592800563935109"><ele>82.0</ele><time>2026-03-28T13:56:44.997Z</time></trkpt><trkpt lat="45.6334158855079" lon="10.59257568521268"><ele>75.0</ele><time>2026-03-28T13:56:45.997Z</time></trkpt><trkpt lat="45.63329016900424" lon="10.592348468535606"><ele>75.0</ele><time>2026-03-28T13:56:46.998Z</time></trkpt><trkpt lat="45.63315829593951" lon="10.592138516029133"><ele>75.0</ele><time>2026-03-28T13:56:47.998Z</time></trkpt><trkpt lat="45.63300833150553" lon="10.591954050382645"><ele>75.0</ele><time>2026-03-28T13:56:48.998Z</time></trkpt><trkpt lat="45.63284456364027" lon="10.591807419107443"><ele>74.33333333333333</ele><time>2026-03-28T13:56:49.998Z</time></trkpt><trkpt lat="45.63268560391521" lon="10.59164543818421"><ele>73.66666666666666</ele><time>2026-03-28T13:56:50.998Z</time></trkpt><trkpt lat="45.6325523196424" lon="10.591443800769587"><ele>73.0</ele><time>2026-03-28T13:56:51.998Z</time></trkpt><trkpt lat="45.6324432903619" lon="10.59121525796287"><ele>79.0</ele><time>2026-03-28T13:56:52.998Z</time></trkpt><trkpt lat="45.632339463658305" lon="10.590980375704559"><ele>85.0</ele><time>2026-03-28T13:56:53.998Z</time></trkpt><trkpt lat="45.63224034469406" lon="10.590737077652461"><ele>91.0</ele><time>2026-03-28T13:56:54.998Z</time></trkpt><trkpt lat="45.63214115711586" lon="10.590496561514923"><ele>86.0</ele><time>2026-03-28T13:56:55.998Z</time></trkpt><trkpt lat="45.63202974577244" lon="10.590252652013868"><ele>81.0</ele><time>2026-03-28T13:56:56.998Z</time></trkpt><trkpt lat="45.6318998968997" lon="10.590022926415664"><ele>76.0</ele><time>2026-03-28T13:56:57.998Z</time></trkpt><trkpt lat="45.63178133422303" lon="10.589780013420347"><ele>76.0</ele><time>2026-03-28T13:56:58.998Z</time></trkpt><trkpt lat="45.631647887287315" lon="10.589543829973717"><ele>76.0</ele><time>2026-03-28T13:56:59.998Z</time></trkpt><trkpt lat="45.63152224387826" lon="10.589326594395317"><ele>76.0</ele><time>2026-03-28T13:57:00.998Z</time></trkpt><trkpt lat="45.63141035807543" lon="10.589132125926954"><ele>76.0</ele><time>2026-03-28T13:57:01.998Z</time></trkpt><trkpt lat="45.631313124772475" lon="10.588969670024836"><ele>76.0</ele><time>2026-03-28T13:57:02.999Z</time></trkpt><trkpt lat="45.63121791122742" lon="10.588816439645031"><ele>76.0</ele><time>2026-03-28T13:57:03.999Z</time></trkpt><trkpt lat="45.63110850713723" lon="10.588653419407612"><ele>76.0</ele><time>2026-03-28T13:57:04.999Z</time></trkpt><trkpt lat="45.631006985065326" lon="10.588506291870914"><ele>76.0</ele><time>2026-03-28T13:57:05.999Z</time></trkpt><trkpt lat="45.63091318731621" lon="10.588370282291933"><ele>76.0</ele><time>2026-03-28T13:57:06.999Z</time></trkpt><trkpt lat="45.63082453497207" lon="10.588241733736842"><ele>76.0</ele><time>2026-03-28T13:57:07.999Z</time></trkpt><trkpt lat="45.6307346692442" lon="10.588111437390335"><ele>76.0</ele><time>2026-03-28T13:57:08.999Z</time></trkpt><trkpt lat="45.63063574331878" lon="10.587967522179481"><ele>76.0</ele><time>2026-03-28T13:57:09.999Z</time></trkpt><trkpt lat="45.63053210939113" lon="10.587816322309655"><ele>76.0</ele><time>2026-03-28T13:57:10.999Z</time></trkpt><trkpt lat="45.630427241558245" lon="10.587663322148423"><ele>76.0</ele><time>2026-03-28T13:57:11.999Z</time></trkpt><trkpt lat="45.6303265561382" lon="10.587518909451711"><ele>77.0</ele><time>2026-03-28T13:57:12.999Z</time></trkpt><trkpt lat="45.63022552892605" lon="10.587379295601913"><ele>78.0</ele><time>2026-03-28T13:57:13.999Z</time></trkpt><trkpt lat="45.630133206596646" lon="10.587259742277089"><ele>79.0</ele><time>2026-03-28T13:57:14.999Z</time></trkpt><trkpt lat="45.630040684250986" lon="10.587171882100426"><ele>80.0</ele><time>2026-03-28T13:57:15.999Z</time></trkpt><trkpt lat="45.62996499309876" lon="10.587068293110462"><ele>84.0</ele><time>2026-03-28T13:57:16.999Z</time></trkpt><trkpt lat="45.62987712856364" lon="10.586979627554042"><ele>88.0</ele><time>2026-03-28T13:57:17.999Z</time></trkpt><trkpt lat="45.62979858255481" lon="10.586873008676095"><ele>92.0</ele><time>2026-03-28T13:57:18.999Z</time></trkpt><trkpt lat="45.62970970651049" lon="10.586798461957876"><ele>96.0</ele><time>2026-03-28T13:57:19.999Z</time></trkpt><trkpt lat="45.62961613423777" lon="10.586758373401645"><ele>100.0</ele><time>2026-03-28T13:57:20.999Z</time></trkpt><trkpt lat="45.629527716814415" lon="10.586687681372675"><ele>95.4</ele><time>2026-03-28T13:57:21.999Z</time></trkpt><trkpt lat="45.629414753061454" lon="10.586637808553945"><ele>90.8</ele><time>2026-03-28T13:57:22.999Z</time></trkpt><trkpt lat="45.62930171274347" lon="10.586606085305478"><ele>86.2</ele><time>2026-03-28T13:57:23.999Z</time></trkpt><trkpt lat="45.629202347717246" lon="10.58660879257201"><ele>81.6</ele><time>2026-03-28T13:57:24.999Z</time></trkpt><trkpt lat="45.62911049707435" lon="10.586602597508278"><ele>77.0</ele><time>2026-03-28T13:57:25.999Z</time></trkpt><trkpt lat="45.62903051901029" lon="10.586601239364287"><ele>77.0</ele><time>2026-03-28T13:57:26.999Z</time></trkpt><trkpt lat="45.62893288063598" lon="10.586606980791577"><ele>77.0</ele><time>2026-03-28T13:57:27.999Z</time></trkpt><trkpt lat="45.6288089473044" lon="10.586611270801722"><ele>77.0</ele><time>2026-03-28T13:57:28.999Z</time></trkpt><trkpt lat="45.62866810927357" lon="10.58661083584807"><ele>77.0</ele><time>2026-03-28T13:57:29.999Z</time></trkpt><trkpt lat="45.62852309553574" lon="10.586608227185863"><ele>76.5</ele><time>2026-03-28T13:57:30.999Z</time></trkpt><trkpt lat="45.62837848500621" lon="10.586607434245852"><ele>76.0</ele><time>2026-03-28T13:57:31.999Z</time></trkpt><trkpt lat="45.628251062747516" lon="10.586614730884538"><ele>75.5</ele><time>2026-03-28T13:57:32.999Z</time></trkpt><trkpt lat="45.628127621114864" lon="10.586622250261332"><ele>75.0</ele><time>2026-03-28T13:57:34Z</time></trkpt><trkpt lat="45.628013801139794" lon="10.586620870949526"><ele>75.0</ele><time>2026-03-28T13:57:35Z</time></trkpt><trkpt lat="45.62790267994308" lon="10.586617352814224"><ele>75.0</ele><time>2026-03-28T13:57:36Z</time></trkpt><trkpt lat="45.62778765095291" lon="10.586588063851668"><ele>75.0</ele><time>2026-03-28T13:57:37Z</time></trkpt><trkpt lat="45.62767514816242" lon="10.58653547309309"><ele>75.0</ele><time>2026-03-28T13:57:38Z</time></trkpt><trkpt lat="45.62756169656324" lon="10.586459562266738"><ele>75.33333333333333</ele><time>2026-03-28T13:57:39Z</time></trkpt><trkpt lat="45.627430752343756" lon="10.586318924564194"><ele>75.66666666666666</ele><time>2026-03-28T13:57:40Z</time></trkpt><trkpt lat="45.627282761828084" lon="10.58618101222989"><ele>76.0</ele><time>2026-03-28T13:57:41Z</time></trkpt><trkpt lat="45.627135423594744" lon="10.586052862198473"><ele>76.66666666666666</ele><time>2026-03-28T13:57:42Z</time></trkpt><trkpt lat="45.626994170546375" lon="10.58591955058377"><ele>77.33333333333333</ele><time>2026-03-28T13:57:43Z</time></trkpt><trkpt lat="45.62686290190148" lon="10.585798331647126"><ele>78.0</ele><time>2026-03-28T13:57:44Z</time></trkpt><trkpt lat="45.62672486289497" lon="10.585684114174065"><ele>78.0</ele><time>2026-03-28T13:57:45Z</time></trkpt><trkpt lat="45.626597058043835" lon="10.5855678847548"><ele>78.0</ele><time>2026-03-28T13:57:46Z</time></trkpt><trkpt lat="45.62648543048507" lon="10.585453385950121"><ele>78.0</ele><time>2026-03-28T13:57:47Z</time></trkpt><trkpt lat="45.62638761250055" lon="10.585300548035251"><ele>78.0</ele><time>2026-03-28T13:57:48Z</time></trkpt><trkpt lat="45.62629687881306" lon="10.585131472215966"><ele>78.25</ele><time>2026-03-28T13:57:49Z</time></trkpt><trkpt lat="45.62620695120051" lon="10.584949658270874"><ele>78.5</ele><time>2026-03-28T13:57:50Z</time></trkpt><trkpt lat="45.626125462504966" lon="10.584769651826008"><ele>78.75</ele><time>2026-03-28T13:57:51Z</time></trkpt><trkpt lat="45.626065030810324" lon="10.584583362446953"><ele>79.0</ele><time>2026-03-28T13:57:52Z</time></trkpt><trkpt lat="45.62603928048903" lon="10.58440997736856"><ele>77.75</ele><time>2026-03-28T13:57:53Z</time></trkpt><trkpt lat="45.626027163359545" lon="10.584228419787875"><ele>76.5</ele><time>2026-03-28T13:57:54Z</time></trkpt><trkpt lat="45.62604402719519" lon="10.584036291943253"><ele>75.25</ele><time>2026-03-28T13:57:55Z</time></trkpt><trkpt lat="45.62606720466062" lon="10.583855267695656"><ele>74.0</ele><time>2026-03-28T13:57:56Z</time></trkpt><trkpt lat="45.626088075342594" lon="10.58369755480101"><ele>73.60000000000001</ele><time>2026-03-28T13:57:57Z</time></trkpt><trkpt lat="45.626100168503065" lon="10.583550660672394"><ele>73.2</ele><time>2026-03-28T13:57:58Z</time></trkpt><trkpt lat="45.62612138641464" lon="10.583398949238694"><ele>72.80000000000001</ele><time>2026-03-28T13:57:59Z</time></trkpt><trkpt lat="45.62613762741613" lon="10.583232988644829"><ele>72.4</ele><time>2026-03-28T13:58:00Z</time></trkpt><trkpt lat="45.62616415131933" lon="10.583076812998877"><ele>72.0</ele><time>2026-03-28T13:58:01Z</time></trkpt><trkpt lat="45.62617430285922" lon="10.582896118044301"><ele>76.33333333333333</ele><time>2026-03-28T13:58:02Z</time></trkpt><trkpt lat="45.62618952064048" lon="10.582683923442204"><ele>80.66666666666666</ele><time>2026-03-28T13:58:03Z</time></trkpt><trkpt lat="45.626187882493205" lon="10.582451920680864"><ele>85.0</ele><time>2026-03-28T13:58:04Z</time></trkpt><trkpt lat="45.62618542554088" lon="10.582206127261106"><ele>84.66666666666666</ele><time>2026-03-28T13:58:05Z</time></trkpt><trkpt lat="45.62618140712414" lon="10.581957008442311"><ele>84.33333333333333</ele><time>2026-03-28T13:58:06Z</time></trkpt><trkpt lat="45.62618116133503" lon="10.58172635475098"><ele>84.0</ele><time>2026-03-28T13:58:07Z</time></trkpt><trkpt lat="45.62618484452653" lon="10.581522407853383"><ele>84.0</ele><time>2026-03-28T13:58:08Z</time></trkpt><trkpt lat="45.6261806561146" lon="10.58132434407097"><ele>84.0</ele><time>2026-03-28T13:58:09Z</time></trkpt><trkpt lat="45.626185614437276" lon="10.581157238723053"><ele>84.0</ele><time>2026-03-28T13:58:10Z</time></trkpt><trkpt lat="45.62618361646688" lon="10.581012096058338"><ele>84.0</ele><time>2026-03-28T13:58:11Z</time></trkpt><trkpt lat="45.626183494731194" lon="10.58088264002862"><ele>84.0</ele><time>2026-03-28T13:58:12Z</time></trkpt><trkpt lat="45.62618576384264" lon="10.580736958594748"><ele>84.25</ele><time>2026-03-28T13:58:13Z</time></trkpt><trkpt lat="45.62618383180507" lon="10.580574934883368"><ele>84.5</ele><time>2026-03-28T13:58:14Z</time></trkpt><trkpt lat="45.62618413127822" lon="10.580416896231876"><ele>84.75</ele><time>2026-03-28T13:58:15Z</time></trkpt><trkpt lat="45.626183504565624" lon="10.580251262885408"><ele>85.0</ele><time>2026-03-28T13:58:16Z</time></trkpt><trkpt lat="45.62618420025443" lon="10.580078506640858"><ele>85.75</ele><time>2026-03-28T13:58:17Z</time></trkpt><trkpt lat="45.626180400181184" lon="10.579900516973739"><ele>86.5</ele><time>2026-03-28T13:58:18.001Z</time></trkpt><trkpt lat="45.626183089036665" lon="10.579715752626397"><ele>87.25</ele><time>2026-03-28T13:58:19.001Z</time></trkpt><trkpt lat="45.626185149702074" lon="10.579526131496447"><ele>88.0</ele><time>2026-03-28T13:58:20.001Z</time></trkpt><trkpt lat="45.62618056698711" lon="10.579352929882331"><ele>88.0</ele><time>2026-03-28T13:58:21.001Z</time></trkpt><trkpt lat="45.626168997921226" lon="10.579176156726618"><ele>88.0</ele><time>2026-03-28T13:58:22.001Z</time></trkpt><trkpt lat="45.6261565342337" lon="10.57900257798366"><ele>88.0</ele><time>2026-03-28T13:58:23.001Z</time></trkpt><trkpt lat="45.62614045753257" lon="10.578833239929475"><ele>88.0</ele><time>2026-03-28T13:58:24.001Z</time></trkpt><trkpt lat="45.62612113751143" lon="10.57866781983986"><ele>84.5</ele><time>2026-03-28T13:58:25.001Z</time></trkpt><trkpt lat="45.62609774187635" lon="10.578502643850756"><ele>81.0</ele><time>2026-03-28T13:58:26.001Z</time></trkpt><trkpt lat="45.626075004401116" lon="10.578333458680769"><ele>77.5</ele><time>2026-03-28T13:58:27.001Z</time></trkpt><trkpt lat="45.62604995573598" lon="10.578157441942212"><ele>74.0</ele><time>2026-03-28T13:58:28.001Z</time></trkpt><trkpt lat="45.62603028548941" lon="10.577975607102596"><ele>75.0</ele><time>2026-03-28T13:58:29.001Z</time></trkpt><trkpt lat="45.626010493332416" lon="10.577795564297986"><ele>76.0</ele><time>2026-03-28T13:58:30.001Z</time></trkpt><trkpt lat="45.62598661630969" lon="10.577624121758909"><ele>77.0</ele><time>2026-03-28T13:58:30.997Z</time></trkpt><trkpt lat="45.62596605563218" lon="10.577457291830697"><ele>78.0</ele><time>2026-03-28T13:58:31.997Z</time></trkpt><trkpt lat="45.62593931061129" lon="10.577287463324554"><ele>78.0</ele><time>2026-03-28T13:58:32.997Z</time></trkpt><trkpt lat="45.625906167700265" lon="10.577114010379187"><ele>78.0</ele><time>2026-03-28T13:58:33.997Z</time></trkpt><trkpt lat="45.625873688787" lon="10.576933706194717"><ele>78.0</ele><time>2026-03-28T13:58:34.997Z</time></trkpt><trkpt lat="45.62583311754732" lon="10.576759219774958"><ele>78.0</ele><time>2026-03-28T13:58:35.997Z</time></trkpt><trkpt lat="45.62579134956912" lon="10.57658365115412"><ele>78.75</ele><time>2026-03-28T13:58:36.997Z</time></trkpt><trkpt lat="45.62575287644646" lon="10.576411442920064"><ele>79.5</ele><time>2026-03-28T13:58:37.997Z</time></trkpt><trkpt lat="45.62571129819864" lon="10.576238473025164"><ele>80.25</ele><time>2026-03-28T13:58:38.997Z</time></trkpt><trkpt lat="45.62567251541951" lon="10.576074235349404"><ele>81.0</ele><time>2026-03-28T13:58:39.997Z</time></trkpt><trkpt lat="45.625630637314956" lon="10.57590712040446"><ele>82.5</ele><time>2026-03-28T13:58:40.997Z</time></trkpt><trkpt lat="45.62558279630607" lon="10.575728673585024"><ele>84.0</ele><time>2026-03-28T13:58:41.997Z</time></trkpt><trkpt lat="45.62553636001826" lon="10.575547508438554"><ele>85.5</ele><time>2026-03-28T13:58:42.997Z</time></trkpt><trkpt lat="45.625481976214616" lon="10.575362687401254"><ele>87.0</ele><time>2026-03-28T13:58:43.997Z</time></trkpt><trkpt lat="45.62542170036717" lon="10.575177757120215"><ele>85.75</ele><time>2026-03-28T13:58:44.997Z</time></trkpt><trkpt lat="45.62535430405142" lon="10.574998189991307"><ele>84.5</ele><time>2026-03-28T13:58:45.998Z</time></trkpt><trkpt lat="45.62528003097003" lon="10.57482702553023"><ele>83.25</ele><time>2026-03-28T13:58:46.998Z</time></trkpt><trkpt lat="45.625204664829866" lon="10.57467083217776"><ele>82.0</ele><time>2026-03-28T13:58:47.998Z</time></trkpt><trkpt lat="45.62511517564505" lon="10.574509946728197"><ele>82.0</ele><time>2026-03-28T13:58:48.998Z</time></trkpt><trkpt lat="45.62500741767052" lon="10.574354591580418"><ele>82.0</ele><time>2026-03-28T13:58:49.998Z</time></trkpt><trkpt lat="45.624880121068806" lon="10.574196721981338"><ele>82.0</ele><time>2026-03-28T13:58:50.998Z</time></trkpt><trkpt lat="45.62473713199279" lon="10.574021019932637"><ele>82.0</ele><time>2026-03-28T13:58:51.998Z</time></trkpt><trkpt lat="45.62460133986709" lon="10.57385112679387"><ele>82.0</ele><time>2026-03-28T13:58:52.998Z</time></trkpt><trkpt lat="45.624485132514344" lon="10.573689235914976"><ele>82.0</ele><time>2026-03-28T13:58:53.998Z</time></trkpt><trkpt lat="45.624373928633396" lon="10.57352136334915"><ele>80.33333333333333</ele><time>2026-03-28T13:58:54.998Z</time></trkpt><trkpt lat="45.624271795161086" lon="10.573340920214344"><ele>78.66666666666667</ele><time>2026-03-28T13:58:55.998Z</time></trkpt><trkpt lat="45.6241746546113" lon="10.573163107534393"><ele>77.0</ele><time>2026-03-28T13:58:56.999Z</time></trkpt><trkpt lat="45.6240925893028" lon="10.572969838859365"><ele>78.66666666666667</ele><time>2026-03-28T13:58:57.999Z</time></trkpt><trkpt lat="45.624027135892725" lon="10.572768370609914"><ele>80.33333333333333</ele><time>2026-03-28T13:58:58.999Z</time></trkpt><trkpt lat="45.623971769296986" lon="10.572550056545547"><ele>82.0</ele><time>2026-03-28T13:58:59.999Z</time></trkpt><trkpt lat="45.62392641535972" lon="10.572345267557232"><ele>82.0</ele><time>2026-03-28T13:59:00.999Z</time></trkpt><trkpt lat="45.62385121554262" lon="10.572152919162127"><ele>82.0</ele><time>2026-03-28T13:59:01.999Z</time></trkpt><trkpt lat="45.623799200274455" lon="10.571951232032605"><ele>82.0</ele><time>2026-03-28T13:59:02.999Z</time></trkpt><trkpt lat="45.62372774396525" lon="10.57179753760453"><ele>82.0</ele><time>2026-03-28T13:59:03.999Z</time></trkpt><trkpt lat="45.623667689775885" lon="10.571644592431866"><ele>81.8</ele><time>2026-03-28T13:59:04.999Z</time></trkpt><trkpt lat="45.623598774823016" lon="10.571492083175345"><ele>81.6</ele><time>2026-03-28T13:59:05.999Z</time></trkpt><trkpt lat="45.62352769608584" lon="10.57137233911149"><ele>81.39999999999999</ele><time>2026-03-28T13:59:06.999Z</time></trkpt><trkpt lat="45.62345780835974" lon="10.571266556056523"><ele>81.19999999999999</ele><time>2026-03-28T13:59:07.999Z</time></trkpt><trkpt lat="45.62340156003669" lon="10.57115170222216"><ele>81.0</ele><time>2026-03-28T13:59:08.999Z</time></trkpt><trkpt lat="45.62331597901566" lon="10.571060191971482"><ele>81.0</ele><time>2026-03-28T13:59:09.999Z</time></trkpt><trkpt lat="45.623244995186646" lon="10.570961481862106"><ele>81.0</ele><time>2026-03-28T13:59:10.999Z</time></trkpt><trkpt lat="45.623153544162086" lon="10.570862928212938"><ele>81.0</ele><time>2026-03-28T13:59:11.999Z</time></trkpt><trkpt lat="45.62304226877254" lon="10.57074444543721"><ele>81.0</ele><time>2026-03-28T13:59:12.999Z</time></trkpt><trkpt lat="45.62290576792304" lon="10.57059630129118"><ele>79.5</ele><time>2026-03-28T13:59:13.999Z</time></trkpt><trkpt lat="45.62280322374664" lon="10.570452286312507"><ele>78.0</ele><time>2026-03-28T13:59:14.999Z</time></trkpt><trkpt lat="45.62270842770797" lon="10.570315714454003"><ele>76.5</ele><time>2026-03-28T13:59:15.999Z</time></trkpt><trkpt lat="45.62260520442502" lon="10.570184445733492"><ele>75.0</ele><time>2026-03-28T13:59:17Z</time></trkpt><trkpt lat="45.6225080899805" lon="10.570024508565085"><ele>75.0</ele><time>2026-03-28T13:59:18Z</time></trkpt><trkpt lat="45.622425333558574" lon="10.569844383169997"><ele>75.0</ele><time>2026-03-28T13:59:19Z</time></trkpt><trkpt lat="45.62233834753786" lon="10.569677505841586"><ele>75.0</ele><time>2026-03-28T13:59:20Z</time></trkpt><trkpt lat="45.62223869857388" lon="10.569499625477588"><ele>77.5</ele><time>2026-03-28T13:59:21Z</time></trkpt><trkpt lat="45.62216876833291" lon="10.56931512485426"><ele>80.0</ele><time>2026-03-28T13:59:22Z</time></trkpt><trkpt lat="45.622102782997246" lon="10.56914012498492"><ele>82.5</ele><time>2026-03-28T13:59:23Z</time></trkpt><trkpt lat="45.62203792466412" lon="10.568989030284179"><ele>85.0</ele><time>2026-03-28T13:59:24Z</time></trkpt><trkpt lat="45.62199206842167" lon="10.56882876243604"><ele>82.75</ele><time>2026-03-28T13:59:25Z</time></trkpt><trkpt lat="45.621927742644104" lon="10.568674344052328"><ele>80.5</ele><time>2026-03-28T13:59:26Z</time></trkpt><trkpt lat="45.62185547951947" lon="10.568520445085182"><ele>78.25</ele><time>2026-03-28T13:59:27Z</time></trkpt><trkpt lat="45.62177369853208" lon="10.568393886587996"><ele>76.0</ele><time>2026-03-28T13:59:28Z</time></trkpt><trkpt lat="45.62170260452043" lon="10.568241372490213"><ele>76.0</ele><time>2026-03-28T13:59:29Z</time></trkpt><trkpt lat="45.62161668416489" lon="10.568094388322203"><ele>76.0</ele><time>2026-03-28T13:59:30Z</time></trkpt><trkpt lat="45.621531890164874" lon="10.567949331470167"><ele>76.0</ele><time>2026-03-28T13:59:31Z</time></trkpt><trkpt lat="45.62145631637919" lon="10.567820158708447"><ele>76.0</ele><time>2026-03-28T13:59:32Z</time></trkpt><trkpt lat="45.62139119837079" lon="10.567708967319293"><ele>78.25</ele><time>2026-03-28T13:59:33Z</time></trkpt><trkpt lat="45.62132696895192" lon="10.567599293202184"><ele>80.5</ele><time>2026-03-28T13:59:34Z</time></trkpt><trkpt lat="45.62124629200763" lon="10.56746153443968"><ele>82.75</ele><time>2026-03-28T13:59:35Z</time></trkpt><trkpt lat="45.62115196048273" lon="10.56731979612159"><ele>85.0</ele><time>2026-03-28T13:59:36Z</time></trkpt><trkpt lat="45.62105177530638" lon="10.567172056472227"><ele>81.66666666666666</ele><time>2026-03-28T13:59:37Z</time></trkpt><trkpt lat="45.62093718860296" lon="10.567024238824816"><ele>78.33333333333333</ele><time>2026-03-28T13:59:38Z</time></trkpt><trkpt lat="45.62081881184615" lon="10.566857846044321"><ele>75.0</ele><time>2026-03-28T13:59:39Z</time></trkpt><trkpt lat="45.62069545177259" lon="10.566686844756154"><ele>75.0</ele><time>2026-03-28T13:59:40Z</time></trkpt><trkpt lat="45.62056905203251" lon="10.566509074387302"><ele>75.0</ele><time>2026-03-28T13:59:41Z</time></trkpt><trkpt lat="45.620463666157036" lon="10.566304972609096"><ele>75.0</ele><time>2026-03-28T13:59:42Z</time></trkpt><trkpt lat="45.62034653523675" lon="10.566132199534684"><ele>73.0</ele><time>2026-03-28T13:59:43Z</time></trkpt><trkpt lat="45.6202208767635" lon="10.565947165452148"><ele>71.0</ele><time>2026-03-28T13:59:44Z</time></trkpt><trkpt lat="45.62009135464084" lon="10.565756598494156"><ele>69.0</ele><time>2026-03-28T13:59:45Z</time></trkpt><trkpt lat="45.619964471280426" lon="10.56556915612912"><ele>69.0</ele><time>2026-03-28T13:59:46.001Z</time></trkpt><trkpt lat="45.61983489355043" lon="10.565376413937141"><ele>69.0</ele><time>2026-03-28T13:59:47.001Z</time></trkpt><trkpt lat="45.61970727775799" lon="10.565188237203653"><ele>69.0</ele><time>2026-03-28T13:59:48.001Z</time></trkpt><trkpt lat="45.619596554063584" lon="10.565024470229389"><ele>68.75</ele><time>2026-03-28T13:59:49.001Z</time></trkpt><trkpt lat="45.61950179337926" lon="10.56486748277232"><ele>68.5</ele><time>2026-03-28T13:59:50.001Z</time></trkpt><trkpt lat="45.61942262164531" lon="10.564708915496828"><ele>68.25</ele><time>2026-03-28T13:59:51.001Z</time></trkpt><trkpt lat="45.61936132022816" lon="10.56455123537006"><ele>68.0</ele><time>2026-03-28T13:59:52.001Z</time></trkpt><trkpt lat="45.61930061544913" lon="10.564360777149515"><ele>69.66666666666667</ele><time>2026-03-28T13:59:53.001Z</time></trkpt><trkpt lat="45.61923025788965" lon="10.564132149775883"><ele>71.33333333333333</ele><time>2026-03-28T13:59:54.001Z</time></trkpt><trkpt lat="45.619157764594824" lon="10.563894863059366"><ele>73.0</ele><time>2026-03-28T13:59:55.001Z</time></trkpt><trkpt lat="45.619087326215485" lon="10.563658043393517"><ele>74.0</ele><time>2026-03-28T13:59:56.001Z</time></trkpt><trkpt lat="45.619023779587565" lon="10.563441191346666"><ele>75.0</ele><time>2026-03-28T13:59:57.001Z</time></trkpt><trkpt lat="45.618954387967555" lon="10.563199531049067"><ele>76.0</ele><time>2026-03-28T13:59:58.001Z</time></trkpt><trkpt lat="45.6188730847881" lon="10.56295926148907"><ele>77.33333333333333</ele><time>2026-03-28T13:59:59.001Z</time></trkpt><trkpt lat="45.61883147789862" lon="10.562714570007731"><ele>78.66666666666667</ele><time>2026-03-28T14:00:00.001Z</time></trkpt><trkpt lat="45.6187807427909" lon="10.562469181584612"><ele>80.0</ele><time>2026-03-28T14:00:01.001Z</time></trkpt><trkpt lat="45.618731074445364" lon="10.562215060935443"><ele>80.33333333333334</ele><time>2026-03-28T14:00:02.001Z</time></trkpt><trkpt lat="45.61866971599226" lon="10.561964503549882"><ele>80.66666666666667</ele><time>2026-03-28T14:00:03.001Z</time></trkpt><trkpt lat="45.618631433259" lon="10.561697140535122"><ele>81.0</ele><time>2026-03-28T14:00:04.001Z</time></trkpt><trkpt lat="45.61857984007079" lon="10.561429261024369"><ele>78.33333333333333</ele><time>2026-03-28T14:00:05.001Z</time></trkpt><trkpt lat="45.61852842683498" lon="10.561162315550042"><ele>75.66666666666666</ele><time>2026-03-28T14:00:06.001Z</time></trkpt><trkpt lat="45.61845385093335" lon="10.560891839236982"><ele>73.0</ele><time>2026-03-28T14:00:07.001Z</time></trkpt><trkpt lat="45.618400621486586" lon="10.56061896644262"><ele>73.33333333333333</ele><time>2026-03-28T14:00:08.001Z</time></trkpt><trkpt lat="45.618351764791136" lon="10.56034407163177"><ele>73.66666666666667</ele><time>2026-03-28T14:00:09.001Z</time></trkpt><trkpt lat="45.618298906398095" lon="10.56006473074931"><ele>74.0</ele><time>2026-03-28T14:00:10.001Z</time></trkpt><trkpt lat="45.618248485246205" lon="10.559782330441415"><ele>74.66666666666667</ele><time>2026-03-28T14:00:11.001Z</time></trkpt><trkpt lat="45.61819715291673" lon="10.559501504916934"><ele>75.33333333333333</ele><time>2026-03-28T14:00:12.001Z</time></trkpt><trkpt lat="45.618145053084476" lon="10.559224971946435"><ele>76.0</ele><time>2026-03-28T14:00:13.001Z</time></trkpt><trkpt lat="45.618093833505625" lon="10.558953796943111"><ele>77.66666666666666</ele><time>2026-03-28T14:00:14.001Z</time></trkpt><trkpt lat="45.61804031578206" lon="10.558687901030714"><ele>79.33333333333333</ele><time>2026-03-28T14:00:15.001Z</time></trkpt><trkpt lat="45.61797847918012" lon="10.55841218839535"><ele>81.0</ele><time>2026-03-28T14:00:16.001Z</time></trkpt><trkpt lat="45.6179040528691" lon="10.558183556279975"><ele>80.33333333333333</ele><time>2026-03-28T14:00:17.001Z</time></trkpt><trkpt lat="45.61779980766311" lon="10.557963411747846"><ele>79.66666666666666</ele><time>2026-03-28T14:00:18.002Z</time></trkpt><trkpt lat="45.617677286873885" lon="10.557760681637154"><ele>79.0</ele><time>2026-03-28T14:00:19.002Z</time></trkpt><trkpt lat="45.617550935787925" lon="10.557556926907262"><ele>79.0</ele><time>2026-03-28T14:00:20.002Z</time></trkpt><trkpt lat="45.61744482813017" lon="10.557326957043779"><ele>79.0</ele><time>2026-03-28T14:00:21.002Z</time></trkpt><trkpt lat="45.617327506695844" lon="10.557105837163094"><ele>79.0</ele><time>2026-03-28T14:00:22.002Z</time></trkpt><trkpt lat="45.61720596011428" lon="10.556878374845137"><ele>79.33333333333333</ele><time>2026-03-28T14:00:23.002Z</time></trkpt><trkpt lat="45.61708696753638" lon="10.556655943920823"><ele>79.66666666666667</ele><time>2026-03-28T14:00:24.002Z</time></trkpt><trkpt lat="45.61696703291084" lon="10.55642581822183"><ele>80.0</ele><time>2026-03-28T14:00:25.002Z</time></trkpt><trkpt lat="45.61684247957362" lon="10.556198322756208"><ele>79.0</ele><time>2026-03-28T14:00:26.002Z</time></trkpt><trkpt lat="45.61671820490293" lon="10.555962268804828"><ele>78.0</ele><time>2026-03-28T14:00:27.002Z</time></trkpt><trkpt lat="45.61659748402702" lon="10.555737651993727"><ele>77.0</ele><time>2026-03-28T14:00:28.002Z</time></trkpt><trkpt lat="45.616480001108826" lon="10.555510947252712"><ele>80.0</ele><time>2026-03-28T14:00:29.002Z</time></trkpt><trkpt lat="45.61634505737606" lon="10.555310095430329"><ele>83.0</ele><time>2026-03-28T14:00:30.002Z</time></trkpt><trkpt lat="45.61624224996279" lon="10.555105293780741"><ele>86.0</ele><time>2026-03-28T14:00:31.002Z</time></trkpt><trkpt lat="45.61615429421626" lon="10.554907106854452"><ele>84.33333333333334</ele><time>2026-03-28T14:00:32.002Z</time></trkpt><trkpt lat="45.616067387788824" lon="10.554721643086515"><ele>82.66666666666667</ele><time>2026-03-28T14:00:33.002Z</time></trkpt><trkpt lat="45.61600838881563" lon="10.55452011437805"><ele>81.0</ele><time>2026-03-28T14:00:34.002Z</time></trkpt><trkpt lat="45.6159138391808" lon="10.554321682925687"><ele>81.0</ele><time>2026-03-28T14:00:35.002Z</time></trkpt><trkpt lat="45.615816376323224" lon="10.554118688028618"><ele>81.0</ele><time>2026-03-28T14:00:36.002Z</time></trkpt><trkpt lat="45.6157150572348" lon="10.553900962652072"><ele>81.0</ele><time>2026-03-28T14:00:36.998Z</time></trkpt><trkpt lat="45.61560886604321" lon="10.55368132959643"><ele>81.33333333333333</ele><time>2026-03-28T14:00:37.998Z</time></trkpt><trkpt lat="45.61550664046747" lon="10.553452276013367"><ele>81.66666666666666</ele><time>2026-03-28T14:00:38.998Z</time></trkpt><trkpt lat="45.61541124287709" lon="10.553230811878176"><ele>82.0</ele><time>2026-03-28T14:00:39.998Z</time></trkpt><trkpt lat="45.61530505024288" lon="10.553018168386375"><ele>80.0</ele><time>2026-03-28T14:00:40.998Z</time></trkpt><trkpt lat="45.615221482288646" lon="10.552802696185047"><ele>78.0</ele><time>2026-03-28T14:00:41.998Z</time></trkpt><trkpt lat="45.61513763552793" lon="10.552583422456337"><ele>76.0</ele><time>2026-03-28T14:00:42.999Z</time></trkpt><trkpt lat="45.61504831678119" lon="10.552363795072614"><ele>76.0</ele><time>2026-03-28T14:00:43.999Z</time></trkpt><trkpt lat="45.61496325936527" lon="10.552142710743723"><ele>76.0</ele><time>2026-03-28T14:00:44.999Z</time></trkpt><trkpt lat="45.614864445388726" lon="10.551914948845754"><ele>76.0</ele><time>2026-03-28T14:00:45.999Z</time></trkpt><trkpt lat="45.61477238659852" lon="10.551685558361212"><ele>76.33333333333333</ele><time>2026-03-28T14:00:46.999Z</time></trkpt><trkpt lat="45.61468356783113" lon="10.551429850049907"><ele>76.66666666666667</ele><time>2026-03-28T14:00:47.999Z</time></trkpt><trkpt lat="45.61458243288975" lon="10.551209157484763"><ele>77.0</ele><time>2026-03-28T14:00:48.999Z</time></trkpt><trkpt lat="45.614501652938024" lon="10.55098006742044"><ele>75.66666666666667</ele><time>2026-03-28T14:00:49.999Z</time></trkpt><trkpt lat="45.61442940956555" lon="10.550724455205744"><ele>74.33333333333333</ele><time>2026-03-28T14:00:50.999Z</time></trkpt><trkpt lat="45.614367500114994" lon="10.550469779935653"><ele>73.0</ele><time>2026-03-28T14:00:51.999Z</time></trkpt><trkpt lat="45.61431575701228" lon="10.55021147169586"><ele>73.0</ele><time>2026-03-28T14:00:52.999Z</time></trkpt><trkpt lat="45.614268354819025" lon="10.54995352406017"><ele>73.0</ele><time>2026-03-28T14:00:53.999Z</time></trkpt><trkpt lat="45.61423048160116" lon="10.54968586733966"><ele>73.0</ele><time>2026-03-28T14:00:54.999Z</time></trkpt><trkpt lat="45.61418427350214" lon="10.549413068460451"><ele>73.0</ele><time>2026-03-28T14:00:56Z</time></trkpt><trkpt lat="45.61413556269939" lon="10.549145880401616"><ele>73.0</ele><time>2026-03-28T14:00:57Z</time></trkpt><trkpt lat="45.6140855990867" lon="10.548871418906844"><ele>73.0</ele><time>2026-03-28T14:00:58Z</time></trkpt><trkpt lat="45.61403365505123" lon="10.54859754018165"><ele>73.66666666666666</ele><time>2026-03-28T14:00:59Z</time></trkpt><trkpt lat="45.613986781636946" lon="10.548319351752788"><ele>74.33333333333333</ele><time>2026-03-28T14:01:00Z</time></trkpt><trkpt lat="45.613933383746954" lon="10.548041812474107"><ele>75.0</ele><time>2026-03-28T14:01:01Z</time></trkpt><trkpt lat="45.61387923685978" lon="10.547765863590636"><ele>76.33333333333333</ele><time>2026-03-28T14:01:02Z</time></trkpt><trkpt lat="45.61382647056307" lon="10.547486485164855"><ele>77.66666666666666</ele><time>2026-03-28T14:01:03Z</time></trkpt><trkpt lat="45.613771982502115" lon="10.547208090019327"><ele>79.0</ele><time>2026-03-28T14:01:04Z</time></trkpt><trkpt lat="45.61372095734326" lon="10.546927519364075"><ele>79.66666666666666</ele><time>2026-03-28T14:01:05Z</time></trkpt><trkpt lat="45.61366633953771" lon="10.546648287187216"><ele>80.33333333333333</ele><time>2026-03-28T14:01:06Z</time></trkpt><trkpt lat="45.613610740861866" lon="10.546377253683179"><ele>81.0</ele><time>2026-03-28T14:01:07Z</time></trkpt><trkpt lat="45.61355101619932" lon="10.546093648970087"><ele>82.33333333333333</ele><time>2026-03-28T14:01:08Z</time></trkpt><trkpt lat="45.61349441353653" lon="10.545817857670025"><ele>83.66666666666666</ele><time>2026-03-28T14:01:09Z</time></trkpt><trkpt lat="45.61343890716733" lon="10.545543453409564"><ele>85.0</ele><time>2026-03-28T14:01:10Z</time></trkpt><trkpt lat="45.613364340443326" lon="10.545273153005997"><ele>85.0</ele><time>2026-03-28T14:01:11Z</time></trkpt><trkpt lat="45.61328154715898" lon="10.545009160063156"><ele>85.0</ele><time>2026-03-28T14:01:12Z</time></trkpt><trkpt lat="45.61319481018211" lon="10.544765919953866"><ele>85.0</ele><time>2026-03-28T14:01:13.001Z</time></trkpt><trkpt lat="45.61308664470321" lon="10.544511192856813"><ele>90.0</ele><time>2026-03-28T14:01:14.001Z</time></trkpt><trkpt lat="45.612993955522946" lon="10.544255880687084"><ele>95.0</ele><time>2026-03-28T14:01:15.001Z</time></trkpt><trkpt lat="45.612888600634356" lon="10.544018065908578"><ele>100.0</ele><time>2026-03-28T14:01:16.001Z</time></trkpt><trkpt lat="45.612812961306034" lon="10.543758479024394"><ele>91.33333333333334</ele><time>2026-03-28T14:01:17.001Z</time></trkpt><trkpt lat="45.61275463638179" lon="10.54348626754952"><ele>82.66666666666667</ele><time>2026-03-28T14:01:18.001Z</time></trkpt><trkpt lat="45.612712654210355" lon="10.543204358661212"><ele>74.0</ele><time>2026-03-28T14:01:19.001Z</time></trkpt><trkpt lat="45.612669669042155" lon="10.542934072433999"><ele>75.66666666666667</ele><time>2026-03-28T14:01:20.001Z</time></trkpt><trkpt lat="45.61261514054915" lon="10.54266568079299"><ele>77.33333333333333</ele><time>2026-03-28T14:01:21.001Z</time></trkpt><trkpt lat="45.612544731940424" lon="10.54239468600314"><ele>79.0</ele><time>2026-03-28T14:01:22.001Z</time></trkpt><trkpt lat="45.61246447941734" lon="10.542136021584751"><ele>81.0</ele><time>2026-03-28T14:01:23.001Z</time></trkpt><trkpt lat="45.61237101177914" lon="10.541884776585619"><ele>83.0</ele><time>2026-03-28T14:01:24.001Z</time></trkpt><trkpt lat="45.61228229548448" lon="10.541649382206558"><ele>85.0</ele><time>2026-03-28T14:01:25.001Z</time></trkpt><trkpt lat="45.61220228776553" lon="10.541440819872077"><ele>85.0</ele><time>2026-03-28T14:01:26.001Z</time></trkpt><trkpt lat="45.61214641343901" lon="10.541276556388048"><ele>85.0</ele><time>2026-03-28T14:01:27.001Z</time></trkpt><trkpt lat="45.61209982152975" lon="10.541139294265907"><ele>85.0</ele><time>2026-03-28T14:01:28.001Z</time></trkpt><trkpt lat="45.612070075453104" lon="10.541038057926134"><ele>85.0</ele><time>2026-03-28T14:01:29.001Z</time></trkpt><trkpt lat="45.612022792064366" lon="10.540910701562856"><ele>85.0</ele><time>2026-03-28T14:01:31.001Z</time></trkpt><trkpt lat="45.611986844369795" lon="10.540831551315128"><ele>85.2</ele><time>2026-03-28T14:01:35.001Z</time></trkpt><trkpt lat="45.61194930413225" lon="10.540756682612672"><ele>85.4</ele><time>2026-03-28T14:01:38.001Z</time></trkpt><trkpt lat="45.61189957589383" lon="10.5406425516437"><ele>85.6</ele><time>2026-03-28T14:01:40.002Z</time></trkpt><trkpt lat="45.611846333607446" lon="10.54043810315653"><ele>85.8</ele><time>2026-03-28T14:01:42.002Z</time></trkpt><trkpt lat="45.61179751251604" lon="10.540309343633133"><ele>86.0</ele><time>2026-03-28T14:01:43.002Z</time></trkpt><trkpt lat="45.6117392787768" lon="10.540163356762209"><ele>86.0</ele><time>2026-03-28T14:01:44.002Z</time></trkpt><trkpt lat="45.61167969314445" lon="10.540004625365034"><ele>86.0</ele><time>2026-03-28T14:01:45.002Z</time></trkpt><trkpt lat="45.61161794796272" lon="10.539832844069473"><ele>86.0</ele><time>2026-03-28T14:01:46.002Z</time></trkpt><trkpt lat="45.611551394411826" lon="10.539652506013375"><ele>86.0</ele><time>2026-03-28T14:01:47.002Z</time></trkpt><trkpt lat="45.61148060086684" lon="10.539464499387686"><ele>88.33333333333334</ele><time>2026-03-28T14:01:48.002Z</time></trkpt><trkpt lat="45.6114091866283" lon="10.539278288293875"><ele>90.66666666666667</ele><time>2026-03-28T14:01:49.002Z</time></trkpt><trkpt lat="45.611338807391824" lon="10.539085323777577"><ele>93.0</ele><time>2026-03-28T14:01:50.002Z</time></trkpt><trkpt lat="45.611265059695995" lon="10.53889681087572"><ele>90.0</ele><time>2026-03-28T14:01:51.002Z</time></trkpt><trkpt lat="45.61119226285069" lon="10.538703882784764"><ele>87.0</ele><time>2026-03-28T14:01:52.002Z</time></trkpt><trkpt lat="45.611118672933976" lon="10.538508613802007"><ele>84.0</ele><time>2026-03-28T14:01:53.002Z</time></trkpt><trkpt lat="45.611050186351136" lon="10.538310305485975"><ele>84.0</ele><time>2026-03-28T14:01:54.002Z</time></trkpt><trkpt lat="45.61098166250061" lon="10.538113142262988"><ele>84.0</ele><time>2026-03-28T14:01:55.002Z</time></trkpt><trkpt lat="45.61091566965019" lon="10.537912136654215"><ele>84.0</ele><time>2026-03-28T14:01:56.002Z</time></trkpt><trkpt lat="45.610859197963194" lon="10.537700960516997"><ele>86.25</ele><time>2026-03-28T14:01:57.002Z</time></trkpt><trkpt lat="45.61081389891121" lon="10.537496227010438"><ele>88.5</ele><time>2026-03-28T14:01:58.002Z</time></trkpt><trkpt lat="45.61079492505404" lon="10.53730832654077"><ele>90.75</ele><time>2026-03-28T14:01:59.002Z</time></trkpt><trkpt lat="45.610799094066" lon="10.537133426184619"><ele>93.0</ele><time>2026-03-28T14:02:00.002Z</time></trkpt><trkpt lat="45.610825632311375" lon="10.536977264101488"><ele>94.80000000000001</ele><time>2026-03-28T14:02:01.002Z</time></trkpt><trkpt lat="45.61085190509452" lon="10.536829160779773"><ele>96.6</ele><time>2026-03-28T14:02:02.002Z</time></trkpt><trkpt lat="45.61084124043626" lon="10.53667729684632"><ele>98.4</ele><time>2026-03-28T14:02:03.002Z</time></trkpt><trkpt lat="45.610813576836534" lon="10.536534961850384"><ele>100.19999999999999</ele><time>2026-03-28T14:02:04.002Z</time></trkpt><trkpt lat="45.61075554766298" lon="10.536374820563246"><ele>102.0</ele><time>2026-03-28T14:02:05.002Z</time></trkpt><trkpt lat="45.61067584803805" lon="10.53621432351476"><ele>105.75</ele><time>2026-03-28T14:02:06.002Z</time></trkpt><trkpt lat="45.610588058427666" lon="10.536050903160302"><ele>109.5</ele><time>2026-03-28T14:02:07.002Z</time></trkpt><trkpt lat="45.610502096998744" lon="10.535879124905502"><ele>113.25</ele><time>2026-03-28T14:02:08.002Z</time></trkpt><trkpt lat="45.610420237475765" lon="10.53570206170198"><ele>117.0</ele><time>2026-03-28T14:02:09.002Z</time></trkpt><trkpt lat="45.61034261624912" lon="10.535520913012878"><ele>112.25</ele><time>2026-03-28T14:02:10.002Z</time></trkpt><trkpt lat="45.61027224413024" lon="10.535339641471648"><ele>107.5</ele><time>2026-03-28T14:02:11.002Z</time></trkpt><trkpt lat="45.61020955964545" lon="10.535154967781626"><ele>102.75</ele><time>2026-03-28T14:02:12.003Z</time></trkpt><trkpt lat="45.6101465293101" lon="10.53497512253006"><ele>98.0</ele><time>2026-03-28T14:02:13.003Z</time></trkpt><trkpt lat="45.61009000341159" lon="10.534783467167383"><ele>98.0</ele><time>2026-03-28T14:02:14.003Z</time></trkpt><trkpt lat="45.60998598587064" lon="10.534639233999583"><ele>98.0</ele><time>2026-03-28T14:02:15.003Z</time></trkpt><trkpt lat="45.609882204769015" lon="10.534499737331553"><ele>98.0</ele><time>2026-03-28T14:02:16.003Z</time></trkpt><trkpt lat="45.609791136706335" lon="10.534341166037965"><ele>98.0</ele><time>2026-03-28T14:02:17.003Z</time></trkpt><trkpt lat="45.609702748236806" lon="10.534194462484091"><ele>102.5</ele><time>2026-03-28T14:02:18.003Z</time></trkpt><trkpt lat="45.60962252917881" lon="10.534039561680414"><ele>107.0</ele><time>2026-03-28T14:02:19.003Z</time></trkpt><trkpt lat="45.60957508229414" lon="10.53385147704515"><ele>111.5</ele><time>2026-03-28T14:02:20.003Z</time></trkpt><trkpt lat="45.60954361880985" lon="10.533646569126104"><ele>116.0</ele><time>2026-03-28T14:02:21.003Z</time></trkpt><trkpt lat="45.609521783530475" lon="10.533441680200447"><ele>117.5</ele><time>2026-03-28T14:02:22.003Z</time></trkpt><trkpt lat="45.60951631107267" lon="10.533234334417807"><ele>119.0</ele><time>2026-03-28T14:02:23.003Z</time></trkpt><trkpt lat="45.609519866941866" lon="10.533045001302026"><ele>120.5</ele><time>2026-03-28T14:02:24.003Z</time></trkpt><trkpt lat="45.60954338657516" lon="10.5328513091018"><ele>122.0</ele><time>2026-03-28T14:02:25.003Z</time></trkpt><trkpt lat="45.60959202214911" lon="10.532655953526582"><ele>122.0</ele><time>2026-03-28T14:02:26.003Z</time></trkpt><trkpt lat="45.60966483024208" lon="10.532472684056385"><ele>122.0</ele><time>2026-03-28T14:02:27.003Z</time></trkpt><trkpt lat="45.60975270165109" lon="10.532292170477643"><ele>122.0</ele><time>2026-03-28T14:02:28.003Z</time></trkpt><trkpt lat="45.609814394434615" lon="10.532101016136625"><ele>122.0</ele><time>2026-03-28T14:02:29.003Z</time></trkpt><trkpt lat="45.60983696245504" lon="10.531904686960798"><ele>121.25</ele><time>2026-03-28T14:02:30.003Z</time></trkpt><trkpt lat="45.609822140664704" lon="10.531708748701053"><ele>120.5</ele><time>2026-03-28T14:02:31.003Z</time></trkpt><trkpt lat="45.60978335845623" lon="10.53151514364347"><ele>119.75</ele><time>2026-03-28T14:02:32.003Z</time></trkpt><trkpt lat="45.609710989765226" lon="10.531336474862142"><ele>119.0</ele><time>2026-03-28T14:02:33.003Z</time></trkpt><trkpt lat="45.60961917368834" lon="10.53115766196537"><ele>123.0</ele><time>2026-03-28T14:02:34.003Z</time></trkpt><trkpt lat="45.60952574370057" lon="10.530975190483254"><ele>127.0</ele><time>2026-03-28T14:02:35.003Z</time></trkpt><trkpt lat="45.60943512202434" lon="10.530778503071442"><ele>131.0</ele><time>2026-03-28T14:02:36.003Z</time></trkpt><trkpt lat="45.60934835840629" lon="10.53057873747603"><ele>125.66666666666666</ele><time>2026-03-28T14:02:37.003Z</time></trkpt><trkpt lat="45.60926571342532" lon="10.530377330563631"><ele>120.33333333333334</ele><time>2026-03-28T14:02:38.003Z</time></trkpt><trkpt lat="45.60918406420025" lon="10.530177964757089"><ele>115.0</ele><time>2026-03-28T14:02:39.003Z</time></trkpt><trkpt lat="45.60911026518582" lon="10.52997485603562"><ele>115.0</ele><time>2026-03-28T14:02:40.003Z</time></trkpt><trkpt lat="45.60904844015227" lon="10.529785111902015"><ele>115.0</ele><time>2026-03-28T14:02:41.003Z</time></trkpt><trkpt lat="45.608993136186776" lon="10.52959690145479"><ele>115.0</ele><time>2026-03-28T14:02:42.003Z</time></trkpt><trkpt lat="45.608940607154004" lon="10.529403255838837"><ele>115.0</ele><time>2026-03-28T14:02:42.999Z</time></trkpt><trkpt lat="45.60888980802674" lon="10.52919838747341"><ele>118.66666666666667</ele><time>2026-03-28T14:02:43.999Z</time></trkpt><trkpt lat="45.60886047288363" lon="10.528967089855161"><ele>122.33333333333334</ele><time>2026-03-28T14:02:44.999Z</time></trkpt><trkpt lat="45.60883689661175" lon="10.528731689156443"><ele>126.0</ele><time>2026-03-28T14:02:45.999Z</time></trkpt><trkpt lat="45.608814953633384" lon="10.528489373331537"><ele>127.66666666666666</ele><time>2026-03-28T14:02:46.999Z</time></trkpt><trkpt lat="45.60879353744304" lon="10.528246402746603"><ele>129.33333333333331</ele><time>2026-03-28T14:02:47.999Z</time></trkpt><trkpt lat="45.60876531705065" lon="10.528002923996073"><ele>131.0</ele><time>2026-03-28T14:02:48.999Z</time></trkpt><trkpt lat="45.60873917748556" lon="10.527747263786685"><ele>131.66666666666666</ele><time>2026-03-28T14:02:49.999Z</time></trkpt><trkpt lat="45.60871541211078" lon="10.52748838782856"><ele>132.33333333333334</ele><time>2026-03-28T14:02:51Z</time></trkpt><trkpt lat="45.608694758325065" lon="10.527226859806674"><ele>133.0</ele><time>2026-03-28T14:02:52Z</time></trkpt><trkpt lat="45.608675985295065" lon="10.526966905333211"><ele>133.66666666666669</ele><time>2026-03-28T14:02:53Z</time></trkpt><trkpt lat="45.60867543773805" lon="10.526703935949264"><ele>134.33333333333334</ele><time>2026-03-28T14:02:54Z</time></trkpt><trkpt lat="45.60866206250312" lon="10.526441473748388"><ele>135.0</ele><time>2026-03-28T14:02:55Z</time></trkpt><trkpt lat="45.60865274283878" lon="10.526173947989427"><ele>135.0</ele><time>2026-03-28T14:02:56Z</time></trkpt><trkpt lat="45.60865270622016" lon="10.525907268875896"><ele>135.0</ele><time>2026-03-28T14:02:57Z</time></trkpt><trkpt lat="45.608652345774296" lon="10.525647910818721"><ele>135.0</ele><time>2026-03-28T14:02:58Z</time></trkpt><trkpt lat="45.60866670708512" lon="10.525368769679469"><ele>135.0</ele><time>2026-03-28T14:02:59Z</time></trkpt><trkpt lat="45.60868515754032" lon="10.525089922196951"><ele>135.0</ele><time>2026-03-28T14:03:00Z</time></trkpt><trkpt lat="45.60871237319212" lon="10.524811123716617"><ele>135.0</ele><time>2026-03-28T14:03:01Z</time></trkpt><trkpt lat="45.60873500587718" lon="10.5245399435221"><ele>134.33333333333334</ele><time>2026-03-28T14:03:02Z</time></trkpt><trkpt lat="45.608761974141494" lon="10.524270808154839"><ele>133.66666666666669</ele><time>2026-03-28T14:03:03Z</time></trkpt><trkpt lat="45.608782321537184" lon="10.524006514948743"><ele>133.0</ele><time>2026-03-28T14:03:04Z</time></trkpt><trkpt lat="45.60879100402172" lon="10.52375007459152"><ele>132.0</ele><time>2026-03-28T14:03:05Z</time></trkpt><trkpt lat="45.6087912686485" lon="10.523495541903335"><ele>131.0</ele><time>2026-03-28T14:03:06Z</time></trkpt><trkpt lat="45.60876535608223" lon="10.523247192024877"><ele>130.0</ele><time>2026-03-28T14:03:07Z</time></trkpt><trkpt lat="45.60870495489367" lon="10.523008055235266"><ele>121.0</ele><time>2026-03-28T14:03:08Z</time></trkpt><trkpt lat="45.60863656586293" lon="10.522787140810266"><ele>112.0</ele><time>2026-03-28T14:03:09Z</time></trkpt><trkpt lat="45.6085718629279" lon="10.522579014729418"><ele>103.0</ele><time>2026-03-28T14:03:10Z</time></trkpt><trkpt lat="45.60853419304155" lon="10.522360930105556"><ele>103.0</ele><time>2026-03-28T14:03:11Z</time></trkpt><trkpt lat="45.60852921299997" lon="10.522141166263193"><ele>103.0</ele><time>2026-03-28T14:03:12Z</time></trkpt><trkpt lat="45.60857921828049" lon="10.521934863220244"><ele>103.0</ele><time>2026-03-28T14:03:13Z</time></trkpt><trkpt lat="45.608649626956016" lon="10.5217312066456"><ele>104.0</ele><time>2026-03-28T14:03:14Z</time></trkpt><trkpt lat="45.60874658149305" lon="10.5215467278079"><ele>105.0</ele><time>2026-03-28T14:03:15Z</time></trkpt><trkpt lat="45.60887113774313" lon="10.521381139786806"><ele>106.0</ele><time>2026-03-28T14:03:16.001Z</time></trkpt><trkpt lat="45.60900633261492" lon="10.521197814643253"><ele>106.0</ele><time>2026-03-28T14:03:17.001Z</time></trkpt><trkpt lat="45.60913428368295" lon="10.521012413635756"><ele>106.0</ele><time>2026-03-28T14:03:18.001Z</time></trkpt><trkpt lat="45.60926815350116" lon="10.520819150292086"><ele>106.0</ele><time>2026-03-28T14:03:19.001Z</time></trkpt><trkpt lat="45.60939494419173" lon="10.52062754202196"><ele>107.66666666666667</ele><time>2026-03-28T14:03:20.001Z</time></trkpt><trkpt lat="45.60951837114854" lon="10.520433273273884"><ele>109.33333333333334</ele><time>2026-03-28T14:03:21.001Z</time></trkpt><trkpt lat="45.60963200814463" lon="10.520243550586981"><ele>111.0</ele><time>2026-03-28T14:03:22.001Z</time></trkpt><trkpt lat="45.60974236666585" lon="10.52005067182481"><ele>111.0</ele><time>2026-03-28T14:03:23.001Z</time></trkpt><trkpt lat="45.6098377788406" lon="10.519850100876605"><ele>111.0</ele><time>2026-03-28T14:03:24.001Z</time></trkpt><trkpt lat="45.609933965279815" lon="10.51964504688922"><ele>111.0</ele><time>2026-03-28T14:03:25.001Z</time></trkpt><trkpt lat="45.61003554294579" lon="10.519421515700119"><ele>110.0</ele><time>2026-03-28T14:03:26.001Z</time></trkpt><trkpt lat="45.61012898276973" lon="10.519181479683997"><ele>109.0</ele><time>2026-03-28T14:03:27.001Z</time></trkpt><trkpt lat="45.61022512122597" lon="10.518997046353777"><ele>108.0</ele><time>2026-03-28T14:03:28.001Z</time></trkpt><trkpt lat="45.610290125278574" lon="10.51871121251648"><ele>111.33333333333334</ele><time>2026-03-28T14:03:29.001Z</time></trkpt><trkpt lat="45.61035203396035" lon="10.518430994081431"><ele>114.66666666666667</ele><time>2026-03-28T14:03:30.001Z</time></trkpt><trkpt lat="45.61040785375681" lon="10.518152983943496"><ele>118.0</ele><time>2026-03-28T14:03:31.001Z</time></trkpt><trkpt lat="45.610471382373234" lon="10.517863935962307"><ele>118.66666666666667</ele><time>2026-03-28T14:03:32.001Z</time></trkpt><trkpt lat="45.61054318901743" lon="10.517581181212147"><ele>119.33333333333334</ele><time>2026-03-28T14:03:33.001Z</time></trkpt><trkpt lat="45.61059389129402" lon="10.517302446709673"><ele>120.0</ele><time>2026-03-28T14:03:34.001Z</time></trkpt><trkpt lat="45.610649194828554" lon="10.517030964727846"><ele>118.66666666666666</ele><time>2026-03-28T14:03:35.001Z</time></trkpt><trkpt lat="45.61070134849966" lon="10.516791142117025"><ele>117.33333333333333</ele><time>2026-03-28T14:03:36.001Z</time></trkpt><trkpt lat="45.61074252763766" lon="10.516552592750696"><ele>116.0</ele><time>2026-03-28T14:03:37.001Z</time></trkpt><trkpt lat="45.61079052066018" lon="10.516313638725505"><ele>115.0</ele><time>2026-03-28T14:03:38.001Z</time></trkpt><trkpt lat="45.610834119320614" lon="10.516120704683418"><ele>114.0</ele><time>2026-03-28T14:03:39.001Z</time></trkpt><trkpt lat="45.61087239695098" lon="10.51592816348362"><ele>113.0</ele><time>2026-03-28T14:03:40.001Z</time></trkpt><trkpt lat="45.61091668449812" lon="10.515758274806892"><ele>112.0</ele><time>2026-03-28T14:03:41.001Z</time></trkpt><trkpt lat="45.61094596875231" lon="10.51558752020241"><ele>112.0</ele><time>2026-03-28T14:03:42.001Z</time></trkpt><trkpt lat="45.61098348690495" lon="10.515405596608199"><ele>112.0</ele><time>2026-03-28T14:03:43.001Z</time></trkpt><trkpt lat="45.611016709899125" lon="10.515232915719984"><ele>112.0</ele><time>2026-03-28T14:03:44.001Z</time></trkpt><trkpt lat="45.611058128336005" lon="10.515055078877381"><ele>112.0</ele><time>2026-03-28T14:03:45.001Z</time></trkpt><trkpt lat="45.61110529791425" lon="10.514873051766187"><ele>111.25</ele><time>2026-03-28T14:03:46.001Z</time></trkpt><trkpt lat="45.61114312222249" lon="10.51469290106817"><ele>110.5</ele><time>2026-03-28T14:03:47.002Z</time></trkpt><trkpt lat="45.61117754968431" lon="10.514522686878703"><ele>109.75</ele><time>2026-03-28T14:03:48.002Z</time></trkpt><trkpt lat="45.611210988073154" lon="10.514366423055586"><ele>109.0</ele><time>2026-03-28T14:03:49.002Z</time></trkpt><trkpt lat="45.61124620787173" lon="10.514213552306593"><ele>111.33333333333334</ele><time>2026-03-28T14:03:50.002Z</time></trkpt><trkpt lat="45.61128052591955" lon="10.51405191204826"><ele>113.66666666666666</ele><time>2026-03-28T14:03:51.002Z</time></trkpt><trkpt lat="45.61132803352393" lon="10.513821877171964"><ele>116.0</ele><time>2026-03-28T14:03:52.002Z</time></trkpt><trkpt lat="45.61138089123328" lon="10.513575432508851"><ele>116.0</ele><time>2026-03-28T14:03:53.002Z</time></trkpt><trkpt lat="45.61143931771737" lon="10.513325582898272"><ele>116.0</ele><time>2026-03-28T14:03:54.002Z</time></trkpt><trkpt lat="45.61148718725939" lon="10.513080452777764"><ele>116.0</ele><time>2026-03-28T14:03:55.002Z</time></trkpt><trkpt lat="45.611543768094336" lon="10.512854183655765"><ele>115.75</ele><time>2026-03-28T14:03:56.002Z</time></trkpt><trkpt lat="45.61159355371372" lon="10.512647092797064"><ele>115.5</ele><time>2026-03-28T14:03:57.002Z</time></trkpt><trkpt lat="45.61164287008979" lon="10.512452661045685"><ele>115.25</ele><time>2026-03-28T14:03:58.002Z</time></trkpt><trkpt lat="45.611678910356304" lon="10.51226447783166"><ele>115.0</ele><time>2026-03-28T14:03:59.002Z</time></trkpt><trkpt lat="45.611716007509294" lon="10.512049825439346"><ele>114.0</ele><time>2026-03-28T14:04:00.002Z</time></trkpt><trkpt lat="45.611772013418346" lon="10.511831547980654"><ele>113.0</ele><time>2026-03-28T14:04:01.002Z</time></trkpt><trkpt lat="45.611833634295" lon="10.51160553827527"><ele>112.0</ele><time>2026-03-28T14:04:02.002Z</time></trkpt><trkpt lat="45.61187349226694" lon="10.511380104724248"><ele>111.25</ele><time>2026-03-28T14:04:03.002Z</time></trkpt><trkpt lat="45.61190076793743" lon="10.51115247973432"><ele>110.5</ele><time>2026-03-28T14:04:04.002Z</time></trkpt><trkpt lat="45.61192047203104" lon="10.510942905269626"><ele>109.75</ele><time>2026-03-28T14:04:05.002Z</time></trkpt><trkpt lat="45.61193927292269" lon="10.510756026309467"><ele>109.0</ele><time>2026-03-28T14:04:06.002Z</time></trkpt><trkpt lat="45.61196287373385" lon="10.510599032648102"><ele>109.6</ele><time>2026-03-28T14:04:07.002Z</time></trkpt><trkpt lat="45.61200200020461" lon="10.510461949635356"><ele>110.2</ele><time>2026-03-28T14:04:08.002Z</time></trkpt><trkpt lat="45.61204536896652" lon="10.510330294942449"><ele>110.79999999999998</ele><time>2026-03-28T14:04:09.002Z</time></trkpt><trkpt lat="45.61205654966359" lon="10.510227306683323"><ele>111.39999999999999</ele><time>2026-03-28T14:04:10.002Z</time></trkpt><trkpt lat="45.61200221517001" lon="10.510066621445517"><ele>112.0</ele><time>2026-03-28T14:04:12.002Z</time></trkpt><trkpt lat="45.61193895662366" lon="10.509963139976076"><ele>112.0</ele><time>2026-03-28T14:04:13.002Z</time></trkpt><trkpt lat="45.61186164134997" lon="10.509824138191018"><ele>112.0</ele><time>2026-03-28T14:04:14.002Z</time></trkpt><trkpt lat="45.61177059141664" lon="10.509656947710065"><ele>112.0</ele><time>2026-03-28T14:04:15.002Z</time></trkpt><trkpt lat="45.61172614413182" lon="10.509426208645806"><ele>112.0</ele><time>2026-03-28T14:04:16.002Z</time></trkpt><trkpt lat="45.61163869293162" lon="10.50921364045139"><ele>113.66666666666667</ele><time>2026-03-28T14:04:17.002Z</time></trkpt><trkpt lat="45.61155386457255" lon="10.508970622499094"><ele>115.33333333333334</ele><time>2026-03-28T14:04:18.002Z</time></trkpt><trkpt lat="45.61145620399813" lon="10.508730311528256"><ele>117.0</ele><time>2026-03-28T14:04:19.002Z</time></trkpt><trkpt lat="45.61135061892317" lon="10.50848228579454"><ele>115.66666666666666</ele><time>2026-03-28T14:04:20.003Z</time></trkpt><trkpt lat="45.61123878193672" lon="10.508227407464283"><ele>114.33333333333333</ele><time>2026-03-28T14:04:21.003Z</time></trkpt><trkpt lat="45.611132092356236" lon="10.507962674026095"><ele>113.0</ele><time>2026-03-28T14:04:22.003Z</time></trkpt><trkpt lat="45.61101767723944" lon="10.507681733913747"><ele>113.0</ele><time>2026-03-28T14:04:23.003Z</time></trkpt><trkpt lat="45.61090564442953" lon="10.507411685295185"><ele>113.0</ele><time>2026-03-28T14:04:24.003Z</time></trkpt><trkpt lat="45.61078888681861" lon="10.50714282296568"><ele>113.0</ele><time>2026-03-28T14:04:25.003Z</time></trkpt><trkpt lat="45.61068041117223" lon="10.506881957930872"><ele>117.66666666666666</ele><time>2026-03-28T14:04:26.003Z</time></trkpt><trkpt lat="45.61058899192316" lon="10.506625009493701"><ele>122.33333333333334</ele><time>2026-03-28T14:04:27.003Z</time></trkpt><trkpt lat="45.6105144020898" lon="10.506359432855964"><ele>127.0</ele><time>2026-03-28T14:04:28.003Z</time></trkpt><trkpt lat="45.61046122164087" lon="10.506087835544134"><ele>131.0</ele><time>2026-03-28T14:04:29.003Z</time></trkpt><trkpt lat="45.61042993666" lon="10.505807545168128"><ele>135.0</ele><time>2026-03-28T14:04:30.003Z</time></trkpt><trkpt lat="45.610418016109634" lon="10.505531427915797"><ele>139.0</ele><time>2026-03-28T14:04:31.003Z</time></trkpt><trkpt lat="45.61043363702049" lon="10.505248305214836"><ele>139.66666666666669</ele><time>2026-03-28T14:04:32.003Z</time></trkpt><trkpt lat="45.610470564374005" lon="10.504964234268718"><ele>140.33333333333334</ele><time>2026-03-28T14:04:33.003Z</time></trkpt><trkpt lat="45.61051252264913" lon="10.504680948320573"><ele>141.0</ele><time>2026-03-28T14:04:34.003Z</time></trkpt><trkpt lat="45.61055399382307" lon="10.504398616467267"><ele>136.66666666666666</ele><time>2026-03-28T14:04:35.003Z</time></trkpt><trkpt lat="45.61059641323049" lon="10.504107908466661"><ele>132.33333333333331</ele><time>2026-03-28T14:04:36.003Z</time></trkpt><trkpt lat="45.610636094879226" lon="10.503810518585738"><ele>128.0</ele><time>2026-03-28T14:04:37.003Z</time></trkpt><trkpt lat="45.610670805870576" lon="10.503515881434486"><ele>127.0</ele><time>2026-03-28T14:04:38.003Z</time></trkpt><trkpt lat="45.610705642523655" lon="10.50321753712296"><ele>126.0</ele><time>2026-03-28T14:04:39.003Z</time></trkpt><trkpt lat="45.610742748104805" lon="10.502923173869574"><ele>125.0</ele><time>2026-03-28T14:04:40.003Z</time></trkpt><trkpt lat="45.61078278271593" lon="10.502634594550939"><ele>125.0</ele><time>2026-03-28T14:04:41.003Z</time></trkpt><trkpt lat="45.610815337675" lon="10.502344023940404"><ele>125.0</ele><time>2026-03-28T14:04:42.003Z</time></trkpt><trkpt lat="45.610814175386885" lon="10.502075958156318"><ele>125.0</ele><time>2026-03-28T14:04:43.003Z</time></trkpt><trkpt lat="45.61080313706888" lon="10.50183572957472"><ele>127.75</ele><time>2026-03-28T14:04:44.003Z</time></trkpt><trkpt lat="45.61077259171485" lon="10.501606469156698"><ele>130.5</ele><time>2026-03-28T14:04:45.003Z</time></trkpt><trkpt lat="45.61074866186417" lon="10.501420501881759"><ele>133.25</ele><time>2026-03-28T14:04:46.003Z</time></trkpt><trkpt lat="45.610731181028186" lon="10.501260857121828"><ele>136.0</ele><time>2026-03-28T14:04:47.003Z</time></trkpt><trkpt lat="45.610736870810456" lon="10.501104348333302"><ele>136.8</ele><time>2026-03-28T14:04:48.003Z</time></trkpt><trkpt lat="45.61075585170533" lon="10.500954874455317"><ele>137.6</ele><time>2026-03-28T14:04:48.999Z</time></trkpt><trkpt lat="45.61076379657677" lon="10.500826095958985"><ele>138.4</ele><time>2026-03-28T14:04:49.999Z</time></trkpt><trkpt lat="45.61075013185624" lon="10.500668703902178"><ele>139.2</ele><time>2026-03-28T14:04:50.999Z</time></trkpt><trkpt lat="45.61069846022878" lon="10.500546361255774"><ele>140.0</ele><time>2026-03-28T14:04:51.999Z</time></trkpt><trkpt lat="45.61061620345237" lon="10.500467627709067"><ele>140.0</ele><time>2026-03-28T14:04:52.999Z</time></trkpt><trkpt lat="45.610525119254156" lon="10.500457945225948"><ele>140.0</ele><time>2026-03-28T14:04:54Z</time></trkpt><trkpt lat="45.6104526552213" lon="10.500507372657378"><ele>140.0</ele><time>2026-03-28T14:04:55Z</time></trkpt><trkpt lat="45.610395194822004" lon="10.500611961086493"><ele>140.0</ele><time>2026-03-28T14:04:56Z</time></trkpt><trkpt lat="45.6103283214265" lon="10.500743357158948"><ele>140.0</ele><time>2026-03-28T14:04:57Z</time></trkpt><trkpt lat="45.61024544239037" lon="10.500861899077904"><ele>138.25</ele><time>2026-03-28T14:04:58Z</time></trkpt><trkpt lat="45.61013779597584" lon="10.500921637597228"><ele>136.5</ele><time>2026-03-28T14:04:59Z</time></trkpt><trkpt lat="45.61002122891361" lon="10.500876682744432"><ele>134.75</ele><time>2026-03-28T14:05:00Z</time></trkpt><trkpt lat="45.60989169685873" lon="10.500831545467962"><ele>133.0</ele><time>2026-03-28T14:05:01Z</time></trkpt><trkpt lat="45.609737438506585" lon="10.500782519976886"><ele>133.0</ele><time>2026-03-28T14:05:02Z</time></trkpt><trkpt lat="45.60956840428662" lon="10.500733111752764"><ele>133.0</ele><time>2026-03-28T14:05:03Z</time></trkpt><trkpt lat="45.6093972646583" lon="10.50064829426137"><ele>133.0</ele><time>2026-03-28T14:05:04Z</time></trkpt><trkpt lat="45.609216218732854" lon="10.500569468906502"><ele>130.66666666666669</ele><time>2026-03-28T14:05:05Z</time></trkpt><trkpt lat="45.6090254341419" lon="10.500501077245852"><ele>128.33333333333334</ele><time>2026-03-28T14:05:06Z</time></trkpt><trkpt lat="45.608822444904966" lon="10.50045494758945"><ele>126.0</ele><time>2026-03-28T14:05:07Z</time></trkpt><trkpt lat="45.60861021056769" lon="10.500435348858845"><ele>126.0</ele><time>2026-03-28T14:05:08Z</time></trkpt><trkpt lat="45.608392318494666" lon="10.500450383948621"><ele>126.0</ele><time>2026-03-28T14:05:09Z</time></trkpt><trkpt lat="45.60816343741337" lon="10.500490425078803"><ele>126.0</ele><time>2026-03-28T14:05:10Z</time></trkpt><trkpt lat="45.60794496105305" lon="10.500558329213746"><ele>131.0</ele><time>2026-03-28T14:05:11Z</time></trkpt><trkpt lat="45.60771814651949" lon="10.500673894932492"><ele>136.0</ele><time>2026-03-28T14:05:12Z</time></trkpt><trkpt lat="45.60749623103086" lon="10.50081847787901"><ele>136.0</ele><time>2026-03-28T14:05:13Z</time></trkpt><trkpt lat="45.60727242241994" lon="10.500976256748505"><ele>136.0</ele><time>2026-03-28T14:05:14.018Z</time></trkpt><trkpt lat="45.60705502302357" lon="10.50112706247133"><ele>131.5</ele><time>2026-03-28T14:05:15.015Z</time></trkpt><trkpt lat="45.6068366288011" lon="10.501278826382778"><ele>127.0</ele><time>2026-03-28T14:05:16.014Z</time></trkpt><trkpt lat="45.60667263189612" lon="10.501515687283455"><ele>127.0</ele><time>2026-03-28T14:05:17.015Z</time></trkpt><trkpt lat="45.606546898095075" lon="10.501747998118669"><ele>127.0</ele><time>2026-03-28T14:05:18.015Z</time></trkpt><trkpt lat="45.60631900564358" lon="10.50321450457955"><ele>119.5</ele><time>2026-03-28T14:05:24.001Z</time></trkpt><trkpt lat="45.60623265356903" lon="10.50345522796089"><ele>112.0</ele><time>2026-03-28T14:05:25.001Z</time></trkpt><trkpt lat="45.60649055925667" lon="10.503751448422596"><ele>110.5</ele><time>2026-03-28T14:05:26.001Z</time></trkpt><trkpt lat="45.60647980273964" lon="10.50400682714979"><ele>109.0</ele><time>2026-03-28T14:05:27.001Z</time></trkpt><trkpt lat="45.60651834043317" lon="10.504174701662107"><ele>107.5</ele><time>2026-03-28T14:05:28.001Z</time></trkpt><trkpt lat="45.60653550632023" lon="10.504332514203185"><ele>106.0</ele><time>2026-03-28T14:05:30.001Z</time></trkpt><trkpt lat="45.60645555960412" lon="10.504441025341036"><ele>106.0</ele><time>2026-03-28T14:05:31.001Z</time></trkpt><trkpt lat="45.60648502221705" lon="10.504544619168314"><ele>106.0</ele><time>2026-03-28T14:05:32.001Z</time></trkpt><trkpt lat="45.60631822909763" lon="10.504724795922835"><ele>106.0</ele><time>2026-03-28T14:05:33.001Z</time></trkpt><trkpt lat="45.60623447972441" lon="10.50481163172242"><ele>106.0</ele><time>2026-03-28T14:05:34.001Z</time></trkpt><trkpt lat="45.60613543760589" lon="10.504881717195564"><ele>105.5</ele><time>2026-03-28T14:05:35.001Z</time></trkpt><trkpt lat="45.60598371776653" lon="10.504962272333058"><ele>105.0</ele><time>2026-03-28T14:05:36.001Z</time></trkpt><trkpt lat="45.605858944689444" lon="10.505069403217968"><ele>104.5</ele><time>2026-03-28T14:05:37.001Z</time></trkpt><trkpt lat="45.605733081740965" lon="10.505128981974922"><ele>104.0</ele><time>2026-03-28T14:05:38.001Z</time></trkpt><trkpt lat="45.60561627351976" lon="10.505232340228428"><ele>104.0</ele><time>2026-03-28T14:05:39.001Z</time></trkpt><trkpt lat="45.60548094797375" lon="10.505307266397672"><ele>104.0</ele><time>2026-03-28T14:05:40.001Z</time></trkpt><trkpt lat="45.60533944231595" lon="10.505382013936728"><ele>104.0</ele><time>2026-03-28T14:05:41.001Z</time></trkpt><trkpt lat="45.605200419022815" lon="10.505480678646167"><ele>105.66666666666666</ele><time>2026-03-28T14:05:42.001Z</time></trkpt><trkpt lat="45.60505657451613" lon="10.505565526421465"><ele>107.33333333333334</ele><time>2026-03-28T14:05:43.001Z</time></trkpt><trkpt lat="45.604908374532705" lon="10.505660318563569"><ele>109.0</ele><time>2026-03-28T14:05:44.001Z</time></trkpt><trkpt lat="45.60475882762848" lon="10.505730649544022"><ele>109.0</ele><time>2026-03-28T14:05:45.001Z</time></trkpt><trkpt lat="45.60460302306671" lon="10.505825948303588"><ele>109.0</ele><time>2026-03-28T14:05:46.001Z</time></trkpt><trkpt lat="45.60443938183171" lon="10.505921835343974"><ele>109.0</ele><time>2026-03-28T14:05:47.001Z</time></trkpt><trkpt lat="45.60428309426771" lon="10.506009734849568"><ele>108.33333333333334</ele><time>2026-03-28T14:05:48.001Z</time></trkpt><trkpt lat="45.60412032250248" lon="10.506110167334445"><ele>107.66666666666666</ele><time>2026-03-28T14:05:49.001Z</time></trkpt><trkpt lat="45.60396274283853" lon="10.506200501721377"><ele>107.0</ele><time>2026-03-28T14:05:50.001Z</time></trkpt><trkpt lat="45.60380116189485" lon="10.506293367484389"><ele>108.0</ele><time>2026-03-28T14:05:51.001Z</time></trkpt><trkpt lat="45.60363418638092" lon="10.506394285347445"><ele>109.0</ele><time>2026-03-28T14:05:52.002Z</time></trkpt><trkpt lat="45.60346882603871" lon="10.506492344940273"><ele>110.0</ele><time>2026-03-28T14:05:53.002Z</time></trkpt><trkpt lat="45.60330804833632" lon="10.50658929491217"><ele>110.0</ele><time>2026-03-28T14:05:54.002Z</time></trkpt><trkpt lat="45.60314504092617" lon="10.506695768976183"><ele>110.0</ele><time>2026-03-28T14:05:55.002Z</time></trkpt><trkpt lat="45.60298271008806" lon="10.506791771609159"><ele>110.0</ele><time>2026-03-28T14:05:56.002Z</time></trkpt><trkpt lat="45.602815271556466" lon="10.506893527144342"><ele>111.33333333333333</ele><time>2026-03-28T14:05:57.002Z</time></trkpt><trkpt lat="45.60264886469082" lon="10.506997791185704"><ele>112.66666666666666</ele><time>2026-03-28T14:05:58.002Z</time></trkpt><trkpt lat="45.60247791224918" lon="10.507113671621727"><ele>114.0</ele><time>2026-03-28T14:05:59.002Z</time></trkpt><trkpt lat="45.602310357060844" lon="10.50723693923897"><ele>114.0</ele><time>2026-03-28T14:06:00.002Z</time></trkpt><trkpt lat="45.60213552870636" lon="10.507364578383273"><ele>114.0</ele><time>2026-03-28T14:06:01.002Z</time></trkpt><trkpt lat="45.601972506287375" lon="10.507496995639013"><ele>114.0</ele><time>2026-03-28T14:06:02.002Z</time></trkpt><trkpt lat="45.60180376499598" lon="10.507627943283099"><ele>113.66666666666666</ele><time>2026-03-28T14:06:03.002Z</time></trkpt><trkpt lat="45.601639148769365" lon="10.507752956984987"><ele>113.33333333333333</ele><time>2026-03-28T14:06:04.002Z</time></trkpt><trkpt lat="45.60147920245206" lon="10.507868741575335"><ele>113.0</ele><time>2026-03-28T14:06:05.002Z</time></trkpt><trkpt lat="45.60132770395066" lon="10.507960070033059"><ele>113.0</ele><time>2026-03-28T14:06:06.002Z</time></trkpt><trkpt lat="45.601182160859224" lon="10.508025646487356"><ele>113.0</ele><time>2026-03-28T14:06:07.002Z</time></trkpt><trkpt lat="45.60102453004084" lon="10.508038880344536"><ele>113.0</ele><time>2026-03-28T14:06:08.002Z</time></trkpt><trkpt lat="45.60086242706536" lon="10.50804149940932"><ele>113.0</ele><time>2026-03-28T14:06:09.002Z</time></trkpt><trkpt lat="45.60069402443351" lon="10.508018998660082"><ele>113.0</ele><time>2026-03-28T14:06:10.002Z</time></trkpt><trkpt lat="45.600532349643" lon="10.507967883166957"><ele>113.0</ele><time>2026-03-28T14:06:11.002Z</time></trkpt><trkpt lat="45.60037156989722" lon="10.507882635303655"><ele>116.33333333333333</ele><time>2026-03-28T14:06:12.002Z</time></trkpt><trkpt lat="45.60021231813201" lon="10.507786307104313"><ele>119.66666666666666</ele><time>2026-03-28T14:06:13.002Z</time></trkpt><trkpt lat="45.60005084455295" lon="10.507710603575298"><ele>123.0</ele><time>2026-03-28T14:06:14.002Z</time></trkpt><trkpt lat="45.59989252317483" lon="10.507617157277545"><ele>123.0</ele><time>2026-03-28T14:06:15.002Z</time></trkpt><trkpt lat="45.59973740200084" lon="10.507544504821626"><ele>123.0</ele><time>2026-03-28T14:06:16.002Z</time></trkpt><trkpt lat="45.599579557172255" lon="10.50749716686652"><ele>123.0</ele><time>2026-03-28T14:06:17.002Z</time></trkpt><trkpt lat="45.599408336374296" lon="10.50748984531403"><ele>124.66666666666666</ele><time>2026-03-28T14:06:18.002Z</time></trkpt><trkpt lat="45.599234250014014" lon="10.507520037951487"><ele>126.33333333333333</ele><time>2026-03-28T14:06:19.002Z</time></trkpt><trkpt lat="45.59905834563115" lon="10.507584762859622"><ele>128.0</ele><time>2026-03-28T14:06:20.002Z</time></trkpt><trkpt lat="45.59888934552953" lon="10.507660840903371"><ele>128.0</ele><time>2026-03-28T14:06:21.002Z</time></trkpt><trkpt lat="45.598702201223404" lon="10.50773961601679"><ele>128.0</ele><time>2026-03-28T14:06:22.002Z</time></trkpt><trkpt lat="45.59851069225701" lon="10.507783321919732"><ele>128.0</ele><time>2026-03-28T14:06:23.002Z</time></trkpt><trkpt lat="45.59832358997517" lon="10.50787354147444"><ele>126.66666666666666</ele><time>2026-03-28T14:06:24.003Z</time></trkpt><trkpt lat="45.59813116445958" lon="10.507937253841288"><ele>125.33333333333334</ele><time>2026-03-28T14:06:25.003Z</time></trkpt><trkpt lat="45.59794003666254" lon="10.508000524413672"><ele>124.0</ele><time>2026-03-28T14:06:26.003Z</time></trkpt><trkpt lat="45.59774872915433" lon="10.508064050229601"><ele>124.0</ele><time>2026-03-28T14:06:27.003Z</time></trkpt><trkpt lat="45.59755022101041" lon="10.508125090429814"><ele>124.0</ele><time>2026-03-28T14:06:28.003Z</time></trkpt><trkpt lat="45.597352222618554" lon="10.508183288282671"><ele>124.0</ele><time>2026-03-28T14:06:29.003Z</time></trkpt><trkpt lat="45.59714583736741" lon="10.508244002713704"><ele>124.33333333333334</ele><time>2026-03-28T14:06:30.003Z</time></trkpt><trkpt lat="45.596944659419606" lon="10.508306089990336"><ele>124.66666666666666</ele><time>2026-03-28T14:06:31.003Z</time></trkpt><trkpt lat="45.59674305288781" lon="10.508375579538741"><ele>125.0</ele><time>2026-03-28T14:06:32.003Z</time></trkpt><trkpt lat="45.59654387034597" lon="10.508446797051"><ele>125.0</ele><time>2026-03-28T14:06:33.003Z</time></trkpt><trkpt lat="45.59635696459838" lon="10.508516745922154"><ele>125.0</ele><time>2026-03-28T14:06:34.003Z</time></trkpt><trkpt lat="45.59619319981933" lon="10.508595950649898"><ele>125.0</ele><time>2026-03-28T14:06:35.003Z</time></trkpt><trkpt lat="45.59604222054065" lon="10.508706875654877"><ele>127.0</ele><time>2026-03-28T14:06:36.003Z</time></trkpt><trkpt lat="45.59590520415819" lon="10.508856377169193"><ele>129.0</ele><time>2026-03-28T14:06:37.003Z</time></trkpt><trkpt lat="45.595776551909225" lon="10.509036607055505"><ele>131.0</ele><time>2026-03-28T14:06:38.003Z</time></trkpt><trkpt lat="45.59566863069355" lon="10.509245151660563"><ele>131.0</ele><time>2026-03-28T14:06:39.003Z</time></trkpt><trkpt lat="45.595571841934124" lon="10.509480767857202"><ele>131.0</ele><time>2026-03-28T14:06:40.003Z</time></trkpt><trkpt lat="45.59548835190015" lon="10.509714602311295"><ele>131.0</ele><time>2026-03-28T14:06:41.003Z</time></trkpt><trkpt lat="45.59540094435072" lon="10.509957780049994"><ele>131.66666666666666</ele><time>2026-03-28T14:06:42.003Z</time></trkpt><trkpt lat="45.595306601148756" lon="10.510196749988225"><ele>132.33333333333334</ele><time>2026-03-28T14:06:43.003Z</time></trkpt><trkpt lat="45.59520375164076" lon="10.510429853521535"><ele>133.0</ele><time>2026-03-28T14:06:44.003Z</time></trkpt><trkpt lat="45.595092310061794" lon="10.510643929664159"><ele>133.0</ele><time>2026-03-28T14:06:45.003Z</time></trkpt><trkpt lat="45.59496918052695" lon="10.510830816379674"><ele>133.0</ele><time>2026-03-28T14:06:46.003Z</time></trkpt><trkpt lat="45.594832525547666" lon="10.510987338719826"><ele>133.0</ele><time>2026-03-28T14:06:47.003Z</time></trkpt><trkpt lat="45.59467375440929" lon="10.51112687940045"><ele>133.33333333333334</ele><time>2026-03-28T14:06:48.003Z</time></trkpt><trkpt lat="45.594494727603156" lon="10.51119901797369"><ele>133.66666666666666</ele><time>2026-03-28T14:06:49.003Z</time></trkpt><trkpt lat="45.5943079527041" lon="10.511303676758267"><ele>134.0</ele><time>2026-03-28T14:06:50.003Z</time></trkpt><trkpt lat="45.594127466131226" lon="10.511421039807374"><ele>134.0</ele><time>2026-03-28T14:06:51.003Z</time></trkpt><trkpt lat="45.593936210113725" lon="10.511515435679184"><ele>134.0</ele><time>2026-03-28T14:06:52.003Z</time></trkpt><trkpt lat="45.59374894792412" lon="10.511614965365206"><ele>134.0</ele><time>2026-03-28T14:06:53.003Z</time></trkpt><trkpt lat="45.59357902031602" lon="10.511725482748579"><ele>134.33333333333331</ele><time>2026-03-28T14:06:54.003Z</time></trkpt><trkpt lat="45.593433244655685" lon="10.511847683160493"><ele>134.66666666666666</ele><time>2026-03-28T14:06:54.999Z</time></trkpt><trkpt lat="45.59330837549361" lon="10.511993789882974"><ele>135.0</ele><time>2026-03-28T14:06:55.999Z</time></trkpt><trkpt lat="45.593212274962646" lon="10.512163460445198"><ele>135.0</ele><time>2026-03-28T14:06:56.999Z</time></trkpt><trkpt lat="45.59313395871439" lon="10.51237008981134"><ele>135.0</ele><time>2026-03-28T14:06:57.999Z</time></trkpt><trkpt lat="45.59308534262395" lon="10.512597541076202"><ele>135.0</ele><time>2026-03-28T14:06:58.999Z</time></trkpt><trkpt lat="45.5930652290943" lon="10.512835047431762"><ele>135.66666666666666</ele><time>2026-03-28T14:07:00Z</time></trkpt><trkpt lat="45.5930701486081" lon="10.513081608443873"><ele>136.33333333333331</ele><time>2026-03-28T14:07:01Z</time></trkpt><trkpt lat="45.593112057546286" lon="10.513327229240076"><ele>137.0</ele><time>2026-03-28T14:07:02Z</time></trkpt><trkpt lat="45.593169512885" lon="10.513566963768028"><ele>139.33333333333331</ele><time>2026-03-28T14:07:03Z</time></trkpt><trkpt lat="45.5932362126596" lon="10.513813631283067"><ele>141.66666666666666</ele><time>2026-03-28T14:07:04Z</time></trkpt><trkpt lat="45.593297188644875" lon="10.514059230109995"><ele>144.0</ele><time>2026-03-28T14:07:05Z</time></trkpt><trkpt lat="45.59335332884987" lon="10.51432174957776"><ele>146.0</ele><time>2026-03-28T14:07:06Z</time></trkpt><trkpt lat="45.59340016541263" lon="10.51458081475396"><ele>148.0</ele><time>2026-03-28T14:07:07Z</time></trkpt><trkpt lat="45.59345112093179" lon="10.51484444257429"><ele>150.0</ele><time>2026-03-28T14:07:08Z</time></trkpt><trkpt lat="45.593505523801596" lon="10.515107509879552"><ele>150.0</ele><time>2026-03-28T14:07:09Z</time></trkpt><trkpt lat="45.593557101376014" lon="10.515365419539815"><ele>150.0</ele><time>2026-03-28T14:07:10Z</time></trkpt><trkpt lat="45.59359048094308" lon="10.515625545319118"><ele>150.0</ele><time>2026-03-28T14:07:11Z</time></trkpt><trkpt lat="45.59360415649938" lon="10.5158923063363"><ele>150.0</ele><time>2026-03-28T14:07:12Z</time></trkpt><trkpt lat="45.59359203432972" lon="10.516159535818655"><ele>150.0</ele><time>2026-03-28T14:07:13Z</time></trkpt><trkpt lat="45.59355932166509" lon="10.516423397579192"><ele>150.0</ele><time>2026-03-28T14:07:14Z</time></trkpt><trkpt lat="45.59350848546683" lon="10.516680594033952"><ele>150.0</ele><time>2026-03-28T14:07:15Z</time></trkpt><trkpt lat="45.59344632264976" lon="10.516945882185883"><ele>150.0</ele><time>2026-03-28T14:07:16Z</time></trkpt><trkpt lat="45.59338715151524" lon="10.517217280754117"><ele>150.0</ele><time>2026-03-28T14:07:17Z</time></trkpt><trkpt lat="45.59333513275903" lon="10.517499876322939"><ele>148.33333333333334</ele><time>2026-03-28T14:07:18Z</time></trkpt><trkpt lat="45.59328730579831" lon="10.517779925257711"><ele>146.66666666666669</ele><time>2026-03-28T14:07:19Z</time></trkpt><trkpt lat="45.59323786626318" lon="10.518052628234676"><ele>145.0</ele><time>2026-03-28T14:07:20Z</time></trkpt><trkpt lat="45.593183395649774" lon="10.518334209390964"><ele>144.66666666666669</ele><time>2026-03-28T14:07:21Z</time></trkpt><trkpt lat="45.59313403196439" lon="10.518609495205627"><ele>144.33333333333334</ele><time>2026-03-28T14:07:22Z</time></trkpt><trkpt lat="45.59307963822249" lon="10.518873722792371"><ele>144.0</ele><time>2026-03-28T14:07:23Z</time></trkpt><trkpt lat="45.59302634538462" lon="10.519168390458672"><ele>144.66666666666666</ele><time>2026-03-28T14:07:24Z</time></trkpt><trkpt lat="45.59297742510312" lon="10.519446870985226"><ele>145.33333333333331</ele><time>2026-03-28T14:07:25Z</time></trkpt><trkpt lat="45.592918971330164" lon="10.51972094552396"><ele>146.0</ele><time>2026-03-28T14:07:26Z</time></trkpt><trkpt lat="45.592848555038536" lon="10.5199828981586"><ele>150.33333333333331</ele><time>2026-03-28T14:07:27Z</time></trkpt><trkpt lat="45.59276527509576" lon="10.52023724596385"><ele>154.66666666666666</ele><time>2026-03-28T14:07:28Z</time></trkpt><trkpt lat="45.5926734964912" lon="10.520485792255885"><ele>159.0</ele><time>2026-03-28T14:07:29.001Z</time></trkpt><trkpt lat="45.59256216070723" lon="10.520719455315211"><ele>159.0</ele><time>2026-03-28T14:07:30.001Z</time></trkpt><trkpt lat="45.59243768307544" lon="10.520944940555058"><ele>159.0</ele><time>2026-03-28T14:07:31.001Z</time></trkpt><trkpt lat="45.59231277736866" lon="10.521168255951467"><ele>159.0</ele><time>2026-03-28T14:07:32.001Z</time></trkpt><trkpt lat="45.59218788764498" lon="10.521392041925363"><ele>159.66666666666666</ele><time>2026-03-28T14:07:33.001Z</time></trkpt><trkpt lat="45.592070203979794" lon="10.521613414490616"><ele>160.33333333333331</ele><time>2026-03-28T14:07:34.001Z</time></trkpt><trkpt lat="45.59196148530147" lon="10.521824636244508"><ele>161.0</ele><time>2026-03-28T14:07:35.001Z</time></trkpt><trkpt lat="45.591861312940935" lon="10.522017916587632"><ele>160.25</ele><time>2026-03-28T14:07:36.001Z</time></trkpt><trkpt lat="45.591765905114315" lon="10.522193945634216"><ele>159.5</ele><time>2026-03-28T14:07:37.001Z</time></trkpt><trkpt lat="45.591670070433985" lon="10.522349757503092"><ele>158.75</ele><time>2026-03-28T14:07:38.001Z</time></trkpt><trkpt lat="45.591572594564795" lon="10.522474246746848"><ele>158.0</ele><time>2026-03-28T14:07:39.001Z</time></trkpt><trkpt lat="45.59147164869114" lon="10.522576506741146"><ele>158.0</ele><time>2026-03-28T14:07:40.001Z</time></trkpt><trkpt lat="45.591376655066334" lon="10.522657790618704"><ele>158.0</ele><time>2026-03-28T14:07:41.001Z</time></trkpt><trkpt lat="45.59128792335771" lon="10.522691825877773"><ele>158.0</ele><time>2026-03-28T14:07:42.001Z</time></trkpt><trkpt lat="45.5912000635546" lon="10.522690910228826"><ele>158.0</ele><time>2026-03-28T14:07:43.001Z</time></trkpt><trkpt lat="45.59111857541645" lon="10.522704574679986"><ele>158.0</ele><time>2026-03-28T14:07:44.001Z</time></trkpt><trkpt lat="45.59104406470092" lon="10.522772021861906"><ele>157.8</ele><time>2026-03-28T14:07:45.001Z</time></trkpt><trkpt lat="45.59096712347723" lon="10.522873820006293"><ele>157.60000000000002</ele><time>2026-03-28T14:07:46.001Z</time></trkpt><trkpt lat="45.59088868085628" lon="10.522970000141616"><ele>157.39999999999998</ele><time>2026-03-28T14:07:47.001Z</time></trkpt><trkpt lat="45.590801164152516" lon="10.523013389226412"><ele>157.2</ele><time>2026-03-28T14:07:48.001Z</time></trkpt><trkpt lat="45.59071398175781" lon="10.522997995829261"><ele>157.0</ele><time>2026-03-28T14:07:49.001Z</time></trkpt><trkpt lat="45.59061284302091" lon="10.52295604019669"><ele>157.0</ele><time>2026-03-28T14:07:50.001Z</time></trkpt><trkpt lat="45.59049430514657" lon="10.522882645746362"><ele>157.0</ele><time>2026-03-28T14:07:51.001Z</time></trkpt><trkpt lat="45.59036318555385" lon="10.522782427052892"><ele>157.0</ele><time>2026-03-28T14:07:52.001Z</time></trkpt><trkpt lat="45.59021952192599" lon="10.522669895272355"><ele>157.0</ele><time>2026-03-28T14:07:53.001Z</time></trkpt><trkpt lat="45.59007761332035" lon="10.522518287898283"><ele>157.33333333333334</ele><time>2026-03-28T14:07:54.001Z</time></trkpt><trkpt lat="45.58991591921795" lon="10.5223943349284"><ele>157.66666666666666</ele><time>2026-03-28T14:07:55.001Z</time></trkpt><trkpt lat="45.589748091922054" lon="10.522263846223103"><ele>158.0</ele><time>2026-03-28T14:07:56.001Z</time></trkpt><trkpt lat="45.58957632976737" lon="10.52213194558172"><ele>156.33333333333331</ele><time>2026-03-28T14:07:57.001Z</time></trkpt><trkpt lat="45.58939288353428" lon="10.522031824762083"><ele>154.66666666666666</ele><time>2026-03-28T14:07:58.001Z</time></trkpt><trkpt lat="45.58922942977788" lon="10.521906528889104"><ele>153.0</ele><time>2026-03-28T14:07:59.001Z</time></trkpt><trkpt lat="45.589066133492956" lon="10.521782133491678"><ele>153.0</ele><time>2026-03-28T14:08:00.001Z</time></trkpt><trkpt lat="45.588899872324475" lon="10.521658192892211"><ele>153.0</ele><time>2026-03-28T14:08:01.002Z</time></trkpt><trkpt lat="45.58874533200445" lon="10.521542520740828"><ele>153.0</ele><time>2026-03-28T14:08:02.002Z</time></trkpt><trkpt lat="45.58860109786145" lon="10.521431879365512"><ele>153.0</ele><time>2026-03-28T14:08:03.002Z</time></trkpt><trkpt lat="45.588463466249856" lon="10.521323967601854"><ele>153.0</ele><time>2026-03-28T14:08:04.002Z</time></trkpt><trkpt lat="45.58831426429499" lon="10.521209046876127"><ele>153.0</ele><time>2026-03-28T14:08:05.002Z</time></trkpt><trkpt lat="45.58816406136468" lon="10.52108763196215"><ele>153.0</ele><time>2026-03-28T14:08:06.002Z</time></trkpt><trkpt lat="45.58801883202579" lon="10.520965390743383"><ele>153.0</ele><time>2026-03-28T14:08:07.002Z</time></trkpt><trkpt lat="45.587911854819865" lon="10.520801725383317"><ele>153.0</ele><time>2026-03-28T14:08:08.002Z</time></trkpt><trkpt lat="45.587806121845226" lon="10.520658772839893"><ele>152.75</ele><time>2026-03-28T14:08:09.002Z</time></trkpt><trkpt lat="45.58771065481042" lon="10.520504367716946"><ele>152.5</ele><time>2026-03-28T14:08:10.002Z</time></trkpt><trkpt lat="45.58762584251281" lon="10.520328652536955"><ele>152.25</ele><time>2026-03-28T14:08:11.002Z</time></trkpt><trkpt lat="45.587558378766225" lon="10.52014376719985"><ele>152.0</ele><time>2026-03-28T14:08:12.002Z</time></trkpt><trkpt lat="45.58750297133159" lon="10.519968237054869"><ele>151.75</ele><time>2026-03-28T14:08:13.002Z</time></trkpt><trkpt lat="45.587448845532556" lon="10.519792123681441"><ele>151.5</ele><time>2026-03-28T14:08:14.002Z</time></trkpt><trkpt lat="45.587394199008756" lon="10.519612698811322"><ele>151.25</ele><time>2026-03-28T14:08:15.002Z</time></trkpt><trkpt lat="45.58733947337675" lon="10.519433014180537"><ele>151.0</ele><time>2026-03-28T14:08:16.002Z</time></trkpt><trkpt lat="45.58728923762664" lon="10.51926807127303"><ele>151.0</ele><time>2026-03-28T14:08:17.002Z</time></trkpt><trkpt lat="45.58724115069421" lon="10.519110184135151"><ele>151.0</ele><time>2026-03-28T14:08:18.002Z</time></trkpt><trkpt lat="45.58719215285455" lon="10.518949010677245"><ele>151.0</ele><time>2026-03-28T14:08:19.002Z</time></trkpt><trkpt lat="45.58714006908492" lon="10.518774686513346"><ele>151.0</ele><time>2026-03-28T14:08:20.002Z</time></trkpt><trkpt lat="45.58709485221416" lon="10.518623345937453"><ele>151.4</ele><time>2026-03-28T14:08:21.002Z</time></trkpt><trkpt lat="45.58705783917032" lon="10.518499466029867"><ele>151.8</ele><time>2026-03-28T14:08:22.002Z</time></trkpt><trkpt lat="45.58702747997612" lon="10.518393305094898"><ele>152.20000000000002</ele><time>2026-03-28T14:08:23.002Z</time></trkpt><trkpt lat="45.58700093763338" lon="10.518302442118896"><ele>152.6</ele><time>2026-03-28T14:08:24.002Z</time></trkpt><trkpt lat="45.58695738880143" lon="10.518153362024524"><ele>153.0</ele><time>2026-03-28T14:08:26.002Z</time></trkpt><trkpt lat="45.586896334096394" lon="10.518025908588044"><ele>153.0</ele><time>2026-03-28T14:08:28.002Z</time></trkpt><trkpt lat="45.586877404194006" lon="10.517924214530229"><ele>153.0</ele><time>2026-03-28T14:08:30.002Z</time></trkpt><trkpt lat="45.586875908195914" lon="10.51778968407632"><ele>153.0</ele><time>2026-03-28T14:08:32.002Z</time></trkpt><trkpt lat="45.58688988983899" lon="10.517694531188813"><ele>153.0</ele><time>2026-03-28T14:08:33.002Z</time></trkpt><trkpt lat="45.586911510375195" lon="10.517605657396636"><ele>153.0</ele><time>2026-03-28T14:08:34.003Z</time></trkpt><trkpt lat="45.58693929991512" lon="10.517519176669943"><ele>153.0</ele><time>2026-03-28T14:08:35.003Z</time></trkpt><trkpt lat="45.58695633623381" lon="10.517431129576824"><ele>153.0</ele><time>2026-03-28T14:08:36.003Z</time></trkpt><trkpt lat="45.58692385789755" lon="10.51729213760657"><ele>153.8</ele><time>2026-03-28T14:08:38.003Z</time></trkpt><trkpt lat="45.58680294395174" lon="10.517213988558868"><ele>154.60000000000002</ele><time>2026-03-28T14:08:40.003Z</time></trkpt><trkpt lat="45.58671767914486" lon="10.517170944736588"><ele>155.39999999999998</ele><time>2026-03-28T14:08:41.003Z</time></trkpt><trkpt lat="45.58664400722846" lon="10.517088173838149"><ele>156.2</ele><time>2026-03-28T14:08:42.003Z</time></trkpt><trkpt lat="45.58660543355986" lon="10.516956898828898"><ele>157.0</ele><time>2026-03-28T14:08:43.003Z</time></trkpt><trkpt lat="45.58655346288162" lon="10.516815236290526"><ele>157.25</ele><time>2026-03-28T14:08:44.003Z</time></trkpt><trkpt lat="45.586492314884325" lon="10.516648558051783"><ele>157.5</ele><time>2026-03-28T14:08:45.003Z</time></trkpt><trkpt lat="45.58642483506408" lon="10.516460523038972"><ele>157.75</ele><time>2026-03-28T14:08:46.003Z</time></trkpt><trkpt lat="45.58634143476659" lon="10.5162720828215"><ele>158.0</ele><time>2026-03-28T14:08:47.003Z</time></trkpt><trkpt lat="45.58623730715478" lon="10.516089057387466"><ele>159.33333333333331</ele><time>2026-03-28T14:08:48.003Z</time></trkpt><trkpt lat="45.58609878070543" lon="10.515948860863444"><ele>160.66666666666666</ele><time>2026-03-28T14:08:49.003Z</time></trkpt><trkpt lat="45.58596539765885" lon="10.515819063422564"><ele>162.0</ele><time>2026-03-28T14:08:50.003Z</time></trkpt><trkpt lat="45.58581921348112" lon="10.515732696796773"><ele>162.0</ele><time>2026-03-28T14:08:51.003Z</time></trkpt><trkpt lat="45.585693473864744" lon="10.515653420390276"><ele>162.0</ele><time>2026-03-28T14:08:52.003Z</time></trkpt><trkpt lat="45.58558616468101" lon="10.51556310289971"><ele>162.0</ele><time>2026-03-28T14:08:53.003Z</time></trkpt><trkpt lat="45.58548515894646" lon="10.515458750255583"><ele>162.0</ele><time>2026-03-28T14:08:54.003Z</time></trkpt><trkpt lat="45.58539547979818" lon="10.515376925326361"><ele>162.8</ele><time>2026-03-28T14:08:55.003Z</time></trkpt><trkpt lat="45.585309708067534" lon="10.515328005181898"><ele>163.6</ele><time>2026-03-28T14:08:56.003Z</time></trkpt><trkpt lat="45.585242383054" lon="10.51531846237199"><ele>164.4</ele><time>2026-03-28T14:08:57.003Z</time></trkpt><trkpt lat="45.585155628164614" lon="10.515345202368419"><ele>165.20000000000002</ele><time>2026-03-28T14:08:58.003Z</time></trkpt><trkpt lat="45.585053030415686" lon="10.515424278968421"><ele>166.0</ele><time>2026-03-28T14:08:59.003Z</time></trkpt><trkpt lat="45.584917377693344" lon="10.515495263836305"><ele>166.66666666666669</ele><time>2026-03-28T14:09:00.003Z</time></trkpt><trkpt lat="45.58476388318957" lon="10.51550761603818"><ele>167.33333333333334</ele><time>2026-03-28T14:09:01Z</time></trkpt><trkpt lat="45.58459917940689" lon="10.515531321074047"><ele>168.0</ele><time>2026-03-28T14:09:02Z</time></trkpt><trkpt lat="45.58442793448794" lon="10.515572738884632"><ele>171.33333333333334</ele><time>2026-03-28T14:09:03Z</time></trkpt><trkpt lat="45.584245891431166" lon="10.51558414683852"><ele>174.66666666666669</ele><time>2026-03-28T14:09:04Z</time></trkpt><trkpt lat="45.58405245371864" lon="10.515584011610535"><ele>178.0</ele><time>2026-03-28T14:09:05Z</time></trkpt><trkpt lat="45.58385533061132" lon="10.515576988031963"><ele>178.33333333333334</ele><time>2026-03-28T14:09:06Z</time></trkpt><trkpt lat="45.58365762819063" lon="10.515567146249756"><ele>178.66666666666666</ele><time>2026-03-28T14:09:07Z</time></trkpt><trkpt lat="45.583452864734866" lon="10.515562115495376"><ele>179.0</ele><time>2026-03-28T14:09:08Z</time></trkpt><trkpt lat="45.5832492393277" lon="10.51555898081184"><ele>179.0</ele><time>2026-03-28T14:09:09Z</time></trkpt><trkpt lat="45.58303246796165" lon="10.51555708328719"><ele>179.0</ele><time>2026-03-28T14:09:10Z</time></trkpt><trkpt lat="45.58281588392803" lon="10.515563109128014"><ele>179.0</ele><time>2026-03-28T14:09:11Z</time></trkpt><trkpt lat="45.5826007383796" lon="10.515562026994754"><ele>178.5</ele><time>2026-03-28T14:09:12Z</time></trkpt><trkpt lat="45.58236355922408" lon="10.515571095537103"><ele>178.0</ele><time>2026-03-28T14:09:13Z</time></trkpt><trkpt lat="45.58213217924899" lon="10.51555885124777"><ele>178.5</ele><time>2026-03-28T14:09:14Z</time></trkpt><trkpt lat="45.581906291075974" lon="10.515605458415058"><ele>179.0</ele><time>2026-03-28T14:09:15Z</time></trkpt><trkpt lat="45.58167660770205" lon="10.515643892620151"><ele>179.0</ele><time>2026-03-28T14:09:16Z</time></trkpt><trkpt lat="45.581457301893295" lon="10.515676886102225"><ele>179.0</ele><time>2026-03-28T14:09:17Z</time></trkpt><trkpt lat="45.58125871992057" lon="10.51570080005473"><ele>179.0</ele><time>2026-03-28T14:09:18Z</time></trkpt><trkpt lat="45.58106931721493" lon="10.515698024436725"><ele>178.66666666666666</ele><time>2026-03-28T14:09:19Z</time></trkpt><trkpt lat="45.58087074782064" lon="10.515673277541747"><ele>178.33333333333334</ele><time>2026-03-28T14:09:20Z</time></trkpt><trkpt lat="45.58067656975225" lon="10.515595986402143"><ele>178.0</ele><time>2026-03-28T14:09:21Z</time></trkpt><trkpt lat="45.58048169081121" lon="10.515519665199644"><ele>179.0</ele><time>2026-03-28T14:09:22Z</time></trkpt><trkpt lat="45.58027862202642" lon="10.515476892987872"><ele>180.0</ele><time>2026-03-28T14:09:23Z</time></trkpt><trkpt lat="45.580075775413164" lon="10.515420146701826"><ele>181.0</ele><time>2026-03-28T14:09:24Z</time></trkpt><trkpt lat="45.57986744812847" lon="10.515380266532297"><ele>183.33333333333334</ele><time>2026-03-28T14:09:25Z</time></trkpt><trkpt lat="45.57965709017171" lon="10.515350011525891"><ele>185.66666666666666</ele><time>2026-03-28T14:09:26Z</time></trkpt><trkpt lat="45.579445322151194" lon="10.515321766572502"><ele>188.0</ele><time>2026-03-28T14:09:27Z</time></trkpt><trkpt lat="45.57923722418908" lon="10.515297742314825"><ele>188.0</ele><time>2026-03-28T14:09:28Z</time></trkpt><trkpt lat="45.57902982619531" lon="10.515276881475872"><ele>188.0</ele><time>2026-03-28T14:09:29Z</time></trkpt><trkpt lat="45.5788249785038" lon="10.515259492447246"><ele>188.0</ele><time>2026-03-28T14:09:30Z</time></trkpt><trkpt lat="45.578623816726434" lon="10.515242701896183"><ele>187.33333333333331</ele><time>2026-03-28T14:09:31Z</time></trkpt><trkpt lat="45.5784254402469" lon="10.515228506542595"><ele>186.66666666666666</ele><time>2026-03-28T14:09:32Z</time></trkpt><trkpt lat="45.57822703678976" lon="10.515213415951209"><ele>186.0</ele><time>2026-03-28T14:09:33.001Z</time></trkpt><trkpt lat="45.57803505423692" lon="10.515198775904514"><ele>186.0</ele><time>2026-03-28T14:09:34.001Z</time></trkpt><trkpt lat="45.57786015794162" lon="10.515186175113092"><ele>186.0</ele><time>2026-03-28T14:09:35.001Z</time></trkpt><trkpt lat="45.57770528371612" lon="10.51515245611096"><ele>186.0</ele><time>2026-03-28T14:09:36.001Z</time></trkpt><trkpt lat="45.577549028227885" lon="10.515137160243988"><ele>186.33333333333334</ele><time>2026-03-28T14:09:37.001Z</time></trkpt><trkpt lat="45.57738762686865" lon="10.515117336864735"><ele>186.66666666666669</ele><time>2026-03-28T14:09:38.001Z</time></trkpt><trkpt lat="45.577214654443424" lon="10.515084822919805"><ele>187.0</ele><time>2026-03-28T14:09:39.001Z</time></trkpt><trkpt lat="45.57704096869358" lon="10.515061341035173"><ele>187.0</ele><time>2026-03-28T14:09:40.001Z</time></trkpt><trkpt lat="45.576852656415895" lon="10.515012216314807"><ele>187.0</ele><time>2026-03-28T14:09:41.001Z</time></trkpt><trkpt lat="45.57666684930078" lon="10.514965146220383"><ele>187.0</ele><time>2026-03-28T14:09:42.001Z</time></trkpt><trkpt lat="45.57647214128233" lon="10.514919920231444"><ele>187.0</ele><time>2026-03-28T14:09:43.001Z</time></trkpt><trkpt lat="45.57627246113191" lon="10.514876367928235"><ele>187.0</ele><time>2026-03-28T14:09:44.001Z</time></trkpt><trkpt lat="45.57607894003079" lon="10.514833431229173"><ele>187.0</ele><time>2026-03-28T14:09:45.001Z</time></trkpt><trkpt lat="45.57590205519737" lon="10.514795939213355"><ele>187.0</ele><time>2026-03-28T14:09:46.001Z</time></trkpt><trkpt lat="45.57571863825528" lon="10.514756374761609"><ele>187.0</ele><time>2026-03-28T14:09:47.001Z</time></trkpt><trkpt lat="45.57552202988" lon="10.514710553365001"><ele>187.0</ele><time>2026-03-28T14:09:48.001Z</time></trkpt><trkpt lat="45.57531886196077" lon="10.51466385519624"><ele>187.0</ele><time>2026-03-28T14:09:49.001Z</time></trkpt><trkpt lat="45.57511821162546" lon="10.514614898672997"><ele>187.0</ele><time>2026-03-28T14:09:50.001Z</time></trkpt><trkpt lat="45.57491686144823" lon="10.51455721139073"><ele>187.0</ele><time>2026-03-28T14:09:51.001Z</time></trkpt><trkpt lat="45.574716733727826" lon="10.514506815097768"><ele>189.0</ele><time>2026-03-28T14:09:52.001Z</time></trkpt><trkpt lat="45.57451608924749" lon="10.514458639140898"><ele>191.0</ele><time>2026-03-28T14:09:53.001Z</time></trkpt><trkpt lat="45.574328224879594" lon="10.514411517986929"><ele>193.0</ele><time>2026-03-28T14:09:54.001Z</time></trkpt><trkpt lat="45.57415933314767" lon="10.514370125062602"><ele>193.0</ele><time>2026-03-28T14:09:55.001Z</time></trkpt><trkpt lat="45.57399874478335" lon="10.514342117927585"><ele>193.0</ele><time>2026-03-28T14:09:56.001Z</time></trkpt><trkpt lat="45.573856970933285" lon="10.514342874333568"><ele>193.0</ele><time>2026-03-28T14:09:57.001Z</time></trkpt><trkpt lat="45.57373386612046" lon="10.514399931374896"><ele>193.0</ele><time>2026-03-28T14:09:58.001Z</time></trkpt><trkpt lat="45.573630021499646" lon="10.514522453821607"><ele>196.25</ele><time>2026-03-28T14:09:59.001Z</time></trkpt><trkpt lat="45.57354907475389" lon="10.514686038698217"><ele>199.5</ele><time>2026-03-28T14:10:00.001Z</time></trkpt><trkpt lat="45.57349755272609" lon="10.514887698431975"><ele>202.75</ele><time>2026-03-28T14:10:01.001Z</time></trkpt><trkpt lat="45.573470844951785" lon="10.515105716345447"><ele>206.0</ele><time>2026-03-28T14:10:02.001Z</time></trkpt><trkpt lat="45.57344750517506" lon="10.51535118391739"><ele>204.33333333333334</ele><time>2026-03-28T14:10:03.001Z</time></trkpt><trkpt lat="45.57339923826622" lon="10.515577413746733"><ele>202.66666666666669</ele><time>2026-03-28T14:10:04.001Z</time></trkpt><trkpt lat="45.57333878562207" lon="10.515775144477912"><ele>201.0</ele><time>2026-03-28T14:10:05.002Z</time></trkpt><trkpt lat="45.573253307594904" lon="10.515938254997334"><ele>201.0</ele><time>2026-03-28T14:10:06.002Z</time></trkpt><trkpt lat="45.57314283543447" lon="10.516073980529761"><ele>201.0</ele><time>2026-03-28T14:10:07.002Z</time></trkpt><trkpt lat="45.5730092638404" lon="10.516201207985649"><ele>201.0</ele><time>2026-03-28T14:10:08.002Z</time></trkpt><trkpt lat="45.57286549552778" lon="10.516322540125685"><ele>200.0</ele><time>2026-03-28T14:10:09.002Z</time></trkpt><trkpt lat="45.57271916926238" lon="10.51641874413799"><ele>199.0</ele><time>2026-03-28T14:10:10.002Z</time></trkpt><trkpt lat="45.57255694267865" lon="10.516494741736365"><ele>198.0</ele><time>2026-03-28T14:10:11.002Z</time></trkpt><trkpt lat="45.57238641222044" lon="10.51654424106271"><ele>198.0</ele><time>2026-03-28T14:10:12.002Z</time></trkpt><trkpt lat="45.572208344786425" lon="10.51657002936702"><ele>198.0</ele><time>2026-03-28T14:10:13.002Z</time></trkpt><trkpt lat="45.57204331682089" lon="10.516573834274052"><ele>198.0</ele><time>2026-03-28T14:10:14.002Z</time></trkpt><trkpt lat="45.57189645003362" lon="10.516535455116333"><ele>196.66666666666669</ele><time>2026-03-28T14:10:15.002Z</time></trkpt><trkpt lat="45.57176712119592" lon="10.5164464785275"><ele>195.33333333333334</ele><time>2026-03-28T14:10:16.002Z</time></trkpt><trkpt lat="45.57164673072743" lon="10.516319163004155"><ele>194.0</ele><time>2026-03-28T14:10:17.002Z</time></trkpt><trkpt lat="45.57152854921438" lon="10.516160292298219"><ele>195.33333333333334</ele><time>2026-03-28T14:10:18.002Z</time></trkpt><trkpt lat="45.57140215238715" lon="10.51599746540544"><ele>196.66666666666669</ele><time>2026-03-28T14:10:19.002Z</time></trkpt><trkpt lat="45.57126790223552" lon="10.515825037037377"><ele>198.0</ele><time>2026-03-28T14:10:20.002Z</time></trkpt><trkpt lat="45.57113157522833" lon="10.51565109994457"><ele>198.0</ele><time>2026-03-28T14:10:21.002Z</time></trkpt><trkpt lat="45.570985622981674" lon="10.515475871332846"><ele>198.0</ele><time>2026-03-28T14:10:22.002Z</time></trkpt><trkpt lat="45.57084608601019" lon="10.515299892713792"><ele>198.0</ele><time>2026-03-28T14:10:23.002Z</time></trkpt><trkpt lat="45.57072561552003" lon="10.515134009703097"><ele>201.33333333333331</ele><time>2026-03-28T14:10:24.002Z</time></trkpt><trkpt lat="45.57062857031209" lon="10.514941086405699"><ele>204.66666666666666</ele><time>2026-03-28T14:10:25.002Z</time></trkpt><trkpt lat="45.57056713139676" lon="10.51474643807435"><ele>208.0</ele><time>2026-03-28T14:10:26.002Z</time></trkpt><trkpt lat="45.57053539119022" lon="10.51452433602706"><ele>209.66666666666666</ele><time>2026-03-28T14:10:27.002Z</time></trkpt><trkpt lat="45.57052471696428" lon="10.514278227208651"><ele>211.33333333333331</ele><time>2026-03-28T14:10:28.002Z</time></trkpt><trkpt lat="45.57053249740666" lon="10.514037638264146"><ele>213.0</ele><time>2026-03-28T14:10:29.002Z</time></trkpt><trkpt lat="45.5705102888334" lon="10.513815838115274"><ele>213.33333333333331</ele><time>2026-03-28T14:10:30.002Z</time></trkpt><trkpt lat="45.57043905793917" lon="10.513617525889101"><ele>213.66666666666666</ele><time>2026-03-28T14:10:31.002Z</time></trkpt><trkpt lat="45.57033329716126" lon="10.51345233225055"><ele>214.0</ele><time>2026-03-28T14:10:32.002Z</time></trkpt><trkpt lat="45.570197962963775" lon="10.513318960397712"><ele>209.66666666666666</ele><time>2026-03-28T14:10:33.002Z</time></trkpt><trkpt lat="45.57004181580188" lon="10.513201866030935"><ele>205.33333333333331</ele><time>2026-03-28T14:10:34.002Z</time></trkpt><trkpt lat="45.5699046525543" lon="10.51308656676265"><ele>201.0</ele><time>2026-03-28T14:10:35.002Z</time></trkpt><trkpt lat="45.569800411960045" lon="10.512938427982302"><ele>203.0</ele><time>2026-03-28T14:10:36.002Z</time></trkpt><trkpt lat="45.569721050670395" lon="10.512768371719671"><ele>205.0</ele><time>2026-03-28T14:10:37.002Z</time></trkpt><trkpt lat="45.56969086069777" lon="10.512593303305712"><ele>207.0</ele><time>2026-03-28T14:10:38.003Z</time></trkpt><trkpt lat="45.56970208303693" lon="10.512391649078424"><ele>209.0</ele><time>2026-03-28T14:10:39.003Z</time></trkpt><trkpt lat="45.569741505086526" lon="10.512198510112055"><ele>209.33333333333334</ele><time>2026-03-28T14:10:40.003Z</time></trkpt><trkpt lat="45.56982772458309" lon="10.512004972253898"><ele>209.66666666666669</ele><time>2026-03-28T14:10:41.003Z</time></trkpt><trkpt lat="45.56992654531054" lon="10.511808333581273"><ele>210.0</ele><time>2026-03-28T14:10:42.003Z</time></trkpt><trkpt lat="45.570027419222356" lon="10.511618612845608"><ele>210.0</ele><time>2026-03-28T14:10:43.003Z</time></trkpt><trkpt lat="45.57011191480628" lon="10.511446333015991"><ele>210.0</ele><time>2026-03-28T14:10:44.003Z</time></trkpt><trkpt lat="45.57017314955078" lon="10.51128957296912"><ele>210.0</ele><time>2026-03-28T14:10:45.003Z</time></trkpt><trkpt lat="45.57022032802899" lon="10.51111678938242"><ele>210.0</ele><time>2026-03-28T14:10:46.003Z</time></trkpt><trkpt lat="45.570255623448034" lon="10.510917445003457"><ele>210.0</ele><time>2026-03-28T14:10:47.003Z</time></trkpt><trkpt lat="45.57029483181208" lon="10.510706629485588"><ele>210.0</ele><time>2026-03-28T14:10:48.003Z</time></trkpt><trkpt lat="45.57034060744545" lon="10.510481660914829"><ele>210.0</ele><time>2026-03-28T14:10:49.003Z</time></trkpt><trkpt lat="45.570388205060915" lon="10.51025424093627"><ele>210.0</ele><time>2026-03-28T14:10:50.003Z</time></trkpt><trkpt lat="45.570432793365796" lon="10.510020383370415"><ele>210.0</ele><time>2026-03-28T14:10:51.003Z</time></trkpt><trkpt lat="45.57047833816358" lon="10.50978774719685"><ele>210.0</ele><time>2026-03-28T14:10:52.003Z</time></trkpt><trkpt lat="45.57051859149237" lon="10.50956507383315"><ele>210.0</ele><time>2026-03-28T14:10:53.003Z</time></trkpt><trkpt lat="45.57055148471473" lon="10.509361835697211"><ele>210.0</ele><time>2026-03-28T14:10:54.003Z</time></trkpt><trkpt lat="45.57057131480881" lon="10.509187339132485"><ele>210.0</ele><time>2026-03-28T14:10:55.003Z</time></trkpt><trkpt lat="45.570567291341774" lon="10.509050244400209"><ele>210.0</ele><time>2026-03-28T14:10:56.003Z</time></trkpt><trkpt lat="45.570518727892214" lon="10.508938099694191"><ele>210.0</ele><time>2026-03-28T14:10:57.003Z</time></trkpt><trkpt lat="45.57043517114881" lon="10.508872365917572"><ele>210.0</ele><time>2026-03-28T14:10:58.003Z</time></trkpt><trkpt lat="45.57032252053814" lon="10.508839220666003"><ele>210.0</ele><time>2026-03-28T14:10:59.003Z</time></trkpt><trkpt lat="45.57021066390932" lon="10.508853240628062"><ele>210.0</ele><time>2026-03-28T14:11:00.003Z</time></trkpt><trkpt lat="45.570091120910526" lon="10.508920197240117"><ele>210.5</ele><time>2026-03-28T14:11:01.003Z</time></trkpt><trkpt lat="45.56997548923966" lon="10.509028453831723"><ele>211.0</ele><time>2026-03-28T14:11:02.003Z</time></trkpt><trkpt lat="45.56984585291815" lon="10.50913792771893"><ele>211.5</ele><time>2026-03-28T14:11:03.003Z</time></trkpt><trkpt lat="45.56969142661065" lon="10.509161720944926"><ele>212.0</ele><time>2026-03-28T14:11:04.003Z</time></trkpt><trkpt lat="45.56953527018475" lon="10.509209397238317"><ele>214.33333333333334</ele><time>2026-03-28T14:11:05.003Z</time></trkpt><trkpt lat="45.56937237937597" lon="10.509259267234732"><ele>216.66666666666669</ele><time>2026-03-28T14:11:06.003Z</time></trkpt><trkpt lat="45.56922038582077" lon="10.50933550085038"><ele>219.0</ele><time>2026-03-28T14:11:07Z</time></trkpt><trkpt lat="45.569093138439314" lon="10.50940239229554"><ele>219.0</ele><time>2026-03-28T14:11:08Z</time></trkpt><trkpt lat="45.568994410357064" lon="10.509494924736458"><ele>218.99999999999997</ele><time>2026-03-28T14:11:09Z</time></trkpt><trkpt lat="45.5689189178832" lon="10.509614362119063"><ele>218.99999999999997</ele><time>2026-03-28T14:11:10Z</time></trkpt><trkpt lat="45.56887135458713" lon="10.509743685100693"><ele>219.0</ele><time>2026-03-28T14:11:11Z</time></trkpt><trkpt lat="45.568833529912894" lon="10.50987805854126"><ele>219.0</ele><time>2026-03-28T14:11:12Z</time></trkpt><trkpt lat="45.5687936758787" lon="10.51001418599157"><ele>218.5</ele><time>2026-03-28T14:11:13Z</time></trkpt><trkpt lat="45.56875661672386" lon="10.510129813893016"><ele>218.0</ele><time>2026-03-28T14:11:14Z</time></trkpt><trkpt lat="45.56871508432385" lon="10.510224979481183"><ele>217.5</ele><time>2026-03-28T14:11:15Z</time></trkpt><trkpt lat="45.56865939325435" lon="10.510285766903133"><ele>217.0</ele><time>2026-03-28T14:11:16Z</time></trkpt><trkpt lat="45.5685821805997" lon="10.510328050081807"><ele>216.5</ele><time>2026-03-28T14:11:17Z</time></trkpt><trkpt lat="45.568485655920526" lon="10.510339874101268"><ele>216.0</ele><time>2026-03-28T14:11:18Z</time></trkpt><trkpt lat="45.56838622377809" lon="10.510270277817503"><ele>216.0</ele><time>2026-03-28T14:11:19Z</time></trkpt><trkpt lat="45.56828437144354" lon="10.510214714470923"><ele>216.0</ele><time>2026-03-28T14:11:20Z</time></trkpt><trkpt lat="45.56817629731714" lon="10.510151105614357"><ele>216.0</ele><time>2026-03-28T14:11:21Z</time></trkpt><trkpt lat="45.56804150449263" lon="10.510139209405194"><ele>216.0</ele><time>2026-03-28T14:11:22Z</time></trkpt><trkpt lat="45.567893386944796" lon="10.510103224250473"><ele>216.0</ele><time>2026-03-28T14:11:23Z</time></trkpt><trkpt lat="45.567728978322315" lon="10.510076553724383"><ele>216.0</ele><time>2026-03-28T14:11:24Z</time></trkpt><trkpt lat="45.56755913632464" lon="10.510041659517777"><ele>216.0</ele><time>2026-03-28T14:11:25Z</time></trkpt><trkpt lat="45.567402800262286" lon="10.509976800787246"><ele>216.0</ele><time>2026-03-28T14:11:26Z</time></trkpt><trkpt lat="45.56725906727941" lon="10.50995471972567"><ele>216.0</ele><time>2026-03-28T14:11:27Z</time></trkpt><trkpt lat="45.567114998438406" lon="10.509945001423974"><ele>216.0</ele><time>2026-03-28T14:11:28Z</time></trkpt><trkpt lat="45.56697594248073" lon="10.50998377112121"><ele>216.0</ele><time>2026-03-28T14:11:29Z</time></trkpt><trkpt lat="45.566845130880836" lon="10.510012974799919"><ele>216.25</ele><time>2026-03-28T14:11:30Z</time></trkpt><trkpt lat="45.56671439006924" lon="10.510051403123093"><ele>216.5</ele><time>2026-03-28T14:11:31Z</time></trkpt><trkpt lat="45.56658237736814" lon="10.510085892054992"><ele>216.75</ele><time>2026-03-28T14:11:32Z</time></trkpt><trkpt lat="45.566440074308936" lon="10.510098550740397"><ele>217.0</ele><time>2026-03-28T14:11:33Z</time></trkpt><trkpt lat="45.566302908905556" lon="10.510083636325394"><ele>216.0</ele><time>2026-03-28T14:11:34Z</time></trkpt><trkpt lat="45.56616373787205" lon="10.510046971022975"><ele>215.0</ele><time>2026-03-28T14:11:35Z</time></trkpt><trkpt lat="45.56602585002753" lon="10.509981097175302"><ele>214.0</ele><time>2026-03-28T14:11:36Z</time></trkpt><trkpt lat="45.56588198440285" lon="10.509936577351272"><ele>213.0</ele><time>2026-03-28T14:11:37Z</time></trkpt><trkpt lat="45.5657387142274" lon="10.50988861182563"><ele>213.0</ele><time>2026-03-28T14:11:38.001Z</time></trkpt><trkpt lat="45.56560021280851" lon="10.509827928844535"><ele>213.0</ele><time>2026-03-28T14:11:39.001Z</time></trkpt><trkpt lat="45.56546298843175" lon="10.50978291534649"><ele>213.0</ele><time>2026-03-28T14:11:40.001Z</time></trkpt><trkpt lat="45.56533593952128" lon="10.50969745759526"><ele>213.0</ele><time>2026-03-28T14:11:41.001Z</time></trkpt><trkpt lat="45.565216525093874" lon="10.509615632791768"><ele>214.60000000000002</ele><time>2026-03-28T14:11:42.001Z</time></trkpt><trkpt lat="45.56510685628125" lon="10.509535122714768"><ele>216.20000000000002</ele><time>2026-03-28T14:11:43.001Z</time></trkpt><trkpt lat="45.565015286074214" lon="10.509461269456688"><ele>217.8</ele><time>2026-03-28T14:11:44.001Z</time></trkpt><trkpt lat="45.56493302573707" lon="10.509393063478113"><ele>219.4</ele><time>2026-03-28T14:11:45.001Z</time></trkpt><trkpt lat="45.56485457194436" lon="10.509325680412315"><ele>221.0</ele><time>2026-03-28T14:11:46.001Z</time></trkpt><trkpt lat="45.564795376154336" lon="10.509248014664653"><ele>221.00000000000003</ele><time>2026-03-28T14:11:47.001Z</time></trkpt><trkpt lat="45.564769656677925" lon="10.50915983549391"><ele>221.0</ele><time>2026-03-28T14:11:48.001Z</time></trkpt><trkpt lat="45.56477985292544" lon="10.509068965479539"><ele>221.0</ele><time>2026-03-28T14:11:49.001Z</time></trkpt><trkpt lat="45.564827669902755" lon="10.508991727512367"><ele>221.0</ele><time>2026-03-28T14:11:50.001Z</time></trkpt><trkpt lat="45.56489661731459" lon="10.508952302232133"><ele>221.0</ele><time>2026-03-28T14:11:51.001Z</time></trkpt><trkpt lat="45.56497002642102" lon="10.508966114036676"><ele>221.00000000000003</ele><time>2026-03-28T14:11:52.001Z</time></trkpt><trkpt lat="45.56505246778675" lon="10.509036883624574"><ele>221.0</ele><time>2026-03-28T14:11:53.001Z</time></trkpt><trkpt lat="45.56515025715683" lon="10.509125557415308"><ele>221.0</ele><time>2026-03-28T14:11:54.001Z</time></trkpt><trkpt lat="45.56526221012288" lon="10.509229538881353"><ele>221.0</ele><time>2026-03-28T14:11:55.001Z</time></trkpt><trkpt lat="45.56536584211815" lon="10.509322823341261"><ele>221.0</ele><time>2026-03-28T14:11:56.001Z</time></trkpt><trkpt lat="45.565462147115774" lon="10.509398525894332"><ele>221.0</ele><time>2026-03-28T14:11:57.001Z</time></trkpt><trkpt lat="45.5655455462816" lon="10.509468217550822"><ele>219.4</ele><time>2026-03-28T14:11:58.001Z</time></trkpt><trkpt lat="45.565618829280695" lon="10.509526372975767"><ele>217.8</ele><time>2026-03-28T14:11:59.001Z</time></trkpt><trkpt lat="45.565682309919666" lon="10.509576921477906"><ele>216.20000000000002</ele><time>2026-03-28T14:12:00.001Z</time></trkpt><trkpt lat="45.56581838785152" lon="10.509559867505457"><ele>214.60000000000002</ele><time>2026-03-28T14:12:02.001Z</time></trkpt><trkpt lat="45.56587390199654" lon="10.509432983433701"><ele>213.0</ele><time>2026-03-28T14:12:03.001Z</time></trkpt><trkpt lat="45.5658773446439" lon="10.50930744292116"><ele>216.60000000000002</ele><time>2026-03-28T14:12:04.001Z</time></trkpt><trkpt lat="45.56583083186567" lon="10.509193822951001"><ele>220.20000000000002</ele><time>2026-03-28T14:12:05.001Z</time></trkpt><trkpt lat="45.565729952902885" lon="10.509136948407418"><ele>223.8</ele><time>2026-03-28T14:12:06.001Z</time></trkpt><trkpt lat="45.56564014977083" lon="10.509048046080704"><ele>227.4</ele><time>2026-03-28T14:12:07.001Z</time></trkpt><trkpt lat="45.565546711593974" lon="10.50896148059328"><ele>231.0</ele><time>2026-03-28T14:12:08.001Z</time></trkpt><trkpt lat="45.56545871390108" lon="10.508860784191809"><ele>231.0</ele><time>2026-03-28T14:12:09.001Z</time></trkpt><trkpt lat="45.56537999593107" lon="10.508747716981182"><ele>231.0</ele><time>2026-03-28T14:12:10.002Z</time></trkpt><trkpt lat="45.565317257882036" lon="10.508610655810783"><ele>231.0</ele><time>2026-03-28T14:12:11.002Z</time></trkpt><trkpt lat="45.56526293920799" lon="10.508446434920995"><ele>231.0</ele><time>2026-03-28T14:12:12.002Z</time></trkpt><trkpt lat="45.56521604846506" lon="10.508257053308776"><ele>232.0</ele><time>2026-03-28T14:12:13.002Z</time></trkpt><trkpt lat="45.56516133023393" lon="10.50803359745097"><ele>233.0</ele><time>2026-03-28T14:12:14.002Z</time></trkpt><trkpt lat="45.56510200079037" lon="10.507795788629007"><ele>234.0</ele><time>2026-03-28T14:12:15.002Z</time></trkpt><trkpt lat="45.56502764708204" lon="10.50756252007389"><ele>234.0</ele><time>2026-03-28T14:12:16.002Z</time></trkpt><trkpt lat="45.56496715305313" lon="10.507314111685707"><ele>234.0</ele><time>2026-03-28T14:12:17.002Z</time></trkpt><trkpt lat="45.56490822678401" lon="10.507060774776685"><ele>234.0</ele><time>2026-03-28T14:12:18.002Z</time></trkpt><trkpt lat="45.56484331072503" lon="10.506800467983101"><ele>234.0</ele><time>2026-03-28T14:12:19.002Z</time></trkpt><trkpt lat="45.56478483274558" lon="10.506554172469297"><ele>234.0</ele><time>2026-03-28T14:12:20.002Z</time></trkpt><trkpt lat="45.56473307676737" lon="10.506338591798286"><ele>234.0</ele><time>2026-03-28T14:12:21.002Z</time></trkpt><trkpt lat="45.56468378294422" lon="10.5061391834534"><ele>234.0</ele><time>2026-03-28T14:12:22.002Z</time></trkpt><trkpt lat="45.564651351714154" lon="10.505943653197406"><ele>234.0</ele><time>2026-03-28T14:12:23.002Z</time></trkpt><trkpt lat="45.56457676734031" lon="10.505781366063836"><ele>234.0</ele><time>2026-03-28T14:12:24.002Z</time></trkpt><trkpt lat="45.56450857363055" lon="10.505626666925659"><ele>234.0</ele><time>2026-03-28T14:12:25.002Z</time></trkpt><trkpt lat="45.56441559923728" lon="10.5054742070092"><ele>234.0</ele><time>2026-03-28T14:12:26.002Z</time></trkpt><trkpt lat="45.56430883080969" lon="10.505339408960216"><ele>234.0</ele><time>2026-03-28T14:12:27.002Z</time></trkpt><trkpt lat="45.564179266634916" lon="10.505219355581206"><ele>234.0</ele><time>2026-03-28T14:12:28.002Z</time></trkpt><trkpt lat="45.56404353466992" lon="10.505085631413474"><ele>234.0</ele><time>2026-03-28T14:12:29.002Z</time></trkpt><trkpt lat="45.56390604359222" lon="10.504946835162148"><ele>234.0</ele><time>2026-03-28T14:12:30.002Z</time></trkpt><trkpt lat="45.563788861875715" lon="10.504764090519668"><ele>234.0</ele><time>2026-03-28T14:12:31.002Z</time></trkpt><trkpt lat="45.56365802526475" lon="10.504584124773515"><ele>235.66666666666669</ele><time>2026-03-28T14:12:32.002Z</time></trkpt><trkpt lat="45.563532470218746" lon="10.50440744798344"><ele>237.33333333333334</ele><time>2026-03-28T14:12:33.002Z</time></trkpt><trkpt lat="45.56340513838251" lon="10.504228475305426"><ele>239.0</ele><time>2026-03-28T14:12:34.002Z</time></trkpt><trkpt lat="45.56327575515966" lon="10.504056036359485"><ele>239.0</ele><time>2026-03-28T14:12:35.002Z</time></trkpt><trkpt lat="45.563143654146515" lon="10.50391116603956"><ele>239.0</ele><time>2026-03-28T14:12:36.002Z</time></trkpt><trkpt lat="45.563020549050925" lon="10.503755259025095"><ele>239.0</ele><time>2026-03-28T14:12:37.002Z</time></trkpt><trkpt lat="45.56288987578768" lon="10.503612543394041"><ele>239.33333333333334</ele><time>2026-03-28T14:12:38.002Z</time></trkpt><trkpt lat="45.562748361909456" lon="10.503479076024213"><ele>239.66666666666669</ele><time>2026-03-28T14:12:39.002Z</time></trkpt><trkpt lat="45.562625452728334" lon="10.503323372660365"><ele>240.0</ele><time>2026-03-28T14:12:40.002Z</time></trkpt><trkpt lat="45.56249221470188" lon="10.503184001071745"><ele>240.0</ele><time>2026-03-28T14:12:41.002Z</time></trkpt><trkpt lat="45.56235213468788" lon="10.503038717886106"><ele>240.0</ele><time>2026-03-28T14:12:42.002Z</time></trkpt><trkpt lat="45.562199876385804" lon="10.502924732767557"><ele>240.0</ele><time>2026-03-28T14:12:43.003Z</time></trkpt><trkpt lat="45.56206574597261" lon="10.502821782086988"><ele>239.75</ele><time>2026-03-28T14:12:44.003Z</time></trkpt><trkpt lat="45.561936617549705" lon="10.502739294920175"><ele>239.5</ele><time>2026-03-28T14:12:45.003Z</time></trkpt><trkpt lat="45.56180853833559" lon="10.50266049370697"><ele>239.25</ele><time>2026-03-28T14:12:46.003Z</time></trkpt><trkpt lat="45.561668986246886" lon="10.502585722880207"><ele>239.0</ele><time>2026-03-28T14:12:47.003Z</time></trkpt><trkpt lat="45.561517699408455" lon="10.502520691350373"><ele>239.0</ele><time>2026-03-28T14:12:48.003Z</time></trkpt><trkpt lat="45.56137187551775" lon="10.502497786368249"><ele>239.0</ele><time>2026-03-28T14:12:49.003Z</time></trkpt><trkpt lat="45.56123622386711" lon="10.502536157671058"><ele>239.0</ele><time>2026-03-28T14:12:50.003Z</time></trkpt><trkpt lat="45.561094558865946" lon="10.502635988339389"><ele>239.0</ele><time>2026-03-28T14:12:51.003Z</time></trkpt><trkpt lat="45.56096088850003" lon="10.50278939165741"><ele>237.33333333333334</ele><time>2026-03-28T14:12:52.003Z</time></trkpt><trkpt lat="45.560843431260295" lon="10.502959270034795"><ele>235.66666666666669</ele><time>2026-03-28T14:12:53.003Z</time></trkpt><trkpt lat="45.560731292395566" lon="10.503137860124111"><ele>234.0</ele><time>2026-03-28T14:12:54.003Z</time></trkpt><trkpt lat="45.560616466290575" lon="10.503261577410553"><ele>234.0</ele><time>2026-03-28T14:12:55.003Z</time></trkpt><trkpt lat="45.56048747962054" lon="10.503340549245552"><ele>234.0</ele><time>2026-03-28T14:12:56.003Z</time></trkpt><trkpt lat="45.560347667923516" lon="10.503373040645826"><ele>234.0</ele><time>2026-03-28T14:12:57.003Z</time></trkpt><trkpt lat="45.56019620808203" lon="10.503343210497915"><ele>234.0</ele><time>2026-03-28T14:12:58.003Z</time></trkpt><trkpt lat="45.56002430503128" lon="10.503304767143723"><ele>234.0</ele><time>2026-03-28T14:12:59.003Z</time></trkpt><trkpt lat="45.55983919670703" lon="10.503262669780185"><ele>234.0</ele><time>2026-03-28T14:13:00.003Z</time></trkpt><trkpt lat="45.55967919446392" lon="10.503204915991917"><ele>234.0</ele><time>2026-03-28T14:13:01.003Z</time></trkpt><trkpt lat="45.55954405844702" lon="10.50310470969151"><ele>233.66666666666669</ele><time>2026-03-28T14:13:02.003Z</time></trkpt><trkpt lat="45.55942372708769" lon="10.502962565658956"><ele>233.33333333333334</ele><time>2026-03-28T14:13:03.003Z</time></trkpt><trkpt lat="45.55930633862548" lon="10.502777391317371"><ele>233.0</ele><time>2026-03-28T14:13:04.003Z</time></trkpt><trkpt lat="45.55918807215539" lon="10.50257702867752"><ele>233.0</ele><time>2026-03-28T14:13:05.003Z</time></trkpt><trkpt lat="45.55906759744928" lon="10.502373078020137"><ele>233.0</ele><time>2026-03-28T14:13:06.003Z</time></trkpt><trkpt lat="45.558939933493846" lon="10.502156901109158"><ele>233.0</ele><time>2026-03-28T14:13:07.003Z</time></trkpt><trkpt lat="45.55880042656646" lon="10.501953655075809"><ele>232.75</ele><time>2026-03-28T14:13:08.003Z</time></trkpt><trkpt lat="45.558696540575035" lon="10.501756715600065"><ele>232.5</ele><time>2026-03-28T14:13:09.003Z</time></trkpt><trkpt lat="45.558590742390756" lon="10.501634146784626"><ele>232.25</ele><time>2026-03-28T14:13:10.003Z</time></trkpt><trkpt lat="45.558526863782575" lon="10.501545945590657"><ele>232.0</ele><time>2026-03-28T14:13:11.003Z</time></trkpt><trkpt lat="45.5584869991205" lon="10.501429577954363"><ele>232.0</ele><time>2026-03-28T14:13:13Z</time></trkpt><trkpt lat="45.55859073621476" lon="10.501338366011636"><ele>232.0</ele><time>2026-03-28T14:13:15Z</time></trkpt><trkpt lat="45.55865319527352" lon="10.50124794728355"><ele>232.0</ele><time>2026-03-28T14:13:16Z</time></trkpt><trkpt lat="45.55872572968122" lon="10.501155669440843"><ele>232.0</ele><time>2026-03-28T14:13:17Z</time></trkpt><trkpt lat="45.558784855488746" lon="10.501064262285965"><ele>232.0</ele><time>2026-03-28T14:13:19Z</time></trkpt><trkpt lat="45.55886884571426" lon="10.500911585561202"><ele>233.2</ele><time>2026-03-28T14:13:39Z</time></trkpt><trkpt lat="45.55892587450131" lon="10.500837190119087"><ele>234.39999999999998</ele><time>2026-03-28T14:13:40Z</time></trkpt><trkpt lat="45.55898510476431" lon="10.500732571455451"><ele>235.60000000000002</ele><time>2026-03-28T14:13:41Z</time></trkpt><trkpt lat="45.55906725226536" lon="10.500626453342154"><ele>236.8</ele><time>2026-03-28T14:13:42Z</time></trkpt><trkpt lat="45.55914028336895" lon="10.500510480719107"><ele>238.0</ele><time>2026-03-28T14:13:43Z</time></trkpt><trkpt lat="45.55921287319725" lon="10.500355654978087"><ele>238.0</ele><time>2026-03-28T14:13:44Z</time></trkpt><trkpt lat="45.55929101751577" lon="10.500211389090042"><ele>238.0</ele><time>2026-03-28T14:13:45Z</time></trkpt><trkpt lat="45.55934529739945" lon="10.500081035796297"><ele>238.0</ele><time>2026-03-28T14:13:46Z</time></trkpt><trkpt lat="45.55938160072326" lon="10.499946075342018"><ele>238.0</ele><time>2026-03-28T14:13:47.001Z</time></trkpt><trkpt lat="45.559397790655986" lon="10.499801076479443"><ele>238.0</ele><time>2026-03-28T14:13:48.001Z</time></trkpt><trkpt lat="45.559424038463185" lon="10.499673749191619"><ele>238.4</ele><time>2026-03-28T14:13:49.001Z</time></trkpt><trkpt lat="45.55944258630694" lon="10.499540204488838"><ele>238.8</ele><time>2026-03-28T14:13:50.001Z</time></trkpt><trkpt lat="45.55944679397216" lon="10.499443984679171"><ele>239.2</ele><time>2026-03-28T14:13:51.001Z</time></trkpt><trkpt lat="45.559387921147476" lon="10.499239269803669"><ele>239.6</ele><time>2026-03-28T14:13:53.001Z</time></trkpt><trkpt lat="45.55930613983918" lon="10.499135195454048"><ele>240.0</ele><time>2026-03-28T14:13:54.001Z</time></trkpt><trkpt lat="45.55922107781735" lon="10.498956674387253"><ele>240.0</ele><time>2026-03-28T14:13:55.001Z</time></trkpt><trkpt lat="45.5591375010389" lon="10.498801026933487"><ele>240.0</ele><time>2026-03-28T14:13:56.001Z</time></trkpt><trkpt lat="45.55906760116617" lon="10.498640527363376"><ele>240.0</ele><time>2026-03-28T14:13:57.001Z</time></trkpt><trkpt lat="45.558998818498964" lon="10.498474207124877"><ele>240.0</ele><time>2026-03-28T14:13:58.001Z</time></trkpt><trkpt lat="45.55893222219785" lon="10.498313173676728"><ele>240.5</ele><time>2026-03-28T14:13:59.001Z</time></trkpt><trkpt lat="45.55886710506933" lon="10.498155716904396"><ele>241.0</ele><time>2026-03-28T14:14:00.001Z</time></trkpt><trkpt lat="45.558702796484155" lon="10.498114807230744"><ele>241.5</ele><time>2026-03-28T14:14:01.001Z</time></trkpt><trkpt lat="45.5586634894638" lon="10.49795921580012"><ele>242.0</ele><time>2026-03-28T14:14:02.001Z</time></trkpt><trkpt lat="45.55865153957611" lon="10.497815968852024"><ele>243.0</ele><time>2026-03-28T14:14:03.001Z</time></trkpt><trkpt lat="45.558652243556786" lon="10.497656139737352"><ele>244.0</ele><time>2026-03-28T14:14:04.001Z</time></trkpt><trkpt lat="45.55867579101927" lon="10.497476561640607"><ele>245.0</ele><time>2026-03-28T14:14:05.001Z</time></trkpt><trkpt lat="45.55867873487022" lon="10.497314763572211"><ele>246.0</ele><time>2026-03-28T14:14:06.001Z</time></trkpt><trkpt lat="45.55865792284179" lon="10.497125813117043"><ele>247.4</ele><time>2026-03-28T14:14:07.001Z</time></trkpt><trkpt lat="45.55861030219319" lon="10.496930412284105"><ele>248.8</ele><time>2026-03-28T14:14:08.001Z</time></trkpt><trkpt lat="45.558581847823774" lon="10.496754688935015"><ele>250.20000000000002</ele><time>2026-03-28T14:14:09.001Z</time></trkpt><trkpt lat="45.558558288321414" lon="10.496621657942338"><ele>251.60000000000002</ele><time>2026-03-28T14:14:10.001Z</time></trkpt><trkpt lat="45.558528948774175" lon="10.496520429506633"><ele>253.0</ele><time>2026-03-28T14:14:11.001Z</time></trkpt><trkpt lat="45.55847317002217" lon="10.496411456694336"><ele>253.0</ele><time>2026-03-28T14:14:12.001Z</time></trkpt><trkpt lat="45.55838510624341" lon="10.496293611244857"><ele>253.0</ele><time>2026-03-28T14:14:13.001Z</time></trkpt><trkpt lat="45.55827862978825" lon="10.496176386838474"><ele>253.0</ele><time>2026-03-28T14:14:14.001Z</time></trkpt><trkpt lat="45.55817327846304" lon="10.496085245066267"><ele>253.0</ele><time>2026-03-28T14:14:15.001Z</time></trkpt><trkpt lat="45.55808068134234" lon="10.496022397982946"><ele>254.2</ele><time>2026-03-28T14:14:16.001Z</time></trkpt><trkpt lat="45.55801281008208" lon="10.495970042159678"><ele>255.4</ele><time>2026-03-28T14:14:17.001Z</time></trkpt><trkpt lat="45.5579564040034" lon="10.495902067350771"><ele>256.59999999999997</ele><time>2026-03-28T14:14:18.001Z</time></trkpt><trkpt lat="45.557874020507384" lon="10.495727737388671"><ele>257.8</ele><time>2026-03-28T14:14:20.002Z</time></trkpt><trkpt lat="45.55784034721651" lon="10.495591692714969"><ele>259.0</ele><time>2026-03-28T14:14:21.002Z</time></trkpt><trkpt lat="45.55781631839745" lon="10.49546839650741"><ele>259.5</ele><time>2026-03-28T14:14:22.002Z</time></trkpt><trkpt lat="45.5577662680444" lon="10.49531968502257"><ele>260.0</ele><time>2026-03-28T14:14:23.002Z</time></trkpt><trkpt lat="45.5576864314234" lon="10.495190858852578"><ele>260.5</ele><time>2026-03-28T14:14:24.002Z</time></trkpt><trkpt lat="45.55759756872277" lon="10.495048307438465"><ele>261.0</ele><time>2026-03-28T14:14:25.002Z</time></trkpt><trkpt lat="45.557517807832944" lon="10.494873960152256"><ele>261.0</ele><time>2026-03-28T14:14:26.002Z</time></trkpt><trkpt lat="45.55743251367909" lon="10.49469743512561"><ele>261.0</ele><time>2026-03-28T14:14:27.002Z</time></trkpt><trkpt lat="45.55736856686245" lon="10.494551592619716"><ele>261.0</ele><time>2026-03-28T14:14:28.002Z</time></trkpt><trkpt lat="45.5573094991223" lon="10.494400237914427"><ele>261.0</ele><time>2026-03-28T14:14:29.002Z</time></trkpt><trkpt lat="45.55726116956591" lon="10.49424109708921"><ele>260.75</ele><time>2026-03-28T14:14:30.002Z</time></trkpt><trkpt lat="45.55722376472125" lon="10.494072596380477"><ele>260.5</ele><time>2026-03-28T14:14:31.002Z</time></trkpt><trkpt lat="45.55717526854955" lon="10.493869624436416"><ele>260.25</ele><time>2026-03-28T14:14:32.002Z</time></trkpt><trkpt lat="45.557112151960595" lon="10.493704509101278"><ele>260.0</ele><time>2026-03-28T14:14:33.002Z</time></trkpt><trkpt lat="45.557029494930454" lon="10.493542529441957"><ele>260.0</ele><time>2026-03-28T14:14:34.002Z</time></trkpt><trkpt lat="45.556983456180085" lon="10.493418374923237"><ele>260.0</ele><time>2026-03-28T14:14:35.002Z</time></trkpt><trkpt lat="45.556979193663636" lon="10.493322181020737"><ele>260.0</ele><time>2026-03-28T14:14:36.002Z</time></trkpt><trkpt lat="45.55699415006635" lon="10.493229309254538"><ele>260.0</ele><time>2026-03-28T14:14:37.002Z</time></trkpt><trkpt lat="45.55701478358269" lon="10.493100660007139"><ele>260.0</ele><time>2026-03-28T14:14:39.002Z</time></trkpt><trkpt lat="45.55709326672725" lon="10.493138405502764"><ele>260.0</ele><time>2026-03-28T14:14:42.002Z</time></trkpt><trkpt lat="45.557132982653954" lon="10.493208831102642"><ele>260.0</ele><time>2026-03-28T14:14:54.003Z</time></trkpt><trkpt lat="45.55707493983161" lon="10.493121841677302"><ele>260.0</ele><time>2026-03-28T14:15:01.003Z</time></trkpt><trkpt lat="45.557002394169125" lon="10.493069904936402"><ele>260.0</ele><time>2026-03-28T14:15:02.003Z</time></trkpt><trkpt lat="45.55692350566608" lon="10.492973379450364"><ele>260.0</ele><time>2026-03-28T14:15:03.003Z</time></trkpt><trkpt lat="45.55684351977205" lon="10.49284510408639"><ele>260.0</ele><time>2026-03-28T14:15:04.003Z</time></trkpt><trkpt lat="45.556794619854514" lon="10.492746212526106"><ele>261.0</ele><time>2026-03-28T14:15:05.003Z</time></trkpt><trkpt lat="45.556843650657754" lon="10.492656276781535"><ele>262.0</ele><time>2026-03-28T14:15:08.003Z</time></trkpt><trkpt lat="45.556975514023115" lon="10.492751635521886"><ele>263.0</ele><time>2026-03-28T14:15:10.003Z</time></trkpt><trkpt lat="45.55710281810826" lon="10.492825185523058"><ele>264.0</ele><time>2026-03-28T14:15:11.003Z</time></trkpt><trkpt lat="45.55724447094884" lon="10.49287497280906"><ele>265.75</ele><time>2026-03-28T14:15:12.003Z</time></trkpt><trkpt lat="45.557363093127286" lon="10.492910147848168"><ele>267.5</ele><time>2026-03-28T14:15:13.003Z</time></trkpt><trkpt lat="45.55743544629688" lon="10.492951883801458"><ele>269.25</ele><time>2026-03-28T14:15:14.003Z</time></trkpt><trkpt lat="45.55743820688356" lon="10.493157540408289"><ele>271.0</ele><time>2026-03-28T14:15:16.003Z</time></trkpt><trkpt lat="45.55746980593742" lon="10.493319675540043"><ele>271.0</ele><time>2026-03-28T14:15:17.003Z</time></trkpt><trkpt lat="45.557506992839706" lon="10.493522532853"><ele>271.0</ele><time>2026-03-28T14:15:18.003Z</time></trkpt><trkpt lat="45.557551625490255" lon="10.493742744740848"><ele>271.0</ele><time>2026-03-28T14:15:19Z</time></trkpt><trkpt lat="45.557590813765536" lon="10.493938398244405"><ele>270.25</ele><time>2026-03-28T14:15:20Z</time></trkpt><trkpt lat="45.55762357959572" lon="10.49409291074954"><ele>269.5</ele><time>2026-03-28T14:15:21Z</time></trkpt><trkpt lat="45.55767697575129" lon="10.494228152693738"><ele>268.75</ele><time>2026-03-28T14:15:22Z</time></trkpt><trkpt lat="45.55775344964957" lon="10.494370354784243"><ele>268.0</ele><time>2026-03-28T14:15:23Z</time></trkpt><trkpt lat="45.55784908746295" lon="10.49449743852935"><ele>269.6</ele><time>2026-03-28T14:15:24Z</time></trkpt><trkpt lat="45.55791077831746" lon="10.494614903955714"><ele>271.20000000000005</ele><time>2026-03-28T14:15:25Z</time></trkpt><trkpt lat="45.55798153875642" lon="10.494671343275348"><ele>272.8</ele><time>2026-03-28T14:15:26Z</time></trkpt><trkpt lat="45.55807767251817" lon="10.494733297783508"><ele>274.40000000000003</ele><time>2026-03-28T14:15:28Z</time></trkpt><trkpt lat="45.558217346451386" lon="10.494717607430287"><ele>276.0</ele><time>2026-03-28T14:15:30Z</time></trkpt><trkpt lat="45.5583210694643" lon="10.494696062131698"><ele>276.0</ele><time>2026-03-28T14:15:31Z</time></trkpt><trkpt lat="45.558441980160474" lon="10.49467909072695"><ele>276.0</ele><time>2026-03-28T14:15:32Z</time></trkpt><trkpt lat="45.558567815833136" lon="10.4946614280368"><ele>276.0</ele><time>2026-03-28T14:15:33Z</time></trkpt><trkpt lat="45.55869697543884" lon="10.494645619937607"><ele>276.0</ele><time>2026-03-28T14:15:34Z</time></trkpt><trkpt lat="45.558834170543875" lon="10.494611552599338"><ele>277.8</ele><time>2026-03-28T14:15:35Z</time></trkpt><trkpt lat="45.558965628069394" lon="10.494620399547486"><ele>279.6</ele><time>2026-03-28T14:15:36Z</time></trkpt><trkpt lat="45.55907777056507" lon="10.494617522706497"><ele>281.4</ele><time>2026-03-28T14:15:37Z</time></trkpt><trkpt lat="45.559174766823865" lon="10.494614087277467"><ele>283.2</ele><time>2026-03-28T14:15:38Z</time></trkpt><trkpt lat="45.55928031157027" lon="10.494598624395213"><ele>285.0</ele><time>2026-03-28T14:15:39Z</time></trkpt><trkpt lat="45.5594016192372" lon="10.494545353162142"><ele>284.25</ele><time>2026-03-28T14:15:40Z</time></trkpt><trkpt lat="45.559518363479015" lon="10.494462247519593"><ele>283.5</ele><time>2026-03-28T14:15:41Z</time></trkpt><trkpt lat="45.55965185468507" lon="10.49443330430497"><ele>282.75</ele><time>2026-03-28T14:15:42Z</time></trkpt><trkpt lat="45.55975796309216" lon="10.49441933662151"><ele>282.0</ele><time>2026-03-28T14:15:43Z</time></trkpt><trkpt lat="45.559839184708395" lon="10.494430320486098"><ele>282.0</ele><time>2026-03-28T14:15:44Z</time></trkpt><trkpt lat="45.55990532662053" lon="10.494435307382144"><ele>282.0</ele><time>2026-03-28T14:15:45Z</time></trkpt><trkpt lat="45.55997533756944" lon="10.494448582301514"><ele>282.0</ele><time>2026-03-28T14:15:47Z</time></trkpt><trkpt lat="45.56003648491212" lon="10.494026831892597"><ele>282.0</ele><time>2026-03-28T14:15:49.001Z</time></trkpt><trkpt lat="45.560028100901526" lon="10.493836980224716"><ele>281.75</ele><time>2026-03-28T14:15:50.001Z</time></trkpt><trkpt lat="45.56003421347279" lon="10.493638166376206"><ele>281.5</ele><time>2026-03-28T14:15:51.001Z</time></trkpt><trkpt lat="45.56007072730804" lon="10.493454282080274"><ele>281.25</ele><time>2026-03-28T14:15:52.001Z</time></trkpt><trkpt lat="45.56012676211177" lon="10.493301507778469"><ele>281.0</ele><time>2026-03-28T14:15:53.001Z</time></trkpt><trkpt lat="45.560216487100625" lon="10.493164180677892"><ele>281.0</ele><time>2026-03-28T14:15:54.001Z</time></trkpt><trkpt lat="45.56031094773147" lon="10.493009097169312"><ele>281.0</ele><time>2026-03-28T14:15:55.001Z</time></trkpt><trkpt lat="45.560388418021226" lon="10.492847319067936"><ele>281.0</ele><time>2026-03-28T14:15:56.001Z</time></trkpt><trkpt lat="45.560469048110676" lon="10.492681989854939"><ele>281.0</ele><time>2026-03-28T14:15:57.001Z</time></trkpt><trkpt lat="45.560572512624965" lon="10.492502774302634"><ele>280.0</ele><time>2026-03-28T14:15:58.001Z</time></trkpt><trkpt lat="45.56067525899155" lon="10.492358863514179"><ele>279.0</ele><time>2026-03-28T14:15:59.001Z</time></trkpt><trkpt lat="45.560774903748374" lon="10.492248728728034"><ele>278.0</ele><time>2026-03-28T14:16:00.001Z</time></trkpt><trkpt lat="45.560864107997304" lon="10.492150546245686"><ele>277.0</ele><time>2026-03-28T14:16:01.001Z</time></trkpt><trkpt lat="45.56095193368313" lon="10.492040701847388"><ele>277.0</ele><time>2026-03-28T14:16:02.001Z</time></trkpt><trkpt lat="45.56100498927225" lon="10.491943433022374"><ele>277.0</ele><time>2026-03-28T14:16:03.001Z</time></trkpt><trkpt lat="45.56105379551455" lon="10.49180861382037"><ele>277.0</ele><time>2026-03-28T14:16:04.001Z</time></trkpt><trkpt lat="45.56112845411178" lon="10.491694099589953"><ele>277.0</ele><time>2026-03-28T14:16:05.001Z</time></trkpt><trkpt lat="45.561231230997265" lon="10.491625791798915"><ele>277.0</ele><time>2026-03-28T14:16:06.001Z</time></trkpt><trkpt lat="45.561378846881254" lon="10.491552424499103"><ele>279.66666666666663</ele><time>2026-03-28T14:16:07.001Z</time></trkpt><trkpt lat="45.56155555325651" lon="10.491496017026453"><ele>282.3333333333333</ele><time>2026-03-28T14:16:08.001Z</time></trkpt><trkpt lat="45.56174728069071" lon="10.491459120850276"><ele>285.0</ele><time>2026-03-28T14:16:09.001Z</time></trkpt><trkpt lat="45.56195341116577" lon="10.491424045976567"><ele>286.6666666666667</ele><time>2026-03-28T14:16:10.001Z</time></trkpt><trkpt lat="45.56216103974056" lon="10.491362868483128"><ele>288.33333333333337</ele><time>2026-03-28T14:16:11.001Z</time></trkpt><trkpt lat="45.56235575462163" lon="10.491292280450033"><ele>290.0</ele><time>2026-03-28T14:16:12.001Z</time></trkpt><trkpt lat="45.56251702431724" lon="10.49122900755518"><ele>290.0</ele><time>2026-03-28T14:16:13.001Z</time></trkpt><trkpt lat="45.56264196931171" lon="10.49116595746749"><ele>290.0</ele><time>2026-03-28T14:16:14.001Z</time></trkpt><trkpt lat="45.56274046568283" lon="10.49113851914308"><ele>290.0</ele><time>2026-03-28T14:16:15.001Z</time></trkpt><trkpt lat="45.5628442810028" lon="10.491121649590104"><ele>290.0</ele><time>2026-03-28T14:16:16.001Z</time></trkpt><trkpt lat="45.56295759838129" lon="10.49105791854697"><ele>290.5</ele><time>2026-03-28T14:16:17.001Z</time></trkpt><trkpt lat="45.56308535150844" lon="10.490970482544874"><ele>291.0</ele><time>2026-03-28T14:16:18.001Z</time></trkpt><trkpt lat="45.56323534997969" lon="10.490893917996011"><ele>291.5</ele><time>2026-03-28T14:16:19.001Z</time></trkpt><trkpt lat="45.563331858781694" lon="10.490828181863135"><ele>292.0</ele><time>2026-03-28T14:16:20.001Z</time></trkpt><trkpt lat="45.56339562257146" lon="10.49076991584077"><ele>292.0</ele><time>2026-03-28T14:16:21.002Z</time></trkpt><trkpt lat="45.5634629934708" lon="10.490755195000968"><ele>292.0</ele><time>2026-03-28T14:16:22.002Z</time></trkpt><trkpt lat="45.5635596865437" lon="10.490787177661511"><ele>292.0</ele><time>2026-03-28T14:16:23.002Z</time></trkpt><trkpt lat="45.563685235634935" lon="10.490803221851056"><ele>292.0</ele><time>2026-03-28T14:16:24.002Z</time></trkpt><trkpt lat="45.563804905005995" lon="10.490812144576156"><ele>292.0</ele><time>2026-03-28T14:16:25.002Z</time></trkpt><trkpt lat="45.56390663543735" lon="10.49083109245017"><ele>292.6</ele><time>2026-03-28T14:16:26.002Z</time></trkpt><trkpt lat="45.56399436119074" lon="10.490847376809452"><ele>293.2</ele><time>2026-03-28T14:16:27.002Z</time></trkpt><trkpt lat="45.56405659450082" lon="10.490868724300217"><ele>293.8</ele><time>2026-03-28T14:16:28.002Z</time></trkpt><trkpt lat="45.564153435623" lon="10.490884493489197"><ele>294.4</ele><time>2026-03-28T14:16:30.002Z</time></trkpt><trkpt lat="45.564212516831645" lon="10.490732333768028"><ele>295.0</ele><time>2026-03-28T14:16:32.002Z</time></trkpt><trkpt lat="45.56426058432753" lon="10.490556145325364"><ele>294.0</ele><time>2026-03-28T14:16:33.002Z</time></trkpt><trkpt lat="45.56435853953556" lon="10.490404855446284"><ele>293.0</ele><time>2026-03-28T14:16:34.002Z</time></trkpt><trkpt lat="45.5644297919875" lon="10.490238748645883"><ele>292.0</ele><time>2026-03-28T14:16:35.002Z</time></trkpt><trkpt lat="45.564497779639254" lon="10.490065403959713"><ele>291.0</ele><time>2026-03-28T14:16:36.002Z</time></trkpt><trkpt lat="45.56457792750632" lon="10.489903239482052"><ele>291.0</ele><time>2026-03-28T14:16:37.002Z</time></trkpt><trkpt lat="45.56467973994891" lon="10.489768817339044"><ele>291.0</ele><time>2026-03-28T14:16:38.002Z</time></trkpt><trkpt lat="45.564792328301735" lon="10.48964096482646"><ele>291.0</ele><time>2026-03-28T14:16:39.002Z</time></trkpt><trkpt lat="45.56489587805426" lon="10.489529309824825"><ele>291.0</ele><time>2026-03-28T14:16:40.002Z</time></trkpt><trkpt lat="45.56500066415406" lon="10.489411982142371"><ele>290.75</ele><time>2026-03-28T14:16:41.002Z</time></trkpt><trkpt lat="45.5651010392922" lon="10.489297687898295"><ele>290.5</ele><time>2026-03-28T14:16:42.002Z</time></trkpt><trkpt lat="45.565209786971806" lon="10.489188886020388"><ele>290.25</ele><time>2026-03-28T14:16:43.002Z</time></trkpt><trkpt lat="45.565328529586424" lon="10.489109423602981"><ele>290.0</ele><time>2026-03-28T14:16:44.002Z</time></trkpt><trkpt lat="45.565393752916826" lon="10.48904045527189"><ele>290.0</ele><time>2026-03-28T14:16:45.002Z</time></trkpt><trkpt lat="45.565490609818866" lon="10.489010056466947"><ele>290.0</ele><time>2026-03-28T14:16:47.002Z</time></trkpt><trkpt lat="45.56557723806879" lon="10.489044788257234"><ele>290.0</ele><time>2026-03-28T14:16:49.002Z</time></trkpt><trkpt lat="45.56564782959153" lon="10.489309740881957"><ele>290.0</ele><time>2026-03-28T14:16:50.002Z</time></trkpt><trkpt lat="45.56572789601296" lon="10.489451959952808"><ele>290.0</ele><time>2026-03-28T14:16:51.002Z</time></trkpt><trkpt lat="45.5658004041142" lon="10.489570401658172"><ele>290.0</ele><time>2026-03-28T14:16:52.002Z</time></trkpt><trkpt lat="45.56584161882213" lon="10.489665333695447"><ele>290.0</ele><time>2026-03-28T14:16:53.002Z</time></trkpt><trkpt lat="45.56592124784409" lon="10.489801458549337"><ele>290.0</ele><time>2026-03-28T14:16:55.003Z</time></trkpt><trkpt lat="45.5659539558043" lon="10.489914742107763"><ele>290.0</ele><time>2026-03-28T14:16:56.003Z</time></trkpt><trkpt lat="45.56600952359937" lon="10.490047168755774"><ele>290.6</ele><time>2026-03-28T14:16:57.003Z</time></trkpt><trkpt lat="45.56605062924858" lon="10.49018459182969"><ele>291.2</ele><time>2026-03-28T14:16:58.003Z</time></trkpt><trkpt lat="45.56609412358423" lon="10.490329653599257"><ele>291.8</ele><time>2026-03-28T14:16:59.003Z</time></trkpt><trkpt lat="45.566127867555494" lon="10.490468205040386"><ele>292.4</ele><time>2026-03-28T14:17:00.003Z</time></trkpt><trkpt lat="45.56617295264893" lon="10.490613796231274"><ele>293.0</ele><time>2026-03-28T14:17:01.003Z</time></trkpt><trkpt lat="45.56626399043405" lon="10.490754549226976"><ele>293.25</ele><time>2026-03-28T14:17:02.003Z</time></trkpt><trkpt lat="45.56636712089164" lon="10.490885832159314"><ele>293.5</ele><time>2026-03-28T14:17:03.003Z</time></trkpt><trkpt lat="45.566467734252626" lon="10.491014205210343"><ele>293.75</ele><time>2026-03-28T14:17:04.003Z</time></trkpt><trkpt lat="45.566574038598276" lon="10.491102987181991"><ele>294.0</ele><time>2026-03-28T14:17:05.003Z</time></trkpt><trkpt lat="45.566707577569936" lon="10.49118336333555"><ele>294.0</ele><time>2026-03-28T14:17:06.003Z</time></trkpt><trkpt lat="45.566849503192024" lon="10.491245488431966"><ele>294.0</ele><time>2026-03-28T14:17:07.003Z</time></trkpt><trkpt lat="45.56697295800791" lon="10.491264060418164"><ele>294.0</ele><time>2026-03-28T14:17:08.003Z</time></trkpt><trkpt lat="45.56710770238854" lon="10.491253829957571"><ele>294.0</ele><time>2026-03-28T14:17:09.003Z</time></trkpt><trkpt lat="45.56725144703406" lon="10.491231320371819"><ele>294.59999999999997</ele><time>2026-03-28T14:17:10.003Z</time></trkpt><trkpt lat="45.56735035168747" lon="10.491252414822679"><ele>295.2</ele><time>2026-03-28T14:17:11.003Z</time></trkpt><trkpt lat="45.56745136844716" lon="10.491299188027769"><ele>295.79999999999995</ele><time>2026-03-28T14:17:13.003Z</time></trkpt><trkpt lat="45.5674527637607" lon="10.491396838234333"><ele>296.4</ele><time>2026-03-28T14:17:14.003Z</time></trkpt><trkpt lat="45.567504446240825" lon="10.491521128210895"><ele>297.0</ele><time>2026-03-28T14:17:15.003Z</time></trkpt><trkpt lat="45.567539328982285" lon="10.491681160700901"><ele>297.0</ele><time>2026-03-28T14:17:16.003Z</time></trkpt><trkpt lat="45.567606656139134" lon="10.491823141937008"><ele>297.0</ele><time>2026-03-28T14:17:17.003Z</time></trkpt><trkpt lat="45.567644618143035" lon="10.49193118362463"><ele>297.0</ele><time>2026-03-28T14:17:18.003Z</time></trkpt><trkpt lat="45.5677151348071" lon="10.492023972455664"><ele>297.0</ele><time>2026-03-28T14:17:19.003Z</time></trkpt><trkpt lat="45.56779175186149" lon="10.492078058464859"><ele>297.0</ele><time>2026-03-28T14:17:20.003Z</time></trkpt><trkpt lat="45.56784590977763" lon="10.492140362930018"><ele>295.5</ele><time>2026-03-28T14:17:21.003Z</time></trkpt><trkpt lat="45.5679309311687" lon="10.492216270367182"><ele>294.0</ele><time>2026-03-28T14:17:23.003Z</time></trkpt><trkpt lat="45.56786988641315" lon="10.492409298212934"><ele>292.5</ele><time>2026-03-28T14:17:24.003Z</time></trkpt><trkpt lat="45.56787851613381" lon="10.492541235232979"><ele>291.0</ele><time>2026-03-28T14:17:25Z</time></trkpt><trkpt lat="45.56786978521464" lon="10.492699144049242"><ele>292.0</ele><time>2026-03-28T14:17:26Z</time></trkpt><trkpt lat="45.56784359824911" lon="10.492867848211832"><ele>293.0</ele><time>2026-03-28T14:17:27Z</time></trkpt><trkpt lat="45.56784817860757" lon="10.49301137349644"><ele>294.0</ele><time>2026-03-28T14:17:28Z</time></trkpt><trkpt lat="45.56784034595915" lon="10.493147404731987"><ele>295.0</ele><time>2026-03-28T14:17:29Z</time></trkpt><trkpt lat="45.5678306880706" lon="10.493270353498527"><ele>296.0</ele><time>2026-03-28T14:17:30Z</time></trkpt><trkpt lat="45.56781837373183" lon="10.4933807456773"><ele>296.0</ele><time>2026-03-28T14:17:31Z</time></trkpt><trkpt lat="45.56780462760976" lon="10.493472131268064"><ele>296.0</ele><time>2026-03-28T14:17:32Z</time></trkpt><trkpt lat="45.56779700708361" lon="10.493570151631626"><ele>296.0</ele><time>2026-03-28T14:17:33Z</time></trkpt><trkpt lat="45.567799099375456" lon="10.493669025481493"><ele>296.0</ele><time>2026-03-28T14:17:34Z</time></trkpt><trkpt lat="45.567790973743925" lon="10.49379707346489"><ele>296.0</ele><time>2026-03-28T14:17:35Z</time></trkpt><trkpt lat="45.56780201268312" lon="10.493946128716345"><ele>296.0</ele><time>2026-03-28T14:17:36Z</time></trkpt><trkpt lat="45.56780745193546" lon="10.494059807859317"><ele>295.8</ele><time>2026-03-28T14:17:37Z</time></trkpt><trkpt lat="45.56781114655803" lon="10.494187138191714"><ele>295.6</ele><time>2026-03-28T14:17:38Z</time></trkpt><trkpt lat="45.56781836259922" lon="10.494327039923059"><ele>295.4</ele><time>2026-03-28T14:17:39Z</time></trkpt><trkpt lat="45.567815593683406" lon="10.494462357424014"><ele>295.2</ele><time>2026-03-28T14:17:40Z</time></trkpt><trkpt lat="45.567825041368884" lon="10.49462727086694"><ele>295.0</ele><time>2026-03-28T14:17:41Z</time></trkpt><trkpt lat="45.56780080430092" lon="10.494778944404212"><ele>293.0</ele><time>2026-03-28T14:17:42Z</time></trkpt><trkpt lat="45.56776311236682" lon="10.494922566425943"><ele>291.0</ele><time>2026-03-28T14:17:43Z</time></trkpt><trkpt lat="45.56771623407207" lon="10.49508559225114"><ele>289.0</ele><time>2026-03-28T14:17:44Z</time></trkpt><trkpt lat="45.5676436265394" lon="10.495214671883282"><ele>287.0</ele><time>2026-03-28T14:17:45Z</time></trkpt><trkpt lat="45.56760525476676" lon="10.495383756629437"><ele>284.75</ele><time>2026-03-28T14:17:46Z</time></trkpt><trkpt lat="45.567567207536186" lon="10.495544327059683"><ele>282.5</ele><time>2026-03-28T14:17:47Z</time></trkpt><trkpt lat="45.56753700328034" lon="10.495692296684838"><ele>280.25</ele><time>2026-03-28T14:17:48Z</time></trkpt><trkpt lat="45.5675305024251" lon="10.495863735102"><ele>278.0</ele><time>2026-03-28T14:17:49Z</time></trkpt><trkpt lat="45.56755159551327" lon="10.49601281775636"><ele>278.0</ele><time>2026-03-28T14:17:50Z</time></trkpt><trkpt lat="45.56756719650021" lon="10.496122177903223"><ele>278.0</ele><time>2026-03-28T14:17:51Z</time></trkpt><trkpt lat="45.56771545978871" lon="10.496166447637952"><ele>278.0</ele><time>2026-03-28T14:17:55Z</time></trkpt><trkpt lat="45.567811114820984" lon="10.496098062057827"><ele>278.0</ele><time>2026-03-28T14:17:56Z</time></trkpt><trkpt lat="45.56792028186951" lon="10.496023283736676"><ele>279.8</ele><time>2026-03-28T14:17:57Z</time></trkpt><trkpt lat="45.56802636777649" lon="10.495985776002582"><ele>281.6</ele><time>2026-03-28T14:17:58Z</time></trkpt><trkpt lat="45.568092860374435" lon="10.495910806355544"><ele>283.4</ele><time>2026-03-28T14:17:59.001Z</time></trkpt><trkpt lat="45.56814669081014" lon="10.495853223354054"><ele>285.2</ele><time>2026-03-28T14:18:00.001Z</time></trkpt><trkpt lat="45.568191119704245" lon="10.495741206909504"><ele>287.0</ele><time>2026-03-28T14:18:01.001Z</time></trkpt><trkpt lat="45.56823818073912" lon="10.495584605810361"><ele>285.75</ele><time>2026-03-28T14:18:02.001Z</time></trkpt><trkpt lat="45.5682739939572" lon="10.495404837765827"><ele>284.5</ele><time>2026-03-28T14:18:03.001Z</time></trkpt><trkpt lat="45.56831994548479" lon="10.495230026969944"><ele>283.25</ele><time>2026-03-28T14:18:04.001Z</time></trkpt><trkpt lat="45.56836551333129" lon="10.495072209625029"><ele>282.0</ele><time>2026-03-28T14:18:05.001Z</time></trkpt><trkpt lat="45.56840794413596" lon="10.49494376243429"><ele>282.0</ele><time>2026-03-28T14:18:06.001Z</time></trkpt><trkpt lat="45.56844843713895" lon="10.494854739968302"><ele>282.0</ele><time>2026-03-28T14:18:07.001Z</time></trkpt><trkpt lat="45.568513004674735" lon="10.494812066337174"><ele>282.0</ele><time>2026-03-28T14:18:08.001Z</time></trkpt><trkpt lat="45.5686232895665" lon="10.494759887979063"><ele>282.0</ele><time>2026-03-28T14:18:09.001Z</time></trkpt><trkpt lat="45.568747666797215" lon="10.494721900840167"><ele>282.0</ele><time>2026-03-28T14:18:10.001Z</time></trkpt><trkpt lat="45.5688622720578" lon="10.494664455157128"><ele>283.2</ele><time>2026-03-28T14:18:11.001Z</time></trkpt><trkpt lat="45.5689736753807" lon="10.494612175695996"><ele>284.4</ele><time>2026-03-28T14:18:12.001Z</time></trkpt><trkpt lat="45.569078013640194" lon="10.494551277512217"><ele>285.6</ele><time>2026-03-28T14:18:13.001Z</time></trkpt><trkpt lat="45.569171011808834" lon="10.494490042429371"><ele>286.8</ele><time>2026-03-28T14:18:14.001Z</time></trkpt><trkpt lat="45.569241769137236" lon="10.494386523449501"><ele>288.0</ele><time>2026-03-28T14:18:15.001Z</time></trkpt><trkpt lat="45.56929513167648" lon="10.494260175710401"><ele>288.0</ele><time>2026-03-28T14:18:16.001Z</time></trkpt><trkpt lat="45.56933679852621" lon="10.494178254292459"><ele>288.0</ele><time>2026-03-28T14:18:17.001Z</time></trkpt><trkpt lat="45.56946592643517" lon="10.494149388564342"><ele>288.0</ele><time>2026-03-28T14:18:19.001Z</time></trkpt><trkpt lat="45.56957889259086" lon="10.494144441610466"><ele>288.0</ele><time>2026-03-28T14:18:20.001Z</time></trkpt><trkpt lat="45.569685978814356" lon="10.494137213409067"><ele>288.0</ele><time>2026-03-28T14:18:21.001Z</time></trkpt><trkpt lat="45.56979577969932" lon="10.494115466583283"><ele>288.3333333333333</ele><time>2026-03-28T14:18:22.001Z</time></trkpt><trkpt lat="45.56989385050355" lon="10.49407586729278"><ele>288.6666666666667</ele><time>2026-03-28T14:18:23.001Z</time></trkpt><trkpt lat="45.56995626022086" lon="10.494043612162551"><ele>289.0</ele><time>2026-03-28T14:18:24.001Z</time></trkpt><trkpt lat="45.57002387559572" lon="10.494055359831309"><ele>289.33333333333337</ele><time>2026-03-28T14:18:26.001Z</time></trkpt><trkpt lat="45.57007975822469" lon="10.494189824629803"><ele>289.6666666666667</ele><time>2026-03-28T14:18:28.001Z</time></trkpt><trkpt lat="45.57010990898041" lon="10.494326523185455"><ele>290.0</ele><time>2026-03-28T14:18:30.001Z</time></trkpt><trkpt lat="45.57014740500987" lon="10.494481524056443"><ele>290.4</ele><time>2026-03-28T14:18:32.002Z</time></trkpt><trkpt lat="45.57017984324103" lon="10.494598852300904"><ele>290.8</ele><time>2026-03-28T14:18:33.002Z</time></trkpt><trkpt lat="45.57023206931786" lon="10.494703663466966"><ele>291.2</ele><time>2026-03-28T14:18:34.002Z</time></trkpt><trkpt lat="45.57032269793403" lon="10.49477319616304"><ele>291.6</ele><time>2026-03-28T14:18:35.002Z</time></trkpt><trkpt lat="45.57044917114663" lon="10.494826600595355"><ele>292.0</ele><time>2026-03-28T14:18:36.002Z</time></trkpt><trkpt lat="45.57059382755315" lon="10.494894967172513"><ele>292.25</ele><time>2026-03-28T14:18:37.002Z</time></trkpt><trkpt lat="45.57072102058522" lon="10.494969614485676"><ele>292.5</ele><time>2026-03-28T14:18:38.002Z</time></trkpt><trkpt lat="45.57084452182724" lon="10.495037468694663"><ele>292.75</ele><time>2026-03-28T14:18:39.002Z</time></trkpt><trkpt lat="45.57098056986509" lon="10.495095073693971"><ele>293.0</ele><time>2026-03-28T14:18:40.002Z</time></trkpt><trkpt lat="45.57111423519694" lon="10.495153167443247"><ele>294.5</ele><time>2026-03-28T14:18:41.002Z</time></trkpt><trkpt lat="45.57124722993662" lon="10.495205985970776"><ele>296.0</ele><time>2026-03-28T14:18:42.002Z</time></trkpt><trkpt lat="45.571361747497676" lon="10.495250341204185"><ele>297.5</ele><time>2026-03-28T14:18:43.002Z</time></trkpt><trkpt lat="45.571455681335806" lon="10.495327404943414"><ele>299.0</ele><time>2026-03-28T14:18:44.002Z</time></trkpt><trkpt lat="45.571528395868235" lon="10.495410323828379"><ele>298.59999999999997</ele><time>2026-03-28T14:18:45.002Z</time></trkpt><trkpt lat="45.571578231755375" lon="10.495493724305867"><ele>298.2</ele><time>2026-03-28T14:18:46.002Z</time></trkpt><trkpt lat="45.57161956573151" lon="10.49558795335245"><ele>297.79999999999995</ele><time>2026-03-28T14:18:47.002Z</time></trkpt><trkpt lat="45.57165470005524" lon="10.495703603224031"><ele>297.4</ele><time>2026-03-28T14:18:48.002Z</time></trkpt><trkpt lat="45.571670225420256" lon="10.495837634045065"><ele>297.0</ele><time>2026-03-28T14:18:49.002Z</time></trkpt><trkpt lat="45.571682564498964" lon="10.495999236381577"><ele>297.0</ele><time>2026-03-28T14:18:50.002Z</time></trkpt><trkpt lat="45.57170064984099" lon="10.496167611535359"><ele>297.0</ele><time>2026-03-28T14:18:51.002Z</time></trkpt><trkpt lat="45.57173940076991" lon="10.496346883341"><ele>297.0</ele><time>2026-03-28T14:18:52.002Z</time></trkpt><trkpt lat="45.57179206847767" lon="10.496532435050257"><ele>297.0</ele><time>2026-03-28T14:18:53.002Z</time></trkpt><trkpt lat="45.571852093047646" lon="10.496722042010884"><ele>298.0</ele><time>2026-03-28T14:18:54.002Z</time></trkpt><trkpt lat="45.57191893364214" lon="10.496905316468965"><ele>299.0</ele><time>2026-03-28T14:18:55.002Z</time></trkpt><trkpt lat="45.571963557061714" lon="10.49707912117574"><ele>300.0</ele><time>2026-03-28T14:18:56.002Z</time></trkpt><trkpt lat="45.57200250130578" lon="10.497217015335549"><ele>301.0</ele><time>2026-03-28T14:18:57.002Z</time></trkpt><trkpt lat="45.572029095555855" lon="10.497321702702134"><ele>301.2</ele><time>2026-03-28T14:18:58.002Z</time></trkpt><trkpt lat="45.57205238851604" lon="10.497472100118687"><ele>301.40000000000003</ele><time>2026-03-28T14:19:00.002Z</time></trkpt><trkpt lat="45.57204875163202" lon="10.49758108140928"><ele>301.6</ele><time>2026-03-28T14:19:01.002Z</time></trkpt><trkpt lat="45.57203616800732" lon="10.49773143542661"><ele>301.8</ele><time>2026-03-28T14:19:02.002Z</time></trkpt><trkpt lat="45.57201284988232" lon="10.49790706716612"><ele>302.0</ele><time>2026-03-28T14:19:03.002Z</time></trkpt><trkpt lat="45.571977436906835" lon="10.498072761173532"><ele>299.6</ele><time>2026-03-28T14:19:04.003Z</time></trkpt><trkpt lat="45.57197385725162" lon="10.498214496774274"><ele>297.2</ele><time>2026-03-28T14:19:05.003Z</time></trkpt><trkpt lat="45.57198913559521" lon="10.49835046814867"><ele>294.8</ele><time>2026-03-28T14:19:06.003Z</time></trkpt><trkpt lat="45.57204023083009" lon="10.498503466619944"><ele>292.4</ele><time>2026-03-28T14:19:07.003Z</time></trkpt><trkpt lat="45.57208997530871" lon="10.498676270131115"><ele>290.0</ele><time>2026-03-28T14:19:08.003Z</time></trkpt><trkpt lat="45.57212773242094" lon="10.498841956045743"><ele>288.1666666666667</ele><time>2026-03-28T14:19:09.003Z</time></trkpt><trkpt lat="45.57215005115178" lon="10.498965695650977"><ele>286.33333333333337</ele><time>2026-03-28T14:19:10.003Z</time></trkpt><trkpt lat="45.572174221105136" lon="10.499070987671061"><ele>284.5</ele><time>2026-03-28T14:19:11.003Z</time></trkpt><trkpt lat="45.57216835313761" lon="10.499163414067315"><ele>282.6666666666667</ele><time>2026-03-28T14:19:12.003Z</time></trkpt><trkpt lat="45.57216538614199" lon="10.499261937570976"><ele>280.8333333333333</ele><time>2026-03-28T14:19:13.003Z</time></trkpt><trkpt lat="45.57215622890114" lon="10.499402790245824"><ele>279.0</ele><time>2026-03-28T14:19:15.003Z</time></trkpt><trkpt lat="45.572232433362345" lon="10.499397937843774"><ele>279.0</ele><time>2026-03-28T14:19:19.003Z</time></trkpt><trkpt lat="45.57225658794446" lon="10.499290259309623"><ele>279.0</ele><time>2026-03-28T14:19:20.003Z</time></trkpt><trkpt lat="45.57227032733025" lon="10.49910431665963"><ele>279.0</ele><time>2026-03-28T14:19:21.003Z</time></trkpt><trkpt lat="45.5722822574613" lon="10.49894659802473"><ele>279.0</ele><time>2026-03-28T14:19:22.003Z</time></trkpt><trkpt lat="45.57229796947463" lon="10.49877173086256"><ele>279.0</ele><time>2026-03-28T14:19:23.003Z</time></trkpt><trkpt lat="45.572316321898384" lon="10.498583226263468"><ele>280.0</ele><time>2026-03-28T14:19:24.003Z</time></trkpt><trkpt lat="45.57234200320153" lon="10.498382986515125"><ele>281.0</ele><time>2026-03-28T14:19:25.003Z</time></trkpt><trkpt lat="45.57239388700872" lon="10.49818557987653"><ele>282.0</ele><time>2026-03-28T14:19:26.003Z</time></trkpt><trkpt lat="45.57246392472274" lon="10.498001578340814"><ele>283.0</ele><time>2026-03-28T14:19:27.003Z</time></trkpt><trkpt lat="45.57254183290031" lon="10.497810721085777"><ele>285.0</ele><time>2026-03-28T14:19:28.003Z</time></trkpt><trkpt lat="45.57261226831221" lon="10.497589182137773"><ele>287.0</ele><time>2026-03-28T14:19:29.003Z</time></trkpt><trkpt lat="45.572692513164974" lon="10.497390746432949"><ele>289.0</ele><time>2026-03-28T14:19:30.003Z</time></trkpt><trkpt lat="45.57273937869567" lon="10.497179531545775"><ele>289.25</ele><time>2026-03-28T14:19:30.999Z</time></trkpt><trkpt lat="45.57274905366969" lon="10.496957516809555"><ele>289.5</ele><time>2026-03-28T14:19:31.999Z</time></trkpt><trkpt lat="45.572759827043136" lon="10.49675452185272"><ele>289.75</ele><time>2026-03-28T14:19:32.999Z</time></trkpt><trkpt lat="45.572764887078016" lon="10.496569672394306"><ele>290.0</ele><time>2026-03-28T14:19:33.999Z</time></trkpt><trkpt lat="45.57276497530851" lon="10.496385818972556"><ele>290.75</ele><time>2026-03-28T14:19:34.999Z</time></trkpt><trkpt lat="45.572750300704634" lon="10.496221653287009"><ele>291.5</ele><time>2026-03-28T14:19:35.999Z</time></trkpt><trkpt lat="45.57273643873844" lon="10.496039036815755"><ele>292.25</ele><time>2026-03-28T14:19:36.999Z</time></trkpt><trkpt lat="45.57269598599044" lon="10.495853308415642"><ele>293.0</ele><time>2026-03-28T14:19:37.999Z</time></trkpt><trkpt lat="45.57266385878175" lon="10.495667334461528"><ele>293.0</ele><time>2026-03-28T14:19:38.999Z</time></trkpt><trkpt lat="45.5726544825785" lon="10.495501267016506"><ele>293.0</ele><time>2026-03-28T14:19:39.999Z</time></trkpt><trkpt lat="45.57267975221248" lon="10.495374212556218"><ele>293.0</ele><time>2026-03-28T14:19:40.999Z</time></trkpt><trkpt lat="45.57272000020694" lon="10.49523770513334"><ele>293.0</ele><time>2026-03-28T14:19:42Z</time></trkpt><trkpt lat="45.572782676675004" lon="10.49507916767146"><ele>293.0</ele><time>2026-03-28T14:19:43Z</time></trkpt><trkpt lat="45.572854849400116" lon="10.494922509058386"><ele>292.5</ele><time>2026-03-28T14:19:44Z</time></trkpt><trkpt lat="45.57295047698827" lon="10.494788470598035"><ele>292.0</ele><time>2026-03-28T14:19:45Z</time></trkpt><trkpt lat="45.573058252047964" lon="10.4946629050545"><ele>291.5</ele><time>2026-03-28T14:19:46Z</time></trkpt><trkpt lat="45.57316747007306" lon="10.494532614754874"><ele>291.0</ele><time>2026-03-28T14:19:47Z</time></trkpt><trkpt lat="45.57327307685882" lon="10.494400628645073"><ele>295.25</ele><time>2026-03-28T14:19:48Z</time></trkpt><trkpt lat="45.573361223782065" lon="10.494284035933438"><ele>299.5</ele><time>2026-03-28T14:19:49Z</time></trkpt><trkpt lat="45.57342844949329" lon="10.494157559663167"><ele>303.75</ele><time>2026-03-28T14:19:50Z</time></trkpt><trkpt lat="45.573482189572054" lon="10.493991944235978"><ele>308.0</ele><time>2026-03-28T14:19:51Z</time></trkpt><trkpt lat="45.57354220258461" lon="10.493826873153088"><ele>309.0</ele><time>2026-03-28T14:19:52Z</time></trkpt><trkpt lat="45.573610204495374" lon="10.493670632663024"><ele>310.0</ele><time>2026-03-28T14:19:53Z</time></trkpt><trkpt lat="45.57366224162557" lon="10.493534629104744"><ele>311.0</ele><time>2026-03-28T14:19:54Z</time></trkpt><trkpt lat="45.57369736948423" lon="10.49337798046306"><ele>312.0</ele><time>2026-03-28T14:19:55Z</time></trkpt><trkpt lat="45.573726974046636" lon="10.493197932848757"><ele>311.25</ele><time>2026-03-28T14:19:56Z</time></trkpt><trkpt lat="45.573735653967525" lon="10.493010610186873"><ele>310.5</ele><time>2026-03-28T14:19:57Z</time></trkpt><trkpt lat="45.57374591800411" lon="10.492821818843131"><ele>309.75</ele><time>2026-03-28T14:19:58Z</time></trkpt><trkpt lat="45.57377583670578" lon="10.492657575227422"><ele>309.0</ele><time>2026-03-28T14:19:59Z</time></trkpt><trkpt lat="45.573824711790316" lon="10.492524974401407"><ele>309.0</ele><time>2026-03-28T14:20:00Z</time></trkpt><trkpt lat="45.57390968641735" lon="10.492424812915543"><ele>309.0</ele><time>2026-03-28T14:20:01Z</time></trkpt><trkpt lat="45.57401981706501" lon="10.492346825636423"><ele>309.0</ele><time>2026-03-28T14:20:02Z</time></trkpt><trkpt lat="45.574132526587235" lon="10.492279464557438"><ele>309.0</ele><time>2026-03-28T14:20:03Z</time></trkpt><trkpt lat="45.57423711783979" lon="10.492270239342892"><ele>309.0</ele><time>2026-03-28T14:20:04Z</time></trkpt><trkpt lat="45.57431580786714" lon="10.492258720484156"><ele>309.0</ele><time>2026-03-28T14:20:05Z</time></trkpt><trkpt lat="45.57438536300615" lon="10.492233958852172"><ele>309.0</ele><time>2026-03-28T14:20:06Z</time></trkpt><trkpt lat="45.574434844401445" lon="10.492006021276245"><ele>309.0</ele><time>2026-03-28T14:20:08.001Z</time></trkpt><trkpt lat="45.57442067504788" lon="10.491839059878405"><ele>309.0</ele><time>2026-03-28T14:20:09.001Z</time></trkpt><trkpt lat="45.574397032094446" lon="10.49166668407236"><ele>309.5</ele><time>2026-03-28T14:20:10.001Z</time></trkpt><trkpt lat="45.57438012698159" lon="10.491474799011089"><ele>310.0</ele><time>2026-03-28T14:20:11.001Z</time></trkpt><trkpt lat="45.574372488089125" lon="10.491279112533599"><ele>310.5</ele><time>2026-03-28T14:20:12.001Z</time></trkpt><trkpt lat="45.57437763949179" lon="10.49107686112054"><ele>311.0</ele><time>2026-03-28T14:20:13.001Z</time></trkpt><trkpt lat="45.574437870305495" lon="10.490892741517214"><ele>311.0</ele><time>2026-03-28T14:20:14.001Z</time></trkpt><trkpt lat="45.57447407262888" lon="10.490678142840872"><ele>311.0</ele><time>2026-03-28T14:20:15.001Z</time></trkpt><trkpt lat="45.574474244406616" lon="10.490445810084914"><ele>311.0</ele><time>2026-03-28T14:20:16.001Z</time></trkpt><trkpt lat="45.57447175837769" lon="10.490205280030704"><ele>311.75</ele><time>2026-03-28T14:20:17.001Z</time></trkpt><trkpt lat="45.57446889305005" lon="10.489992408079436"><ele>312.5</ele><time>2026-03-28T14:20:18.001Z</time></trkpt><trkpt lat="45.57446877760659" lon="10.489800576466877"><ele>313.25</ele><time>2026-03-28T14:20:19.001Z</time></trkpt><trkpt lat="45.57448665121435" lon="10.489641508285612"><ele>314.0</ele><time>2026-03-28T14:20:20.001Z</time></trkpt><trkpt lat="45.57450636327862" lon="10.489544616871077"><ele>315.0</ele><time>2026-03-28T14:20:21.001Z</time></trkpt><trkpt lat="45.574598693724774" lon="10.489482569427835"><ele>316.0</ele><time>2026-03-28T14:20:23.001Z</time></trkpt><trkpt lat="45.5746885106998" lon="10.489401252804255"><ele>317.0</ele><time>2026-03-28T14:20:24.001Z</time></trkpt><trkpt lat="45.574774124476505" lon="10.489273409235688"><ele>318.0</ele><time>2026-03-28T14:20:25.001Z</time></trkpt><trkpt lat="45.57485669676212" lon="10.489117009622742"><ele>318.0</ele><time>2026-03-28T14:20:26.001Z</time></trkpt><trkpt lat="45.57495868482667" lon="10.48894876557207"><ele>318.0</ele><time>2026-03-28T14:20:27.001Z</time></trkpt><trkpt lat="45.57512075487804" lon="10.488848093776827"><ele>318.0</ele><time>2026-03-28T14:20:28.001Z</time></trkpt><trkpt lat="45.5752768210131" lon="10.488739808723686"><ele>318.4</ele><time>2026-03-28T14:20:29.001Z</time></trkpt><trkpt lat="45.57539908782416" lon="10.48864648739247"><ele>318.8</ele><time>2026-03-28T14:20:30.001Z</time></trkpt><trkpt lat="45.575486957192325" lon="10.488557946426637"><ele>319.2</ele><time>2026-03-28T14:20:31.001Z</time></trkpt><trkpt lat="45.57553055694577" lon="10.488463591629419"><ele>319.6</ele><time>2026-03-28T14:20:32.001Z</time></trkpt><trkpt lat="45.575555461778706" lon="10.488302875759487"><ele>320.0</ele><time>2026-03-28T14:20:34.001Z</time></trkpt><trkpt lat="45.57554239467795" lon="10.488176121410113"><ele>320.0</ele><time>2026-03-28T14:20:35.001Z</time></trkpt><trkpt lat="45.575533655843856" lon="10.488074820169894"><ele>320.0</ele><time>2026-03-28T14:20:36.001Z</time></trkpt><trkpt lat="45.57553457539936" lon="10.4879535193419"><ele>320.0</ele><time>2026-03-28T14:20:37.001Z</time></trkpt><trkpt lat="45.575549606130465" lon="10.487788026813172"><ele>320.0</ele><time>2026-03-28T14:20:38.002Z</time></trkpt><trkpt lat="45.57556709469566" lon="10.487604202345604"><ele>320.0</ele><time>2026-03-28T14:20:39.002Z</time></trkpt><trkpt lat="45.575581325397685" lon="10.487394250365732"><ele>319.5</ele><time>2026-03-28T14:20:40.002Z</time></trkpt><trkpt lat="45.57559476284114" lon="10.487178633610565"><ele>319.0</ele><time>2026-03-28T14:20:41.002Z</time></trkpt><trkpt lat="45.575599944396345" lon="10.486958178790967"><ele>318.5</ele><time>2026-03-28T14:20:42.002Z</time></trkpt><trkpt lat="45.57559159852185" lon="10.486754375488871"><ele>318.0</ele><time>2026-03-28T14:20:43.002Z</time></trkpt><trkpt lat="45.575585615329125" lon="10.486567359935156"><ele>316.75</ele><time>2026-03-28T14:20:44.002Z</time></trkpt><trkpt lat="45.57556673608551" lon="10.486375687609696"><ele>315.5</ele><time>2026-03-28T14:20:45.002Z</time></trkpt><trkpt lat="45.57553146794856" lon="10.486182461852454"><ele>314.25</ele><time>2026-03-28T14:20:46.002Z</time></trkpt><trkpt lat="45.575487972916974" lon="10.48600889551396"><ele>313.0</ele><time>2026-03-28T14:20:47.002Z</time></trkpt><trkpt lat="45.57544330802357" lon="10.485850098867571"><ele>312.2</ele><time>2026-03-28T14:20:48.002Z</time></trkpt><trkpt lat="45.57539815035922" lon="10.485714180782624"><ele>311.4</ele><time>2026-03-28T14:20:49.002Z</time></trkpt><trkpt lat="45.57536383377823" lon="10.485592603227127"><ele>310.59999999999997</ele><time>2026-03-28T14:20:50.002Z</time></trkpt><trkpt lat="45.57536952199871" lon="10.485472554155848"><ele>309.8</ele><time>2026-03-28T14:20:51.002Z</time></trkpt><trkpt lat="45.57542036868659" lon="10.485335695367914"><ele>309.0</ele><time>2026-03-28T14:20:52.002Z</time></trkpt><trkpt lat="45.57545963721771" lon="10.485151613656116"><ele>307.0</ele><time>2026-03-28T14:20:53.002Z</time></trkpt><trkpt lat="45.575523186781645" lon="10.484942007195603"><ele>305.0</ele><time>2026-03-28T14:20:54.002Z</time></trkpt><trkpt lat="45.57557143981358" lon="10.48470351650904"><ele>303.0</ele><time>2026-03-28T14:20:55.002Z</time></trkpt><trkpt lat="45.575605747129025" lon="10.484444755038732"><ele>300.3333333333333</ele><time>2026-03-28T14:20:56.002Z</time></trkpt><trkpt lat="45.57563571059655" lon="10.484186191964072"><ele>297.66666666666663</ele><time>2026-03-28T14:20:57.002Z</time></trkpt><trkpt lat="45.57568667691132" lon="10.483932197839264"><ele>295.0</ele><time>2026-03-28T14:20:58.002Z</time></trkpt><trkpt lat="45.57574006611542" lon="10.483702292584656"><ele>293.0</ele><time>2026-03-28T14:20:59.002Z</time></trkpt><trkpt lat="45.57578141740836" lon="10.483479086734258"><ele>291.0</ele><time>2026-03-28T14:21:00.002Z</time></trkpt><trkpt lat="45.575804418899615" lon="10.483257774939446"><ele>289.0</ele><time>2026-03-28T14:21:01.002Z</time></trkpt><trkpt lat="45.5758366618517" lon="10.483060920041735"><ele>288.4</ele><time>2026-03-28T14:21:02.002Z</time></trkpt><trkpt lat="45.57583934446071" lon="10.482874389684682"><ele>287.79999999999995</ele><time>2026-03-28T14:21:03.002Z</time></trkpt><trkpt lat="45.57582364734021" lon="10.482729942015455"><ele>287.20000000000005</ele><time>2026-03-28T14:21:04.002Z</time></trkpt><trkpt lat="45.57581865532395" lon="10.482613384020526"><ele>286.6</ele><time>2026-03-28T14:21:05.002Z</time></trkpt><trkpt lat="45.57583175765753" lon="10.482524059113878"><ele>286.0</ele><time>2026-03-28T14:21:08.002Z</time></trkpt><trkpt lat="45.57553631996899" lon="10.48252673964562"><ele>286.0</ele><time>2026-03-28T14:21:12.003Z</time></trkpt><trkpt lat="45.575393555750445" lon="10.482544713336981"><ele>286.0</ele><time>2026-03-28T14:21:13.003Z</time></trkpt><trkpt lat="45.57524485211293" lon="10.482576141031748"><ele>286.0</ele><time>2026-03-28T14:21:14.003Z</time></trkpt><trkpt lat="45.57509504040573" lon="10.482619582881641"><ele>286.0</ele><time>2026-03-28T14:21:15.003Z</time></trkpt><trkpt lat="45.574939595180226" lon="10.482654707062022"><ele>286.66666666666663</ele><time>2026-03-28T14:21:16.003Z</time></trkpt><trkpt lat="45.57477301627822" lon="10.482646099844422"><ele>287.3333333333333</ele><time>2026-03-28T14:21:17.003Z</time></trkpt><trkpt lat="45.574591991020526" lon="10.482643703584221"><ele>288.0</ele><time>2026-03-28T14:21:18.003Z</time></trkpt><trkpt lat="45.57440961779186" lon="10.482635694619766"><ele>288.0</ele><time>2026-03-28T14:21:19.003Z</time></trkpt><trkpt lat="45.574220085976506" lon="10.482649951620287"><ele>288.0</ele><time>2026-03-28T14:21:20.003Z</time></trkpt><trkpt lat="45.57403624527943" lon="10.482641736776168"><ele>288.0</ele><time>2026-03-28T14:21:21.003Z</time></trkpt><trkpt lat="45.573857792513714" lon="10.4826114611011"><ele>289.3333333333333</ele><time>2026-03-28T14:21:22.003Z</time></trkpt><trkpt lat="45.57367783025976" lon="10.48260275655198"><ele>290.66666666666663</ele><time>2026-03-28T14:21:23.003Z</time></trkpt><trkpt lat="45.5734992271021" lon="10.482592246025597"><ele>292.0</ele><time>2026-03-28T14:21:24.003Z</time></trkpt><trkpt lat="45.57332840691848" lon="10.482582193521296"><ele>292.0</ele><time>2026-03-28T14:21:25.003Z</time></trkpt><trkpt lat="45.57315470032263" lon="10.482590403502005"><ele>292.0</ele><time>2026-03-28T14:21:26.003Z</time></trkpt><trkpt lat="45.572996787801266" lon="10.482576921827851"><ele>292.0</ele><time>2026-03-28T14:21:27.003Z</time></trkpt><trkpt lat="45.57285630149767" lon="10.48256972331279"><ele>293.5</ele><time>2026-03-28T14:21:28.003Z</time></trkpt><trkpt lat="45.57274010997991" lon="10.48256814291449"><ele>295.0</ele><time>2026-03-28T14:21:29.003Z</time></trkpt><trkpt lat="45.572630100051626" lon="10.482563553125972"><ele>296.5</ele><time>2026-03-28T14:21:30.003Z</time></trkpt><trkpt lat="45.57250696323469" lon="10.482556945711911"><ele>298.0</ele><time>2026-03-28T14:21:31.003Z</time></trkpt><trkpt lat="45.572374725488544" lon="10.482519463538992"><ele>298.0</ele><time>2026-03-28T14:21:32.003Z</time></trkpt><trkpt lat="45.572239100768336" lon="10.482509331201745"><ele>298.0</ele><time>2026-03-28T14:21:33.003Z</time></trkpt><trkpt lat="45.57211193677541" lon="10.48251283125447"><ele>298.0</ele><time>2026-03-28T14:21:34.003Z</time></trkpt><trkpt lat="45.57197982188691" lon="10.482528506851022"><ele>298.0</ele><time>2026-03-28T14:21:35.003Z</time></trkpt><trkpt lat="45.571862328811974" lon="10.482526144659806"><ele>298.5</ele><time>2026-03-28T14:21:36.003Z</time></trkpt><trkpt lat="45.57174158798538" lon="10.482519637042047"><ele>299.0</ele><time>2026-03-28T14:21:36.999Z</time></trkpt><trkpt lat="45.571611320165296" lon="10.482525973157067"><ele>299.5</ele><time>2026-03-28T14:21:37.999Z</time></trkpt><trkpt lat="45.571476247254225" lon="10.482506231679418"><ele>300.0</ele><time>2026-03-28T14:21:38.999Z</time></trkpt><trkpt lat="45.571324341429865" lon="10.48249559888024"><ele>301.6666666666667</ele><time>2026-03-28T14:21:40Z</time></trkpt><trkpt lat="45.57116710385106" lon="10.482484592885157"><ele>303.33333333333337</ele><time>2026-03-28T14:21:41Z</time></trkpt><trkpt lat="45.57100531276431" lon="10.48247326816032"><ele>305.0</ele><time>2026-03-28T14:21:42Z</time></trkpt><trkpt lat="45.57084385236875" lon="10.482455245699027"><ele>305.0</ele><time>2026-03-28T14:21:43Z</time></trkpt><trkpt lat="45.57068647483476" lon="10.482436711702341"><ele>305.0</ele><time>2026-03-28T14:21:44Z</time></trkpt><trkpt lat="45.57052285829837" lon="10.482410306164708"><ele>305.0</ele><time>2026-03-28T14:21:45Z</time></trkpt><trkpt lat="45.570365825268304" lon="10.48237830977488"><ele>307.0</ele><time>2026-03-28T14:21:46Z</time></trkpt><trkpt lat="45.57021405213603" lon="10.482343255748017"><ele>309.0</ele><time>2026-03-28T14:21:47Z</time></trkpt><trkpt lat="45.57005820133522" lon="10.482302367325797"><ele>311.0</ele><time>2026-03-28T14:21:48Z</time></trkpt><trkpt lat="45.56990805097506" lon="10.48226098419307"><ele>311.0</ele><time>2026-03-28T14:21:49Z</time></trkpt><trkpt lat="45.569748015212134" lon="10.48221645172067"><ele>311.0</ele><time>2026-03-28T14:21:50Z</time></trkpt><trkpt lat="45.56958374467664" lon="10.48216863575926"><ele>311.0</ele><time>2026-03-28T14:21:51Z</time></trkpt><trkpt lat="45.5694173532259" lon="10.482119520692331"><ele>312.33333333333337</ele><time>2026-03-28T14:21:52Z</time></trkpt><trkpt lat="45.56925318492332" lon="10.482071415165866"><ele>313.6666666666667</ele><time>2026-03-28T14:21:53Z</time></trkpt><trkpt lat="45.569096119484584" lon="10.482027047457347"><ele>315.0</ele><time>2026-03-28T14:21:54Z</time></trkpt><trkpt lat="45.5689348098383" lon="10.482002735786663"><ele>315.0</ele><time>2026-03-28T14:21:55Z</time></trkpt><trkpt lat="45.56877562765143" lon="10.481953986407909"><ele>315.0</ele><time>2026-03-28T14:21:56Z</time></trkpt><trkpt lat="45.56861705222689" lon="10.481908757347915"><ele>315.0</ele><time>2026-03-28T14:21:57Z</time></trkpt><trkpt lat="45.568453349426434" lon="10.481858342229453"><ele>316.0</ele><time>2026-03-28T14:21:58Z</time></trkpt><trkpt lat="45.568284141941035" lon="10.48180743520988"><ele>317.0</ele><time>2026-03-28T14:21:59Z</time></trkpt><trkpt lat="45.56810579229122" lon="10.481754433684237"><ele>318.0</ele><time>2026-03-28T14:22:00Z</time></trkpt><trkpt lat="45.5679198643063" lon="10.481700965601885"><ele>320.0</ele><time>2026-03-28T14:22:01Z</time></trkpt><trkpt lat="45.56773515822979" lon="10.481650315562877"><ele>322.0</ele><time>2026-03-28T14:22:02Z</time></trkpt><trkpt lat="45.567549318236125" lon="10.481595257537972"><ele>324.0</ele><time>2026-03-28T14:22:03Z</time></trkpt><trkpt lat="45.567358556032076" lon="10.481544048150761"><ele>324.0</ele><time>2026-03-28T14:22:04Z</time></trkpt><trkpt lat="45.56716669170521" lon="10.481505288411041"><ele>324.0</ele><time>2026-03-28T14:22:05Z</time></trkpt><trkpt lat="45.566975909457994" lon="10.48148484253499"><ele>324.0</ele><time>2026-03-28T14:22:06Z</time></trkpt><trkpt lat="45.56677951483558" lon="10.481478698871392"><ele>323.3333333333333</ele><time>2026-03-28T14:22:07Z</time></trkpt><trkpt lat="45.56658020312361" lon="10.481487563890882"><ele>322.66666666666663</ele><time>2026-03-28T14:22:08.001Z</time></trkpt><trkpt lat="45.56638203112618" lon="10.481508988511493"><ele>322.0</ele><time>2026-03-28T14:22:09.001Z</time></trkpt><trkpt lat="45.56618877566576" lon="10.481534446918122"><ele>322.0</ele><time>2026-03-28T14:22:10.001Z</time></trkpt><trkpt lat="45.565992826663255" lon="10.481586028348005"><ele>322.0</ele><time>2026-03-28T14:22:11.001Z</time></trkpt><trkpt lat="45.5657906184445" lon="10.48165668847826"><ele>322.0</ele><time>2026-03-28T14:22:12.001Z</time></trkpt><trkpt lat="45.56557873986485" lon="10.481707910423834"><ele>322.0</ele><time>2026-03-28T14:22:13.001Z</time></trkpt><trkpt lat="45.5653644853503" lon="10.481784579375477"><ele>322.0</ele><time>2026-03-28T14:22:14.001Z</time></trkpt><trkpt lat="45.565156822512684" lon="10.481880847694253"><ele>322.0</ele><time>2026-03-28T14:22:15.001Z</time></trkpt><trkpt lat="45.564942650984115" lon="10.481955721581919"><ele>321.3333333333333</ele><time>2026-03-28T14:22:16.001Z</time></trkpt><trkpt lat="45.56472654362552" lon="10.482033796117738"><ele>320.6666666666667</ele><time>2026-03-28T14:22:17.001Z</time></trkpt><trkpt lat="45.564511260916845" lon="10.482108458535823"><ele>320.0</ele><time>2026-03-28T14:22:18.001Z</time></trkpt><trkpt lat="45.56429405490334" lon="10.4821840841646"><ele>321.33333333333337</ele><time>2026-03-28T14:22:19.001Z</time></trkpt><trkpt lat="45.56407502757258" lon="10.48225239678875"><ele>322.6666666666667</ele><time>2026-03-28T14:22:20.001Z</time></trkpt><trkpt lat="45.56385359622268" lon="10.482304138688034"><ele>324.0</ele><time>2026-03-28T14:22:21.001Z</time></trkpt><trkpt lat="45.56363196972257" lon="10.482357037525755"><ele>324.0</ele><time>2026-03-28T14:22:22.001Z</time></trkpt><trkpt lat="45.563412384917754" lon="10.482408404473714"><ele>324.0</ele><time>2026-03-28T14:22:23.001Z</time></trkpt><trkpt lat="45.56319514526635" lon="10.48245821128368"><ele>324.0</ele><time>2026-03-28T14:22:24.001Z</time></trkpt><trkpt lat="45.56298277820326" lon="10.482506917944793"><ele>324.3333333333333</ele><time>2026-03-28T14:22:25.001Z</time></trkpt><trkpt lat="45.56276771335298" lon="10.482555350277591"><ele>324.66666666666663</ele><time>2026-03-28T14:22:26.001Z</time></trkpt><trkpt lat="45.56255965612561" lon="10.482603753769366"><ele>325.0</ele><time>2026-03-28T14:22:27.001Z</time></trkpt><trkpt lat="45.56236657804084" lon="10.482653756301854"><ele>325.0</ele><time>2026-03-28T14:22:28.001Z</time></trkpt><trkpt lat="45.56218645402347" lon="10.482699044512417"><ele>325.0</ele><time>2026-03-28T14:22:29.001Z</time></trkpt><trkpt lat="45.56200487748877" lon="10.482744127897302"><ele>325.0</ele><time>2026-03-28T14:22:30.001Z</time></trkpt><trkpt lat="45.561835388202034" lon="10.482762505661935"><ele>324.75</ele><time>2026-03-28T14:22:31.001Z</time></trkpt><trkpt lat="45.561689805987314" lon="10.4827994438015"><ele>324.5</ele><time>2026-03-28T14:22:32.001Z</time></trkpt><trkpt lat="45.56156037690893" lon="10.482845130675848"><ele>324.25</ele><time>2026-03-28T14:22:33.001Z</time></trkpt><trkpt lat="45.56144179675097" lon="10.48283002363807"><ele>324.0</ele><time>2026-03-28T14:22:34.001Z</time></trkpt><trkpt lat="45.5613381328405" lon="10.482770062688061"><ele>324.0</ele><time>2026-03-28T14:22:35.001Z</time></trkpt><trkpt lat="45.56124831271757" lon="10.482660429073777"><ele>324.0</ele><time>2026-03-28T14:22:36.001Z</time></trkpt><trkpt lat="45.561211702092145" lon="10.482475450489918"><ele>324.0</ele><time>2026-03-28T14:22:37.001Z</time></trkpt><trkpt lat="45.56114842614772" lon="10.48229786701975"><ele>324.0</ele><time>2026-03-28T14:22:38.002Z</time></trkpt><trkpt lat="45.5610834515476" lon="10.482111616487977"><ele>323.6666666666667</ele><time>2026-03-28T14:22:39.002Z</time></trkpt><trkpt lat="45.56100351482343" lon="10.481930934565899"><ele>323.33333333333337</ele><time>2026-03-28T14:22:40.002Z</time></trkpt><trkpt lat="45.56092779339991" lon="10.48172748951567"><ele>323.0</ele><time>2026-03-28T14:22:41.002Z</time></trkpt><trkpt lat="45.56083273058946" lon="10.481547242730889"><ele>323.0</ele><time>2026-03-28T14:22:42.002Z</time></trkpt><trkpt lat="45.5607186448323" lon="10.481385505107069"><ele>323.0</ele><time>2026-03-28T14:22:43.002Z</time></trkpt><trkpt lat="45.56058530209549" lon="10.481247242871131"><ele>323.0</ele><time>2026-03-28T14:22:44.002Z</time></trkpt><trkpt lat="45.56043677514096" lon="10.481158864019951"><ele>327.6666666666667</ele><time>2026-03-28T14:22:45.002Z</time></trkpt><trkpt lat="45.56027185630252" lon="10.481095835855497"><ele>332.3333333333333</ele><time>2026-03-28T14:22:46.002Z</time></trkpt><trkpt lat="45.56011990434066" lon="10.481011777131693"><ele>337.0</ele><time>2026-03-28T14:22:47.002Z</time></trkpt><trkpt lat="45.5599785107906" lon="10.4809377284014"><ele>337.0</ele><time>2026-03-28T14:22:48.002Z</time></trkpt><trkpt lat="45.55986933368503" lon="10.480885925577454"><ele>337.0</ele><time>2026-03-28T14:22:49.002Z</time></trkpt><trkpt lat="45.559780275889814" lon="10.480780633646994"><ele>337.0</ele><time>2026-03-28T14:22:50.002Z</time></trkpt><trkpt lat="45.559722776753915" lon="10.480646066506552"><ele>337.0</ele><time>2026-03-28T14:22:51.002Z</time></trkpt><trkpt lat="45.55972413492838" lon="10.480475726074076"><ele>339.25</ele><time>2026-03-28T14:22:52.002Z</time></trkpt><trkpt lat="45.55971309235647" lon="10.480301554861796"><ele>341.5</ele><time>2026-03-28T14:22:53.002Z</time></trkpt><trkpt lat="45.55969624697722" lon="10.480121828908915"><ele>343.75</ele><time>2026-03-28T14:22:54.002Z</time></trkpt><trkpt lat="45.559682904016015" lon="10.479949056525468"><ele>346.0</ele><time>2026-03-28T14:22:55.002Z</time></trkpt><trkpt lat="45.55967793978525" lon="10.479777000704784"><ele>345.0</ele><time>2026-03-28T14:22:56.002Z</time></trkpt><trkpt lat="45.559681243212644" lon="10.479600254043605"><ele>344.0</ele><time>2026-03-28T14:22:57.002Z</time></trkpt><trkpt lat="45.559693412323384" lon="10.479441298627114"><ele>343.0</ele><time>2026-03-28T14:22:58.002Z</time></trkpt><trkpt lat="45.559744064136716" lon="10.479275215234757"><ele>342.0</ele><time>2026-03-28T14:22:59.002Z</time></trkpt><trkpt lat="45.559804580787244" lon="10.47907307118619"><ele>342.0</ele><time>2026-03-28T14:23:00.002Z</time></trkpt><trkpt lat="45.55985931778137" lon="10.47884708889828"><ele>342.0</ele><time>2026-03-28T14:23:01.002Z</time></trkpt><trkpt lat="45.55992806030731" lon="10.478627966893212"><ele>342.0</ele><time>2026-03-28T14:23:02.002Z</time></trkpt><trkpt lat="45.55997565132267" lon="10.478417119305627"><ele>340.6666666666667</ele><time>2026-03-28T14:23:03.002Z</time></trkpt><trkpt lat="45.56001164761208" lon="10.4782185111721"><ele>339.33333333333337</ele><time>2026-03-28T14:23:04.002Z</time></trkpt><trkpt lat="45.56002508406193" lon="10.478001716833681"><ele>338.0</ele><time>2026-03-28T14:23:05.002Z</time></trkpt><trkpt lat="45.5600204189455" lon="10.477745856567676"><ele>337.33333333333337</ele><time>2026-03-28T14:23:06.002Z</time></trkpt><trkpt lat="45.56001220611213" lon="10.477481031470722"><ele>336.6666666666667</ele><time>2026-03-28T14:23:07.002Z</time></trkpt><trkpt lat="45.55999652685622" lon="10.477231870648938"><ele>336.0</ele><time>2026-03-28T14:23:08.002Z</time></trkpt><trkpt lat="45.55998459918587" lon="10.477006941729924"><ele>334.25</ele><time>2026-03-28T14:23:09.002Z</time></trkpt><trkpt lat="45.56000779827673" lon="10.476823452146396"><ele>332.5</ele><time>2026-03-28T14:23:10.002Z</time></trkpt><trkpt lat="45.56004325584079" lon="10.476678465981326"><ele>330.75</ele><time>2026-03-28T14:23:11.003Z</time></trkpt><trkpt lat="45.56009025481958" lon="10.47653521515902"><ele>329.0</ele><time>2026-03-28T14:23:12.003Z</time></trkpt><trkpt lat="45.560164263244545" lon="10.476354855322576"><ele>326.0</ele><time>2026-03-28T14:23:13.003Z</time></trkpt><trkpt lat="45.56024762126555" lon="10.476150155580655"><ele>323.0</ele><time>2026-03-28T14:23:14.003Z</time></trkpt><trkpt lat="45.56035716606857" lon="10.475960012817431"><ele>320.0</ele><time>2026-03-28T14:23:15.003Z</time></trkpt><trkpt lat="45.56046454053916" lon="10.475740421625455"><ele>320.0</ele><time>2026-03-28T14:23:16.003Z</time></trkpt><trkpt lat="45.56057246109919" lon="10.475528980811921"><ele>320.0</ele><time>2026-03-28T14:23:17.003Z</time></trkpt><trkpt lat="45.560668248638684" lon="10.475314601189012"><ele>320.0</ele><time>2026-03-28T14:23:18.003Z</time></trkpt><trkpt lat="45.56074153936016" lon="10.47513807974777"><ele>317.8</ele><time>2026-03-28T14:23:19.003Z</time></trkpt><trkpt lat="45.560795055036806" lon="10.47498506581625"><ele>315.6</ele><time>2026-03-28T14:23:20.003Z</time></trkpt><trkpt lat="45.56082863201392" lon="10.474866106347331"><ele>313.4</ele><time>2026-03-28T14:23:21.003Z</time></trkpt><trkpt lat="45.56084141354063" lon="10.474752036941654"><ele>311.2</ele><time>2026-03-28T14:23:22.003Z</time></trkpt><trkpt lat="45.56081107384228" lon="10.47464676094007"><ele>309.0</ele><time>2026-03-28T14:23:23.003Z</time></trkpt><trkpt lat="45.56074218474356" lon="10.47457150798044"><ele>307.0</ele><time>2026-03-28T14:23:24.003Z</time></trkpt><trkpt lat="45.56063762474934" lon="10.474523191662817"><ele>305.0</ele><time>2026-03-28T14:23:25.003Z</time></trkpt><trkpt lat="45.5605142309693" lon="10.47448772313632"><ele>303.0</ele><time>2026-03-28T14:23:26.003Z</time></trkpt><trkpt lat="45.56037364347693" lon="10.474474456106652"><ele>301.0</ele><time>2026-03-28T14:23:27.003Z</time></trkpt><trkpt lat="45.56023674201922" lon="10.474454577049851"><ele>300.40000000000003</ele><time>2026-03-28T14:23:28.003Z</time></trkpt><trkpt lat="45.56013621799992" lon="10.474400677759126"><ele>299.8</ele><time>2026-03-28T14:23:29.003Z</time></trkpt><trkpt lat="45.56009232135755" lon="10.474283997984797"><ele>299.20000000000005</ele><time>2026-03-28T14:23:30.003Z</time></trkpt><trkpt lat="45.560083355427686" lon="10.474155142723022"><ele>298.6</ele><time>2026-03-28T14:23:31.003Z</time></trkpt><trkpt lat="45.560047528978735" lon="10.473978262108046"><ele>298.0</ele><time>2026-03-28T14:23:32.003Z</time></trkpt><trkpt lat="45.559976267774495" lon="10.473783678858656"><ele>296.66666666666663</ele><time>2026-03-28T14:23:33.003Z</time></trkpt><trkpt lat="45.55992204517609" lon="10.473566532194907"><ele>295.3333333333333</ele><time>2026-03-28T14:23:34.003Z</time></trkpt><trkpt lat="45.5598653642949" lon="10.473332750612746"><ele>294.0</ele><time>2026-03-28T14:23:35.003Z</time></trkpt><trkpt lat="45.55979361814387" lon="10.473084772512799"><ele>293.3333333333333</ele><time>2026-03-28T14:23:36.003Z</time></trkpt><trkpt lat="45.55971591662333" lon="10.472833761763232"><ele>292.66666666666663</ele><time>2026-03-28T14:23:37.003Z</time></trkpt><trkpt lat="45.55964800148586" lon="10.472605825122354"><ele>292.0</ele><time>2026-03-28T14:23:38.003Z</time></trkpt><trkpt lat="45.55959082730444" lon="10.472390743187088"><ele>292.0</ele><time>2026-03-28T14:23:39.003Z</time></trkpt><trkpt lat="45.559549542961236" lon="10.47219957698206"><ele>292.0</ele><time>2026-03-28T14:23:40.003Z</time></trkpt><trkpt lat="45.55952499954129" lon="10.47202293265076"><ele>292.0</ele><time>2026-03-28T14:23:41.003Z</time></trkpt><trkpt lat="45.559517033526625" lon="10.471871528058868"><ele>292.0</ele><time>2026-03-28T14:23:42.003Z</time></trkpt><trkpt lat="45.559502716035034" lon="10.471748104313201"><ele>291.6</ele><time>2026-03-28T14:23:43Z</time></trkpt><trkpt lat="45.55947367056334" lon="10.471666267620272"><ele>291.2</ele><time>2026-03-28T14:23:44Z</time></trkpt><trkpt lat="45.55934881228197" lon="10.471620146145183"><ele>290.8</ele><time>2026-03-28T14:23:46Z</time></trkpt><trkpt lat="45.559247041543415" lon="10.471620612044182"><ele>290.4</ele><time>2026-03-28T14:23:47Z</time></trkpt><trkpt lat="45.559144651887046" lon="10.471555604216599"><ele>290.0</ele><time>2026-03-28T14:23:48Z</time></trkpt><trkpt lat="45.559054118711686" lon="10.47143861787825"><ele>290.0</ele><time>2026-03-28T14:23:49Z</time></trkpt><trkpt lat="45.558943607330946" lon="10.471311786346751"><ele>290.0</ele><time>2026-03-28T14:23:50Z</time></trkpt><trkpt lat="45.55883012525074" lon="10.471183384642222"><ele>290.0</ele><time>2026-03-28T14:23:51Z</time></trkpt><trkpt lat="45.558721694694874" lon="10.471064557918444"><ele>290.0</ele><time>2026-03-28T14:23:52Z</time></trkpt><trkpt lat="45.5586189321864" lon="10.470978027365495"><ele>289.1666666666667</ele><time>2026-03-28T14:23:53Z</time></trkpt><trkpt lat="45.558546877569256" lon="10.470874548346528"><ele>288.33333333333337</ele><time>2026-03-28T14:23:54Z</time></trkpt><trkpt lat="45.55849184243445" lon="10.47075866474062"><ele>287.5</ele><time>2026-03-28T14:23:55Z</time></trkpt><trkpt lat="45.55847754851103" lon="10.470637937849123"><ele>286.6666666666667</ele><time>2026-03-28T14:23:56Z</time></trkpt><trkpt lat="45.55847258013207" lon="10.470522172574276"><ele>285.8333333333333</ele><time>2026-03-28T14:23:57Z</time></trkpt><trkpt lat="45.55842798360846" lon="10.470446782589676"><ele>285.0</ele><time>2026-03-28T14:23:58Z</time></trkpt><trkpt lat="45.558343654194815" lon="10.470411354512715"><ele>285.0</ele><time>2026-03-28T14:23:59Z</time></trkpt><trkpt lat="45.558218385590976" lon="10.470385431401398"><ele>285.0</ele><time>2026-03-28T14:24:00Z</time></trkpt><trkpt lat="45.5580630331748" lon="10.470342806086649"><ele>285.0</ele><time>2026-03-28T14:24:01Z</time></trkpt><trkpt lat="45.55789841989023" lon="10.470313336943772"><ele>284.0</ele><time>2026-03-28T14:24:02Z</time></trkpt><trkpt lat="45.55773495039958" lon="10.470263825274667"><ele>283.0</ele><time>2026-03-28T14:24:03Z</time></trkpt><trkpt lat="45.557574501344554" lon="10.470236705989539"><ele>282.0</ele><time>2026-03-28T14:24:04Z</time></trkpt><trkpt lat="45.55742387454939" lon="10.470231625899935"><ele>282.0</ele><time>2026-03-28T14:24:05Z</time></trkpt><trkpt lat="45.557271042478575" lon="10.47019786108232"><ele>282.0</ele><time>2026-03-28T14:24:06Z</time></trkpt><trkpt lat="45.55712858033707" lon="10.470163566759748"><ele>282.0</ele><time>2026-03-28T14:24:07Z</time></trkpt><trkpt lat="45.55698401236989" lon="10.470116249882155"><ele>282.0</ele><time>2026-03-28T14:24:08Z</time></trkpt><trkpt lat="45.55684800802364" lon="10.470013917339713"><ele>281.6666666666667</ele><time>2026-03-28T14:24:09Z</time></trkpt><trkpt lat="45.55671176427209" lon="10.469907060416242"><ele>281.33333333333337</ele><time>2026-03-28T14:24:10Z</time></trkpt><trkpt lat="45.556568788812946" lon="10.469777983773346"><ele>281.0</ele><time>2026-03-28T14:24:11Z</time></trkpt><trkpt lat="45.556431780869914" lon="10.469651059878167"><ele>280.0</ele><time>2026-03-28T14:24:12Z</time></trkpt><trkpt lat="45.55629793950514" lon="10.469523152647268"><ele>279.0</ele><time>2026-03-28T14:24:13Z</time></trkpt><trkpt lat="45.55616597991116" lon="10.469414644104177"><ele>278.0</ele><time>2026-03-28T14:24:14Z</time></trkpt><trkpt lat="45.55604641344199" lon="10.469279427337632"><ele>277.0</ele><time>2026-03-28T14:24:15.001Z</time></trkpt><trkpt lat="45.55594459135955" lon="10.469116365522757"><ele>276.0</ele><time>2026-03-28T14:24:16.001Z</time></trkpt><trkpt lat="45.55583118548933" lon="10.468959288848584"><ele>275.0</ele><time>2026-03-28T14:24:17.001Z</time></trkpt><trkpt lat="45.555699411417436" lon="10.468805749725377"><ele>274.6666666666667</ele><time>2026-03-28T14:24:18.001Z</time></trkpt><trkpt lat="45.55554592666582" lon="10.468711730618589"><ele>274.3333333333333</ele><time>2026-03-28T14:24:19.001Z</time></trkpt><trkpt lat="45.55537539990384" lon="10.468620801026503"><ele>274.0</ele><time>2026-03-28T14:24:20.001Z</time></trkpt><trkpt lat="45.55519819473108" lon="10.4685233057949"><ele>272.66666666666663</ele><time>2026-03-28T14:24:21.001Z</time></trkpt><trkpt lat="45.55500663628939" lon="10.468432688862961"><ele>271.3333333333333</ele><time>2026-03-28T14:24:22.001Z</time></trkpt><trkpt lat="45.55479750737242" lon="10.468359049985041"><ele>270.0</ele><time>2026-03-28T14:24:23.001Z</time></trkpt><trkpt lat="45.554606172632624" lon="10.468271559066457"><ele>268.0</ele><time>2026-03-28T14:24:24.001Z</time></trkpt><trkpt lat="45.55440679188549" lon="10.468180418572443"><ele>266.0</ele><time>2026-03-28T14:24:25.001Z</time></trkpt><trkpt lat="45.55421624822814" lon="10.468069179923605"><ele>264.0</ele><time>2026-03-28T14:24:26.001Z</time></trkpt><trkpt lat="45.5540196576906" lon="10.467983652146037"><ele>264.3333333333333</ele><time>2026-03-28T14:24:27.001Z</time></trkpt><trkpt lat="45.55381149966784" lon="10.467943143437521"><ele>264.66666666666663</ele><time>2026-03-28T14:24:28.001Z</time></trkpt><trkpt lat="45.553611037126736" lon="10.467909420876351"><ele>265.0</ele><time>2026-03-28T14:24:29.001Z</time></trkpt><trkpt lat="45.55341199619955" lon="10.467897060058405"><ele>262.3333333333333</ele><time>2026-03-28T14:24:30.001Z</time></trkpt><trkpt lat="45.55320063254965" lon="10.467902086982942"><ele>259.6666666666667</ele><time>2026-03-28T14:24:31.001Z</time></trkpt><trkpt lat="45.55298517496186" lon="10.467916823558587"><ele>257.0</ele><time>2026-03-28T14:24:32.001Z</time></trkpt><trkpt lat="45.552770241957596" lon="10.467935291372164"><ele>258.0</ele><time>2026-03-28T14:24:33.001Z</time></trkpt><trkpt lat="45.55255675577" lon="10.467948914730957"><ele>259.0</ele><time>2026-03-28T14:24:34.001Z</time></trkpt><trkpt lat="45.55234790364331" lon="10.46795931733149"><ele>260.0</ele><time>2026-03-28T14:24:35.001Z</time></trkpt><trkpt lat="45.55214290602946" lon="10.467964724791427"><ele>260.0</ele><time>2026-03-28T14:24:36.001Z</time></trkpt><trkpt lat="45.55194679656092" lon="10.46796708016312"><ele>260.0</ele><time>2026-03-28T14:24:37.001Z</time></trkpt><trkpt lat="45.55176178904436" lon="10.467959024387254"><ele>260.0</ele><time>2026-03-28T14:24:38.001Z</time></trkpt><trkpt lat="45.55158265539093" lon="10.467895267928927"><ele>259.0</ele><time>2026-03-28T14:24:39.001Z</time></trkpt><trkpt lat="45.55142020997206" lon="10.467820870405268"><ele>258.0</ele><time>2026-03-28T14:24:40.001Z</time></trkpt><trkpt lat="45.551267821599" lon="10.46771152727941"><ele>257.0</ele><time>2026-03-28T14:24:41.001Z</time></trkpt><trkpt lat="45.55112480389763" lon="10.467576697353584"><ele>259.0</ele><time>2026-03-28T14:24:42.001Z</time></trkpt><trkpt lat="45.55098173671633" lon="10.467416406540769"><ele>261.0</ele><time>2026-03-28T14:24:43.001Z</time></trkpt><trkpt lat="45.55083344318962" lon="10.467247564760102"><ele>263.0</ele><time>2026-03-28T14:24:44.001Z</time></trkpt><trkpt lat="45.55069957600315" lon="10.46712571607269"><ele>262.5</ele><time>2026-03-28T14:24:45.001Z</time></trkpt><trkpt lat="45.55058369998449" lon="10.466993048456947"><ele>262.0</ele><time>2026-03-28T14:24:46.001Z</time></trkpt><trkpt lat="45.55047947997577" lon="10.466882609383253"><ele>261.5</ele><time>2026-03-28T14:24:47.001Z</time></trkpt><trkpt lat="45.55037327865128" lon="10.46681986667197"><ele>261.0</ele><time>2026-03-28T14:24:48.001Z</time></trkpt><trkpt lat="45.550262918244265" lon="10.466853880237432"><ele>262.25</ele><time>2026-03-28T14:24:49.001Z</time></trkpt><trkpt lat="45.5501799955002" lon="10.466916991368358"><ele>263.5</ele><time>2026-03-28T14:24:50.001Z</time></trkpt><trkpt lat="45.55011103523594" lon="10.467037107835143"><ele>264.75</ele><time>2026-03-28T14:24:51.001Z</time></trkpt><trkpt lat="45.55006020347153" lon="10.46719491317369"><ele>266.0</ele><time>2026-03-28T14:24:52.001Z</time></trkpt><trkpt lat="45.54999808324542" lon="10.467354856093962"><ele>266.25</ele><time>2026-03-28T14:24:53.001Z</time></trkpt><trkpt lat="45.54989666858112" lon="10.467504979479967"><ele>266.5</ele><time>2026-03-28T14:24:54.002Z</time></trkpt><trkpt lat="45.54979180549667" lon="10.467642700998251"><ele>266.75</ele><time>2026-03-28T14:24:55.002Z</time></trkpt><trkpt lat="45.549687987808795" lon="10.467756547972638"><ele>267.0</ele><time>2026-03-28T14:24:56.002Z</time></trkpt><trkpt lat="45.54958880189376" lon="10.467837676061196"><ele>267.0</ele><time>2026-03-28T14:24:57.002Z</time></trkpt><trkpt lat="45.549500353071366" lon="10.467889622109576"><ele>267.0</ele><time>2026-03-28T14:24:58.002Z</time></trkpt><trkpt lat="45.54940698273346" lon="10.467907287547009"><ele>267.0</ele><time>2026-03-28T14:24:59.002Z</time></trkpt><trkpt lat="45.549308628052465" lon="10.467879164198067"><ele>267.0</ele><time>2026-03-28T14:25:00.002Z</time></trkpt><trkpt lat="45.54920579194218" lon="10.467783282599939"><ele>267.0</ele><time>2026-03-28T14:25:01.002Z</time></trkpt><trkpt lat="45.549078731792626" lon="10.467715159204026"><ele>267.0</ele><time>2026-03-28T14:25:02.002Z</time></trkpt><trkpt lat="45.54894505087012" lon="10.4676166574243"><ele>267.0</ele><time>2026-03-28T14:25:03.002Z</time></trkpt><trkpt lat="45.54880076312229" lon="10.467522681195671"><ele>267.0</ele><time>2026-03-28T14:25:04.002Z</time></trkpt><trkpt lat="45.54865101802094" lon="10.467427706536247"><ele>266.5</ele><time>2026-03-28T14:25:05.002Z</time></trkpt><trkpt lat="45.548513105933054" lon="10.467334921406653"><ele>266.0</ele><time>2026-03-28T14:25:06.002Z</time></trkpt><trkpt lat="45.548395270472405" lon="10.467234086631423"><ele>265.5</ele><time>2026-03-28T14:25:07.002Z</time></trkpt><trkpt lat="45.548261802654004" lon="10.467165045723089"><ele>265.0</ele><time>2026-03-28T14:25:08.002Z</time></trkpt><trkpt lat="45.548126314046236" lon="10.467076240961516"><ele>264.5</ele><time>2026-03-28T14:25:09.002Z</time></trkpt><trkpt lat="45.54798375340554" lon="10.46698355139581"><ele>264.0</ele><time>2026-03-28T14:25:10.002Z</time></trkpt><trkpt lat="45.547853028655695" lon="10.466889429444604"><ele>263.5</ele><time>2026-03-28T14:25:11.002Z</time></trkpt><trkpt lat="45.547745074927796" lon="10.466769938560587"><ele>263.0</ele><time>2026-03-28T14:25:12.002Z</time></trkpt><trkpt lat="45.547634617139046" lon="10.466668217749314"><ele>262.1666666666667</ele><time>2026-03-28T14:25:13.002Z</time></trkpt><trkpt lat="45.54755305971414" lon="10.466531234916062"><ele>261.33333333333337</ele><time>2026-03-28T14:25:14.002Z</time></trkpt><trkpt lat="45.547495739978146" lon="10.466410584930939"><ele>260.5</ele><time>2026-03-28T14:25:15.002Z</time></trkpt><trkpt lat="45.54745975518363" lon="10.466328464196375"><ele>259.6666666666667</ele><time>2026-03-28T14:25:16.002Z</time></trkpt><trkpt lat="45.5474304020036" lon="10.466246346586134"><ele>258.8333333333333</ele><time>2026-03-28T14:25:18.002Z</time></trkpt><trkpt lat="45.547408662983095" lon="10.466141037586212"><ele>258.0</ele><time>2026-03-28T14:25:21.002Z</time></trkpt><trkpt lat="45.54740475290296" lon="10.465975559192623"><ele>257.8</ele><time>2026-03-28T14:25:23.002Z</time></trkpt><trkpt lat="45.54738520258481" lon="10.465878455095433"><ele>257.6</ele><time>2026-03-28T14:25:24.002Z</time></trkpt><trkpt lat="45.54736042609369" lon="10.465752401959422"><ele>257.4</ele><time>2026-03-28T14:25:25.002Z</time></trkpt><trkpt lat="45.54735372616569" lon="10.465603589953751"><ele>257.2</ele><time>2026-03-28T14:25:26.002Z</time></trkpt><trkpt lat="45.54738357223584" lon="10.465426535789458"><ele>257.0</ele><time>2026-03-28T14:25:27.002Z</time></trkpt><trkpt lat="45.54740580920697" lon="10.465236389244057"><ele>257.0</ele><time>2026-03-28T14:25:28.002Z</time></trkpt><trkpt lat="45.547427393633306" lon="10.465038712771072"><ele>257.0</ele><time>2026-03-28T14:25:29.002Z</time></trkpt><trkpt lat="45.5474443106281" lon="10.464829375772426"><ele>257.0</ele><time>2026-03-28T14:25:30.002Z</time></trkpt><trkpt lat="45.54746134774306" lon="10.464614480021657"><ele>257.0</ele><time>2026-03-28T14:25:31.002Z</time></trkpt><trkpt lat="45.547484454066144" lon="10.464400185444708"><ele>257.0</ele><time>2026-03-28T14:25:32.003Z</time></trkpt><trkpt lat="45.54750828929158" lon="10.464175397139178"><ele>257.0</ele><time>2026-03-28T14:25:33.003Z</time></trkpt><trkpt lat="45.547527737092054" lon="10.46393720460951"><ele>257.0</ele><time>2026-03-28T14:25:34.003Z</time></trkpt><trkpt lat="45.547566332091144" lon="10.463698270257062"><ele>256.0</ele><time>2026-03-28T14:25:35.003Z</time></trkpt><trkpt lat="45.54757520464424" lon="10.463445680040053"><ele>255.0</ele><time>2026-03-28T14:25:36.003Z</time></trkpt><trkpt lat="45.54760302439008" lon="10.463190985799226"><ele>254.0</ele><time>2026-03-28T14:25:37.003Z</time></trkpt><trkpt lat="45.54762954360667" lon="10.462931033825555"><ele>252.66666666666669</ele><time>2026-03-28T14:25:38.003Z</time></trkpt><trkpt lat="45.54765920232115" lon="10.462680348859127"><ele>251.33333333333331</ele><time>2026-03-28T14:25:39.003Z</time></trkpt><trkpt lat="45.54768864909545" lon="10.462421627132834"><ele>250.0</ele><time>2026-03-28T14:25:40.003Z</time></trkpt><trkpt lat="45.54771354470599" lon="10.462156424522304"><ele>249.0</ele><time>2026-03-28T14:25:41.003Z</time></trkpt><trkpt lat="45.547735985471576" lon="10.46189529489759"><ele>248.0</ele><time>2026-03-28T14:25:42.003Z</time></trkpt><trkpt lat="45.54775450007975" lon="10.461641142583417"><ele>247.0</ele><time>2026-03-28T14:25:43.003Z</time></trkpt><trkpt lat="45.547795784443935" lon="10.461393911114905"><ele>247.0</ele><time>2026-03-28T14:25:44.003Z</time></trkpt><trkpt lat="45.54784035015704" lon="10.461154927006778"><ele>247.0</ele><time>2026-03-28T14:25:45.003Z</time></trkpt><trkpt lat="45.54790279320791" lon="10.460915852243815"><ele>247.0</ele><time>2026-03-28T14:25:46.003Z</time></trkpt><trkpt lat="45.54797342052292" lon="10.46070133873653"><ele>246.33333333333331</ele><time>2026-03-28T14:25:47.003Z</time></trkpt><trkpt lat="45.54804644760403" lon="10.460497075636747"><ele>245.66666666666669</ele><time>2026-03-28T14:25:48.003Z</time></trkpt><trkpt lat="45.54811404963764" lon="10.460290443384174"><ele>245.0</ele><time>2026-03-28T14:25:49Z</time></trkpt><trkpt lat="45.548175786800826" lon="10.460110835946464"><ele>245.0</ele><time>2026-03-28T14:25:50Z</time></trkpt><trkpt lat="45.54824254031709" lon="10.45994297955475"><ele>245.0</ele><time>2026-03-28T14:25:51Z</time></trkpt><trkpt lat="45.54830187676209" lon="10.459789907029768"><ele>245.0</ele><time>2026-03-28T14:25:52Z</time></trkpt><trkpt lat="45.54835834206697" lon="10.459658997258892"><ele>245.0</ele><time>2026-03-28T14:25:53Z</time></trkpt><trkpt lat="45.54841488685182" lon="10.459543235739028"><ele>245.00000000000003</ele><time>2026-03-28T14:25:54Z</time></trkpt><trkpt lat="45.548465694340656" lon="10.459442433560087"><ele>245.0</ele><time>2026-03-28T14:25:55Z</time></trkpt><trkpt lat="45.54849662503277" lon="10.459341418094468"><ele>245.0</ele><time>2026-03-28T14:25:56Z</time></trkpt><trkpt lat="45.54849743350595" lon="10.459239834798101"><ele>245.0</ele><time>2026-03-28T14:25:57Z</time></trkpt><trkpt lat="45.54845949709941" lon="10.459133650426853"><ele>245.00000000000003</ele><time>2026-03-28T14:25:58Z</time></trkpt><trkpt lat="45.548379962924756" lon="10.45901531508843"><ele>245.0</ele><time>2026-03-28T14:25:59Z</time></trkpt><trkpt lat="45.54829081496084" lon="10.458880288281941"><ele>244.0</ele><time>2026-03-28T14:26:00Z</time></trkpt><trkpt lat="45.5482253182848" lon="10.45870140784477"><ele>243.0</ele><time>2026-03-28T14:26:01Z</time></trkpt><trkpt lat="45.54815846892286" lon="10.458521638795109"><ele>242.0</ele><time>2026-03-28T14:26:02Z</time></trkpt><trkpt lat="45.54807612815355" lon="10.458361005491192"><ele>241.0</ele><time>2026-03-28T14:26:03Z</time></trkpt><trkpt lat="45.547964770133355" lon="10.45822703320331"><ele>240.66666666666666</ele><time>2026-03-28T14:26:04Z</time></trkpt><trkpt lat="45.5478397642088" lon="10.458085076340868"><ele>240.33333333333331</ele><time>2026-03-28T14:26:05Z</time></trkpt><trkpt lat="45.54771680479306" lon="10.457943453039618"><ele>240.0</ele><time>2026-03-28T14:26:06Z</time></trkpt><trkpt lat="45.547595808523255" lon="10.45778384508804"><ele>240.0</ele><time>2026-03-28T14:26:07Z</time></trkpt><trkpt lat="45.547476065322584" lon="10.457615927770336"><ele>240.0</ele><time>2026-03-28T14:26:08Z</time></trkpt><trkpt lat="45.54735252194906" lon="10.457450784492133"><ele>240.0</ele><time>2026-03-28T14:26:09Z</time></trkpt><trkpt lat="45.54723704680694" lon="10.457291442802402"><ele>240.0</ele><time>2026-03-28T14:26:10Z</time></trkpt><trkpt lat="45.5471287190513" lon="10.457144612349126"><ele>240.0</ele><time>2026-03-28T14:26:11Z</time></trkpt><trkpt lat="45.54701852826375" lon="10.456981422269353"><ele>240.0</ele><time>2026-03-28T14:26:12Z</time></trkpt><trkpt lat="45.546923512249485" lon="10.456795939980482"><ele>240.0</ele><time>2026-03-28T14:26:13Z</time></trkpt><trkpt lat="45.54687340007113" lon="10.45657918863971"><ele>240.0</ele><time>2026-03-28T14:26:14Z</time></trkpt><trkpt lat="45.54681670681519" lon="10.456354329091514"><ele>240.0</ele><time>2026-03-28T14:26:15Z</time></trkpt><trkpt lat="45.546794114321656" lon="10.456109249474341"><ele>240.0</ele><time>2026-03-28T14:26:16Z</time></trkpt><trkpt lat="45.54678512782129" lon="10.45586052603808"><ele>240.0</ele><time>2026-03-28T14:26:17Z</time></trkpt><trkpt lat="45.54676820472045" lon="10.455612137005573"><ele>240.0</ele><time>2026-03-28T14:26:18Z</time></trkpt><trkpt lat="45.54674795684932" lon="10.45537021425578"><ele>240.0</ele><time>2026-03-28T14:26:19Z</time></trkpt><trkpt lat="45.546722462644865" lon="10.455122672073903"><ele>240.0</ele><time>2026-03-28T14:26:20Z</time></trkpt><trkpt lat="45.54670056310653" lon="10.454873532259644"><ele>240.0</ele><time>2026-03-28T14:26:21Z</time></trkpt><trkpt lat="45.54667882317727" lon="10.454621076917835"><ele>239.33333333333331</ele><time>2026-03-28T14:26:22Z</time></trkpt><trkpt lat="45.546655741856405" lon="10.454375240837448"><ele>238.66666666666666</ele><time>2026-03-28T14:26:23Z</time></trkpt><trkpt lat="45.54663580018284" lon="10.45413752425833"><ele>238.0</ele><time>2026-03-28T14:26:24.001Z</time></trkpt><trkpt lat="45.546615432959115" lon="10.453898705055112"><ele>237.66666666666666</ele><time>2026-03-28T14:26:25.001Z</time></trkpt><trkpt lat="45.546590005749266" lon="10.453655096459569"><ele>237.33333333333331</ele><time>2026-03-28T14:26:26.001Z</time></trkpt><trkpt lat="45.54656004946898" lon="10.453415874930023"><ele>237.0</ele><time>2026-03-28T14:26:27.001Z</time></trkpt><trkpt lat="45.546517434802865" lon="10.453182808669828"><ele>237.0</ele><time>2026-03-28T14:26:28.001Z</time></trkpt><trkpt lat="45.54646490422204" lon="10.452962918970506"><ele>237.0</ele><time>2026-03-28T14:26:29.001Z</time></trkpt><trkpt lat="45.54639768582756" lon="10.452749613628809"><ele>237.0</ele><time>2026-03-28T14:26:30.001Z</time></trkpt><trkpt lat="45.54631504520326" lon="10.45253537038753"><ele>236.33333333333331</ele><time>2026-03-28T14:26:31.001Z</time></trkpt><trkpt lat="45.54622564873649" lon="10.452332756906129"><ele>235.66666666666666</ele><time>2026-03-28T14:26:32.001Z</time></trkpt><trkpt lat="45.546126965857404" lon="10.452116840575336"><ele>235.0</ele><time>2026-03-28T14:26:33.001Z</time></trkpt><trkpt lat="45.546030748570324" lon="10.451902077448937"><ele>235.0</ele><time>2026-03-28T14:26:34.001Z</time></trkpt><trkpt lat="45.54593291100021" lon="10.451679886898829"><ele>235.0</ele><time>2026-03-28T14:26:35.001Z</time></trkpt><trkpt lat="45.5458401591956" lon="10.451456948626952"><ele>235.0</ele><time>2026-03-28T14:26:36.001Z</time></trkpt><trkpt lat="45.54574848926086" lon="10.451236646293822"><ele>235.0</ele><time>2026-03-28T14:26:37.001Z</time></trkpt><trkpt lat="45.545653428138344" lon="10.451024376561257"><ele>235.0</ele><time>2026-03-28T14:26:38.001Z</time></trkpt><trkpt lat="45.545556973039396" lon="10.450799806021239"><ele>235.0</ele><time>2026-03-28T14:26:39.001Z</time></trkpt><trkpt lat="45.54546440060452" lon="10.450586592150062"><ele>234.33333333333331</ele><time>2026-03-28T14:26:40.001Z</time></trkpt><trkpt lat="45.54537356559272" lon="10.45038215899641"><ele>233.66666666666669</ele><time>2026-03-28T14:26:41.001Z</time></trkpt><trkpt lat="45.545276715988614" lon="10.450166364526167"><ele>233.0</ele><time>2026-03-28T14:26:42.001Z</time></trkpt><trkpt lat="45.54518724898067" lon="10.449961077135626"><ele>233.0</ele><time>2026-03-28T14:26:43.001Z</time></trkpt><trkpt lat="45.54509398397021" lon="10.449748456504874"><ele>233.0</ele><time>2026-03-28T14:26:44.001Z</time></trkpt><trkpt lat="45.54499718253682" lon="10.449519850913"><ele>233.0</ele><time>2026-03-28T14:26:45.001Z</time></trkpt><trkpt lat="45.54489696575678" lon="10.449283796073752"><ele>232.66666666666669</ele><time>2026-03-28T14:26:46.001Z</time></trkpt><trkpt lat="45.5447952784166" lon="10.449040258593527"><ele>232.33333333333331</ele><time>2026-03-28T14:26:47.001Z</time></trkpt><trkpt lat="45.54470474637701" lon="10.44878353949698"><ele>232.0</ele><time>2026-03-28T14:26:48.001Z</time></trkpt><trkpt lat="45.54458567741604" lon="10.44854972827329"><ele>231.0</ele><time>2026-03-28T14:26:49.001Z</time></trkpt><trkpt lat="45.54448019951674" lon="10.448304372225117"><ele>230.0</ele><time>2026-03-28T14:26:50.001Z</time></trkpt><trkpt lat="45.54437536502609" lon="10.448054938727049"><ele>229.0</ele><time>2026-03-28T14:26:51.001Z</time></trkpt><trkpt lat="45.54426927734854" lon="10.447815027931085"><ele>229.0</ele><time>2026-03-28T14:26:52.001Z</time></trkpt><trkpt lat="45.54416914855452" lon="10.447584256063022"><ele>229.0</ele><time>2026-03-28T14:26:53.001Z</time></trkpt><trkpt lat="45.5440831216178" lon="10.447361763369676"><ele>229.0</ele><time>2026-03-28T14:26:54.001Z</time></trkpt><trkpt lat="45.543977977036064" lon="10.447131560878455"><ele>229.0</ele><time>2026-03-28T14:26:55.001Z</time></trkpt><trkpt lat="45.54387497483691" lon="10.446893427081925"><ele>229.0</ele><time>2026-03-28T14:26:56.001Z</time></trkpt><trkpt lat="45.54377431977781" lon="10.446653989751509"><ele>229.0</ele><time>2026-03-28T14:26:57.001Z</time></trkpt><trkpt lat="45.543672936242274" lon="10.446416923343742"><ele>229.0</ele><time>2026-03-28T14:26:58.002Z</time></trkpt><trkpt lat="45.54356914447638" lon="10.446179491613933"><ele>229.0</ele><time>2026-03-28T14:26:59.002Z</time></trkpt><trkpt lat="45.54346820559961" lon="10.445946463894977"><ele>229.0</ele><time>2026-03-28T14:27:00.002Z</time></trkpt><trkpt lat="45.54337197207641" lon="10.445720184232927"><ele>229.0</ele><time>2026-03-28T14:27:01.002Z</time></trkpt><trkpt lat="45.54327538139113" lon="10.445496629992881"><ele>229.0</ele><time>2026-03-28T14:27:02.002Z</time></trkpt><trkpt lat="45.54318202268458" lon="10.445275504908597"><ele>229.0</ele><time>2026-03-28T14:27:03.002Z</time></trkpt><trkpt lat="45.54308815068115" lon="10.445056573250081"><ele>229.66666666666666</ele><time>2026-03-28T14:27:04.002Z</time></trkpt><trkpt lat="45.542992091529754" lon="10.444828313725168"><ele>230.33333333333331</ele><time>2026-03-28T14:27:05.002Z</time></trkpt><trkpt lat="45.54290310955181" lon="10.444611548772688"><ele>231.0</ele><time>2026-03-28T14:27:06.002Z</time></trkpt><trkpt lat="45.54281619884006" lon="10.444405646137012"><ele>229.75</ele><time>2026-03-28T14:27:07.002Z</time></trkpt><trkpt lat="45.54273102935758" lon="10.4442181833778"><ele>228.5</ele><time>2026-03-28T14:27:08.002Z</time></trkpt><trkpt lat="45.54264608690678" lon="10.44405026370116"><ele>227.25</ele><time>2026-03-28T14:27:09.002Z</time></trkpt><trkpt lat="45.54255506366043" lon="10.443899551696164"><ele>226.0</ele><time>2026-03-28T14:27:10.002Z</time></trkpt><trkpt lat="45.542451305646395" lon="10.443773161893791"><ele>224.0</ele><time>2026-03-28T14:27:11.002Z</time></trkpt><trkpt lat="45.542337394761425" lon="10.44367610545111"><ele>222.00000000000003</ele><time>2026-03-28T14:27:12.002Z</time></trkpt><trkpt lat="45.54222319288078" lon="10.443610212813647"><ele>220.00000000000003</ele><time>2026-03-28T14:27:13.002Z</time></trkpt><trkpt lat="45.54212753423897" lon="10.443583980677309"><ele>218.0</ele><time>2026-03-28T14:27:14.002Z</time></trkpt><trkpt lat="45.54203885933424" lon="10.443562347204772"><ele>216.0</ele><time>2026-03-28T14:27:15.002Z</time></trkpt><trkpt lat="45.54196545177504" lon="10.443535708438578"><ele>216.0</ele><time>2026-03-28T14:27:16.002Z</time></trkpt><trkpt lat="45.541901895288156" lon="10.443522086410752"><ele>216.0</ele><time>2026-03-28T14:27:17.002Z</time></trkpt><trkpt lat="45.541827894052396" lon="10.443481825596328"><ele>216.0</ele><time>2026-03-28T14:27:20.002Z</time></trkpt><trkpt lat="45.54175793239703" lon="10.443642631928304"><ele>216.0</ele><time>2026-03-28T14:27:23.002Z</time></trkpt><trkpt lat="45.54174260061425" lon="10.443739072143524"><ele>216.0</ele><time>2026-03-28T14:27:24.002Z</time></trkpt><trkpt lat="45.54170506454452" lon="10.443845983113908"><ele>216.0</ele><time>2026-03-28T14:27:25.002Z</time></trkpt><trkpt lat="45.54166816303857" lon="10.443979677890786"><ele>217.75</ele><time>2026-03-28T14:27:26.002Z</time></trkpt><trkpt lat="45.54162886958929" lon="10.444135419975376"><ele>219.5</ele><time>2026-03-28T14:27:27.002Z</time></trkpt><trkpt lat="45.54158230825886" lon="10.444312841711145"><ele>221.25</ele><time>2026-03-28T14:27:28.002Z</time></trkpt><trkpt lat="45.541529494239725" lon="10.44450307024012"><ele>223.0</ele><time>2026-03-28T14:27:29.002Z</time></trkpt><trkpt lat="45.54147666531543" lon="10.444696354470908"><ele>223.5</ele><time>2026-03-28T14:27:30.002Z</time></trkpt><trkpt lat="45.54142529817997" lon="10.444884639163595"><ele>224.0</ele><time>2026-03-28T14:27:31.002Z</time></trkpt><trkpt lat="45.54137706493389" lon="10.445058303281863"><ele>224.5</ele><time>2026-03-28T14:27:32.002Z</time></trkpt><trkpt lat="45.54133455757448" lon="10.445216799288694"><ele>225.0</ele><time>2026-03-28T14:27:33.003Z</time></trkpt><trkpt lat="45.54129901436828" lon="10.445350241333367"><ele>224.8</ele><time>2026-03-28T14:27:34.003Z</time></trkpt><trkpt lat="45.54126358871726" lon="10.445466926793166"><ele>224.6</ele><time>2026-03-28T14:27:35.003Z</time></trkpt><trkpt lat="45.54123133202684" lon="10.445568172293791"><ele>224.39999999999998</ele><time>2026-03-28T14:27:36.003Z</time></trkpt><trkpt lat="45.5411894577981" lon="10.445656139058153"><ele>224.2</ele><time>2026-03-28T14:27:37.003Z</time></trkpt><trkpt lat="45.54112767628033" lon="10.445720571751751"><ele>224.0</ele><time>2026-03-28T14:27:38.003Z</time></trkpt><trkpt lat="45.540956032330854" lon="10.445760141595178"><ele>224.0</ele><time>2026-03-28T14:27:40.003Z</time></trkpt><trkpt lat="45.54085008541059" lon="10.445741893944929"><ele>224.0</ele><time>2026-03-28T14:27:41.003Z</time></trkpt><trkpt lat="45.54073308862659" lon="10.445704897491554"><ele>224.0</ele><time>2026-03-28T14:27:42.003Z</time></trkpt><trkpt lat="45.540603559723905" lon="10.445658609643495"><ele>224.0</ele><time>2026-03-28T14:27:43.003Z</time></trkpt><trkpt lat="45.54047245071742" lon="10.445612993260855"><ele>223.5</ele><time>2026-03-28T14:27:44.003Z</time></trkpt><trkpt lat="45.54033790445269" lon="10.445561113284924"><ele>223.0</ele><time>2026-03-28T14:27:45.003Z</time></trkpt><trkpt lat="45.5401987419503" lon="10.445492395915597"><ele>222.5</ele><time>2026-03-28T14:27:46.003Z</time></trkpt><trkpt lat="45.54006357084975" lon="10.445443377408719"><ele>222.0</ele><time>2026-03-28T14:27:47.003Z</time></trkpt><trkpt lat="45.5399435490436" lon="10.445400092583958"><ele>221.8</ele><time>2026-03-28T14:27:48.003Z</time></trkpt><trkpt lat="45.53983939098351" lon="10.445363678870573"><ele>221.6</ele><time>2026-03-28T14:27:49.003Z</time></trkpt><trkpt lat="45.53974506962678" lon="10.445330704150358"><ele>221.40000000000003</ele><time>2026-03-28T14:27:50.003Z</time></trkpt><trkpt lat="45.53964462436231" lon="10.445295509479024"><ele>221.20000000000002</ele><time>2026-03-28T14:27:51.003Z</time></trkpt><trkpt lat="45.53953846849505" lon="10.445258292002382"><ele>221.0</ele><time>2026-03-28T14:27:52.003Z</time></trkpt><trkpt lat="45.539429743402785" lon="10.445220173757868"><ele>220.66666666666669</ele><time>2026-03-28T14:27:53.003Z</time></trkpt><trkpt lat="45.5393396078532" lon="10.445188572894642"><ele>220.33333333333334</ele><time>2026-03-28T14:27:54.003Z</time></trkpt><trkpt lat="45.53925924842275" lon="10.445161666637398"><ele>220.0</ele><time>2026-03-28T14:27:55Z</time></trkpt><trkpt lat="45.5391937912357" lon="10.445140328392908"><ele>219.66666666666669</ele><time>2026-03-28T14:27:56Z</time></trkpt><trkpt lat="45.53910412759605" lon="10.445128735575748"><ele>219.33333333333334</ele><time>2026-03-28T14:27:58Z</time></trkpt><trkpt lat="45.5390319100702" lon="10.445091554933958"><ele>219.0</ele><time>2026-03-28T14:28:00Z</time></trkpt><trkpt lat="45.53896350192781" lon="10.445026865873553"><ele>219.0</ele><time>2026-03-28T14:28:02Z</time></trkpt><trkpt lat="45.53886932194948" lon="10.444921158914507"><ele>219.0</ele><time>2026-03-28T14:28:04Z</time></trkpt><trkpt lat="45.538755645139254" lon="10.444978310225896"><ele>219.0</ele><time>2026-03-28T14:28:05Z</time></trkpt><trkpt lat="45.538651631634195" lon="10.444976291943837"><ele>219.0</ele><time>2026-03-28T14:28:06Z</time></trkpt><trkpt lat="45.538544806077034" lon="10.444914312843752"><ele>219.5</ele><time>2026-03-28T14:28:07Z</time></trkpt><trkpt lat="45.53842247957143" lon="10.444870550859427"><ele>220.0</ele><time>2026-03-28T14:28:08Z</time></trkpt><trkpt lat="45.53828575739146" lon="10.444822098485073"><ele>220.5</ele><time>2026-03-28T14:28:09Z</time></trkpt><trkpt lat="45.538148120837846" lon="10.444773419800997"><ele>221.0</ele><time>2026-03-28T14:28:10Z</time></trkpt><trkpt lat="45.53799576879383" lon="10.444740680208252"><ele>221.33333333333334</ele><time>2026-03-28T14:28:11Z</time></trkpt><trkpt lat="45.53783701789688" lon="10.444680303314875"><ele>221.66666666666669</ele><time>2026-03-28T14:28:12Z</time></trkpt><trkpt lat="45.53767316257518" lon="10.444623333514027"><ele>222.0</ele><time>2026-03-28T14:28:13Z</time></trkpt><trkpt lat="45.53751135584575" lon="10.444545740572755"><ele>220.66666666666669</ele><time>2026-03-28T14:28:14Z</time></trkpt><trkpt lat="45.53734248956762" lon="10.444506705577844"><ele>219.33333333333334</ele><time>2026-03-28T14:28:15Z</time></trkpt><trkpt lat="45.53718186713121" lon="10.444424213120445"><ele>218.0</ele><time>2026-03-28T14:28:16Z</time></trkpt><trkpt lat="45.53701743452727" lon="10.444370887800956"><ele>217.33333333333334</ele><time>2026-03-28T14:28:17Z</time></trkpt><trkpt lat="45.53684985026467" lon="10.444362297644913"><ele>216.66666666666669</ele><time>2026-03-28T14:28:18Z</time></trkpt><trkpt lat="45.536674781030456" lon="10.444342162443531"><ele>216.0</ele><time>2026-03-28T14:28:19Z</time></trkpt><trkpt lat="45.53649388685385" lon="10.44434559650833"><ele>216.0</ele><time>2026-03-28T14:28:20Z</time></trkpt><trkpt lat="45.53631503776134" lon="10.444356326747133"><ele>216.0</ele><time>2026-03-28T14:28:21Z</time></trkpt><trkpt lat="45.53612605925364" lon="10.444356957652657"><ele>216.0</ele><time>2026-03-28T14:28:22Z</time></trkpt><trkpt lat="45.535934257141" lon="10.444376617145146"><ele>214.66666666666669</ele><time>2026-03-28T14:28:23Z</time></trkpt><trkpt lat="45.535738024694304" lon="10.444395375957184"><ele>213.33333333333334</ele><time>2026-03-28T14:28:24Z</time></trkpt><trkpt lat="45.535543909274914" lon="10.444409155989993"><ele>212.0</ele><time>2026-03-28T14:28:25Z</time></trkpt><trkpt lat="45.53535359375621" lon="10.444425762595793"><ele>211.66666666666669</ele><time>2026-03-28T14:28:26Z</time></trkpt><trkpt lat="45.535170679606814" lon="10.444388289506545"><ele>211.33333333333331</ele><time>2026-03-28T14:28:27Z</time></trkpt><trkpt lat="45.53498557348164" lon="10.444326807644266"><ele>211.0</ele><time>2026-03-28T14:28:28Z</time></trkpt><trkpt lat="45.53480821899368" lon="10.444204987144415"><ele>211.0</ele><time>2026-03-28T14:28:29Z</time></trkpt><trkpt lat="45.53463253444574" lon="10.444095244774125"><ele>211.0</ele><time>2026-03-28T14:28:30.001Z</time></trkpt><trkpt lat="45.534448210135196" lon="10.444001227264812"><ele>211.0</ele><time>2026-03-28T14:28:31.001Z</time></trkpt><trkpt lat="45.5342569179195" lon="10.44393556670081"><ele>211.0</ele><time>2026-03-28T14:28:32.001Z</time></trkpt><trkpt lat="45.53406377846653" lon="10.443924089999134"><ele>211.0</ele><time>2026-03-28T14:28:33.001Z</time></trkpt><trkpt lat="45.53386424747744" lon="10.443911665639234"><ele>211.0</ele><time>2026-03-28T14:28:34.001Z</time></trkpt><trkpt lat="45.53366530001922" lon="10.44388965405746"><ele>210.66666666666666</ele><time>2026-03-28T14:28:35.001Z</time></trkpt><trkpt lat="45.53346155846515" lon="10.443882789729953"><ele>210.33333333333331</ele><time>2026-03-28T14:28:36.001Z</time></trkpt><trkpt lat="45.53326616055585" lon="10.443877966707493"><ele>210.0</ele><time>2026-03-28T14:28:37.001Z</time></trkpt><trkpt lat="45.5330687652258" lon="10.44387159911495"><ele>210.33333333333331</ele><time>2026-03-28T14:28:38.001Z</time></trkpt><trkpt lat="45.532873556432236" lon="10.443862796802568"><ele>210.66666666666666</ele><time>2026-03-28T14:28:39.001Z</time></trkpt><trkpt lat="45.53267611678415" lon="10.443847350532343"><ele>211.0</ele><time>2026-03-28T14:28:40.001Z</time></trkpt><trkpt lat="45.5324862940858" lon="10.44384765922576"><ele>210.33333333333331</ele><time>2026-03-28T14:28:41.001Z</time></trkpt><trkpt lat="45.53230440919905" lon="10.44379197477487"><ele>209.66666666666669</ele><time>2026-03-28T14:28:42.001Z</time></trkpt><trkpt lat="45.53213053254876" lon="10.443757556906792"><ele>209.0</ele><time>2026-03-28T14:28:43.001Z</time></trkpt><trkpt lat="45.531975248145976" lon="10.443726276560193"><ele>209.0</ele><time>2026-03-28T14:28:44.001Z</time></trkpt><trkpt lat="45.53183310641" lon="10.443697643734927"><ele>209.0</ele><time>2026-03-28T14:28:45.001Z</time></trkpt><trkpt lat="45.53169424661763" lon="10.443692021408491"><ele>209.0</ele><time>2026-03-28T14:28:46.001Z</time></trkpt><trkpt lat="45.53156682306054" lon="10.44366377143866"><ele>209.0</ele><time>2026-03-28T14:28:47.001Z</time></trkpt><trkpt lat="45.53144809010624" lon="10.443636444953809"><ele>209.0</ele><time>2026-03-28T14:28:48.001Z</time></trkpt><trkpt lat="45.53133847889142" lon="10.443610390630928"><ele>209.0</ele><time>2026-03-28T14:28:49.001Z</time></trkpt><trkpt lat="45.531239446899" lon="10.443562753222317"><ele>209.0</ele><time>2026-03-28T14:28:50.001Z</time></trkpt><trkpt lat="45.53114389442265" lon="10.44353326445042"><ele>209.0</ele><time>2026-03-28T14:28:51.001Z</time></trkpt><trkpt lat="45.53103525709325" lon="10.443499519026942"><ele>209.0</ele><time>2026-03-28T14:28:52.001Z</time></trkpt><trkpt lat="45.53093210908016" lon="10.443478904125602"><ele>209.00000000000003</ele><time>2026-03-28T14:28:53.001Z</time></trkpt><trkpt lat="45.53084897445302" lon="10.443413814372615"><ele>209.0</ele><time>2026-03-28T14:28:54.001Z</time></trkpt><trkpt lat="45.53077736449391" lon="10.443334590962323"><ele>209.0</ele><time>2026-03-28T14:28:55.001Z</time></trkpt><trkpt lat="45.53071701285142" lon="10.443246398102334"><ele>209.0</ele><time>2026-03-28T14:28:56.001Z</time></trkpt><trkpt lat="45.53065845215948" lon="10.443172142625771"><ele>209.00000000000003</ele><time>2026-03-28T14:28:57.001Z</time></trkpt><trkpt lat="45.53059195387057" lon="10.44312369897148"><ele>209.0</ele><time>2026-03-28T14:28:58.001Z</time></trkpt><trkpt lat="45.53052044766043" lon="10.443117122469888"><ele>209.0</ele><time>2026-03-28T14:28:59.001Z</time></trkpt><trkpt lat="45.53041137190257" lon="10.443231749888161"><ele>209.0</ele><time>2026-03-28T14:29:01.001Z</time></trkpt><trkpt lat="45.53039743380248" lon="10.443349752154298"><ele>209.0</ele><time>2026-03-28T14:29:02.002Z</time></trkpt><trkpt lat="45.53041511910464" lon="10.44347442855272"><ele>209.0</ele><time>2026-03-28T14:29:03.002Z</time></trkpt><trkpt lat="45.53046006971202" lon="10.443613465330774"><ele>209.0</ele><time>2026-03-28T14:29:04.002Z</time></trkpt><trkpt lat="45.53050234618645" lon="10.443759623102515"><ele>209.25</ele><time>2026-03-28T14:29:05.002Z</time></trkpt><trkpt lat="45.530542597765326" lon="10.443930811453912"><ele>209.5</ele><time>2026-03-28T14:29:06.002Z</time></trkpt><trkpt lat="45.53050388666058" lon="10.444139161100516"><ele>209.75</ele><time>2026-03-28T14:29:07.002Z</time></trkpt><trkpt lat="45.530473366766756" lon="10.444348131885727"><ele>210.0</ele><time>2026-03-28T14:29:08.002Z</time></trkpt><trkpt lat="45.53043262812507" lon="10.444579389488482"><ele>211.33333333333331</ele><time>2026-03-28T14:29:09.002Z</time></trkpt><trkpt lat="45.530390204500186" lon="10.4448147920786"><ele>212.66666666666666</ele><time>2026-03-28T14:29:10.002Z</time></trkpt><trkpt lat="45.53034613661502" lon="10.445063291795806"><ele>214.0</ele><time>2026-03-28T14:29:11.002Z</time></trkpt><trkpt lat="45.5303001520132" lon="10.445323303042409"><ele>213.66666666666666</ele><time>2026-03-28T14:29:12.002Z</time></trkpt><trkpt lat="45.53025038810063" lon="10.44558692086317"><ele>213.33333333333331</ele><time>2026-03-28T14:29:13.002Z</time></trkpt><trkpt lat="45.53019913609284" lon="10.445846271593187"><ele>213.0</ele><time>2026-03-28T14:29:14.002Z</time></trkpt><trkpt lat="45.53014561735074" lon="10.446101242145467"><ele>212.66666666666669</ele><time>2026-03-28T14:29:15.002Z</time></trkpt><trkpt lat="45.530084975986995" lon="10.446360872488661"><ele>212.33333333333334</ele><time>2026-03-28T14:29:16.002Z</time></trkpt><trkpt lat="45.53001963678898" lon="10.44661149686785"><ele>212.0</ele><time>2026-03-28T14:29:17.002Z</time></trkpt><trkpt lat="45.52994645537591" lon="10.446830920357932"><ele>212.0</ele><time>2026-03-28T14:29:18.002Z</time></trkpt><trkpt lat="45.52986263595091" lon="10.44702339579816"><ele>212.0</ele><time>2026-03-28T14:29:19.002Z</time></trkpt><trkpt lat="45.52976228996594" lon="10.447184532788148"><ele>212.0</ele><time>2026-03-28T14:29:20.002Z</time></trkpt><trkpt lat="45.52962641239883" lon="10.44728915208531"><ele>212.66666666666669</ele><time>2026-03-28T14:29:21.002Z</time></trkpt><trkpt lat="45.52948878431028" lon="10.447427193182598"><ele>213.33333333333331</ele><time>2026-03-28T14:29:22.002Z</time></trkpt><trkpt lat="45.52932919236114" lon="10.447545658328231"><ele>214.0</ele><time>2026-03-28T14:29:23.002Z</time></trkpt><trkpt lat="45.52916716029499" lon="10.447674966811416"><ele>214.0</ele><time>2026-03-28T14:29:24.002Z</time></trkpt><trkpt lat="45.529011139962776" lon="10.44781789462984"><ele>214.0</ele><time>2026-03-28T14:29:25.002Z</time></trkpt><trkpt lat="45.52886349770429" lon="10.447972960261232"><ele>214.0</ele><time>2026-03-28T14:29:26.002Z</time></trkpt><trkpt lat="45.52873813824608" lon="10.448143727802202"><ele>212.0</ele><time>2026-03-28T14:29:27.002Z</time></trkpt><trkpt lat="45.52862846645089" lon="10.448344442718417"><ele>210.0</ele><time>2026-03-28T14:29:28.002Z</time></trkpt><trkpt lat="45.528552530074805" lon="10.448556019819346"><ele>208.0</ele><time>2026-03-28T14:29:29.002Z</time></trkpt><trkpt lat="45.52851008936414" lon="10.448778528305116"><ele>208.0</ele><time>2026-03-28T14:29:30.002Z</time></trkpt><trkpt lat="45.528496933109025" lon="10.449007869136835"><ele>208.0</ele><time>2026-03-28T14:29:31.002Z</time></trkpt><trkpt lat="45.52850599065328" lon="10.44924742892987"><ele>208.0</ele><time>2026-03-28T14:29:32.002Z</time></trkpt><trkpt lat="45.52852837463355" lon="10.44948924203375"><ele>208.33333333333331</ele><time>2026-03-28T14:29:33.002Z</time></trkpt><trkpt lat="45.5285463656157" lon="10.449738162034595"><ele>208.66666666666669</ele><time>2026-03-28T14:29:34.002Z</time></trkpt><trkpt lat="45.52854069949997" lon="10.449986738001122"><ele>209.0</ele><time>2026-03-28T14:29:35.003Z</time></trkpt><trkpt lat="45.5285154638667" lon="10.450239618314376"><ele>208.66666666666669</ele><time>2026-03-28T14:29:36.003Z</time></trkpt><trkpt lat="45.52846415461906" lon="10.450482208644928"><ele>208.33333333333331</ele><time>2026-03-28T14:29:37.003Z</time></trkpt><trkpt lat="45.52838827345188" lon="10.45072618362188"><ele>208.0</ele><time>2026-03-28T14:29:38.003Z</time></trkpt><trkpt lat="45.52829016586443" lon="10.450952820522371"><ele>208.0</ele><time>2026-03-28T14:29:39.003Z</time></trkpt><trkpt lat="45.52816774114775" lon="10.451161961631062"><ele>208.0</ele><time>2026-03-28T14:29:40.003Z</time></trkpt><trkpt lat="45.52802195857979" lon="10.451355362972931"><ele>208.0</ele><time>2026-03-28T14:29:41.003Z</time></trkpt><trkpt lat="45.527868204608836" lon="10.451530923872115"><ele>208.0</ele><time>2026-03-28T14:29:42.003Z</time></trkpt><trkpt lat="45.52771370067327" lon="10.451712086317407"><ele>208.0</ele><time>2026-03-28T14:29:43.003Z</time></trkpt><trkpt lat="45.527583742041934" lon="10.451891518901142"><ele>208.0</ele><time>2026-03-28T14:29:44.003Z</time></trkpt><trkpt lat="45.52747267836852" lon="10.452079311136696"><ele>207.33333333333331</ele><time>2026-03-28T14:29:45.003Z</time></trkpt><trkpt lat="45.52737027321167" lon="10.452285778017375"><ele>206.66666666666669</ele><time>2026-03-28T14:29:46.003Z</time></trkpt><trkpt lat="45.527277491126334" lon="10.452497819366812"><ele>206.0</ele><time>2026-03-28T14:29:47.003Z</time></trkpt><trkpt lat="45.527189568111474" lon="10.452710009747452"><ele>206.0</ele><time>2026-03-28T14:29:48.003Z</time></trkpt><trkpt lat="45.52710628757837" lon="10.452906317994717"><ele>206.0</ele><time>2026-03-28T14:29:49.003Z</time></trkpt><trkpt lat="45.52702882081446" lon="10.453077924546726"><ele>206.0</ele><time>2026-03-28T14:29:50.003Z</time></trkpt><trkpt lat="45.52695159193251" lon="10.453225175877252"><ele>206.0</ele><time>2026-03-28T14:29:51.003Z</time></trkpt><trkpt lat="45.52686819569738" lon="10.453371192156123"><ele>206.0</ele><time>2026-03-28T14:29:52.003Z</time></trkpt><trkpt lat="45.52677870640321" lon="10.453512453168676"><ele>206.0</ele><time>2026-03-28T14:29:53.003Z</time></trkpt><trkpt lat="45.526692560289895" lon="10.453644068330888"><ele>206.0</ele><time>2026-03-28T14:29:54.003Z</time></trkpt><trkpt lat="45.526607881665235" lon="10.453777473153309"><ele>206.0</ele><time>2026-03-28T14:29:55.003Z</time></trkpt><trkpt lat="45.5265224092223" lon="10.453920268039132"><ele>206.5</ele><time>2026-03-28T14:29:56.003Z</time></trkpt><trkpt lat="45.526441431504296" lon="10.454070986909834"><ele>207.0</ele><time>2026-03-28T14:29:57.003Z</time></trkpt><trkpt lat="45.52637529385254" lon="10.454242817599297"><ele>207.5</ele><time>2026-03-28T14:29:58.003Z</time></trkpt><trkpt lat="45.52631450949729" lon="10.45443973086769"><ele>208.0</ele><time>2026-03-28T14:29:59.003Z</time></trkpt><trkpt lat="45.526245629800215" lon="10.454640100799335"><ele>207.0</ele><time>2026-03-28T14:30:00.003Z</time></trkpt><trkpt lat="45.52617131916593" lon="10.454840924449314"><ele>206.0</ele><time>2026-03-28T14:30:00.999Z</time></trkpt><trkpt lat="45.52610162315447" lon="10.455035719337616"><ele>205.0</ele><time>2026-03-28T14:30:01.999Z</time></trkpt><trkpt lat="45.52603219490889" lon="10.45523269098713"><ele>205.0</ele><time>2026-03-28T14:30:02.999Z</time></trkpt><trkpt lat="45.525959836781844" lon="10.455435835547002"><ele>205.0</ele><time>2026-03-28T14:30:03.999Z</time></trkpt><trkpt lat="45.525886464767844" lon="10.455640765780666"><ele>205.0</ele><time>2026-03-28T14:30:04.999Z</time></trkpt><trkpt lat="45.52581524425216" lon="10.45583991980948"><ele>205.0</ele><time>2026-03-28T14:30:05.999Z</time></trkpt><trkpt lat="45.52574178137871" lon="10.45603148221838"><ele>205.0</ele><time>2026-03-28T14:30:06.999Z</time></trkpt><trkpt lat="45.52567284825054" lon="10.45621690820989"><ele>205.0</ele><time>2026-03-28T14:30:07.999Z</time></trkpt><trkpt lat="45.525606557321055" lon="10.456385231847865"><ele>205.0</ele><time>2026-03-28T14:30:08.999Z</time></trkpt><trkpt lat="45.525542338790004" lon="10.456544917060919"><ele>205.0</ele><time>2026-03-28T14:30:09.999Z</time></trkpt><trkpt lat="45.52545838655227" lon="10.456686446443898"><ele>205.0</ele><time>2026-03-28T14:30:10.999Z</time></trkpt><trkpt lat="45.525379934827484" lon="10.456852002890242"><ele>205.0</ele><time>2026-03-28T14:30:11.999Z</time></trkpt><trkpt lat="45.52529321216186" lon="10.457018806801456"><ele>205.0</ele><time>2026-03-28T14:30:12.999Z</time></trkpt><trkpt lat="45.52521379331438" lon="10.457178591799288"><ele>204.5</ele><time>2026-03-28T14:30:13.999Z</time></trkpt><trkpt lat="45.52514491716569" lon="10.45732735637482"><ele>204.0</ele><time>2026-03-28T14:30:14.999Z</time></trkpt><trkpt lat="45.52507301123061" lon="10.457492850730645"><ele>203.5</ele><time>2026-03-28T14:30:15.999Z</time></trkpt><trkpt lat="45.52499299630896" lon="10.45768019113738"><ele>203.0</ele><time>2026-03-28T14:30:16.999Z</time></trkpt><trkpt lat="45.52489849220447" lon="10.457882670874177"><ele>203.0</ele><time>2026-03-28T14:30:17.999Z</time></trkpt><trkpt lat="45.52479166176372" lon="10.458099839186945"><ele>203.0</ele><time>2026-03-28T14:30:18.999Z</time></trkpt><trkpt lat="45.52468810964004" lon="10.45832753493032"><ele>203.0</ele><time>2026-03-28T14:30:19.999Z</time></trkpt><trkpt lat="45.524566195841444" lon="10.458550902171538"><ele>202.0</ele><time>2026-03-28T14:30:21Z</time></trkpt><trkpt lat="45.52447276294731" lon="10.458785725953122"><ele>201.0</ele><time>2026-03-28T14:30:22Z</time></trkpt><trkpt lat="45.5243834648131" lon="10.459005240765826"><ele>200.0</ele><time>2026-03-28T14:30:23Z</time></trkpt><trkpt lat="45.52429318482394" lon="10.45921118878115"><ele>200.0</ele><time>2026-03-28T14:30:24Z</time></trkpt><trkpt lat="45.52419844769922" lon="10.459423871593296"><ele>200.0</ele><time>2026-03-28T14:30:25Z</time></trkpt><trkpt lat="45.524059823305066" lon="10.45956594955805"><ele>200.0</ele><time>2026-03-28T14:30:26Z</time></trkpt><trkpt lat="45.52392714612245" lon="10.45967554638021"><ele>200.0</ele><time>2026-03-28T14:30:27Z</time></trkpt><trkpt lat="45.5237814862267" lon="10.459746179687059"><ele>200.0</ele><time>2026-03-28T14:30:28Z</time></trkpt><trkpt lat="45.523635696356656" lon="10.459789851777554"><ele>200.0</ele><time>2026-03-28T14:30:29Z</time></trkpt><trkpt lat="45.52349514700666" lon="10.459845661067913"><ele>200.0</ele><time>2026-03-28T14:30:30Z</time></trkpt><trkpt lat="45.52335255437457" lon="10.459876891206385"><ele>200.0</ele><time>2026-03-28T14:30:31Z</time></trkpt><trkpt lat="45.52321638508721" lon="10.459912342717981"><ele>200.0</ele><time>2026-03-28T14:30:32Z</time></trkpt><trkpt lat="45.52306977674628" lon="10.459953242421964"><ele>200.0</ele><time>2026-03-28T14:30:33Z</time></trkpt><trkpt lat="45.52290421440128" lon="10.45999238798822"><ele>200.33333333333334</ele><time>2026-03-28T14:30:34Z</time></trkpt><trkpt lat="45.522728622999104" lon="10.45998486811297"><ele>200.66666666666669</ele><time>2026-03-28T14:30:35Z</time></trkpt><trkpt lat="45.52256910333221" lon="10.46002264082558"><ele>201.0</ele><time>2026-03-28T14:30:36Z</time></trkpt><trkpt lat="45.52242254188484" lon="10.460026494789487"><ele>201.0</ele><time>2026-03-28T14:30:37Z</time></trkpt><trkpt lat="45.52230829957486" lon="10.46006650416367"><ele>201.0</ele><time>2026-03-28T14:30:38Z</time></trkpt><trkpt lat="45.52222091588993" lon="10.46007107846314"><ele>201.0</ele><time>2026-03-28T14:30:39Z</time></trkpt><trkpt lat="45.52214763102778" lon="10.460073472107938"><ele>201.0</ele><time>2026-03-28T14:30:40Z</time></trkpt><trkpt lat="45.52207075030692" lon="10.46009149633272"><ele>201.0</ele><time>2026-03-28T14:30:41Z</time></trkpt><trkpt lat="45.52198693668386" lon="10.460089661705647"><ele>201.0</ele><time>2026-03-28T14:30:42Z</time></trkpt><trkpt lat="45.521907847450024" lon="10.460073960216818"><ele>201.0</ele><time>2026-03-28T14:30:44Z</time></trkpt><trkpt lat="45.52187284680687" lon="10.459838815961856"><ele>201.0</ele><time>2026-03-28T14:30:45Z</time></trkpt><trkpt lat="45.52179471267181" lon="10.459804276465889"><ele>201.0</ele><time>2026-03-28T14:30:46.001Z</time></trkpt><trkpt lat="45.52169936032559" lon="10.459728641974126"><ele>201.0</ele><time>2026-03-28T14:30:47.001Z</time></trkpt><trkpt lat="45.5215809857639" lon="10.459641779446262"><ele>200.33333333333331</ele><time>2026-03-28T14:30:48.001Z</time></trkpt><trkpt lat="45.52144219099747" lon="10.459560386993244"><ele>199.66666666666666</ele><time>2026-03-28T14:30:49.001Z</time></trkpt><trkpt lat="45.521293877937204" lon="10.45947594794736"><ele>199.0</ele><time>2026-03-28T14:30:50.001Z</time></trkpt><trkpt lat="45.52114619015714" lon="10.459359201618527"><ele>199.0</ele><time>2026-03-28T14:30:51.001Z</time></trkpt><trkpt lat="45.520982606937864" lon="10.459280644308146"><ele>199.0</ele><time>2026-03-28T14:30:52.001Z</time></trkpt><trkpt lat="45.52082415460409" lon="10.459153247397094"><ele>199.0</ele><time>2026-03-28T14:30:53.001Z</time></trkpt><trkpt lat="45.520666575812044" lon="10.459038936447548"><ele>199.0</ele><time>2026-03-28T14:30:54.001Z</time></trkpt><trkpt lat="45.52050981878225" lon="10.4589378252948"><ele>199.0</ele><time>2026-03-28T14:30:55.001Z</time></trkpt><trkpt lat="45.52038984285977" lon="10.45881655827121"><ele>199.0</ele><time>2026-03-28T14:30:56.001Z</time></trkpt><trkpt lat="45.52028024483082" lon="10.458700906363896"><ele>198.0</ele><time>2026-03-28T14:30:57.001Z</time></trkpt><trkpt lat="45.52015128913628" lon="10.458580151726972"><ele>197.0</ele><time>2026-03-28T14:30:58.001Z</time></trkpt><trkpt lat="45.52000670543196" lon="10.458496861828321"><ele>196.0</ele><time>2026-03-28T14:30:59.001Z</time></trkpt><trkpt lat="45.51986272297443" lon="10.458415783327334"><ele>196.0</ele><time>2026-03-28T14:31:00.001Z</time></trkpt><trkpt lat="45.51971190434815" lon="10.458344577442574"><ele>196.0</ele><time>2026-03-28T14:31:01.001Z</time></trkpt><trkpt lat="45.519582011289785" lon="10.458302628242368"><ele>196.0</ele><time>2026-03-28T14:31:02.001Z</time></trkpt><trkpt lat="45.519467235148056" lon="10.458254483578559"><ele>196.0</ele><time>2026-03-28T14:31:03.001Z</time></trkpt><trkpt lat="45.51934040701762" lon="10.458247955783083"><ele>195.5</ele><time>2026-03-28T14:31:04.001Z</time></trkpt><trkpt lat="45.51919898949433" lon="10.458228478672607"><ele>195.0</ele><time>2026-03-28T14:31:05.001Z</time></trkpt><trkpt lat="45.519055963617234" lon="10.458183483083832"><ele>194.5</ele><time>2026-03-28T14:31:06.001Z</time></trkpt><trkpt lat="45.51892855196773" lon="10.458135395791732"><ele>194.0</ele><time>2026-03-28T14:31:07.001Z</time></trkpt><trkpt lat="45.51882281223339" lon="10.458094261928435"><ele>194.25</ele><time>2026-03-28T14:31:08.001Z</time></trkpt><trkpt lat="45.51871489964101" lon="10.458052282818924"><ele>194.5</ele><time>2026-03-28T14:31:09.001Z</time></trkpt><trkpt lat="45.51860257182169" lon="10.458031593424954"><ele>194.75</ele><time>2026-03-28T14:31:10.001Z</time></trkpt><trkpt lat="45.51848364001077" lon="10.457974680911038"><ele>195.0</ele><time>2026-03-28T14:31:11.001Z</time></trkpt><trkpt lat="45.5183526300926" lon="10.457926794285102"><ele>194.33333333333331</ele><time>2026-03-28T14:31:12.001Z</time></trkpt><trkpt lat="45.518209115298724" lon="10.457878991834225"><ele>193.66666666666666</ele><time>2026-03-28T14:31:13.001Z</time></trkpt><trkpt lat="45.51806314743301" lon="10.457822295141122"><ele>193.0</ele><time>2026-03-28T14:31:14.001Z</time></trkpt><trkpt lat="45.517912796779015" lon="10.457771688328707"><ele>192.33333333333331</ele><time>2026-03-28T14:31:15.001Z</time></trkpt><trkpt lat="45.51776764614411" lon="10.457714861643316"><ele>191.66666666666666</ele><time>2026-03-28T14:31:16.001Z</time></trkpt><trkpt lat="45.517606427273606" lon="10.457656881745642"><ele>191.0</ele><time>2026-03-28T14:31:17.001Z</time></trkpt><trkpt lat="45.517448437682795" lon="10.457603995488057"><ele>191.0</ele><time>2026-03-28T14:31:18.002Z</time></trkpt><trkpt lat="45.517280550054004" lon="10.457532451618535"><ele>191.0</ele><time>2026-03-28T14:31:19.002Z</time></trkpt><trkpt lat="45.517141611080376" lon="10.45746931168091"><ele>191.0</ele><time>2026-03-28T14:31:20.002Z</time></trkpt><trkpt lat="45.51699729792248" lon="10.457364223032258"><ele>191.0</ele><time>2026-03-28T14:31:21.002Z</time></trkpt><trkpt lat="45.51684308024158" lon="10.457277619955818"><ele>191.0</ele><time>2026-03-28T14:31:22.002Z</time></trkpt><trkpt lat="45.51669027994889" lon="10.457214459298584"><ele>191.0</ele><time>2026-03-28T14:31:23.002Z</time></trkpt><trkpt lat="45.51656900964208" lon="10.457168961239699"><ele>190.5</ele><time>2026-03-28T14:31:24.002Z</time></trkpt><trkpt lat="45.51644976688905" lon="10.457099540339694"><ele>190.0</ele><time>2026-03-28T14:31:25.002Z</time></trkpt><trkpt lat="45.51632180632049" lon="10.45705699163485"><ele>189.5</ele><time>2026-03-28T14:31:26.002Z</time></trkpt><trkpt lat="45.51619046048191" lon="10.45696757502093"><ele>189.0</ele><time>2026-03-28T14:31:27.002Z</time></trkpt><trkpt lat="45.51605826134681" lon="10.456906620884984"><ele>189.0</ele><time>2026-03-28T14:31:28.002Z</time></trkpt><trkpt lat="45.51593852600867" lon="10.456805264318401"><ele>189.0</ele><time>2026-03-28T14:31:29.002Z</time></trkpt><trkpt lat="45.51581094780459" lon="10.456694794987584"><ele>189.0</ele><time>2026-03-28T14:31:30.002Z</time></trkpt><trkpt lat="45.51569529587612" lon="10.456586861961108"><ele>189.0</ele><time>2026-03-28T14:31:31.002Z</time></trkpt><trkpt lat="45.51556353516506" lon="10.456472529977164"><ele>189.0</ele><time>2026-03-28T14:31:32.002Z</time></trkpt><trkpt lat="45.51545989584098" lon="10.456390206450676"><ele>189.0</ele><time>2026-03-28T14:31:33.002Z</time></trkpt><trkpt lat="45.51536010578812" lon="10.456320417553965"><ele>189.0</ele><time>2026-03-28T14:31:34.002Z</time></trkpt><trkpt lat="45.51524998815805" lon="10.456258245255505"><ele>189.0</ele><time>2026-03-28T14:31:35.002Z</time></trkpt><trkpt lat="45.515136904140896" lon="10.456219008101261"><ele>188.79999999999998</ele><time>2026-03-28T14:31:36.002Z</time></trkpt><trkpt lat="45.51501847471636" lon="10.456207447356105"><ele>188.6</ele><time>2026-03-28T14:31:37.002Z</time></trkpt><trkpt lat="45.51491220971748" lon="10.456196090036672"><ele>188.4</ele><time>2026-03-28T14:31:38.002Z</time></trkpt><trkpt lat="45.51482241803577" lon="10.456171394171815"><ele>188.2</ele><time>2026-03-28T14:31:39.002Z</time></trkpt><trkpt lat="45.51472124816554" lon="10.456123187958495"><ele>188.0</ele><time>2026-03-28T14:31:40.002Z</time></trkpt><trkpt lat="45.51462055110001" lon="10.456064384510013"><ele>187.5</ele><time>2026-03-28T14:31:41.002Z</time></trkpt><trkpt lat="45.514497894769214" lon="10.4560190159967"><ele>187.0</ele><time>2026-03-28T14:31:42.002Z</time></trkpt><trkpt lat="45.51437738395345" lon="10.455954786660401"><ele>186.5</ele><time>2026-03-28T14:31:43.002Z</time></trkpt><trkpt lat="45.51425565867969" lon="10.455881162530202"><ele>186.0</ele><time>2026-03-28T14:31:44.002Z</time></trkpt><trkpt lat="45.51414295125757" lon="10.455829340896466"><ele>186.0</ele><time>2026-03-28T14:31:45.002Z</time></trkpt><trkpt lat="45.514034977385286" lon="10.455804332549064"><ele>186.0</ele><time>2026-03-28T14:31:46.002Z</time></trkpt><trkpt lat="45.513945885152346" lon="10.45573713212769"><ele>186.0</ele><time>2026-03-28T14:31:47.002Z</time></trkpt><trkpt lat="45.51385099337059" lon="10.455687802319261"><ele>186.0</ele><time>2026-03-28T14:31:48.002Z</time></trkpt><trkpt lat="45.51377244053396" lon="10.455645403873259"><ele>186.0</ele><time>2026-03-28T14:31:49.002Z</time></trkpt><trkpt lat="45.51368721326197" lon="10.455591732713692"><ele>186.0</ele><time>2026-03-28T14:31:50.002Z</time></trkpt><trkpt lat="45.51358904685188" lon="10.455524365071197"><ele>186.0</ele><time>2026-03-28T14:31:51.003Z</time></trkpt><trkpt lat="45.51349368010586" lon="10.455457462126475"><ele>186.0</ele><time>2026-03-28T14:31:52.003Z</time></trkpt><trkpt lat="45.51339919507677" lon="10.455385746096029"><ele>186.0</ele><time>2026-03-28T14:31:53.003Z</time></trkpt><trkpt lat="45.5132978841641" lon="10.45530871091575"><ele>186.0</ele><time>2026-03-28T14:31:54.003Z</time></trkpt><trkpt lat="45.51318805679968" lon="10.455240613409716"><ele>185.75</ele><time>2026-03-28T14:31:55.003Z</time></trkpt><trkpt lat="45.51308698996183" lon="10.455185786650452"><ele>185.5</ele><time>2026-03-28T14:31:56.003Z</time></trkpt><trkpt lat="45.512959776434144" lon="10.455131362185748"><ele>185.25</ele><time>2026-03-28T14:31:57.003Z</time></trkpt><trkpt lat="45.51284492426454" lon="10.455112545354329"><ele>185.0</ele><time>2026-03-28T14:31:58.003Z</time></trkpt><trkpt lat="45.512735436888626" lon="10.45511432215303"><ele>184.75</ele><time>2026-03-28T14:31:59.003Z</time></trkpt><trkpt lat="45.51261091022922" lon="10.455158926241495"><ele>184.5</ele><time>2026-03-28T14:32:00.003Z</time></trkpt><trkpt lat="45.512495201683464" lon="10.455224520804625"><ele>184.25</ele><time>2026-03-28T14:32:01.003Z</time></trkpt><trkpt lat="45.51239569889774" lon="10.455276235266247"><ele>184.0</ele><time>2026-03-28T14:32:02.003Z</time></trkpt><trkpt lat="45.51229954019496" lon="10.455313384684121"><ele>184.0</ele><time>2026-03-28T14:32:03.003Z</time></trkpt><trkpt lat="45.512212849664195" lon="10.455445972031061"><ele>184.0</ele><time>2026-03-28T14:32:04.003Z</time></trkpt><trkpt lat="45.51210033521729" lon="10.455510246521941"><ele>184.0</ele><time>2026-03-28T14:32:05.003Z</time></trkpt><trkpt lat="45.51199466007701" lon="10.455629167181188"><ele>184.0</ele><time>2026-03-28T14:32:06.003Z</time></trkpt><trkpt lat="45.51189882899861" lon="10.455768768529383"><ele>184.25</ele><time>2026-03-28T14:32:06.998Z</time></trkpt><trkpt lat="45.51178381085448" lon="10.455874071497814"><ele>184.5</ele><time>2026-03-28T14:32:07.998Z</time></trkpt><trkpt lat="45.51167729031929" lon="10.456003485432099"><ele>184.75</ele><time>2026-03-28T14:32:08.998Z</time></trkpt><trkpt lat="45.51158592850832" lon="10.456121104662538"><ele>185.0</ele><time>2026-03-28T14:32:09.999Z</time></trkpt><trkpt lat="45.51150188188441" lon="10.456229951789306"><ele>185.0</ele><time>2026-03-28T14:32:10.999Z</time></trkpt><trkpt lat="45.511405624753614" lon="10.45635461252673"><ele>185.0</ele><time>2026-03-28T14:32:11.999Z</time></trkpt><trkpt lat="45.51131207619192" lon="10.456473605237466"><ele>185.0</ele><time>2026-03-28T14:32:12.999Z</time></trkpt><trkpt lat="45.51121518142072" lon="10.45659497775594"><ele>185.0</ele><time>2026-03-28T14:32:13.999Z</time></trkpt><trkpt lat="45.511121493224316" lon="10.456711422582229"><ele>185.0</ele><time>2026-03-28T14:32:14.999Z</time></trkpt><trkpt lat="45.51103662004672" lon="10.456816911298535"><ele>185.0</ele><time>2026-03-28T14:32:15.999Z</time></trkpt><trkpt lat="45.51094763416599" lon="10.456927511893277"><ele>185.0</ele><time>2026-03-28T14:32:16.999Z</time></trkpt><trkpt lat="45.51086720759658" lon="10.457027473862446"><ele>185.0</ele><time>2026-03-28T14:32:17.999Z</time></trkpt><trkpt lat="45.51080247971277" lon="10.45713632771968"><ele>185.0</ele><time>2026-03-28T14:32:18.999Z</time></trkpt><trkpt lat="45.510723815779244" lon="10.457218674538518"><ele>185.0</ele><time>2026-03-28T14:32:19.999Z</time></trkpt><trkpt lat="45.510649954186285" lon="10.457323528495898"><ele>185.0</ele><time>2026-03-28T14:32:20.999Z</time></trkpt><trkpt lat="45.51056541867222" lon="10.457425328522818"><ele>185.0</ele><time>2026-03-28T14:32:21.999Z</time></trkpt><trkpt lat="45.5104827760977" lon="10.457539309623135"><ele>185.0</ele><time>2026-03-28T14:32:22.999Z</time></trkpt><trkpt lat="45.510393644816666" lon="10.457659492826142"><ele>184.75</ele><time>2026-03-28T14:32:24Z</time></trkpt><trkpt lat="45.51029275379193" lon="10.457797607004517"><ele>184.5</ele><time>2026-03-28T14:32:25Z</time></trkpt><trkpt lat="45.51019433566612" lon="10.45795666361573"><ele>184.25</ele><time>2026-03-28T14:32:26Z</time></trkpt><trkpt lat="45.51009364327444" lon="10.458129011065305"><ele>184.0</ele><time>2026-03-28T14:32:27Z</time></trkpt><trkpt lat="45.50998102395438" lon="10.458301715074256"><ele>184.0</ele><time>2026-03-28T14:32:28Z</time></trkpt><trkpt lat="45.509873793780855" lon="10.458510335957548"><ele>184.0</ele><time>2026-03-28T14:32:29Z</time></trkpt><trkpt lat="45.50975378858844" lon="10.458704161669253"><ele>184.0</ele><time>2026-03-28T14:32:30Z</time></trkpt><trkpt lat="45.509635075961945" lon="10.458907413560446"><ele>183.33333333333334</ele><time>2026-03-28T14:32:31Z</time></trkpt><trkpt lat="45.50951824584207" lon="10.459102312690202"><ele>182.66666666666666</ele><time>2026-03-28T14:32:32Z</time></trkpt><trkpt lat="45.5094110834976" lon="10.4593014900326"><ele>182.0</ele><time>2026-03-28T14:32:33Z</time></trkpt><trkpt lat="45.50931173078306" lon="10.459501566661018"><ele>182.66666666666666</ele><time>2026-03-28T14:32:34Z</time></trkpt><trkpt lat="45.509211250153015" lon="10.45969763099987"><ele>183.33333333333334</ele><time>2026-03-28T14:32:35Z</time></trkpt><trkpt lat="45.5091163127735" lon="10.459900892563592"><ele>184.0</ele><time>2026-03-28T14:32:36Z</time></trkpt><trkpt lat="45.509021540705625" lon="10.460098004573437"><ele>184.0</ele><time>2026-03-28T14:32:37Z</time></trkpt><trkpt lat="45.50890409187507" lon="10.460293632833439"><ele>184.0</ele><time>2026-03-28T14:32:38Z</time></trkpt><trkpt lat="45.5087993932981" lon="10.46049073171681"><ele>184.0</ele><time>2026-03-28T14:32:39Z</time></trkpt><trkpt lat="45.50870177059105" lon="10.460672372248007"><ele>184.0</ele><time>2026-03-28T14:32:40Z</time></trkpt><trkpt lat="45.50859426480163" lon="10.4608553502445"><ele>184.0</ele><time>2026-03-28T14:32:41Z</time></trkpt><trkpt lat="45.50848004662137" lon="10.461018152779214"><ele>184.0</ele><time>2026-03-28T14:32:42.001Z</time></trkpt><trkpt lat="45.50837125993345" lon="10.461169649840238"><ele>184.5</ele><time>2026-03-28T14:32:43.001Z</time></trkpt><trkpt lat="45.50827834566122" lon="10.461297880227514"><ele>185.0</ele><time>2026-03-28T14:32:44.001Z</time></trkpt><trkpt lat="45.508203922598994" lon="10.461417672315019"><ele>185.5</ele><time>2026-03-28T14:32:45.001Z</time></trkpt><trkpt lat="45.50815657206776" lon="10.461550057462249"><ele>186.0</ele><time>2026-03-28T14:32:46.001Z</time></trkpt><trkpt lat="45.5081256495373" lon="10.461699738259114"><ele>186.0</ele><time>2026-03-28T14:32:47.001Z</time></trkpt><trkpt lat="45.508143570306444" lon="10.461889272524193"><ele>186.0</ele><time>2026-03-28T14:32:48.001Z</time></trkpt><trkpt lat="45.508166077912925" lon="10.462072178149537"><ele>186.0</ele><time>2026-03-28T14:32:49.001Z</time></trkpt><trkpt lat="45.50819406474593" lon="10.462255276684791"><ele>186.0</ele><time>2026-03-28T14:32:50.001Z</time></trkpt><trkpt lat="45.50821343925675" lon="10.46244691499269"><ele>186.5</ele><time>2026-03-28T14:32:51.001Z</time></trkpt><trkpt lat="45.5082452694806" lon="10.462637634178147"><ele>187.0</ele><time>2026-03-28T14:32:52.001Z</time></trkpt><trkpt lat="45.508263371527235" lon="10.462828006100777"><ele>187.5</ele><time>2026-03-28T14:32:53.001Z</time></trkpt><trkpt lat="45.50828871249672" lon="10.463008644832277"><ele>188.0</ele><time>2026-03-28T14:32:54.001Z</time></trkpt><trkpt lat="45.508309446854476" lon="10.46316829433351"><ele>188.0</ele><time>2026-03-28T14:32:55.001Z</time></trkpt><trkpt lat="45.508325209034425" lon="10.463310723018083"><ele>188.0</ele><time>2026-03-28T14:32:56.001Z</time></trkpt><trkpt lat="45.50832046682985" lon="10.463427971171853"><ele>188.0</ele><time>2026-03-28T14:32:57.001Z</time></trkpt><trkpt lat="45.50833958272987" lon="10.463533263574275"><ele>188.0</ele><time>2026-03-28T14:32:59.001Z</time></trkpt><trkpt lat="45.50816653303706" lon="10.463643313038629"><ele>188.0</ele><time>2026-03-28T14:33:08.001Z</time></trkpt><trkpt lat="45.508065407858794" lon="10.463657990405292"><ele>188.0</ele><time>2026-03-28T14:33:13.002Z</time></trkpt><trkpt lat="45.507921523346695" lon="10.463674140853163"><ele>188.0</ele><time>2026-03-28T14:33:15.002Z</time></trkpt><trkpt lat="45.507845139984354" lon="10.463681076330912"><ele>188.0</ele><time>2026-03-28T14:33:16.002Z</time></trkpt><trkpt lat="45.50776836544371" lon="10.46368804732885"><ele>188.0</ele><time>2026-03-28T14:33:17.002Z</time></trkpt><trkpt lat="45.50769379380458" lon="10.463694818298576"><ele>188.0</ele><time>2026-03-28T14:33:18.002Z</time></trkpt><trkpt lat="45.50754754506674" lon="10.463708097453084"><ele>186.5</ele><time>2026-03-28T14:33:20.002Z</time></trkpt><trkpt lat="45.507480344302465" lon="10.463714199142805"><ele>185.0</ele><time>2026-03-28T14:33:21.002Z</time></trkpt><trkpt lat="45.5073677692634" lon="10.463724420738615"><ele>183.5</ele><time>2026-03-28T14:33:23.002Z</time></trkpt><trkpt lat="45.50723246667402" lon="10.463738078549163"><ele>182.0</ele><time>2026-03-28T14:33:25.002Z</time></trkpt><trkpt lat="45.50717028454936" lon="10.463300524241975"><ele>182.0</ele><time>2026-03-28T14:33:26.002Z</time></trkpt><trkpt lat="45.50712502467984" lon="10.463194700452505"><ele>182.0</ele><time>2026-03-28T14:33:28.002Z</time></trkpt><trkpt lat="45.506758559344355" lon="10.46325854671273"><ele>182.0</ele><time>2026-03-28T14:33:30.002Z</time></trkpt><trkpt lat="45.50676683542007" lon="10.463119558699788"><ele>182.0</ele><time>2026-03-28T14:33:32.002Z</time></trkpt><trkpt lat="45.50677769261663" lon="10.463021792185824"><ele>182.0</ele><time>2026-03-28T14:33:34.002Z</time></trkpt><trkpt lat="45.50729696544509" lon="10.462776353857125"><ele>184.0</ele><time>2026-03-28T14:33:35.002Z</time></trkpt><trkpt lat="45.507350324901516" lon="10.46271003910042"><ele>184.0</ele><time>2026-03-28T14:33:36.002Z</time></trkpt><trkpt lat="45.507415847150455" lon="10.462623984801276"><ele>184.0</ele><time>2026-03-28T14:33:38.002Z</time></trkpt><trkpt lat="45.507488866409346" lon="10.462635494704891"><ele>184.0</ele><time>2026-03-28T14:33:41.002Z</time></trkpt></trkseg></trk></gpx>